<?xml version="1.0" encoding="UTF-8" standalone="no" ?>
<gpx xmlns="http://www.topografix.com/GPX/1/1" xmlns:xsi="http://www.w3.org/2001/XMLSchema-instance" xsi:schemaLocation="http://www.topografix.com/GPX/1/1 http://www.topografix.com/GPX/1/1/gpx.xsd" version="1.1" creator="VisuGPX - https://www.visugpx.com">
  <metadata>
    <name>lundi 2015 05 11</name>
    <desc><![CDATA[rando du lundi]]></desc>
  </metadata>
  <trk>
    <name><![CDATA[85 Quai de la Mégisserie]]></name>
    <desc><![CDATA[]]></desc>
    <trkseg>
      <trkpt lat="48.85737" lon="2.34724">
        <ele>83.6</ele>
        <time>2015-05-11T18:20:32.103Z</time>
      </trkpt>
      <trkpt lat="48.85736" lon="2.34716">
        <ele>83.8</ele>
        <time>2015-05-11T18:20:38.627Z</time>
      </trkpt>
      <trkpt lat="48.85736" lon="2.34716">
        <ele>83.9</ele>
        <time>2015-05-11T18:20:39.630Z</time>
      </trkpt>
      <trkpt lat="48.85736" lon="2.34715">
        <ele>84.1</ele>
        <time>2015-05-11T18:21:04.681Z</time>
      </trkpt>
      <trkpt lat="48.85735" lon="2.34716">
        <ele>87</ele>
        <time>2015-05-11T18:21:05.695Z</time>
      </trkpt>
      <trkpt lat="48.85734" lon="2.34718">
        <ele>86.9</ele>
        <time>2015-05-11T18:21:07.706Z</time>
      </trkpt>
      <trkpt lat="48.85735" lon="2.34717">
        <ele>86.9</ele>
        <time>2015-05-11T18:21:08.625Z</time>
      </trkpt>
      <trkpt lat="48.85735" lon="2.34716">
        <ele>86.8</ele>
        <time>2015-05-11T18:21:09.656Z</time>
      </trkpt>
      <trkpt lat="48.85736" lon="2.34702">
        <ele>87.4</ele>
        <time>2015-05-11T18:21:16.627Z</time>
      </trkpt>
      <trkpt lat="48.85736" lon="2.34702">
        <ele>87.4</ele>
        <time>2015-05-11T18:21:17.650Z</time>
      </trkpt>
      <trkpt lat="48.85738" lon="2.34699">
        <ele>86.9</ele>
        <time>2015-05-11T18:21:22.671Z</time>
      </trkpt>
      <trkpt lat="48.85738" lon="2.34699">
        <ele>87</ele>
        <time>2015-05-11T18:21:23.678Z</time>
      </trkpt>
      <trkpt lat="48.85738" lon="2.34698">
        <ele>87.2</ele>
        <time>2015-05-11T18:21:26.695Z</time>
      </trkpt>
      <trkpt lat="48.85738" lon="2.34699">
        <ele>87.3</ele>
        <time>2015-05-11T18:21:27.586Z</time>
      </trkpt>
      <trkpt lat="48.85738" lon="2.34696">
        <ele>87.8</ele>
        <time>2015-05-11T18:21:34.583Z</time>
      </trkpt>
      <trkpt lat="48.85738" lon="2.34697">
        <ele>87.7</ele>
        <time>2015-05-11T18:21:35.685Z</time>
      </trkpt>
      <trkpt lat="48.85738" lon="2.34697">
        <ele>87.6</ele>
        <time>2015-05-11T18:21:36.582Z</time>
      </trkpt>
      <trkpt lat="48.85737" lon="2.34697">
        <ele>87.5</ele>
        <time>2015-05-11T18:21:37.606Z</time>
      </trkpt>
      <trkpt lat="48.85737" lon="2.34695">
        <ele>87.6</ele>
        <time>2015-05-11T18:21:39.625Z</time>
      </trkpt>
      <trkpt lat="48.85738" lon="2.34694">
        <ele>87.5</ele>
        <time>2015-05-11T18:21:40.657Z</time>
      </trkpt>
      <trkpt lat="48.85738" lon="2.34693">
        <ele>87.4</ele>
        <time>2015-05-11T18:21:41.628Z</time>
      </trkpt>
      <trkpt lat="48.85738" lon="2.34693">
        <ele>87.4</ele>
        <time>2015-05-11T18:21:42.610Z</time>
      </trkpt>
      <trkpt lat="48.85739" lon="2.34693">
        <ele>87.4</ele>
        <time>2015-05-11T18:21:43.620Z</time>
      </trkpt>
      <trkpt lat="48.85732" lon="2.3469">
        <ele>86.5</ele>
        <time>2015-05-11T18:21:59.636Z</time>
      </trkpt>
      <trkpt lat="48.85729" lon="2.3469">
        <ele>86.4</ele>
        <time>2015-05-11T18:22:00.631Z</time>
      </trkpt>
      <trkpt lat="48.85722" lon="2.3469">
        <ele>86.1</ele>
        <time>2015-05-11T18:22:03.819Z</time>
      </trkpt>
      <trkpt lat="48.8572" lon="2.3469">
        <ele>86.2</ele>
        <time>2015-05-11T18:22:04.646Z</time>
      </trkpt>
      <trkpt lat="48.85712" lon="2.3469">
        <ele>84.9</ele>
        <time>2015-05-11T18:22:07.648Z</time>
      </trkpt>
      <trkpt lat="48.85709" lon="2.34689">
        <ele>84.8</ele>
        <time>2015-05-11T18:22:08.651Z</time>
      </trkpt>
      <trkpt lat="48.85702" lon="2.34684">
        <ele>84.3</ele>
        <time>2015-05-11T18:22:11.613Z</time>
      </trkpt>
      <trkpt lat="48.85699" lon="2.34682">
        <ele>84.1</ele>
        <time>2015-05-11T18:22:12.702Z</time>
      </trkpt>
      <trkpt lat="48.85692" lon="2.34675">
        <ele>84.4</ele>
        <time>2015-05-11T18:22:15.651Z</time>
      </trkpt>
      <trkpt lat="48.85689" lon="2.34674">
        <ele>84.7</ele>
        <time>2015-05-11T18:22:16.658Z</time>
      </trkpt>
      <trkpt lat="48.85682" lon="2.34668">
        <ele>84.4</ele>
        <time>2015-05-11T18:22:19.705Z</time>
      </trkpt>
      <trkpt lat="48.8568" lon="2.34665">
        <ele>84.4</ele>
        <time>2015-05-11T18:22:20.665Z</time>
      </trkpt>
      <trkpt lat="48.85672" lon="2.34659">
        <ele>83.7</ele>
        <time>2015-05-11T18:22:23.700Z</time>
      </trkpt>
      <trkpt lat="48.85669" lon="2.34659">
        <ele>83.6</ele>
        <time>2015-05-11T18:22:24.697Z</time>
      </trkpt>
      <trkpt lat="48.85664" lon="2.34652">
        <ele>83.4</ele>
        <time>2015-05-11T18:22:27.649Z</time>
      </trkpt>
      <trkpt lat="48.85662" lon="2.34647">
        <ele>83.3</ele>
        <time>2015-05-11T18:22:28.672Z</time>
      </trkpt>
      <trkpt lat="48.85657" lon="2.34641">
        <ele>83.6</ele>
        <time>2015-05-11T18:22:30.707Z</time>
      </trkpt>
      <trkpt lat="48.85654" lon="2.34639">
        <ele>83.6</ele>
        <time>2015-05-11T18:22:31.640Z</time>
      </trkpt>
      <trkpt lat="48.85646" lon="2.34632">
        <ele>83.4</ele>
        <time>2015-05-11T18:22:34.620Z</time>
      </trkpt>
      <trkpt lat="48.85644" lon="2.34631">
        <ele>83.5</ele>
        <time>2015-05-11T18:22:35.668Z</time>
      </trkpt>
      <trkpt lat="48.85637" lon="2.34638">
        <ele>84.4</ele>
        <time>2015-05-11T18:22:42.470Z</time>
      </trkpt>
      <trkpt lat="48.85637" lon="2.34638">
        <ele>84.7</ele>
        <time>2015-05-11T18:22:42.650Z</time>
      </trkpt>
      <trkpt lat="48.85636" lon="2.34638">
        <ele>84.9</ele>
        <time>2015-05-11T18:22:43.669Z</time>
      </trkpt>
      <trkpt lat="48.85636" lon="2.34638">
        <ele>84.9</ele>
        <time>2015-05-11T18:22:44.584Z</time>
      </trkpt>
      <trkpt lat="48.85629" lon="2.34638">
        <ele>84.7</ele>
        <time>2015-05-11T18:22:49.577Z</time>
      </trkpt>
      <trkpt lat="48.85626" lon="2.34638">
        <ele>84.7</ele>
        <time>2015-05-11T18:22:50.720Z</time>
      </trkpt>
      <trkpt lat="48.8562" lon="2.34633">
        <ele>84.9</ele>
        <time>2015-05-11T18:22:53.651Z</time>
      </trkpt>
      <trkpt lat="48.85618" lon="2.34629">
        <ele>85</ele>
        <time>2015-05-11T18:22:54.672Z</time>
      </trkpt>
      <trkpt lat="48.85615" lon="2.34621">
        <ele>84.7</ele>
        <time>2015-05-11T18:22:56.596Z</time>
      </trkpt>
      <trkpt lat="48.85613" lon="2.34617">
        <ele>84.5</ele>
        <time>2015-05-11T18:22:57.668Z</time>
      </trkpt>
      <trkpt lat="48.85608" lon="2.34609">
        <ele>84.3</ele>
        <time>2015-05-11T18:22:59.667Z</time>
      </trkpt>
      <trkpt lat="48.85605" lon="2.34605">
        <ele>84.2</ele>
        <time>2015-05-11T18:23:00.625Z</time>
      </trkpt>
      <trkpt lat="48.856" lon="2.34596">
        <ele>84.1</ele>
        <time>2015-05-11T18:23:03.085Z</time>
      </trkpt>
      <trkpt lat="48.85597" lon="2.34591">
        <ele>84.1</ele>
        <time>2015-05-11T18:23:03.579Z</time>
      </trkpt>
      <trkpt lat="48.85594" lon="2.34586">
        <ele>83.9</ele>
        <time>2015-05-11T18:23:04.606Z</time>
      </trkpt>
      <trkpt lat="48.8559" lon="2.34581">
        <ele>83.6</ele>
        <time>2015-05-11T18:23:05.767Z</time>
      </trkpt>
      <trkpt lat="48.85586" lon="2.34577">
        <ele>83.3</ele>
        <time>2015-05-11T18:23:06.666Z</time>
      </trkpt>
      <trkpt lat="48.85583" lon="2.34573">
        <ele>83</ele>
        <time>2015-05-11T18:23:07.675Z</time>
      </trkpt>
      <trkpt lat="48.85579" lon="2.34569">
        <ele>82.8</ele>
        <time>2015-05-11T18:23:08.634Z</time>
      </trkpt>
      <trkpt lat="48.85574" lon="2.34566">
        <ele>82.7</ele>
        <time>2015-05-11T18:23:09.651Z</time>
      </trkpt>
      <trkpt lat="48.8557" lon="2.34563">
        <ele>82.5</ele>
        <time>2015-05-11T18:23:10.579Z</time>
      </trkpt>
      <trkpt lat="48.85566" lon="2.3456">
        <ele>82.5</ele>
        <time>2015-05-11T18:23:11.588Z</time>
      </trkpt>
      <trkpt lat="48.85562" lon="2.34557">
        <ele>82.6</ele>
        <time>2015-05-11T18:23:13.223Z</time>
      </trkpt>
      <trkpt lat="48.85558" lon="2.34554">
        <ele>82.8</ele>
        <time>2015-05-11T18:23:13.640Z</time>
      </trkpt>
      <trkpt lat="48.85553" lon="2.3455">
        <ele>82.9</ele>
        <time>2015-05-11T18:23:14.686Z</time>
      </trkpt>
      <trkpt lat="48.85548" lon="2.34545">
        <ele>82.9</ele>
        <time>2015-05-11T18:23:15.605Z</time>
      </trkpt>
      <trkpt lat="48.85544" lon="2.34541">
        <ele>82.7</ele>
        <time>2015-05-11T18:23:16.606Z</time>
      </trkpt>
      <trkpt lat="48.8554" lon="2.34538">
        <ele>82.7</ele>
        <time>2015-05-11T18:23:17.624Z</time>
      </trkpt>
      <trkpt lat="48.85536" lon="2.34533">
        <ele>82.6</ele>
        <time>2015-05-11T18:23:18.636Z</time>
      </trkpt>
      <trkpt lat="48.85531" lon="2.34528">
        <ele>82.4</ele>
        <time>2015-05-11T18:23:19.642Z</time>
      </trkpt>
      <trkpt lat="48.85527" lon="2.34523">
        <ele>82.2</ele>
        <time>2015-05-11T18:23:20.654Z</time>
      </trkpt>
      <trkpt lat="48.85522" lon="2.34518">
        <ele>81.9</ele>
        <time>2015-05-11T18:23:21.606Z</time>
      </trkpt>
      <trkpt lat="48.85518" lon="2.34513">
        <ele>81.7</ele>
        <time>2015-05-11T18:23:22.572Z</time>
      </trkpt>
      <trkpt lat="48.85514" lon="2.34508">
        <ele>81.5</ele>
        <time>2015-05-11T18:23:23.637Z</time>
      </trkpt>
      <trkpt lat="48.85509" lon="2.34504">
        <ele>81.4</ele>
        <time>2015-05-11T18:23:24.656Z</time>
      </trkpt>
      <trkpt lat="48.85505" lon="2.345">
        <ele>81.2</ele>
        <time>2015-05-11T18:23:25.644Z</time>
      </trkpt>
      <trkpt lat="48.855" lon="2.34496">
        <ele>81.1</ele>
        <time>2015-05-11T18:23:26.653Z</time>
      </trkpt>
      <trkpt lat="48.85496" lon="2.34491">
        <ele>80.9</ele>
        <time>2015-05-11T18:23:27.701Z</time>
      </trkpt>
      <trkpt lat="48.85492" lon="2.34486">
        <ele>80.8</ele>
        <time>2015-05-11T18:23:28.620Z</time>
      </trkpt>
      <trkpt lat="48.85488" lon="2.3448">
        <ele>80.7</ele>
        <time>2015-05-11T18:23:29.599Z</time>
      </trkpt>
      <trkpt lat="48.85484" lon="2.34475">
        <ele>80.4</ele>
        <time>2015-05-11T18:23:30.682Z</time>
      </trkpt>
      <trkpt lat="48.8548" lon="2.34471">
        <ele>80.3</ele>
        <time>2015-05-11T18:23:31.679Z</time>
      </trkpt>
      <trkpt lat="48.85476" lon="2.34466">
        <ele>80.1</ele>
        <time>2015-05-11T18:23:32.592Z</time>
      </trkpt>
      <trkpt lat="48.85472" lon="2.34461">
        <ele>79.9</ele>
        <time>2015-05-11T18:23:33.583Z</time>
      </trkpt>
      <trkpt lat="48.85465" lon="2.34458">
        <ele>79.6</ele>
        <time>2015-05-11T18:23:34.603Z</time>
      </trkpt>
      <trkpt lat="48.85458" lon="2.34455">
        <ele>79.3</ele>
        <time>2015-05-11T18:23:35.611Z</time>
      </trkpt>
      <trkpt lat="48.85452" lon="2.34452">
        <ele>78.9</ele>
        <time>2015-05-11T18:23:36.652Z</time>
      </trkpt>
      <trkpt lat="48.85446" lon="2.34448">
        <ele>78.9</ele>
        <time>2015-05-11T18:23:37.661Z</time>
      </trkpt>
      <trkpt lat="48.85441" lon="2.34444">
        <ele>79.3</ele>
        <time>2015-05-11T18:23:38.677Z</time>
      </trkpt>
      <trkpt lat="48.85437" lon="2.3444">
        <ele>79.5</ele>
        <time>2015-05-11T18:23:39.604Z</time>
      </trkpt>
      <trkpt lat="48.85429" lon="2.34435">
        <ele>79.5</ele>
        <time>2015-05-11T18:23:41.604Z</time>
      </trkpt>
      <trkpt lat="48.85426" lon="2.34432">
        <ele>79.6</ele>
        <time>2015-05-11T18:23:42.674Z</time>
      </trkpt>
      <trkpt lat="48.85419" lon="2.34427">
        <ele>79.6</ele>
        <time>2015-05-11T18:23:45.620Z</time>
      </trkpt>
      <trkpt lat="48.85416" lon="2.34426">
        <ele>79.6</ele>
        <time>2015-05-11T18:23:46.631Z</time>
      </trkpt>
      <trkpt lat="48.85408" lon="2.34429">
        <ele>79.2</ele>
        <time>2015-05-11T18:23:48.665Z</time>
      </trkpt>
      <trkpt lat="48.85406" lon="2.34428">
        <ele>79</ele>
        <time>2015-05-11T18:23:49.605Z</time>
      </trkpt>
      <trkpt lat="48.85397" lon="2.34429">
        <ele>79.5</ele>
        <time>2015-05-11T18:23:53.706Z</time>
      </trkpt>
      <trkpt lat="48.85396" lon="2.34429">
        <ele>79.6</ele>
        <time>2015-05-11T18:23:54.744Z</time>
      </trkpt>
      <trkpt lat="48.85389" lon="2.3443">
        <ele>79.9</ele>
        <time>2015-05-11T18:24:03.660Z</time>
      </trkpt>
      <trkpt lat="48.85389" lon="2.3443">
        <ele>79.9</ele>
        <time>2015-05-11T18:24:04.674Z</time>
      </trkpt>
      <trkpt lat="48.85389" lon="2.3443">
        <ele>80.1</ele>
        <time>2015-05-11T18:24:12.685Z</time>
      </trkpt>
      <trkpt lat="48.85387" lon="2.34429">
        <ele>82</ele>
        <time>2015-05-11T18:24:13.555Z</time>
      </trkpt>
      <trkpt lat="48.85382" lon="2.3442">
        <ele>82.9</ele>
        <time>2015-05-11T18:24:18.631Z</time>
      </trkpt>
      <trkpt lat="48.85383" lon="2.34417">
        <ele>83.1</ele>
        <time>2015-05-11T18:24:19.638Z</time>
      </trkpt>
      <trkpt lat="48.85386" lon="2.34406">
        <ele>83.1</ele>
        <time>2015-05-11T18:24:22.614Z</time>
      </trkpt>
      <trkpt lat="48.85387" lon="2.34404">
        <ele>83.2</ele>
        <time>2015-05-11T18:24:23.622Z</time>
      </trkpt>
      <trkpt lat="48.8539" lon="2.34395">
        <ele>83.6</ele>
        <time>2015-05-11T18:24:26.684Z</time>
      </trkpt>
      <trkpt lat="48.85391" lon="2.34391">
        <ele>83.6</ele>
        <time>2015-05-11T18:24:27.669Z</time>
      </trkpt>
      <trkpt lat="48.85395" lon="2.3438">
        <ele>83.9</ele>
        <time>2015-05-11T18:24:30.646Z</time>
      </trkpt>
      <trkpt lat="48.85396" lon="2.34376">
        <ele>84.1</ele>
        <time>2015-05-11T18:24:31.647Z</time>
      </trkpt>
      <trkpt lat="48.85401" lon="2.34368">
        <ele>84.5</ele>
        <time>2015-05-11T18:24:33.553Z</time>
      </trkpt>
      <trkpt lat="48.85403" lon="2.34364">
        <ele>84.5</ele>
        <time>2015-05-11T18:24:34.595Z</time>
      </trkpt>
      <trkpt lat="48.85406" lon="2.34359">
        <ele>84.7</ele>
        <time>2015-05-11T18:24:35.607Z</time>
      </trkpt>
      <trkpt lat="48.8541" lon="2.34354">
        <ele>84.7</ele>
        <time>2015-05-11T18:24:36.628Z</time>
      </trkpt>
      <trkpt lat="48.85414" lon="2.34349">
        <ele>84.8</ele>
        <time>2015-05-11T18:24:37.637Z</time>
      </trkpt>
      <trkpt lat="48.85418" lon="2.34343">
        <ele>84.7</ele>
        <time>2015-05-11T18:24:38.556Z</time>
      </trkpt>
      <trkpt lat="48.85421" lon="2.34337">
        <ele>84.8</ele>
        <time>2015-05-11T18:24:39.675Z</time>
      </trkpt>
      <trkpt lat="48.85425" lon="2.34331">
        <ele>84.9</ele>
        <time>2015-05-11T18:24:40.582Z</time>
      </trkpt>
      <trkpt lat="48.8543" lon="2.34325">
        <ele>85.1</ele>
        <time>2015-05-11T18:24:41.593Z</time>
      </trkpt>
      <trkpt lat="48.85435" lon="2.34319">
        <ele>85.2</ele>
        <time>2015-05-11T18:24:42.654Z</time>
      </trkpt>
      <trkpt lat="48.85441" lon="2.34314">
        <ele>85.2</ele>
        <time>2015-05-11T18:24:42.358Z</time>
      </trkpt>
      <trkpt lat="48.85445" lon="2.34308">
        <ele>85.4</ele>
        <time>2015-05-11T18:24:44.582Z</time>
      </trkpt>
      <trkpt lat="48.8545" lon="2.34301">
        <ele>85.7</ele>
        <time>2015-05-11T18:24:45.621Z</time>
      </trkpt>
      <trkpt lat="48.85454" lon="2.34295">
        <ele>86</ele>
        <time>2015-05-11T18:24:46.625Z</time>
      </trkpt>
      <trkpt lat="48.85458" lon="2.3429">
        <ele>86.3</ele>
        <time>2015-05-11T18:24:47.641Z</time>
      </trkpt>
      <trkpt lat="48.85461" lon="2.34284">
        <ele>86.8</ele>
        <time>2015-05-11T18:24:48.651Z</time>
      </trkpt>
      <trkpt lat="48.85465" lon="2.34278">
        <ele>87.1</ele>
        <time>2015-05-11T18:24:49.565Z</time>
      </trkpt>
      <trkpt lat="48.85468" lon="2.34271">
        <ele>87.3</ele>
        <time>2015-05-11T18:24:50.595Z</time>
      </trkpt>
      <trkpt lat="48.85471" lon="2.34265">
        <ele>87.3</ele>
        <time>2015-05-11T18:24:51.594Z</time>
      </trkpt>
      <trkpt lat="48.85474" lon="2.34259">
        <ele>87.6</ele>
        <time>2015-05-11T18:24:52.621Z</time>
      </trkpt>
      <trkpt lat="48.85478" lon="2.34248">
        <ele>87.6</ele>
        <time>2015-05-11T18:24:54.631Z</time>
      </trkpt>
      <trkpt lat="48.85481" lon="2.34243">
        <ele>87.7</ele>
        <time>2015-05-11T18:24:55.597Z</time>
      </trkpt>
      <trkpt lat="48.85486" lon="2.34233">
        <ele>87.8</ele>
        <time>2015-05-11T18:24:57.637Z</time>
      </trkpt>
      <trkpt lat="48.85489" lon="2.34228">
        <ele>87.9</ele>
        <time>2015-05-11T18:24:58.627Z</time>
      </trkpt>
      <trkpt lat="48.85493" lon="2.34222">
        <ele>87.9</ele>
        <time>2015-05-11T18:24:59.646Z</time>
      </trkpt>
      <trkpt lat="48.85496" lon="2.34217">
        <ele>88</ele>
        <time>2015-05-11T18:25:00.715Z</time>
      </trkpt>
      <trkpt lat="48.85503" lon="2.34208">
        <ele>88</ele>
        <time>2015-05-11T18:25:02.678Z</time>
      </trkpt>
      <trkpt lat="48.85505" lon="2.34203">
        <ele>88</ele>
        <time>2015-05-11T18:25:03.734Z</time>
      </trkpt>
      <trkpt lat="48.8551" lon="2.34192">
        <ele>88.5</ele>
        <time>2015-05-11T18:25:05.591Z</time>
      </trkpt>
      <trkpt lat="48.85511" lon="2.34185">
        <ele>89</ele>
        <time>2015-05-11T18:25:06.660Z</time>
      </trkpt>
      <trkpt lat="48.85516" lon="2.34175">
        <ele>88.9</ele>
        <time>2015-05-11T18:25:08.592Z</time>
      </trkpt>
      <trkpt lat="48.8552" lon="2.34169">
        <ele>88.8</ele>
        <time>2015-05-11T18:25:09.604Z</time>
      </trkpt>
      <trkpt lat="48.85523" lon="2.34164">
        <ele>88.8</ele>
        <time>2015-05-11T18:25:10.632Z</time>
      </trkpt>
      <trkpt lat="48.85526" lon="2.34159">
        <ele>88.7</ele>
        <time>2015-05-11T18:25:11.573Z</time>
      </trkpt>
      <trkpt lat="48.85532" lon="2.3415">
        <ele>88.3</ele>
        <time>2015-05-11T18:25:14.036Z</time>
      </trkpt>
      <trkpt lat="48.85536" lon="2.34146">
        <ele>88.2</ele>
        <time>2015-05-11T18:25:14.617Z</time>
      </trkpt>
      <trkpt lat="48.85543" lon="2.34137">
        <ele>88.2</ele>
        <time>2015-05-11T18:25:16.643Z</time>
      </trkpt>
      <trkpt lat="48.85547" lon="2.34132">
        <ele>88.1</ele>
        <time>2015-05-11T18:25:17.657Z</time>
      </trkpt>
      <trkpt lat="48.8555" lon="2.34127">
        <ele>87.9</ele>
        <time>2015-05-11T18:25:19.090Z</time>
      </trkpt>
      <trkpt lat="48.85553" lon="2.34122">
        <ele>88</ele>
        <time>2015-05-11T18:25:19.590Z</time>
      </trkpt>
      <trkpt lat="48.85555" lon="2.34117">
        <ele>87.9</ele>
        <time>2015-05-11T18:25:20.622Z</time>
      </trkpt>
      <trkpt lat="48.85558" lon="2.34111">
        <ele>87.8</ele>
        <time>2015-05-11T18:25:21.610Z</time>
      </trkpt>
      <trkpt lat="48.85564" lon="2.34102">
        <ele>87.7</ele>
        <time>2015-05-11T18:25:24.166Z</time>
      </trkpt>
      <trkpt lat="48.85567" lon="2.34097">
        <ele>87.7</ele>
        <time>2015-05-11T18:25:24.675Z</time>
      </trkpt>
      <trkpt lat="48.85573" lon="2.34086">
        <ele>87.7</ele>
        <time>2015-05-11T18:25:26.683Z</time>
      </trkpt>
      <trkpt lat="48.85577" lon="2.34082">
        <ele>87.6</ele>
        <time>2015-05-11T18:25:27.628Z</time>
      </trkpt>
      <trkpt lat="48.85581" lon="2.34077">
        <ele>87.6</ele>
        <time>2015-05-11T18:25:29.270Z</time>
      </trkpt>
      <trkpt lat="48.85585" lon="2.34073">
        <ele>87.6</ele>
        <time>2015-05-11T18:25:29.570Z</time>
      </trkpt>
      <trkpt lat="48.85589" lon="2.34068">
        <ele>87.5</ele>
        <time>2015-05-11T18:25:30.608Z</time>
      </trkpt>
      <trkpt lat="48.85593" lon="2.34064">
        <ele>87.4</ele>
        <time>2015-05-11T18:25:31.602Z</time>
      </trkpt>
      <trkpt lat="48.856" lon="2.34057">
        <ele>87.4</ele>
        <time>2015-05-11T18:25:34.314Z</time>
      </trkpt>
      <trkpt lat="48.85601" lon="2.34053">
        <ele>87.8</ele>
        <time>2015-05-11T18:25:34.594Z</time>
      </trkpt>
      <trkpt lat="48.85605" lon="2.34045">
        <ele>88.5</ele>
        <time>2015-05-11T18:25:36.662Z</time>
      </trkpt>
      <trkpt lat="48.85609" lon="2.34042">
        <ele>88.9</ele>
        <time>2015-05-11T18:25:37.697Z</time>
      </trkpt>
      <trkpt lat="48.85617" lon="2.34036">
        <ele>89.5</ele>
        <time>2015-05-11T18:25:39.649Z</time>
      </trkpt>
      <trkpt lat="48.85621" lon="2.34031">
        <ele>89.2</ele>
        <time>2015-05-11T18:25:40.645Z</time>
      </trkpt>
      <trkpt lat="48.85624" lon="2.34025">
        <ele>89.1</ele>
        <time>2015-05-11T18:25:41.652Z</time>
      </trkpt>
      <trkpt lat="48.85627" lon="2.3402">
        <ele>89.3</ele>
        <time>2015-05-11T18:25:42.682Z</time>
      </trkpt>
      <trkpt lat="48.85633" lon="2.34011">
        <ele>89.1</ele>
        <time>2015-05-11T18:25:44.646Z</time>
      </trkpt>
      <trkpt lat="48.85636" lon="2.34006">
        <ele>89</ele>
        <time>2015-05-11T18:25:45.639Z</time>
      </trkpt>
      <trkpt lat="48.8564" lon="2.34">
        <ele>88.8</ele>
        <time>2015-05-11T18:25:46.656Z</time>
      </trkpt>
      <trkpt lat="48.85643" lon="2.33995">
        <ele>88.8</ele>
        <time>2015-05-11T18:25:47.556Z</time>
      </trkpt>
      <trkpt lat="48.85647" lon="2.3399">
        <ele>88.8</ele>
        <time>2015-05-11T18:25:49.270Z</time>
      </trkpt>
      <trkpt lat="48.85652" lon="2.33985">
        <ele>88.9</ele>
        <time>2015-05-11T18:25:49.660Z</time>
      </trkpt>
      <trkpt lat="48.85657" lon="2.3398">
        <ele>88.8</ele>
        <time>2015-05-11T18:25:50.675Z</time>
      </trkpt>
      <trkpt lat="48.85663" lon="2.33974">
        <ele>88.9</ele>
        <time>2015-05-11T18:25:51.623Z</time>
      </trkpt>
      <trkpt lat="48.85668" lon="2.33969">
        <ele>88.9</ele>
        <time>2015-05-11T18:25:52.601Z</time>
      </trkpt>
      <trkpt lat="48.85674" lon="2.33965">
        <ele>88.9</ele>
        <time>2015-05-11T18:25:53.624Z</time>
      </trkpt>
      <trkpt lat="48.85679" lon="2.33959">
        <ele>88.8</ele>
        <time>2015-05-11T18:25:54.649Z</time>
      </trkpt>
      <trkpt lat="48.85684" lon="2.33954">
        <ele>88.7</ele>
        <time>2015-05-11T18:25:55.655Z</time>
      </trkpt>
      <trkpt lat="48.85688" lon="2.33948">
        <ele>88.6</ele>
        <time>2015-05-11T18:25:56.664Z</time>
      </trkpt>
      <trkpt lat="48.85693" lon="2.33942">
        <ele>88.7</ele>
        <time>2015-05-11T18:25:57.577Z</time>
      </trkpt>
      <trkpt lat="48.85697" lon="2.33935">
        <ele>88.6</ele>
        <time>2015-05-11T18:25:58.581Z</time>
      </trkpt>
      <trkpt lat="48.85702" lon="2.33929">
        <ele>88.5</ele>
        <time>2015-05-11T18:25:59.578Z</time>
      </trkpt>
      <trkpt lat="48.85706" lon="2.33922">
        <ele>88.6</ele>
        <time>2015-05-11T18:26:00.606Z</time>
      </trkpt>
      <trkpt lat="48.8571" lon="2.33915">
        <ele>88.6</ele>
        <time>2015-05-11T18:26:01.605Z</time>
      </trkpt>
      <trkpt lat="48.85714" lon="2.33908">
        <ele>88.6</ele>
        <time>2015-05-11T18:26:02.615Z</time>
      </trkpt>
      <trkpt lat="48.85718" lon="2.33901">
        <ele>88.6</ele>
        <time>2015-05-11T18:26:03.618Z</time>
      </trkpt>
      <trkpt lat="48.85722" lon="2.33894">
        <ele>88.6</ele>
        <time>2015-05-11T18:26:04.622Z</time>
      </trkpt>
      <trkpt lat="48.85724" lon="2.33884">
        <ele>88.9</ele>
        <time>2015-05-11T18:26:05.655Z</time>
      </trkpt>
      <trkpt lat="48.85728" lon="2.33877">
        <ele>88.9</ele>
        <time>2015-05-11T18:26:06.666Z</time>
      </trkpt>
      <trkpt lat="48.85731" lon="2.33869">
        <ele>88.8</ele>
        <time>2015-05-11T18:26:07.593Z</time>
      </trkpt>
      <trkpt lat="48.85733" lon="2.33862">
        <ele>88.7</ele>
        <time>2015-05-11T18:26:08.609Z</time>
      </trkpt>
      <trkpt lat="48.85735" lon="2.33854">
        <ele>88.6</ele>
        <time>2015-05-11T18:26:09.619Z</time>
      </trkpt>
      <trkpt lat="48.85737" lon="2.33847">
        <ele>88.5</ele>
        <time>2015-05-11T18:26:10.645Z</time>
      </trkpt>
      <trkpt lat="48.85742" lon="2.33839">
        <ele>88.9</ele>
        <time>2015-05-11T18:26:11.655Z</time>
      </trkpt>
      <trkpt lat="48.85742" lon="2.33826">
        <ele>90.3</ele>
        <time>2015-05-11T18:26:12.666Z</time>
      </trkpt>
      <trkpt lat="48.85745" lon="2.33819">
        <ele>90.5</ele>
        <time>2015-05-11T18:26:13.677Z</time>
      </trkpt>
      <trkpt lat="48.85747" lon="2.33811">
        <ele>90.4</ele>
        <time>2015-05-11T18:26:14.689Z</time>
      </trkpt>
      <trkpt lat="48.8575" lon="2.33804">
        <ele>90.5</ele>
        <time>2015-05-11T18:26:15.692Z</time>
      </trkpt>
      <trkpt lat="48.85753" lon="2.33797">
        <ele>90.5</ele>
        <time>2015-05-11T18:26:16.602Z</time>
      </trkpt>
      <trkpt lat="48.85755" lon="2.3379">
        <ele>90.6</ele>
        <time>2015-05-11T18:26:17.607Z</time>
      </trkpt>
      <trkpt lat="48.85758" lon="2.33777">
        <ele>90.1</ele>
        <time>2015-05-11T18:26:19.650Z</time>
      </trkpt>
      <trkpt lat="48.85759" lon="2.33771">
        <ele>89.9</ele>
        <time>2015-05-11T18:26:20.661Z</time>
      </trkpt>
      <trkpt lat="48.85761" lon="2.33764">
        <ele>89.8</ele>
        <time>2015-05-11T18:26:21.670Z</time>
      </trkpt>
      <trkpt lat="48.85763" lon="2.33756">
        <ele>89.7</ele>
        <time>2015-05-11T18:26:22.598Z</time>
      </trkpt>
      <trkpt lat="48.85764" lon="2.33749">
        <ele>89.6</ele>
        <time>2015-05-11T18:26:23.601Z</time>
      </trkpt>
      <trkpt lat="48.85766" lon="2.33742">
        <ele>89.4</ele>
        <time>2015-05-11T18:26:24.667Z</time>
      </trkpt>
      <trkpt lat="48.85767" lon="2.33735">
        <ele>89.3</ele>
        <time>2015-05-11T18:26:25.695Z</time>
      </trkpt>
      <trkpt lat="48.85769" lon="2.33727">
        <ele>89.3</ele>
        <time>2015-05-11T18:26:26.628Z</time>
      </trkpt>
      <trkpt lat="48.85771" lon="2.3372">
        <ele>89.3</ele>
        <time>2015-05-11T18:26:27.612Z</time>
      </trkpt>
      <trkpt lat="48.85772" lon="2.33712">
        <ele>89.3</ele>
        <time>2015-05-11T18:26:28.626Z</time>
      </trkpt>
      <trkpt lat="48.85774" lon="2.33703">
        <ele>89.2</ele>
        <time>2015-05-11T18:26:29.654Z</time>
      </trkpt>
      <trkpt lat="48.85776" lon="2.33695">
        <ele>89</ele>
        <time>2015-05-11T18:26:30.694Z</time>
      </trkpt>
      <trkpt lat="48.85777" lon="2.33686">
        <ele>88.7</ele>
        <time>2015-05-11T18:26:31.616Z</time>
      </trkpt>
      <trkpt lat="48.85779" lon="2.33678">
        <ele>88.7</ele>
        <time>2015-05-11T18:26:32.681Z</time>
      </trkpt>
      <trkpt lat="48.8578" lon="2.33669">
        <ele>88.7</ele>
        <time>2015-05-11T18:26:33.614Z</time>
      </trkpt>
      <trkpt lat="48.85782" lon="2.3366">
        <ele>88.7</ele>
        <time>2015-05-11T18:26:34.637Z</time>
      </trkpt>
      <trkpt lat="48.85784" lon="2.33652">
        <ele>88.7</ele>
        <time>2015-05-11T18:26:35.653Z</time>
      </trkpt>
      <trkpt lat="48.85785" lon="2.33642">
        <ele>89.3</ele>
        <time>2015-05-11T18:26:36.657Z</time>
      </trkpt>
      <trkpt lat="48.85787" lon="2.33634">
        <ele>89.5</ele>
        <time>2015-05-11T18:26:37.675Z</time>
      </trkpt>
      <trkpt lat="48.85789" lon="2.33627">
        <ele>89.7</ele>
        <time>2015-05-11T18:26:38.684Z</time>
      </trkpt>
      <trkpt lat="48.8579" lon="2.33619">
        <ele>89.8</ele>
        <time>2015-05-11T18:26:39.603Z</time>
      </trkpt>
      <trkpt lat="48.85791" lon="2.33612">
        <ele>90</ele>
        <time>2015-05-11T18:26:40.663Z</time>
      </trkpt>
      <trkpt lat="48.85791" lon="2.33604">
        <ele>90</ele>
        <time>2015-05-11T18:26:41.686Z</time>
      </trkpt>
      <trkpt lat="48.85791" lon="2.33596">
        <ele>90.3</ele>
        <time>2015-05-11T18:26:42.700Z</time>
      </trkpt>
      <trkpt lat="48.85791" lon="2.33588">
        <ele>90.3</ele>
        <time>2015-05-11T18:26:43.640Z</time>
      </trkpt>
      <trkpt lat="48.85789" lon="2.33579">
        <ele>90.7</ele>
        <time>2015-05-11T18:26:44.624Z</time>
      </trkpt>
      <trkpt lat="48.85789" lon="2.33571">
        <ele>91.1</ele>
        <time>2015-05-11T18:26:45.658Z</time>
      </trkpt>
      <trkpt lat="48.85788" lon="2.33562">
        <ele>91.5</ele>
        <time>2015-05-11T18:26:46.654Z</time>
      </trkpt>
      <trkpt lat="48.85787" lon="2.33553">
        <ele>91.7</ele>
        <time>2015-05-11T18:26:47.720Z</time>
      </trkpt>
      <trkpt lat="48.85787" lon="2.33544">
        <ele>92.1</ele>
        <time>2015-05-11T18:26:48.713Z</time>
      </trkpt>
      <trkpt lat="48.85787" lon="2.33535">
        <ele>92.3</ele>
        <time>2015-05-11T18:26:49.603Z</time>
      </trkpt>
      <trkpt lat="48.85788" lon="2.33525">
        <ele>92.8</ele>
        <time>2015-05-11T18:26:50.608Z</time>
      </trkpt>
      <trkpt lat="48.8579" lon="2.33516">
        <ele>93.1</ele>
        <time>2015-05-11T18:26:51.619Z</time>
      </trkpt>
      <trkpt lat="48.85792" lon="2.33507">
        <ele>93</ele>
        <time>2015-05-11T18:26:52.637Z</time>
      </trkpt>
      <trkpt lat="48.85794" lon="2.33497">
        <ele>92.7</ele>
        <time>2015-05-11T18:26:53.645Z</time>
      </trkpt>
      <trkpt lat="48.85796" lon="2.33488">
        <ele>92.7</ele>
        <time>2015-05-11T18:26:54.669Z</time>
      </trkpt>
      <trkpt lat="48.85797" lon="2.33479">
        <ele>92.7</ele>
        <time>2015-05-11T18:26:55.689Z</time>
      </trkpt>
      <trkpt lat="48.85799" lon="2.33471">
        <ele>92.7</ele>
        <time>2015-05-11T18:26:56.603Z</time>
      </trkpt>
      <trkpt lat="48.858" lon="2.33463">
        <ele>92.9</ele>
        <time>2015-05-11T18:26:57.598Z</time>
      </trkpt>
      <trkpt lat="48.85802" lon="2.33455">
        <ele>92.7</ele>
        <time>2015-05-11T18:26:58.599Z</time>
      </trkpt>
      <trkpt lat="48.85803" lon="2.33446">
        <ele>92.6</ele>
        <time>2015-05-11T18:26:59.606Z</time>
      </trkpt>
      <trkpt lat="48.85804" lon="2.33437">
        <ele>92.4</ele>
        <time>2015-05-11T18:27:00.620Z</time>
      </trkpt>
      <trkpt lat="48.85805" lon="2.33429">
        <ele>92.3</ele>
        <time>2015-05-11T18:27:01.653Z</time>
      </trkpt>
      <trkpt lat="48.85806" lon="2.33421">
        <ele>92.2</ele>
        <time>2015-05-11T18:27:02.672Z</time>
      </trkpt>
      <trkpt lat="48.85807" lon="2.33412">
        <ele>92.1</ele>
        <time>2015-05-11T18:27:03.683Z</time>
      </trkpt>
      <trkpt lat="48.8581" lon="2.33404">
        <ele>92</ele>
        <time>2015-05-11T18:27:04.601Z</time>
      </trkpt>
      <trkpt lat="48.85812" lon="2.33396">
        <ele>92</ele>
        <time>2015-05-11T18:27:05.598Z</time>
      </trkpt>
      <trkpt lat="48.85814" lon="2.3339">
        <ele>92.1</ele>
        <time>2015-05-11T18:27:06.660Z</time>
      </trkpt>
      <trkpt lat="48.85816" lon="2.33382">
        <ele>92.2</ele>
        <time>2015-05-11T18:27:07.661Z</time>
      </trkpt>
      <trkpt lat="48.85818" lon="2.33375">
        <ele>91.8</ele>
        <time>2015-05-11T18:27:08.676Z</time>
      </trkpt>
      <trkpt lat="48.8582" lon="2.33368">
        <ele>91.7</ele>
        <time>2015-05-11T18:27:09.693Z</time>
      </trkpt>
      <trkpt lat="48.85822" lon="2.33363">
        <ele>91.8</ele>
        <time>2015-05-11T18:27:10.607Z</time>
      </trkpt>
      <trkpt lat="48.85825" lon="2.33358">
        <ele>91.8</ele>
        <time>2015-05-11T18:27:11.609Z</time>
      </trkpt>
      <trkpt lat="48.85829" lon="2.33354">
        <ele>91.9</ele>
        <time>2015-05-11T18:27:12.646Z</time>
      </trkpt>
      <trkpt lat="48.85833" lon="2.33349">
        <ele>91.7</ele>
        <time>2015-05-11T18:27:13.678Z</time>
      </trkpt>
      <trkpt lat="48.85837" lon="2.33345">
        <ele>91.7</ele>
        <time>2015-05-11T18:27:14.600Z</time>
      </trkpt>
      <trkpt lat="48.8584" lon="2.33333">
        <ele>91.5</ele>
        <time>2015-05-11T18:27:16.624Z</time>
      </trkpt>
      <trkpt lat="48.85843" lon="2.33327">
        <ele>91.5</ele>
        <time>2015-05-11T18:27:17.652Z</time>
      </trkpt>
      <trkpt lat="48.85847" lon="2.33318">
        <ele>91.9</ele>
        <time>2015-05-11T18:27:19.610Z</time>
      </trkpt>
      <trkpt lat="48.85847" lon="2.33314">
        <ele>92.1</ele>
        <time>2015-05-11T18:27:20.623Z</time>
      </trkpt>
      <trkpt lat="48.85849" lon="2.33302">
        <ele>92.7</ele>
        <time>2015-05-11T18:27:23.689Z</time>
      </trkpt>
      <trkpt lat="48.8585" lon="2.33298">
        <ele>93.1</ele>
        <time>2015-05-11T18:27:24.714Z</time>
      </trkpt>
      <trkpt lat="48.85853" lon="2.33288">
        <ele>93.9</ele>
        <time>2015-05-11T18:27:27.643Z</time>
      </trkpt>
      <trkpt lat="48.85855" lon="2.33284">
        <ele>94.3</ele>
        <time>2015-05-11T18:27:28.689Z</time>
      </trkpt>
      <trkpt lat="48.8586" lon="2.33274">
        <ele>94.5</ele>
        <time>2015-05-11T18:27:31.685Z</time>
      </trkpt>
      <trkpt lat="48.85861" lon="2.33271">
        <ele>94.8</ele>
        <time>2015-05-11T18:27:32.669Z</time>
      </trkpt>
      <trkpt lat="48.85862" lon="2.33258">
        <ele>95.4</ele>
        <time>2015-05-11T18:27:37.587Z</time>
      </trkpt>
      <trkpt lat="48.85863" lon="2.33256">
        <ele>95.5</ele>
        <time>2015-05-11T18:27:38.591Z</time>
      </trkpt>
      <trkpt lat="48.85865" lon="2.33246">
        <ele>95.9</ele>
        <time>2015-05-11T18:27:41.592Z</time>
      </trkpt>
      <trkpt lat="48.85867" lon="2.33242">
        <ele>96</ele>
        <time>2015-05-11T18:27:42.912Z</time>
      </trkpt>
      <trkpt lat="48.8587" lon="2.33229">
        <ele>96</ele>
        <time>2015-05-11T18:27:45.689Z</time>
      </trkpt>
      <trkpt lat="48.8587" lon="2.33225">
        <ele>95.9</ele>
        <time>2015-05-11T18:27:46.556Z</time>
      </trkpt>
      <trkpt lat="48.85871" lon="2.33214">
        <ele>95.8</ele>
        <time>2015-05-11T18:27:48.691Z</time>
      </trkpt>
      <trkpt lat="48.85871" lon="2.33208">
        <ele>95.7</ele>
        <time>2015-05-11T18:27:49.574Z</time>
      </trkpt>
      <trkpt lat="48.85874" lon="2.33197">
        <ele>95.6</ele>
        <time>2015-05-11T18:27:51.579Z</time>
      </trkpt>
      <trkpt lat="48.85877" lon="2.33192">
        <ele>95.6</ele>
        <time>2015-05-11T18:27:52.578Z</time>
      </trkpt>
      <trkpt lat="48.8588" lon="2.33186">
        <ele>95.6</ele>
        <time>2015-05-11T18:27:53.588Z</time>
      </trkpt>
      <trkpt lat="48.85883" lon="2.33179">
        <ele>95.5</ele>
        <time>2015-05-11T18:27:54.604Z</time>
      </trkpt>
      <trkpt lat="48.85887" lon="2.33173">
        <ele>95.5</ele>
        <time>2015-05-11T18:27:55.635Z</time>
      </trkpt>
      <trkpt lat="48.8589" lon="2.33166">
        <ele>95.4</ele>
        <time>2015-05-11T18:27:56.638Z</time>
      </trkpt>
      <trkpt lat="48.85895" lon="2.33161">
        <ele>95.3</ele>
        <time>2015-05-11T18:27:57.592Z</time>
      </trkpt>
      <trkpt lat="48.85899" lon="2.33155">
        <ele>95.3</ele>
        <time>2015-05-11T18:27:58.585Z</time>
      </trkpt>
      <trkpt lat="48.85903" lon="2.33149">
        <ele>95.2</ele>
        <time>2015-05-11T18:27:59.597Z</time>
      </trkpt>
      <trkpt lat="48.85907" lon="2.33142">
        <ele>95.2</ele>
        <time>2015-05-11T18:28:00.611Z</time>
      </trkpt>
      <trkpt lat="48.8591" lon="2.33136">
        <ele>95.2</ele>
        <time>2015-05-11T18:28:01.634Z</time>
      </trkpt>
      <trkpt lat="48.85914" lon="2.33129">
        <ele>95.3</ele>
        <time>2015-05-11T18:28:02.573Z</time>
      </trkpt>
      <trkpt lat="48.85917" lon="2.33122">
        <ele>95.3</ele>
        <time>2015-05-11T18:28:03.584Z</time>
      </trkpt>
      <trkpt lat="48.85921" lon="2.33115">
        <ele>95.4</ele>
        <time>2015-05-11T18:28:04.592Z</time>
      </trkpt>
      <trkpt lat="48.85924" lon="2.33108">
        <ele>95.4</ele>
        <time>2015-05-11T18:28:05.602Z</time>
      </trkpt>
      <trkpt lat="48.85927" lon="2.33101">
        <ele>95.4</ele>
        <time>2015-05-11T18:28:06.669Z</time>
      </trkpt>
      <trkpt lat="48.8593" lon="2.33094">
        <ele>95.4</ele>
        <time>2015-05-11T18:28:07.538Z</time>
      </trkpt>
      <trkpt lat="48.85933" lon="2.33087">
        <ele>95.5</ele>
        <time>2015-05-11T18:28:08.565Z</time>
      </trkpt>
      <trkpt lat="48.85937" lon="2.3308">
        <ele>95.5</ele>
        <time>2015-05-11T18:28:09.614Z</time>
      </trkpt>
      <trkpt lat="48.8594" lon="2.33074">
        <ele>95.6</ele>
        <time>2015-05-11T18:28:10.628Z</time>
      </trkpt>
      <trkpt lat="48.85943" lon="2.33068">
        <ele>95.5</ele>
        <time>2015-05-11T18:28:11.612Z</time>
      </trkpt>
      <trkpt lat="48.85946" lon="2.33062">
        <ele>95.5</ele>
        <time>2015-05-11T18:28:12.779Z</time>
      </trkpt>
      <trkpt lat="48.85949" lon="2.33055">
        <ele>95.5</ele>
        <time>2015-05-11T18:28:13.627Z</time>
      </trkpt>
      <trkpt lat="48.85948" lon="2.33048">
        <ele>93.9</ele>
        <time>2015-05-11T18:28:14.638Z</time>
      </trkpt>
      <trkpt lat="48.85951" lon="2.33041">
        <ele>94</ele>
        <time>2015-05-11T18:28:15.625Z</time>
      </trkpt>
      <trkpt lat="48.85954" lon="2.33034">
        <ele>94</ele>
        <time>2015-05-11T18:28:16.588Z</time>
      </trkpt>
      <trkpt lat="48.85957" lon="2.33027">
        <ele>94</ele>
        <time>2015-05-11T18:28:17.635Z</time>
      </trkpt>
      <trkpt lat="48.85961" lon="2.33021">
        <ele>94.1</ele>
        <time>2015-05-11T18:28:18.671Z</time>
      </trkpt>
      <trkpt lat="48.85965" lon="2.33015">
        <ele>94.1</ele>
        <time>2015-05-11T18:28:19.557Z</time>
      </trkpt>
      <trkpt lat="48.85968" lon="2.3301">
        <ele>94.2</ele>
        <time>2015-05-11T18:28:20.578Z</time>
      </trkpt>
      <trkpt lat="48.85971" lon="2.33004">
        <ele>94.2</ele>
        <time>2015-05-11T18:28:21.675Z</time>
      </trkpt>
      <trkpt lat="48.85973" lon="2.32998">
        <ele>94.3</ele>
        <time>2015-05-11T18:28:22.576Z</time>
      </trkpt>
      <trkpt lat="48.85977" lon="2.32988">
        <ele>94.6</ele>
        <time>2015-05-11T18:28:24.630Z</time>
      </trkpt>
      <trkpt lat="48.85979" lon="2.32982">
        <ele>94.7</ele>
        <time>2015-05-11T18:28:25.652Z</time>
      </trkpt>
      <trkpt lat="48.85981" lon="2.32976">
        <ele>94.8</ele>
        <time>2015-05-11T18:28:26.668Z</time>
      </trkpt>
      <trkpt lat="48.85982" lon="2.32969">
        <ele>94.2</ele>
        <time>2015-05-11T18:28:27.696Z</time>
      </trkpt>
      <trkpt lat="48.85985" lon="2.32957">
        <ele>93.6</ele>
        <time>2015-05-11T18:28:29.632Z</time>
      </trkpt>
      <trkpt lat="48.85988" lon="2.32951">
        <ele>93.7</ele>
        <time>2015-05-11T18:28:30.633Z</time>
      </trkpt>
      <trkpt lat="48.85989" lon="2.32944">
        <ele>93.8</ele>
        <time>2015-05-11T18:28:31.641Z</time>
      </trkpt>
      <trkpt lat="48.85992" lon="2.32937">
        <ele>93.8</ele>
        <time>2015-05-11T18:28:32.593Z</time>
      </trkpt>
      <trkpt lat="48.85994" lon="2.3293">
        <ele>93.8</ele>
        <time>2015-05-11T18:28:33.592Z</time>
      </trkpt>
      <trkpt lat="48.85996" lon="2.32924">
        <ele>93.8</ele>
        <time>2015-05-11T18:28:34.598Z</time>
      </trkpt>
      <trkpt lat="48.85998" lon="2.32917">
        <ele>93.9</ele>
        <time>2015-05-11T18:28:35.606Z</time>
      </trkpt>
      <trkpt lat="48.86" lon="2.32909">
        <ele>93.8</ele>
        <time>2015-05-11T18:28:36.664Z</time>
      </trkpt>
      <trkpt lat="48.85999" lon="2.32901">
        <ele>92.9</ele>
        <time>2015-05-11T18:28:37.571Z</time>
      </trkpt>
      <trkpt lat="48.85993" lon="2.32892">
        <ele>89.8</ele>
        <time>2015-05-11T18:28:38.604Z</time>
      </trkpt>
      <trkpt lat="48.85991" lon="2.32884">
        <ele>87.5</ele>
        <time>2015-05-11T18:28:39.609Z</time>
      </trkpt>
      <trkpt lat="48.85991" lon="2.32877">
        <ele>86.8</ele>
        <time>2015-05-11T18:28:40.619Z</time>
      </trkpt>
      <trkpt lat="48.85993" lon="2.32869">
        <ele>86.8</ele>
        <time>2015-05-11T18:28:41.626Z</time>
      </trkpt>
      <trkpt lat="48.85995" lon="2.32861">
        <ele>86.9</ele>
        <time>2015-05-11T18:28:42.649Z</time>
      </trkpt>
      <trkpt lat="48.85998" lon="2.32853">
        <ele>87</ele>
        <time>2015-05-11T18:28:43.661Z</time>
      </trkpt>
      <trkpt lat="48.85999" lon="2.32847">
        <ele>87.2</ele>
        <time>2015-05-11T18:28:44.671Z</time>
      </trkpt>
      <trkpt lat="48.86003" lon="2.32835">
        <ele>87.3</ele>
        <time>2015-05-11T18:28:46.596Z</time>
      </trkpt>
      <trkpt lat="48.86005" lon="2.32829">
        <ele>87.5</ele>
        <time>2015-05-11T18:28:47.601Z</time>
      </trkpt>
      <trkpt lat="48.86007" lon="2.32821">
        <ele>87.7</ele>
        <time>2015-05-11T18:28:49.645Z</time>
      </trkpt>
      <trkpt lat="48.8601" lon="2.32817">
        <ele>87.3</ele>
        <time>2015-05-11T18:28:50.610Z</time>
      </trkpt>
      <trkpt lat="48.86015" lon="2.32811">
        <ele>87.4</ele>
        <time>2015-05-11T18:28:52.577Z</time>
      </trkpt>
      <trkpt lat="48.86017" lon="2.32807">
        <ele>87.5</ele>
        <time>2015-05-11T18:28:53.707Z</time>
      </trkpt>
      <trkpt lat="48.86022" lon="2.32799">
        <ele>87.6</ele>
        <time>2015-05-11T18:28:55.596Z</time>
      </trkpt>
      <trkpt lat="48.86025" lon="2.32793">
        <ele>87.6</ele>
        <time>2015-05-11T18:28:56.628Z</time>
      </trkpt>
      <trkpt lat="48.86028" lon="2.32786">
        <ele>87.6</ele>
        <time>2015-05-11T18:28:57.701Z</time>
      </trkpt>
      <trkpt lat="48.86031" lon="2.32779">
        <ele>87.7</ele>
        <time>2015-05-11T18:28:58.709Z</time>
      </trkpt>
      <trkpt lat="48.86035" lon="2.32771">
        <ele>87.8</ele>
        <time>2015-05-11T18:28:59.585Z</time>
      </trkpt>
      <trkpt lat="48.86039" lon="2.32762">
        <ele>87.7</ele>
        <time>2015-05-11T18:29:00.600Z</time>
      </trkpt>
      <trkpt lat="48.86044" lon="2.32754">
        <ele>87.7</ele>
        <time>2015-05-11T18:29:01.613Z</time>
      </trkpt>
      <trkpt lat="48.86048" lon="2.32745">
        <ele>87.7</ele>
        <time>2015-05-11T18:29:02.632Z</time>
      </trkpt>
      <trkpt lat="48.86053" lon="2.32736">
        <ele>87.7</ele>
        <time>2015-05-11T18:29:03.651Z</time>
      </trkpt>
      <trkpt lat="48.86056" lon="2.32726">
        <ele>87.8</ele>
        <time>2015-05-11T18:29:04.663Z</time>
      </trkpt>
      <trkpt lat="48.8606" lon="2.32716">
        <ele>88</ele>
        <time>2015-05-11T18:29:05.585Z</time>
      </trkpt>
      <trkpt lat="48.86063" lon="2.32705">
        <ele>88.2</ele>
        <time>2015-05-11T18:29:06.628Z</time>
      </trkpt>
      <trkpt lat="48.86067" lon="2.32695">
        <ele>88.3</ele>
        <time>2015-05-11T18:29:07.640Z</time>
      </trkpt>
      <trkpt lat="48.8607" lon="2.32686">
        <ele>88.3</ele>
        <time>2015-05-11T18:29:08.658Z</time>
      </trkpt>
      <trkpt lat="48.86074" lon="2.32677">
        <ele>88.3</ele>
        <time>2015-05-11T18:29:09.668Z</time>
      </trkpt>
      <trkpt lat="48.86077" lon="2.32668">
        <ele>88.4</ele>
        <time>2015-05-11T18:29:10.591Z</time>
      </trkpt>
      <trkpt lat="48.8608" lon="2.3266">
        <ele>88.4</ele>
        <time>2015-05-11T18:29:11.586Z</time>
      </trkpt>
      <trkpt lat="48.86083" lon="2.32652">
        <ele>88.5</ele>
        <time>2015-05-11T18:29:12.645Z</time>
      </trkpt>
      <trkpt lat="48.86087" lon="2.32643">
        <ele>88.6</ele>
        <time>2015-05-11T18:29:13.639Z</time>
      </trkpt>
      <trkpt lat="48.86089" lon="2.32634">
        <ele>88.6</ele>
        <time>2015-05-11T18:29:14.653Z</time>
      </trkpt>
      <trkpt lat="48.86092" lon="2.32625">
        <ele>88.7</ele>
        <time>2015-05-11T18:29:15.668Z</time>
      </trkpt>
      <trkpt lat="48.86094" lon="2.32616">
        <ele>88.8</ele>
        <time>2015-05-11T18:29:16.676Z</time>
      </trkpt>
      <trkpt lat="48.86097" lon="2.32608">
        <ele>88.9</ele>
        <time>2015-05-11T18:29:17.684Z</time>
      </trkpt>
      <trkpt lat="48.86099" lon="2.326">
        <ele>88.9</ele>
        <time>2015-05-11T18:29:18.716Z</time>
      </trkpt>
      <trkpt lat="48.861" lon="2.32592">
        <ele>88.9</ele>
        <time>2015-05-11T18:29:19.598Z</time>
      </trkpt>
      <trkpt lat="48.86101" lon="2.32583">
        <ele>88.6</ele>
        <time>2015-05-11T18:29:20.603Z</time>
      </trkpt>
      <trkpt lat="48.86102" lon="2.32574">
        <ele>88.3</ele>
        <time>2015-05-11T18:29:21.626Z</time>
      </trkpt>
      <trkpt lat="48.86105" lon="2.32564">
        <ele>88.1</ele>
        <time>2015-05-11T18:29:22.629Z</time>
      </trkpt>
      <trkpt lat="48.86107" lon="2.32555">
        <ele>88</ele>
        <time>2015-05-11T18:29:23.641Z</time>
      </trkpt>
      <trkpt lat="48.86109" lon="2.32547">
        <ele>87.7</ele>
        <time>2015-05-11T18:29:24.660Z</time>
      </trkpt>
      <trkpt lat="48.86109" lon="2.32538">
        <ele>86.6</ele>
        <time>2015-05-11T18:29:25.670Z</time>
      </trkpt>
      <trkpt lat="48.86109" lon="2.3253">
        <ele>85.8</ele>
        <time>2015-05-11T18:29:26.676Z</time>
      </trkpt>
      <trkpt lat="48.86109" lon="2.32522">
        <ele>85.6</ele>
        <time>2015-05-11T18:29:27.597Z</time>
      </trkpt>
      <trkpt lat="48.86111" lon="2.32514">
        <ele>85.2</ele>
        <time>2015-05-11T18:29:28.599Z</time>
      </trkpt>
      <trkpt lat="48.86112" lon="2.32506">
        <ele>84.7</ele>
        <time>2015-05-11T18:29:29.622Z</time>
      </trkpt>
      <trkpt lat="48.86113" lon="2.32499">
        <ele>84.4</ele>
        <time>2015-05-11T18:29:30.647Z</time>
      </trkpt>
      <trkpt lat="48.86114" lon="2.32491">
        <ele>84</ele>
        <time>2015-05-11T18:29:31.650Z</time>
      </trkpt>
      <trkpt lat="48.86116" lon="2.32484">
        <ele>83.5</ele>
        <time>2015-05-11T18:29:32.667Z</time>
      </trkpt>
      <trkpt lat="48.86118" lon="2.32477">
        <ele>83.3</ele>
        <time>2015-05-11T18:29:33.586Z</time>
      </trkpt>
      <trkpt lat="48.8612" lon="2.3247">
        <ele>83.3</ele>
        <time>2015-05-11T18:29:34.595Z</time>
      </trkpt>
      <trkpt lat="48.86122" lon="2.32463">
        <ele>83</ele>
        <time>2015-05-11T18:29:35.615Z</time>
      </trkpt>
      <trkpt lat="48.86125" lon="2.32455">
        <ele>82.8</ele>
        <time>2015-05-11T18:29:36.632Z</time>
      </trkpt>
      <trkpt lat="48.86127" lon="2.32447">
        <ele>83.3</ele>
        <time>2015-05-11T18:29:37.637Z</time>
      </trkpt>
      <trkpt lat="48.86129" lon="2.3244">
        <ele>83.2</ele>
        <time>2015-05-11T18:29:38.649Z</time>
      </trkpt>
      <trkpt lat="48.86131" lon="2.32432">
        <ele>82.6</ele>
        <time>2015-05-11T18:29:39.664Z</time>
      </trkpt>
      <trkpt lat="48.86134" lon="2.32425">
        <ele>82.4</ele>
        <time>2015-05-11T18:29:40.671Z</time>
      </trkpt>
      <trkpt lat="48.86136" lon="2.32417">
        <ele>82.4</ele>
        <time>2015-05-11T18:29:41.588Z</time>
      </trkpt>
      <trkpt lat="48.86139" lon="2.3241">
        <ele>82.4</ele>
        <time>2015-05-11T18:29:42.619Z</time>
      </trkpt>
      <trkpt lat="48.86142" lon="2.32402">
        <ele>82.4</ele>
        <time>2015-05-11T18:29:43.615Z</time>
      </trkpt>
      <trkpt lat="48.86145" lon="2.32395">
        <ele>82.4</ele>
        <time>2015-05-11T18:29:44.626Z</time>
      </trkpt>
      <trkpt lat="48.86148" lon="2.32388">
        <ele>82.6</ele>
        <time>2015-05-11T18:29:45.644Z</time>
      </trkpt>
      <trkpt lat="48.86151" lon="2.32381">
        <ele>82.8</ele>
        <time>2015-05-11T18:29:46.649Z</time>
      </trkpt>
      <trkpt lat="48.86154" lon="2.32374">
        <ele>82.7</ele>
        <time>2015-05-11T18:29:47.662Z</time>
      </trkpt>
      <trkpt lat="48.86157" lon="2.32366">
        <ele>82.5</ele>
        <time>2015-05-11T18:29:48.671Z</time>
      </trkpt>
      <trkpt lat="48.8616" lon="2.32359">
        <ele>82.7</ele>
        <time>2015-05-11T18:29:49.677Z</time>
      </trkpt>
      <trkpt lat="48.86162" lon="2.32352">
        <ele>82.9</ele>
        <time>2015-05-11T18:29:50.814Z</time>
      </trkpt>
      <trkpt lat="48.86165" lon="2.32346">
        <ele>83</ele>
        <time>2015-05-11T18:29:51.602Z</time>
      </trkpt>
      <trkpt lat="48.86167" lon="2.32339">
        <ele>83.1</ele>
        <time>2015-05-11T18:29:52.584Z</time>
      </trkpt>
      <trkpt lat="48.86167" lon="2.32332">
        <ele>82.1</ele>
        <time>2015-05-11T18:29:53.601Z</time>
      </trkpt>
      <trkpt lat="48.86169" lon="2.32325">
        <ele>81.5</ele>
        <time>2015-05-11T18:29:54.641Z</time>
      </trkpt>
      <trkpt lat="48.8617" lon="2.32318">
        <ele>81.1</ele>
        <time>2015-05-11T18:29:55.658Z</time>
      </trkpt>
      <trkpt lat="48.86171" lon="2.32311">
        <ele>80.9</ele>
        <time>2015-05-11T18:29:56.662Z</time>
      </trkpt>
      <trkpt lat="48.86174" lon="2.32303">
        <ele>80.5</ele>
        <time>2015-05-11T18:29:57.676Z</time>
      </trkpt>
      <trkpt lat="48.86176" lon="2.32295">
        <ele>80.5</ele>
        <time>2015-05-11T18:29:58.600Z</time>
      </trkpt>
      <trkpt lat="48.86178" lon="2.32286">
        <ele>80.3</ele>
        <time>2015-05-11T18:29:59.575Z</time>
      </trkpt>
      <trkpt lat="48.8618" lon="2.32278">
        <ele>80.1</ele>
        <time>2015-05-11T18:30:00.620Z</time>
      </trkpt>
      <trkpt lat="48.86182" lon="2.3227">
        <ele>80</ele>
        <time>2015-05-11T18:30:01.629Z</time>
      </trkpt>
      <trkpt lat="48.86184" lon="2.32263">
        <ele>79.9</ele>
        <time>2015-05-11T18:30:02.833Z</time>
      </trkpt>
      <trkpt lat="48.86184" lon="2.32252">
        <ele>80.5</ele>
        <time>2015-05-11T18:30:03.670Z</time>
      </trkpt>
      <trkpt lat="48.86186" lon="2.32243">
        <ele>80.3</ele>
        <time>2015-05-11T18:30:04.680Z</time>
      </trkpt>
      <trkpt lat="48.86188" lon="2.32235">
        <ele>80.4</ele>
        <time>2015-05-11T18:30:05.601Z</time>
      </trkpt>
      <trkpt lat="48.86191" lon="2.32227">
        <ele>80.3</ele>
        <time>2015-05-11T18:30:06.717Z</time>
      </trkpt>
      <trkpt lat="48.86193" lon="2.3222">
        <ele>80</ele>
        <time>2015-05-11T18:30:07.592Z</time>
      </trkpt>
      <trkpt lat="48.86195" lon="2.32213">
        <ele>80</ele>
        <time>2015-05-11T18:30:08.601Z</time>
      </trkpt>
      <trkpt lat="48.86198" lon="2.32206">
        <ele>80</ele>
        <time>2015-05-11T18:30:09.620Z</time>
      </trkpt>
      <trkpt lat="48.862" lon="2.322">
        <ele>79.8</ele>
        <time>2015-05-11T18:30:10.629Z</time>
      </trkpt>
      <trkpt lat="48.86203" lon="2.32192">
        <ele>79.5</ele>
        <time>2015-05-11T18:30:11.657Z</time>
      </trkpt>
      <trkpt lat="48.86205" lon="2.32186">
        <ele>79.6</ele>
        <time>2015-05-11T18:30:12.672Z</time>
      </trkpt>
      <trkpt lat="48.86207" lon="2.3218">
        <ele>79.5</ele>
        <time>2015-05-11T18:30:13.599Z</time>
      </trkpt>
      <trkpt lat="48.86209" lon="2.32173">
        <ele>79.4</ele>
        <time>2015-05-11T18:30:14.596Z</time>
      </trkpt>
      <trkpt lat="48.86212" lon="2.32167">
        <ele>79.3</ele>
        <time>2015-05-11T18:30:15.697Z</time>
      </trkpt>
      <trkpt lat="48.86215" lon="2.3216">
        <ele>79.3</ele>
        <time>2015-05-11T18:30:16.625Z</time>
      </trkpt>
      <trkpt lat="48.86218" lon="2.32153">
        <ele>79.2</ele>
        <time>2015-05-11T18:30:17.630Z</time>
      </trkpt>
      <trkpt lat="48.86221" lon="2.32147">
        <ele>79.3</ele>
        <time>2015-05-11T18:30:18.659Z</time>
      </trkpt>
      <trkpt lat="48.86224" lon="2.32141">
        <ele>79.1</ele>
        <time>2015-05-11T18:30:19.668Z</time>
      </trkpt>
      <trkpt lat="48.86227" lon="2.32135">
        <ele>79</ele>
        <time>2015-05-11T18:30:20.680Z</time>
      </trkpt>
      <trkpt lat="48.86229" lon="2.32128">
        <ele>79.1</ele>
        <time>2015-05-11T18:30:21.596Z</time>
      </trkpt>
      <trkpt lat="48.86232" lon="2.32121">
        <ele>79</ele>
        <time>2015-05-11T18:30:22.603Z</time>
      </trkpt>
      <trkpt lat="48.86235" lon="2.32114">
        <ele>79.1</ele>
        <time>2015-05-11T18:30:23.609Z</time>
      </trkpt>
      <trkpt lat="48.86238" lon="2.32107">
        <ele>79.2</ele>
        <time>2015-05-11T18:30:24.640Z</time>
      </trkpt>
      <trkpt lat="48.86242" lon="2.32099">
        <ele>79.2</ele>
        <time>2015-05-11T18:30:25.668Z</time>
      </trkpt>
      <trkpt lat="48.86246" lon="2.32092">
        <ele>79.2</ele>
        <time>2015-05-11T18:30:26.677Z</time>
      </trkpt>
      <trkpt lat="48.86249" lon="2.32085">
        <ele>79.2</ele>
        <time>2015-05-11T18:30:27.596Z</time>
      </trkpt>
      <trkpt lat="48.86252" lon="2.32077">
        <ele>79.3</ele>
        <time>2015-05-11T18:30:28.603Z</time>
      </trkpt>
      <trkpt lat="48.86255" lon="2.32069">
        <ele>79.3</ele>
        <time>2015-05-11T18:30:29.633Z</time>
      </trkpt>
      <trkpt lat="48.86257" lon="2.32061">
        <ele>79.5</ele>
        <time>2015-05-11T18:30:30.649Z</time>
      </trkpt>
      <trkpt lat="48.86259" lon="2.32052">
        <ele>79.6</ele>
        <time>2015-05-11T18:30:31.666Z</time>
      </trkpt>
      <trkpt lat="48.86262" lon="2.32044">
        <ele>79.6</ele>
        <time>2015-05-11T18:30:32.676Z</time>
      </trkpt>
      <trkpt lat="48.86264" lon="2.32036">
        <ele>79.8</ele>
        <time>2015-05-11T18:30:33.680Z</time>
      </trkpt>
      <trkpt lat="48.86266" lon="2.32028">
        <ele>79.7</ele>
        <time>2015-05-11T18:30:34.599Z</time>
      </trkpt>
      <trkpt lat="48.86265" lon="2.3202">
        <ele>78.5</ele>
        <time>2015-05-11T18:30:35.593Z</time>
      </trkpt>
      <trkpt lat="48.86268" lon="2.32011">
        <ele>78.5</ele>
        <time>2015-05-11T18:30:36.643Z</time>
      </trkpt>
      <trkpt lat="48.8627" lon="2.32004">
        <ele>78.4</ele>
        <time>2015-05-11T18:30:37.658Z</time>
      </trkpt>
      <trkpt lat="48.86273" lon="2.31995">
        <ele>78.2</ele>
        <time>2015-05-11T18:30:38.665Z</time>
      </trkpt>
      <trkpt lat="48.86275" lon="2.31986">
        <ele>78.1</ele>
        <time>2015-05-11T18:30:39.566Z</time>
      </trkpt>
      <trkpt lat="48.86277" lon="2.31978">
        <ele>78.2</ele>
        <time>2015-05-11T18:30:40.585Z</time>
      </trkpt>
      <trkpt lat="48.8628" lon="2.3197">
        <ele>78.1</ele>
        <time>2015-05-11T18:30:41.595Z</time>
      </trkpt>
      <trkpt lat="48.86283" lon="2.31962">
        <ele>78.6</ele>
        <time>2015-05-11T18:30:42.625Z</time>
      </trkpt>
      <trkpt lat="48.86286" lon="2.31954">
        <ele>78.9</ele>
        <time>2015-05-11T18:30:43.646Z</time>
      </trkpt>
      <trkpt lat="48.86304" lon="2.31903">
        <ele>79.8</ele>
        <time>2015-05-11T18:30:49.614Z</time>
      </trkpt>
      <trkpt lat="48.86305" lon="2.31894">
        <ele>80.1</ele>
        <time>2015-05-11T18:30:50.574Z</time>
      </trkpt>
      <trkpt lat="48.86307" lon="2.31885">
        <ele>80.2</ele>
        <time>2015-05-11T18:30:51.621Z</time>
      </trkpt>
      <trkpt lat="48.86309" lon="2.31877">
        <ele>80.4</ele>
        <time>2015-05-11T18:30:52.595Z</time>
      </trkpt>
      <trkpt lat="48.86312" lon="2.31869">
        <ele>80</ele>
        <time>2015-05-11T18:30:53.617Z</time>
      </trkpt>
      <trkpt lat="48.86313" lon="2.31861">
        <ele>79.6</ele>
        <time>2015-05-11T18:30:54.665Z</time>
      </trkpt>
      <trkpt lat="48.86315" lon="2.31854">
        <ele>78.9</ele>
        <time>2015-05-11T18:30:55.598Z</time>
      </trkpt>
      <trkpt lat="48.86316" lon="2.31846">
        <ele>78.2</ele>
        <time>2015-05-11T18:30:56.586Z</time>
      </trkpt>
      <trkpt lat="48.86318" lon="2.31839">
        <ele>77.6</ele>
        <time>2015-05-11T18:30:57.571Z</time>
      </trkpt>
      <trkpt lat="48.86318" lon="2.31831">
        <ele>77.2</ele>
        <time>2015-05-11T18:30:58.700Z</time>
      </trkpt>
      <trkpt lat="48.86319" lon="2.31823">
        <ele>76.7</ele>
        <time>2015-05-11T18:30:59.616Z</time>
      </trkpt>
      <trkpt lat="48.8632" lon="2.31815">
        <ele>75.9</ele>
        <time>2015-05-11T18:31:00.598Z</time>
      </trkpt>
      <trkpt lat="48.86322" lon="2.31807">
        <ele>75.7</ele>
        <time>2015-05-11T18:31:01.606Z</time>
      </trkpt>
      <trkpt lat="48.86324" lon="2.318">
        <ele>75.6</ele>
        <time>2015-05-11T18:31:02.672Z</time>
      </trkpt>
      <trkpt lat="48.86326" lon="2.31793">
        <ele>75.6</ele>
        <time>2015-05-11T18:31:03.598Z</time>
      </trkpt>
      <trkpt lat="48.86328" lon="2.31785">
        <ele>75.7</ele>
        <time>2015-05-11T18:31:04.589Z</time>
      </trkpt>
      <trkpt lat="48.86327" lon="2.31778">
        <ele>74.7</ele>
        <time>2015-05-11T18:31:05.677Z</time>
      </trkpt>
      <trkpt lat="48.86327" lon="2.3177">
        <ele>73.7</ele>
        <time>2015-05-11T18:31:06.615Z</time>
      </trkpt>
      <trkpt lat="48.86326" lon="2.31762">
        <ele>72.7</ele>
        <time>2015-05-11T18:31:07.611Z</time>
      </trkpt>
      <trkpt lat="48.86325" lon="2.31754">
        <ele>72</ele>
        <time>2015-05-11T18:31:08.633Z</time>
      </trkpt>
      <trkpt lat="48.86325" lon="2.31746">
        <ele>72</ele>
        <time>2015-05-11T18:31:09.675Z</time>
      </trkpt>
      <trkpt lat="48.86324" lon="2.31738">
        <ele>71.3</ele>
        <time>2015-05-11T18:31:10.584Z</time>
      </trkpt>
      <trkpt lat="48.86324" lon="2.3173">
        <ele>71.4</ele>
        <time>2015-05-11T18:31:11.583Z</time>
      </trkpt>
      <trkpt lat="48.86324" lon="2.31722">
        <ele>71.1</ele>
        <time>2015-05-11T18:31:12.590Z</time>
      </trkpt>
      <trkpt lat="48.86323" lon="2.31714">
        <ele>69.9</ele>
        <time>2015-05-11T18:31:13.617Z</time>
      </trkpt>
      <trkpt lat="48.86323" lon="2.31706">
        <ele>69.3</ele>
        <time>2015-05-11T18:31:14.630Z</time>
      </trkpt>
      <trkpt lat="48.86322" lon="2.31698">
        <ele>69</ele>
        <time>2015-05-11T18:31:15.645Z</time>
      </trkpt>
      <trkpt lat="48.86322" lon="2.3169">
        <ele>68.3</ele>
        <time>2015-05-11T18:31:16.908Z</time>
      </trkpt>
      <trkpt lat="48.86322" lon="2.31682">
        <ele>68.9</ele>
        <time>2015-05-11T18:31:17.593Z</time>
      </trkpt>
      <trkpt lat="48.86322" lon="2.31674">
        <ele>69.2</ele>
        <time>2015-05-11T18:31:18.707Z</time>
      </trkpt>
      <trkpt lat="48.86321" lon="2.31665">
        <ele>68.4</ele>
        <time>2015-05-11T18:31:19.594Z</time>
      </trkpt>
      <trkpt lat="48.8632" lon="2.31656">
        <ele>68.9</ele>
        <time>2015-05-11T18:31:20.585Z</time>
      </trkpt>
      <trkpt lat="48.86319" lon="2.31648">
        <ele>68.9</ele>
        <time>2015-05-11T18:31:21.595Z</time>
      </trkpt>
      <trkpt lat="48.86319" lon="2.3164">
        <ele>69.9</ele>
        <time>2015-05-11T18:31:22.614Z</time>
      </trkpt>
      <trkpt lat="48.86318" lon="2.31632">
        <ele>70.4</ele>
        <time>2015-05-11T18:31:23.629Z</time>
      </trkpt>
      <trkpt lat="48.86318" lon="2.31625">
        <ele>70.7</ele>
        <time>2015-05-11T18:31:24.638Z</time>
      </trkpt>
      <trkpt lat="48.86318" lon="2.31617">
        <ele>70.5</ele>
        <time>2015-05-11T18:31:25.643Z</time>
      </trkpt>
      <trkpt lat="48.86318" lon="2.31609">
        <ele>70.7</ele>
        <time>2015-05-11T18:31:26.573Z</time>
      </trkpt>
      <trkpt lat="48.86317" lon="2.31601">
        <ele>71.1</ele>
        <time>2015-05-11T18:31:27.569Z</time>
      </trkpt>
      <trkpt lat="48.86317" lon="2.31592">
        <ele>71.8</ele>
        <time>2015-05-11T18:31:28.578Z</time>
      </trkpt>
      <trkpt lat="48.86317" lon="2.31584">
        <ele>71.8</ele>
        <time>2015-05-11T18:31:29.591Z</time>
      </trkpt>
      <trkpt lat="48.86317" lon="2.31571">
        <ele>73.1</ele>
        <time>2015-05-11T18:31:31.626Z</time>
      </trkpt>
      <trkpt lat="48.86316" lon="2.31565">
        <ele>73.3</ele>
        <time>2015-05-11T18:31:32.641Z</time>
      </trkpt>
      <trkpt lat="48.86316" lon="2.31558">
        <ele>73.4</ele>
        <time>2015-05-11T18:31:33.652Z</time>
      </trkpt>
      <trkpt lat="48.86316" lon="2.31551">
        <ele>73.5</ele>
        <time>2015-05-11T18:31:34.562Z</time>
      </trkpt>
      <trkpt lat="48.86317" lon="2.31538">
        <ele>73.8</ele>
        <time>2015-05-11T18:31:36.644Z</time>
      </trkpt>
      <trkpt lat="48.86317" lon="2.31533">
        <ele>73.7</ele>
        <time>2015-05-11T18:31:37.640Z</time>
      </trkpt>
      <trkpt lat="48.86317" lon="2.31522">
        <ele>74.1</ele>
        <time>2015-05-11T18:31:40.591Z</time>
      </trkpt>
      <trkpt lat="48.86317" lon="2.31519">
        <ele>74.2</ele>
        <time>2015-05-11T18:31:41.621Z</time>
      </trkpt>
      <trkpt lat="48.86317" lon="2.31506">
        <ele>74.7</ele>
        <time>2015-05-11T18:31:46.629Z</time>
      </trkpt>
      <trkpt lat="48.86317" lon="2.31504">
        <ele>74.9</ele>
        <time>2015-05-11T18:31:47.678Z</time>
      </trkpt>
      <trkpt lat="48.86318" lon="2.31493">
        <ele>75.2</ele>
        <time>2015-05-11T18:31:51.608Z</time>
      </trkpt>
      <trkpt lat="48.86318" lon="2.31489">
        <ele>75.3</ele>
        <time>2015-05-11T18:31:52.685Z</time>
      </trkpt>
      <trkpt lat="48.86317" lon="2.31479">
        <ele>74.8</ele>
        <time>2015-05-11T18:31:54.625Z</time>
      </trkpt>
      <trkpt lat="48.86317" lon="2.31474">
        <ele>74.9</ele>
        <time>2015-05-11T18:31:55.635Z</time>
      </trkpt>
      <trkpt lat="48.86316" lon="2.31463">
        <ele>74.7</ele>
        <time>2015-05-11T18:31:57.686Z</time>
      </trkpt>
      <trkpt lat="48.86316" lon="2.31458">
        <ele>74.7</ele>
        <time>2015-05-11T18:31:58.689Z</time>
      </trkpt>
      <trkpt lat="48.86315" lon="2.31449">
        <ele>74.8</ele>
        <time>2015-05-11T18:32:00.683Z</time>
      </trkpt>
      <trkpt lat="48.86315" lon="2.31443">
        <ele>74.8</ele>
        <time>2015-05-11T18:32:01.873Z</time>
      </trkpt>
      <trkpt lat="48.86315" lon="2.31432">
        <ele>74.2</ele>
        <time>2015-05-11T18:32:03.684Z</time>
      </trkpt>
      <trkpt lat="48.86315" lon="2.31425">
        <ele>74.1</ele>
        <time>2015-05-11T18:32:04.582Z</time>
      </trkpt>
      <trkpt lat="48.86317" lon="2.31414">
        <ele>74.4</ele>
        <time>2015-05-11T18:32:06.655Z</time>
      </trkpt>
      <trkpt lat="48.8632" lon="2.3141">
        <ele>74.7</ele>
        <time>2015-05-11T18:32:07.607Z</time>
      </trkpt>
      <trkpt lat="48.86322" lon="2.31405">
        <ele>74.8</ele>
        <time>2015-05-11T18:32:08.682Z</time>
      </trkpt>
      <trkpt lat="48.86326" lon="2.31366">
        <ele>75</ele>
        <time>2015-05-11T18:32:17.581Z</time>
      </trkpt>
      <trkpt lat="48.86326" lon="2.31361">
        <ele>74.8</ele>
        <time>2015-05-11T18:32:18.709Z</time>
      </trkpt>
      <trkpt lat="48.86324" lon="2.31352">
        <ele>74.5</ele>
        <time>2015-05-11T18:32:19.694Z</time>
      </trkpt>
      <trkpt lat="48.86323" lon="2.31342">
        <ele>74.4</ele>
        <time>2015-05-11T18:32:20.566Z</time>
      </trkpt>
      <trkpt lat="48.86322" lon="2.31332">
        <ele>74.3</ele>
        <time>2015-05-11T18:32:21.561Z</time>
      </trkpt>
      <trkpt lat="48.86319" lon="2.3132">
        <ele>74.5</ele>
        <time>2015-05-11T18:32:22.577Z</time>
      </trkpt>
      <trkpt lat="48.86319" lon="2.31308">
        <ele>74.3</ele>
        <time>2015-05-11T18:32:23.597Z</time>
      </trkpt>
      <trkpt lat="48.86319" lon="2.31296">
        <ele>74.1</ele>
        <time>2015-05-11T18:32:24.625Z</time>
      </trkpt>
      <trkpt lat="48.86318" lon="2.31285">
        <ele>73.9</ele>
        <time>2015-05-11T18:32:25.644Z</time>
      </trkpt>
      <trkpt lat="48.86317" lon="2.31275">
        <ele>74.4</ele>
        <time>2015-05-11T18:32:26.545Z</time>
      </trkpt>
      <trkpt lat="48.86314" lon="2.31264">
        <ele>73.9</ele>
        <time>2015-05-11T18:32:27.576Z</time>
      </trkpt>
      <trkpt lat="48.86312" lon="2.31254">
        <ele>73.3</ele>
        <time>2015-05-11T18:32:28.597Z</time>
      </trkpt>
      <trkpt lat="48.86309" lon="2.31237">
        <ele>74.2</ele>
        <time>2015-05-11T18:32:29.610Z</time>
      </trkpt>
      <trkpt lat="48.86309" lon="2.31228">
        <ele>73.8</ele>
        <time>2015-05-11T18:32:30.620Z</time>
      </trkpt>
      <trkpt lat="48.86308" lon="2.31218">
        <ele>74</ele>
        <time>2015-05-11T18:32:31.634Z</time>
      </trkpt>
      <trkpt lat="48.86308" lon="2.31208">
        <ele>73.8</ele>
        <time>2015-05-11T18:32:32.590Z</time>
      </trkpt>
      <trkpt lat="48.86307" lon="2.312">
        <ele>74</ele>
        <time>2015-05-11T18:32:33.548Z</time>
      </trkpt>
      <trkpt lat="48.86307" lon="2.31191">
        <ele>74</ele>
        <time>2015-05-11T18:32:34.592Z</time>
      </trkpt>
      <trkpt lat="48.86308" lon="2.31182">
        <ele>73</ele>
        <time>2015-05-11T18:32:35.604Z</time>
      </trkpt>
      <trkpt lat="48.86308" lon="2.31173">
        <ele>73</ele>
        <time>2015-05-11T18:32:36.676Z</time>
      </trkpt>
      <trkpt lat="48.86308" lon="2.31164">
        <ele>73.4</ele>
        <time>2015-05-11T18:32:37.544Z</time>
      </trkpt>
      <trkpt lat="48.86308" lon="2.31155">
        <ele>72.9</ele>
        <time>2015-05-11T18:32:38.573Z</time>
      </trkpt>
      <trkpt lat="48.86307" lon="2.31147">
        <ele>72.3</ele>
        <time>2015-05-11T18:32:39.582Z</time>
      </trkpt>
      <trkpt lat="48.86307" lon="2.31138">
        <ele>72.9</ele>
        <time>2015-05-11T18:32:40.623Z</time>
      </trkpt>
      <trkpt lat="48.86307" lon="2.31129">
        <ele>72.7</ele>
        <time>2015-05-11T18:32:41.575Z</time>
      </trkpt>
      <trkpt lat="48.86306" lon="2.3112">
        <ele>72.6</ele>
        <time>2015-05-11T18:32:42.688Z</time>
      </trkpt>
      <trkpt lat="48.86306" lon="2.3111">
        <ele>72.7</ele>
        <time>2015-05-11T18:32:43.572Z</time>
      </trkpt>
      <trkpt lat="48.86305" lon="2.31101">
        <ele>72.7</ele>
        <time>2015-05-11T18:32:44.589Z</time>
      </trkpt>
      <trkpt lat="48.86304" lon="2.31089">
        <ele>74.3</ele>
        <time>2015-05-11T18:32:45.599Z</time>
      </trkpt>
      <trkpt lat="48.86303" lon="2.3108">
        <ele>74.1</ele>
        <time>2015-05-11T18:32:46.620Z</time>
      </trkpt>
      <trkpt lat="48.86303" lon="2.31071">
        <ele>73.9</ele>
        <time>2015-05-11T18:32:47.655Z</time>
      </trkpt>
      <trkpt lat="48.86303" lon="2.31061">
        <ele>74.2</ele>
        <time>2015-05-11T18:32:48.673Z</time>
      </trkpt>
      <trkpt lat="48.86304" lon="2.31051">
        <ele>74.4</ele>
        <time>2015-05-11T18:32:49.573Z</time>
      </trkpt>
      <trkpt lat="48.86304" lon="2.31041">
        <ele>74.5</ele>
        <time>2015-05-11T18:32:50.602Z</time>
      </trkpt>
      <trkpt lat="48.86303" lon="2.31031">
        <ele>74.4</ele>
        <time>2015-05-11T18:32:51.671Z</time>
      </trkpt>
      <trkpt lat="48.86303" lon="2.31022">
        <ele>74.5</ele>
        <time>2015-05-11T18:32:52.581Z</time>
      </trkpt>
      <trkpt lat="48.86303" lon="2.31012">
        <ele>74.7</ele>
        <time>2015-05-11T18:32:53.603Z</time>
      </trkpt>
      <trkpt lat="48.86303" lon="2.31003">
        <ele>74.8</ele>
        <time>2015-05-11T18:32:54.614Z</time>
      </trkpt>
      <trkpt lat="48.86302" lon="2.30993">
        <ele>74.8</ele>
        <time>2015-05-11T18:32:55.624Z</time>
      </trkpt>
      <trkpt lat="48.86302" lon="2.30983">
        <ele>74.7</ele>
        <time>2015-05-11T18:32:56.688Z</time>
      </trkpt>
      <trkpt lat="48.86302" lon="2.30974">
        <ele>74.5</ele>
        <time>2015-05-11T18:32:57.599Z</time>
      </trkpt>
      <trkpt lat="48.86301" lon="2.30964">
        <ele>74.1</ele>
        <time>2015-05-11T18:32:58.582Z</time>
      </trkpt>
      <trkpt lat="48.863" lon="2.30954">
        <ele>74.1</ele>
        <time>2015-05-11T18:32:59.615Z</time>
      </trkpt>
      <trkpt lat="48.86299" lon="2.30944">
        <ele>74</ele>
        <time>2015-05-11T18:33:00.631Z</time>
      </trkpt>
      <trkpt lat="48.86298" lon="2.30934">
        <ele>74</ele>
        <time>2015-05-11T18:33:01.661Z</time>
      </trkpt>
      <trkpt lat="48.86298" lon="2.30925">
        <ele>73.9</ele>
        <time>2015-05-11T18:33:02.663Z</time>
      </trkpt>
      <trkpt lat="48.86299" lon="2.30916">
        <ele>74.1</ele>
        <time>2015-05-11T18:33:03.567Z</time>
      </trkpt>
      <trkpt lat="48.86299" lon="2.30907">
        <ele>74.4</ele>
        <time>2015-05-11T18:33:04.591Z</time>
      </trkpt>
      <trkpt lat="48.86298" lon="2.30899">
        <ele>74.7</ele>
        <time>2015-05-11T18:33:05.620Z</time>
      </trkpt>
      <trkpt lat="48.86298" lon="2.30891">
        <ele>74.8</ele>
        <time>2015-05-11T18:33:06.636Z</time>
      </trkpt>
      <trkpt lat="48.86298" lon="2.30884">
        <ele>74.9</ele>
        <time>2015-05-11T18:33:07.546Z</time>
      </trkpt>
      <trkpt lat="48.86298" lon="2.30875">
        <ele>74.9</ele>
        <time>2015-05-11T18:33:08.570Z</time>
      </trkpt>
      <trkpt lat="48.86298" lon="2.30868">
        <ele>75</ele>
        <time>2015-05-11T18:33:09.583Z</time>
      </trkpt>
      <trkpt lat="48.86298" lon="2.3086">
        <ele>74.7</ele>
        <time>2015-05-11T18:33:10.595Z</time>
      </trkpt>
      <trkpt lat="48.86298" lon="2.30852">
        <ele>74.9</ele>
        <time>2015-05-11T18:33:11.604Z</time>
      </trkpt>
      <trkpt lat="48.86297" lon="2.30842">
        <ele>75</ele>
        <time>2015-05-11T18:33:12.633Z</time>
      </trkpt>
      <trkpt lat="48.86297" lon="2.30833">
        <ele>75.1</ele>
        <time>2015-05-11T18:33:13.654Z</time>
      </trkpt>
      <trkpt lat="48.86297" lon="2.30825">
        <ele>74.8</ele>
        <time>2015-05-11T18:33:14.569Z</time>
      </trkpt>
      <trkpt lat="48.86297" lon="2.30817">
        <ele>74.8</ele>
        <time>2015-05-11T18:33:15.607Z</time>
      </trkpt>
      <trkpt lat="48.86297" lon="2.30809">
        <ele>74.9</ele>
        <time>2015-05-11T18:33:16.659Z</time>
      </trkpt>
      <trkpt lat="48.86297" lon="2.30801">
        <ele>75</ele>
        <time>2015-05-11T18:33:17.564Z</time>
      </trkpt>
      <trkpt lat="48.86296" lon="2.30792">
        <ele>75.2</ele>
        <time>2015-05-11T18:33:18.618Z</time>
      </trkpt>
      <trkpt lat="48.86295" lon="2.30783">
        <ele>75.3</ele>
        <time>2015-05-11T18:33:19.627Z</time>
      </trkpt>
      <trkpt lat="48.86294" lon="2.30773">
        <ele>75.6</ele>
        <time>2015-05-11T18:33:20.619Z</time>
      </trkpt>
      <trkpt lat="48.86294" lon="2.30765">
        <ele>75.9</ele>
        <time>2015-05-11T18:33:21.636Z</time>
      </trkpt>
      <trkpt lat="48.86293" lon="2.30756">
        <ele>76.4</ele>
        <time>2015-05-11T18:33:22.642Z</time>
      </trkpt>
      <trkpt lat="48.86292" lon="2.30747">
        <ele>76.7</ele>
        <time>2015-05-11T18:33:23.654Z</time>
      </trkpt>
      <trkpt lat="48.86291" lon="2.30738">
        <ele>77.3</ele>
        <time>2015-05-11T18:33:24.667Z</time>
      </trkpt>
      <trkpt lat="48.8629" lon="2.30729">
        <ele>77.5</ele>
        <time>2015-05-11T18:33:25.574Z</time>
      </trkpt>
      <trkpt lat="48.8629" lon="2.30721">
        <ele>77.6</ele>
        <time>2015-05-11T18:33:26.590Z</time>
      </trkpt>
      <trkpt lat="48.86289" lon="2.30711">
        <ele>77.6</ele>
        <time>2015-05-11T18:33:27.602Z</time>
      </trkpt>
      <trkpt lat="48.86289" lon="2.30701">
        <ele>77.9</ele>
        <time>2015-05-11T18:33:28.658Z</time>
      </trkpt>
      <trkpt lat="48.86289" lon="2.30693">
        <ele>78.1</ele>
        <time>2015-05-11T18:33:29.635Z</time>
      </trkpt>
      <trkpt lat="48.86289" lon="2.30683">
        <ele>78.1</ele>
        <time>2015-05-11T18:33:30.663Z</time>
      </trkpt>
      <trkpt lat="48.86289" lon="2.30674">
        <ele>78.2</ele>
        <time>2015-05-11T18:33:31.556Z</time>
      </trkpt>
      <trkpt lat="48.86289" lon="2.30665">
        <ele>78.1</ele>
        <time>2015-05-11T18:33:32.567Z</time>
      </trkpt>
      <trkpt lat="48.86289" lon="2.30657">
        <ele>78.1</ele>
        <time>2015-05-11T18:33:33.576Z</time>
      </trkpt>
      <trkpt lat="48.86289" lon="2.30648">
        <ele>78.4</ele>
        <time>2015-05-11T18:33:34.583Z</time>
      </trkpt>
      <trkpt lat="48.8629" lon="2.30639">
        <ele>78.4</ele>
        <time>2015-05-11T18:33:35.620Z</time>
      </trkpt>
      <trkpt lat="48.86291" lon="2.3063">
        <ele>78.4</ele>
        <time>2015-05-11T18:33:36.663Z</time>
      </trkpt>
      <trkpt lat="48.86291" lon="2.30621">
        <ele>78.5</ele>
        <time>2015-05-11T18:33:37.573Z</time>
      </trkpt>
      <trkpt lat="48.86292" lon="2.30611">
        <ele>78.5</ele>
        <time>2015-05-11T18:33:38.571Z</time>
      </trkpt>
      <trkpt lat="48.86292" lon="2.30602">
        <ele>78.4</ele>
        <time>2015-05-11T18:33:39.581Z</time>
      </trkpt>
      <trkpt lat="48.86293" lon="2.30592">
        <ele>78.3</ele>
        <time>2015-05-11T18:33:40.589Z</time>
      </trkpt>
      <trkpt lat="48.86292" lon="2.30582">
        <ele>78.3</ele>
        <time>2015-05-11T18:33:41.618Z</time>
      </trkpt>
      <trkpt lat="48.86293" lon="2.30572">
        <ele>77.8</ele>
        <time>2015-05-11T18:33:42.633Z</time>
      </trkpt>
      <trkpt lat="48.86293" lon="2.30563">
        <ele>77.5</ele>
        <time>2015-05-11T18:33:43.543Z</time>
      </trkpt>
      <trkpt lat="48.86292" lon="2.30554">
        <ele>77.2</ele>
        <time>2015-05-11T18:33:44.543Z</time>
      </trkpt>
      <trkpt lat="48.86292" lon="2.30544">
        <ele>77.3</ele>
        <time>2015-05-11T18:33:45.650Z</time>
      </trkpt>
      <trkpt lat="48.86292" lon="2.30534">
        <ele>77.3</ele>
        <time>2015-05-11T18:33:46.558Z</time>
      </trkpt>
      <trkpt lat="48.86291" lon="2.30524">
        <ele>77.5</ele>
        <time>2015-05-11T18:33:47.563Z</time>
      </trkpt>
      <trkpt lat="48.86291" lon="2.30514">
        <ele>77.3</ele>
        <time>2015-05-11T18:33:48.581Z</time>
      </trkpt>
      <trkpt lat="48.86291" lon="2.30505">
        <ele>77.6</ele>
        <time>2015-05-11T18:33:49.617Z</time>
      </trkpt>
      <trkpt lat="48.86291" lon="2.30497">
        <ele>77.7</ele>
        <time>2015-05-11T18:33:50.651Z</time>
      </trkpt>
      <trkpt lat="48.86291" lon="2.30487">
        <ele>77.3</ele>
        <time>2015-05-11T18:33:51.661Z</time>
      </trkpt>
      <trkpt lat="48.86291" lon="2.30477">
        <ele>77.2</ele>
        <time>2015-05-11T18:33:52.641Z</time>
      </trkpt>
      <trkpt lat="48.86291" lon="2.30468">
        <ele>77.2</ele>
        <time>2015-05-11T18:33:53.642Z</time>
      </trkpt>
      <trkpt lat="48.86291" lon="2.30458">
        <ele>77.1</ele>
        <time>2015-05-11T18:33:54.640Z</time>
      </trkpt>
      <trkpt lat="48.8629" lon="2.30449">
        <ele>77</ele>
        <time>2015-05-11T18:33:55.647Z</time>
      </trkpt>
      <trkpt lat="48.8629" lon="2.30441">
        <ele>77.1</ele>
        <time>2015-05-11T18:33:56.667Z</time>
      </trkpt>
      <trkpt lat="48.8629" lon="2.30433">
        <ele>76.9</ele>
        <time>2015-05-11T18:33:57.568Z</time>
      </trkpt>
      <trkpt lat="48.86289" lon="2.30424">
        <ele>77</ele>
        <time>2015-05-11T18:33:58.605Z</time>
      </trkpt>
      <trkpt lat="48.86288" lon="2.30416">
        <ele>76.9</ele>
        <time>2015-05-11T18:33:59.613Z</time>
      </trkpt>
      <trkpt lat="48.86287" lon="2.30408">
        <ele>77</ele>
        <time>2015-05-11T18:34:00.668Z</time>
      </trkpt>
      <trkpt lat="48.86287" lon="2.304">
        <ele>76.7</ele>
        <time>2015-05-11T18:34:01.676Z</time>
      </trkpt>
      <trkpt lat="48.86286" lon="2.30391">
        <ele>76.3</ele>
        <time>2015-05-11T18:34:02.570Z</time>
      </trkpt>
      <trkpt lat="48.86286" lon="2.30383">
        <ele>76.3</ele>
        <time>2015-05-11T18:34:03.578Z</time>
      </trkpt>
      <trkpt lat="48.86287" lon="2.30376">
        <ele>76.3</ele>
        <time>2015-05-11T18:34:04.584Z</time>
      </trkpt>
      <trkpt lat="48.86287" lon="2.30369">
        <ele>76.3</ele>
        <time>2015-05-11T18:34:05.593Z</time>
      </trkpt>
      <trkpt lat="48.86288" lon="2.30362">
        <ele>76.3</ele>
        <time>2015-05-11T18:34:06.616Z</time>
      </trkpt>
      <trkpt lat="48.86288" lon="2.30354">
        <ele>76.3</ele>
        <time>2015-05-11T18:34:07.795Z</time>
      </trkpt>
      <trkpt lat="48.86288" lon="2.30347">
        <ele>76</ele>
        <time>2015-05-11T18:34:08.663Z</time>
      </trkpt>
      <trkpt lat="48.86288" lon="2.3034">
        <ele>76</ele>
        <time>2015-05-11T18:34:09.671Z</time>
      </trkpt>
      <trkpt lat="48.86289" lon="2.30327">
        <ele>75.8</ele>
        <time>2015-05-11T18:34:11.576Z</time>
      </trkpt>
      <trkpt lat="48.86289" lon="2.30321">
        <ele>75.8</ele>
        <time>2015-05-11T18:34:12.637Z</time>
      </trkpt>
      <trkpt lat="48.86289" lon="2.30309">
        <ele>75.9</ele>
        <time>2015-05-11T18:34:14.636Z</time>
      </trkpt>
      <trkpt lat="48.86289" lon="2.30301">
        <ele>75.8</ele>
        <time>2015-05-11T18:34:15.663Z</time>
      </trkpt>
      <trkpt lat="48.86289" lon="2.30294">
        <ele>75.7</ele>
        <time>2015-05-11T18:34:16.575Z</time>
      </trkpt>
      <trkpt lat="48.8629" lon="2.30287">
        <ele>75.9</ele>
        <time>2015-05-11T18:34:17.582Z</time>
      </trkpt>
      <trkpt lat="48.8629" lon="2.3028">
        <ele>75.9</ele>
        <time>2015-05-11T18:34:18.620Z</time>
      </trkpt>
      <trkpt lat="48.86291" lon="2.30272">
        <ele>75.9</ele>
        <time>2015-05-11T18:34:19.802Z</time>
      </trkpt>
      <trkpt lat="48.86293" lon="2.30263">
        <ele>76</ele>
        <time>2015-05-11T18:34:20.636Z</time>
      </trkpt>
      <trkpt lat="48.86292" lon="2.30249">
        <ele>76.8</ele>
        <time>2015-05-11T18:34:21.645Z</time>
      </trkpt>
      <trkpt lat="48.86291" lon="2.30239">
        <ele>77</ele>
        <time>2015-05-11T18:34:22.650Z</time>
      </trkpt>
      <trkpt lat="48.8629" lon="2.30228">
        <ele>77.4</ele>
        <time>2015-05-11T18:34:23.657Z</time>
      </trkpt>
      <trkpt lat="48.86289" lon="2.30218">
        <ele>77.6</ele>
        <time>2015-05-11T18:34:24.667Z</time>
      </trkpt>
      <trkpt lat="48.86289" lon="2.30211">
        <ele>77.6</ele>
        <time>2015-05-11T18:34:25.567Z</time>
      </trkpt>
      <trkpt lat="48.86288" lon="2.30204">
        <ele>77.7</ele>
        <time>2015-05-11T18:34:26.581Z</time>
      </trkpt>
      <trkpt lat="48.86287" lon="2.30193">
        <ele>77.6</ele>
        <time>2015-05-11T18:34:28.643Z</time>
      </trkpt>
      <trkpt lat="48.86285" lon="2.30183">
        <ele>77.8</ele>
        <time>2015-05-11T18:34:30.611Z</time>
      </trkpt>
      <trkpt lat="48.86285" lon="2.30176">
        <ele>77.8</ele>
        <time>2015-05-11T18:34:31.633Z</time>
      </trkpt>
      <trkpt lat="48.86285" lon="2.30168">
        <ele>77.8</ele>
        <time>2015-05-11T18:34:32.578Z</time>
      </trkpt>
      <trkpt lat="48.86285" lon="2.3016">
        <ele>77.5</ele>
        <time>2015-05-11T18:34:33.567Z</time>
      </trkpt>
      <trkpt lat="48.86285" lon="2.30153">
        <ele>77.4</ele>
        <time>2015-05-11T18:34:34.567Z</time>
      </trkpt>
      <trkpt lat="48.86285" lon="2.30146">
        <ele>77.5</ele>
        <time>2015-05-11T18:34:35.575Z</time>
      </trkpt>
      <trkpt lat="48.86285" lon="2.30132">
        <ele>78</ele>
        <time>2015-05-11T18:34:36.610Z</time>
      </trkpt>
      <trkpt lat="48.86284" lon="2.30122">
        <ele>78.2</ele>
        <time>2015-05-11T18:34:37.613Z</time>
      </trkpt>
      <trkpt lat="48.86284" lon="2.30114">
        <ele>78.3</ele>
        <time>2015-05-11T18:34:38.625Z</time>
      </trkpt>
      <trkpt lat="48.86283" lon="2.30104">
        <ele>78.9</ele>
        <time>2015-05-11T18:34:39.636Z</time>
      </trkpt>
      <trkpt lat="48.86284" lon="2.30091">
        <ele>79</ele>
        <time>2015-05-11T18:34:41.567Z</time>
      </trkpt>
      <trkpt lat="48.86284" lon="2.30085">
        <ele>79</ele>
        <time>2015-05-11T18:34:42.632Z</time>
      </trkpt>
      <trkpt lat="48.86283" lon="2.30073">
        <ele>79.1</ele>
        <time>2015-05-11T18:34:44.568Z</time>
      </trkpt>
      <trkpt lat="48.86282" lon="2.30067">
        <ele>79.2</ele>
        <time>2015-05-11T18:34:45.588Z</time>
      </trkpt>
      <trkpt lat="48.8628" lon="2.30058">
        <ele>79.4</ele>
        <time>2015-05-11T18:34:47.631Z</time>
      </trkpt>
      <trkpt lat="48.86279" lon="2.30053">
        <ele>79.4</ele>
        <time>2015-05-11T18:34:48.591Z</time>
      </trkpt>
      <trkpt lat="48.86279" lon="2.30044">
        <ele>79.2</ele>
        <time>2015-05-11T18:34:50.568Z</time>
      </trkpt>
      <trkpt lat="48.86277" lon="2.30039">
        <ele>78.6</ele>
        <time>2015-05-11T18:34:51.595Z</time>
      </trkpt>
      <trkpt lat="48.86275" lon="2.30029">
        <ele>78.3</ele>
        <time>2015-05-11T18:34:53.630Z</time>
      </trkpt>
      <trkpt lat="48.86274" lon="2.30024">
        <ele>78.3</ele>
        <time>2015-05-11T18:34:54.665Z</time>
      </trkpt>
      <trkpt lat="48.86271" lon="2.30015">
        <ele>78.4</ele>
        <time>2015-05-11T18:34:56.586Z</time>
      </trkpt>
      <trkpt lat="48.8627" lon="2.3001">
        <ele>78.5</ele>
        <time>2015-05-11T18:34:57.604Z</time>
      </trkpt>
      <trkpt lat="48.86266" lon="2.3">
        <ele>78</ele>
        <time>2015-05-11T18:35:00.007Z</time>
      </trkpt>
      <trkpt lat="48.86265" lon="2.29996">
        <ele>78</ele>
        <time>2015-05-11T18:35:00.684Z</time>
      </trkpt>
      <trkpt lat="48.86259" lon="2.29988">
        <ele>76.9</ele>
        <time>2015-05-11T18:35:03.631Z</time>
      </trkpt>
      <trkpt lat="48.86257" lon="2.29985">
        <ele>76.7</ele>
        <time>2015-05-11T18:35:04.635Z</time>
      </trkpt>
      <trkpt lat="48.86252" lon="2.29976">
        <ele>76.5</ele>
        <time>2015-05-11T18:35:07.594Z</time>
      </trkpt>
      <trkpt lat="48.8625" lon="2.29973">
        <ele>76.7</ele>
        <time>2015-05-11T18:35:08.663Z</time>
      </trkpt>
      <trkpt lat="48.86246" lon="2.29962">
        <ele>77.6</ele>
        <time>2015-05-11T18:35:13.687Z</time>
      </trkpt>
      <trkpt lat="48.86246" lon="2.29959">
        <ele>77.5</ele>
        <time>2015-05-11T18:35:14.609Z</time>
      </trkpt>
      <trkpt lat="48.86244" lon="2.29951">
        <ele>77.9</ele>
        <time>2015-05-11T18:35:20.616Z</time>
      </trkpt>
      <trkpt lat="48.86244" lon="2.29951">
        <ele>77.7</ele>
        <time>2015-05-11T18:35:21.624Z</time>
      </trkpt>
      <trkpt lat="48.86244" lon="2.2995">
        <ele>77.6</ele>
        <time>2015-05-11T18:35:22.606Z</time>
      </trkpt>
      <trkpt lat="48.86249" lon="2.29953">
        <ele>77.3</ele>
        <time>2015-05-11T18:35:40.636Z</time>
      </trkpt>
      <trkpt lat="48.86249" lon="2.29954">
        <ele>77.3</ele>
        <time>2015-05-11T18:35:41.645Z</time>
      </trkpt>
      <trkpt lat="48.86249" lon="2.29954">
        <ele>77.4</ele>
        <time>2015-05-11T18:35:43.612Z</time>
      </trkpt>
      <trkpt lat="48.86249" lon="2.29954">
        <ele>77.4</ele>
        <time>2015-05-11T18:35:44.613Z</time>
      </trkpt>
      <trkpt lat="48.86249" lon="2.29955">
        <ele>77.4</ele>
        <time>2015-05-11T18:35:45.630Z</time>
      </trkpt>
      <trkpt lat="48.86249" lon="2.29955">
        <ele>77.5</ele>
        <time>2015-05-11T18:35:46.638Z</time>
      </trkpt>
      <trkpt lat="48.86251" lon="2.29955">
        <ele>77.5</ele>
        <time>2015-05-11T18:36:59.618Z</time>
      </trkpt>
      <trkpt lat="48.86247" lon="2.29955">
        <ele>78.1</ele>
        <time>2015-05-11T18:37:00.603Z</time>
      </trkpt>
      <trkpt lat="48.86241" lon="2.29947">
        <ele>78.4</ele>
        <time>2015-05-11T18:37:05.593Z</time>
      </trkpt>
      <trkpt lat="48.86239" lon="2.29944">
        <ele>78.3</ele>
        <time>2015-05-11T18:37:06.641Z</time>
      </trkpt>
      <trkpt lat="48.86234" lon="2.29938">
        <ele>78.7</ele>
        <time>2015-05-11T18:37:08.591Z</time>
      </trkpt>
      <trkpt lat="48.86231" lon="2.29934">
        <ele>78.7</ele>
        <time>2015-05-11T18:37:09.615Z</time>
      </trkpt>
      <trkpt lat="48.86227" lon="2.29926">
        <ele>78.6</ele>
        <time>2015-05-11T18:37:11.664Z</time>
      </trkpt>
      <trkpt lat="48.86225" lon="2.2992">
        <ele>78.6</ele>
        <time>2015-05-11T18:37:12.700Z</time>
      </trkpt>
      <trkpt lat="48.86223" lon="2.29914">
        <ele>78.5</ele>
        <time>2015-05-11T18:37:13.598Z</time>
      </trkpt>
      <trkpt lat="48.86221" lon="2.29906">
        <ele>78.5</ele>
        <time>2015-05-11T18:37:14.635Z</time>
      </trkpt>
      <trkpt lat="48.86219" lon="2.299">
        <ele>78.5</ele>
        <time>2015-05-11T18:37:15.666Z</time>
      </trkpt>
      <trkpt lat="48.86217" lon="2.29893">
        <ele>78.5</ele>
        <time>2015-05-11T18:37:16.581Z</time>
      </trkpt>
      <trkpt lat="48.86214" lon="2.29886">
        <ele>78.5</ele>
        <time>2015-05-11T18:37:17.604Z</time>
      </trkpt>
      <trkpt lat="48.86212" lon="2.2988">
        <ele>78.5</ele>
        <time>2015-05-11T18:37:18.651Z</time>
      </trkpt>
      <trkpt lat="48.86208" lon="2.2987">
        <ele>78.7</ele>
        <time>2015-05-11T18:37:20.692Z</time>
      </trkpt>
      <trkpt lat="48.86206" lon="2.29865">
        <ele>78.8</ele>
        <time>2015-05-11T18:37:21.598Z</time>
      </trkpt>
      <trkpt lat="48.86203" lon="2.29855">
        <ele>78.8</ele>
        <time>2015-05-11T18:37:23.631Z</time>
      </trkpt>
      <trkpt lat="48.86202" lon="2.29849">
        <ele>78.8</ele>
        <time>2015-05-11T18:37:24.654Z</time>
      </trkpt>
      <trkpt lat="48.86199" lon="2.29835">
        <ele>78.7</ele>
        <time>2015-05-11T18:37:26.684Z</time>
      </trkpt>
      <trkpt lat="48.86198" lon="2.29829">
        <ele>78.8</ele>
        <time>2015-05-11T18:37:27.619Z</time>
      </trkpt>
      <trkpt lat="48.86196" lon="2.29823">
        <ele>78.8</ele>
        <time>2015-05-11T18:37:28.658Z</time>
      </trkpt>
      <trkpt lat="48.86194" lon="2.29816">
        <ele>78.8</ele>
        <time>2015-05-11T18:37:29.666Z</time>
      </trkpt>
      <trkpt lat="48.86191" lon="2.2981">
        <ele>78.6</ele>
        <time>2015-05-11T18:37:30.689Z</time>
      </trkpt>
      <trkpt lat="48.86189" lon="2.29804">
        <ele>78.7</ele>
        <time>2015-05-11T18:37:31.591Z</time>
      </trkpt>
      <trkpt lat="48.86185" lon="2.29792">
        <ele>78.8</ele>
        <time>2015-05-11T18:37:33.604Z</time>
      </trkpt>
      <trkpt lat="48.86183" lon="2.29784">
        <ele>78.8</ele>
        <time>2015-05-11T18:37:34.633Z</time>
      </trkpt>
      <trkpt lat="48.86178" lon="2.29774">
        <ele>78.9</ele>
        <time>2015-05-11T18:37:36.676Z</time>
      </trkpt>
      <trkpt lat="48.86176" lon="2.2977">
        <ele>78.9</ele>
        <time>2015-05-11T18:37:37.595Z</time>
      </trkpt>
      <trkpt lat="48.8617" lon="2.29763">
        <ele>78.8</ele>
        <time>2015-05-11T18:37:39.649Z</time>
      </trkpt>
      <trkpt lat="48.86167" lon="2.29758">
        <ele>78.9</ele>
        <time>2015-05-11T18:37:40.611Z</time>
      </trkpt>
      <trkpt lat="48.86162" lon="2.29748">
        <ele>79.1</ele>
        <time>2015-05-11T18:37:42.653Z</time>
      </trkpt>
      <trkpt lat="48.8616" lon="2.29744">
        <ele>79.2</ele>
        <time>2015-05-11T18:37:43.618Z</time>
      </trkpt>
      <trkpt lat="48.86156" lon="2.29735">
        <ele>79.4</ele>
        <time>2015-05-11T18:37:45.631Z</time>
      </trkpt>
      <trkpt lat="48.86154" lon="2.2973">
        <ele>79.6</ele>
        <time>2015-05-11T18:37:46.564Z</time>
      </trkpt>
      <trkpt lat="48.86152" lon="2.29719">
        <ele>80.1</ele>
        <time>2015-05-11T18:37:48.663Z</time>
      </trkpt>
      <trkpt lat="48.8615" lon="2.29713">
        <ele>80.3</ele>
        <time>2015-05-11T18:37:49.684Z</time>
      </trkpt>
      <trkpt lat="48.86148" lon="2.29708">
        <ele>80.4</ele>
        <time>2015-05-11T18:37:50.582Z</time>
      </trkpt>
      <trkpt lat="48.86144" lon="2.29701">
        <ele>80.5</ele>
        <time>2015-05-11T18:37:51.592Z</time>
      </trkpt>
      <trkpt lat="48.8614" lon="2.29694">
        <ele>80.7</ele>
        <time>2015-05-11T18:37:52.609Z</time>
      </trkpt>
      <trkpt lat="48.86136" lon="2.29687">
        <ele>80.8</ele>
        <time>2015-05-11T18:37:53.614Z</time>
      </trkpt>
      <trkpt lat="48.86132" lon="2.29679">
        <ele>80.9</ele>
        <time>2015-05-11T18:37:54.648Z</time>
      </trkpt>
      <trkpt lat="48.86128" lon="2.29672">
        <ele>81</ele>
        <time>2015-05-11T18:37:55.648Z</time>
      </trkpt>
      <trkpt lat="48.86125" lon="2.29665">
        <ele>81</ele>
        <time>2015-05-11T18:37:56.657Z</time>
      </trkpt>
      <trkpt lat="48.86121" lon="2.29659">
        <ele>81</ele>
        <time>2015-05-11T18:37:57.663Z</time>
      </trkpt>
      <trkpt lat="48.86118" lon="2.29652">
        <ele>81</ele>
        <time>2015-05-11T18:37:58.668Z</time>
      </trkpt>
      <trkpt lat="48.86114" lon="2.29646">
        <ele>81</ele>
        <time>2015-05-11T18:37:59.682Z</time>
      </trkpt>
      <trkpt lat="48.8611" lon="2.2964">
        <ele>81</ele>
        <time>2015-05-11T18:38:00.700Z</time>
      </trkpt>
      <trkpt lat="48.86107" lon="2.29633">
        <ele>80.8</ele>
        <time>2015-05-11T18:38:01.618Z</time>
      </trkpt>
      <trkpt lat="48.86103" lon="2.29627">
        <ele>80.8</ele>
        <time>2015-05-11T18:38:02.648Z</time>
      </trkpt>
      <trkpt lat="48.861" lon="2.29621">
        <ele>80.8</ele>
        <time>2015-05-11T18:38:03.650Z</time>
      </trkpt>
      <trkpt lat="48.86097" lon="2.29616">
        <ele>80.8</ele>
        <time>2015-05-11T18:38:04.661Z</time>
      </trkpt>
      <trkpt lat="48.86093" lon="2.29609">
        <ele>80.7</ele>
        <time>2015-05-11T18:38:05.557Z</time>
      </trkpt>
      <trkpt lat="48.8609" lon="2.29604">
        <ele>80.7</ele>
        <time>2015-05-11T18:38:06.620Z</time>
      </trkpt>
      <trkpt lat="48.86087" lon="2.296">
        <ele>80.6</ele>
        <time>2015-05-11T18:38:07.638Z</time>
      </trkpt>
      <trkpt lat="48.86083" lon="2.29595">
        <ele>80.6</ele>
        <time>2015-05-11T18:38:08.651Z</time>
      </trkpt>
      <trkpt lat="48.86078" lon="2.2959">
        <ele>80.4</ele>
        <time>2015-05-11T18:38:09.674Z</time>
      </trkpt>
      <trkpt lat="48.86074" lon="2.29582">
        <ele>79.9</ele>
        <time>2015-05-11T18:38:10.557Z</time>
      </trkpt>
      <trkpt lat="48.8607" lon="2.29576">
        <ele>79.7</ele>
        <time>2015-05-11T18:38:11.579Z</time>
      </trkpt>
      <trkpt lat="48.86066" lon="2.29569">
        <ele>79.5</ele>
        <time>2015-05-11T18:38:12.659Z</time>
      </trkpt>
      <trkpt lat="48.86062" lon="2.2956">
        <ele>79.2</ele>
        <time>2015-05-11T18:38:13.633Z</time>
      </trkpt>
      <trkpt lat="48.86057" lon="2.29553">
        <ele>78.9</ele>
        <time>2015-05-11T18:38:14.588Z</time>
      </trkpt>
      <trkpt lat="48.86052" lon="2.29547">
        <ele>78.8</ele>
        <time>2015-05-11T18:38:15.627Z</time>
      </trkpt>
      <trkpt lat="48.86047" lon="2.29541">
        <ele>78.6</ele>
        <time>2015-05-11T18:38:16.647Z</time>
      </trkpt>
      <trkpt lat="48.86042" lon="2.29536">
        <ele>78.7</ele>
        <time>2015-05-11T18:38:17.668Z</time>
      </trkpt>
      <trkpt lat="48.86039" lon="2.29529">
        <ele>78.6</ele>
        <time>2015-05-11T18:38:18.696Z</time>
      </trkpt>
      <trkpt lat="48.86035" lon="2.29524">
        <ele>78.6</ele>
        <time>2015-05-11T18:38:19.573Z</time>
      </trkpt>
      <trkpt lat="48.86031" lon="2.29518">
        <ele>78.7</ele>
        <time>2015-05-11T18:38:20.601Z</time>
      </trkpt>
      <trkpt lat="48.86028" lon="2.29512">
        <ele>78.6</ele>
        <time>2015-05-11T18:38:21.617Z</time>
      </trkpt>
      <trkpt lat="48.86024" lon="2.29506">
        <ele>78.4</ele>
        <time>2015-05-11T18:38:22.660Z</time>
      </trkpt>
      <trkpt lat="48.86021" lon="2.29499">
        <ele>78.4</ele>
        <time>2015-05-11T18:38:23.579Z</time>
      </trkpt>
      <trkpt lat="48.86018" lon="2.29492">
        <ele>78.5</ele>
        <time>2015-05-11T18:38:24.725Z</time>
      </trkpt>
      <trkpt lat="48.86015" lon="2.29486">
        <ele>78.4</ele>
        <time>2015-05-11T18:38:25.618Z</time>
      </trkpt>
      <trkpt lat="48.86012" lon="2.2948">
        <ele>78.4</ele>
        <time>2015-05-11T18:38:26.650Z</time>
      </trkpt>
      <trkpt lat="48.8601" lon="2.29474">
        <ele>78.5</ele>
        <time>2015-05-11T18:38:27.660Z</time>
      </trkpt>
      <trkpt lat="48.86007" lon="2.29469">
        <ele>78.3</ele>
        <time>2015-05-11T18:38:28.583Z</time>
      </trkpt>
      <trkpt lat="48.86004" lon="2.29463">
        <ele>78.1</ele>
        <time>2015-05-11T18:38:29.582Z</time>
      </trkpt>
      <trkpt lat="48.86001" lon="2.29458">
        <ele>77.7</ele>
        <time>2015-05-11T18:38:30.656Z</time>
      </trkpt>
      <trkpt lat="48.85998" lon="2.29452">
        <ele>77.3</ele>
        <time>2015-05-11T18:38:31.568Z</time>
      </trkpt>
      <trkpt lat="48.85994" lon="2.29448">
        <ele>77.2</ele>
        <time>2015-05-11T18:38:32.592Z</time>
      </trkpt>
      <trkpt lat="48.85991" lon="2.29443">
        <ele>77</ele>
        <time>2015-05-11T18:38:33.586Z</time>
      </trkpt>
      <trkpt lat="48.85987" lon="2.29439">
        <ele>76.8</ele>
        <time>2015-05-11T18:38:34.614Z</time>
      </trkpt>
      <trkpt lat="48.85984" lon="2.29435">
        <ele>76.5</ele>
        <time>2015-05-11T18:38:35.636Z</time>
      </trkpt>
      <trkpt lat="48.85976" lon="2.29427">
        <ele>76.3</ele>
        <time>2015-05-11T18:38:37.680Z</time>
      </trkpt>
      <trkpt lat="48.85973" lon="2.29422">
        <ele>76</ele>
        <time>2015-05-11T18:38:38.623Z</time>
      </trkpt>
      <trkpt lat="48.85965" lon="2.29414">
        <ele>76.1</ele>
        <time>2015-05-11T18:38:40.627Z</time>
      </trkpt>
      <trkpt lat="48.85962" lon="2.2941">
        <ele>76.1</ele>
        <time>2015-05-11T18:38:41.656Z</time>
      </trkpt>
      <trkpt lat="48.85956" lon="2.29402">
        <ele>76.5</ele>
        <time>2015-05-11T18:38:43.695Z</time>
      </trkpt>
      <trkpt lat="48.85953" lon="2.29399">
        <ele>76.6</ele>
        <time>2015-05-11T18:38:44.688Z</time>
      </trkpt>
      <trkpt lat="48.85947" lon="2.29393">
        <ele>76.9</ele>
        <time>2015-05-11T18:38:46.605Z</time>
      </trkpt>
      <trkpt lat="48.85945" lon="2.2939">
        <ele>76.8</ele>
        <time>2015-05-11T18:38:47.621Z</time>
      </trkpt>
      <trkpt lat="48.8594" lon="2.29384">
        <ele>76.7</ele>
        <time>2015-05-11T18:38:49.594Z</time>
      </trkpt>
      <trkpt lat="48.85936" lon="2.29381">
        <ele>76.4</ele>
        <time>2015-05-11T18:38:50.673Z</time>
      </trkpt>
      <trkpt lat="48.85932" lon="2.29375">
        <ele>75.5</ele>
        <time>2015-05-11T18:38:52.662Z</time>
      </trkpt>
      <trkpt lat="48.8593" lon="2.29371">
        <ele>75.2</ele>
        <time>2015-05-11T18:38:53.668Z</time>
      </trkpt>
      <trkpt lat="48.85925" lon="2.2936">
        <ele>73.9</ele>
        <time>2015-05-11T18:38:56.636Z</time>
      </trkpt>
      <trkpt lat="48.85924" lon="2.29357">
        <ele>74</ele>
        <time>2015-05-11T18:38:57.652Z</time>
      </trkpt>
      <trkpt lat="48.85924" lon="2.29353">
        <ele>75</ele>
        <time>2015-05-11T18:38:58.600Z</time>
      </trkpt>
      <trkpt lat="48.85924" lon="2.29348">
        <ele>76.2</ele>
        <time>2015-05-11T18:38:59.602Z</time>
      </trkpt>
      <trkpt lat="48.85924" lon="2.29347">
        <ele>76.3</ele>
        <time>2015-05-11T18:39:11.621Z</time>
      </trkpt>
      <trkpt lat="48.85924" lon="2.29346">
        <ele>77.6</ele>
        <time>2015-05-11T18:39:12.670Z</time>
      </trkpt>
      <trkpt lat="48.85916" lon="2.29344">
        <ele>76.6</ele>
        <time>2015-05-11T18:39:19.627Z</time>
      </trkpt>
      <trkpt lat="48.85915" lon="2.29344">
        <ele>76.8</ele>
        <time>2015-05-11T18:39:20.666Z</time>
      </trkpt>
      <trkpt lat="48.85908" lon="2.29339">
        <ele>77.2</ele>
        <time>2015-05-11T18:39:23.691Z</time>
      </trkpt>
      <trkpt lat="48.85907" lon="2.29337">
        <ele>77.4</ele>
        <time>2015-05-11T18:39:24.729Z</time>
      </trkpt>
      <trkpt lat="48.85904" lon="2.29324">
        <ele>77.9</ele>
        <time>2015-05-11T18:39:31.681Z</time>
      </trkpt>
      <trkpt lat="48.85905" lon="2.29323">
        <ele>77.8</ele>
        <time>2015-05-11T18:39:32.673Z</time>
      </trkpt>
      <trkpt lat="48.85904" lon="2.29321">
        <ele>78</ele>
        <time>2015-05-11T18:39:36.697Z</time>
      </trkpt>
      <trkpt lat="48.85903" lon="2.2932">
        <ele>78.4</ele>
        <time>2015-05-11T18:39:37.591Z</time>
      </trkpt>
      <trkpt lat="48.85904" lon="2.29319">
        <ele>78.5</ele>
        <time>2015-05-11T18:39:50.599Z</time>
      </trkpt>
      <trkpt lat="48.85904" lon="2.29322">
        <ele>79.1</ele>
        <time>2015-05-11T18:39:51.614Z</time>
      </trkpt>
      <trkpt lat="48.85904" lon="2.29322">
        <ele>79.2</ele>
        <time>2015-05-11T18:39:53.567Z</time>
      </trkpt>
      <trkpt lat="48.85904" lon="2.29322">
        <ele>79.4</ele>
        <time>2015-05-11T18:39:54.687Z</time>
      </trkpt>
      <trkpt lat="48.85904" lon="2.29319">
        <ele>79.7</ele>
        <time>2015-05-11T18:39:55.609Z</time>
      </trkpt>
      <trkpt lat="48.85898" lon="2.29311">
        <ele>79.1</ele>
        <time>2015-05-11T18:40:00.740Z</time>
      </trkpt>
      <trkpt lat="48.85896" lon="2.29309">
        <ele>78.9</ele>
        <time>2015-05-11T18:40:01.572Z</time>
      </trkpt>
      <trkpt lat="48.85889" lon="2.29303">
        <ele>78.4</ele>
        <time>2015-05-11T18:40:04.626Z</time>
      </trkpt>
      <trkpt lat="48.85886" lon="2.29301">
        <ele>78.1</ele>
        <time>2015-05-11T18:40:05.646Z</time>
      </trkpt>
      <trkpt lat="48.85879" lon="2.29293">
        <ele>77.6</ele>
        <time>2015-05-11T18:40:07.611Z</time>
      </trkpt>
      <trkpt lat="48.85876" lon="2.29288">
        <ele>77.6</ele>
        <time>2015-05-11T18:40:08.595Z</time>
      </trkpt>
      <trkpt lat="48.85873" lon="2.29283">
        <ele>77.6</ele>
        <time>2015-05-11T18:40:09.619Z</time>
      </trkpt>
      <trkpt lat="48.85869" lon="2.29278">
        <ele>77.5</ele>
        <time>2015-05-11T18:40:10.645Z</time>
      </trkpt>
      <trkpt lat="48.85865" lon="2.29273">
        <ele>77.5</ele>
        <time>2015-05-11T18:40:11.644Z</time>
      </trkpt>
      <trkpt lat="48.85861" lon="2.29268">
        <ele>77.4</ele>
        <time>2015-05-11T18:40:12.686Z</time>
      </trkpt>
      <trkpt lat="48.85857" lon="2.29263">
        <ele>77.5</ele>
        <time>2015-05-11T18:40:13.610Z</time>
      </trkpt>
      <trkpt lat="48.85853" lon="2.29257">
        <ele>77.4</ele>
        <time>2015-05-11T18:40:14.622Z</time>
      </trkpt>
      <trkpt lat="48.85849" lon="2.29251">
        <ele>77.3</ele>
        <time>2015-05-11T18:40:15.626Z</time>
      </trkpt>
      <trkpt lat="48.85845" lon="2.29245">
        <ele>77.4</ele>
        <time>2015-05-11T18:40:16.668Z</time>
      </trkpt>
      <trkpt lat="48.85842" lon="2.29238">
        <ele>77.4</ele>
        <time>2015-05-11T18:40:17.677Z</time>
      </trkpt>
      <trkpt lat="48.85837" lon="2.29232">
        <ele>77.8</ele>
        <time>2015-05-11T18:40:18.681Z</time>
      </trkpt>
      <trkpt lat="48.85832" lon="2.29226">
        <ele>77.7</ele>
        <time>2015-05-11T18:40:19.603Z</time>
      </trkpt>
      <trkpt lat="48.85828" lon="2.2922">
        <ele>77.9</ele>
        <time>2015-05-11T18:40:20.598Z</time>
      </trkpt>
      <trkpt lat="48.85823" lon="2.29214">
        <ele>78</ele>
        <time>2015-05-11T18:40:21.624Z</time>
      </trkpt>
      <trkpt lat="48.85819" lon="2.29208">
        <ele>78</ele>
        <time>2015-05-11T18:40:22.646Z</time>
      </trkpt>
      <trkpt lat="48.85815" lon="2.29202">
        <ele>77.9</ele>
        <time>2015-05-11T18:40:23.675Z</time>
      </trkpt>
      <trkpt lat="48.85811" lon="2.29195">
        <ele>77.9</ele>
        <time>2015-05-11T18:40:24.683Z</time>
      </trkpt>
      <trkpt lat="48.85806" lon="2.29189">
        <ele>77.9</ele>
        <time>2015-05-11T18:40:25.640Z</time>
      </trkpt>
      <trkpt lat="48.85802" lon="2.29182">
        <ele>77.9</ele>
        <time>2015-05-11T18:40:26.599Z</time>
      </trkpt>
      <trkpt lat="48.85798" lon="2.29175">
        <ele>77.9</ele>
        <time>2015-05-11T18:40:27.633Z</time>
      </trkpt>
      <trkpt lat="48.85793" lon="2.29168">
        <ele>77.9</ele>
        <time>2015-05-11T18:40:28.642Z</time>
      </trkpt>
      <trkpt lat="48.8579" lon="2.29161">
        <ele>78.1</ele>
        <time>2015-05-11T18:40:29.619Z</time>
      </trkpt>
      <trkpt lat="48.85786" lon="2.29153">
        <ele>78.3</ele>
        <time>2015-05-11T18:40:30.796Z</time>
      </trkpt>
      <trkpt lat="48.85783" lon="2.29144">
        <ele>78.3</ele>
        <time>2015-05-11T18:40:31.691Z</time>
      </trkpt>
      <trkpt lat="48.85781" lon="2.29136">
        <ele>78.5</ele>
        <time>2015-05-11T18:40:32.584Z</time>
      </trkpt>
      <trkpt lat="48.85778" lon="2.29128">
        <ele>78.6</ele>
        <time>2015-05-11T18:40:33.579Z</time>
      </trkpt>
      <trkpt lat="48.85774" lon="2.29121">
        <ele>78.7</ele>
        <time>2015-05-11T18:40:34.598Z</time>
      </trkpt>
      <trkpt lat="48.8577" lon="2.29113">
        <ele>78.6</ele>
        <time>2015-05-11T18:40:35.608Z</time>
      </trkpt>
      <trkpt lat="48.85765" lon="2.29104">
        <ele>78.5</ele>
        <time>2015-05-11T18:40:36.652Z</time>
      </trkpt>
      <trkpt lat="48.85761" lon="2.29097">
        <ele>78.4</ele>
        <time>2015-05-11T18:40:37.589Z</time>
      </trkpt>
      <trkpt lat="48.85756" lon="2.29089">
        <ele>78.3</ele>
        <time>2015-05-11T18:40:38.588Z</time>
      </trkpt>
      <trkpt lat="48.8575" lon="2.29081">
        <ele>77.9</ele>
        <time>2015-05-11T18:40:39.615Z</time>
      </trkpt>
      <trkpt lat="48.85746" lon="2.29072">
        <ele>77.8</ele>
        <time>2015-05-11T18:40:40.626Z</time>
      </trkpt>
      <trkpt lat="48.85742" lon="2.29065">
        <ele>77.7</ele>
        <time>2015-05-11T18:40:41.633Z</time>
      </trkpt>
      <trkpt lat="48.85737" lon="2.29057">
        <ele>77.5</ele>
        <time>2015-05-11T18:40:42.640Z</time>
      </trkpt>
      <trkpt lat="48.85733" lon="2.29049">
        <ele>77.4</ele>
        <time>2015-05-11T18:40:43.565Z</time>
      </trkpt>
      <trkpt lat="48.85729" lon="2.2904">
        <ele>77.4</ele>
        <time>2015-05-11T18:40:44.586Z</time>
      </trkpt>
      <trkpt lat="48.85725" lon="2.29032">
        <ele>77.3</ele>
        <time>2015-05-11T18:40:45.604Z</time>
      </trkpt>
      <trkpt lat="48.85721" lon="2.29024">
        <ele>77.1</ele>
        <time>2015-05-11T18:40:46.613Z</time>
      </trkpt>
      <trkpt lat="48.85716" lon="2.29019">
        <ele>76.8</ele>
        <time>2015-05-11T18:40:47.626Z</time>
      </trkpt>
      <trkpt lat="48.85712" lon="2.29011">
        <ele>76.7</ele>
        <time>2015-05-11T18:40:48.635Z</time>
      </trkpt>
      <trkpt lat="48.85708" lon="2.29004">
        <ele>76.8</ele>
        <time>2015-05-11T18:40:49.649Z</time>
      </trkpt>
      <trkpt lat="48.85705" lon="2.28998">
        <ele>76.9</ele>
        <time>2015-05-11T18:40:50.550Z</time>
      </trkpt>
      <trkpt lat="48.85702" lon="2.28991">
        <ele>76.9</ele>
        <time>2015-05-11T18:40:51.578Z</time>
      </trkpt>
      <trkpt lat="48.85698" lon="2.28985">
        <ele>77</ele>
        <time>2015-05-11T18:40:52.586Z</time>
      </trkpt>
      <trkpt lat="48.85692" lon="2.2898">
        <ele>77.5</ele>
        <time>2015-05-11T18:40:54.694Z</time>
      </trkpt>
      <trkpt lat="48.85689" lon="2.28977">
        <ele>77.7</ele>
        <time>2015-05-11T18:40:55.578Z</time>
      </trkpt>
      <trkpt lat="48.85681" lon="2.28971">
        <ele>78</ele>
        <time>2015-05-11T18:40:57.560Z</time>
      </trkpt>
      <trkpt lat="48.85677" lon="2.28969">
        <ele>78.2</ele>
        <time>2015-05-11T18:40:58.560Z</time>
      </trkpt>
      <trkpt lat="48.85671" lon="2.28962">
        <ele>78.5</ele>
        <time>2015-05-11T18:41:00.654Z</time>
      </trkpt>
      <trkpt lat="48.85668" lon="2.2896">
        <ele>78.6</ele>
        <time>2015-05-11T18:41:01.671Z</time>
      </trkpt>
      <trkpt lat="48.85661" lon="2.28953">
        <ele>79</ele>
        <time>2015-05-11T18:41:04.606Z</time>
      </trkpt>
      <trkpt lat="48.85659" lon="2.2895">
        <ele>79.2</ele>
        <time>2015-05-11T18:41:05.622Z</time>
      </trkpt>
      <trkpt lat="48.85653" lon="2.28943">
        <ele>79.7</ele>
        <time>2015-05-11T18:41:07.629Z</time>
      </trkpt>
      <trkpt lat="48.8565" lon="2.28939">
        <ele>80</ele>
        <time>2015-05-11T18:41:08.688Z</time>
      </trkpt>
      <trkpt lat="48.85644" lon="2.28932">
        <ele>80.6</ele>
        <time>2015-05-11T18:41:10.568Z</time>
      </trkpt>
      <trkpt lat="48.8564" lon="2.28928">
        <ele>80.8</ele>
        <time>2015-05-11T18:41:11.590Z</time>
      </trkpt>
      <trkpt lat="48.85632" lon="2.28924">
        <ele>81</ele>
        <time>2015-05-11T18:41:13.623Z</time>
      </trkpt>
      <trkpt lat="48.85628" lon="2.28922">
        <ele>81.2</ele>
        <time>2015-05-11T18:41:14.591Z</time>
      </trkpt>
      <trkpt lat="48.85623" lon="2.28921">
        <ele>81.4</ele>
        <time>2015-05-11T18:41:15.598Z</time>
      </trkpt>
      <trkpt lat="48.85618" lon="2.28919">
        <ele>82.3</ele>
        <time>2015-05-11T18:41:16.602Z</time>
      </trkpt>
      <trkpt lat="48.85613" lon="2.28918">
        <ele>82.8</ele>
        <time>2015-05-11T18:41:17.616Z</time>
      </trkpt>
      <trkpt lat="48.85606" lon="2.28915">
        <ele>82.1</ele>
        <time>2015-05-11T18:41:18.631Z</time>
      </trkpt>
      <trkpt lat="48.85597" lon="2.28909">
        <ele>81</ele>
        <time>2015-05-11T18:41:19.648Z</time>
      </trkpt>
      <trkpt lat="48.85588" lon="2.28903">
        <ele>80.4</ele>
        <time>2015-05-11T18:41:20.656Z</time>
      </trkpt>
      <trkpt lat="48.85577" lon="2.28898">
        <ele>80.5</ele>
        <time>2015-05-11T18:41:21.664Z</time>
      </trkpt>
      <trkpt lat="48.85566" lon="2.28895">
        <ele>81.2</ele>
        <time>2015-05-11T18:41:22.553Z</time>
      </trkpt>
      <trkpt lat="48.85557" lon="2.28893">
        <ele>81.6</ele>
        <time>2015-05-11T18:41:23.612Z</time>
      </trkpt>
      <trkpt lat="48.85548" lon="2.28892">
        <ele>82.1</ele>
        <time>2015-05-11T18:41:24.647Z</time>
      </trkpt>
      <trkpt lat="48.85538" lon="2.28893">
        <ele>83.4</ele>
        <time>2015-05-11T18:41:25.647Z</time>
      </trkpt>
      <trkpt lat="48.85529" lon="2.28893">
        <ele>84.6</ele>
        <time>2015-05-11T18:41:26.656Z</time>
      </trkpt>
      <trkpt lat="48.8552" lon="2.28893">
        <ele>86</ele>
        <time>2015-05-11T18:41:27.666Z</time>
      </trkpt>
      <trkpt lat="48.85511" lon="2.28894">
        <ele>87.3</ele>
        <time>2015-05-11T18:41:28.773Z</time>
      </trkpt>
      <trkpt lat="48.85506" lon="2.28893">
        <ele>87.5</ele>
        <time>2015-05-11T18:41:29.628Z</time>
      </trkpt>
      <trkpt lat="48.85498" lon="2.28891">
        <ele>86.8</ele>
        <time>2015-05-11T18:41:31.648Z</time>
      </trkpt>
      <trkpt lat="48.85496" lon="2.28889">
        <ele>86.6</ele>
        <time>2015-05-11T18:41:32.580Z</time>
      </trkpt>
      <trkpt lat="48.85488" lon="2.28886">
        <ele>85.8</ele>
        <time>2015-05-11T18:41:35.673Z</time>
      </trkpt>
      <trkpt lat="48.85485" lon="2.28885">
        <ele>85.9</ele>
        <time>2015-05-11T18:41:36.611Z</time>
      </trkpt>
      <trkpt lat="48.85479" lon="2.28881">
        <ele>85.9</ele>
        <time>2015-05-11T18:41:38.607Z</time>
      </trkpt>
      <trkpt lat="48.85476" lon="2.28878">
        <ele>85.8</ele>
        <time>2015-05-11T18:41:39.662Z</time>
      </trkpt>
      <trkpt lat="48.8547" lon="2.28873">
        <ele>86.3</ele>
        <time>2015-05-11T18:41:41.552Z</time>
      </trkpt>
      <trkpt lat="48.85467" lon="2.28871">
        <ele>86.4</ele>
        <time>2015-05-11T18:41:42.640Z</time>
      </trkpt>
      <trkpt lat="48.85461" lon="2.28865">
        <ele>86.8</ele>
        <time>2015-05-11T18:41:44.580Z</time>
      </trkpt>
      <trkpt lat="48.85458" lon="2.28862">
        <ele>86.9</ele>
        <time>2015-05-11T18:41:45.588Z</time>
      </trkpt>
      <trkpt lat="48.85452" lon="2.28856">
        <ele>86.9</ele>
        <time>2015-05-11T18:41:47.630Z</time>
      </trkpt>
      <trkpt lat="48.85449" lon="2.28854">
        <ele>86.9</ele>
        <time>2015-05-11T18:41:48.631Z</time>
      </trkpt>
      <trkpt lat="48.85445" lon="2.28849">
        <ele>87</ele>
        <time>2015-05-11T18:41:49.661Z</time>
      </trkpt>
      <trkpt lat="48.8544" lon="2.28845">
        <ele>87.7</ele>
        <time>2015-05-11T18:41:50.583Z</time>
      </trkpt>
      <trkpt lat="48.85436" lon="2.28841">
        <ele>87.8</ele>
        <time>2015-05-11T18:41:51.581Z</time>
      </trkpt>
      <trkpt lat="48.85431" lon="2.28837">
        <ele>87.8</ele>
        <time>2015-05-11T18:41:52.583Z</time>
      </trkpt>
      <trkpt lat="48.85426" lon="2.28834">
        <ele>87.7</ele>
        <time>2015-05-11T18:41:53.613Z</time>
      </trkpt>
      <trkpt lat="48.8542" lon="2.2883">
        <ele>87.6</ele>
        <time>2015-05-11T18:41:54.629Z</time>
      </trkpt>
      <trkpt lat="48.85414" lon="2.28826">
        <ele>87.6</ele>
        <time>2015-05-11T18:41:55.625Z</time>
      </trkpt>
      <trkpt lat="48.85408" lon="2.28819">
        <ele>87.5</ele>
        <time>2015-05-11T18:41:56.635Z</time>
      </trkpt>
      <trkpt lat="48.85403" lon="2.28812">
        <ele>87.3</ele>
        <time>2015-05-11T18:41:57.663Z</time>
      </trkpt>
      <trkpt lat="48.85397" lon="2.28805">
        <ele>87.3</ele>
        <time>2015-05-11T18:41:58.602Z</time>
      </trkpt>
      <trkpt lat="48.85391" lon="2.28798">
        <ele>86.9</ele>
        <time>2015-05-11T18:41:59.576Z</time>
      </trkpt>
      <trkpt lat="48.85384" lon="2.2879">
        <ele>86.2</ele>
        <time>2015-05-11T18:42:00.769Z</time>
      </trkpt>
      <trkpt lat="48.85378" lon="2.28781">
        <ele>86</ele>
        <time>2015-05-11T18:42:01.601Z</time>
      </trkpt>
      <trkpt lat="48.85373" lon="2.28773">
        <ele>85.7</ele>
        <time>2015-05-11T18:42:02.627Z</time>
      </trkpt>
      <trkpt lat="48.85368" lon="2.28763">
        <ele>84.8</ele>
        <time>2015-05-11T18:42:03.644Z</time>
      </trkpt>
      <trkpt lat="48.85362" lon="2.28755">
        <ele>84.6</ele>
        <time>2015-05-11T18:42:04.660Z</time>
      </trkpt>
      <trkpt lat="48.85357" lon="2.28748">
        <ele>84.3</ele>
        <time>2015-05-11T18:42:05.584Z</time>
      </trkpt>
      <trkpt lat="48.8535" lon="2.2874">
        <ele>84.4</ele>
        <time>2015-05-11T18:42:06.649Z</time>
      </trkpt>
      <trkpt lat="48.85344" lon="2.28731">
        <ele>84.6</ele>
        <time>2015-05-11T18:42:07.670Z</time>
      </trkpt>
      <trkpt lat="48.85332" lon="2.28716">
        <ele>84.8</ele>
        <time>2015-05-11T18:42:09.573Z</time>
      </trkpt>
      <trkpt lat="48.85325" lon="2.2871">
        <ele>84.8</ele>
        <time>2015-05-11T18:42:10.587Z</time>
      </trkpt>
      <trkpt lat="48.85319" lon="2.28702">
        <ele>84.7</ele>
        <time>2015-05-11T18:42:11.593Z</time>
      </trkpt>
      <trkpt lat="48.85314" lon="2.28695">
        <ele>84.7</ele>
        <time>2015-05-11T18:42:12.634Z</time>
      </trkpt>
      <trkpt lat="48.85309" lon="2.2869">
        <ele>84.2</ele>
        <time>2015-05-11T18:42:13.638Z</time>
      </trkpt>
      <trkpt lat="48.85304" lon="2.28684">
        <ele>83.5</ele>
        <time>2015-05-11T18:42:14.650Z</time>
      </trkpt>
      <trkpt lat="48.85299" lon="2.2868">
        <ele>83</ele>
        <time>2015-05-11T18:42:15.546Z</time>
      </trkpt>
      <trkpt lat="48.85294" lon="2.28675">
        <ele>82.5</ele>
        <time>2015-05-11T18:42:16.564Z</time>
      </trkpt>
      <trkpt lat="48.85289" lon="2.28671">
        <ele>81.5</ele>
        <time>2015-05-11T18:42:17.590Z</time>
      </trkpt>
      <trkpt lat="48.85285" lon="2.28665">
        <ele>80.7</ele>
        <time>2015-05-11T18:42:18.612Z</time>
      </trkpt>
      <trkpt lat="48.8528" lon="2.28658">
        <ele>80.5</ele>
        <time>2015-05-11T18:42:19.616Z</time>
      </trkpt>
      <trkpt lat="48.85275" lon="2.28651">
        <ele>79.9</ele>
        <time>2015-05-11T18:42:20.635Z</time>
      </trkpt>
      <trkpt lat="48.85271" lon="2.28645">
        <ele>79.3</ele>
        <time>2015-05-11T18:42:21.639Z</time>
      </trkpt>
      <trkpt lat="48.85266" lon="2.28639">
        <ele>78.9</ele>
        <time>2015-05-11T18:42:22.576Z</time>
      </trkpt>
      <trkpt lat="48.85261" lon="2.28634">
        <ele>78.3</ele>
        <time>2015-05-11T18:42:23.594Z</time>
      </trkpt>
      <trkpt lat="48.85254" lon="2.28632">
        <ele>77.4</ele>
        <time>2015-05-11T18:42:24.632Z</time>
      </trkpt>
      <trkpt lat="48.85246" lon="2.28629">
        <ele>76.7</ele>
        <time>2015-05-11T18:42:25.643Z</time>
      </trkpt>
      <trkpt lat="48.85239" lon="2.28626">
        <ele>76.7</ele>
        <time>2015-05-11T18:42:26.577Z</time>
      </trkpt>
      <trkpt lat="48.85233" lon="2.28622">
        <ele>76.9</ele>
        <time>2015-05-11T18:42:27.590Z</time>
      </trkpt>
      <trkpt lat="48.85227" lon="2.28616">
        <ele>77.6</ele>
        <time>2015-05-11T18:42:28.565Z</time>
      </trkpt>
      <trkpt lat="48.85221" lon="2.28611">
        <ele>78.2</ele>
        <time>2015-05-11T18:42:29.611Z</time>
      </trkpt>
      <trkpt lat="48.85216" lon="2.28604">
        <ele>79.8</ele>
        <time>2015-05-11T18:42:30.625Z</time>
      </trkpt>
      <trkpt lat="48.85211" lon="2.28598">
        <ele>81.1</ele>
        <time>2015-05-11T18:42:31.631Z</time>
      </trkpt>
      <trkpt lat="48.85206" lon="2.28591">
        <ele>82.1</ele>
        <time>2015-05-11T18:42:32.636Z</time>
      </trkpt>
      <trkpt lat="48.85202" lon="2.28585">
        <ele>82.3</ele>
        <time>2015-05-11T18:42:33.643Z</time>
      </trkpt>
      <trkpt lat="48.85194" lon="2.28571">
        <ele>81.6</ele>
        <time>2015-05-11T18:42:35.574Z</time>
      </trkpt>
      <trkpt lat="48.85189" lon="2.28567">
        <ele>81.5</ele>
        <time>2015-05-11T18:42:36.624Z</time>
      </trkpt>
      <trkpt lat="48.85184" lon="2.28561">
        <ele>81.3</ele>
        <time>2015-05-11T18:42:37.621Z</time>
      </trkpt>
      <trkpt lat="48.8518" lon="2.28556">
        <ele>81.2</ele>
        <time>2015-05-11T18:42:38.642Z</time>
      </trkpt>
      <trkpt lat="48.85176" lon="2.28552">
        <ele>81.4</ele>
        <time>2015-05-11T18:42:39.653Z</time>
      </trkpt>
      <trkpt lat="48.85172" lon="2.28547">
        <ele>81.9</ele>
        <time>2015-05-11T18:42:40.572Z</time>
      </trkpt>
      <trkpt lat="48.85168" lon="2.28543">
        <ele>81.9</ele>
        <time>2015-05-11T18:42:41.576Z</time>
      </trkpt>
      <trkpt lat="48.85164" lon="2.28537">
        <ele>82.1</ele>
        <time>2015-05-11T18:42:42.617Z</time>
      </trkpt>
      <trkpt lat="48.85161" lon="2.28531">
        <ele>81.7</ele>
        <time>2015-05-11T18:42:43.619Z</time>
      </trkpt>
      <trkpt lat="48.85158" lon="2.28524">
        <ele>81</ele>
        <time>2015-05-11T18:42:44.572Z</time>
      </trkpt>
      <trkpt lat="48.85155" lon="2.28517">
        <ele>81</ele>
        <time>2015-05-11T18:42:45.579Z</time>
      </trkpt>
      <trkpt lat="48.85152" lon="2.2851">
        <ele>81.1</ele>
        <time>2015-05-11T18:42:46.588Z</time>
      </trkpt>
      <trkpt lat="48.85149" lon="2.28502">
        <ele>81.2</ele>
        <time>2015-05-11T18:42:47.596Z</time>
      </trkpt>
      <trkpt lat="48.85146" lon="2.28494">
        <ele>80.8</ele>
        <time>2015-05-11T18:42:48.617Z</time>
      </trkpt>
      <trkpt lat="48.85142" lon="2.28487">
        <ele>80.3</ele>
        <time>2015-05-11T18:42:49.620Z</time>
      </trkpt>
      <trkpt lat="48.8514" lon="2.28478">
        <ele>80</ele>
        <time>2015-05-11T18:42:50.619Z</time>
      </trkpt>
      <trkpt lat="48.85137" lon="2.28468">
        <ele>80.1</ele>
        <time>2015-05-11T18:42:51.650Z</time>
      </trkpt>
      <trkpt lat="48.85134" lon="2.2846">
        <ele>80.1</ele>
        <time>2015-05-11T18:42:52.655Z</time>
      </trkpt>
      <trkpt lat="48.85131" lon="2.28451">
        <ele>79.8</ele>
        <time>2015-05-11T18:42:53.572Z</time>
      </trkpt>
      <trkpt lat="48.85127" lon="2.28441">
        <ele>79.1</ele>
        <time>2015-05-11T18:42:54.685Z</time>
      </trkpt>
      <trkpt lat="48.85124" lon="2.28433">
        <ele>78.9</ele>
        <time>2015-05-11T18:42:55.578Z</time>
      </trkpt>
      <trkpt lat="48.8512" lon="2.28426">
        <ele>78.6</ele>
        <time>2015-05-11T18:42:56.583Z</time>
      </trkpt>
      <trkpt lat="48.85115" lon="2.28419">
        <ele>78</ele>
        <time>2015-05-11T18:42:57.612Z</time>
      </trkpt>
      <trkpt lat="48.85109" lon="2.28412">
        <ele>77.6</ele>
        <time>2015-05-11T18:42:58.570Z</time>
      </trkpt>
      <trkpt lat="48.85103" lon="2.28405">
        <ele>77.7</ele>
        <time>2015-05-11T18:42:59.589Z</time>
      </trkpt>
      <trkpt lat="48.85098" lon="2.28397">
        <ele>77.3</ele>
        <time>2015-05-11T18:43:00.612Z</time>
      </trkpt>
      <trkpt lat="48.85093" lon="2.28389">
        <ele>77.1</ele>
        <time>2015-05-11T18:43:01.620Z</time>
      </trkpt>
      <trkpt lat="48.85087" lon="2.28383">
        <ele>77.5</ele>
        <time>2015-05-11T18:43:02.628Z</time>
      </trkpt>
      <trkpt lat="48.85082" lon="2.28376">
        <ele>77.7</ele>
        <time>2015-05-11T18:43:03.633Z</time>
      </trkpt>
      <trkpt lat="48.85076" lon="2.28371">
        <ele>77.6</ele>
        <time>2015-05-11T18:43:04.645Z</time>
      </trkpt>
      <trkpt lat="48.85071" lon="2.28365">
        <ele>78</ele>
        <time>2015-05-11T18:43:05.559Z</time>
      </trkpt>
      <trkpt lat="48.85066" lon="2.28359">
        <ele>78.4</ele>
        <time>2015-05-11T18:43:06.601Z</time>
      </trkpt>
      <trkpt lat="48.85061" lon="2.28351">
        <ele>78.2</ele>
        <time>2015-05-11T18:43:07.602Z</time>
      </trkpt>
      <trkpt lat="48.85057" lon="2.28344">
        <ele>78.2</ele>
        <time>2015-05-11T18:43:08.633Z</time>
      </trkpt>
      <trkpt lat="48.85052" lon="2.28337">
        <ele>78.3</ele>
        <time>2015-05-11T18:43:09.652Z</time>
      </trkpt>
      <trkpt lat="48.85047" lon="2.28332">
        <ele>78.7</ele>
        <time>2015-05-11T18:43:10.664Z</time>
      </trkpt>
      <trkpt lat="48.85042" lon="2.28327">
        <ele>78.9</ele>
        <time>2015-05-11T18:43:11.597Z</time>
      </trkpt>
      <trkpt lat="48.85036" lon="2.28323">
        <ele>79</ele>
        <time>2015-05-11T18:43:12.649Z</time>
      </trkpt>
      <trkpt lat="48.85031" lon="2.28317">
        <ele>79</ele>
        <time>2015-05-11T18:43:13.571Z</time>
      </trkpt>
      <trkpt lat="48.85027" lon="2.28311">
        <ele>78.6</ele>
        <time>2015-05-11T18:43:14.569Z</time>
      </trkpt>
      <trkpt lat="48.85022" lon="2.28306">
        <ele>79</ele>
        <time>2015-05-11T18:43:15.578Z</time>
      </trkpt>
      <trkpt lat="48.85017" lon="2.28301">
        <ele>79.3</ele>
        <time>2015-05-11T18:43:16.595Z</time>
      </trkpt>
      <trkpt lat="48.85012" lon="2.28296">
        <ele>79.2</ele>
        <time>2015-05-11T18:43:17.604Z</time>
      </trkpt>
      <trkpt lat="48.85007" lon="2.28292">
        <ele>79.4</ele>
        <time>2015-05-11T18:43:18.629Z</time>
      </trkpt>
      <trkpt lat="48.85002" lon="2.28287">
        <ele>79.6</ele>
        <time>2015-05-11T18:43:19.636Z</time>
      </trkpt>
      <trkpt lat="48.84997" lon="2.28282">
        <ele>80</ele>
        <time>2015-05-11T18:43:20.650Z</time>
      </trkpt>
      <trkpt lat="48.84992" lon="2.28279">
        <ele>80.9</ele>
        <time>2015-05-11T18:43:21.654Z</time>
      </trkpt>
      <trkpt lat="48.84988" lon="2.28276">
        <ele>81.4</ele>
        <time>2015-05-11T18:43:22.659Z</time>
      </trkpt>
      <trkpt lat="48.84984" lon="2.28271">
        <ele>81.9</ele>
        <time>2015-05-11T18:43:23.670Z</time>
      </trkpt>
      <trkpt lat="48.8498" lon="2.28265">
        <ele>83.1</ele>
        <time>2015-05-11T18:43:24.685Z</time>
      </trkpt>
      <trkpt lat="48.84976" lon="2.2826">
        <ele>83.7</ele>
        <time>2015-05-11T18:43:25.585Z</time>
      </trkpt>
      <trkpt lat="48.84972" lon="2.28254">
        <ele>84.1</ele>
        <time>2015-05-11T18:43:26.609Z</time>
      </trkpt>
      <trkpt lat="48.84968" lon="2.28248">
        <ele>84.4</ele>
        <time>2015-05-11T18:43:27.622Z</time>
      </trkpt>
      <trkpt lat="48.84963" lon="2.28243">
        <ele>84.8</ele>
        <time>2015-05-11T18:43:28.631Z</time>
      </trkpt>
      <trkpt lat="48.84959" lon="2.28236">
        <ele>84.9</ele>
        <time>2015-05-11T18:43:29.643Z</time>
      </trkpt>
      <trkpt lat="48.84955" lon="2.2823">
        <ele>85.3</ele>
        <time>2015-05-11T18:43:30.649Z</time>
      </trkpt>
      <trkpt lat="48.84951" lon="2.28223">
        <ele>86.1</ele>
        <time>2015-05-11T18:43:31.658Z</time>
      </trkpt>
      <trkpt lat="48.84947" lon="2.28218">
        <ele>86.9</ele>
        <time>2015-05-11T18:43:32.594Z</time>
      </trkpt>
      <trkpt lat="48.84945" lon="2.28212">
        <ele>88.4</ele>
        <time>2015-05-11T18:43:33.585Z</time>
      </trkpt>
      <trkpt lat="48.84944" lon="2.28203">
        <ele>88.8</ele>
        <time>2015-05-11T18:43:34.593Z</time>
      </trkpt>
      <trkpt lat="48.84944" lon="2.28198">
        <ele>89.2</ele>
        <time>2015-05-11T18:43:35.608Z</time>
      </trkpt>
      <trkpt lat="48.84942" lon="2.28185">
        <ele>89.6</ele>
        <time>2015-05-11T18:43:37.751Z</time>
      </trkpt>
      <trkpt lat="48.84941" lon="2.2818">
        <ele>89.6</ele>
        <time>2015-05-11T18:43:38.658Z</time>
      </trkpt>
      <trkpt lat="48.84939" lon="2.28167">
        <ele>90.7</ele>
        <time>2015-05-11T18:43:41.611Z</time>
      </trkpt>
      <trkpt lat="48.84941" lon="2.2816">
        <ele>90.9</ele>
        <time>2015-05-11T18:43:42.695Z</time>
      </trkpt>
      <trkpt lat="48.84946" lon="2.28152">
        <ele>90.4</ele>
        <time>2015-05-11T18:43:44.603Z</time>
      </trkpt>
      <trkpt lat="48.84948" lon="2.28147">
        <ele>90.4</ele>
        <time>2015-05-11T18:43:45.626Z</time>
      </trkpt>
      <trkpt lat="48.84951" lon="2.28142">
        <ele>90.1</ele>
        <time>2015-05-11T18:43:46.681Z</time>
      </trkpt>
      <trkpt lat="48.84954" lon="2.28137">
        <ele>90.3</ele>
        <time>2015-05-11T18:43:47.566Z</time>
      </trkpt>
      <trkpt lat="48.84957" lon="2.28132">
        <ele>90.7</ele>
        <time>2015-05-11T18:43:48.617Z</time>
      </trkpt>
      <trkpt lat="48.84959" lon="2.28126">
        <ele>90.8</ele>
        <time>2015-05-11T18:43:49.617Z</time>
      </trkpt>
      <trkpt lat="48.84966" lon="2.28116">
        <ele>90.4</ele>
        <time>2015-05-11T18:43:51.640Z</time>
      </trkpt>
      <trkpt lat="48.84969" lon="2.28112">
        <ele>90.3</ele>
        <time>2015-05-11T18:43:52.661Z</time>
      </trkpt>
      <trkpt lat="48.84975" lon="2.28102">
        <ele>90.2</ele>
        <time>2015-05-11T18:43:54.614Z</time>
      </trkpt>
      <trkpt lat="48.84978" lon="2.28097">
        <ele>90</ele>
        <time>2015-05-11T18:43:55.662Z</time>
      </trkpt>
      <trkpt lat="48.84983" lon="2.28086">
        <ele>89.4</ele>
        <time>2015-05-11T18:43:57.567Z</time>
      </trkpt>
      <trkpt lat="48.84985" lon="2.2808">
        <ele>89.4</ele>
        <time>2015-05-11T18:43:58.591Z</time>
      </trkpt>
      <trkpt lat="48.84987" lon="2.28073">
        <ele>89.4</ele>
        <time>2015-05-11T18:43:59.637Z</time>
      </trkpt>
      <trkpt lat="48.8499" lon="2.28067">
        <ele>89.5</ele>
        <time>2015-05-11T18:44:00.676Z</time>
      </trkpt>
      <trkpt lat="48.84995" lon="2.28057">
        <ele>89.5</ele>
        <time>2015-05-11T18:44:02.586Z</time>
      </trkpt>
      <trkpt lat="48.84999" lon="2.28051">
        <ele>89.3</ele>
        <time>2015-05-11T18:44:03.611Z</time>
      </trkpt>
      <trkpt lat="48.85002" lon="2.28045">
        <ele>89</ele>
        <time>2015-05-11T18:44:04.589Z</time>
      </trkpt>
      <trkpt lat="48.85006" lon="2.28039">
        <ele>88.7</ele>
        <time>2015-05-11T18:44:05.587Z</time>
      </trkpt>
      <trkpt lat="48.85009" lon="2.28035">
        <ele>88.5</ele>
        <time>2015-05-11T18:44:06.641Z</time>
      </trkpt>
      <trkpt lat="48.85013" lon="2.28029">
        <ele>88</ele>
        <time>2015-05-11T18:44:07.651Z</time>
      </trkpt>
      <trkpt lat="48.85016" lon="2.28025">
        <ele>88</ele>
        <time>2015-05-11T18:44:08.662Z</time>
      </trkpt>
      <trkpt lat="48.85019" lon="2.2802">
        <ele>87.9</ele>
        <time>2015-05-11T18:44:09.668Z</time>
      </trkpt>
      <trkpt lat="48.85023" lon="2.28015">
        <ele>87.6</ele>
        <time>2015-05-11T18:44:10.684Z</time>
      </trkpt>
      <trkpt lat="48.85026" lon="2.2801">
        <ele>87.4</ele>
        <time>2015-05-11T18:44:11.597Z</time>
      </trkpt>
      <trkpt lat="48.8503" lon="2.28005">
        <ele>87.4</ele>
        <time>2015-05-11T18:44:12.670Z</time>
      </trkpt>
      <trkpt lat="48.85034" lon="2.27999">
        <ele>87.3</ele>
        <time>2015-05-11T18:44:13.644Z</time>
      </trkpt>
      <trkpt lat="48.85037" lon="2.27994">
        <ele>87.1</ele>
        <time>2015-05-11T18:44:14.687Z</time>
      </trkpt>
      <trkpt lat="48.85041" lon="2.27988">
        <ele>86.8</ele>
        <time>2015-05-11T18:44:15.596Z</time>
      </trkpt>
      <trkpt lat="48.85045" lon="2.27982">
        <ele>86.6</ele>
        <time>2015-05-11T18:44:16.607Z</time>
      </trkpt>
      <trkpt lat="48.85049" lon="2.27976">
        <ele>86.7</ele>
        <time>2015-05-11T18:44:17.618Z</time>
      </trkpt>
      <trkpt lat="48.85052" lon="2.27971">
        <ele>86.5</ele>
        <time>2015-05-11T18:44:18.675Z</time>
      </trkpt>
      <trkpt lat="48.85056" lon="2.27965">
        <ele>86.1</ele>
        <time>2015-05-11T18:44:19.674Z</time>
      </trkpt>
      <trkpt lat="48.8506" lon="2.27959">
        <ele>85.8</ele>
        <time>2015-05-11T18:44:20.613Z</time>
      </trkpt>
      <trkpt lat="48.85064" lon="2.27953">
        <ele>85.6</ele>
        <time>2015-05-11T18:44:21.619Z</time>
      </trkpt>
      <trkpt lat="48.85068" lon="2.27946">
        <ele>85.3</ele>
        <time>2015-05-11T18:44:22.630Z</time>
      </trkpt>
      <trkpt lat="48.85072" lon="2.2794">
        <ele>85</ele>
        <time>2015-05-11T18:44:23.672Z</time>
      </trkpt>
      <trkpt lat="48.85076" lon="2.27934">
        <ele>84.7</ele>
        <time>2015-05-11T18:44:24.683Z</time>
      </trkpt>
      <trkpt lat="48.85081" lon="2.27928">
        <ele>84.7</ele>
        <time>2015-05-11T18:44:25.706Z</time>
      </trkpt>
      <trkpt lat="48.85085" lon="2.27922">
        <ele>84.7</ele>
        <time>2015-05-11T18:44:26.578Z</time>
      </trkpt>
      <trkpt lat="48.85088" lon="2.27916">
        <ele>84.7</ele>
        <time>2015-05-11T18:44:27.623Z</time>
      </trkpt>
      <trkpt lat="48.85092" lon="2.2791">
        <ele>85.3</ele>
        <time>2015-05-11T18:44:28.639Z</time>
      </trkpt>
      <trkpt lat="48.85095" lon="2.27903">
        <ele>86.3</ele>
        <time>2015-05-11T18:44:29.654Z</time>
      </trkpt>
      <trkpt lat="48.85097" lon="2.27897">
        <ele>87.3</ele>
        <time>2015-05-11T18:44:30.669Z</time>
      </trkpt>
      <trkpt lat="48.851" lon="2.27891">
        <ele>88</ele>
        <time>2015-05-11T18:44:31.687Z</time>
      </trkpt>
      <trkpt lat="48.85104" lon="2.27886">
        <ele>88.4</ele>
        <time>2015-05-11T18:44:32.664Z</time>
      </trkpt>
      <trkpt lat="48.85107" lon="2.27881">
        <ele>88.7</ele>
        <time>2015-05-11T18:44:33.615Z</time>
      </trkpt>
      <trkpt lat="48.85111" lon="2.27877">
        <ele>88.9</ele>
        <time>2015-05-11T18:44:34.595Z</time>
      </trkpt>
      <trkpt lat="48.85115" lon="2.27873">
        <ele>89.1</ele>
        <time>2015-05-11T18:44:35.607Z</time>
      </trkpt>
      <trkpt lat="48.8512" lon="2.2787">
        <ele>89.7</ele>
        <time>2015-05-11T18:44:36.669Z</time>
      </trkpt>
      <trkpt lat="48.85123" lon="2.27866">
        <ele>89.7</ele>
        <time>2015-05-11T18:44:37.657Z</time>
      </trkpt>
      <trkpt lat="48.85129" lon="2.27855">
        <ele>89.8</ele>
        <time>2015-05-11T18:44:39.626Z</time>
      </trkpt>
      <trkpt lat="48.85131" lon="2.27851">
        <ele>89.9</ele>
        <time>2015-05-11T18:44:40.602Z</time>
      </trkpt>
      <trkpt lat="48.85127" lon="2.27843">
        <ele>90.4</ele>
        <time>2015-05-11T18:44:45.612Z</time>
      </trkpt>
      <trkpt lat="48.85125" lon="2.27841">
        <ele>90.6</ele>
        <time>2015-05-11T18:44:46.626Z</time>
      </trkpt>
      <trkpt lat="48.85121" lon="2.27834">
        <ele>90.5</ele>
        <time>2015-05-11T18:44:48.657Z</time>
      </trkpt>
      <trkpt lat="48.85117" lon="2.27832">
        <ele>90.4</ele>
        <time>2015-05-11T18:44:49.652Z</time>
      </trkpt>
      <trkpt lat="48.85109" lon="2.27827">
        <ele>90.3</ele>
        <time>2015-05-11T18:44:51.581Z</time>
      </trkpt>
      <trkpt lat="48.85106" lon="2.27824">
        <ele>90.3</ele>
        <time>2015-05-11T18:44:52.597Z</time>
      </trkpt>
      <trkpt lat="48.85102" lon="2.2782">
        <ele>90.7</ele>
        <time>2015-05-11T18:44:53.603Z</time>
      </trkpt>
      <trkpt lat="48.85097" lon="2.27816">
        <ele>90.8</ele>
        <time>2015-05-11T18:44:54.648Z</time>
      </trkpt>
      <trkpt lat="48.85093" lon="2.27811">
        <ele>91.1</ele>
        <time>2015-05-11T18:44:55.638Z</time>
      </trkpt>
      <trkpt lat="48.85089" lon="2.27806">
        <ele>91.3</ele>
        <time>2015-05-11T18:44:56.655Z</time>
      </trkpt>
      <trkpt lat="48.85086" lon="2.27802">
        <ele>91.4</ele>
        <time>2015-05-11T18:44:57.563Z</time>
      </trkpt>
      <trkpt lat="48.85083" lon="2.27797">
        <ele>91.5</ele>
        <time>2015-05-11T18:44:58.602Z</time>
      </trkpt>
      <trkpt lat="48.8508" lon="2.27789">
        <ele>91.6</ele>
        <time>2015-05-11T18:44:59.612Z</time>
      </trkpt>
      <trkpt lat="48.85078" lon="2.27781">
        <ele>91.5</ele>
        <time>2015-05-11T18:45:00.641Z</time>
      </trkpt>
      <trkpt lat="48.85076" lon="2.27773">
        <ele>91.4</ele>
        <time>2015-05-11T18:45:01.669Z</time>
      </trkpt>
      <trkpt lat="48.85073" lon="2.27764">
        <ele>91.3</ele>
        <time>2015-05-11T18:45:02.615Z</time>
      </trkpt>
      <trkpt lat="48.85071" lon="2.27757">
        <ele>91.1</ele>
        <time>2015-05-11T18:45:03.810Z</time>
      </trkpt>
      <trkpt lat="48.85069" lon="2.27751">
        <ele>91</ele>
        <time>2015-05-11T18:45:04.596Z</time>
      </trkpt>
      <trkpt lat="48.85067" lon="2.27744">
        <ele>90.8</ele>
        <time>2015-05-11T18:45:05.609Z</time>
      </trkpt>
      <trkpt lat="48.85065" lon="2.27738">
        <ele>90.4</ele>
        <time>2015-05-11T18:45:06.628Z</time>
      </trkpt>
      <trkpt lat="48.85063" lon="2.27731">
        <ele>90.1</ele>
        <time>2015-05-11T18:45:07.642Z</time>
      </trkpt>
      <trkpt lat="48.85059" lon="2.27724">
        <ele>89.9</ele>
        <time>2015-05-11T18:45:08.648Z</time>
      </trkpt>
      <trkpt lat="48.85055" lon="2.27718">
        <ele>89.9</ele>
        <time>2015-05-11T18:45:09.657Z</time>
      </trkpt>
      <trkpt lat="48.85051" lon="2.27711">
        <ele>89.8</ele>
        <time>2015-05-11T18:45:10.663Z</time>
      </trkpt>
      <trkpt lat="48.85046" lon="2.27704">
        <ele>89.7</ele>
        <time>2015-05-11T18:45:11.581Z</time>
      </trkpt>
      <trkpt lat="48.85041" lon="2.27698">
        <ele>89.5</ele>
        <time>2015-05-11T18:45:12.691Z</time>
      </trkpt>
      <trkpt lat="48.85035" lon="2.27694">
        <ele>89.1</ele>
        <time>2015-05-11T18:45:13.580Z</time>
      </trkpt>
      <trkpt lat="48.8503" lon="2.2769">
        <ele>89.1</ele>
        <time>2015-05-11T18:45:14.598Z</time>
      </trkpt>
      <trkpt lat="48.85026" lon="2.27685">
        <ele>89.1</ele>
        <time>2015-05-11T18:45:15.613Z</time>
      </trkpt>
      <trkpt lat="48.85021" lon="2.27679">
        <ele>89</ele>
        <time>2015-05-11T18:45:16.614Z</time>
      </trkpt>
      <trkpt lat="48.85016" lon="2.2767">
        <ele>88.5</ele>
        <time>2015-05-11T18:45:17.622Z</time>
      </trkpt>
      <trkpt lat="48.85011" lon="2.27662">
        <ele>88.3</ele>
        <time>2015-05-11T18:45:18.632Z</time>
      </trkpt>
      <trkpt lat="48.85006" lon="2.27655">
        <ele>88.8</ele>
        <time>2015-05-11T18:45:19.638Z</time>
      </trkpt>
      <trkpt lat="48.84999" lon="2.2765">
        <ele>89.5</ele>
        <time>2015-05-11T18:45:20.649Z</time>
      </trkpt>
      <trkpt lat="48.84993" lon="2.27646">
        <ele>89.8</ele>
        <time>2015-05-11T18:45:21.570Z</time>
      </trkpt>
      <trkpt lat="48.84988" lon="2.27641">
        <ele>90</ele>
        <time>2015-05-11T18:45:22.585Z</time>
      </trkpt>
      <trkpt lat="48.84982" lon="2.27638">
        <ele>90.2</ele>
        <time>2015-05-11T18:45:23.609Z</time>
      </trkpt>
      <trkpt lat="48.84977" lon="2.27633">
        <ele>90.8</ele>
        <time>2015-05-11T18:45:24.616Z</time>
      </trkpt>
      <trkpt lat="48.84972" lon="2.27628">
        <ele>91.2</ele>
        <time>2015-05-11T18:45:25.627Z</time>
      </trkpt>
      <trkpt lat="48.84968" lon="2.27623">
        <ele>91.3</ele>
        <time>2015-05-11T18:45:26.644Z</time>
      </trkpt>
      <trkpt lat="48.84963" lon="2.27617">
        <ele>91.7</ele>
        <time>2015-05-11T18:45:27.560Z</time>
      </trkpt>
      <trkpt lat="48.84958" lon="2.2761">
        <ele>92</ele>
        <time>2015-05-11T18:45:28.567Z</time>
      </trkpt>
      <trkpt lat="48.84954" lon="2.27604">
        <ele>92.7</ele>
        <time>2015-05-11T18:45:29.572Z</time>
      </trkpt>
      <trkpt lat="48.8495" lon="2.27599">
        <ele>93.2</ele>
        <time>2015-05-11T18:45:30.602Z</time>
      </trkpt>
      <trkpt lat="48.84946" lon="2.27595">
        <ele>93.8</ele>
        <time>2015-05-11T18:45:31.604Z</time>
      </trkpt>
      <trkpt lat="48.84942" lon="2.27592">
        <ele>94</ele>
        <time>2015-05-11T18:45:32.622Z</time>
      </trkpt>
      <trkpt lat="48.84938" lon="2.27588">
        <ele>94.5</ele>
        <time>2015-05-11T18:45:33.633Z</time>
      </trkpt>
      <trkpt lat="48.84934" lon="2.27583">
        <ele>94.7</ele>
        <time>2015-05-11T18:45:34.523Z</time>
      </trkpt>
      <trkpt lat="48.8493" lon="2.27579">
        <ele>94.9</ele>
        <time>2015-05-11T18:45:35.557Z</time>
      </trkpt>
      <trkpt lat="48.84926" lon="2.27574">
        <ele>95.4</ele>
        <time>2015-05-11T18:45:36.583Z</time>
      </trkpt>
      <trkpt lat="48.84921" lon="2.27569">
        <ele>95.5</ele>
        <time>2015-05-11T18:45:37.584Z</time>
      </trkpt>
      <trkpt lat="48.84918" lon="2.27565">
        <ele>95.8</ele>
        <time>2015-05-11T18:45:38.591Z</time>
      </trkpt>
      <trkpt lat="48.84914" lon="2.2756">
        <ele>95.8</ele>
        <time>2015-05-11T18:45:39.592Z</time>
      </trkpt>
      <trkpt lat="48.8491" lon="2.27556">
        <ele>95.6</ele>
        <time>2015-05-11T18:45:40.602Z</time>
      </trkpt>
      <trkpt lat="48.84905" lon="2.27553">
        <ele>95.6</ele>
        <time>2015-05-11T18:45:41.618Z</time>
      </trkpt>
      <trkpt lat="48.849" lon="2.27551">
        <ele>95.7</ele>
        <time>2015-05-11T18:45:42.630Z</time>
      </trkpt>
      <trkpt lat="48.84896" lon="2.27548">
        <ele>95.9</ele>
        <time>2015-05-11T18:45:43.548Z</time>
      </trkpt>
      <trkpt lat="48.84892" lon="2.27543">
        <ele>96.1</ele>
        <time>2015-05-11T18:45:44.553Z</time>
      </trkpt>
      <trkpt lat="48.84887" lon="2.27539">
        <ele>96.6</ele>
        <time>2015-05-11T18:45:45.551Z</time>
      </trkpt>
      <trkpt lat="48.84883" lon="2.27535">
        <ele>97.1</ele>
        <time>2015-05-11T18:45:46.561Z</time>
      </trkpt>
      <trkpt lat="48.84878" lon="2.2753">
        <ele>97.3</ele>
        <time>2015-05-11T18:45:47.576Z</time>
      </trkpt>
      <trkpt lat="48.84874" lon="2.27525">
        <ele>97.8</ele>
        <time>2015-05-11T18:45:48.592Z</time>
      </trkpt>
      <trkpt lat="48.8487" lon="2.2752">
        <ele>98.3</ele>
        <time>2015-05-11T18:45:49.600Z</time>
      </trkpt>
      <trkpt lat="48.84866" lon="2.27514">
        <ele>98.7</ele>
        <time>2015-05-11T18:45:50.614Z</time>
      </trkpt>
      <trkpt lat="48.84863" lon="2.2751">
        <ele>99.1</ele>
        <time>2015-05-11T18:45:51.567Z</time>
      </trkpt>
      <trkpt lat="48.8486" lon="2.27504">
        <ele>99.3</ele>
        <time>2015-05-11T18:45:52.575Z</time>
      </trkpt>
      <trkpt lat="48.84856" lon="2.27497">
        <ele>99.2</ele>
        <time>2015-05-11T18:45:53.588Z</time>
      </trkpt>
      <trkpt lat="48.84852" lon="2.27493">
        <ele>99.2</ele>
        <time>2015-05-11T18:45:54.624Z</time>
      </trkpt>
      <trkpt lat="48.84848" lon="2.27488">
        <ele>98.8</ele>
        <time>2015-05-11T18:45:55.631Z</time>
      </trkpt>
      <trkpt lat="48.84844" lon="2.27485">
        <ele>98.2</ele>
        <time>2015-05-11T18:45:56.637Z</time>
      </trkpt>
      <trkpt lat="48.8484" lon="2.27481">
        <ele>97.2</ele>
        <time>2015-05-11T18:45:57.655Z</time>
      </trkpt>
      <trkpt lat="48.84836" lon="2.27476">
        <ele>96.2</ele>
        <time>2015-05-11T18:45:58.572Z</time>
      </trkpt>
      <trkpt lat="48.84831" lon="2.27471">
        <ele>95.3</ele>
        <time>2015-05-11T18:45:59.571Z</time>
      </trkpt>
      <trkpt lat="48.84827" lon="2.27467">
        <ele>94.1</ele>
        <time>2015-05-11T18:46:00.611Z</time>
      </trkpt>
      <trkpt lat="48.84823" lon="2.27464">
        <ele>93.2</ele>
        <time>2015-05-11T18:46:01.621Z</time>
      </trkpt>
      <trkpt lat="48.84819" lon="2.2746">
        <ele>91.8</ele>
        <time>2015-05-11T18:46:02.633Z</time>
      </trkpt>
      <trkpt lat="48.84815" lon="2.27455">
        <ele>91.2</ele>
        <time>2015-05-11T18:46:03.639Z</time>
      </trkpt>
      <trkpt lat="48.8481" lon="2.27451">
        <ele>90.7</ele>
        <time>2015-05-11T18:46:04.662Z</time>
      </trkpt>
      <trkpt lat="48.84805" lon="2.27447">
        <ele>90.4</ele>
        <time>2015-05-11T18:46:05.568Z</time>
      </trkpt>
      <trkpt lat="48.84801" lon="2.27442">
        <ele>90.1</ele>
        <time>2015-05-11T18:46:06.620Z</time>
      </trkpt>
      <trkpt lat="48.84797" lon="2.27435">
        <ele>89.7</ele>
        <time>2015-05-11T18:46:07.619Z</time>
      </trkpt>
      <trkpt lat="48.84792" lon="2.2743">
        <ele>89.7</ele>
        <time>2015-05-11T18:46:08.633Z</time>
      </trkpt>
      <trkpt lat="48.84788" lon="2.27424">
        <ele>89.3</ele>
        <time>2015-05-11T18:46:09.645Z</time>
      </trkpt>
      <trkpt lat="48.84784" lon="2.27419">
        <ele>88.8</ele>
        <time>2015-05-11T18:46:10.651Z</time>
      </trkpt>
      <trkpt lat="48.8478" lon="2.27413">
        <ele>88.5</ele>
        <time>2015-05-11T18:46:11.678Z</time>
      </trkpt>
      <trkpt lat="48.84777" lon="2.27408">
        <ele>88.1</ele>
        <time>2015-05-11T18:46:12.601Z</time>
      </trkpt>
      <trkpt lat="48.84773" lon="2.27405">
        <ele>87.5</ele>
        <time>2015-05-11T18:46:13.573Z</time>
      </trkpt>
      <trkpt lat="48.84768" lon="2.27402">
        <ele>87.2</ele>
        <time>2015-05-11T18:46:14.586Z</time>
      </trkpt>
      <trkpt lat="48.84761" lon="2.27399">
        <ele>86.7</ele>
        <time>2015-05-11T18:46:16.656Z</time>
      </trkpt>
      <trkpt lat="48.84758" lon="2.27398">
        <ele>86.7</ele>
        <time>2015-05-11T18:46:17.549Z</time>
      </trkpt>
      <trkpt lat="48.84751" lon="2.27394">
        <ele>86</ele>
        <time>2015-05-11T18:46:20.636Z</time>
      </trkpt>
      <trkpt lat="48.84749" lon="2.27392">
        <ele>85.6</ele>
        <time>2015-05-11T18:46:21.644Z</time>
      </trkpt>
      <trkpt lat="48.84742" lon="2.27385">
        <ele>84.4</ele>
        <time>2015-05-11T18:46:25.597Z</time>
      </trkpt>
      <trkpt lat="48.84739" lon="2.27382">
        <ele>84.4</ele>
        <time>2015-05-11T18:46:26.611Z</time>
      </trkpt>
      <trkpt lat="48.84733" lon="2.27376">
        <ele>83.4</ele>
        <time>2015-05-11T18:46:28.676Z</time>
      </trkpt>
      <trkpt lat="48.84731" lon="2.27373">
        <ele>83</ele>
        <time>2015-05-11T18:46:29.685Z</time>
      </trkpt>
      <trkpt lat="48.84724" lon="2.2737">
        <ele>83</ele>
        <time>2015-05-11T18:46:31.670Z</time>
      </trkpt>
      <trkpt lat="48.8472" lon="2.27366">
        <ele>82.6</ele>
        <time>2015-05-11T18:46:32.703Z</time>
      </trkpt>
      <trkpt lat="48.84716" lon="2.27363">
        <ele>82.2</ele>
        <time>2015-05-11T18:46:33.590Z</time>
      </trkpt>
      <trkpt lat="48.84711" lon="2.27358">
        <ele>81.8</ele>
        <time>2015-05-11T18:46:34.592Z</time>
      </trkpt>
      <trkpt lat="48.84708" lon="2.27353">
        <ele>81.1</ele>
        <time>2015-05-11T18:46:35.608Z</time>
      </trkpt>
      <trkpt lat="48.84704" lon="2.27347">
        <ele>80.8</ele>
        <time>2015-05-11T18:46:36.641Z</time>
      </trkpt>
      <trkpt lat="48.84699" lon="2.27343">
        <ele>80.7</ele>
        <time>2015-05-11T18:46:37.656Z</time>
      </trkpt>
      <trkpt lat="48.84694" lon="2.2734">
        <ele>80.7</ele>
        <time>2015-05-11T18:46:38.670Z</time>
      </trkpt>
      <trkpt lat="48.84689" lon="2.27338">
        <ele>80.7</ele>
        <time>2015-05-11T18:46:39.686Z</time>
      </trkpt>
      <trkpt lat="48.84684" lon="2.27333">
        <ele>80.6</ele>
        <time>2015-05-11T18:46:40.563Z</time>
      </trkpt>
      <trkpt lat="48.84678" lon="2.27329">
        <ele>80.6</ele>
        <time>2015-05-11T18:46:41.594Z</time>
      </trkpt>
      <trkpt lat="48.84673" lon="2.27326">
        <ele>80.8</ele>
        <time>2015-05-11T18:46:42.644Z</time>
      </trkpt>
      <trkpt lat="48.84669" lon="2.2732">
        <ele>80.7</ele>
        <time>2015-05-11T18:46:43.654Z</time>
      </trkpt>
      <trkpt lat="48.84664" lon="2.27315">
        <ele>80.8</ele>
        <time>2015-05-11T18:46:44.648Z</time>
      </trkpt>
      <trkpt lat="48.8466" lon="2.2731">
        <ele>80.8</ele>
        <time>2015-05-11T18:46:45.673Z</time>
      </trkpt>
      <trkpt lat="48.84656" lon="2.27304">
        <ele>80.8</ele>
        <time>2015-05-11T18:46:46.681Z</time>
      </trkpt>
      <trkpt lat="48.84653" lon="2.27297">
        <ele>80.8</ele>
        <time>2015-05-11T18:46:47.563Z</time>
      </trkpt>
      <trkpt lat="48.84649" lon="2.27289">
        <ele>80.9</ele>
        <time>2015-05-11T18:46:48.647Z</time>
      </trkpt>
      <trkpt lat="48.84646" lon="2.27281">
        <ele>80.9</ele>
        <time>2015-05-11T18:46:49.561Z</time>
      </trkpt>
      <trkpt lat="48.84642" lon="2.27275">
        <ele>80.7</ele>
        <time>2015-05-11T18:46:50.592Z</time>
      </trkpt>
      <trkpt lat="48.84637" lon="2.27271">
        <ele>80.3</ele>
        <time>2015-05-11T18:46:51.623Z</time>
      </trkpt>
      <trkpt lat="48.84633" lon="2.27266">
        <ele>80.1</ele>
        <time>2015-05-11T18:46:52.625Z</time>
      </trkpt>
      <trkpt lat="48.84629" lon="2.27261">
        <ele>80.3</ele>
        <time>2015-05-11T18:46:53.650Z</time>
      </trkpt>
      <trkpt lat="48.84624" lon="2.27256">
        <ele>80.4</ele>
        <time>2015-05-11T18:46:54.661Z</time>
      </trkpt>
      <trkpt lat="48.8462" lon="2.27252">
        <ele>80.6</ele>
        <time>2015-05-11T18:46:55.582Z</time>
      </trkpt>
      <trkpt lat="48.84615" lon="2.27249">
        <ele>80.3</ele>
        <time>2015-05-11T18:46:56.576Z</time>
      </trkpt>
      <trkpt lat="48.84611" lon="2.27245">
        <ele>80.2</ele>
        <time>2015-05-11T18:46:57.596Z</time>
      </trkpt>
      <trkpt lat="48.84606" lon="2.27241">
        <ele>80.1</ele>
        <time>2015-05-11T18:46:58.611Z</time>
      </trkpt>
      <trkpt lat="48.84601" lon="2.27238">
        <ele>80.1</ele>
        <time>2015-05-11T18:46:59.632Z</time>
      </trkpt>
      <trkpt lat="48.84597" lon="2.27234">
        <ele>80.3</ele>
        <time>2015-05-11T18:47:00.636Z</time>
      </trkpt>
      <trkpt lat="48.84592" lon="2.27229">
        <ele>80.3</ele>
        <time>2015-05-11T18:47:01.697Z</time>
      </trkpt>
      <trkpt lat="48.84588" lon="2.27224">
        <ele>80.9</ele>
        <time>2015-05-11T18:47:02.578Z</time>
      </trkpt>
      <trkpt lat="48.84584" lon="2.27219">
        <ele>81.3</ele>
        <time>2015-05-11T18:47:03.582Z</time>
      </trkpt>
      <trkpt lat="48.84579" lon="2.27215">
        <ele>81.6</ele>
        <time>2015-05-11T18:47:04.581Z</time>
      </trkpt>
      <trkpt lat="48.84575" lon="2.2721">
        <ele>81.9</ele>
        <time>2015-05-11T18:47:05.603Z</time>
      </trkpt>
      <trkpt lat="48.8457" lon="2.27204">
        <ele>81.9</ele>
        <time>2015-05-11T18:47:06.629Z</time>
      </trkpt>
      <trkpt lat="48.84566" lon="2.27197">
        <ele>81.5</ele>
        <time>2015-05-11T18:47:07.659Z</time>
      </trkpt>
      <trkpt lat="48.84562" lon="2.27192">
        <ele>81</ele>
        <time>2015-05-11T18:47:08.574Z</time>
      </trkpt>
      <trkpt lat="48.84558" lon="2.27187">
        <ele>80.7</ele>
        <time>2015-05-11T18:47:09.613Z</time>
      </trkpt>
      <trkpt lat="48.84553" lon="2.27183">
        <ele>80.5</ele>
        <time>2015-05-11T18:47:10.666Z</time>
      </trkpt>
      <trkpt lat="48.84545" lon="2.27177">
        <ele>80.2</ele>
        <time>2015-05-11T18:47:12.670Z</time>
      </trkpt>
      <trkpt lat="48.84541" lon="2.27175">
        <ele>80.1</ele>
        <time>2015-05-11T18:47:13.602Z</time>
      </trkpt>
      <trkpt lat="48.84536" lon="2.27172">
        <ele>80.2</ele>
        <time>2015-05-11T18:47:14.898Z</time>
      </trkpt>
      <trkpt lat="48.84532" lon="2.27168">
        <ele>80.7</ele>
        <time>2015-05-11T18:47:15.651Z</time>
      </trkpt>
      <trkpt lat="48.84528" lon="2.27163">
        <ele>81</ele>
        <time>2015-05-11T18:47:16.669Z</time>
      </trkpt>
      <trkpt lat="48.84523" lon="2.27157">
        <ele>81.3</ele>
        <time>2015-05-11T18:47:17.676Z</time>
      </trkpt>
      <trkpt lat="48.84519" lon="2.27151">
        <ele>81.6</ele>
        <time>2015-05-11T18:47:18.687Z</time>
      </trkpt>
      <trkpt lat="48.84514" lon="2.27146">
        <ele>81.7</ele>
        <time>2015-05-11T18:47:19.584Z</time>
      </trkpt>
      <trkpt lat="48.84508" lon="2.27142">
        <ele>81.8</ele>
        <time>2015-05-11T18:47:20.585Z</time>
      </trkpt>
      <trkpt lat="48.84503" lon="2.27139">
        <ele>82.1</ele>
        <time>2015-05-11T18:47:21.594Z</time>
      </trkpt>
      <trkpt lat="48.84498" lon="2.27135">
        <ele>82.2</ele>
        <time>2015-05-11T18:47:22.612Z</time>
      </trkpt>
      <trkpt lat="48.84493" lon="2.27131">
        <ele>82.4</ele>
        <time>2015-05-11T18:47:23.623Z</time>
      </trkpt>
      <trkpt lat="48.84488" lon="2.27127">
        <ele>82.5</ele>
        <time>2015-05-11T18:47:24.635Z</time>
      </trkpt>
      <trkpt lat="48.84483" lon="2.27123">
        <ele>82.6</ele>
        <time>2015-05-11T18:47:25.645Z</time>
      </trkpt>
      <trkpt lat="48.84478" lon="2.27119">
        <ele>82.6</ele>
        <time>2015-05-11T18:47:26.664Z</time>
      </trkpt>
      <trkpt lat="48.84474" lon="2.27112">
        <ele>82.6</ele>
        <time>2015-05-11T18:47:27.580Z</time>
      </trkpt>
      <trkpt lat="48.8447" lon="2.27105">
        <ele>82.6</ele>
        <time>2015-05-11T18:47:28.577Z</time>
      </trkpt>
      <trkpt lat="48.84465" lon="2.271">
        <ele>82.6</ele>
        <time>2015-05-11T18:47:29.586Z</time>
      </trkpt>
      <trkpt lat="48.8446" lon="2.27097">
        <ele>82.3</ele>
        <time>2015-05-11T18:47:30.629Z</time>
      </trkpt>
      <trkpt lat="48.84454" lon="2.27094">
        <ele>82.3</ele>
        <time>2015-05-11T18:47:31.632Z</time>
      </trkpt>
      <trkpt lat="48.84448" lon="2.2709">
        <ele>81.9</ele>
        <time>2015-05-11T18:47:32.652Z</time>
      </trkpt>
      <trkpt lat="48.84443" lon="2.27086">
        <ele>81.5</ele>
        <time>2015-05-11T18:47:33.553Z</time>
      </trkpt>
      <trkpt lat="48.84438" lon="2.27082">
        <ele>81.6</ele>
        <time>2015-05-11T18:47:34.656Z</time>
      </trkpt>
      <trkpt lat="48.84432" lon="2.27079">
        <ele>81.6</ele>
        <time>2015-05-11T18:47:35.671Z</time>
      </trkpt>
      <trkpt lat="48.84427" lon="2.27074">
        <ele>81.3</ele>
        <time>2015-05-11T18:47:36.681Z</time>
      </trkpt>
      <trkpt lat="48.84423" lon="2.27071">
        <ele>80.8</ele>
        <time>2015-05-11T18:47:37.580Z</time>
      </trkpt>
      <trkpt lat="48.84418" lon="2.27067">
        <ele>80.9</ele>
        <time>2015-05-11T18:47:38.761Z</time>
      </trkpt>
      <trkpt lat="48.84414" lon="2.27064">
        <ele>80.7</ele>
        <time>2015-05-11T18:47:39.620Z</time>
      </trkpt>
      <trkpt lat="48.8441" lon="2.2706">
        <ele>80.5</ele>
        <time>2015-05-11T18:47:40.642Z</time>
      </trkpt>
      <trkpt lat="48.84406" lon="2.27054">
        <ele>80.1</ele>
        <time>2015-05-11T18:47:41.598Z</time>
      </trkpt>
      <trkpt lat="48.84402" lon="2.27049">
        <ele>79.9</ele>
        <time>2015-05-11T18:47:42.633Z</time>
      </trkpt>
      <trkpt lat="48.84397" lon="2.27048">
        <ele>80.1</ele>
        <time>2015-05-11T18:47:43.631Z</time>
      </trkpt>
      <trkpt lat="48.84391" lon="2.27046">
        <ele>80.2</ele>
        <time>2015-05-11T18:47:44.645Z</time>
      </trkpt>
      <trkpt lat="48.84386" lon="2.27042">
        <ele>79.8</ele>
        <time>2015-05-11T18:47:45.651Z</time>
      </trkpt>
      <trkpt lat="48.84381" lon="2.27038">
        <ele>79.2</ele>
        <time>2015-05-11T18:47:46.569Z</time>
      </trkpt>
      <trkpt lat="48.84377" lon="2.27034">
        <ele>79.1</ele>
        <time>2015-05-11T18:47:47.572Z</time>
      </trkpt>
      <trkpt lat="48.84372" lon="2.27032">
        <ele>79.3</ele>
        <time>2015-05-11T18:47:48.683Z</time>
      </trkpt>
      <trkpt lat="48.84367" lon="2.27029">
        <ele>79.6</ele>
        <time>2015-05-11T18:47:49.664Z</time>
      </trkpt>
      <trkpt lat="48.84363" lon="2.27026">
        <ele>79.8</ele>
        <time>2015-05-11T18:47:50.660Z</time>
      </trkpt>
      <trkpt lat="48.84358" lon="2.27022">
        <ele>79.8</ele>
        <time>2015-05-11T18:47:51.576Z</time>
      </trkpt>
      <trkpt lat="48.84354" lon="2.27018">
        <ele>79.7</ele>
        <time>2015-05-11T18:47:52.665Z</time>
      </trkpt>
      <trkpt lat="48.84349" lon="2.27014">
        <ele>79.7</ele>
        <time>2015-05-11T18:47:53.608Z</time>
      </trkpt>
      <trkpt lat="48.84345" lon="2.27009">
        <ele>79.8</ele>
        <time>2015-05-11T18:47:54.694Z</time>
      </trkpt>
      <trkpt lat="48.8434" lon="2.27004">
        <ele>80</ele>
        <time>2015-05-11T18:47:55.573Z</time>
      </trkpt>
      <trkpt lat="48.84336" lon="2.27">
        <ele>80.3</ele>
        <time>2015-05-11T18:47:56.582Z</time>
      </trkpt>
      <trkpt lat="48.84332" lon="2.26995">
        <ele>80.4</ele>
        <time>2015-05-11T18:47:57.590Z</time>
      </trkpt>
      <trkpt lat="48.84328" lon="2.2699">
        <ele>80.8</ele>
        <time>2015-05-11T18:47:58.605Z</time>
      </trkpt>
      <trkpt lat="48.84324" lon="2.26985">
        <ele>81</ele>
        <time>2015-05-11T18:47:59.617Z</time>
      </trkpt>
      <trkpt lat="48.8432" lon="2.26979">
        <ele>81.3</ele>
        <time>2015-05-11T18:48:00.635Z</time>
      </trkpt>
      <trkpt lat="48.84317" lon="2.26972">
        <ele>81.4</ele>
        <time>2015-05-11T18:48:01.552Z</time>
      </trkpt>
      <trkpt lat="48.84313" lon="2.26967">
        <ele>81.5</ele>
        <time>2015-05-11T18:48:02.569Z</time>
      </trkpt>
      <trkpt lat="48.84309" lon="2.26961">
        <ele>81.2</ele>
        <time>2015-05-11T18:48:03.597Z</time>
      </trkpt>
      <trkpt lat="48.84305" lon="2.26957">
        <ele>80.9</ele>
        <time>2015-05-11T18:48:04.571Z</time>
      </trkpt>
      <trkpt lat="48.84302" lon="2.26951">
        <ele>80.7</ele>
        <time>2015-05-11T18:48:05.557Z</time>
      </trkpt>
      <trkpt lat="48.84299" lon="2.26944">
        <ele>80.6</ele>
        <time>2015-05-11T18:48:06.632Z</time>
      </trkpt>
      <trkpt lat="48.84297" lon="2.26938">
        <ele>80.6</ele>
        <time>2015-05-11T18:48:07.604Z</time>
      </trkpt>
      <trkpt lat="48.84293" lon="2.26931">
        <ele>80.6</ele>
        <time>2015-05-11T18:48:08.628Z</time>
      </trkpt>
      <trkpt lat="48.84288" lon="2.26925">
        <ele>80.6</ele>
        <time>2015-05-11T18:48:09.640Z</time>
      </trkpt>
      <trkpt lat="48.84282" lon="2.26917">
        <ele>80.7</ele>
        <time>2015-05-11T18:48:11.612Z</time>
      </trkpt>
      <trkpt lat="48.84279" lon="2.26912">
        <ele>80.7</ele>
        <time>2015-05-11T18:48:12.618Z</time>
      </trkpt>
      <trkpt lat="48.84277" lon="2.26906">
        <ele>80.7</ele>
        <time>2015-05-11T18:48:13.624Z</time>
      </trkpt>
      <trkpt lat="48.84274" lon="2.26898">
        <ele>80.9</ele>
        <time>2015-05-11T18:48:14.593Z</time>
      </trkpt>
      <trkpt lat="48.84271" lon="2.26891">
        <ele>81.1</ele>
        <time>2015-05-11T18:48:15.605Z</time>
      </trkpt>
      <trkpt lat="48.84268" lon="2.26885">
        <ele>81.2</ele>
        <time>2015-05-11T18:48:16.609Z</time>
      </trkpt>
      <trkpt lat="48.84265" lon="2.26877">
        <ele>81.7</ele>
        <time>2015-05-11T18:48:17.650Z</time>
      </trkpt>
      <trkpt lat="48.84262" lon="2.26871">
        <ele>82.1</ele>
        <time>2015-05-11T18:48:18.664Z</time>
      </trkpt>
      <trkpt lat="48.84259" lon="2.26867">
        <ele>82.3</ele>
        <time>2015-05-11T18:48:19.575Z</time>
      </trkpt>
      <trkpt lat="48.84255" lon="2.26861">
        <ele>82.7</ele>
        <time>2015-05-11T18:48:20.668Z</time>
      </trkpt>
      <trkpt lat="48.84251" lon="2.26855">
        <ele>83.2</ele>
        <time>2015-05-11T18:48:21.656Z</time>
      </trkpt>
      <trkpt lat="48.84247" lon="2.26849">
        <ele>83.5</ele>
        <time>2015-05-11T18:48:22.677Z</time>
      </trkpt>
      <trkpt lat="48.84244" lon="2.26844">
        <ele>83.6</ele>
        <time>2015-05-11T18:48:23.569Z</time>
      </trkpt>
      <trkpt lat="48.84241" lon="2.26833">
        <ele>82.6</ele>
        <time>2015-05-11T18:48:24.662Z</time>
      </trkpt>
      <trkpt lat="48.84238" lon="2.26828">
        <ele>82.8</ele>
        <time>2015-05-11T18:48:25.542Z</time>
      </trkpt>
      <trkpt lat="48.84235" lon="2.26822">
        <ele>82.8</ele>
        <time>2015-05-11T18:48:26.566Z</time>
      </trkpt>
      <trkpt lat="48.84231" lon="2.2681">
        <ele>83.1</ele>
        <time>2015-05-11T18:48:28.584Z</time>
      </trkpt>
      <trkpt lat="48.84227" lon="2.26805">
        <ele>83.4</ele>
        <time>2015-05-11T18:48:29.541Z</time>
      </trkpt>
      <trkpt lat="48.84225" lon="2.26797">
        <ele>83.9</ele>
        <time>2015-05-11T18:48:30.594Z</time>
      </trkpt>
      <trkpt lat="48.84221" lon="2.26789">
        <ele>84.4</ele>
        <time>2015-05-11T18:48:31.672Z</time>
      </trkpt>
      <trkpt lat="48.84217" lon="2.26781">
        <ele>84.9</ele>
        <time>2015-05-11T18:48:32.560Z</time>
      </trkpt>
      <trkpt lat="48.84212" lon="2.26772">
        <ele>85.3</ele>
        <time>2015-05-11T18:48:33.561Z</time>
      </trkpt>
      <trkpt lat="48.84207" lon="2.26767">
        <ele>85.8</ele>
        <time>2015-05-11T18:48:34.566Z</time>
      </trkpt>
      <trkpt lat="48.84204" lon="2.26762">
        <ele>86.1</ele>
        <time>2015-05-11T18:48:35.575Z</time>
      </trkpt>
      <trkpt lat="48.84199" lon="2.26751">
        <ele>87.3</ele>
        <time>2015-05-11T18:48:37.594Z</time>
      </trkpt>
      <trkpt lat="48.84197" lon="2.26747">
        <ele>87.6</ele>
        <time>2015-05-11T18:48:38.571Z</time>
      </trkpt>
      <trkpt lat="48.84194" lon="2.26742">
        <ele>88.2</ele>
        <time>2015-05-11T18:48:39.572Z</time>
      </trkpt>
      <trkpt lat="48.84192" lon="2.26735">
        <ele>88.5</ele>
        <time>2015-05-11T18:48:40.569Z</time>
      </trkpt>
      <trkpt lat="48.84188" lon="2.26723">
        <ele>89.3</ele>
        <time>2015-05-11T18:48:42.589Z</time>
      </trkpt>
      <trkpt lat="48.84187" lon="2.26717">
        <ele>89.6</ele>
        <time>2015-05-11T18:48:43.637Z</time>
      </trkpt>
      <trkpt lat="48.84183" lon="2.26705">
        <ele>90.5</ele>
        <time>2015-05-11T18:48:45.555Z</time>
      </trkpt>
      <trkpt lat="48.8418" lon="2.26699">
        <ele>90.9</ele>
        <time>2015-05-11T18:48:46.765Z</time>
      </trkpt>
      <trkpt lat="48.84177" lon="2.26693">
        <ele>91.3</ele>
        <time>2015-05-11T18:48:47.557Z</time>
      </trkpt>
      <trkpt lat="48.84173" lon="2.26687">
        <ele>91.4</ele>
        <time>2015-05-11T18:48:48.587Z</time>
      </trkpt>
      <trkpt lat="48.8417" lon="2.26682">
        <ele>91.6</ele>
        <time>2015-05-11T18:48:49.604Z</time>
      </trkpt>
      <trkpt lat="48.84167" lon="2.26677">
        <ele>92.5</ele>
        <time>2015-05-11T18:48:50.621Z</time>
      </trkpt>
      <trkpt lat="48.84164" lon="2.26671">
        <ele>92.9</ele>
        <time>2015-05-11T18:48:51.624Z</time>
      </trkpt>
      <trkpt lat="48.84161" lon="2.26663">
        <ele>92.9</ele>
        <time>2015-05-11T18:48:52.640Z</time>
      </trkpt>
      <trkpt lat="48.8416" lon="2.26655">
        <ele>92.6</ele>
        <time>2015-05-11T18:48:53.549Z</time>
      </trkpt>
      <trkpt lat="48.84158" lon="2.26649">
        <ele>92.6</ele>
        <time>2015-05-11T18:48:54.591Z</time>
      </trkpt>
      <trkpt lat="48.84152" lon="2.2664">
        <ele>92.8</ele>
        <time>2015-05-11T18:48:56.622Z</time>
      </trkpt>
      <trkpt lat="48.84148" lon="2.26635">
        <ele>92.6</ele>
        <time>2015-05-11T18:48:57.637Z</time>
      </trkpt>
      <trkpt lat="48.84143" lon="2.26628">
        <ele>91.7</ele>
        <time>2015-05-11T18:48:59.624Z</time>
      </trkpt>
      <trkpt lat="48.8414" lon="2.26623">
        <ele>91.8</ele>
        <time>2015-05-11T18:49:00.602Z</time>
      </trkpt>
      <trkpt lat="48.84134" lon="2.26612">
        <ele>91.4</ele>
        <time>2015-05-11T18:49:02.630Z</time>
      </trkpt>
      <trkpt lat="48.84131" lon="2.26609">
        <ele>91.4</ele>
        <time>2015-05-11T18:49:03.652Z</time>
      </trkpt>
      <trkpt lat="48.84128" lon="2.26605">
        <ele>91.4</ele>
        <time>2015-05-11T18:49:04.661Z</time>
      </trkpt>
      <trkpt lat="48.84123" lon="2.26602">
        <ele>91.4</ele>
        <time>2015-05-11T18:49:05.569Z</time>
      </trkpt>
      <trkpt lat="48.84115" lon="2.26597">
        <ele>91</ele>
        <time>2015-05-11T18:49:06.920Z</time>
      </trkpt>
      <trkpt lat="48.8411" lon="2.26592">
        <ele>90.2</ele>
        <time>2015-05-11T18:49:07.571Z</time>
      </trkpt>
      <trkpt lat="48.84105" lon="2.26587">
        <ele>90.4</ele>
        <time>2015-05-11T18:49:08.605Z</time>
      </trkpt>
      <trkpt lat="48.84101" lon="2.26583">
        <ele>90.2</ele>
        <time>2015-05-11T18:49:09.618Z</time>
      </trkpt>
      <trkpt lat="48.84097" lon="2.26575">
        <ele>90.5</ele>
        <time>2015-05-11T18:49:11.934Z</time>
      </trkpt>
      <trkpt lat="48.84095" lon="2.26571">
        <ele>90.4</ele>
        <time>2015-05-11T18:49:12.605Z</time>
      </trkpt>
      <trkpt lat="48.84093" lon="2.2656">
        <ele>89.3</ele>
        <time>2015-05-11T18:49:15.547Z</time>
      </trkpt>
      <trkpt lat="48.84092" lon="2.26555">
        <ele>88.8</ele>
        <time>2015-05-11T18:49:16.605Z</time>
      </trkpt>
      <trkpt lat="48.84091" lon="2.26543">
        <ele>88.2</ele>
        <time>2015-05-11T18:49:18.626Z</time>
      </trkpt>
      <trkpt lat="48.84091" lon="2.26538">
        <ele>88.1</ele>
        <time>2015-05-11T18:49:19.652Z</time>
      </trkpt>
      <trkpt lat="48.84093" lon="2.26531">
        <ele>88.4</ele>
        <time>2015-05-11T18:50:28.641Z</time>
      </trkpt>
      <trkpt lat="48.8409" lon="2.26522">
        <ele>90.1</ele>
        <time>2015-05-11T18:50:29.590Z</time>
      </trkpt>
      <trkpt lat="48.84086" lon="2.26512">
        <ele>89.3</ele>
        <time>2015-05-11T18:50:32.306Z</time>
      </trkpt>
      <trkpt lat="48.84084" lon="2.26508">
        <ele>89.2</ele>
        <time>2015-05-11T18:50:32.564Z</time>
      </trkpt>
      <trkpt lat="48.8408" lon="2.26498">
        <ele>89</ele>
        <time>2015-05-11T18:50:37.643Z</time>
      </trkpt>
      <trkpt lat="48.84076" lon="2.26494">
        <ele>90</ele>
        <time>2015-05-11T18:50:38.594Z</time>
      </trkpt>
      <trkpt lat="48.84069" lon="2.26488">
        <ele>90.4</ele>
        <time>2015-05-11T18:50:42.485Z</time>
      </trkpt>
      <trkpt lat="48.84065" lon="2.26486">
        <ele>90.4</ele>
        <time>2015-05-11T18:50:42.668Z</time>
      </trkpt>
      <trkpt lat="48.84059" lon="2.26479">
        <ele>90.8</ele>
        <time>2015-05-11T18:50:44.675Z</time>
      </trkpt>
      <trkpt lat="48.84056" lon="2.26474">
        <ele>91.2</ele>
        <time>2015-05-11T18:50:45.557Z</time>
      </trkpt>
      <trkpt lat="48.8405" lon="2.26465">
        <ele>91.5</ele>
        <time>2015-05-11T18:50:47.619Z</time>
      </trkpt>
      <trkpt lat="48.84045" lon="2.26461">
        <ele>91.7</ele>
        <time>2015-05-11T18:50:48.633Z</time>
      </trkpt>
      <trkpt lat="48.84041" lon="2.26456">
        <ele>91.7</ele>
        <time>2015-05-11T18:50:49.645Z</time>
      </trkpt>
      <trkpt lat="48.84037" lon="2.26451">
        <ele>92.1</ele>
        <time>2015-05-11T18:50:50.666Z</time>
      </trkpt>
      <trkpt lat="48.84033" lon="2.26447">
        <ele>92.7</ele>
        <time>2015-05-11T18:50:51.586Z</time>
      </trkpt>
      <trkpt lat="48.84029" lon="2.26442">
        <ele>93.1</ele>
        <time>2015-05-11T18:50:52.595Z</time>
      </trkpt>
      <trkpt lat="48.84026" lon="2.26438">
        <ele>93.3</ele>
        <time>2015-05-11T18:50:53.587Z</time>
      </trkpt>
      <trkpt lat="48.84023" lon="2.26432">
        <ele>93.3</ele>
        <time>2015-05-11T18:50:54.630Z</time>
      </trkpt>
      <trkpt lat="48.84019" lon="2.26426">
        <ele>93.9</ele>
        <time>2015-05-11T18:50:55.574Z</time>
      </trkpt>
      <trkpt lat="48.84015" lon="2.26421">
        <ele>94.6</ele>
        <time>2015-05-11T18:50:56.583Z</time>
      </trkpt>
      <trkpt lat="48.84012" lon="2.26416">
        <ele>95.3</ele>
        <time>2015-05-11T18:50:57.590Z</time>
      </trkpt>
      <trkpt lat="48.84008" lon="2.26409">
        <ele>95.8</ele>
        <time>2015-05-11T18:50:58.599Z</time>
      </trkpt>
      <trkpt lat="48.84004" lon="2.26402">
        <ele>96.2</ele>
        <time>2015-05-11T18:50:59.617Z</time>
      </trkpt>
      <trkpt lat="48.84001" lon="2.26395">
        <ele>96.5</ele>
        <time>2015-05-11T18:51:00.645Z</time>
      </trkpt>
      <trkpt lat="48.83997" lon="2.26387">
        <ele>96.9</ele>
        <time>2015-05-11T18:51:01.655Z</time>
      </trkpt>
      <trkpt lat="48.83994" lon="2.2638">
        <ele>97.2</ele>
        <time>2015-05-11T18:51:02.577Z</time>
      </trkpt>
      <trkpt lat="48.8399" lon="2.26372">
        <ele>97.7</ele>
        <time>2015-05-11T18:51:03.579Z</time>
      </trkpt>
      <trkpt lat="48.83987" lon="2.26365">
        <ele>97.9</ele>
        <time>2015-05-11T18:51:04.591Z</time>
      </trkpt>
      <trkpt lat="48.83983" lon="2.26358">
        <ele>98.1</ele>
        <time>2015-05-11T18:51:05.627Z</time>
      </trkpt>
      <trkpt lat="48.83979" lon="2.26351">
        <ele>98.2</ele>
        <time>2015-05-11T18:51:06.652Z</time>
      </trkpt>
      <trkpt lat="48.83976" lon="2.26345">
        <ele>98</ele>
        <time>2015-05-11T18:51:07.660Z</time>
      </trkpt>
      <trkpt lat="48.83973" lon="2.26338">
        <ele>97.7</ele>
        <time>2015-05-11T18:51:08.672Z</time>
      </trkpt>
      <trkpt lat="48.8397" lon="2.26331">
        <ele>97.6</ele>
        <time>2015-05-11T18:51:09.581Z</time>
      </trkpt>
      <trkpt lat="48.83966" lon="2.26326">
        <ele>97.8</ele>
        <time>2015-05-11T18:51:10.585Z</time>
      </trkpt>
      <trkpt lat="48.83961" lon="2.26315">
        <ele>98.3</ele>
        <time>2015-05-11T18:51:12.625Z</time>
      </trkpt>
      <trkpt lat="48.83959" lon="2.26308">
        <ele>97.9</ele>
        <time>2015-05-11T18:51:13.643Z</time>
      </trkpt>
      <trkpt lat="48.83958" lon="2.263">
        <ele>97.7</ele>
        <time>2015-05-11T18:51:14.576Z</time>
      </trkpt>
      <trkpt lat="48.83956" lon="2.26292">
        <ele>97.6</ele>
        <time>2015-05-11T18:51:15.578Z</time>
      </trkpt>
      <trkpt lat="48.83955" lon="2.26283">
        <ele>97.3</ele>
        <time>2015-05-11T18:51:16.594Z</time>
      </trkpt>
      <trkpt lat="48.83953" lon="2.26276">
        <ele>97.5</ele>
        <time>2015-05-11T18:51:17.615Z</time>
      </trkpt>
      <trkpt lat="48.83951" lon="2.2627">
        <ele>97.3</ele>
        <time>2015-05-11T18:51:18.611Z</time>
      </trkpt>
      <trkpt lat="48.83948" lon="2.26262">
        <ele>97</ele>
        <time>2015-05-11T18:51:19.617Z</time>
      </trkpt>
      <trkpt lat="48.83946" lon="2.26254">
        <ele>96.6</ele>
        <time>2015-05-11T18:51:20.644Z</time>
      </trkpt>
      <trkpt lat="48.83944" lon="2.26246">
        <ele>96.3</ele>
        <time>2015-05-11T18:51:21.560Z</time>
      </trkpt>
      <trkpt lat="48.83942" lon="2.26237">
        <ele>95.8</ele>
        <time>2015-05-11T18:51:22.579Z</time>
      </trkpt>
      <trkpt lat="48.83938" lon="2.26226">
        <ele>95</ele>
        <time>2015-05-11T18:51:23.574Z</time>
      </trkpt>
      <trkpt lat="48.83935" lon="2.26217">
        <ele>94.3</ele>
        <time>2015-05-11T18:51:24.597Z</time>
      </trkpt>
      <trkpt lat="48.83932" lon="2.26208">
        <ele>93.9</ele>
        <time>2015-05-11T18:51:25.618Z</time>
      </trkpt>
      <trkpt lat="48.83929" lon="2.26197">
        <ele>93.6</ele>
        <time>2015-05-11T18:51:26.558Z</time>
      </trkpt>
      <trkpt lat="48.83925" lon="2.26187">
        <ele>93.1</ele>
        <time>2015-05-11T18:51:27.529Z</time>
      </trkpt>
      <trkpt lat="48.83921" lon="2.26176">
        <ele>92.5</ele>
        <time>2015-05-11T18:51:28.556Z</time>
      </trkpt>
      <trkpt lat="48.83918" lon="2.26164">
        <ele>92.1</ele>
        <time>2015-05-11T18:51:29.564Z</time>
      </trkpt>
      <trkpt lat="48.83914" lon="2.26154">
        <ele>92</ele>
        <time>2015-05-11T18:51:30.598Z</time>
      </trkpt>
      <trkpt lat="48.8391" lon="2.26144">
        <ele>91.9</ele>
        <time>2015-05-11T18:51:31.607Z</time>
      </trkpt>
      <trkpt lat="48.83907" lon="2.26134">
        <ele>92.3</ele>
        <time>2015-05-11T18:51:32.621Z</time>
      </trkpt>
      <trkpt lat="48.83904" lon="2.26122">
        <ele>93.1</ele>
        <time>2015-05-11T18:51:33.638Z</time>
      </trkpt>
      <trkpt lat="48.83902" lon="2.26111">
        <ele>93.6</ele>
        <time>2015-05-11T18:51:34.587Z</time>
      </trkpt>
      <trkpt lat="48.839" lon="2.26099">
        <ele>93.9</ele>
        <time>2015-05-11T18:51:35.598Z</time>
      </trkpt>
      <trkpt lat="48.83897" lon="2.26087">
        <ele>94.2</ele>
        <time>2015-05-11T18:51:36.632Z</time>
      </trkpt>
      <trkpt lat="48.83894" lon="2.26076">
        <ele>94.4</ele>
        <time>2015-05-11T18:51:37.638Z</time>
      </trkpt>
      <trkpt lat="48.83891" lon="2.26063">
        <ele>94.3</ele>
        <time>2015-05-11T18:51:38.565Z</time>
      </trkpt>
      <trkpt lat="48.83889" lon="2.26053">
        <ele>95</ele>
        <time>2015-05-11T18:51:39.564Z</time>
      </trkpt>
      <trkpt lat="48.83887" lon="2.26044">
        <ele>95.4</ele>
        <time>2015-05-11T18:51:40.544Z</time>
      </trkpt>
      <trkpt lat="48.83883" lon="2.26035">
        <ele>95.5</ele>
        <time>2015-05-11T18:51:41.563Z</time>
      </trkpt>
      <trkpt lat="48.8388" lon="2.26025">
        <ele>95.6</ele>
        <time>2015-05-11T18:51:42.592Z</time>
      </trkpt>
      <trkpt lat="48.83878" lon="2.26016">
        <ele>95.7</ele>
        <time>2015-05-11T18:51:43.596Z</time>
      </trkpt>
      <trkpt lat="48.83877" lon="2.26007">
        <ele>95.7</ele>
        <time>2015-05-11T18:51:44.618Z</time>
      </trkpt>
      <trkpt lat="48.83876" lon="2.25997">
        <ele>95.2</ele>
        <time>2015-05-11T18:51:45.631Z</time>
      </trkpt>
      <trkpt lat="48.83874" lon="2.25987">
        <ele>95.3</ele>
        <time>2015-05-11T18:51:46.540Z</time>
      </trkpt>
      <trkpt lat="48.83872" lon="2.25978">
        <ele>95</ele>
        <time>2015-05-11T18:51:47.551Z</time>
      </trkpt>
      <trkpt lat="48.83868" lon="2.25968">
        <ele>95.3</ele>
        <time>2015-05-11T18:51:48.603Z</time>
      </trkpt>
      <trkpt lat="48.83865" lon="2.25959">
        <ele>95.3</ele>
        <time>2015-05-11T18:51:49.610Z</time>
      </trkpt>
      <trkpt lat="48.83862" lon="2.2595">
        <ele>95.7</ele>
        <time>2015-05-11T18:51:50.537Z</time>
      </trkpt>
      <trkpt lat="48.83858" lon="2.2594">
        <ele>96.1</ele>
        <time>2015-05-11T18:51:51.545Z</time>
      </trkpt>
      <trkpt lat="48.83854" lon="2.25929">
        <ele>96.6</ele>
        <time>2015-05-11T18:51:52.563Z</time>
      </trkpt>
      <trkpt lat="48.8385" lon="2.25919">
        <ele>97.5</ele>
        <time>2015-05-11T18:51:53.561Z</time>
      </trkpt>
      <trkpt lat="48.83846" lon="2.2591">
        <ele>98.2</ele>
        <time>2015-05-11T18:51:54.571Z</time>
      </trkpt>
      <trkpt lat="48.83842" lon="2.25901">
        <ele>98.2</ele>
        <time>2015-05-11T18:51:55.607Z</time>
      </trkpt>
      <trkpt lat="48.83839" lon="2.25892">
        <ele>98</ele>
        <time>2015-05-11T18:51:56.633Z</time>
      </trkpt>
      <trkpt lat="48.83837" lon="2.25883">
        <ele>98.2</ele>
        <time>2015-05-11T18:51:57.526Z</time>
      </trkpt>
      <trkpt lat="48.83834" lon="2.25875">
        <ele>98.3</ele>
        <time>2015-05-11T18:51:58.553Z</time>
      </trkpt>
      <trkpt lat="48.83831" lon="2.25866">
        <ele>98.4</ele>
        <time>2015-05-11T18:51:59.587Z</time>
      </trkpt>
      <trkpt lat="48.83825" lon="2.25857">
        <ele>98.2</ele>
        <time>2015-05-11T18:52:00.595Z</time>
      </trkpt>
      <trkpt lat="48.83823" lon="2.25847">
        <ele>98.5</ele>
        <time>2015-05-11T18:52:01.589Z</time>
      </trkpt>
      <trkpt lat="48.83821" lon="2.25837">
        <ele>99.2</ele>
        <time>2015-05-11T18:52:02.600Z</time>
      </trkpt>
      <trkpt lat="48.8382" lon="2.25824">
        <ele>98.8</ele>
        <time>2015-05-11T18:52:03.604Z</time>
      </trkpt>
      <trkpt lat="48.8382" lon="2.25811">
        <ele>97.9</ele>
        <time>2015-05-11T18:52:04.620Z</time>
      </trkpt>
      <trkpt lat="48.83817" lon="2.25801">
        <ele>97.1</ele>
        <time>2015-05-11T18:52:05.623Z</time>
      </trkpt>
      <trkpt lat="48.83815" lon="2.25793">
        <ele>96.6</ele>
        <time>2015-05-11T18:52:06.642Z</time>
      </trkpt>
      <trkpt lat="48.83812" lon="2.25785">
        <ele>95.7</ele>
        <time>2015-05-11T18:52:07.651Z</time>
      </trkpt>
      <trkpt lat="48.83811" lon="2.25777">
        <ele>95.5</ele>
        <time>2015-05-11T18:52:08.563Z</time>
      </trkpt>
      <trkpt lat="48.83811" lon="2.25768">
        <ele>95.3</ele>
        <time>2015-05-11T18:52:09.578Z</time>
      </trkpt>
      <trkpt lat="48.83811" lon="2.2576">
        <ele>95</ele>
        <time>2015-05-11T18:52:10.663Z</time>
      </trkpt>
      <trkpt lat="48.83813" lon="2.25753">
        <ele>95.1</ele>
        <time>2015-05-11T18:52:11.622Z</time>
      </trkpt>
      <trkpt lat="48.83817" lon="2.25742">
        <ele>95</ele>
        <time>2015-05-11T18:52:13.554Z</time>
      </trkpt>
      <trkpt lat="48.8382" lon="2.25738">
        <ele>94.8</ele>
        <time>2015-05-11T18:52:14.577Z</time>
      </trkpt>
      <trkpt lat="48.83825" lon="2.25731">
        <ele>94.3</ele>
        <time>2015-05-11T18:52:16.615Z</time>
      </trkpt>
      <trkpt lat="48.83827" lon="2.25727">
        <ele>94.1</ele>
        <time>2015-05-11T18:52:17.571Z</time>
      </trkpt>
      <trkpt lat="48.83833" lon="2.25717">
        <ele>92.7</ele>
        <time>2015-05-11T18:52:20.628Z</time>
      </trkpt>
      <trkpt lat="48.83834" lon="2.25714">
        <ele>92.5</ele>
        <time>2015-05-11T18:52:21.557Z</time>
      </trkpt>
      <trkpt lat="48.83837" lon="2.25713">
        <ele>90</ele>
        <time>2015-05-11T18:53:25.589Z</time>
      </trkpt>
      <trkpt lat="48.83843" lon="2.2574">
        <ele>86.8</ele>
        <time>2015-05-11T18:53:26.564Z</time>
      </trkpt>
      <trkpt lat="48.83837" lon="2.25743">
        <ele>87.3</ele>
        <time>2015-05-11T18:53:29.595Z</time>
      </trkpt>
      <trkpt lat="48.83833" lon="2.25744">
        <ele>87.8</ele>
        <time>2015-05-11T18:53:30.652Z</time>
      </trkpt>
      <trkpt lat="48.83826" lon="2.25746">
        <ele>88.9</ele>
        <time>2015-05-11T18:54:26.599Z</time>
      </trkpt>
      <trkpt lat="48.83821" lon="2.25759">
        <ele>91.3</ele>
        <time>2015-05-11T18:54:27.567Z</time>
      </trkpt>
      <trkpt lat="48.83822" lon="2.25748">
        <ele>90.4</ele>
        <time>2015-05-11T18:54:29.548Z</time>
      </trkpt>
      <trkpt lat="48.83823" lon="2.25741">
        <ele>89.9</ele>
        <time>2015-05-11T18:54:30.612Z</time>
      </trkpt>
      <trkpt lat="48.83824" lon="2.25729">
        <ele>89.2</ele>
        <time>2015-05-11T18:54:32.614Z</time>
      </trkpt>
      <trkpt lat="48.83825" lon="2.25722">
        <ele>89</ele>
        <time>2015-05-11T18:54:33.636Z</time>
      </trkpt>
      <trkpt lat="48.83826" lon="2.25716">
        <ele>88.6</ele>
        <time>2015-05-11T18:54:34.548Z</time>
      </trkpt>
      <trkpt lat="48.83827" lon="2.25708">
        <ele>88.3</ele>
        <time>2015-05-11T18:54:35.544Z</time>
      </trkpt>
      <trkpt lat="48.83828" lon="2.25701">
        <ele>88.1</ele>
        <time>2015-05-11T18:54:36.660Z</time>
      </trkpt>
      <trkpt lat="48.83828" lon="2.25694">
        <ele>88.1</ele>
        <time>2015-05-11T18:54:37.587Z</time>
      </trkpt>
      <trkpt lat="48.83827" lon="2.25687">
        <ele>88.4</ele>
        <time>2015-05-11T18:54:38.598Z</time>
      </trkpt>
      <trkpt lat="48.83826" lon="2.25679">
        <ele>88.3</ele>
        <time>2015-05-11T18:54:39.604Z</time>
      </trkpt>
      <trkpt lat="48.83824" lon="2.25672">
        <ele>87.9</ele>
        <time>2015-05-11T18:54:40.609Z</time>
      </trkpt>
      <trkpt lat="48.83822" lon="2.25665">
        <ele>87.7</ele>
        <time>2015-05-11T18:54:41.619Z</time>
      </trkpt>
      <trkpt lat="48.83818" lon="2.25659">
        <ele>87.8</ele>
        <time>2015-05-11T18:54:42.625Z</time>
      </trkpt>
      <trkpt lat="48.83814" lon="2.25655">
        <ele>87.5</ele>
        <time>2015-05-11T18:54:43.633Z</time>
      </trkpt>
      <trkpt lat="48.83806" lon="2.2565">
        <ele>86.1</ele>
        <time>2015-05-11T18:54:45.556Z</time>
      </trkpt>
      <trkpt lat="48.83801" lon="2.25648">
        <ele>85.6</ele>
        <time>2015-05-11T18:54:46.565Z</time>
      </trkpt>
      <trkpt lat="48.83796" lon="2.25648">
        <ele>84.8</ele>
        <time>2015-05-11T18:54:47.580Z</time>
      </trkpt>
      <trkpt lat="48.83791" lon="2.25647">
        <ele>84.8</ele>
        <time>2015-05-11T18:54:48.651Z</time>
      </trkpt>
      <trkpt lat="48.83785" lon="2.25648">
        <ele>84.8</ele>
        <time>2015-05-11T18:54:49.557Z</time>
      </trkpt>
      <trkpt lat="48.83779" lon="2.2565">
        <ele>84.9</ele>
        <time>2015-05-11T18:54:50.566Z</time>
      </trkpt>
      <trkpt lat="48.83773" lon="2.25652">
        <ele>84.9</ele>
        <time>2015-05-11T18:54:51.578Z</time>
      </trkpt>
      <trkpt lat="48.83767" lon="2.25655">
        <ele>85</ele>
        <time>2015-05-11T18:54:52.625Z</time>
      </trkpt>
      <trkpt lat="48.8376" lon="2.2566">
        <ele>84.9</ele>
        <time>2015-05-11T18:54:53.560Z</time>
      </trkpt>
      <trkpt lat="48.83753" lon="2.25664">
        <ele>85.1</ele>
        <time>2015-05-11T18:54:54.607Z</time>
      </trkpt>
      <trkpt lat="48.83746" lon="2.25669">
        <ele>85.2</ele>
        <time>2015-05-11T18:54:55.614Z</time>
      </trkpt>
      <trkpt lat="48.83739" lon="2.25673">
        <ele>85.3</ele>
        <time>2015-05-11T18:54:56.623Z</time>
      </trkpt>
      <trkpt lat="48.83729" lon="2.25678">
        <ele>85.7</ele>
        <time>2015-05-11T18:54:57.632Z</time>
      </trkpt>
      <trkpt lat="48.83722" lon="2.25678">
        <ele>86.3</ele>
        <time>2015-05-11T18:54:58.646Z</time>
      </trkpt>
      <trkpt lat="48.83715" lon="2.25677">
        <ele>86.9</ele>
        <time>2015-05-11T18:54:59.589Z</time>
      </trkpt>
      <trkpt lat="48.8371" lon="2.25673">
        <ele>87.2</ele>
        <time>2015-05-11T18:55:00.613Z</time>
      </trkpt>
      <trkpt lat="48.83704" lon="2.25672">
        <ele>87.6</ele>
        <time>2015-05-11T18:55:01.600Z</time>
      </trkpt>
      <trkpt lat="48.837" lon="2.25668">
        <ele>87.9</ele>
        <time>2015-05-11T18:55:02.637Z</time>
      </trkpt>
      <trkpt lat="48.83696" lon="2.25663">
        <ele>88</ele>
        <time>2015-05-11T18:55:03.648Z</time>
      </trkpt>
      <trkpt lat="48.83692" lon="2.25658">
        <ele>88</ele>
        <time>2015-05-11T18:55:04.578Z</time>
      </trkpt>
      <trkpt lat="48.8369" lon="2.2565">
        <ele>87.3</ele>
        <time>2015-05-11T18:55:05.571Z</time>
      </trkpt>
      <trkpt lat="48.83688" lon="2.25644">
        <ele>87.1</ele>
        <time>2015-05-11T18:55:06.651Z</time>
      </trkpt>
      <trkpt lat="48.83684" lon="2.25638">
        <ele>87.3</ele>
        <time>2015-05-11T18:55:07.572Z</time>
      </trkpt>
      <trkpt lat="48.83681" lon="2.25632">
        <ele>87.1</ele>
        <time>2015-05-11T18:55:08.577Z</time>
      </trkpt>
      <trkpt lat="48.83678" lon="2.25625">
        <ele>86.7</ele>
        <time>2015-05-11T18:55:09.595Z</time>
      </trkpt>
      <trkpt lat="48.83671" lon="2.25617">
        <ele>86.1</ele>
        <time>2015-05-11T18:55:11.636Z</time>
      </trkpt>
      <trkpt lat="48.83667" lon="2.25614">
        <ele>86.1</ele>
        <time>2015-05-11T18:55:12.665Z</time>
      </trkpt>
      <trkpt lat="48.83664" lon="2.2561">
        <ele>85.5</ele>
        <time>2015-05-11T18:55:13.577Z</time>
      </trkpt>
      <trkpt lat="48.83659" lon="2.25607">
        <ele>85.2</ele>
        <time>2015-05-11T18:55:14.579Z</time>
      </trkpt>
      <trkpt lat="48.83655" lon="2.25604">
        <ele>85.1</ele>
        <time>2015-05-11T18:55:15.601Z</time>
      </trkpt>
      <trkpt lat="48.83651" lon="2.25601">
        <ele>85.3</ele>
        <time>2015-05-11T18:55:16.613Z</time>
      </trkpt>
      <trkpt lat="48.83646" lon="2.25599">
        <ele>85.3</ele>
        <time>2015-05-11T18:55:17.631Z</time>
      </trkpt>
      <trkpt lat="48.83642" lon="2.25598">
        <ele>85.3</ele>
        <time>2015-05-11T18:55:18.710Z</time>
      </trkpt>
      <trkpt lat="48.83633" lon="2.25595">
        <ele>84.9</ele>
        <time>2015-05-11T18:55:20.575Z</time>
      </trkpt>
      <trkpt lat="48.83629" lon="2.25594">
        <ele>84.8</ele>
        <time>2015-05-11T18:55:21.676Z</time>
      </trkpt>
      <trkpt lat="48.83624" lon="2.25592">
        <ele>84.9</ele>
        <time>2015-05-11T18:55:22.579Z</time>
      </trkpt>
      <trkpt lat="48.8362" lon="2.25591">
        <ele>84.4</ele>
        <time>2015-05-11T18:55:23.602Z</time>
      </trkpt>
      <trkpt lat="48.83615" lon="2.25589">
        <ele>84.7</ele>
        <time>2015-05-11T18:55:24.686Z</time>
      </trkpt>
      <trkpt lat="48.8361" lon="2.25588">
        <ele>84.4</ele>
        <time>2015-05-11T18:55:25.576Z</time>
      </trkpt>
      <trkpt lat="48.83604" lon="2.25586">
        <ele>84.4</ele>
        <time>2015-05-11T18:55:26.614Z</time>
      </trkpt>
      <trkpt lat="48.83599" lon="2.25584">
        <ele>84.5</ele>
        <time>2015-05-11T18:55:27.622Z</time>
      </trkpt>
      <trkpt lat="48.83594" lon="2.25581">
        <ele>84.5</ele>
        <time>2015-05-11T18:55:28.627Z</time>
      </trkpt>
      <trkpt lat="48.83588" lon="2.25576">
        <ele>84.5</ele>
        <time>2015-05-11T18:55:29.635Z</time>
      </trkpt>
      <trkpt lat="48.83582" lon="2.25574">
        <ele>84.9</ele>
        <time>2015-05-11T18:55:30.629Z</time>
      </trkpt>
      <trkpt lat="48.83577" lon="2.25571">
        <ele>85.1</ele>
        <time>2015-05-11T18:55:31.625Z</time>
      </trkpt>
      <trkpt lat="48.83572" lon="2.25568">
        <ele>85</ele>
        <time>2015-05-11T18:55:32.670Z</time>
      </trkpt>
      <trkpt lat="48.83567" lon="2.25565">
        <ele>85.1</ele>
        <time>2015-05-11T18:55:33.571Z</time>
      </trkpt>
      <trkpt lat="48.83561" lon="2.25562">
        <ele>85.6</ele>
        <time>2015-05-11T18:55:34.578Z</time>
      </trkpt>
      <trkpt lat="48.83556" lon="2.25559">
        <ele>86</ele>
        <time>2015-05-11T18:55:35.537Z</time>
      </trkpt>
      <trkpt lat="48.83551" lon="2.25555">
        <ele>85.8</ele>
        <time>2015-05-11T18:55:36.613Z</time>
      </trkpt>
      <trkpt lat="48.83545" lon="2.25551">
        <ele>86.1</ele>
        <time>2015-05-11T18:55:37.608Z</time>
      </trkpt>
      <trkpt lat="48.83539" lon="2.25547">
        <ele>86.1</ele>
        <time>2015-05-11T18:55:38.561Z</time>
      </trkpt>
      <trkpt lat="48.83533" lon="2.25543">
        <ele>86.3</ele>
        <time>2015-05-11T18:55:39.558Z</time>
      </trkpt>
      <trkpt lat="48.83526" lon="2.2554">
        <ele>86.9</ele>
        <time>2015-05-11T18:55:40.566Z</time>
      </trkpt>
      <trkpt lat="48.8352" lon="2.25535">
        <ele>87.5</ele>
        <time>2015-05-11T18:55:41.583Z</time>
      </trkpt>
      <trkpt lat="48.83514" lon="2.2553">
        <ele>87.5</ele>
        <time>2015-05-11T18:55:42.601Z</time>
      </trkpt>
      <trkpt lat="48.83508" lon="2.25526">
        <ele>87.9</ele>
        <time>2015-05-11T18:55:43.614Z</time>
      </trkpt>
      <trkpt lat="48.83502" lon="2.25521">
        <ele>88.3</ele>
        <time>2015-05-11T18:55:44.624Z</time>
      </trkpt>
      <trkpt lat="48.83496" lon="2.25516">
        <ele>88.8</ele>
        <time>2015-05-11T18:55:45.660Z</time>
      </trkpt>
      <trkpt lat="48.8349" lon="2.25512">
        <ele>89</ele>
        <time>2015-05-11T18:55:46.546Z</time>
      </trkpt>
      <trkpt lat="48.83484" lon="2.25508">
        <ele>89</ele>
        <time>2015-05-11T18:55:47.573Z</time>
      </trkpt>
      <trkpt lat="48.83478" lon="2.25504">
        <ele>89.3</ele>
        <time>2015-05-11T18:55:48.623Z</time>
      </trkpt>
      <trkpt lat="48.83472" lon="2.255">
        <ele>89.4</ele>
        <time>2015-05-11T18:55:49.614Z</time>
      </trkpt>
      <trkpt lat="48.83466" lon="2.25497">
        <ele>90.1</ele>
        <time>2015-05-11T18:55:50.638Z</time>
      </trkpt>
      <trkpt lat="48.8346" lon="2.25494">
        <ele>90.9</ele>
        <time>2015-05-11T18:55:51.546Z</time>
      </trkpt>
      <trkpt lat="48.83455" lon="2.25491">
        <ele>91.7</ele>
        <time>2015-05-11T18:55:52.582Z</time>
      </trkpt>
      <trkpt lat="48.8345" lon="2.25489">
        <ele>92.3</ele>
        <time>2015-05-11T18:55:53.594Z</time>
      </trkpt>
      <trkpt lat="48.83443" lon="2.25489">
        <ele>92.5</ele>
        <time>2015-05-11T18:55:54.661Z</time>
      </trkpt>
      <trkpt lat="48.83438" lon="2.25484">
        <ele>92.2</ele>
        <time>2015-05-11T18:55:55.568Z</time>
      </trkpt>
      <trkpt lat="48.83434" lon="2.25479">
        <ele>91.8</ele>
        <time>2015-05-11T18:55:56.567Z</time>
      </trkpt>
      <trkpt lat="48.8343" lon="2.25475">
        <ele>91.4</ele>
        <time>2015-05-11T18:55:57.585Z</time>
      </trkpt>
      <trkpt lat="48.83425" lon="2.2547">
        <ele>91.5</ele>
        <time>2015-05-11T18:55:58.601Z</time>
      </trkpt>
      <trkpt lat="48.83421" lon="2.25464">
        <ele>91.3</ele>
        <time>2015-05-11T18:55:59.621Z</time>
      </trkpt>
      <trkpt lat="48.83416" lon="2.25463">
        <ele>90.9</ele>
        <time>2015-05-11T18:56:00.655Z</time>
      </trkpt>
      <trkpt lat="48.83411" lon="2.2546">
        <ele>90.2</ele>
        <time>2015-05-11T18:56:01.602Z</time>
      </trkpt>
      <trkpt lat="48.83405" lon="2.25458">
        <ele>89.9</ele>
        <time>2015-05-11T18:56:02.595Z</time>
      </trkpt>
      <trkpt lat="48.834" lon="2.25456">
        <ele>89.6</ele>
        <time>2015-05-11T18:56:03.641Z</time>
      </trkpt>
      <trkpt lat="48.83396" lon="2.25453">
        <ele>89.2</ele>
        <time>2015-05-11T18:56:04.621Z</time>
      </trkpt>
      <trkpt lat="48.83391" lon="2.25449">
        <ele>88.8</ele>
        <time>2015-05-11T18:56:05.638Z</time>
      </trkpt>
      <trkpt lat="48.83387" lon="2.25443">
        <ele>88.4</ele>
        <time>2015-05-11T18:56:06.632Z</time>
      </trkpt>
      <trkpt lat="48.83382" lon="2.25439">
        <ele>88</ele>
        <time>2015-05-11T18:56:07.571Z</time>
      </trkpt>
      <trkpt lat="48.83376" lon="2.25435">
        <ele>87.5</ele>
        <time>2015-05-11T18:56:08.573Z</time>
      </trkpt>
      <trkpt lat="48.8337" lon="2.25427">
        <ele>88</ele>
        <time>2015-05-11T18:56:09.583Z</time>
      </trkpt>
      <trkpt lat="48.83366" lon="2.2542">
        <ele>88.3</ele>
        <time>2015-05-11T18:56:10.595Z</time>
      </trkpt>
      <trkpt lat="48.83361" lon="2.25412">
        <ele>88.9</ele>
        <time>2015-05-11T18:56:11.600Z</time>
      </trkpt>
      <trkpt lat="48.83356" lon="2.25405">
        <ele>89.5</ele>
        <time>2015-05-11T18:56:12.627Z</time>
      </trkpt>
      <trkpt lat="48.8335" lon="2.25402">
        <ele>90.1</ele>
        <time>2015-05-11T18:56:13.633Z</time>
      </trkpt>
      <trkpt lat="48.83344" lon="2.25401">
        <ele>90.8</ele>
        <time>2015-05-11T18:56:14.640Z</time>
      </trkpt>
      <trkpt lat="48.83338" lon="2.25399">
        <ele>91.5</ele>
        <time>2015-05-11T18:56:15.649Z</time>
      </trkpt>
      <trkpt lat="48.83332" lon="2.25398">
        <ele>92.1</ele>
        <time>2015-05-11T18:56:16.562Z</time>
      </trkpt>
      <trkpt lat="48.83326" lon="2.25396">
        <ele>92.4</ele>
        <time>2015-05-11T18:56:17.572Z</time>
      </trkpt>
      <trkpt lat="48.83321" lon="2.25395">
        <ele>92.7</ele>
        <time>2015-05-11T18:56:18.618Z</time>
      </trkpt>
      <trkpt lat="48.83315" lon="2.25391">
        <ele>92.6</ele>
        <time>2015-05-11T18:56:19.628Z</time>
      </trkpt>
      <trkpt lat="48.83308" lon="2.25386">
        <ele>93.1</ele>
        <time>2015-05-11T18:56:20.639Z</time>
      </trkpt>
      <trkpt lat="48.83301" lon="2.25381">
        <ele>93.1</ele>
        <time>2015-05-11T18:56:21.644Z</time>
      </trkpt>
      <trkpt lat="48.83295" lon="2.25378">
        <ele>93.5</ele>
        <time>2015-05-11T18:56:22.562Z</time>
      </trkpt>
      <trkpt lat="48.83288" lon="2.25374">
        <ele>94</ele>
        <time>2015-05-11T18:56:23.563Z</time>
      </trkpt>
      <trkpt lat="48.83282" lon="2.2537">
        <ele>94.3</ele>
        <time>2015-05-11T18:56:24.602Z</time>
      </trkpt>
      <trkpt lat="48.83277" lon="2.25367">
        <ele>93.7</ele>
        <time>2015-05-11T18:56:25.601Z</time>
      </trkpt>
      <trkpt lat="48.83267" lon="2.25357">
        <ele>93.7</ele>
        <time>2015-05-11T18:56:27.622Z</time>
      </trkpt>
      <trkpt lat="48.83262" lon="2.25354">
        <ele>93.7</ele>
        <time>2015-05-11T18:56:28.633Z</time>
      </trkpt>
      <trkpt lat="48.83258" lon="2.25348">
        <ele>94</ele>
        <time>2015-05-11T18:56:29.517Z</time>
      </trkpt>
      <trkpt lat="48.83253" lon="2.25341">
        <ele>94.1</ele>
        <time>2015-05-11T18:56:30.555Z</time>
      </trkpt>
      <trkpt lat="48.83249" lon="2.25335">
        <ele>94.1</ele>
        <time>2015-05-11T18:56:31.565Z</time>
      </trkpt>
      <trkpt lat="48.83245" lon="2.25329">
        <ele>94.2</ele>
        <time>2015-05-11T18:56:32.574Z</time>
      </trkpt>
      <trkpt lat="48.8324" lon="2.25323">
        <ele>94.2</ele>
        <time>2015-05-11T18:56:33.576Z</time>
      </trkpt>
      <trkpt lat="48.83237" lon="2.25317">
        <ele>94.2</ele>
        <time>2015-05-11T18:56:34.577Z</time>
      </trkpt>
      <trkpt lat="48.83232" lon="2.25312">
        <ele>93.9</ele>
        <time>2015-05-11T18:56:35.590Z</time>
      </trkpt>
      <trkpt lat="48.83228" lon="2.25307">
        <ele>93.9</ele>
        <time>2015-05-11T18:56:36.622Z</time>
      </trkpt>
      <trkpt lat="48.83223" lon="2.25306">
        <ele>93.5</ele>
        <time>2015-05-11T18:56:37.611Z</time>
      </trkpt>
      <trkpt lat="48.83215" lon="2.25308">
        <ele>92.6</ele>
        <time>2015-05-11T18:56:39.645Z</time>
      </trkpt>
      <trkpt lat="48.83211" lon="2.25307">
        <ele>92.4</ele>
        <time>2015-05-11T18:56:40.563Z</time>
      </trkpt>
      <trkpt lat="48.83204" lon="2.25303">
        <ele>92.3</ele>
        <time>2015-05-11T18:56:42.616Z</time>
      </trkpt>
      <trkpt lat="48.83202" lon="2.25299">
        <ele>91.9</ele>
        <time>2015-05-11T18:56:43.612Z</time>
      </trkpt>
      <trkpt lat="48.83194" lon="2.25294">
        <ele>91.9</ele>
        <time>2015-05-11T18:56:45.523Z</time>
      </trkpt>
      <trkpt lat="48.83191" lon="2.25294">
        <ele>90.9</ele>
        <time>2015-05-11T18:56:46.534Z</time>
      </trkpt>
      <trkpt lat="48.83183" lon="2.2529">
        <ele>89.9</ele>
        <time>2015-05-11T18:56:48.565Z</time>
      </trkpt>
      <trkpt lat="48.83179" lon="2.25287">
        <ele>89.5</ele>
        <time>2015-05-11T18:56:49.578Z</time>
      </trkpt>
      <trkpt lat="48.83171" lon="2.25283">
        <ele>88</ele>
        <time>2015-05-11T18:56:51.002Z</time>
      </trkpt>
      <trkpt lat="48.83166" lon="2.2528">
        <ele>88.4</ele>
        <time>2015-05-11T18:56:52.564Z</time>
      </trkpt>
      <trkpt lat="48.83161" lon="2.25277">
        <ele>88.9</ele>
        <time>2015-05-11T18:56:53.570Z</time>
      </trkpt>
      <trkpt lat="48.83157" lon="2.25275">
        <ele>89</ele>
        <time>2015-05-11T18:56:54.590Z</time>
      </trkpt>
      <trkpt lat="48.83153" lon="2.25271">
        <ele>88.7</ele>
        <time>2015-05-11T18:56:55.603Z</time>
      </trkpt>
      <trkpt lat="48.83148" lon="2.25268">
        <ele>88.6</ele>
        <time>2015-05-11T18:56:56.612Z</time>
      </trkpt>
      <trkpt lat="48.83144" lon="2.25263">
        <ele>88.4</ele>
        <time>2015-05-11T18:56:57.587Z</time>
      </trkpt>
      <trkpt lat="48.83141" lon="2.25258">
        <ele>88.2</ele>
        <time>2015-05-11T18:56:58.563Z</time>
      </trkpt>
      <trkpt lat="48.83136" lon="2.2525">
        <ele>88.3</ele>
        <time>2015-05-11T18:57:00.571Z</time>
      </trkpt>
      <trkpt lat="48.83134" lon="2.25246">
        <ele>88.4</ele>
        <time>2015-05-11T18:57:01.620Z</time>
      </trkpt>
      <trkpt lat="48.8313" lon="2.25238">
        <ele>88.4</ele>
        <time>2015-05-11T18:57:03.553Z</time>
      </trkpt>
      <trkpt lat="48.83127" lon="2.25232">
        <ele>88.5</ele>
        <time>2015-05-11T18:57:04.575Z</time>
      </trkpt>
      <trkpt lat="48.83124" lon="2.25226">
        <ele>88.2</ele>
        <time>2015-05-11T18:57:05.624Z</time>
      </trkpt>
      <trkpt lat="48.83122" lon="2.25219">
        <ele>87.8</ele>
        <time>2015-05-11T18:57:06.639Z</time>
      </trkpt>
      <trkpt lat="48.83118" lon="2.25213">
        <ele>87.9</ele>
        <time>2015-05-11T18:57:07.644Z</time>
      </trkpt>
      <trkpt lat="48.83115" lon="2.25206">
        <ele>87.8</ele>
        <time>2015-05-11T18:57:08.545Z</time>
      </trkpt>
      <trkpt lat="48.83112" lon="2.252">
        <ele>88.2</ele>
        <time>2015-05-11T18:57:09.552Z</time>
      </trkpt>
      <trkpt lat="48.83109" lon="2.25193">
        <ele>88.4</ele>
        <time>2015-05-11T18:57:10.567Z</time>
      </trkpt>
      <trkpt lat="48.83106" lon="2.2518">
        <ele>88.8</ele>
        <time>2015-05-11T18:57:12.685Z</time>
      </trkpt>
      <trkpt lat="48.83104" lon="2.25175">
        <ele>88.9</ele>
        <time>2015-05-11T18:57:13.574Z</time>
      </trkpt>
      <trkpt lat="48.83099" lon="2.25164">
        <ele>89</ele>
        <time>2015-05-11T18:57:15.577Z</time>
      </trkpt>
      <trkpt lat="48.83097" lon="2.25158">
        <ele>88.8</ele>
        <time>2015-05-11T18:57:16.586Z</time>
      </trkpt>
      <trkpt lat="48.83094" lon="2.25152">
        <ele>88.8</ele>
        <time>2015-05-11T18:57:17.602Z</time>
      </trkpt>
      <trkpt lat="48.83092" lon="2.25145">
        <ele>88.7</ele>
        <time>2015-05-11T18:57:18.621Z</time>
      </trkpt>
      <trkpt lat="48.83089" lon="2.25138">
        <ele>88.3</ele>
        <time>2015-05-11T18:57:19.529Z</time>
      </trkpt>
      <trkpt lat="48.83086" lon="2.25133">
        <ele>88.5</ele>
        <time>2015-05-11T18:57:20.569Z</time>
      </trkpt>
      <trkpt lat="48.83083" lon="2.25126">
        <ele>88.4</ele>
        <time>2015-05-11T18:57:21.600Z</time>
      </trkpt>
      <trkpt lat="48.8308" lon="2.25119">
        <ele>88.3</ele>
        <time>2015-05-11T18:57:22.601Z</time>
      </trkpt>
      <trkpt lat="48.83078" lon="2.25111">
        <ele>88.9</ele>
        <time>2015-05-11T18:57:23.523Z</time>
      </trkpt>
      <trkpt lat="48.83076" lon="2.25105">
        <ele>89.6</ele>
        <time>2015-05-11T18:57:24.562Z</time>
      </trkpt>
      <trkpt lat="48.83071" lon="2.25097">
        <ele>90.5</ele>
        <time>2015-05-11T18:57:26.619Z</time>
      </trkpt>
      <trkpt lat="48.8307" lon="2.25092">
        <ele>90.3</ele>
        <time>2015-05-11T18:57:27.587Z</time>
      </trkpt>
      <trkpt lat="48.83066" lon="2.25086">
        <ele>90.1</ele>
        <time>2015-05-11T18:57:28.550Z</time>
      </trkpt>
      <trkpt lat="48.83062" lon="2.25081">
        <ele>89.8</ele>
        <time>2015-05-11T18:57:29.577Z</time>
      </trkpt>
      <trkpt lat="48.83057" lon="2.25075">
        <ele>89.7</ele>
        <time>2015-05-11T18:57:30.596Z</time>
      </trkpt>
      <trkpt lat="48.83052" lon="2.25068">
        <ele>89.8</ele>
        <time>2015-05-11T18:57:31.618Z</time>
      </trkpt>
      <trkpt lat="48.83048" lon="2.25061">
        <ele>89.7</ele>
        <time>2015-05-11T18:57:32.630Z</time>
      </trkpt>
      <trkpt lat="48.83045" lon="2.25054">
        <ele>89.9</ele>
        <time>2015-05-11T18:57:33.558Z</time>
      </trkpt>
      <trkpt lat="48.83043" lon="2.25048">
        <ele>90.6</ele>
        <time>2015-05-11T18:57:34.549Z</time>
      </trkpt>
      <trkpt lat="48.8304" lon="2.25041">
        <ele>91</ele>
        <time>2015-05-11T18:57:35.590Z</time>
      </trkpt>
      <trkpt lat="48.83034" lon="2.25033">
        <ele>90.6</ele>
        <time>2015-05-11T18:57:36.596Z</time>
      </trkpt>
      <trkpt lat="48.83031" lon="2.25025">
        <ele>90.7</ele>
        <time>2015-05-11T18:57:37.607Z</time>
      </trkpt>
      <trkpt lat="48.83028" lon="2.25018">
        <ele>90.8</ele>
        <time>2015-05-11T18:57:38.552Z</time>
      </trkpt>
      <trkpt lat="48.83024" lon="2.25011">
        <ele>91.1</ele>
        <time>2015-05-11T18:57:39.570Z</time>
      </trkpt>
      <trkpt lat="48.83019" lon="2.25002">
        <ele>91.9</ele>
        <time>2015-05-11T18:57:41.584Z</time>
      </trkpt>
      <trkpt lat="48.83016" lon="2.24995">
        <ele>92.5</ele>
        <time>2015-05-11T18:57:42.603Z</time>
      </trkpt>
      <trkpt lat="48.83008" lon="2.24987">
        <ele>91.9</ele>
        <time>2015-05-11T18:57:43.619Z</time>
      </trkpt>
      <trkpt lat="48.83001" lon="2.24981">
        <ele>91.9</ele>
        <time>2015-05-11T18:57:44.631Z</time>
      </trkpt>
      <trkpt lat="48.82996" lon="2.24974">
        <ele>91.9</ele>
        <time>2015-05-11T18:57:45.577Z</time>
      </trkpt>
      <trkpt lat="48.82992" lon="2.24969">
        <ele>92.1</ele>
        <time>2015-05-11T18:57:46.559Z</time>
      </trkpt>
      <trkpt lat="48.82989" lon="2.24963">
        <ele>92.6</ele>
        <time>2015-05-11T18:57:47.562Z</time>
      </trkpt>
      <trkpt lat="48.82987" lon="2.2495">
        <ele>93.3</ele>
        <time>2015-05-11T18:57:50.640Z</time>
      </trkpt>
      <trkpt lat="48.82986" lon="2.24946">
        <ele>93.7</ele>
        <time>2015-05-11T18:57:51.526Z</time>
      </trkpt>
      <trkpt lat="48.82983" lon="2.2494">
        <ele>94.3</ele>
        <time>2015-05-11T18:57:52.567Z</time>
      </trkpt>
      <trkpt lat="48.82974" lon="2.24934">
        <ele>93.9</ele>
        <time>2015-05-11T18:57:53.590Z</time>
      </trkpt>
      <trkpt lat="48.8297" lon="2.24925">
        <ele>94.3</ele>
        <time>2015-05-11T18:57:54.559Z</time>
      </trkpt>
      <trkpt lat="48.82968" lon="2.24917">
        <ele>94.9</ele>
        <time>2015-05-11T18:57:55.576Z</time>
      </trkpt>
      <trkpt lat="48.82966" lon="2.24911">
        <ele>95.4</ele>
        <time>2015-05-11T18:57:56.577Z</time>
      </trkpt>
      <trkpt lat="48.82963" lon="2.24905">
        <ele>95.7</ele>
        <time>2015-05-11T18:57:57.586Z</time>
      </trkpt>
      <trkpt lat="48.8296" lon="2.24895">
        <ele>96.3</ele>
        <time>2015-05-11T18:57:59.526Z</time>
      </trkpt>
      <trkpt lat="48.82959" lon="2.24891">
        <ele>96.4</ele>
        <time>2015-05-11T18:58:00.667Z</time>
      </trkpt>
      <trkpt lat="48.82957" lon="2.24885">
        <ele>96.5</ele>
        <time>2015-05-11T18:58:01.551Z</time>
      </trkpt>
      <trkpt lat="48.82954" lon="2.24878">
        <ele>96.3</ele>
        <time>2015-05-11T18:58:02.570Z</time>
      </trkpt>
      <trkpt lat="48.82951" lon="2.24869">
        <ele>95.8</ele>
        <time>2015-05-11T18:58:03.608Z</time>
      </trkpt>
      <trkpt lat="48.8295" lon="2.24861">
        <ele>95.4</ele>
        <time>2015-05-11T18:58:04.619Z</time>
      </trkpt>
      <trkpt lat="48.8295" lon="2.24853">
        <ele>95</ele>
        <time>2015-05-11T18:58:05.544Z</time>
      </trkpt>
      <trkpt lat="48.8295" lon="2.24846">
        <ele>95</ele>
        <time>2015-05-11T18:58:06.568Z</time>
      </trkpt>
      <trkpt lat="48.82948" lon="2.24838">
        <ele>95.1</ele>
        <time>2015-05-11T18:58:07.591Z</time>
      </trkpt>
      <trkpt lat="48.82945" lon="2.24831">
        <ele>95.1</ele>
        <time>2015-05-11T18:58:08.599Z</time>
      </trkpt>
      <trkpt lat="48.82942" lon="2.24823">
        <ele>95.1</ele>
        <time>2015-05-11T18:58:09.617Z</time>
      </trkpt>
      <trkpt lat="48.82939" lon="2.24815">
        <ele>95.2</ele>
        <time>2015-05-11T18:58:10.621Z</time>
      </trkpt>
      <trkpt lat="48.82935" lon="2.24809">
        <ele>95.1</ele>
        <time>2015-05-11T18:58:11.633Z</time>
      </trkpt>
      <trkpt lat="48.82934" lon="2.24801">
        <ele>94.8</ele>
        <time>2015-05-11T18:58:12.644Z</time>
      </trkpt>
      <trkpt lat="48.8293" lon="2.24793">
        <ele>94.4</ele>
        <time>2015-05-11T18:58:13.553Z</time>
      </trkpt>
      <trkpt lat="48.82928" lon="2.24784">
        <ele>94</ele>
        <time>2015-05-11T18:58:14.565Z</time>
      </trkpt>
      <trkpt lat="48.82926" lon="2.24778">
        <ele>93.9</ele>
        <time>2015-05-11T18:58:15.586Z</time>
      </trkpt>
      <trkpt lat="48.82924" lon="2.24771">
        <ele>93.5</ele>
        <time>2015-05-11T18:58:16.597Z</time>
      </trkpt>
      <trkpt lat="48.82923" lon="2.24763">
        <ele>93.2</ele>
        <time>2015-05-11T18:58:17.609Z</time>
      </trkpt>
      <trkpt lat="48.82922" lon="2.24756">
        <ele>93</ele>
        <time>2015-05-11T18:58:18.623Z</time>
      </trkpt>
      <trkpt lat="48.8292" lon="2.24749">
        <ele>93.2</ele>
        <time>2015-05-11T18:58:19.639Z</time>
      </trkpt>
      <trkpt lat="48.82918" lon="2.24742">
        <ele>93.4</ele>
        <time>2015-05-11T18:58:20.643Z</time>
      </trkpt>
      <trkpt lat="48.82914" lon="2.24735">
        <ele>93.5</ele>
        <time>2015-05-11T18:58:21.551Z</time>
      </trkpt>
      <trkpt lat="48.82912" lon="2.24728">
        <ele>93.4</ele>
        <time>2015-05-11T18:58:22.557Z</time>
      </trkpt>
      <trkpt lat="48.82911" lon="2.2472">
        <ele>93.3</ele>
        <time>2015-05-11T18:58:23.561Z</time>
      </trkpt>
      <trkpt lat="48.82912" lon="2.24713">
        <ele>93</ele>
        <time>2015-05-11T18:58:24.586Z</time>
      </trkpt>
      <trkpt lat="48.82911" lon="2.24705">
        <ele>92.5</ele>
        <time>2015-05-11T18:58:25.581Z</time>
      </trkpt>
      <trkpt lat="48.82911" lon="2.24699">
        <ele>92.3</ele>
        <time>2015-05-11T18:58:26.583Z</time>
      </trkpt>
      <trkpt lat="48.82911" lon="2.24691">
        <ele>92.2</ele>
        <time>2015-05-11T18:58:27.614Z</time>
      </trkpt>
      <trkpt lat="48.82911" lon="2.24685">
        <ele>91.8</ele>
        <time>2015-05-11T18:58:28.633Z</time>
      </trkpt>
      <trkpt lat="48.82911" lon="2.24675">
        <ele>91.5</ele>
        <time>2015-05-11T18:58:30.584Z</time>
      </trkpt>
      <trkpt lat="48.82909" lon="2.24671">
        <ele>91.5</ele>
        <time>2015-05-11T18:58:31.644Z</time>
      </trkpt>
      <trkpt lat="48.82907" lon="2.24661">
        <ele>91.3</ele>
        <time>2015-05-11T18:58:33.565Z</time>
      </trkpt>
      <trkpt lat="48.82907" lon="2.24656">
        <ele>91.2</ele>
        <time>2015-05-11T18:58:34.578Z</time>
      </trkpt>
      <trkpt lat="48.82904" lon="2.24646">
        <ele>90.4</ele>
        <time>2015-05-11T18:58:36.597Z</time>
      </trkpt>
      <trkpt lat="48.82903" lon="2.24642">
        <ele>90.3</ele>
        <time>2015-05-11T18:58:37.591Z</time>
      </trkpt>
      <trkpt lat="48.82895" lon="2.24636">
        <ele>89.9</ele>
        <time>2015-05-11T18:58:39.550Z</time>
      </trkpt>
      <trkpt lat="48.8289" lon="2.24633">
        <ele>89.8</ele>
        <time>2015-05-11T18:58:40.573Z</time>
      </trkpt>
      <trkpt lat="48.82882" lon="2.24629">
        <ele>90</ele>
        <time>2015-05-11T18:58:42.651Z</time>
      </trkpt>
      <trkpt lat="48.82879" lon="2.24627">
        <ele>90</ele>
        <time>2015-05-11T18:58:43.576Z</time>
      </trkpt>
      <trkpt lat="48.82873" lon="2.24621">
        <ele>89.7</ele>
        <time>2015-05-11T18:58:45.550Z</time>
      </trkpt>
      <trkpt lat="48.82871" lon="2.24615">
        <ele>89.8</ele>
        <time>2015-05-11T18:58:46.572Z</time>
      </trkpt>
      <trkpt lat="48.82868" lon="2.24605">
        <ele>90</ele>
        <time>2015-05-11T18:58:48.566Z</time>
      </trkpt>
      <trkpt lat="48.82866" lon="2.24599">
        <ele>91.1</ele>
        <time>2015-05-11T18:58:49.578Z</time>
      </trkpt>
      <trkpt lat="48.82863" lon="2.24588">
        <ele>93</ele>
        <time>2015-05-11T18:58:52.558Z</time>
      </trkpt>
      <trkpt lat="48.82861" lon="2.24583">
        <ele>93.1</ele>
        <time>2015-05-11T18:58:53.707Z</time>
      </trkpt>
      <trkpt lat="48.82859" lon="2.24576">
        <ele>93.6</ele>
        <time>2015-05-11T18:58:54.594Z</time>
      </trkpt>
      <trkpt lat="48.82855" lon="2.24568">
        <ele>93.4</ele>
        <time>2015-05-11T18:58:55.527Z</time>
      </trkpt>
      <trkpt lat="48.82852" lon="2.24559">
        <ele>93.6</ele>
        <time>2015-05-11T18:58:56.989Z</time>
      </trkpt>
      <trkpt lat="48.82849" lon="2.24552">
        <ele>94.1</ele>
        <time>2015-05-11T18:58:57.589Z</time>
      </trkpt>
      <trkpt lat="48.82846" lon="2.24543">
        <ele>94.4</ele>
        <time>2015-05-11T18:58:58.606Z</time>
      </trkpt>
      <trkpt lat="48.82844" lon="2.24535">
        <ele>94.9</ele>
        <time>2015-05-11T18:58:59.619Z</time>
      </trkpt>
      <trkpt lat="48.8284" lon="2.24523">
        <ele>95</ele>
        <time>2015-05-11T18:59:02.009Z</time>
      </trkpt>
      <trkpt lat="48.82839" lon="2.24517">
        <ele>95.1</ele>
        <time>2015-05-11T18:59:02.572Z</time>
      </trkpt>
      <trkpt lat="48.82837" lon="2.2451">
        <ele>95.3</ele>
        <time>2015-05-11T18:59:03.568Z</time>
      </trkpt>
      <trkpt lat="48.82835" lon="2.24502">
        <ele>95.3</ele>
        <time>2015-05-11T18:59:04.610Z</time>
      </trkpt>
      <trkpt lat="48.82833" lon="2.24495">
        <ele>95.2</ele>
        <time>2015-05-11T18:59:05.633Z</time>
      </trkpt>
      <trkpt lat="48.8283" lon="2.24488">
        <ele>95</ele>
        <time>2015-05-11T18:59:06.664Z</time>
      </trkpt>
      <trkpt lat="48.82827" lon="2.24481">
        <ele>95.1</ele>
        <time>2015-05-11T18:59:07.556Z</time>
      </trkpt>
      <trkpt lat="48.82826" lon="2.24474">
        <ele>94.9</ele>
        <time>2015-05-11T18:59:08.572Z</time>
      </trkpt>
      <trkpt lat="48.82825" lon="2.24466">
        <ele>94.3</ele>
        <time>2015-05-11T18:59:09.665Z</time>
      </trkpt>
      <trkpt lat="48.82822" lon="2.2446">
        <ele>93.9</ele>
        <time>2015-05-11T18:59:10.561Z</time>
      </trkpt>
      <trkpt lat="48.8282" lon="2.24454">
        <ele>93.8</ele>
        <time>2015-05-11T18:59:12.135Z</time>
      </trkpt>
      <trkpt lat="48.82816" lon="2.24449">
        <ele>93.8</ele>
        <time>2015-05-11T18:59:12.588Z</time>
      </trkpt>
      <trkpt lat="48.82812" lon="2.24443">
        <ele>93.7</ele>
        <time>2015-05-11T18:59:13.614Z</time>
      </trkpt>
      <trkpt lat="48.82809" lon="2.24436">
        <ele>93.6</ele>
        <time>2015-05-11T18:59:14.549Z</time>
      </trkpt>
      <trkpt lat="48.82805" lon="2.24428">
        <ele>93.4</ele>
        <time>2015-05-11T18:59:15.549Z</time>
      </trkpt>
      <trkpt lat="48.82801" lon="2.24419">
        <ele>93</ele>
        <time>2015-05-11T18:59:16.555Z</time>
      </trkpt>
      <trkpt lat="48.82798" lon="2.24411">
        <ele>92.8</ele>
        <time>2015-05-11T18:59:17.663Z</time>
      </trkpt>
      <trkpt lat="48.82795" lon="2.24402">
        <ele>92.7</ele>
        <time>2015-05-11T18:59:18.681Z</time>
      </trkpt>
      <trkpt lat="48.82792" lon="2.24394">
        <ele>92.9</ele>
        <time>2015-05-11T18:59:19.526Z</time>
      </trkpt>
      <trkpt lat="48.82788" lon="2.24386">
        <ele>92.7</ele>
        <time>2015-05-11T18:59:20.557Z</time>
      </trkpt>
      <trkpt lat="48.82784" lon="2.24377">
        <ele>92.6</ele>
        <time>2015-05-11T18:59:21.576Z</time>
      </trkpt>
      <trkpt lat="48.8278" lon="2.24369">
        <ele>92.1</ele>
        <time>2015-05-11T18:59:22.593Z</time>
      </trkpt>
      <trkpt lat="48.82777" lon="2.24362">
        <ele>91.7</ele>
        <time>2015-05-11T18:59:23.605Z</time>
      </trkpt>
      <trkpt lat="48.82774" lon="2.24353">
        <ele>91.3</ele>
        <time>2015-05-11T18:59:24.650Z</time>
      </trkpt>
      <trkpt lat="48.8277" lon="2.24346">
        <ele>91.1</ele>
        <time>2015-05-11T18:59:25.552Z</time>
      </trkpt>
      <trkpt lat="48.82767" lon="2.24339">
        <ele>90.7</ele>
        <time>2015-05-11T18:59:26.594Z</time>
      </trkpt>
      <trkpt lat="48.82763" lon="2.24326">
        <ele>90.2</ele>
        <time>2015-05-11T18:59:28.615Z</time>
      </trkpt>
      <trkpt lat="48.82761" lon="2.2432">
        <ele>90.1</ele>
        <time>2015-05-11T18:59:29.569Z</time>
      </trkpt>
      <trkpt lat="48.82758" lon="2.24314">
        <ele>89.6</ele>
        <time>2015-05-11T18:59:30.568Z</time>
      </trkpt>
      <trkpt lat="48.82756" lon="2.24308">
        <ele>88.9</ele>
        <time>2015-05-11T18:59:31.604Z</time>
      </trkpt>
      <trkpt lat="48.82752" lon="2.24296">
        <ele>87</ele>
        <time>2015-05-11T18:59:33.534Z</time>
      </trkpt>
      <trkpt lat="48.8275" lon="2.24289">
        <ele>85.8</ele>
        <time>2015-05-11T18:59:34.557Z</time>
      </trkpt>
      <trkpt lat="48.82748" lon="2.24279">
        <ele>84.6</ele>
        <time>2015-05-11T18:59:35.609Z</time>
      </trkpt>
      <trkpt lat="48.82745" lon="2.24271">
        <ele>83.7</ele>
        <time>2015-05-11T18:59:36.627Z</time>
      </trkpt>
      <trkpt lat="48.82742" lon="2.2426">
        <ele>82.7</ele>
        <time>2015-05-11T18:59:38.566Z</time>
      </trkpt>
      <trkpt lat="48.8274" lon="2.24254">
        <ele>82.3</ele>
        <time>2015-05-11T18:59:39.612Z</time>
      </trkpt>
      <trkpt lat="48.82738" lon="2.24245">
        <ele>81.7</ele>
        <time>2015-05-11T18:59:40.591Z</time>
      </trkpt>
      <trkpt lat="48.82738" lon="2.24238">
        <ele>81</ele>
        <time>2015-05-11T18:59:41.578Z</time>
      </trkpt>
      <trkpt lat="48.82738" lon="2.24226">
        <ele>80.4</ele>
        <time>2015-05-11T18:59:43.632Z</time>
      </trkpt>
      <trkpt lat="48.8274" lon="2.24221">
        <ele>80</ele>
        <time>2015-05-11T18:59:44.552Z</time>
      </trkpt>
      <trkpt lat="48.82741" lon="2.24209">
        <ele>79.5</ele>
        <time>2015-05-11T18:59:46.602Z</time>
      </trkpt>
      <trkpt lat="48.82742" lon="2.24204">
        <ele>79.7</ele>
        <time>2015-05-11T18:59:47.621Z</time>
      </trkpt>
      <trkpt lat="48.82745" lon="2.24193">
        <ele>80.4</ele>
        <time>2015-05-11T18:59:49.585Z</time>
      </trkpt>
      <trkpt lat="48.82747" lon="2.24186">
        <ele>80.7</ele>
        <time>2015-05-11T18:59:50.662Z</time>
      </trkpt>
      <trkpt lat="48.82751" lon="2.24179">
        <ele>80.8</ele>
        <time>2015-05-11T18:59:51.525Z</time>
      </trkpt>
      <trkpt lat="48.82755" lon="2.24175">
        <ele>81.1</ele>
        <time>2015-05-11T18:59:52.553Z</time>
      </trkpt>
      <trkpt lat="48.82759" lon="2.24173">
        <ele>81.2</ele>
        <time>2015-05-11T18:59:53.580Z</time>
      </trkpt>
      <trkpt lat="48.82766" lon="2.24172">
        <ele>81.2</ele>
        <time>2015-05-11T18:59:54.608Z</time>
      </trkpt>
      <trkpt lat="48.82773" lon="2.2417">
        <ele>81.2</ele>
        <time>2015-05-11T18:59:55.694Z</time>
      </trkpt>
      <trkpt lat="48.82779" lon="2.24167">
        <ele>81.2</ele>
        <time>2015-05-11T18:59:56.545Z</time>
      </trkpt>
      <trkpt lat="48.82785" lon="2.24165">
        <ele>81.4</ele>
        <time>2015-05-11T18:59:57.555Z</time>
      </trkpt>
      <trkpt lat="48.82791" lon="2.24162">
        <ele>81.6</ele>
        <time>2015-05-11T18:59:58.565Z</time>
      </trkpt>
      <trkpt lat="48.82797" lon="2.2416">
        <ele>82</ele>
        <time>2015-05-11T18:59:59.581Z</time>
      </trkpt>
      <trkpt lat="48.82802" lon="2.24158">
        <ele>82.3</ele>
        <time>2015-05-11T19:00:00.604Z</time>
      </trkpt>
      <trkpt lat="48.82807" lon="2.24155">
        <ele>82.4</ele>
        <time>2015-05-11T19:00:01.610Z</time>
      </trkpt>
      <trkpt lat="48.82814" lon="2.24154">
        <ele>82.1</ele>
        <time>2015-05-11T19:00:02.619Z</time>
      </trkpt>
      <trkpt lat="48.82819" lon="2.24147">
        <ele>82.6</ele>
        <time>2015-05-11T19:00:03.629Z</time>
      </trkpt>
      <trkpt lat="48.82823" lon="2.24141">
        <ele>82.8</ele>
        <time>2015-05-11T19:00:04.638Z</time>
      </trkpt>
      <trkpt lat="48.82826" lon="2.24137">
        <ele>82.6</ele>
        <time>2015-05-11T19:00:05.641Z</time>
      </trkpt>
      <trkpt lat="48.82831" lon="2.24135">
        <ele>82.6</ele>
        <time>2015-05-11T19:00:06.658Z</time>
      </trkpt>
      <trkpt lat="48.82836" lon="2.24132">
        <ele>82.6</ele>
        <time>2015-05-11T19:00:07.563Z</time>
      </trkpt>
      <trkpt lat="48.82838" lon="2.24127">
        <ele>82.9</ele>
        <time>2015-05-11T19:00:08.566Z</time>
      </trkpt>
      <trkpt lat="48.82842" lon="2.24121">
        <ele>83</ele>
        <time>2015-05-11T19:00:09.564Z</time>
      </trkpt>
      <trkpt lat="48.82845" lon="2.24115">
        <ele>83</ele>
        <time>2015-05-11T19:00:10.575Z</time>
      </trkpt>
      <trkpt lat="48.82848" lon="2.24109">
        <ele>82.9</ele>
        <time>2015-05-11T19:00:11.582Z</time>
      </trkpt>
      <trkpt lat="48.82851" lon="2.24103">
        <ele>82.9</ele>
        <time>2015-05-11T19:00:12.603Z</time>
      </trkpt>
      <trkpt lat="48.82855" lon="2.24099">
        <ele>82.8</ele>
        <time>2015-05-11T19:00:13.609Z</time>
      </trkpt>
      <trkpt lat="48.8286" lon="2.24094">
        <ele>82.8</ele>
        <time>2015-05-11T19:00:14.629Z</time>
      </trkpt>
      <trkpt lat="48.82865" lon="2.2409">
        <ele>83</ele>
        <time>2015-05-11T19:00:15.643Z</time>
      </trkpt>
      <trkpt lat="48.82869" lon="2.24087">
        <ele>83</ele>
        <time>2015-05-11T19:00:16.561Z</time>
      </trkpt>
      <trkpt lat="48.82872" lon="2.24076">
        <ele>82.2</ele>
        <time>2015-05-11T19:00:18.604Z</time>
      </trkpt>
      <trkpt lat="48.82872" lon="2.24066">
        <ele>80.8</ele>
        <time>2015-05-11T19:00:19.610Z</time>
      </trkpt>
      <trkpt lat="48.82873" lon="2.24059">
        <ele>79.6</ele>
        <time>2015-05-11T19:00:20.641Z</time>
      </trkpt>
      <trkpt lat="48.82877" lon="2.24055">
        <ele>79.4</ele>
        <time>2015-05-11T19:00:21.562Z</time>
      </trkpt>
      <trkpt lat="48.82883" lon="2.24049">
        <ele>80.1</ele>
        <time>2015-05-11T19:00:23.569Z</time>
      </trkpt>
      <trkpt lat="48.82886" lon="2.24044">
        <ele>80</ele>
        <time>2015-05-11T19:00:24.597Z</time>
      </trkpt>
      <trkpt lat="48.82889" lon="2.2404">
        <ele>79.6</ele>
        <time>2015-05-11T19:00:25.612Z</time>
      </trkpt>
      <trkpt lat="48.82893" lon="2.24036">
        <ele>79.4</ele>
        <time>2015-05-11T19:00:26.622Z</time>
      </trkpt>
      <trkpt lat="48.82898" lon="2.24033">
        <ele>79.4</ele>
        <time>2015-05-11T19:00:27.540Z</time>
      </trkpt>
      <trkpt lat="48.82901" lon="2.24029">
        <ele>80.2</ele>
        <time>2015-05-11T19:00:28.568Z</time>
      </trkpt>
      <trkpt lat="48.82905" lon="2.24026">
        <ele>81.4</ele>
        <time>2015-05-11T19:00:29.603Z</time>
      </trkpt>
      <trkpt lat="48.82912" lon="2.24024">
        <ele>82.7</ele>
        <time>2015-05-11T19:00:30.610Z</time>
      </trkpt>
      <trkpt lat="48.82919" lon="2.24022">
        <ele>83.6</ele>
        <time>2015-05-11T19:00:31.651Z</time>
      </trkpt>
      <trkpt lat="48.82927" lon="2.2402">
        <ele>84.4</ele>
        <time>2015-05-11T19:00:32.637Z</time>
      </trkpt>
      <trkpt lat="48.82933" lon="2.2402">
        <ele>85</ele>
        <time>2015-05-11T19:00:33.562Z</time>
      </trkpt>
      <trkpt lat="48.82939" lon="2.24019">
        <ele>85.3</ele>
        <time>2015-05-11T19:00:34.570Z</time>
      </trkpt>
      <trkpt lat="48.82945" lon="2.24019">
        <ele>85.4</ele>
        <time>2015-05-11T19:00:35.599Z</time>
      </trkpt>
      <trkpt lat="48.82949" lon="2.24015">
        <ele>84.7</ele>
        <time>2015-05-11T19:00:36.611Z</time>
      </trkpt>
      <trkpt lat="48.82953" lon="2.24007">
        <ele>83.7</ele>
        <time>2015-05-11T19:00:37.655Z</time>
      </trkpt>
      <trkpt lat="48.8296" lon="2.24005">
        <ele>83.9</ele>
        <time>2015-05-11T19:00:38.659Z</time>
      </trkpt>
      <trkpt lat="48.82966" lon="2.24002">
        <ele>84.5</ele>
        <time>2015-05-11T19:00:39.553Z</time>
      </trkpt>
      <trkpt lat="48.82972" lon="2.23999">
        <ele>85</ele>
        <time>2015-05-11T19:00:40.598Z</time>
      </trkpt>
      <trkpt lat="48.82978" lon="2.23997">
        <ele>85.6</ele>
        <time>2015-05-11T19:00:41.570Z</time>
      </trkpt>
      <trkpt lat="48.82984" lon="2.23995">
        <ele>85.6</ele>
        <time>2015-05-11T19:00:42.574Z</time>
      </trkpt>
      <trkpt lat="48.82992" lon="2.23989">
        <ele>86.7</ele>
        <time>2015-05-11T19:00:44.599Z</time>
      </trkpt>
      <trkpt lat="48.82996" lon="2.23987">
        <ele>87</ele>
        <time>2015-05-11T19:00:45.532Z</time>
      </trkpt>
      <trkpt lat="48.83004" lon="2.23981">
        <ele>87.4</ele>
        <time>2015-05-11T19:00:47.568Z</time>
      </trkpt>
      <trkpt lat="48.83009" lon="2.23977">
        <ele>87.7</ele>
        <time>2015-05-11T19:00:48.592Z</time>
      </trkpt>
      <trkpt lat="48.83013" lon="2.23972">
        <ele>87.4</ele>
        <time>2015-05-11T19:00:49.554Z</time>
      </trkpt>
      <trkpt lat="48.83015" lon="2.23964">
        <ele>86.1</ele>
        <time>2015-05-11T19:00:50.561Z</time>
      </trkpt>
      <trkpt lat="48.83017" lon="2.23958">
        <ele>85.4</ele>
        <time>2015-05-11T19:00:51.576Z</time>
      </trkpt>
      <trkpt lat="48.83017" lon="2.2395">
        <ele>85.3</ele>
        <time>2015-05-11T19:00:52.592Z</time>
      </trkpt>
      <trkpt lat="48.83018" lon="2.23939">
        <ele>85.9</ele>
        <time>2015-05-11T19:00:54.652Z</time>
      </trkpt>
      <trkpt lat="48.83017" lon="2.23934">
        <ele>86.2</ele>
        <time>2015-05-11T19:00:55.567Z</time>
      </trkpt>
      <trkpt lat="48.83017" lon="2.23922">
        <ele>85.5</ele>
        <time>2015-05-11T19:00:57.562Z</time>
      </trkpt>
      <trkpt lat="48.83016" lon="2.23915">
        <ele>86</ele>
        <time>2015-05-11T19:00:58.591Z</time>
      </trkpt>
      <trkpt lat="48.83016" lon="2.23904">
        <ele>86.3</ele>
        <time>2015-05-11T19:01:00.658Z</time>
      </trkpt>
      <trkpt lat="48.83018" lon="2.23899">
        <ele>86.4</ele>
        <time>2015-05-11T19:01:01.664Z</time>
      </trkpt>
      <trkpt lat="48.83023" lon="2.23888">
        <ele>86.9</ele>
        <time>2015-05-11T19:01:04.592Z</time>
      </trkpt>
      <trkpt lat="48.83023" lon="2.23885">
        <ele>86.7</ele>
        <time>2015-05-11T19:01:05.585Z</time>
      </trkpt>
      <trkpt lat="48.83021" lon="2.23875">
        <ele>87</ele>
        <time>2015-05-11T19:01:08.590Z</time>
      </trkpt>
      <trkpt lat="48.83019" lon="2.2387">
        <ele>86.9</ele>
        <time>2015-05-11T19:01:09.610Z</time>
      </trkpt>
      <trkpt lat="48.83016" lon="2.23861">
        <ele>86.7</ele>
        <time>2015-05-11T19:01:11.558Z</time>
      </trkpt>
      <trkpt lat="48.83015" lon="2.23857">
        <ele>86</ele>
        <time>2015-05-11T19:01:12.621Z</time>
      </trkpt>
      <trkpt lat="48.83011" lon="2.23848">
        <ele>85.4</ele>
        <time>2015-05-11T19:01:14.625Z</time>
      </trkpt>
      <trkpt lat="48.83009" lon="2.23843">
        <ele>85.7</ele>
        <time>2015-05-11T19:01:15.629Z</time>
      </trkpt>
      <trkpt lat="48.83004" lon="2.23832">
        <ele>86</ele>
        <time>2015-05-11T19:01:17.587Z</time>
      </trkpt>
      <trkpt lat="48.83002" lon="2.23828">
        <ele>85.6</ele>
        <time>2015-05-11T19:01:18.621Z</time>
      </trkpt>
      <trkpt lat="48.82998" lon="2.23819">
        <ele>85.6</ele>
        <time>2015-05-11T19:01:20.577Z</time>
      </trkpt>
      <trkpt lat="48.82996" lon="2.23814">
        <ele>85.4</ele>
        <time>2015-05-11T19:01:21.568Z</time>
      </trkpt>
      <trkpt lat="48.82992" lon="2.23804">
        <ele>85.3</ele>
        <time>2015-05-11T19:01:23.606Z</time>
      </trkpt>
      <trkpt lat="48.82991" lon="2.238">
        <ele>85.3</ele>
        <time>2015-05-11T19:01:24.621Z</time>
      </trkpt>
      <trkpt lat="48.82988" lon="2.2379">
        <ele>84.8</ele>
        <time>2015-05-11T19:01:26.728Z</time>
      </trkpt>
      <trkpt lat="48.82987" lon="2.23785">
        <ele>84.4</ele>
        <time>2015-05-11T19:01:27.566Z</time>
      </trkpt>
      <trkpt lat="48.82984" lon="2.23776">
        <ele>84.8</ele>
        <time>2015-05-11T19:01:29.585Z</time>
      </trkpt>
      <trkpt lat="48.82982" lon="2.23771">
        <ele>85.6</ele>
        <time>2015-05-11T19:01:30.613Z</time>
      </trkpt>
      <trkpt lat="48.8298" lon="2.23765">
        <ele>85.8</ele>
        <time>2015-05-11T19:01:31.629Z</time>
      </trkpt>
      <trkpt lat="48.82977" lon="2.23758">
        <ele>86.4</ele>
        <time>2015-05-11T19:01:32.639Z</time>
      </trkpt>
      <trkpt lat="48.82974" lon="2.23751">
        <ele>87</ele>
        <time>2015-05-11T19:01:33.564Z</time>
      </trkpt>
      <trkpt lat="48.8297" lon="2.23745">
        <ele>87.7</ele>
        <time>2015-05-11T19:01:34.561Z</time>
      </trkpt>
      <trkpt lat="48.82967" lon="2.23739">
        <ele>88.5</ele>
        <time>2015-05-11T19:01:35.584Z</time>
      </trkpt>
      <trkpt lat="48.82965" lon="2.23733">
        <ele>89</ele>
        <time>2015-05-11T19:01:36.639Z</time>
      </trkpt>
      <trkpt lat="48.8296" lon="2.23723">
        <ele>89.2</ele>
        <time>2015-05-11T19:01:38.654Z</time>
      </trkpt>
      <trkpt lat="48.82959" lon="2.23718">
        <ele>89.4</ele>
        <time>2015-05-11T19:01:39.610Z</time>
      </trkpt>
      <trkpt lat="48.82956" lon="2.23707">
        <ele>90.2</ele>
        <time>2015-05-11T19:01:41.581Z</time>
      </trkpt>
      <trkpt lat="48.82958" lon="2.23701">
        <ele>91.4</ele>
        <time>2015-05-11T19:01:42.609Z</time>
      </trkpt>
      <trkpt lat="48.82956" lon="2.23689">
        <ele>93.3</ele>
        <time>2015-05-11T19:01:44.574Z</time>
      </trkpt>
      <trkpt lat="48.82953" lon="2.23679">
        <ele>95</ele>
        <time>2015-05-11T19:01:45.584Z</time>
      </trkpt>
      <trkpt lat="48.82949" lon="2.23668">
        <ele>97</ele>
        <time>2015-05-11T19:01:46.599Z</time>
      </trkpt>
      <trkpt lat="48.8294" lon="2.23661">
        <ele>97.7</ele>
        <time>2015-05-11T19:01:47.611Z</time>
      </trkpt>
      <trkpt lat="48.82937" lon="2.23653">
        <ele>97.9</ele>
        <time>2015-05-11T19:01:48.665Z</time>
      </trkpt>
      <trkpt lat="48.82933" lon="2.23648">
        <ele>97.8</ele>
        <time>2015-05-11T19:01:49.566Z</time>
      </trkpt>
      <trkpt lat="48.82928" lon="2.23637">
        <ele>98.4</ele>
        <time>2015-05-11T19:01:53.163Z</time>
      </trkpt>
      <trkpt lat="48.82929" lon="2.23634">
        <ele>98.7</ele>
        <time>2015-05-11T19:01:53.641Z</time>
      </trkpt>
      <trkpt lat="48.82931" lon="2.23628">
        <ele>98.5</ele>
        <time>2015-05-11T19:01:54.674Z</time>
      </trkpt>
      <trkpt lat="48.82933" lon="2.23621">
        <ele>98.7</ele>
        <time>2015-05-11T19:01:55.590Z</time>
      </trkpt>
      <trkpt lat="48.82935" lon="2.23614">
        <ele>98.8</ele>
        <time>2015-05-11T19:01:56.577Z</time>
      </trkpt>
      <trkpt lat="48.82937" lon="2.23608">
        <ele>98.9</ele>
        <time>2015-05-11T19:01:57.569Z</time>
      </trkpt>
      <trkpt lat="48.82941" lon="2.23601">
        <ele>99.2</ele>
        <time>2015-05-11T19:01:58.583Z</time>
      </trkpt>
      <trkpt lat="48.82946" lon="2.23596">
        <ele>99.1</ele>
        <time>2015-05-11T19:01:59.598Z</time>
      </trkpt>
      <trkpt lat="48.8295" lon="2.2359">
        <ele>99.2</ele>
        <time>2015-05-11T19:02:00.602Z</time>
      </trkpt>
      <trkpt lat="48.82953" lon="2.23585">
        <ele>99.6</ele>
        <time>2015-05-11T19:02:01.621Z</time>
      </trkpt>
      <trkpt lat="48.82958" lon="2.23579">
        <ele>100.2</ele>
        <time>2015-05-11T19:02:02.629Z</time>
      </trkpt>
      <trkpt lat="48.8296" lon="2.23574">
        <ele>100.7</ele>
        <time>2015-05-11T19:02:03.632Z</time>
      </trkpt>
      <trkpt lat="48.82964" lon="2.23569">
        <ele>101.1</ele>
        <time>2015-05-11T19:02:04.564Z</time>
      </trkpt>
      <trkpt lat="48.82968" lon="2.23565">
        <ele>101</ele>
        <time>2015-05-11T19:02:05.535Z</time>
      </trkpt>
      <trkpt lat="48.82972" lon="2.23557">
        <ele>100.9</ele>
        <time>2015-05-11T19:02:07.653Z</time>
      </trkpt>
      <trkpt lat="48.82973" lon="2.23553">
        <ele>100.8</ele>
        <time>2015-05-11T19:02:08.584Z</time>
      </trkpt>
      <trkpt lat="48.82975" lon="2.23541">
        <ele>100.1</ele>
        <time>2015-05-11T19:02:11.647Z</time>
      </trkpt>
      <trkpt lat="48.82976" lon="2.23537">
        <ele>99.6</ele>
        <time>2015-05-11T19:02:12.681Z</time>
      </trkpt>
      <trkpt lat="48.82981" lon="2.2353">
        <ele>99.2</ele>
        <time>2015-05-11T19:02:14.588Z</time>
      </trkpt>
      <trkpt lat="48.82985" lon="2.23528">
        <ele>99.1</ele>
        <time>2015-05-11T19:02:15.638Z</time>
      </trkpt>
      <trkpt lat="48.82987" lon="2.23526">
        <ele>99.2</ele>
        <time>2015-05-11T19:02:16.564Z</time>
      </trkpt>
      <trkpt lat="48.82991" lon="2.23517">
        <ele>99</ele>
        <time>2015-05-11T19:02:19.613Z</time>
      </trkpt>
      <trkpt lat="48.82997" lon="2.23512">
        <ele>99.2</ele>
        <time>2015-05-11T19:02:21.567Z</time>
      </trkpt>
      <trkpt lat="48.83" lon="2.23509">
        <ele>99.4</ele>
        <time>2015-05-11T19:02:22.647Z</time>
      </trkpt>
      <trkpt lat="48.83008" lon="2.23505">
        <ele>99.1</ele>
        <time>2015-05-11T19:02:24.614Z</time>
      </trkpt>
      <trkpt lat="48.83012" lon="2.23503">
        <ele>99.2</ele>
        <time>2015-05-11T19:02:25.615Z</time>
      </trkpt>
      <trkpt lat="48.83018" lon="2.23498">
        <ele>99.2</ele>
        <time>2015-05-11T19:02:27.580Z</time>
      </trkpt>
      <trkpt lat="48.8302" lon="2.23495">
        <ele>99.2</ele>
        <time>2015-05-11T19:02:28.623Z</time>
      </trkpt>
      <trkpt lat="48.83028" lon="2.23491">
        <ele>99.2</ele>
        <time>2015-05-11T19:02:30.591Z</time>
      </trkpt>
      <trkpt lat="48.83032" lon="2.23489">
        <ele>99.6</ele>
        <time>2015-05-11T19:02:31.590Z</time>
      </trkpt>
      <trkpt lat="48.83038" lon="2.23483">
        <ele>98.9</ele>
        <time>2015-05-11T19:02:33.566Z</time>
      </trkpt>
      <trkpt lat="48.83041" lon="2.23481">
        <ele>98.8</ele>
        <time>2015-05-11T19:02:34.581Z</time>
      </trkpt>
      <trkpt lat="48.83048" lon="2.23476">
        <ele>99.2</ele>
        <time>2015-05-11T19:02:36.614Z</time>
      </trkpt>
      <trkpt lat="48.83054" lon="2.23474">
        <ele>99.1</ele>
        <time>2015-05-11T19:02:37.589Z</time>
      </trkpt>
      <trkpt lat="48.83058" lon="2.2347">
        <ele>99.3</ele>
        <time>2015-05-11T19:02:38.576Z</time>
      </trkpt>
      <trkpt lat="48.83062" lon="2.23466">
        <ele>99.2</ele>
        <time>2015-05-11T19:02:39.588Z</time>
      </trkpt>
      <trkpt lat="48.83067" lon="2.23462">
        <ele>99.5</ele>
        <time>2015-05-11T19:02:40.597Z</time>
      </trkpt>
      <trkpt lat="48.8307" lon="2.23458">
        <ele>99.6</ele>
        <time>2015-05-11T19:02:41.545Z</time>
      </trkpt>
      <trkpt lat="48.83075" lon="2.2345">
        <ele>99.6</ele>
        <time>2015-05-11T19:02:43.545Z</time>
      </trkpt>
      <trkpt lat="48.83077" lon="2.23446">
        <ele>99.5</ele>
        <time>2015-05-11T19:02:44.659Z</time>
      </trkpt>
      <trkpt lat="48.83079" lon="2.23435">
        <ele>98.6</ele>
        <time>2015-05-11T19:02:46.605Z</time>
      </trkpt>
      <trkpt lat="48.8308" lon="2.2343">
        <ele>98</ele>
        <time>2015-05-11T19:02:47.610Z</time>
      </trkpt>
      <trkpt lat="48.83079" lon="2.23418">
        <ele>96.5</ele>
        <time>2015-05-11T19:02:50.564Z</time>
      </trkpt>
      <trkpt lat="48.83078" lon="2.23413">
        <ele>95.8</ele>
        <time>2015-05-11T19:02:51.569Z</time>
      </trkpt>
      <trkpt lat="48.83076" lon="2.234">
        <ele>94.9</ele>
        <time>2015-05-11T19:02:54.638Z</time>
      </trkpt>
      <trkpt lat="48.83077" lon="2.23396">
        <ele>95</ele>
        <time>2015-05-11T19:02:55.687Z</time>
      </trkpt>
      <trkpt lat="48.83076" lon="2.23385">
        <ele>95</ele>
        <time>2015-05-11T19:02:58.562Z</time>
      </trkpt>
      <trkpt lat="48.83075" lon="2.2338">
        <ele>95.2</ele>
        <time>2015-05-11T19:02:59.572Z</time>
      </trkpt>
      <trkpt lat="48.83071" lon="2.23369">
        <ele>95</ele>
        <time>2015-05-11T19:03:01.601Z</time>
      </trkpt>
      <trkpt lat="48.83069" lon="2.23362">
        <ele>94.6</ele>
        <time>2015-05-11T19:03:02.648Z</time>
      </trkpt>
      <trkpt lat="48.83069" lon="2.23349">
        <ele>94.1</ele>
        <time>2015-05-11T19:03:04.530Z</time>
      </trkpt>
      <trkpt lat="48.83067" lon="2.23343">
        <ele>94.2</ele>
        <time>2015-05-11T19:03:05.721Z</time>
      </trkpt>
      <trkpt lat="48.83067" lon="2.23336">
        <ele>93.6</ele>
        <time>2015-05-11T19:03:06.560Z</time>
      </trkpt>
      <trkpt lat="48.83067" lon="2.23328">
        <ele>93.3</ele>
        <time>2015-05-11T19:03:07.571Z</time>
      </trkpt>
      <trkpt lat="48.83068" lon="2.23322">
        <ele>93.2</ele>
        <time>2015-05-11T19:03:08.597Z</time>
      </trkpt>
      <trkpt lat="48.83065" lon="2.23314">
        <ele>93.4</ele>
        <time>2015-05-11T19:03:09.607Z</time>
      </trkpt>
      <trkpt lat="48.83062" lon="2.23307">
        <ele>93.8</ele>
        <time>2015-05-11T19:03:10.557Z</time>
      </trkpt>
      <trkpt lat="48.8306" lon="2.23302">
        <ele>93.8</ele>
        <time>2015-05-11T19:03:11.582Z</time>
      </trkpt>
      <trkpt lat="48.83055" lon="2.23296">
        <ele>93.8</ele>
        <time>2015-05-11T19:03:12.592Z</time>
      </trkpt>
      <trkpt lat="48.83051" lon="2.23289">
        <ele>93.9</ele>
        <time>2015-05-11T19:03:13.511Z</time>
      </trkpt>
      <trkpt lat="48.83048" lon="2.23281">
        <ele>93.8</ele>
        <time>2015-05-11T19:03:14.528Z</time>
      </trkpt>
      <trkpt lat="48.83047" lon="2.23271">
        <ele>92.8</ele>
        <time>2015-05-11T19:03:15.556Z</time>
      </trkpt>
      <trkpt lat="48.83043" lon="2.23261">
        <ele>92</ele>
        <time>2015-05-11T19:03:16.606Z</time>
      </trkpt>
      <trkpt lat="48.83043" lon="2.23255">
        <ele>91.7</ele>
        <time>2015-05-11T19:03:17.521Z</time>
      </trkpt>
      <trkpt lat="48.83043" lon="2.23248">
        <ele>92.1</ele>
        <time>2015-05-11T19:03:18.579Z</time>
      </trkpt>
      <trkpt lat="48.8304" lon="2.2324">
        <ele>92.8</ele>
        <time>2015-05-11T19:03:19.590Z</time>
      </trkpt>
      <trkpt lat="48.83036" lon="2.23232">
        <ele>93.5</ele>
        <time>2015-05-11T19:03:20.625Z</time>
      </trkpt>
      <trkpt lat="48.83034" lon="2.23225">
        <ele>94</ele>
        <time>2015-05-11T19:03:21.635Z</time>
      </trkpt>
      <trkpt lat="48.8303" lon="2.23219">
        <ele>94.4</ele>
        <time>2015-05-11T19:03:22.555Z</time>
      </trkpt>
      <trkpt lat="48.83026" lon="2.23213">
        <ele>94.7</ele>
        <time>2015-05-11T19:03:23.572Z</time>
      </trkpt>
      <trkpt lat="48.83022" lon="2.23205">
        <ele>94.9</ele>
        <time>2015-05-11T19:03:24.601Z</time>
      </trkpt>
      <trkpt lat="48.83021" lon="2.23194">
        <ele>94.3</ele>
        <time>2015-05-11T19:03:25.590Z</time>
      </trkpt>
      <trkpt lat="48.83017" lon="2.23181">
        <ele>93.5</ele>
        <time>2015-05-11T19:03:26.596Z</time>
      </trkpt>
      <trkpt lat="48.8301" lon="2.23168">
        <ele>92.9</ele>
        <time>2015-05-11T19:03:27.609Z</time>
      </trkpt>
      <trkpt lat="48.83" lon="2.23157">
        <ele>91.9</ele>
        <time>2015-05-11T19:03:28.650Z</time>
      </trkpt>
      <trkpt lat="48.82997" lon="2.23146">
        <ele>91.8</ele>
        <time>2015-05-11T19:03:29.564Z</time>
      </trkpt>
      <trkpt lat="48.82994" lon="2.23136">
        <ele>92</ele>
        <time>2015-05-11T19:03:30.609Z</time>
      </trkpt>
      <trkpt lat="48.82991" lon="2.23127">
        <ele>91.4</ele>
        <time>2015-05-11T19:03:31.612Z</time>
      </trkpt>
      <trkpt lat="48.82989" lon="2.23119">
        <ele>90.6</ele>
        <time>2015-05-11T19:03:32.628Z</time>
      </trkpt>
      <trkpt lat="48.82988" lon="2.23111">
        <ele>90.1</ele>
        <time>2015-05-11T19:03:33.638Z</time>
      </trkpt>
      <trkpt lat="48.82988" lon="2.23103">
        <ele>89.7</ele>
        <time>2015-05-11T19:03:34.642Z</time>
      </trkpt>
      <trkpt lat="48.82988" lon="2.23095">
        <ele>89.5</ele>
        <time>2015-05-11T19:03:35.535Z</time>
      </trkpt>
      <trkpt lat="48.82989" lon="2.23086">
        <ele>89.2</ele>
        <time>2015-05-11T19:03:36.609Z</time>
      </trkpt>
      <trkpt lat="48.82989" lon="2.23078">
        <ele>89.3</ele>
        <time>2015-05-11T19:03:37.611Z</time>
      </trkpt>
      <trkpt lat="48.82988" lon="2.23069">
        <ele>88.8</ele>
        <time>2015-05-11T19:03:38.627Z</time>
      </trkpt>
      <trkpt lat="48.82987" lon="2.2306">
        <ele>88.8</ele>
        <time>2015-05-11T19:03:39.635Z</time>
      </trkpt>
      <trkpt lat="48.82987" lon="2.23051">
        <ele>88.8</ele>
        <time>2015-05-11T19:03:40.643Z</time>
      </trkpt>
      <trkpt lat="48.82986" lon="2.23042">
        <ele>88.5</ele>
        <time>2015-05-11T19:03:41.550Z</time>
      </trkpt>
      <trkpt lat="48.82985" lon="2.23034">
        <ele>88.3</ele>
        <time>2015-05-11T19:03:42.596Z</time>
      </trkpt>
      <trkpt lat="48.82984" lon="2.23026">
        <ele>87.9</ele>
        <time>2015-05-11T19:03:43.605Z</time>
      </trkpt>
      <trkpt lat="48.82983" lon="2.23018">
        <ele>87.7</ele>
        <time>2015-05-11T19:03:44.628Z</time>
      </trkpt>
      <trkpt lat="48.82981" lon="2.2301">
        <ele>87.3</ele>
        <time>2015-05-11T19:03:45.634Z</time>
      </trkpt>
      <trkpt lat="48.82979" lon="2.23003">
        <ele>86.9</ele>
        <time>2015-05-11T19:03:46.563Z</time>
      </trkpt>
      <trkpt lat="48.82977" lon="2.22995">
        <ele>86.5</ele>
        <time>2015-05-11T19:03:47.557Z</time>
      </trkpt>
      <trkpt lat="48.82975" lon="2.22988">
        <ele>86.1</ele>
        <time>2015-05-11T19:03:48.597Z</time>
      </trkpt>
      <trkpt lat="48.82972" lon="2.22981">
        <ele>85.4</ele>
        <time>2015-05-11T19:03:49.607Z</time>
      </trkpt>
      <trkpt lat="48.8297" lon="2.22974">
        <ele>85.1</ele>
        <time>2015-05-11T19:03:50.615Z</time>
      </trkpt>
      <trkpt lat="48.82967" lon="2.22967">
        <ele>85.2</ele>
        <time>2015-05-11T19:03:51.631Z</time>
      </trkpt>
      <trkpt lat="48.82965" lon="2.2296">
        <ele>85.4</ele>
        <time>2015-05-11T19:03:52.635Z</time>
      </trkpt>
      <trkpt lat="48.82963" lon="2.22954">
        <ele>85.2</ele>
        <time>2015-05-11T19:03:53.646Z</time>
      </trkpt>
      <trkpt lat="48.82961" lon="2.22947">
        <ele>85.1</ele>
        <time>2015-05-11T19:03:54.659Z</time>
      </trkpt>
      <trkpt lat="48.82959" lon="2.2294">
        <ele>84.7</ele>
        <time>2015-05-11T19:03:55.563Z</time>
      </trkpt>
      <trkpt lat="48.82957" lon="2.22933">
        <ele>84.4</ele>
        <time>2015-05-11T19:03:56.573Z</time>
      </trkpt>
      <trkpt lat="48.82955" lon="2.22927">
        <ele>84.6</ele>
        <time>2015-05-11T19:03:57.575Z</time>
      </trkpt>
      <trkpt lat="48.82953" lon="2.22922">
        <ele>84.7</ele>
        <time>2015-05-11T19:03:58.579Z</time>
      </trkpt>
      <trkpt lat="48.8295" lon="2.22916">
        <ele>84.5</ele>
        <time>2015-05-11T19:03:59.584Z</time>
      </trkpt>
      <trkpt lat="48.82946" lon="2.22911">
        <ele>84.8</ele>
        <time>2015-05-11T19:04:00.620Z</time>
      </trkpt>
      <trkpt lat="48.82941" lon="2.22902">
        <ele>84.8</ele>
        <time>2015-05-11T19:04:02.553Z</time>
      </trkpt>
      <trkpt lat="48.82938" lon="2.22898">
        <ele>85.1</ele>
        <time>2015-05-11T19:04:03.591Z</time>
      </trkpt>
      <trkpt lat="48.82933" lon="2.22892">
        <ele>85.2</ele>
        <time>2015-05-11T19:04:05.586Z</time>
      </trkpt>
      <trkpt lat="48.82929" lon="2.22888">
        <ele>86.6</ele>
        <time>2015-05-11T19:04:06.608Z</time>
      </trkpt>
      <trkpt lat="48.82922" lon="2.2288">
        <ele>87.7</ele>
        <time>2015-05-11T19:04:10.633Z</time>
      </trkpt>
      <trkpt lat="48.8292" lon="2.22877">
        <ele>87.9</ele>
        <time>2015-05-11T19:04:11.683Z</time>
      </trkpt>
      <trkpt lat="48.82916" lon="2.2287">
        <ele>88.2</ele>
        <time>2015-05-11T19:04:13.597Z</time>
      </trkpt>
      <trkpt lat="48.82913" lon="2.22866">
        <ele>88.5</ele>
        <time>2015-05-11T19:04:14.585Z</time>
      </trkpt>
      <trkpt lat="48.82911" lon="2.22855">
        <ele>88.2</ele>
        <time>2015-05-11T19:04:17.632Z</time>
      </trkpt>
      <trkpt lat="48.82912" lon="2.22851">
        <ele>87.9</ele>
        <time>2015-05-11T19:04:18.683Z</time>
      </trkpt>
      <trkpt lat="48.82908" lon="2.2284">
        <ele>87</ele>
        <time>2015-05-11T19:04:21.602Z</time>
      </trkpt>
      <trkpt lat="48.82907" lon="2.22838">
        <ele>86.5</ele>
        <time>2015-05-11T19:04:22.602Z</time>
      </trkpt>
      <trkpt lat="48.82901" lon="2.22828">
        <ele>86.4</ele>
        <time>2015-05-11T19:04:25.568Z</time>
      </trkpt>
      <trkpt lat="48.82899" lon="2.22824">
        <ele>86.6</ele>
        <time>2015-05-11T19:04:26.594Z</time>
      </trkpt>
      <trkpt lat="48.82896" lon="2.22816">
        <ele>86.4</ele>
        <time>2015-05-11T19:04:28.612Z</time>
      </trkpt>
      <trkpt lat="48.82895" lon="2.22811">
        <ele>86.2</ele>
        <time>2015-05-11T19:04:29.662Z</time>
      </trkpt>
      <trkpt lat="48.82892" lon="2.22802">
        <ele>85.6</ele>
        <time>2015-05-11T19:04:32.309Z</time>
      </trkpt>
      <trkpt lat="48.82891" lon="2.22797">
        <ele>85.3</ele>
        <time>2015-05-11T19:04:32.624Z</time>
      </trkpt>
      <trkpt lat="48.82889" lon="2.22787">
        <ele>84.8</ele>
        <time>2015-05-11T19:04:34.633Z</time>
      </trkpt>
      <trkpt lat="48.82887" lon="2.22782">
        <ele>84.9</ele>
        <time>2015-05-11T19:04:35.636Z</time>
      </trkpt>
      <trkpt lat="48.82884" lon="2.22775">
        <ele>86</ele>
        <time>2015-05-11T19:04:37.346Z</time>
      </trkpt>
      <trkpt lat="48.82882" lon="2.22769">
        <ele>87.2</ele>
        <time>2015-05-11T19:04:37.560Z</time>
      </trkpt>
      <trkpt lat="48.82879" lon="2.22761">
        <ele>88.3</ele>
        <time>2015-05-11T19:04:38.573Z</time>
      </trkpt>
      <trkpt lat="48.82878" lon="2.22756">
        <ele>88.4</ele>
        <time>2015-05-11T19:04:39.577Z</time>
      </trkpt>
      <trkpt lat="48.82875" lon="2.22746">
        <ele>88</ele>
        <time>2015-05-11T19:04:42.463Z</time>
      </trkpt>
      <trkpt lat="48.82874" lon="2.22742">
        <ele>87.6</ele>
        <time>2015-05-11T19:04:42.609Z</time>
      </trkpt>
      <trkpt lat="48.82871" lon="2.22732">
        <ele>87.7</ele>
        <time>2015-05-11T19:04:44.582Z</time>
      </trkpt>
      <trkpt lat="48.82869" lon="2.22727">
        <ele>87.8</ele>
        <time>2015-05-11T19:04:45.612Z</time>
      </trkpt>
      <trkpt lat="48.82867" lon="2.22718">
        <ele>87.2</ele>
        <time>2015-05-11T19:04:47.634Z</time>
      </trkpt>
      <trkpt lat="48.82866" lon="2.22713">
        <ele>87</ele>
        <time>2015-05-11T19:04:48.678Z</time>
      </trkpt>
      <trkpt lat="48.82864" lon="2.22702">
        <ele>86.4</ele>
        <time>2015-05-11T19:04:50.585Z</time>
      </trkpt>
      <trkpt lat="48.82862" lon="2.22696">
        <ele>86.5</ele>
        <time>2015-05-11T19:04:51.590Z</time>
      </trkpt>
      <trkpt lat="48.82858" lon="2.22685">
        <ele>86.4</ele>
        <time>2015-05-11T19:04:53.684Z</time>
      </trkpt>
      <trkpt lat="48.82856" lon="2.2268">
        <ele>86.3</ele>
        <time>2015-05-11T19:04:54.671Z</time>
      </trkpt>
      <trkpt lat="48.82852" lon="2.22671">
        <ele>85.2</ele>
        <time>2015-05-11T19:04:56.568Z</time>
      </trkpt>
      <trkpt lat="48.82849" lon="2.22665">
        <ele>84.9</ele>
        <time>2015-05-11T19:04:57.640Z</time>
      </trkpt>
      <trkpt lat="48.82846" lon="2.22652">
        <ele>85</ele>
        <time>2015-05-11T19:04:59.570Z</time>
      </trkpt>
      <trkpt lat="48.82845" lon="2.22646">
        <ele>85</ele>
        <time>2015-05-11T19:05:00.608Z</time>
      </trkpt>
      <trkpt lat="48.82842" lon="2.22634">
        <ele>84.4</ele>
        <time>2015-05-11T19:05:02.879Z</time>
      </trkpt>
      <trkpt lat="48.8284" lon="2.22628">
        <ele>84.3</ele>
        <time>2015-05-11T19:05:03.657Z</time>
      </trkpt>
      <trkpt lat="48.82836" lon="2.22616">
        <ele>83.8</ele>
        <time>2015-05-11T19:05:05.601Z</time>
      </trkpt>
      <trkpt lat="48.82834" lon="2.22609">
        <ele>83.8</ele>
        <time>2015-05-11T19:05:06.618Z</time>
      </trkpt>
      <trkpt lat="48.82832" lon="2.22603">
        <ele>83.7</ele>
        <time>2015-05-11T19:05:07.555Z</time>
      </trkpt>
      <trkpt lat="48.8283" lon="2.22597">
        <ele>83.7</ele>
        <time>2015-05-11T19:05:08.564Z</time>
      </trkpt>
      <trkpt lat="48.82826" lon="2.22585">
        <ele>83.8</ele>
        <time>2015-05-11T19:05:10.580Z</time>
      </trkpt>
      <trkpt lat="48.82824" lon="2.22579">
        <ele>83.7</ele>
        <time>2015-05-11T19:05:11.629Z</time>
      </trkpt>
      <trkpt lat="48.8282" lon="2.22567">
        <ele>83.7</ele>
        <time>2015-05-11T19:05:13.565Z</time>
      </trkpt>
      <trkpt lat="48.82818" lon="2.22561">
        <ele>83.7</ele>
        <time>2015-05-11T19:05:14.615Z</time>
      </trkpt>
      <trkpt lat="48.82816" lon="2.22555">
        <ele>83.7</ele>
        <time>2015-05-11T19:05:15.596Z</time>
      </trkpt>
      <trkpt lat="48.82814" lon="2.22548">
        <ele>83.9</ele>
        <time>2015-05-11T19:05:16.607Z</time>
      </trkpt>
      <trkpt lat="48.82811" lon="2.22536">
        <ele>83.4</ele>
        <time>2015-05-11T19:05:18.644Z</time>
      </trkpt>
      <trkpt lat="48.82809" lon="2.2253">
        <ele>83.4</ele>
        <time>2015-05-11T19:05:19.702Z</time>
      </trkpt>
      <trkpt lat="48.82806" lon="2.22519">
        <ele>83.2</ele>
        <time>2015-05-11T19:05:21.623Z</time>
      </trkpt>
      <trkpt lat="48.82804" lon="2.22513">
        <ele>83</ele>
        <time>2015-05-11T19:05:22.678Z</time>
      </trkpt>
      <trkpt lat="48.82801" lon="2.22502">
        <ele>83.2</ele>
        <time>2015-05-11T19:05:24.630Z</time>
      </trkpt>
      <trkpt lat="48.82801" lon="2.22497">
        <ele>83.1</ele>
        <time>2015-05-11T19:05:25.634Z</time>
      </trkpt>
      <trkpt lat="48.828" lon="2.22486">
        <ele>83.2</ele>
        <time>2015-05-11T19:05:27.790Z</time>
      </trkpt>
      <trkpt lat="48.82799" lon="2.22481">
        <ele>83.4</ele>
        <time>2015-05-11T19:05:28.577Z</time>
      </trkpt>
      <trkpt lat="48.82798" lon="2.22473">
        <ele>83.7</ele>
        <time>2015-05-11T19:05:31.573Z</time>
      </trkpt>
      <trkpt lat="48.82797" lon="2.22473">
        <ele>83.7</ele>
        <time>2015-05-11T19:05:32.686Z</time>
      </trkpt>
      <trkpt lat="48.82798" lon="2.22473">
        <ele>83.8</ele>
        <time>2015-05-11T19:08:10.603Z</time>
      </trkpt>
      <trkpt lat="48.82794" lon="2.22476">
        <ele>81.8</ele>
        <time>2015-05-11T19:08:11.647Z</time>
      </trkpt>
      <trkpt lat="48.82787" lon="2.22469">
        <ele>82.4</ele>
        <time>2015-05-11T19:08:14.640Z</time>
      </trkpt>
      <trkpt lat="48.82784" lon="2.22466">
        <ele>82.4</ele>
        <time>2015-05-11T19:08:15.652Z</time>
      </trkpt>
      <trkpt lat="48.8278" lon="2.22459">
        <ele>82.2</ele>
        <time>2015-05-11T19:08:17.571Z</time>
      </trkpt>
      <trkpt lat="48.82778" lon="2.22454">
        <ele>82.1</ele>
        <time>2015-05-11T19:08:18.629Z</time>
      </trkpt>
      <trkpt lat="48.82773" lon="2.22444">
        <ele>81.8</ele>
        <time>2015-05-11T19:08:20.550Z</time>
      </trkpt>
      <trkpt lat="48.8277" lon="2.22439">
        <ele>81.7</ele>
        <time>2015-05-11T19:08:21.565Z</time>
      </trkpt>
      <trkpt lat="48.82767" lon="2.22433">
        <ele>81.7</ele>
        <time>2015-05-11T19:08:22.597Z</time>
      </trkpt>
      <trkpt lat="48.82764" lon="2.22427">
        <ele>81.9</ele>
        <time>2015-05-11T19:08:23.608Z</time>
      </trkpt>
      <trkpt lat="48.82762" lon="2.22421">
        <ele>82.2</ele>
        <time>2015-05-11T19:08:24.669Z</time>
      </trkpt>
      <trkpt lat="48.8276" lon="2.22414">
        <ele>81.9</ele>
        <time>2015-05-11T19:08:25.537Z</time>
      </trkpt>
      <trkpt lat="48.82758" lon="2.22406">
        <ele>81.8</ele>
        <time>2015-05-11T19:08:26.583Z</time>
      </trkpt>
      <trkpt lat="48.82756" lon="2.22399">
        <ele>81.5</ele>
        <time>2015-05-11T19:08:27.620Z</time>
      </trkpt>
      <trkpt lat="48.82754" lon="2.22391">
        <ele>81.3</ele>
        <time>2015-05-11T19:08:28.569Z</time>
      </trkpt>
      <trkpt lat="48.82751" lon="2.22382">
        <ele>81.3</ele>
        <time>2015-05-11T19:08:29.553Z</time>
      </trkpt>
      <trkpt lat="48.82748" lon="2.22372">
        <ele>81.1</ele>
        <time>2015-05-11T19:08:30.615Z</time>
      </trkpt>
      <trkpt lat="48.82747" lon="2.22361">
        <ele>81.3</ele>
        <time>2015-05-11T19:08:31.645Z</time>
      </trkpt>
      <trkpt lat="48.82744" lon="2.2235">
        <ele>81.5</ele>
        <time>2015-05-11T19:08:32.658Z</time>
      </trkpt>
      <trkpt lat="48.82742" lon="2.22339">
        <ele>82</ele>
        <time>2015-05-11T19:08:33.593Z</time>
      </trkpt>
      <trkpt lat="48.82741" lon="2.22328">
        <ele>82.3</ele>
        <time>2015-05-11T19:08:34.620Z</time>
      </trkpt>
      <trkpt lat="48.8274" lon="2.22317">
        <ele>82.3</ele>
        <time>2015-05-11T19:08:35.629Z</time>
      </trkpt>
      <trkpt lat="48.82739" lon="2.22305">
        <ele>82.4</ele>
        <time>2015-05-11T19:08:36.591Z</time>
      </trkpt>
      <trkpt lat="48.82736" lon="2.22294">
        <ele>82.4</ele>
        <time>2015-05-11T19:08:37.605Z</time>
      </trkpt>
      <trkpt lat="48.82734" lon="2.22284">
        <ele>82.3</ele>
        <time>2015-05-11T19:08:38.663Z</time>
      </trkpt>
      <trkpt lat="48.82732" lon="2.22273">
        <ele>82</ele>
        <time>2015-05-11T19:08:39.606Z</time>
      </trkpt>
      <trkpt lat="48.8273" lon="2.22263">
        <ele>82.2</ele>
        <time>2015-05-11T19:08:40.601Z</time>
      </trkpt>
      <trkpt lat="48.82726" lon="2.22253">
        <ele>81.9</ele>
        <time>2015-05-11T19:08:41.655Z</time>
      </trkpt>
      <trkpt lat="48.82724" lon="2.22243">
        <ele>81.6</ele>
        <time>2015-05-11T19:08:42.663Z</time>
      </trkpt>
      <trkpt lat="48.82721" lon="2.22233">
        <ele>81.6</ele>
        <time>2015-05-11T19:08:43.614Z</time>
      </trkpt>
      <trkpt lat="48.82721" lon="2.22223">
        <ele>81.3</ele>
        <time>2015-05-11T19:08:44.565Z</time>
      </trkpt>
      <trkpt lat="48.82719" lon="2.22213">
        <ele>81.1</ele>
        <time>2015-05-11T19:08:45.560Z</time>
      </trkpt>
      <trkpt lat="48.82717" lon="2.22203">
        <ele>80.9</ele>
        <time>2015-05-11T19:08:46.599Z</time>
      </trkpt>
      <trkpt lat="48.82714" lon="2.22194">
        <ele>80.5</ele>
        <time>2015-05-11T19:08:47.628Z</time>
      </trkpt>
      <trkpt lat="48.82713" lon="2.22186">
        <ele>80.5</ele>
        <time>2015-05-11T19:08:48.682Z</time>
      </trkpt>
      <trkpt lat="48.82711" lon="2.22177">
        <ele>80.3</ele>
        <time>2015-05-11T19:08:49.564Z</time>
      </trkpt>
      <trkpt lat="48.82708" lon="2.22169">
        <ele>80.4</ele>
        <time>2015-05-11T19:08:50.559Z</time>
      </trkpt>
      <trkpt lat="48.82706" lon="2.2216">
        <ele>80.3</ele>
        <time>2015-05-11T19:08:51.568Z</time>
      </trkpt>
      <trkpt lat="48.82703" lon="2.22151">
        <ele>80</ele>
        <time>2015-05-11T19:08:52.593Z</time>
      </trkpt>
      <trkpt lat="48.827" lon="2.22142">
        <ele>79.5</ele>
        <time>2015-05-11T19:08:53.598Z</time>
      </trkpt>
      <trkpt lat="48.82697" lon="2.22134">
        <ele>79.1</ele>
        <time>2015-05-11T19:08:54.604Z</time>
      </trkpt>
      <trkpt lat="48.82694" lon="2.22125">
        <ele>78.8</ele>
        <time>2015-05-11T19:08:55.605Z</time>
      </trkpt>
      <trkpt lat="48.82693" lon="2.22117">
        <ele>78.7</ele>
        <time>2015-05-11T19:08:56.608Z</time>
      </trkpt>
      <trkpt lat="48.82694" lon="2.2211">
        <ele>78.8</ele>
        <time>2015-05-11T19:08:57.630Z</time>
      </trkpt>
      <trkpt lat="48.82693" lon="2.22102">
        <ele>78.8</ele>
        <time>2015-05-11T19:08:58.543Z</time>
      </trkpt>
      <trkpt lat="48.82693" lon="2.22095">
        <ele>78.8</ele>
        <time>2015-05-11T19:08:59.560Z</time>
      </trkpt>
      <trkpt lat="48.82689" lon="2.22087">
        <ele>78.7</ele>
        <time>2015-05-11T19:09:00.598Z</time>
      </trkpt>
      <trkpt lat="48.82686" lon="2.22079">
        <ele>78.7</ele>
        <time>2015-05-11T19:09:01.612Z</time>
      </trkpt>
      <trkpt lat="48.82683" lon="2.22071">
        <ele>78.8</ele>
        <time>2015-05-11T19:09:02.528Z</time>
      </trkpt>
      <trkpt lat="48.82682" lon="2.22063">
        <ele>78.5</ele>
        <time>2015-05-11T19:09:03.553Z</time>
      </trkpt>
      <trkpt lat="48.82681" lon="2.22055">
        <ele>78.5</ele>
        <time>2015-05-11T19:09:04.568Z</time>
      </trkpt>
      <trkpt lat="48.82678" lon="2.22047">
        <ele>78.5</ele>
        <time>2015-05-11T19:09:05.616Z</time>
      </trkpt>
      <trkpt lat="48.82677" lon="2.22039">
        <ele>78.5</ele>
        <time>2015-05-11T19:09:06.622Z</time>
      </trkpt>
      <trkpt lat="48.82675" lon="2.22032">
        <ele>78.4</ele>
        <time>2015-05-11T19:09:07.522Z</time>
      </trkpt>
      <trkpt lat="48.82675" lon="2.22025">
        <ele>78.5</ele>
        <time>2015-05-11T19:09:08.582Z</time>
      </trkpt>
      <trkpt lat="48.82673" lon="2.22019">
        <ele>78.2</ele>
        <time>2015-05-11T19:09:09.613Z</time>
      </trkpt>
      <trkpt lat="48.8267" lon="2.22006">
        <ele>78.2</ele>
        <time>2015-05-11T19:09:11.587Z</time>
      </trkpt>
      <trkpt lat="48.82668" lon="2.22">
        <ele>77.8</ele>
        <time>2015-05-11T19:09:12.612Z</time>
      </trkpt>
      <trkpt lat="48.82665" lon="2.21988">
        <ele>77.9</ele>
        <time>2015-05-11T19:09:14.605Z</time>
      </trkpt>
      <trkpt lat="48.82665" lon="2.21982">
        <ele>77.9</ele>
        <time>2015-05-11T19:09:15.617Z</time>
      </trkpt>
      <trkpt lat="48.82662" lon="2.21972">
        <ele>77.7</ele>
        <time>2015-05-11T19:09:17.544Z</time>
      </trkpt>
      <trkpt lat="48.82659" lon="2.21966">
        <ele>77.6</ele>
        <time>2015-05-11T19:09:18.597Z</time>
      </trkpt>
      <trkpt lat="48.82656" lon="2.21955">
        <ele>77.6</ele>
        <time>2015-05-11T19:09:20.564Z</time>
      </trkpt>
      <trkpt lat="48.82656" lon="2.2195">
        <ele>77.4</ele>
        <time>2015-05-11T19:09:21.617Z</time>
      </trkpt>
      <trkpt lat="48.82654" lon="2.21938">
        <ele>77.7</ele>
        <time>2015-05-11T19:09:23.660Z</time>
      </trkpt>
      <trkpt lat="48.82654" lon="2.21932">
        <ele>77.8</ele>
        <time>2015-05-11T19:09:24.680Z</time>
      </trkpt>
      <trkpt lat="48.82654" lon="2.21922">
        <ele>78.2</ele>
        <time>2015-05-11T19:09:26.616Z</time>
      </trkpt>
      <trkpt lat="48.82656" lon="2.21918">
        <ele>79.3</ele>
        <time>2015-05-11T19:09:27.587Z</time>
      </trkpt>
      <trkpt lat="48.82655" lon="2.21906">
        <ele>80.2</ele>
        <time>2015-05-11T19:09:30.640Z</time>
      </trkpt>
      <trkpt lat="48.82652" lon="2.21901">
        <ele>81.3</ele>
        <time>2015-05-11T19:09:31.569Z</time>
      </trkpt>
      <trkpt lat="48.82646" lon="2.21891">
        <ele>82.1</ele>
        <time>2015-05-11T19:09:33.586Z</time>
      </trkpt>
      <trkpt lat="48.82645" lon="2.21886">
        <ele>82.4</ele>
        <time>2015-05-11T19:09:34.626Z</time>
      </trkpt>
      <trkpt lat="48.82642" lon="2.21881">
        <ele>82.9</ele>
        <time>2015-05-11T19:09:35.558Z</time>
      </trkpt>
      <trkpt lat="48.82638" lon="2.21877">
        <ele>83.4</ele>
        <time>2015-05-11T19:09:36.632Z</time>
      </trkpt>
      <trkpt lat="48.82632" lon="2.21868">
        <ele>84.4</ele>
        <time>2015-05-11T19:09:38.564Z</time>
      </trkpt>
      <trkpt lat="48.82628" lon="2.21864">
        <ele>85.3</ele>
        <time>2015-05-11T19:09:39.542Z</time>
      </trkpt>
      <trkpt lat="48.82623" lon="2.21856">
        <ele>86.1</ele>
        <time>2015-05-11T19:09:41.564Z</time>
      </trkpt>
      <trkpt lat="48.82621" lon="2.21851">
        <ele>86.6</ele>
        <time>2015-05-11T19:09:42.604Z</time>
      </trkpt>
      <trkpt lat="48.82617" lon="2.21841">
        <ele>87.7</ele>
        <time>2015-05-11T19:09:44.612Z</time>
      </trkpt>
      <trkpt lat="48.82614" lon="2.21837">
        <ele>88</ele>
        <time>2015-05-11T19:09:45.608Z</time>
      </trkpt>
      <trkpt lat="48.8261" lon="2.21831">
        <ele>88.3</ele>
        <time>2015-05-11T19:09:47.583Z</time>
      </trkpt>
      <trkpt lat="48.82609" lon="2.21826">
        <ele>88.5</ele>
        <time>2015-05-11T19:09:48.662Z</time>
      </trkpt>
      <trkpt lat="48.82605" lon="2.21814">
        <ele>88.8</ele>
        <time>2015-05-11T19:09:50.575Z</time>
      </trkpt>
      <trkpt lat="48.82604" lon="2.21807">
        <ele>88.5</ele>
        <time>2015-05-11T19:09:51.774Z</time>
      </trkpt>
      <trkpt lat="48.82604" lon="2.21799">
        <ele>88.3</ele>
        <time>2015-05-11T19:09:52.552Z</time>
      </trkpt>
      <trkpt lat="48.82603" lon="2.21793">
        <ele>88.1</ele>
        <time>2015-05-11T19:09:53.561Z</time>
      </trkpt>
      <trkpt lat="48.82601" lon="2.21781">
        <ele>88.4</ele>
        <time>2015-05-11T19:09:55.616Z</time>
      </trkpt>
      <trkpt lat="48.82599" lon="2.21775">
        <ele>88.6</ele>
        <time>2015-05-11T19:09:56.573Z</time>
      </trkpt>
      <trkpt lat="48.82596" lon="2.21763">
        <ele>88.7</ele>
        <time>2015-05-11T19:09:59.366Z</time>
      </trkpt>
      <trkpt lat="48.82594" lon="2.21757">
        <ele>88.7</ele>
        <time>2015-05-11T19:09:59.538Z</time>
      </trkpt>
      <trkpt lat="48.8259" lon="2.21746">
        <ele>88.8</ele>
        <time>2015-05-11T19:10:01.608Z</time>
      </trkpt>
      <trkpt lat="48.82589" lon="2.21741">
        <ele>88.9</ele>
        <time>2015-05-11T19:10:02.616Z</time>
      </trkpt>
      <trkpt lat="48.82586" lon="2.21735">
        <ele>88.9</ele>
        <time>2015-05-11T19:10:03.572Z</time>
      </trkpt>
      <trkpt lat="48.82585" lon="2.21728">
        <ele>89.3</ele>
        <time>2015-05-11T19:10:04.888Z</time>
      </trkpt>
      <trkpt lat="48.82582" lon="2.21716">
        <ele>89.3</ele>
        <time>2015-05-11T19:10:06.671Z</time>
      </trkpt>
      <trkpt lat="48.82581" lon="2.21711">
        <ele>89.3</ele>
        <time>2015-05-11T19:10:07.735Z</time>
      </trkpt>
      <trkpt lat="48.82579" lon="2.21704">
        <ele>89.4</ele>
        <time>2015-05-11T19:10:08.575Z</time>
      </trkpt>
      <trkpt lat="48.82577" lon="2.21697">
        <ele>88.9</ele>
        <time>2015-05-11T19:10:09.565Z</time>
      </trkpt>
      <trkpt lat="48.82575" lon="2.21691">
        <ele>89</ele>
        <time>2015-05-11T19:10:10.599Z</time>
      </trkpt>
      <trkpt lat="48.82573" lon="2.21684">
        <ele>89.3</ele>
        <time>2015-05-11T19:10:11.605Z</time>
      </trkpt>
      <trkpt lat="48.82571" lon="2.21677">
        <ele>89.1</ele>
        <time>2015-05-11T19:10:12.618Z</time>
      </trkpt>
      <trkpt lat="48.82569" lon="2.2167">
        <ele>89.1</ele>
        <time>2015-05-11T19:10:13.630Z</time>
      </trkpt>
      <trkpt lat="48.82566" lon="2.21663">
        <ele>88.8</ele>
        <time>2015-05-11T19:10:14.676Z</time>
      </trkpt>
      <trkpt lat="48.82564" lon="2.21655">
        <ele>88.4</ele>
        <time>2015-05-11T19:10:15.556Z</time>
      </trkpt>
      <trkpt lat="48.82562" lon="2.21648">
        <ele>88</ele>
        <time>2015-05-11T19:10:16.558Z</time>
      </trkpt>
      <trkpt lat="48.8256" lon="2.21642">
        <ele>88</ele>
        <time>2015-05-11T19:10:17.572Z</time>
      </trkpt>
      <trkpt lat="48.82557" lon="2.21635">
        <ele>87.7</ele>
        <time>2015-05-11T19:10:18.578Z</time>
      </trkpt>
      <trkpt lat="48.82555" lon="2.21627">
        <ele>87.6</ele>
        <time>2015-05-11T19:10:19.592Z</time>
      </trkpt>
      <trkpt lat="48.82553" lon="2.2162">
        <ele>87.8</ele>
        <time>2015-05-11T19:10:20.600Z</time>
      </trkpt>
      <trkpt lat="48.82551" lon="2.21612">
        <ele>87.8</ele>
        <time>2015-05-11T19:10:21.658Z</time>
      </trkpt>
      <trkpt lat="48.82549" lon="2.21605">
        <ele>87.7</ele>
        <time>2015-05-11T19:10:22.510Z</time>
      </trkpt>
      <trkpt lat="48.82548" lon="2.21597">
        <ele>87.5</ele>
        <time>2015-05-11T19:10:23.554Z</time>
      </trkpt>
      <trkpt lat="48.82547" lon="2.2159">
        <ele>87.4</ele>
        <time>2015-05-11T19:10:24.550Z</time>
      </trkpt>
      <trkpt lat="48.82546" lon="2.21583">
        <ele>87.5</ele>
        <time>2015-05-11T19:10:25.566Z</time>
      </trkpt>
      <trkpt lat="48.82544" lon="2.21575">
        <ele>87.5</ele>
        <time>2015-05-11T19:10:26.610Z</time>
      </trkpt>
      <trkpt lat="48.82541" lon="2.21569">
        <ele>87.7</ele>
        <time>2015-05-11T19:10:27.529Z</time>
      </trkpt>
      <trkpt lat="48.82538" lon="2.21563">
        <ele>88</ele>
        <time>2015-05-11T19:10:28.538Z</time>
      </trkpt>
      <trkpt lat="48.82535" lon="2.21556">
        <ele>88.4</ele>
        <time>2015-05-11T19:10:29.551Z</time>
      </trkpt>
      <trkpt lat="48.82533" lon="2.21549">
        <ele>88.5</ele>
        <time>2015-05-11T19:10:30.559Z</time>
      </trkpt>
      <trkpt lat="48.8253" lon="2.21542">
        <ele>88.4</ele>
        <time>2015-05-11T19:10:31.573Z</time>
      </trkpt>
      <trkpt lat="48.82527" lon="2.21534">
        <ele>88.2</ele>
        <time>2015-05-11T19:10:32.582Z</time>
      </trkpt>
      <trkpt lat="48.82525" lon="2.21527">
        <ele>88</ele>
        <time>2015-05-11T19:10:33.588Z</time>
      </trkpt>
      <trkpt lat="48.82523" lon="2.21519">
        <ele>88</ele>
        <time>2015-05-11T19:10:34.638Z</time>
      </trkpt>
      <trkpt lat="48.8252" lon="2.21512">
        <ele>88.1</ele>
        <time>2015-05-11T19:10:35.565Z</time>
      </trkpt>
      <trkpt lat="48.82518" lon="2.21503">
        <ele>88.3</ele>
        <time>2015-05-11T19:10:36.582Z</time>
      </trkpt>
      <trkpt lat="48.82516" lon="2.21495">
        <ele>88.6</ele>
        <time>2015-05-11T19:10:37.593Z</time>
      </trkpt>
      <trkpt lat="48.82512" lon="2.21487">
        <ele>89.1</ele>
        <time>2015-05-11T19:10:38.611Z</time>
      </trkpt>
      <trkpt lat="48.8251" lon="2.21479">
        <ele>88.7</ele>
        <time>2015-05-11T19:10:39.625Z</time>
      </trkpt>
      <trkpt lat="48.82507" lon="2.21472">
        <ele>88.5</ele>
        <time>2015-05-11T19:10:40.547Z</time>
      </trkpt>
      <trkpt lat="48.82506" lon="2.21464">
        <ele>88.7</ele>
        <time>2015-05-11T19:10:41.562Z</time>
      </trkpt>
      <trkpt lat="48.82503" lon="2.21456">
        <ele>88.7</ele>
        <time>2015-05-11T19:10:42.567Z</time>
      </trkpt>
      <trkpt lat="48.82501" lon="2.21449">
        <ele>88.7</ele>
        <time>2015-05-11T19:10:43.574Z</time>
      </trkpt>
      <trkpt lat="48.82499" lon="2.21442">
        <ele>89.1</ele>
        <time>2015-05-11T19:10:44.582Z</time>
      </trkpt>
      <trkpt lat="48.82497" lon="2.21434">
        <ele>89.4</ele>
        <time>2015-05-11T19:10:45.612Z</time>
      </trkpt>
      <trkpt lat="48.82495" lon="2.21426">
        <ele>89.8</ele>
        <time>2015-05-11T19:10:46.612Z</time>
      </trkpt>
      <trkpt lat="48.82492" lon="2.21417">
        <ele>89.9</ele>
        <time>2015-05-11T19:10:47.631Z</time>
      </trkpt>
      <trkpt lat="48.8249" lon="2.21409">
        <ele>89.9</ele>
        <time>2015-05-11T19:10:48.626Z</time>
      </trkpt>
      <trkpt lat="48.82487" lon="2.21401">
        <ele>90.2</ele>
        <time>2015-05-11T19:10:49.542Z</time>
      </trkpt>
      <trkpt lat="48.82484" lon="2.21393">
        <ele>90.2</ele>
        <time>2015-05-11T19:10:50.557Z</time>
      </trkpt>
      <trkpt lat="48.82481" lon="2.21385">
        <ele>90.3</ele>
        <time>2015-05-11T19:10:51.570Z</time>
      </trkpt>
      <trkpt lat="48.82479" lon="2.21377">
        <ele>90.5</ele>
        <time>2015-05-11T19:10:52.537Z</time>
      </trkpt>
      <trkpt lat="48.82478" lon="2.21369">
        <ele>90</ele>
        <time>2015-05-11T19:10:53.568Z</time>
      </trkpt>
      <trkpt lat="48.82477" lon="2.21361">
        <ele>90</ele>
        <time>2015-05-11T19:10:54.597Z</time>
      </trkpt>
      <trkpt lat="48.82473" lon="2.21352">
        <ele>90.3</ele>
        <time>2015-05-11T19:10:55.604Z</time>
      </trkpt>
      <trkpt lat="48.82471" lon="2.21344">
        <ele>90.1</ele>
        <time>2015-05-11T19:10:56.626Z</time>
      </trkpt>
      <trkpt lat="48.82468" lon="2.21336">
        <ele>90.1</ele>
        <time>2015-05-11T19:10:57.543Z</time>
      </trkpt>
      <trkpt lat="48.82466" lon="2.21329">
        <ele>90.1</ele>
        <time>2015-05-11T19:10:58.535Z</time>
      </trkpt>
      <trkpt lat="48.82464" lon="2.21322">
        <ele>90.2</ele>
        <time>2015-05-11T19:10:59.544Z</time>
      </trkpt>
      <trkpt lat="48.8246" lon="2.2131">
        <ele>90</ele>
        <time>2015-05-11T19:11:01.563Z</time>
      </trkpt>
      <trkpt lat="48.82458" lon="2.21303">
        <ele>89.8</ele>
        <time>2015-05-11T19:11:02.559Z</time>
      </trkpt>
      <trkpt lat="48.82454" lon="2.21292">
        <ele>90.5</ele>
        <time>2015-05-11T19:11:04.603Z</time>
      </trkpt>
      <trkpt lat="48.82451" lon="2.21285">
        <ele>90.8</ele>
        <time>2015-05-11T19:11:05.560Z</time>
      </trkpt>
      <trkpt lat="48.82448" lon="2.21275">
        <ele>91.5</ele>
        <time>2015-05-11T19:11:07.537Z</time>
      </trkpt>
      <trkpt lat="48.82446" lon="2.2127">
        <ele>91.7</ele>
        <time>2015-05-11T19:11:08.557Z</time>
      </trkpt>
      <trkpt lat="48.82442" lon="2.21259">
        <ele>92.4</ele>
        <time>2015-05-11T19:11:10.577Z</time>
      </trkpt>
      <trkpt lat="48.8244" lon="2.21254">
        <ele>93</ele>
        <time>2015-05-11T19:11:11.629Z</time>
      </trkpt>
      <trkpt lat="48.82436" lon="2.21246">
        <ele>94.3</ele>
        <time>2015-05-11T19:11:13.549Z</time>
      </trkpt>
      <trkpt lat="48.82435" lon="2.21241">
        <ele>94.3</ele>
        <time>2015-05-11T19:11:14.561Z</time>
      </trkpt>
      <trkpt lat="48.82433" lon="2.21231">
        <ele>93.9</ele>
        <time>2015-05-11T19:11:16.572Z</time>
      </trkpt>
      <trkpt lat="48.82431" lon="2.21226">
        <ele>93.8</ele>
        <time>2015-05-11T19:11:17.580Z</time>
      </trkpt>
      <trkpt lat="48.82425" lon="2.21216">
        <ele>94.3</ele>
        <time>2015-05-11T19:11:19.624Z</time>
      </trkpt>
      <trkpt lat="48.82422" lon="2.21211">
        <ele>94.5</ele>
        <time>2015-05-11T19:11:20.547Z</time>
      </trkpt>
      <trkpt lat="48.82419" lon="2.21206">
        <ele>94.3</ele>
        <time>2015-05-11T19:11:21.541Z</time>
      </trkpt>
      <trkpt lat="48.82416" lon="2.212">
        <ele>94.4</ele>
        <time>2015-05-11T19:11:22.552Z</time>
      </trkpt>
      <trkpt lat="48.82413" lon="2.21194">
        <ele>94.7</ele>
        <time>2015-05-11T19:11:23.572Z</time>
      </trkpt>
      <trkpt lat="48.82412" lon="2.21187">
        <ele>94.7</ele>
        <time>2015-05-11T19:11:24.672Z</time>
      </trkpt>
      <trkpt lat="48.8241" lon="2.21178">
        <ele>94.6</ele>
        <time>2015-05-11T19:11:25.552Z</time>
      </trkpt>
      <trkpt lat="48.82407" lon="2.2117">
        <ele>94.7</ele>
        <time>2015-05-11T19:11:26.580Z</time>
      </trkpt>
      <trkpt lat="48.82405" lon="2.21163">
        <ele>95</ele>
        <time>2015-05-11T19:11:27.596Z</time>
      </trkpt>
      <trkpt lat="48.82402" lon="2.21155">
        <ele>95.1</ele>
        <time>2015-05-11T19:11:28.615Z</time>
      </trkpt>
      <trkpt lat="48.82399" lon="2.21147">
        <ele>95.4</ele>
        <time>2015-05-11T19:11:29.557Z</time>
      </trkpt>
      <trkpt lat="48.82397" lon="2.21139">
        <ele>95.5</ele>
        <time>2015-05-11T19:11:30.572Z</time>
      </trkpt>
      <trkpt lat="48.82394" lon="2.21131">
        <ele>95.4</ele>
        <time>2015-05-11T19:11:31.566Z</time>
      </trkpt>
      <trkpt lat="48.8239" lon="2.21124">
        <ele>95.6</ele>
        <time>2015-05-11T19:11:32.579Z</time>
      </trkpt>
      <trkpt lat="48.82385" lon="2.21119">
        <ele>96</ele>
        <time>2015-05-11T19:11:33.607Z</time>
      </trkpt>
      <trkpt lat="48.82379" lon="2.21113">
        <ele>96.2</ele>
        <time>2015-05-11T19:11:34.608Z</time>
      </trkpt>
      <trkpt lat="48.82374" lon="2.21109">
        <ele>96.2</ele>
        <time>2015-05-11T19:11:35.537Z</time>
      </trkpt>
      <trkpt lat="48.82371" lon="2.21103">
        <ele>96.1</ele>
        <time>2015-05-11T19:11:36.654Z</time>
      </trkpt>
      <trkpt lat="48.82369" lon="2.2109">
        <ele>96.2</ele>
        <time>2015-05-11T19:11:38.553Z</time>
      </trkpt>
      <trkpt lat="48.82367" lon="2.21083">
        <ele>96.2</ele>
        <time>2015-05-11T19:11:39.572Z</time>
      </trkpt>
      <trkpt lat="48.82364" lon="2.21077">
        <ele>96.1</ele>
        <time>2015-05-11T19:11:40.620Z</time>
      </trkpt>
      <trkpt lat="48.82361" lon="2.2107">
        <ele>95.8</ele>
        <time>2015-05-11T19:11:41.581Z</time>
      </trkpt>
      <trkpt lat="48.82357" lon="2.21063">
        <ele>95.5</ele>
        <time>2015-05-11T19:11:42.602Z</time>
      </trkpt>
      <trkpt lat="48.82355" lon="2.21056">
        <ele>95.7</ele>
        <time>2015-05-11T19:11:43.616Z</time>
      </trkpt>
      <trkpt lat="48.82352" lon="2.2105">
        <ele>96.7</ele>
        <time>2015-05-11T19:11:44.529Z</time>
      </trkpt>
      <trkpt lat="48.82349" lon="2.21045">
        <ele>97</ele>
        <time>2015-05-11T19:11:45.531Z</time>
      </trkpt>
      <trkpt lat="48.82347" lon="2.21038">
        <ele>98.2</ele>
        <time>2015-05-11T19:11:48.672Z</time>
      </trkpt>
      <trkpt lat="48.82342" lon="2.21031">
        <ele>98.3</ele>
        <time>2015-05-11T19:11:49.554Z</time>
      </trkpt>
      <trkpt lat="48.82338" lon="2.21024">
        <ele>98.4</ele>
        <time>2015-05-11T19:11:50.571Z</time>
      </trkpt>
      <trkpt lat="48.82335" lon="2.21017">
        <ele>98.5</ele>
        <time>2015-05-11T19:11:51.658Z</time>
      </trkpt>
      <trkpt lat="48.82331" lon="2.21011">
        <ele>98.8</ele>
        <time>2015-05-11T19:11:52.535Z</time>
      </trkpt>
      <trkpt lat="48.82329" lon="2.21007">
        <ele>99</ele>
        <time>2015-05-11T19:11:53.553Z</time>
      </trkpt>
      <trkpt lat="48.82325" lon="2.21002">
        <ele>99.2</ele>
        <time>2015-05-11T19:11:54.575Z</time>
      </trkpt>
      <trkpt lat="48.8232" lon="2.20996">
        <ele>100</ele>
        <time>2015-05-11T19:11:55.580Z</time>
      </trkpt>
      <trkpt lat="48.82315" lon="2.20989">
        <ele>100.6</ele>
        <time>2015-05-11T19:11:56.601Z</time>
      </trkpt>
      <trkpt lat="48.8231" lon="2.20981">
        <ele>101.3</ele>
        <time>2015-05-11T19:11:57.545Z</time>
      </trkpt>
      <trkpt lat="48.82304" lon="2.20975">
        <ele>101.5</ele>
        <time>2015-05-11T19:11:58.568Z</time>
      </trkpt>
      <trkpt lat="48.823" lon="2.20969">
        <ele>101.6</ele>
        <time>2015-05-11T19:11:59.556Z</time>
      </trkpt>
      <trkpt lat="48.82297" lon="2.20964">
        <ele>101.7</ele>
        <time>2015-05-11T19:12:00.717Z</time>
      </trkpt>
      <trkpt lat="48.82293" lon="2.20958">
        <ele>102.2</ele>
        <time>2015-05-11T19:12:01.533Z</time>
      </trkpt>
      <trkpt lat="48.8229" lon="2.20952">
        <ele>102.9</ele>
        <time>2015-05-11T19:12:02.661Z</time>
      </trkpt>
      <trkpt lat="48.82286" lon="2.20945">
        <ele>103.8</ele>
        <time>2015-05-11T19:12:03.541Z</time>
      </trkpt>
      <trkpt lat="48.82284" lon="2.20938">
        <ele>104</ele>
        <time>2015-05-11T19:12:04.537Z</time>
      </trkpt>
      <trkpt lat="48.8228" lon="2.2093">
        <ele>104.3</ele>
        <time>2015-05-11T19:12:05.539Z</time>
      </trkpt>
      <trkpt lat="48.82263" lon="2.20883">
        <ele>103.4</ele>
        <time>2015-05-11T19:12:12.580Z</time>
      </trkpt>
      <trkpt lat="48.82261" lon="2.20871">
        <ele>104.3</ele>
        <time>2015-05-11T19:12:14.615Z</time>
      </trkpt>
      <trkpt lat="48.8226" lon="2.20864">
        <ele>104</ele>
        <time>2015-05-11T19:12:15.660Z</time>
      </trkpt>
      <trkpt lat="48.82258" lon="2.20858">
        <ele>103.9</ele>
        <time>2015-05-11T19:12:16.522Z</time>
      </trkpt>
      <trkpt lat="48.82257" lon="2.20851">
        <ele>103.8</ele>
        <time>2015-05-11T19:12:17.552Z</time>
      </trkpt>
      <trkpt lat="48.82255" lon="2.20844">
        <ele>103.7</ele>
        <time>2015-05-11T19:12:18.593Z</time>
      </trkpt>
      <trkpt lat="48.82253" lon="2.20838">
        <ele>104</ele>
        <time>2015-05-11T19:12:19.599Z</time>
      </trkpt>
      <trkpt lat="48.82254" lon="2.2083">
        <ele>105</ele>
        <time>2015-05-11T19:12:20.542Z</time>
      </trkpt>
      <trkpt lat="48.82252" lon="2.20823">
        <ele>105.1</ele>
        <time>2015-05-11T19:12:21.546Z</time>
      </trkpt>
      <trkpt lat="48.8225" lon="2.20816">
        <ele>105.2</ele>
        <time>2015-05-11T19:12:22.558Z</time>
      </trkpt>
      <trkpt lat="48.82246" lon="2.20807">
        <ele>105.4</ele>
        <time>2015-05-11T19:12:23.567Z</time>
      </trkpt>
      <trkpt lat="48.82242" lon="2.20799">
        <ele>105.1</ele>
        <time>2015-05-11T19:12:24.585Z</time>
      </trkpt>
      <trkpt lat="48.82239" lon="2.20791">
        <ele>104.9</ele>
        <time>2015-05-11T19:12:25.584Z</time>
      </trkpt>
      <trkpt lat="48.82236" lon="2.20783">
        <ele>104.7</ele>
        <time>2015-05-11T19:12:26.609Z</time>
      </trkpt>
      <trkpt lat="48.82233" lon="2.20775">
        <ele>104.5</ele>
        <time>2015-05-11T19:12:27.518Z</time>
      </trkpt>
      <trkpt lat="48.82231" lon="2.20767">
        <ele>104.1</ele>
        <time>2015-05-11T19:12:28.525Z</time>
      </trkpt>
      <trkpt lat="48.82229" lon="2.20758">
        <ele>104</ele>
        <time>2015-05-11T19:12:29.682Z</time>
      </trkpt>
      <trkpt lat="48.8223" lon="2.2075">
        <ele>103.5</ele>
        <time>2015-05-11T19:12:30.638Z</time>
      </trkpt>
      <trkpt lat="48.82228" lon="2.20741">
        <ele>103.7</ele>
        <time>2015-05-11T19:12:31.572Z</time>
      </trkpt>
      <trkpt lat="48.82228" lon="2.20731">
        <ele>104</ele>
        <time>2015-05-11T19:12:32.591Z</time>
      </trkpt>
      <trkpt lat="48.82227" lon="2.20721">
        <ele>104</ele>
        <time>2015-05-11T19:12:33.563Z</time>
      </trkpt>
      <trkpt lat="48.82224" lon="2.20712">
        <ele>103.7</ele>
        <time>2015-05-11T19:12:34.620Z</time>
      </trkpt>
      <trkpt lat="48.82222" lon="2.20702">
        <ele>103.7</ele>
        <time>2015-05-11T19:12:35.532Z</time>
      </trkpt>
      <trkpt lat="48.82219" lon="2.20693">
        <ele>103.6</ele>
        <time>2015-05-11T19:12:36.562Z</time>
      </trkpt>
      <trkpt lat="48.82217" lon="2.20685">
        <ele>103.4</ele>
        <time>2015-05-11T19:12:37.571Z</time>
      </trkpt>
      <trkpt lat="48.82215" lon="2.20676">
        <ele>103</ele>
        <time>2015-05-11T19:12:38.576Z</time>
      </trkpt>
      <trkpt lat="48.82212" lon="2.20667">
        <ele>102.9</ele>
        <time>2015-05-11T19:12:39.580Z</time>
      </trkpt>
      <trkpt lat="48.8221" lon="2.20658">
        <ele>102.6</ele>
        <time>2015-05-11T19:12:40.550Z</time>
      </trkpt>
      <trkpt lat="48.82207" lon="2.20648">
        <ele>102.6</ele>
        <time>2015-05-11T19:12:41.561Z</time>
      </trkpt>
      <trkpt lat="48.82206" lon="2.20639">
        <ele>102.3</ele>
        <time>2015-05-11T19:12:42.607Z</time>
      </trkpt>
      <trkpt lat="48.82204" lon="2.2063">
        <ele>102.7</ele>
        <time>2015-05-11T19:12:43.614Z</time>
      </trkpt>
      <trkpt lat="48.82202" lon="2.20622">
        <ele>102.3</ele>
        <time>2015-05-11T19:12:44.545Z</time>
      </trkpt>
      <trkpt lat="48.822" lon="2.20614">
        <ele>102</ele>
        <time>2015-05-11T19:12:45.552Z</time>
      </trkpt>
      <trkpt lat="48.82199" lon="2.20607">
        <ele>102.2</ele>
        <time>2015-05-11T19:12:46.713Z</time>
      </trkpt>
      <trkpt lat="48.82196" lon="2.20598">
        <ele>102.4</ele>
        <time>2015-05-11T19:12:47.589Z</time>
      </trkpt>
      <trkpt lat="48.82194" lon="2.20589">
        <ele>102.7</ele>
        <time>2015-05-11T19:12:48.611Z</time>
      </trkpt>
      <trkpt lat="48.82191" lon="2.2058">
        <ele>103.4</ele>
        <time>2015-05-11T19:12:49.613Z</time>
      </trkpt>
      <trkpt lat="48.82189" lon="2.20572">
        <ele>103.3</ele>
        <time>2015-05-11T19:12:50.636Z</time>
      </trkpt>
      <trkpt lat="48.82187" lon="2.20565">
        <ele>103.4</ele>
        <time>2015-05-11T19:12:51.635Z</time>
      </trkpt>
      <trkpt lat="48.82182" lon="2.20553">
        <ele>103.5</ele>
        <time>2015-05-11T19:12:53.554Z</time>
      </trkpt>
      <trkpt lat="48.8218" lon="2.20547">
        <ele>103.7</ele>
        <time>2015-05-11T19:12:54.595Z</time>
      </trkpt>
      <trkpt lat="48.82179" lon="2.2054">
        <ele>103.7</ele>
        <time>2015-05-11T19:12:55.586Z</time>
      </trkpt>
      <trkpt lat="48.82179" lon="2.20531">
        <ele>103.7</ele>
        <time>2015-05-11T19:12:56.593Z</time>
      </trkpt>
      <trkpt lat="48.82178" lon="2.20522">
        <ele>103.1</ele>
        <time>2015-05-11T19:12:57.590Z</time>
      </trkpt>
      <trkpt lat="48.82178" lon="2.20514">
        <ele>102.6</ele>
        <time>2015-05-11T19:12:58.601Z</time>
      </trkpt>
      <trkpt lat="48.82177" lon="2.20505">
        <ele>102.3</ele>
        <time>2015-05-11T19:12:59.610Z</time>
      </trkpt>
      <trkpt lat="48.82176" lon="2.20498">
        <ele>102.1</ele>
        <time>2015-05-11T19:13:00.635Z</time>
      </trkpt>
      <trkpt lat="48.82175" lon="2.20491">
        <ele>102</ele>
        <time>2015-05-11T19:13:01.550Z</time>
      </trkpt>
      <trkpt lat="48.82173" lon="2.20484">
        <ele>101.8</ele>
        <time>2015-05-11T19:13:02.541Z</time>
      </trkpt>
      <trkpt lat="48.82171" lon="2.20476">
        <ele>101.5</ele>
        <time>2015-05-11T19:13:03.547Z</time>
      </trkpt>
      <trkpt lat="48.8217" lon="2.20468">
        <ele>101.1</ele>
        <time>2015-05-11T19:13:04.554Z</time>
      </trkpt>
      <trkpt lat="48.82169" lon="2.20461">
        <ele>100.7</ele>
        <time>2015-05-11T19:13:05.567Z</time>
      </trkpt>
      <trkpt lat="48.82167" lon="2.20454">
        <ele>100.7</ele>
        <time>2015-05-11T19:13:06.568Z</time>
      </trkpt>
      <trkpt lat="48.82167" lon="2.20446">
        <ele>100.7</ele>
        <time>2015-05-11T19:13:07.607Z</time>
      </trkpt>
      <trkpt lat="48.82167" lon="2.20439">
        <ele>100.8</ele>
        <time>2015-05-11T19:13:08.617Z</time>
      </trkpt>
      <trkpt lat="48.82169" lon="2.20431">
        <ele>100.9</ele>
        <time>2015-05-11T19:13:09.633Z</time>
      </trkpt>
      <trkpt lat="48.82169" lon="2.20425">
        <ele>101.3</ele>
        <time>2015-05-11T19:13:10.547Z</time>
      </trkpt>
      <trkpt lat="48.82166" lon="2.20413">
        <ele>102</ele>
        <time>2015-05-11T19:13:12.600Z</time>
      </trkpt>
      <trkpt lat="48.82163" lon="2.20407">
        <ele>102</ele>
        <time>2015-05-11T19:13:13.609Z</time>
      </trkpt>
      <trkpt lat="48.82162" lon="2.204">
        <ele>102</ele>
        <time>2015-05-11T19:13:14.636Z</time>
      </trkpt>
      <trkpt lat="48.82159" lon="2.20392">
        <ele>102.2</ele>
        <time>2015-05-11T19:13:15.532Z</time>
      </trkpt>
      <trkpt lat="48.82156" lon="2.20384">
        <ele>102.6</ele>
        <time>2015-05-11T19:13:16.549Z</time>
      </trkpt>
      <trkpt lat="48.82153" lon="2.20376">
        <ele>103.1</ele>
        <time>2015-05-11T19:13:17.546Z</time>
      </trkpt>
      <trkpt lat="48.8215" lon="2.20369">
        <ele>103.3</ele>
        <time>2015-05-11T19:13:18.589Z</time>
      </trkpt>
      <trkpt lat="48.82147" lon="2.20363">
        <ele>103.8</ele>
        <time>2015-05-11T19:13:19.601Z</time>
      </trkpt>
      <trkpt lat="48.82145" lon="2.20356">
        <ele>104.3</ele>
        <time>2015-05-11T19:13:20.632Z</time>
      </trkpt>
      <trkpt lat="48.82143" lon="2.20348">
        <ele>105</ele>
        <time>2015-05-11T19:13:21.517Z</time>
      </trkpt>
      <trkpt lat="48.8214" lon="2.20339">
        <ele>105.4</ele>
        <time>2015-05-11T19:13:22.549Z</time>
      </trkpt>
      <trkpt lat="48.82136" lon="2.2033">
        <ele>105.2</ele>
        <time>2015-05-11T19:13:23.563Z</time>
      </trkpt>
      <trkpt lat="48.82133" lon="2.20321">
        <ele>104.9</ele>
        <time>2015-05-11T19:13:24.594Z</time>
      </trkpt>
      <trkpt lat="48.8213" lon="2.2031">
        <ele>105</ele>
        <time>2015-05-11T19:13:25.604Z</time>
      </trkpt>
      <trkpt lat="48.82128" lon="2.20298">
        <ele>105.7</ele>
        <time>2015-05-11T19:13:26.628Z</time>
      </trkpt>
      <trkpt lat="48.82127" lon="2.20289">
        <ele>105.9</ele>
        <time>2015-05-11T19:13:27.512Z</time>
      </trkpt>
      <trkpt lat="48.82125" lon="2.20282">
        <ele>105.7</ele>
        <time>2015-05-11T19:13:28.525Z</time>
      </trkpt>
      <trkpt lat="48.82125" lon="2.20274">
        <ele>105.7</ele>
        <time>2015-05-11T19:13:29.531Z</time>
      </trkpt>
      <trkpt lat="48.82125" lon="2.20266">
        <ele>105.9</ele>
        <time>2015-05-11T19:13:30.628Z</time>
      </trkpt>
      <trkpt lat="48.82124" lon="2.20259">
        <ele>106</ele>
        <time>2015-05-11T19:13:31.566Z</time>
      </trkpt>
      <trkpt lat="48.82123" lon="2.20252">
        <ele>106.1</ele>
        <time>2015-05-11T19:13:32.575Z</time>
      </trkpt>
      <trkpt lat="48.82121" lon="2.20245">
        <ele>106.2</ele>
        <time>2015-05-11T19:13:33.581Z</time>
      </trkpt>
      <trkpt lat="48.82119" lon="2.20238">
        <ele>106.3</ele>
        <time>2015-05-11T19:13:34.587Z</time>
      </trkpt>
      <trkpt lat="48.82117" lon="2.2023">
        <ele>106.3</ele>
        <time>2015-05-11T19:13:35.503Z</time>
      </trkpt>
      <trkpt lat="48.82114" lon="2.20223">
        <ele>107</ele>
        <time>2015-05-11T19:13:36.589Z</time>
      </trkpt>
      <trkpt lat="48.82111" lon="2.20216">
        <ele>107.5</ele>
        <time>2015-05-11T19:13:37.595Z</time>
      </trkpt>
      <trkpt lat="48.82108" lon="2.20207">
        <ele>107.9</ele>
        <time>2015-05-11T19:13:38.608Z</time>
      </trkpt>
      <trkpt lat="48.82104" lon="2.20199">
        <ele>108.1</ele>
        <time>2015-05-11T19:13:39.617Z</time>
      </trkpt>
      <trkpt lat="48.82102" lon="2.20193">
        <ele>108.2</ele>
        <time>2015-05-11T19:13:40.535Z</time>
      </trkpt>
      <trkpt lat="48.82098" lon="2.20186">
        <ele>108.2</ele>
        <time>2015-05-11T19:13:41.552Z</time>
      </trkpt>
      <trkpt lat="48.82093" lon="2.20179">
        <ele>107.8</ele>
        <time>2015-05-11T19:13:42.623Z</time>
      </trkpt>
      <trkpt lat="48.82088" lon="2.20173">
        <ele>108.2</ele>
        <time>2015-05-11T19:13:43.511Z</time>
      </trkpt>
      <trkpt lat="48.82083" lon="2.20165">
        <ele>108.5</ele>
        <time>2015-05-11T19:13:44.527Z</time>
      </trkpt>
      <trkpt lat="48.82078" lon="2.20159">
        <ele>109.1</ele>
        <time>2015-05-11T19:13:45.528Z</time>
      </trkpt>
      <trkpt lat="48.82074" lon="2.20153">
        <ele>109.6</ele>
        <time>2015-05-11T19:13:46.539Z</time>
      </trkpt>
      <trkpt lat="48.8207" lon="2.20146">
        <ele>110</ele>
        <time>2015-05-11T19:13:47.545Z</time>
      </trkpt>
      <trkpt lat="48.82066" lon="2.2014">
        <ele>110.1</ele>
        <time>2015-05-11T19:13:48.571Z</time>
      </trkpt>
      <trkpt lat="48.82063" lon="2.20133">
        <ele>110</ele>
        <time>2015-05-11T19:13:49.580Z</time>
      </trkpt>
      <trkpt lat="48.82059" lon="2.20126">
        <ele>109.9</ele>
        <time>2015-05-11T19:13:50.597Z</time>
      </trkpt>
      <trkpt lat="48.82054" lon="2.20122">
        <ele>110.7</ele>
        <time>2015-05-11T19:13:51.603Z</time>
      </trkpt>
      <trkpt lat="48.82048" lon="2.20118">
        <ele>111.5</ele>
        <time>2015-05-11T19:13:52.543Z</time>
      </trkpt>
      <trkpt lat="48.82042" lon="2.20115">
        <ele>112.4</ele>
        <time>2015-05-11T19:13:53.547Z</time>
      </trkpt>
      <trkpt lat="48.82037" lon="2.2011">
        <ele>113.5</ele>
        <time>2015-05-11T19:13:54.572Z</time>
      </trkpt>
      <trkpt lat="48.82033" lon="2.20104">
        <ele>113.8</ele>
        <time>2015-05-11T19:13:55.578Z</time>
      </trkpt>
      <trkpt lat="48.8203" lon="2.20097">
        <ele>114</ele>
        <time>2015-05-11T19:13:56.534Z</time>
      </trkpt>
      <trkpt lat="48.82027" lon="2.20089">
        <ele>114.9</ele>
        <time>2015-05-11T19:13:57.546Z</time>
      </trkpt>
      <trkpt lat="48.82023" lon="2.20078">
        <ele>116.3</ele>
        <time>2015-05-11T19:13:58.571Z</time>
      </trkpt>
      <trkpt lat="48.82018" lon="2.20068">
        <ele>117.9</ele>
        <time>2015-05-11T19:13:59.585Z</time>
      </trkpt>
      <trkpt lat="48.82014" lon="2.20059">
        <ele>118.7</ele>
        <time>2015-05-11T19:14:00.629Z</time>
      </trkpt>
      <trkpt lat="48.8201" lon="2.2005">
        <ele>119.5</ele>
        <time>2015-05-11T19:14:01.688Z</time>
      </trkpt>
      <trkpt lat="48.82006" lon="2.20042">
        <ele>120</ele>
        <time>2015-05-11T19:14:02.535Z</time>
      </trkpt>
      <trkpt lat="48.82002" lon="2.20036">
        <ele>121</ele>
        <time>2015-05-11T19:14:03.564Z</time>
      </trkpt>
      <trkpt lat="48.81998" lon="2.20027">
        <ele>120.9</ele>
        <time>2015-05-11T19:14:04.575Z</time>
      </trkpt>
      <trkpt lat="48.81992" lon="2.20021">
        <ele>121.9</ele>
        <time>2015-05-11T19:14:05.595Z</time>
      </trkpt>
      <trkpt lat="48.81988" lon="2.20016">
        <ele>122.5</ele>
        <time>2015-05-11T19:14:06.594Z</time>
      </trkpt>
      <trkpt lat="48.81983" lon="2.20011">
        <ele>123.3</ele>
        <time>2015-05-11T19:14:07.601Z</time>
      </trkpt>
      <trkpt lat="48.81977" lon="2.20005">
        <ele>124.5</ele>
        <time>2015-05-11T19:14:08.617Z</time>
      </trkpt>
      <trkpt lat="48.81972" lon="2.20001">
        <ele>125.6</ele>
        <time>2015-05-11T19:14:09.539Z</time>
      </trkpt>
      <trkpt lat="48.81967" lon="2.19996">
        <ele>126</ele>
        <time>2015-05-11T19:14:10.543Z</time>
      </trkpt>
      <trkpt lat="48.81964" lon="2.19991">
        <ele>126</ele>
        <time>2015-05-11T19:14:11.570Z</time>
      </trkpt>
      <trkpt lat="48.8196" lon="2.19985">
        <ele>126.2</ele>
        <time>2015-05-11T19:14:12.570Z</time>
      </trkpt>
      <trkpt lat="48.81955" lon="2.19977">
        <ele>126.7</ele>
        <time>2015-05-11T19:14:13.536Z</time>
      </trkpt>
      <trkpt lat="48.81951" lon="2.19969">
        <ele>127.1</ele>
        <time>2015-05-11T19:14:14.589Z</time>
      </trkpt>
      <trkpt lat="48.81948" lon="2.19962">
        <ele>127.8</ele>
        <time>2015-05-11T19:14:15.598Z</time>
      </trkpt>
      <trkpt lat="48.81946" lon="2.19955">
        <ele>127.8</ele>
        <time>2015-05-11T19:14:16.891Z</time>
      </trkpt>
      <trkpt lat="48.81943" lon="2.19945">
        <ele>127.9</ele>
        <time>2015-05-11T19:14:17.630Z</time>
      </trkpt>
      <trkpt lat="48.8194" lon="2.19938">
        <ele>128.2</ele>
        <time>2015-05-11T19:14:18.544Z</time>
      </trkpt>
      <trkpt lat="48.81937" lon="2.19932">
        <ele>128.4</ele>
        <time>2015-05-11T19:14:19.710Z</time>
      </trkpt>
      <trkpt lat="48.81934" lon="2.19927">
        <ele>128.6</ele>
        <time>2015-05-11T19:14:20.541Z</time>
      </trkpt>
      <trkpt lat="48.81931" lon="2.19921">
        <ele>128.9</ele>
        <time>2015-05-11T19:14:21.545Z</time>
      </trkpt>
      <trkpt lat="48.81927" lon="2.19914">
        <ele>128.6</ele>
        <time>2015-05-11T19:14:22.558Z</time>
      </trkpt>
      <trkpt lat="48.81924" lon="2.19907">
        <ele>128.3</ele>
        <time>2015-05-11T19:14:23.581Z</time>
      </trkpt>
      <trkpt lat="48.81921" lon="2.199">
        <ele>127.2</ele>
        <time>2015-05-11T19:14:24.594Z</time>
      </trkpt>
      <trkpt lat="48.81919" lon="2.19893">
        <ele>126.1</ele>
        <time>2015-05-11T19:14:25.600Z</time>
      </trkpt>
      <trkpt lat="48.81917" lon="2.19887">
        <ele>125.4</ele>
        <time>2015-05-11T19:14:26.617Z</time>
      </trkpt>
      <trkpt lat="48.81915" lon="2.1988">
        <ele>125.3</ele>
        <time>2015-05-11T19:14:27.530Z</time>
      </trkpt>
      <trkpt lat="48.81912" lon="2.19874">
        <ele>125.1</ele>
        <time>2015-05-11T19:14:28.550Z</time>
      </trkpt>
      <trkpt lat="48.81909" lon="2.19868">
        <ele>125</ele>
        <time>2015-05-11T19:14:29.562Z</time>
      </trkpt>
      <trkpt lat="48.81905" lon="2.19862">
        <ele>125</ele>
        <time>2015-05-11T19:14:30.585Z</time>
      </trkpt>
      <trkpt lat="48.81902" lon="2.19856">
        <ele>124.8</ele>
        <time>2015-05-11T19:14:31.567Z</time>
      </trkpt>
      <trkpt lat="48.81898" lon="2.19849">
        <ele>124.8</ele>
        <time>2015-05-11T19:14:32.589Z</time>
      </trkpt>
      <trkpt lat="48.81894" lon="2.19842">
        <ele>125</ele>
        <time>2015-05-11T19:14:33.507Z</time>
      </trkpt>
      <trkpt lat="48.81889" lon="2.19835">
        <ele>125.2</ele>
        <time>2015-05-11T19:14:34.525Z</time>
      </trkpt>
      <trkpt lat="48.81884" lon="2.19829">
        <ele>125.4</ele>
        <time>2015-05-11T19:14:35.547Z</time>
      </trkpt>
      <trkpt lat="48.81879" lon="2.19824">
        <ele>125.8</ele>
        <time>2015-05-11T19:14:36.560Z</time>
      </trkpt>
      <trkpt lat="48.81869" lon="2.19814">
        <ele>126</ele>
        <time>2015-05-11T19:14:38.590Z</time>
      </trkpt>
      <trkpt lat="48.81861" lon="2.19807">
        <ele>125.2</ele>
        <time>2015-05-11T19:14:39.598Z</time>
      </trkpt>
      <trkpt lat="48.81856" lon="2.19802">
        <ele>125</ele>
        <time>2015-05-11T19:14:40.616Z</time>
      </trkpt>
      <trkpt lat="48.81851" lon="2.19797">
        <ele>125</ele>
        <time>2015-05-11T19:14:41.626Z</time>
      </trkpt>
      <trkpt lat="48.81846" lon="2.19792">
        <ele>125.1</ele>
        <time>2015-05-11T19:14:42.551Z</time>
      </trkpt>
      <trkpt lat="48.81841" lon="2.19786">
        <ele>125.5</ele>
        <time>2015-05-11T19:14:43.628Z</time>
      </trkpt>
      <trkpt lat="48.81836" lon="2.19779">
        <ele>126.2</ele>
        <time>2015-05-11T19:14:44.527Z</time>
      </trkpt>
      <trkpt lat="48.81832" lon="2.19772">
        <ele>126.4</ele>
        <time>2015-05-11T19:14:45.536Z</time>
      </trkpt>
      <trkpt lat="48.81828" lon="2.19766">
        <ele>126.7</ele>
        <time>2015-05-11T19:14:46.564Z</time>
      </trkpt>
      <trkpt lat="48.81824" lon="2.19758">
        <ele>126.7</ele>
        <time>2015-05-11T19:14:47.575Z</time>
      </trkpt>
      <trkpt lat="48.8182" lon="2.19752">
        <ele>127.2</ele>
        <time>2015-05-11T19:14:48.598Z</time>
      </trkpt>
      <trkpt lat="48.81814" lon="2.19745">
        <ele>128.2</ele>
        <time>2015-05-11T19:14:49.601Z</time>
      </trkpt>
      <trkpt lat="48.81809" lon="2.19737">
        <ele>129.1</ele>
        <time>2015-05-11T19:14:50.510Z</time>
      </trkpt>
      <trkpt lat="48.81803" lon="2.19729">
        <ele>129.5</ele>
        <time>2015-05-11T19:14:51.569Z</time>
      </trkpt>
      <trkpt lat="48.81798" lon="2.19722">
        <ele>129.3</ele>
        <time>2015-05-11T19:14:52.571Z</time>
      </trkpt>
      <trkpt lat="48.81793" lon="2.19715">
        <ele>129.1</ele>
        <time>2015-05-11T19:14:53.609Z</time>
      </trkpt>
      <trkpt lat="48.81789" lon="2.19705">
        <ele>129.2</ele>
        <time>2015-05-11T19:14:54.626Z</time>
      </trkpt>
      <trkpt lat="48.81785" lon="2.19697">
        <ele>129.3</ele>
        <time>2015-05-11T19:14:55.563Z</time>
      </trkpt>
      <trkpt lat="48.81781" lon="2.1969">
        <ele>129.7</ele>
        <time>2015-05-11T19:14:56.572Z</time>
      </trkpt>
      <trkpt lat="48.81777" lon="2.19685">
        <ele>129.6</ele>
        <time>2015-05-11T19:14:57.525Z</time>
      </trkpt>
      <trkpt lat="48.81772" lon="2.19681">
        <ele>129.6</ele>
        <time>2015-05-11T19:14:58.548Z</time>
      </trkpt>
      <trkpt lat="48.81768" lon="2.19675">
        <ele>129.5</ele>
        <time>2015-05-11T19:14:59.572Z</time>
      </trkpt>
      <trkpt lat="48.81764" lon="2.19669">
        <ele>129.4</ele>
        <time>2015-05-11T19:15:00.617Z</time>
      </trkpt>
      <trkpt lat="48.8176" lon="2.19662">
        <ele>129.7</ele>
        <time>2015-05-11T19:15:01.514Z</time>
      </trkpt>
      <trkpt lat="48.81756" lon="2.19655">
        <ele>130.2</ele>
        <time>2015-05-11T19:15:02.669Z</time>
      </trkpt>
      <trkpt lat="48.8175" lon="2.19648">
        <ele>130.7</ele>
        <time>2015-05-11T19:15:03.560Z</time>
      </trkpt>
      <trkpt lat="48.81745" lon="2.19642">
        <ele>131.1</ele>
        <time>2015-05-11T19:15:04.507Z</time>
      </trkpt>
      <trkpt lat="48.8174" lon="2.19634">
        <ele>131.9</ele>
        <time>2015-05-11T19:15:05.620Z</time>
      </trkpt>
      <trkpt lat="48.81735" lon="2.19628">
        <ele>132.2</ele>
        <time>2015-05-11T19:15:06.677Z</time>
      </trkpt>
      <trkpt lat="48.8173" lon="2.1962">
        <ele>132.7</ele>
        <time>2015-05-11T19:15:07.514Z</time>
      </trkpt>
      <trkpt lat="48.81724" lon="2.19613">
        <ele>133.5</ele>
        <time>2015-05-11T19:15:08.519Z</time>
      </trkpt>
      <trkpt lat="48.81719" lon="2.19606">
        <ele>134</ele>
        <time>2015-05-11T19:15:09.530Z</time>
      </trkpt>
      <trkpt lat="48.81715" lon="2.19599">
        <ele>133.9</ele>
        <time>2015-05-11T19:15:10.550Z</time>
      </trkpt>
      <trkpt lat="48.81711" lon="2.19593">
        <ele>133.5</ele>
        <time>2015-05-11T19:15:11.532Z</time>
      </trkpt>
      <trkpt lat="48.81707" lon="2.19587">
        <ele>133.2</ele>
        <time>2015-05-11T19:15:12.549Z</time>
      </trkpt>
      <trkpt lat="48.81702" lon="2.19582">
        <ele>132.6</ele>
        <time>2015-05-11T19:15:13.572Z</time>
      </trkpt>
      <trkpt lat="48.81698" lon="2.19577">
        <ele>132.3</ele>
        <time>2015-05-11T19:15:14.605Z</time>
      </trkpt>
      <trkpt lat="48.81692" lon="2.19573">
        <ele>131.8</ele>
        <time>2015-05-11T19:15:15.518Z</time>
      </trkpt>
      <trkpt lat="48.81688" lon="2.19568">
        <ele>131.4</ele>
        <time>2015-05-11T19:15:16.535Z</time>
      </trkpt>
      <trkpt lat="48.81683" lon="2.19563">
        <ele>131.6</ele>
        <time>2015-05-11T19:15:17.539Z</time>
      </trkpt>
      <trkpt lat="48.81679" lon="2.19557">
        <ele>130.7</ele>
        <time>2015-05-11T19:15:18.581Z</time>
      </trkpt>
      <trkpt lat="48.81676" lon="2.19551">
        <ele>130.2</ele>
        <time>2015-05-11T19:15:19.589Z</time>
      </trkpt>
      <trkpt lat="48.81672" lon="2.19543">
        <ele>130</ele>
        <time>2015-05-11T19:15:20.609Z</time>
      </trkpt>
      <trkpt lat="48.81668" lon="2.19534">
        <ele>130.2</ele>
        <time>2015-05-11T19:15:21.526Z</time>
      </trkpt>
      <trkpt lat="48.81664" lon="2.19527">
        <ele>129.7</ele>
        <time>2015-05-11T19:15:22.549Z</time>
      </trkpt>
      <trkpt lat="48.81661" lon="2.19522">
        <ele>129.3</ele>
        <time>2015-05-11T19:15:23.558Z</time>
      </trkpt>
      <trkpt lat="48.81657" lon="2.19515">
        <ele>129.3</ele>
        <time>2015-05-11T19:15:24.566Z</time>
      </trkpt>
      <trkpt lat="48.81654" lon="2.19508">
        <ele>129.4</ele>
        <time>2015-05-11T19:15:25.591Z</time>
      </trkpt>
      <trkpt lat="48.8165" lon="2.19503">
        <ele>129.5</ele>
        <time>2015-05-11T19:15:26.600Z</time>
      </trkpt>
      <trkpt lat="48.81647" lon="2.19497">
        <ele>129.7</ele>
        <time>2015-05-11T19:15:27.515Z</time>
      </trkpt>
      <trkpt lat="48.81645" lon="2.19488">
        <ele>129.4</ele>
        <time>2015-05-11T19:15:29.555Z</time>
      </trkpt>
      <trkpt lat="48.81643" lon="2.19484">
        <ele>129.4</ele>
        <time>2015-05-11T19:15:30.582Z</time>
      </trkpt>
      <trkpt lat="48.81638" lon="2.19475">
        <ele>130.4</ele>
        <time>2015-05-11T19:15:32.573Z</time>
      </trkpt>
      <trkpt lat="48.81634" lon="2.19471">
        <ele>130.7</ele>
        <time>2015-05-11T19:15:33.763Z</time>
      </trkpt>
      <trkpt lat="48.8163" lon="2.19463">
        <ele>130.5</ele>
        <time>2015-05-11T19:15:35.599Z</time>
      </trkpt>
      <trkpt lat="48.81628" lon="2.1946">
        <ele>130.8</ele>
        <time>2015-05-11T19:15:36.650Z</time>
      </trkpt>
      <trkpt lat="48.81624" lon="2.19452">
        <ele>130.6</ele>
        <time>2015-05-11T19:15:38.547Z</time>
      </trkpt>
      <trkpt lat="48.81622" lon="2.19447">
        <ele>130.2</ele>
        <time>2015-05-11T19:15:39.567Z</time>
      </trkpt>
      <trkpt lat="48.81616" lon="2.19438">
        <ele>130.8</ele>
        <time>2015-05-11T19:15:42.569Z</time>
      </trkpt>
      <trkpt lat="48.81615" lon="2.19435">
        <ele>131.1</ele>
        <time>2015-05-11T19:15:43.579Z</time>
      </trkpt>
      <trkpt lat="48.8161" lon="2.19427">
        <ele>131.7</ele>
        <time>2015-05-11T19:15:46.557Z</time>
      </trkpt>
      <trkpt lat="48.81607" lon="2.19423">
        <ele>131.7</ele>
        <time>2015-05-11T19:15:47.663Z</time>
      </trkpt>
      <trkpt lat="48.81602" lon="2.19417">
        <ele>131.6</ele>
        <time>2015-05-11T19:15:49.618Z</time>
      </trkpt>
      <trkpt lat="48.81598" lon="2.19415">
        <ele>131.4</ele>
        <time>2015-05-11T19:15:50.574Z</time>
      </trkpt>
      <trkpt lat="48.81591" lon="2.19409">
        <ele>132.6</ele>
        <time>2015-05-11T19:18:00.596Z</time>
      </trkpt>
      <trkpt lat="48.816" lon="2.19397">
        <ele>134.4</ele>
        <time>2015-05-11T19:18:01.617Z</time>
      </trkpt>
      <trkpt lat="48.81594" lon="2.19396">
        <ele>134</ele>
        <time>2015-05-11T19:18:02.507Z</time>
      </trkpt>
      <trkpt lat="48.81589" lon="2.19394">
        <ele>133.9</ele>
        <time>2015-05-11T19:18:03.516Z</time>
      </trkpt>
      <trkpt lat="48.81585" lon="2.19391">
        <ele>133.4</ele>
        <time>2015-05-11T19:18:04.562Z</time>
      </trkpt>
      <trkpt lat="48.8158" lon="2.19389">
        <ele>133.2</ele>
        <time>2015-05-11T19:18:05.580Z</time>
      </trkpt>
      <trkpt lat="48.81572" lon="2.19385">
        <ele>133</ele>
        <time>2015-05-11T19:18:07.608Z</time>
      </trkpt>
      <trkpt lat="48.81567" lon="2.19382">
        <ele>132.7</ele>
        <time>2015-05-11T19:18:08.607Z</time>
      </trkpt>
      <trkpt lat="48.81559" lon="2.19378">
        <ele>132.9</ele>
        <time>2015-05-11T19:18:10.534Z</time>
      </trkpt>
      <trkpt lat="48.81555" lon="2.19376">
        <ele>132.8</ele>
        <time>2015-05-11T19:18:11.583Z</time>
      </trkpt>
      <trkpt lat="48.81547" lon="2.1937">
        <ele>132.9</ele>
        <time>2015-05-11T19:18:12.161Z</time>
      </trkpt>
      <trkpt lat="48.81543" lon="2.19368">
        <ele>132.9</ele>
        <time>2015-05-11T19:18:14.567Z</time>
      </trkpt>
      <trkpt lat="48.81538" lon="2.19365">
        <ele>132.9</ele>
        <time>2015-05-11T19:18:15.576Z</time>
      </trkpt>
      <trkpt lat="48.81534" lon="2.19362">
        <ele>132.7</ele>
        <time>2015-05-11T19:18:16.631Z</time>
      </trkpt>
      <trkpt lat="48.81526" lon="2.19356">
        <ele>132.3</ele>
        <time>2015-05-11T19:18:18.546Z</time>
      </trkpt>
      <trkpt lat="48.81522" lon="2.19353">
        <ele>132.2</ele>
        <time>2015-05-11T19:18:19.590Z</time>
      </trkpt>
      <trkpt lat="48.81518" lon="2.19349">
        <ele>132.1</ele>
        <time>2015-05-11T19:18:20.601Z</time>
      </trkpt>
      <trkpt lat="48.81513" lon="2.19346">
        <ele>132.1</ele>
        <time>2015-05-11T19:18:21.602Z</time>
      </trkpt>
      <trkpt lat="48.81508" lon="2.19344">
        <ele>132.3</ele>
        <time>2015-05-11T19:18:22.503Z</time>
      </trkpt>
      <trkpt lat="48.81502" lon="2.1934">
        <ele>132.4</ele>
        <time>2015-05-11T19:18:23.566Z</time>
      </trkpt>
      <trkpt lat="48.81498" lon="2.19336">
        <ele>132.2</ele>
        <time>2015-05-11T19:18:24.594Z</time>
      </trkpt>
      <trkpt lat="48.81493" lon="2.19333">
        <ele>132</ele>
        <time>2015-05-11T19:18:25.611Z</time>
      </trkpt>
      <trkpt lat="48.81488" lon="2.19329">
        <ele>131.9</ele>
        <time>2015-05-11T19:18:26.565Z</time>
      </trkpt>
      <trkpt lat="48.81483" lon="2.19325">
        <ele>132.3</ele>
        <time>2015-05-11T19:18:27.561Z</time>
      </trkpt>
      <trkpt lat="48.81477" lon="2.19323">
        <ele>133.1</ele>
        <time>2015-05-11T19:18:28.585Z</time>
      </trkpt>
      <trkpt lat="48.81471" lon="2.19322">
        <ele>133.8</ele>
        <time>2015-05-11T19:18:29.594Z</time>
      </trkpt>
      <trkpt lat="48.81466" lon="2.19319">
        <ele>133.4</ele>
        <time>2015-05-11T19:18:30.606Z</time>
      </trkpt>
      <trkpt lat="48.81462" lon="2.19317">
        <ele>133.5</ele>
        <time>2015-05-11T19:18:31.532Z</time>
      </trkpt>
      <trkpt lat="48.81457" lon="2.19314">
        <ele>133.7</ele>
        <time>2015-05-11T19:18:32.506Z</time>
      </trkpt>
      <trkpt lat="48.81453" lon="2.19311">
        <ele>133.7</ele>
        <time>2015-05-11T19:18:33.535Z</time>
      </trkpt>
      <trkpt lat="48.81444" lon="2.19306">
        <ele>134.5</ele>
        <time>2015-05-11T19:18:35.566Z</time>
      </trkpt>
      <trkpt lat="48.8144" lon="2.19304">
        <ele>134.9</ele>
        <time>2015-05-11T19:18:36.576Z</time>
      </trkpt>
      <trkpt lat="48.81435" lon="2.19302">
        <ele>135.3</ele>
        <time>2015-05-11T19:18:37.512Z</time>
      </trkpt>
      <trkpt lat="48.81431" lon="2.19299">
        <ele>135.2</ele>
        <time>2015-05-11T19:18:38.503Z</time>
      </trkpt>
      <trkpt lat="48.81426" lon="2.19296">
        <ele>135.2</ele>
        <time>2015-05-11T19:18:39.540Z</time>
      </trkpt>
      <trkpt lat="48.81422" lon="2.19294">
        <ele>135.4</ele>
        <time>2015-05-11T19:18:40.551Z</time>
      </trkpt>
      <trkpt lat="48.81418" lon="2.1929">
        <ele>135.4</ele>
        <time>2015-05-11T19:18:41.561Z</time>
      </trkpt>
      <trkpt lat="48.81414" lon="2.19287">
        <ele>134.9</ele>
        <time>2015-05-11T19:18:42.571Z</time>
      </trkpt>
      <trkpt lat="48.8141" lon="2.19284">
        <ele>134.5</ele>
        <time>2015-05-11T19:18:43.591Z</time>
      </trkpt>
      <trkpt lat="48.81405" lon="2.19282">
        <ele>134.5</ele>
        <time>2015-05-11T19:18:44.566Z</time>
      </trkpt>
      <trkpt lat="48.81398" lon="2.19275">
        <ele>134.6</ele>
        <time>2015-05-11T19:18:46.551Z</time>
      </trkpt>
      <trkpt lat="48.81394" lon="2.19272">
        <ele>134.9</ele>
        <time>2015-05-11T19:18:47.610Z</time>
      </trkpt>
      <trkpt lat="48.81386" lon="2.19267">
        <ele>135.4</ele>
        <time>2015-05-11T19:18:49.543Z</time>
      </trkpt>
      <trkpt lat="48.81381" lon="2.19266">
        <ele>135.9</ele>
        <time>2015-05-11T19:18:50.606Z</time>
      </trkpt>
      <trkpt lat="48.81376" lon="2.19264">
        <ele>135.9</ele>
        <time>2015-05-11T19:18:51.577Z</time>
      </trkpt>
      <trkpt lat="48.81372" lon="2.19263">
        <ele>136</ele>
        <time>2015-05-11T19:18:52.573Z</time>
      </trkpt>
      <trkpt lat="48.81367" lon="2.19261">
        <ele>136.6</ele>
        <time>2015-05-11T19:18:53.579Z</time>
      </trkpt>
      <trkpt lat="48.81362" lon="2.19261">
        <ele>136.9</ele>
        <time>2015-05-11T19:18:54.578Z</time>
      </trkpt>
      <trkpt lat="48.81357" lon="2.1926">
        <ele>137.2</ele>
        <time>2015-05-11T19:18:55.629Z</time>
      </trkpt>
      <trkpt lat="48.81353" lon="2.19257">
        <ele>137.3</ele>
        <time>2015-05-11T19:18:56.525Z</time>
      </trkpt>
      <trkpt lat="48.81345" lon="2.19252">
        <ele>137.2</ele>
        <time>2015-05-11T19:18:58.560Z</time>
      </trkpt>
      <trkpt lat="48.81341" lon="2.19249">
        <ele>137.2</ele>
        <time>2015-05-11T19:18:59.556Z</time>
      </trkpt>
      <trkpt lat="48.81336" lon="2.19245">
        <ele>137.2</ele>
        <time>2015-05-11T19:19:00.563Z</time>
      </trkpt>
      <trkpt lat="48.81332" lon="2.19242">
        <ele>137.3</ele>
        <time>2015-05-11T19:19:01.581Z</time>
      </trkpt>
      <trkpt lat="48.81327" lon="2.19234">
        <ele>137.3</ele>
        <time>2015-05-11T19:19:03.535Z</time>
      </trkpt>
      <trkpt lat="48.81323" lon="2.1923">
        <ele>137.5</ele>
        <time>2015-05-11T19:19:04.566Z</time>
      </trkpt>
      <trkpt lat="48.81317" lon="2.19224">
        <ele>137.7</ele>
        <time>2015-05-11T19:19:06.617Z</time>
      </trkpt>
      <trkpt lat="48.81314" lon="2.19222">
        <ele>138</ele>
        <time>2015-05-11T19:19:07.556Z</time>
      </trkpt>
      <trkpt lat="48.81307" lon="2.19219">
        <ele>138.6</ele>
        <time>2015-05-11T19:19:09.553Z</time>
      </trkpt>
      <trkpt lat="48.81304" lon="2.19218">
        <ele>138.8</ele>
        <time>2015-05-11T19:19:10.565Z</time>
      </trkpt>
      <trkpt lat="48.81296" lon="2.19217">
        <ele>138.7</ele>
        <time>2015-05-11T19:19:13.508Z</time>
      </trkpt>
      <trkpt lat="48.81294" lon="2.19216">
        <ele>138.8</ele>
        <time>2015-05-11T19:19:14.529Z</time>
      </trkpt>
      <trkpt lat="48.81288" lon="2.19213">
        <ele>138.8</ele>
        <time>2015-05-11T19:19:16.551Z</time>
      </trkpt>
      <trkpt lat="48.81284" lon="2.19212">
        <ele>139</ele>
        <time>2015-05-11T19:19:17.565Z</time>
      </trkpt>
      <trkpt lat="48.8128" lon="2.19211">
        <ele>139</ele>
        <time>2015-05-11T19:19:18.581Z</time>
      </trkpt>
      <trkpt lat="48.81275" lon="2.19209">
        <ele>139.4</ele>
        <time>2015-05-11T19:19:19.601Z</time>
      </trkpt>
      <trkpt lat="48.81267" lon="2.19208">
        <ele>139.8</ele>
        <time>2015-05-11T19:19:21.513Z</time>
      </trkpt>
      <trkpt lat="48.81262" lon="2.19207">
        <ele>140.1</ele>
        <time>2015-05-11T19:19:22.577Z</time>
      </trkpt>
      <trkpt lat="48.81254" lon="2.19207">
        <ele>140.4</ele>
        <time>2015-05-11T19:19:24.598Z</time>
      </trkpt>
      <trkpt lat="48.8125" lon="2.19207">
        <ele>140.4</ele>
        <time>2015-05-11T19:19:25.626Z</time>
      </trkpt>
      <trkpt lat="48.81242" lon="2.19207">
        <ele>141.1</ele>
        <time>2015-05-11T19:19:27.534Z</time>
      </trkpt>
      <trkpt lat="48.81237" lon="2.19206">
        <ele>141.4</ele>
        <time>2015-05-11T19:19:28.551Z</time>
      </trkpt>
      <trkpt lat="48.81232" lon="2.19206">
        <ele>141.8</ele>
        <time>2015-05-11T19:19:29.563Z</time>
      </trkpt>
      <trkpt lat="48.81228" lon="2.19205">
        <ele>141.9</ele>
        <time>2015-05-11T19:19:30.579Z</time>
      </trkpt>
      <trkpt lat="48.8122" lon="2.19203">
        <ele>142.8</ele>
        <time>2015-05-11T19:19:32.609Z</time>
      </trkpt>
      <trkpt lat="48.81216" lon="2.19203">
        <ele>143.4</ele>
        <time>2015-05-11T19:19:33.603Z</time>
      </trkpt>
      <trkpt lat="48.81208" lon="2.192">
        <ele>144.9</ele>
        <time>2015-05-11T19:19:35.544Z</time>
      </trkpt>
      <trkpt lat="48.81204" lon="2.192">
        <ele>145.9</ele>
        <time>2015-05-11T19:19:36.639Z</time>
      </trkpt>
      <trkpt lat="48.81198" lon="2.192">
        <ele>147</ele>
        <time>2015-05-11T19:19:37.505Z</time>
      </trkpt>
      <trkpt lat="48.81193" lon="2.19201">
        <ele>147.7</ele>
        <time>2015-05-11T19:19:38.513Z</time>
      </trkpt>
      <trkpt lat="48.81187" lon="2.19201">
        <ele>148.4</ele>
        <time>2015-05-11T19:19:39.525Z</time>
      </trkpt>
      <trkpt lat="48.8118" lon="2.19202">
        <ele>149.3</ele>
        <time>2015-05-11T19:19:40.555Z</time>
      </trkpt>
      <trkpt lat="48.81174" lon="2.19203">
        <ele>150</ele>
        <time>2015-05-11T19:19:42.366Z</time>
      </trkpt>
      <trkpt lat="48.81167" lon="2.19204">
        <ele>150.4</ele>
        <time>2015-05-11T19:19:42.537Z</time>
      </trkpt>
      <trkpt lat="48.8116" lon="2.19205">
        <ele>150.7</ele>
        <time>2015-05-11T19:19:43.546Z</time>
      </trkpt>
      <trkpt lat="48.81153" lon="2.19206">
        <ele>151.2</ele>
        <time>2015-05-11T19:19:44.585Z</time>
      </trkpt>
      <trkpt lat="48.81147" lon="2.19205">
        <ele>151.4</ele>
        <time>2015-05-11T19:19:45.501Z</time>
      </trkpt>
      <trkpt lat="48.81142" lon="2.19204">
        <ele>151.6</ele>
        <time>2015-05-11T19:19:46.541Z</time>
      </trkpt>
      <trkpt lat="48.81136" lon="2.19203">
        <ele>152.1</ele>
        <time>2015-05-11T19:19:47.617Z</time>
      </trkpt>
      <trkpt lat="48.81129" lon="2.19203">
        <ele>151.9</ele>
        <time>2015-05-11T19:19:48.622Z</time>
      </trkpt>
      <trkpt lat="48.81117" lon="2.19202">
        <ele>150.2</ele>
        <time>2015-05-11T19:19:49.540Z</time>
      </trkpt>
      <trkpt lat="48.81112" lon="2.19201">
        <ele>150.2</ele>
        <time>2015-05-11T19:19:50.608Z</time>
      </trkpt>
      <trkpt lat="48.81107" lon="2.19198">
        <ele>150.1</ele>
        <time>2015-05-11T19:19:51.568Z</time>
      </trkpt>
      <trkpt lat="48.81099" lon="2.19195">
        <ele>150.2</ele>
        <time>2015-05-11T19:19:53.599Z</time>
      </trkpt>
      <trkpt lat="48.81095" lon="2.19194">
        <ele>150.2</ele>
        <time>2015-05-11T19:19:54.624Z</time>
      </trkpt>
      <trkpt lat="48.8109" lon="2.19194">
        <ele>150.8</ele>
        <time>2015-05-11T19:19:55.551Z</time>
      </trkpt>
      <trkpt lat="48.81086" lon="2.19193">
        <ele>151.8</ele>
        <time>2015-05-11T19:19:56.573Z</time>
      </trkpt>
      <trkpt lat="48.81078" lon="2.19188">
        <ele>153.6</ele>
        <time>2015-05-11T19:19:58.585Z</time>
      </trkpt>
      <trkpt lat="48.81074" lon="2.19186">
        <ele>154.3</ele>
        <time>2015-05-11T19:19:59.548Z</time>
      </trkpt>
      <trkpt lat="48.81067" lon="2.19181">
        <ele>155.3</ele>
        <time>2015-05-11T19:20:01.591Z</time>
      </trkpt>
      <trkpt lat="48.81063" lon="2.19179">
        <ele>155.8</ele>
        <time>2015-05-11T19:20:02.553Z</time>
      </trkpt>
      <trkpt lat="48.81059" lon="2.19176">
        <ele>156.2</ele>
        <time>2015-05-11T19:20:03.565Z</time>
      </trkpt>
      <trkpt lat="48.81055" lon="2.19174">
        <ele>156.5</ele>
        <time>2015-05-11T19:20:04.602Z</time>
      </trkpt>
      <trkpt lat="48.8105" lon="2.1917">
        <ele>156.9</ele>
        <time>2015-05-11T19:20:05.563Z</time>
      </trkpt>
      <trkpt lat="48.81046" lon="2.19165">
        <ele>156.9</ele>
        <time>2015-05-11T19:20:06.597Z</time>
      </trkpt>
      <trkpt lat="48.81042" lon="2.1916">
        <ele>156.7</ele>
        <time>2015-05-11T19:20:07.595Z</time>
      </trkpt>
      <trkpt lat="48.8104" lon="2.19153">
        <ele>156.4</ele>
        <time>2015-05-11T19:20:08.607Z</time>
      </trkpt>
      <trkpt lat="48.81039" lon="2.19146">
        <ele>156.4</ele>
        <time>2015-05-11T19:20:09.626Z</time>
      </trkpt>
      <trkpt lat="48.81036" lon="2.19138">
        <ele>156</ele>
        <time>2015-05-11T19:20:10.624Z</time>
      </trkpt>
      <trkpt lat="48.81034" lon="2.19129">
        <ele>155.1</ele>
        <time>2015-05-11T19:20:11.638Z</time>
      </trkpt>
      <trkpt lat="48.81033" lon="2.19121">
        <ele>154.2</ele>
        <time>2015-05-11T19:20:12.640Z</time>
      </trkpt>
      <trkpt lat="48.81029" lon="2.19113">
        <ele>153.2</ele>
        <time>2015-05-11T19:20:13.554Z</time>
      </trkpt>
      <trkpt lat="48.81026" lon="2.19106">
        <ele>152.7</ele>
        <time>2015-05-11T19:20:14.574Z</time>
      </trkpt>
      <trkpt lat="48.81025" lon="2.19099">
        <ele>152.2</ele>
        <time>2015-05-11T19:20:15.587Z</time>
      </trkpt>
      <trkpt lat="48.81024" lon="2.19091">
        <ele>151.5</ele>
        <time>2015-05-11T19:20:16.596Z</time>
      </trkpt>
      <trkpt lat="48.81022" lon="2.19084">
        <ele>150.9</ele>
        <time>2015-05-11T19:20:17.608Z</time>
      </trkpt>
      <trkpt lat="48.81019" lon="2.19078">
        <ele>150.4</ele>
        <time>2015-05-11T19:20:18.632Z</time>
      </trkpt>
      <trkpt lat="48.81017" lon="2.19071">
        <ele>150.2</ele>
        <time>2015-05-11T19:20:19.537Z</time>
      </trkpt>
      <trkpt lat="48.81016" lon="2.19065">
        <ele>149.4</ele>
        <time>2015-05-11T19:20:20.551Z</time>
      </trkpt>
      <trkpt lat="48.81012" lon="2.19054">
        <ele>147.8</ele>
        <time>2015-05-11T19:20:22.569Z</time>
      </trkpt>
      <trkpt lat="48.81009" lon="2.19048">
        <ele>147.3</ele>
        <time>2015-05-11T19:20:23.588Z</time>
      </trkpt>
      <trkpt lat="48.81006" lon="2.19041">
        <ele>146.5</ele>
        <time>2015-05-11T19:20:24.568Z</time>
      </trkpt>
      <trkpt lat="48.81003" lon="2.19035">
        <ele>146.4</ele>
        <time>2015-05-11T19:20:25.564Z</time>
      </trkpt>
      <trkpt lat="48.81001" lon="2.19028">
        <ele>146.5</ele>
        <time>2015-05-11T19:20:26.590Z</time>
      </trkpt>
      <trkpt lat="48.80998" lon="2.1902">
        <ele>146.1</ele>
        <time>2015-05-11T19:20:27.597Z</time>
      </trkpt>
      <trkpt lat="48.80995" lon="2.19014">
        <ele>145.5</ele>
        <time>2015-05-11T19:20:28.618Z</time>
      </trkpt>
      <trkpt lat="48.80992" lon="2.19008">
        <ele>145.9</ele>
        <time>2015-05-11T19:20:29.622Z</time>
      </trkpt>
      <trkpt lat="48.80987" lon="2.18997">
        <ele>146.4</ele>
        <time>2015-05-11T19:20:31.549Z</time>
      </trkpt>
      <trkpt lat="48.80984" lon="2.18992">
        <ele>146.5</ele>
        <time>2015-05-11T19:20:32.571Z</time>
      </trkpt>
      <trkpt lat="48.80981" lon="2.18986">
        <ele>146.5</ele>
        <time>2015-05-11T19:20:33.611Z</time>
      </trkpt>
      <trkpt lat="48.80979" lon="2.1898">
        <ele>146.2</ele>
        <time>2015-05-11T19:20:34.634Z</time>
      </trkpt>
      <trkpt lat="48.80973" lon="2.18969">
        <ele>146.6</ele>
        <time>2015-05-11T19:20:36.567Z</time>
      </trkpt>
      <trkpt lat="48.80971" lon="2.18964">
        <ele>146.2</ele>
        <time>2015-05-11T19:20:37.584Z</time>
      </trkpt>
      <trkpt lat="48.80966" lon="2.18956">
        <ele>145.9</ele>
        <time>2015-05-11T19:20:38.593Z</time>
      </trkpt>
      <trkpt lat="48.80962" lon="2.18948">
        <ele>145.1</ele>
        <time>2015-05-11T19:20:39.607Z</time>
      </trkpt>
      <trkpt lat="48.80959" lon="2.1894">
        <ele>144.9</ele>
        <time>2015-05-11T19:20:40.550Z</time>
      </trkpt>
      <trkpt lat="48.80957" lon="2.18932">
        <ele>144.6</ele>
        <time>2015-05-11T19:20:41.546Z</time>
      </trkpt>
      <trkpt lat="48.80954" lon="2.18926">
        <ele>144.5</ele>
        <time>2015-05-11T19:20:42.601Z</time>
      </trkpt>
      <trkpt lat="48.80952" lon="2.18919">
        <ele>144.5</ele>
        <time>2015-05-11T19:20:43.597Z</time>
      </trkpt>
      <trkpt lat="48.8095" lon="2.18912">
        <ele>145</ele>
        <time>2015-05-11T19:20:44.615Z</time>
      </trkpt>
      <trkpt lat="48.80945" lon="2.18902">
        <ele>146.6</ele>
        <time>2015-05-11T19:20:45.625Z</time>
      </trkpt>
      <trkpt lat="48.80943" lon="2.18896">
        <ele>146.5</ele>
        <time>2015-05-11T19:20:46.556Z</time>
      </trkpt>
      <trkpt lat="48.8094" lon="2.18889">
        <ele>145.8</ele>
        <time>2015-05-11T19:20:47.553Z</time>
      </trkpt>
      <trkpt lat="48.80937" lon="2.18881">
        <ele>144.9</ele>
        <time>2015-05-11T19:20:48.600Z</time>
      </trkpt>
      <trkpt lat="48.80934" lon="2.18874">
        <ele>144.2</ele>
        <time>2015-05-11T19:20:49.605Z</time>
      </trkpt>
      <trkpt lat="48.8093" lon="2.18863">
        <ele>143</ele>
        <time>2015-05-11T19:20:51.537Z</time>
      </trkpt>
      <trkpt lat="48.80927" lon="2.18857">
        <ele>143</ele>
        <time>2015-05-11T19:20:52.562Z</time>
      </trkpt>
      <trkpt lat="48.80923" lon="2.18845">
        <ele>143.4</ele>
        <time>2015-05-11T19:20:54.603Z</time>
      </trkpt>
      <trkpt lat="48.8092" lon="2.18841">
        <ele>144</ele>
        <time>2015-05-11T19:20:55.640Z</time>
      </trkpt>
      <trkpt lat="48.80918" lon="2.18836">
        <ele>144.1</ele>
        <time>2015-05-11T19:20:56.556Z</time>
      </trkpt>
      <trkpt lat="48.80914" lon="2.1883">
        <ele>144.2</ele>
        <time>2015-05-11T19:20:57.561Z</time>
      </trkpt>
      <trkpt lat="48.8091" lon="2.18824">
        <ele>144.3</ele>
        <time>2015-05-11T19:20:58.579Z</time>
      </trkpt>
      <trkpt lat="48.80907" lon="2.18816">
        <ele>144.6</ele>
        <time>2015-05-11T19:20:59.594Z</time>
      </trkpt>
      <trkpt lat="48.80903" lon="2.18808">
        <ele>144.5</ele>
        <time>2015-05-11T19:21:00.604Z</time>
      </trkpt>
      <trkpt lat="48.80901" lon="2.18801">
        <ele>144.6</ele>
        <time>2015-05-11T19:21:01.615Z</time>
      </trkpt>
      <trkpt lat="48.80898" lon="2.18795">
        <ele>144.6</ele>
        <time>2015-05-11T19:21:02.575Z</time>
      </trkpt>
      <trkpt lat="48.80895" lon="2.18789">
        <ele>144.5</ele>
        <time>2015-05-11T19:21:03.544Z</time>
      </trkpt>
      <trkpt lat="48.8089" lon="2.1878">
        <ele>143.9</ele>
        <time>2015-05-11T19:21:05.570Z</time>
      </trkpt>
      <trkpt lat="48.80888" lon="2.18774">
        <ele>143.5</ele>
        <time>2015-05-11T19:21:06.577Z</time>
      </trkpt>
      <trkpt lat="48.80885" lon="2.18764">
        <ele>143.2</ele>
        <time>2015-05-11T19:21:08.596Z</time>
      </trkpt>
      <trkpt lat="48.80884" lon="2.1876">
        <ele>142.9</ele>
        <time>2015-05-11T19:21:09.641Z</time>
      </trkpt>
      <trkpt lat="48.80885" lon="2.18753">
        <ele>142.8</ele>
        <time>2015-05-11T19:21:51.637Z</time>
      </trkpt>
      <trkpt lat="48.80877" lon="2.18752">
        <ele>142.2</ele>
        <time>2015-05-11T19:21:52.645Z</time>
      </trkpt>
      <trkpt lat="48.8087" lon="2.1875">
        <ele>142.2</ele>
        <time>2015-05-11T19:21:55.592Z</time>
      </trkpt>
      <trkpt lat="48.80866" lon="2.18747">
        <ele>142.5</ele>
        <time>2015-05-11T19:21:56.529Z</time>
      </trkpt>
      <trkpt lat="48.8086" lon="2.18739">
        <ele>143</ele>
        <time>2015-05-11T19:21:58.571Z</time>
      </trkpt>
      <trkpt lat="48.80858" lon="2.18736">
        <ele>143.2</ele>
        <time>2015-05-11T19:21:59.671Z</time>
      </trkpt>
      <trkpt lat="48.80855" lon="2.18731">
        <ele>143.7</ele>
        <time>2015-05-11T19:22:00.555Z</time>
      </trkpt>
      <trkpt lat="48.80851" lon="2.18726">
        <ele>144.2</ele>
        <time>2015-05-11T19:22:01.561Z</time>
      </trkpt>
      <trkpt lat="48.80847" lon="2.1872">
        <ele>144.6</ele>
        <time>2015-05-11T19:22:02.576Z</time>
      </trkpt>
      <trkpt lat="48.80841" lon="2.18713">
        <ele>145</ele>
        <time>2015-05-11T19:22:03.578Z</time>
      </trkpt>
      <trkpt lat="48.80836" lon="2.18707">
        <ele>145.3</ele>
        <time>2015-05-11T19:22:04.584Z</time>
      </trkpt>
      <trkpt lat="48.80829" lon="2.18703">
        <ele>146.4</ele>
        <time>2015-05-11T19:22:05.591Z</time>
      </trkpt>
      <trkpt lat="48.80822" lon="2.18698">
        <ele>147.5</ele>
        <time>2015-05-11T19:22:06.600Z</time>
      </trkpt>
      <trkpt lat="48.80816" lon="2.18693">
        <ele>148.5</ele>
        <time>2015-05-11T19:22:07.615Z</time>
      </trkpt>
      <trkpt lat="48.80812" lon="2.18688">
        <ele>149</ele>
        <time>2015-05-11T19:22:08.506Z</time>
      </trkpt>
      <trkpt lat="48.80807" lon="2.18682">
        <ele>149.2</ele>
        <time>2015-05-11T19:22:09.539Z</time>
      </trkpt>
      <trkpt lat="48.80801" lon="2.18675">
        <ele>149.6</ele>
        <time>2015-05-11T19:22:10.549Z</time>
      </trkpt>
      <trkpt lat="48.80794" lon="2.18669">
        <ele>150.1</ele>
        <time>2015-05-11T19:22:11.556Z</time>
      </trkpt>
      <trkpt lat="48.80788" lon="2.18662">
        <ele>150.4</ele>
        <time>2015-05-11T19:22:12.578Z</time>
      </trkpt>
      <trkpt lat="48.80782" lon="2.18658">
        <ele>150.7</ele>
        <time>2015-05-11T19:22:13.587Z</time>
      </trkpt>
      <trkpt lat="48.80776" lon="2.18653">
        <ele>150.9</ele>
        <time>2015-05-11T19:22:14.502Z</time>
      </trkpt>
      <trkpt lat="48.8077" lon="2.18649">
        <ele>151.1</ele>
        <time>2015-05-11T19:22:15.529Z</time>
      </trkpt>
      <trkpt lat="48.80764" lon="2.18644">
        <ele>151</ele>
        <time>2015-05-11T19:22:16.573Z</time>
      </trkpt>
      <trkpt lat="48.80758" lon="2.1864">
        <ele>150.9</ele>
        <time>2015-05-11T19:22:17.593Z</time>
      </trkpt>
      <trkpt lat="48.80753" lon="2.18636">
        <ele>151.2</ele>
        <time>2015-05-11T19:22:18.616Z</time>
      </trkpt>
      <trkpt lat="48.80748" lon="2.18632">
        <ele>151.4</ele>
        <time>2015-05-11T19:22:19.499Z</time>
      </trkpt>
      <trkpt lat="48.80742" lon="2.18628">
        <ele>151.6</ele>
        <time>2015-05-11T19:22:20.548Z</time>
      </trkpt>
      <trkpt lat="48.80737" lon="2.18623">
        <ele>151.7</ele>
        <time>2015-05-11T19:22:21.577Z</time>
      </trkpt>
      <trkpt lat="48.80731" lon="2.18617">
        <ele>151.8</ele>
        <time>2015-05-11T19:22:22.581Z</time>
      </trkpt>
      <trkpt lat="48.80726" lon="2.18612">
        <ele>151.9</ele>
        <time>2015-05-11T19:22:23.491Z</time>
      </trkpt>
      <trkpt lat="48.8072" lon="2.18608">
        <ele>151.9</ele>
        <time>2015-05-11T19:22:24.551Z</time>
      </trkpt>
      <trkpt lat="48.80707" lon="2.18596">
        <ele>152.9</ele>
        <time>2015-05-11T19:22:27.577Z</time>
      </trkpt>
      <trkpt lat="48.80702" lon="2.18591">
        <ele>153.1</ele>
        <time>2015-05-11T19:22:28.590Z</time>
      </trkpt>
      <trkpt lat="48.80697" lon="2.18584">
        <ele>153.3</ele>
        <time>2015-05-11T19:22:29.520Z</time>
      </trkpt>
      <trkpt lat="48.80692" lon="2.18578">
        <ele>153.7</ele>
        <time>2015-05-11T19:22:30.569Z</time>
      </trkpt>
      <trkpt lat="48.80665" lon="2.18557">
        <ele>155.5</ele>
        <time>2015-05-11T19:22:34.551Z</time>
      </trkpt>
      <trkpt lat="48.80659" lon="2.1855">
        <ele>156.2</ele>
        <time>2015-05-11T19:22:35.599Z</time>
      </trkpt>
      <trkpt lat="48.80654" lon="2.18544">
        <ele>156.6</ele>
        <time>2015-05-11T19:22:36.621Z</time>
      </trkpt>
      <trkpt lat="48.80647" lon="2.18538">
        <ele>155.8</ele>
        <time>2015-05-11T19:22:37.495Z</time>
      </trkpt>
      <trkpt lat="48.80642" lon="2.18533">
        <ele>156.6</ele>
        <time>2015-05-11T19:22:38.524Z</time>
      </trkpt>
      <trkpt lat="48.80637" lon="2.18528">
        <ele>156.8</ele>
        <time>2015-05-11T19:22:39.565Z</time>
      </trkpt>
      <trkpt lat="48.80631" lon="2.18523">
        <ele>156.8</ele>
        <time>2015-05-11T19:22:40.635Z</time>
      </trkpt>
      <trkpt lat="48.80625" lon="2.18519">
        <ele>156.6</ele>
        <time>2015-05-11T19:22:41.531Z</time>
      </trkpt>
      <trkpt lat="48.80619" lon="2.18514">
        <ele>156.2</ele>
        <time>2015-05-11T19:22:42.583Z</time>
      </trkpt>
      <trkpt lat="48.80612" lon="2.18508">
        <ele>154.7</ele>
        <time>2015-05-11T19:22:43.588Z</time>
      </trkpt>
      <trkpt lat="48.80607" lon="2.18503">
        <ele>154.4</ele>
        <time>2015-05-11T19:22:44.598Z</time>
      </trkpt>
      <trkpt lat="48.806" lon="2.18498">
        <ele>154.2</ele>
        <time>2015-05-11T19:22:45.543Z</time>
      </trkpt>
      <trkpt lat="48.80593" lon="2.18491">
        <ele>154.4</ele>
        <time>2015-05-11T19:22:46.556Z</time>
      </trkpt>
      <trkpt lat="48.80587" lon="2.18486">
        <ele>154.6</ele>
        <time>2015-05-11T19:22:47.567Z</time>
      </trkpt>
      <trkpt lat="48.80583" lon="2.18481">
        <ele>154.7</ele>
        <time>2015-05-11T19:22:48.592Z</time>
      </trkpt>
      <trkpt lat="48.80579" lon="2.18475">
        <ele>154.7</ele>
        <time>2015-05-11T19:22:49.523Z</time>
      </trkpt>
      <trkpt lat="48.80575" lon="2.18469">
        <ele>154.8</ele>
        <time>2015-05-11T19:22:50.533Z</time>
      </trkpt>
      <trkpt lat="48.80571" lon="2.18463">
        <ele>155.5</ele>
        <time>2015-05-11T19:22:51.546Z</time>
      </trkpt>
      <trkpt lat="48.80565" lon="2.18454">
        <ele>154.6</ele>
        <time>2015-05-11T19:22:52.557Z</time>
      </trkpt>
      <trkpt lat="48.80561" lon="2.18446">
        <ele>154.7</ele>
        <time>2015-05-11T19:22:53.567Z</time>
      </trkpt>
      <trkpt lat="48.80556" lon="2.18439">
        <ele>155</ele>
        <time>2015-05-11T19:22:54.581Z</time>
      </trkpt>
      <trkpt lat="48.80551" lon="2.18432">
        <ele>154.8</ele>
        <time>2015-05-11T19:22:55.587Z</time>
      </trkpt>
      <trkpt lat="48.80547" lon="2.18426">
        <ele>155</ele>
        <time>2015-05-11T19:22:56.611Z</time>
      </trkpt>
      <trkpt lat="48.80544" lon="2.1842">
        <ele>155.1</ele>
        <time>2015-05-11T19:22:57.538Z</time>
      </trkpt>
      <trkpt lat="48.80541" lon="2.18411">
        <ele>155.4</ele>
        <time>2015-05-11T19:22:58.537Z</time>
      </trkpt>
      <trkpt lat="48.80539" lon="2.18404">
        <ele>154.8</ele>
        <time>2015-05-11T19:22:59.554Z</time>
      </trkpt>
      <trkpt lat="48.80538" lon="2.18395">
        <ele>153.7</ele>
        <time>2015-05-11T19:23:00.571Z</time>
      </trkpt>
      <trkpt lat="48.80536" lon="2.18386">
        <ele>153.3</ele>
        <time>2015-05-11T19:23:01.589Z</time>
      </trkpt>
      <trkpt lat="48.80534" lon="2.18378">
        <ele>153</ele>
        <time>2015-05-11T19:23:02.608Z</time>
      </trkpt>
      <trkpt lat="48.80532" lon="2.1837">
        <ele>152.5</ele>
        <time>2015-05-11T19:23:03.534Z</time>
      </trkpt>
      <trkpt lat="48.8053" lon="2.18361">
        <ele>152.1</ele>
        <time>2015-05-11T19:23:04.599Z</time>
      </trkpt>
      <trkpt lat="48.80529" lon="2.18351">
        <ele>151.2</ele>
        <time>2015-05-11T19:23:05.594Z</time>
      </trkpt>
      <trkpt lat="48.80528" lon="2.18343">
        <ele>150.8</ele>
        <time>2015-05-11T19:23:06.599Z</time>
      </trkpt>
      <trkpt lat="48.80527" lon="2.18333">
        <ele>150.6</ele>
        <time>2015-05-11T19:23:07.608Z</time>
      </trkpt>
      <trkpt lat="48.80526" lon="2.18325">
        <ele>150.9</ele>
        <time>2015-05-11T19:23:08.515Z</time>
      </trkpt>
      <trkpt lat="48.80526" lon="2.18318">
        <ele>151.2</ele>
        <time>2015-05-11T19:23:09.551Z</time>
      </trkpt>
      <trkpt lat="48.80527" lon="2.1831">
        <ele>150.7</ele>
        <time>2015-05-11T19:23:10.556Z</time>
      </trkpt>
      <trkpt lat="48.80526" lon="2.18301">
        <ele>150.2</ele>
        <time>2015-05-11T19:23:11.565Z</time>
      </trkpt>
      <trkpt lat="48.80524" lon="2.18293">
        <ele>149.8</ele>
        <time>2015-05-11T19:23:12.592Z</time>
      </trkpt>
      <trkpt lat="48.80522" lon="2.18284">
        <ele>149.8</ele>
        <time>2015-05-11T19:23:13.599Z</time>
      </trkpt>
      <trkpt lat="48.8052" lon="2.18275">
        <ele>149.9</ele>
        <time>2015-05-11T19:23:14.604Z</time>
      </trkpt>
      <trkpt lat="48.8052" lon="2.18266">
        <ele>149.3</ele>
        <time>2015-05-11T19:23:15.515Z</time>
      </trkpt>
      <trkpt lat="48.80519" lon="2.18257">
        <ele>149.2</ele>
        <time>2015-05-11T19:23:16.543Z</time>
      </trkpt>
      <trkpt lat="48.80519" lon="2.18249">
        <ele>149.2</ele>
        <time>2015-05-11T19:23:17.546Z</time>
      </trkpt>
      <trkpt lat="48.80517" lon="2.1824">
        <ele>149.2</ele>
        <time>2015-05-11T19:23:18.565Z</time>
      </trkpt>
      <trkpt lat="48.80517" lon="2.18232">
        <ele>148.8</ele>
        <time>2015-05-11T19:23:19.592Z</time>
      </trkpt>
      <trkpt lat="48.80517" lon="2.18224">
        <ele>148.2</ele>
        <time>2015-05-11T19:23:20.595Z</time>
      </trkpt>
      <trkpt lat="48.80517" lon="2.18216">
        <ele>147.8</ele>
        <time>2015-05-11T19:23:21.545Z</time>
      </trkpt>
      <trkpt lat="48.80514" lon="2.18207">
        <ele>147.8</ele>
        <time>2015-05-11T19:23:22.543Z</time>
      </trkpt>
      <trkpt lat="48.80511" lon="2.18198">
        <ele>147.9</ele>
        <time>2015-05-11T19:23:23.550Z</time>
      </trkpt>
      <trkpt lat="48.80509" lon="2.1819">
        <ele>147.9</ele>
        <time>2015-05-11T19:23:24.581Z</time>
      </trkpt>
      <trkpt lat="48.80509" lon="2.1818">
        <ele>147.6</ele>
        <time>2015-05-11T19:23:25.607Z</time>
      </trkpt>
      <trkpt lat="48.80507" lon="2.18171">
        <ele>147.6</ele>
        <time>2015-05-11T19:23:26.612Z</time>
      </trkpt>
      <trkpt lat="48.80504" lon="2.18161">
        <ele>147.5</ele>
        <time>2015-05-11T19:23:27.620Z</time>
      </trkpt>
      <trkpt lat="48.805" lon="2.18152">
        <ele>147.4</ele>
        <time>2015-05-11T19:23:28.511Z</time>
      </trkpt>
      <trkpt lat="48.80499" lon="2.18143">
        <ele>147.6</ele>
        <time>2015-05-11T19:23:29.542Z</time>
      </trkpt>
      <trkpt lat="48.80499" lon="2.18133">
        <ele>147.8</ele>
        <time>2015-05-11T19:23:30.548Z</time>
      </trkpt>
      <trkpt lat="48.80499" lon="2.18125">
        <ele>148.1</ele>
        <time>2015-05-11T19:23:31.526Z</time>
      </trkpt>
      <trkpt lat="48.80497" lon="2.18116">
        <ele>147.6</ele>
        <time>2015-05-11T19:23:32.520Z</time>
      </trkpt>
      <trkpt lat="48.80495" lon="2.18107">
        <ele>147.4</ele>
        <time>2015-05-11T19:23:33.618Z</time>
      </trkpt>
      <trkpt lat="48.80494" lon="2.18098">
        <ele>147.3</ele>
        <time>2015-05-11T19:23:34.536Z</time>
      </trkpt>
      <trkpt lat="48.80492" lon="2.18089">
        <ele>146.9</ele>
        <time>2015-05-11T19:23:35.519Z</time>
      </trkpt>
      <trkpt lat="48.8049" lon="2.18081">
        <ele>146.7</ele>
        <time>2015-05-11T19:23:36.606Z</time>
      </trkpt>
      <trkpt lat="48.8049" lon="2.18072">
        <ele>146.3</ele>
        <time>2015-05-11T19:23:37.615Z</time>
      </trkpt>
      <trkpt lat="48.80487" lon="2.18063">
        <ele>145.6</ele>
        <time>2015-05-11T19:23:38.632Z</time>
      </trkpt>
      <trkpt lat="48.80485" lon="2.18054">
        <ele>145.5</ele>
        <time>2015-05-11T19:23:39.636Z</time>
      </trkpt>
      <trkpt lat="48.80482" lon="2.18046">
        <ele>145.5</ele>
        <time>2015-05-11T19:23:40.634Z</time>
      </trkpt>
      <trkpt lat="48.8048" lon="2.18038">
        <ele>145.3</ele>
        <time>2015-05-11T19:23:41.626Z</time>
      </trkpt>
      <trkpt lat="48.80478" lon="2.18029">
        <ele>145.1</ele>
        <time>2015-05-11T19:23:42.580Z</time>
      </trkpt>
      <trkpt lat="48.80475" lon="2.18019">
        <ele>145</ele>
        <time>2015-05-11T19:23:43.595Z</time>
      </trkpt>
      <trkpt lat="48.80473" lon="2.18009">
        <ele>145</ele>
        <time>2015-05-11T19:23:44.624Z</time>
      </trkpt>
      <trkpt lat="48.80472" lon="2.18">
        <ele>145.1</ele>
        <time>2015-05-11T19:23:45.678Z</time>
      </trkpt>
      <trkpt lat="48.8047" lon="2.17991">
        <ele>145</ele>
        <time>2015-05-11T19:23:46.544Z</time>
      </trkpt>
      <trkpt lat="48.8047" lon="2.17981">
        <ele>145.2</ele>
        <time>2015-05-11T19:23:47.565Z</time>
      </trkpt>
      <trkpt lat="48.80469" lon="2.17972">
        <ele>145.1</ele>
        <time>2015-05-11T19:23:48.591Z</time>
      </trkpt>
      <trkpt lat="48.80468" lon="2.17964">
        <ele>145.5</ele>
        <time>2015-05-11T19:23:49.599Z</time>
      </trkpt>
      <trkpt lat="48.80468" lon="2.17955">
        <ele>146</ele>
        <time>2015-05-11T19:23:50.574Z</time>
      </trkpt>
      <trkpt lat="48.80467" lon="2.17947">
        <ele>146.6</ele>
        <time>2015-05-11T19:23:51.552Z</time>
      </trkpt>
      <trkpt lat="48.80467" lon="2.17939">
        <ele>146.4</ele>
        <time>2015-05-11T19:23:52.605Z</time>
      </trkpt>
      <trkpt lat="48.80465" lon="2.17931">
        <ele>146.9</ele>
        <time>2015-05-11T19:23:53.527Z</time>
      </trkpt>
      <trkpt lat="48.80464" lon="2.17921">
        <ele>146.9</ele>
        <time>2015-05-11T19:23:54.641Z</time>
      </trkpt>
      <trkpt lat="48.80463" lon="2.17912">
        <ele>147.2</ele>
        <time>2015-05-11T19:23:55.527Z</time>
      </trkpt>
      <trkpt lat="48.80462" lon="2.17904">
        <ele>147.2</ele>
        <time>2015-05-11T19:23:56.537Z</time>
      </trkpt>
      <trkpt lat="48.80462" lon="2.17894">
        <ele>147.2</ele>
        <time>2015-05-11T19:23:57.583Z</time>
      </trkpt>
      <trkpt lat="48.80463" lon="2.17885">
        <ele>147.3</ele>
        <time>2015-05-11T19:23:58.534Z</time>
      </trkpt>
      <trkpt lat="48.80461" lon="2.17877">
        <ele>148</ele>
        <time>2015-05-11T19:23:59.506Z</time>
      </trkpt>
      <trkpt lat="48.8046" lon="2.17868">
        <ele>148.4</ele>
        <time>2015-05-11T19:24:00.559Z</time>
      </trkpt>
      <trkpt lat="48.8046" lon="2.17859">
        <ele>148.5</ele>
        <time>2015-05-11T19:24:01.568Z</time>
      </trkpt>
      <trkpt lat="48.80459" lon="2.1785">
        <ele>148.4</ele>
        <time>2015-05-11T19:24:02.572Z</time>
      </trkpt>
      <trkpt lat="48.80458" lon="2.17841">
        <ele>148.1</ele>
        <time>2015-05-11T19:24:03.592Z</time>
      </trkpt>
      <trkpt lat="48.80456" lon="2.17832">
        <ele>148.1</ele>
        <time>2015-05-11T19:24:04.505Z</time>
      </trkpt>
      <trkpt lat="48.80455" lon="2.17824">
        <ele>147.9</ele>
        <time>2015-05-11T19:24:05.579Z</time>
      </trkpt>
      <trkpt lat="48.80453" lon="2.17816">
        <ele>147.8</ele>
        <time>2015-05-11T19:24:06.584Z</time>
      </trkpt>
      <trkpt lat="48.80451" lon="2.17805">
        <ele>148</ele>
        <time>2015-05-11T19:24:08.623Z</time>
      </trkpt>
      <trkpt lat="48.8045" lon="2.17797">
        <ele>148</ele>
        <time>2015-05-11T19:24:09.526Z</time>
      </trkpt>
      <trkpt lat="48.80446" lon="2.17788">
        <ele>148.2</ele>
        <time>2015-05-11T19:24:10.523Z</time>
      </trkpt>
      <trkpt lat="48.80443" lon="2.17778">
        <ele>148.3</ele>
        <time>2015-05-11T19:24:11.566Z</time>
      </trkpt>
      <trkpt lat="48.8044" lon="2.17769">
        <ele>148.3</ele>
        <time>2015-05-11T19:24:12.633Z</time>
      </trkpt>
      <trkpt lat="48.80438" lon="2.17759">
        <ele>148.1</ele>
        <time>2015-05-11T19:24:13.537Z</time>
      </trkpt>
      <trkpt lat="48.80425" lon="2.17708">
        <ele>147.6</ele>
        <time>2015-05-11T19:24:19.509Z</time>
      </trkpt>
      <trkpt lat="48.80419" lon="2.17698">
        <ele>145.6</ele>
        <time>2015-05-11T19:24:20.533Z</time>
      </trkpt>
      <trkpt lat="48.80417" lon="2.1769">
        <ele>145.4</ele>
        <time>2015-05-11T19:24:21.584Z</time>
      </trkpt>
      <trkpt lat="48.80416" lon="2.17679">
        <ele>145.7</ele>
        <time>2015-05-11T19:24:22.606Z</time>
      </trkpt>
      <trkpt lat="48.80417" lon="2.17669">
        <ele>146</ele>
        <time>2015-05-11T19:24:23.610Z</time>
      </trkpt>
      <trkpt lat="48.80418" lon="2.17659">
        <ele>146</ele>
        <time>2015-05-11T19:24:24.607Z</time>
      </trkpt>
      <trkpt lat="48.80419" lon="2.17642">
        <ele>145.7</ele>
        <time>2015-05-11T19:24:26.567Z</time>
      </trkpt>
      <trkpt lat="48.80419" lon="2.17634">
        <ele>145.2</ele>
        <time>2015-05-11T19:24:27.560Z</time>
      </trkpt>
      <trkpt lat="48.80418" lon="2.17627">
        <ele>144.9</ele>
        <time>2015-05-11T19:24:28.567Z</time>
      </trkpt>
      <trkpt lat="48.80418" lon="2.17619">
        <ele>144.8</ele>
        <time>2015-05-11T19:24:29.590Z</time>
      </trkpt>
      <trkpt lat="48.80417" lon="2.17611">
        <ele>144.7</ele>
        <time>2015-05-11T19:24:30.596Z</time>
      </trkpt>
      <trkpt lat="48.80416" lon="2.17604">
        <ele>144.6</ele>
        <time>2015-05-11T19:24:31.523Z</time>
      </trkpt>
      <trkpt lat="48.80415" lon="2.17596">
        <ele>144.4</ele>
        <time>2015-05-11T19:24:32.529Z</time>
      </trkpt>
      <trkpt lat="48.80415" lon="2.17588">
        <ele>144.4</ele>
        <time>2015-05-11T19:24:33.542Z</time>
      </trkpt>
      <trkpt lat="48.80414" lon="2.1758">
        <ele>144.1</ele>
        <time>2015-05-11T19:24:34.566Z</time>
      </trkpt>
      <trkpt lat="48.80413" lon="2.17572">
        <ele>143.8</ele>
        <time>2015-05-11T19:24:35.577Z</time>
      </trkpt>
      <trkpt lat="48.80412" lon="2.17564">
        <ele>143.9</ele>
        <time>2015-05-11T19:24:36.582Z</time>
      </trkpt>
      <trkpt lat="48.80411" lon="2.17557">
        <ele>143.9</ele>
        <time>2015-05-11T19:24:37.597Z</time>
      </trkpt>
      <trkpt lat="48.8041" lon="2.17549">
        <ele>143.8</ele>
        <time>2015-05-11T19:24:38.607Z</time>
      </trkpt>
      <trkpt lat="48.80409" lon="2.1754">
        <ele>143.5</ele>
        <time>2015-05-11T19:24:39.537Z</time>
      </trkpt>
      <trkpt lat="48.80408" lon="2.17532">
        <ele>144</ele>
        <time>2015-05-11T19:24:40.547Z</time>
      </trkpt>
      <trkpt lat="48.80409" lon="2.17525">
        <ele>144.2</ele>
        <time>2015-05-11T19:24:41.574Z</time>
      </trkpt>
      <trkpt lat="48.80407" lon="2.17517">
        <ele>144.3</ele>
        <time>2015-05-11T19:24:42.602Z</time>
      </trkpt>
      <trkpt lat="48.80407" lon="2.17509">
        <ele>144.4</ele>
        <time>2015-05-11T19:24:43.610Z</time>
      </trkpt>
      <trkpt lat="48.80407" lon="2.17502">
        <ele>144.1</ele>
        <time>2015-05-11T19:24:44.555Z</time>
      </trkpt>
      <trkpt lat="48.80408" lon="2.17495">
        <ele>144.1</ele>
        <time>2015-05-11T19:24:45.562Z</time>
      </trkpt>
      <trkpt lat="48.80409" lon="2.17488">
        <ele>144.3</ele>
        <time>2015-05-11T19:24:46.570Z</time>
      </trkpt>
      <trkpt lat="48.80409" lon="2.17481">
        <ele>144.3</ele>
        <time>2015-05-11T19:24:47.617Z</time>
      </trkpt>
      <trkpt lat="48.80409" lon="2.17474">
        <ele>144.1</ele>
        <time>2015-05-11T19:24:48.530Z</time>
      </trkpt>
      <trkpt lat="48.80409" lon="2.17466">
        <ele>144</ele>
        <time>2015-05-11T19:24:49.559Z</time>
      </trkpt>
      <trkpt lat="48.80408" lon="2.17458">
        <ele>144</ele>
        <time>2015-05-11T19:24:50.619Z</time>
      </trkpt>
      <trkpt lat="48.80408" lon="2.17451">
        <ele>143.8</ele>
        <time>2015-05-11T19:24:51.528Z</time>
      </trkpt>
      <trkpt lat="48.80407" lon="2.17443">
        <ele>143.6</ele>
        <time>2015-05-11T19:24:52.532Z</time>
      </trkpt>
      <trkpt lat="48.80407" lon="2.17435">
        <ele>143.1</ele>
        <time>2015-05-11T19:24:53.549Z</time>
      </trkpt>
      <trkpt lat="48.80407" lon="2.17427">
        <ele>142.9</ele>
        <time>2015-05-11T19:24:54.550Z</time>
      </trkpt>
      <trkpt lat="48.80407" lon="2.1742">
        <ele>142.9</ele>
        <time>2015-05-11T19:24:55.509Z</time>
      </trkpt>
      <trkpt lat="48.80408" lon="2.17414">
        <ele>142.6</ele>
        <time>2015-05-11T19:24:56.532Z</time>
      </trkpt>
      <trkpt lat="48.80408" lon="2.17405">
        <ele>142.4</ele>
        <time>2015-05-11T19:24:57.548Z</time>
      </trkpt>
      <trkpt lat="48.80408" lon="2.17398">
        <ele>142.2</ele>
        <time>2015-05-11T19:24:58.561Z</time>
      </trkpt>
      <trkpt lat="48.80409" lon="2.17391">
        <ele>142.1</ele>
        <time>2015-05-11T19:24:59.574Z</time>
      </trkpt>
      <trkpt lat="48.80409" lon="2.17384">
        <ele>142.2</ele>
        <time>2015-05-11T19:25:00.576Z</time>
      </trkpt>
      <trkpt lat="48.80408" lon="2.17375">
        <ele>142.4</ele>
        <time>2015-05-11T19:25:01.497Z</time>
      </trkpt>
      <trkpt lat="48.80408" lon="2.17367">
        <ele>142.3</ele>
        <time>2015-05-11T19:25:02.624Z</time>
      </trkpt>
      <trkpt lat="48.80407" lon="2.17359">
        <ele>142</ele>
        <time>2015-05-11T19:25:03.511Z</time>
      </trkpt>
      <trkpt lat="48.80406" lon="2.1735">
        <ele>141.7</ele>
        <time>2015-05-11T19:25:04.524Z</time>
      </trkpt>
      <trkpt lat="48.80405" lon="2.17342">
        <ele>141.7</ele>
        <time>2015-05-11T19:25:05.562Z</time>
      </trkpt>
      <trkpt lat="48.80404" lon="2.17333">
        <ele>142.3</ele>
        <time>2015-05-11T19:25:06.586Z</time>
      </trkpt>
      <trkpt lat="48.80403" lon="2.17325">
        <ele>142.5</ele>
        <time>2015-05-11T19:25:07.522Z</time>
      </trkpt>
      <trkpt lat="48.80403" lon="2.17317">
        <ele>142.6</ele>
        <time>2015-05-11T19:25:08.528Z</time>
      </trkpt>
      <trkpt lat="48.80402" lon="2.17309">
        <ele>142.5</ele>
        <time>2015-05-11T19:25:09.566Z</time>
      </trkpt>
      <trkpt lat="48.80403" lon="2.17302">
        <ele>142.5</ele>
        <time>2015-05-11T19:25:10.572Z</time>
      </trkpt>
      <trkpt lat="48.80406" lon="2.17297">
        <ele>142.6</ele>
        <time>2015-05-11T19:25:11.592Z</time>
      </trkpt>
      <trkpt lat="48.80406" lon="2.17289">
        <ele>142.7</ele>
        <time>2015-05-11T19:25:12.599Z</time>
      </trkpt>
      <trkpt lat="48.80406" lon="2.1728">
        <ele>143.1</ele>
        <time>2015-05-11T19:25:13.608Z</time>
      </trkpt>
      <trkpt lat="48.80405" lon="2.17271">
        <ele>143.2</ele>
        <time>2015-05-11T19:25:14.615Z</time>
      </trkpt>
      <trkpt lat="48.80408" lon="2.17258">
        <ele>143.3</ele>
        <time>2015-05-11T19:25:16.541Z</time>
      </trkpt>
      <trkpt lat="48.80408" lon="2.17251">
        <ele>143.2</ele>
        <time>2015-05-11T19:25:17.642Z</time>
      </trkpt>
      <trkpt lat="48.80407" lon="2.17244">
        <ele>143.3</ele>
        <time>2015-05-11T19:25:18.579Z</time>
      </trkpt>
      <trkpt lat="48.80407" lon="2.17237">
        <ele>143.2</ele>
        <time>2015-05-11T19:25:19.548Z</time>
      </trkpt>
      <trkpt lat="48.80407" lon="2.1723">
        <ele>143.3</ele>
        <time>2015-05-11T19:25:20.556Z</time>
      </trkpt>
      <trkpt lat="48.80406" lon="2.17223">
        <ele>143</ele>
        <time>2015-05-11T19:25:21.565Z</time>
      </trkpt>
      <trkpt lat="48.80406" lon="2.17216">
        <ele>142.9</ele>
        <time>2015-05-11T19:25:22.581Z</time>
      </trkpt>
      <trkpt lat="48.80404" lon="2.17208">
        <ele>143.1</ele>
        <time>2015-05-11T19:25:23.589Z</time>
      </trkpt>
      <trkpt lat="48.80403" lon="2.172">
        <ele>142.7</ele>
        <time>2015-05-11T19:25:24.692Z</time>
      </trkpt>
      <trkpt lat="48.80403" lon="2.17192">
        <ele>142.5</ele>
        <time>2015-05-11T19:25:25.537Z</time>
      </trkpt>
      <trkpt lat="48.80402" lon="2.17185">
        <ele>142.5</ele>
        <time>2015-05-11T19:25:26.551Z</time>
      </trkpt>
      <trkpt lat="48.80401" lon="2.17178">
        <ele>142.8</ele>
        <time>2015-05-11T19:25:27.567Z</time>
      </trkpt>
      <trkpt lat="48.80404" lon="2.17165">
        <ele>143</ele>
        <time>2015-05-11T19:25:29.594Z</time>
      </trkpt>
      <trkpt lat="48.80404" lon="2.17159">
        <ele>143.1</ele>
        <time>2015-05-11T19:25:30.624Z</time>
      </trkpt>
      <trkpt lat="48.80405" lon="2.17152">
        <ele>143.2</ele>
        <time>2015-05-11T19:25:31.556Z</time>
      </trkpt>
      <trkpt lat="48.80406" lon="2.17145">
        <ele>143.2</ele>
        <time>2015-05-11T19:25:32.504Z</time>
      </trkpt>
      <trkpt lat="48.80406" lon="2.17138">
        <ele>142.9</ele>
        <time>2015-05-11T19:25:33.178Z</time>
      </trkpt>
      <trkpt lat="48.80407" lon="2.1713">
        <ele>142.8</ele>
        <time>2015-05-11T19:25:34.554Z</time>
      </trkpt>
      <trkpt lat="48.80407" lon="2.17122">
        <ele>143</ele>
        <time>2015-05-11T19:25:35.586Z</time>
      </trkpt>
      <trkpt lat="48.80407" lon="2.17114">
        <ele>143.1</ele>
        <time>2015-05-11T19:25:36.611Z</time>
      </trkpt>
      <trkpt lat="48.8041" lon="2.17101">
        <ele>143.3</ele>
        <time>2015-05-11T19:25:38.567Z</time>
      </trkpt>
      <trkpt lat="48.80411" lon="2.17095">
        <ele>143.5</ele>
        <time>2015-05-11T19:25:39.588Z</time>
      </trkpt>
      <trkpt lat="48.80412" lon="2.17088">
        <ele>143.7</ele>
        <time>2015-05-11T19:25:40.508Z</time>
      </trkpt>
      <trkpt lat="48.80412" lon="2.1708">
        <ele>144.2</ele>
        <time>2015-05-11T19:25:41.566Z</time>
      </trkpt>
      <trkpt lat="48.80411" lon="2.17073">
        <ele>144.6</ele>
        <time>2015-05-11T19:25:42.765Z</time>
      </trkpt>
      <trkpt lat="48.80412" lon="2.17065">
        <ele>144.9</ele>
        <time>2015-05-11T19:25:43.580Z</time>
      </trkpt>
      <trkpt lat="48.80412" lon="2.17058">
        <ele>144.9</ele>
        <time>2015-05-11T19:25:44.602Z</time>
      </trkpt>
      <trkpt lat="48.80412" lon="2.1705">
        <ele>144.7</ele>
        <time>2015-05-11T19:25:45.547Z</time>
      </trkpt>
      <trkpt lat="48.80413" lon="2.17041">
        <ele>144.8</ele>
        <time>2015-05-11T19:25:46.547Z</time>
      </trkpt>
      <trkpt lat="48.80413" lon="2.17033">
        <ele>144.9</ele>
        <time>2015-05-11T19:25:47.556Z</time>
      </trkpt>
      <trkpt lat="48.80414" lon="2.17026">
        <ele>145</ele>
        <time>2015-05-11T19:25:48.570Z</time>
      </trkpt>
      <trkpt lat="48.80415" lon="2.1702">
        <ele>144.8</ele>
        <time>2015-05-11T19:25:49.573Z</time>
      </trkpt>
      <trkpt lat="48.80418" lon="2.17014">
        <ele>144.9</ele>
        <time>2015-05-11T19:25:50.589Z</time>
      </trkpt>
      <trkpt lat="48.80419" lon="2.17007">
        <ele>145</ele>
        <time>2015-05-11T19:25:51.597Z</time>
      </trkpt>
      <trkpt lat="48.80418" lon="2.16999">
        <ele>144.8</ele>
        <time>2015-05-11T19:25:52.599Z</time>
      </trkpt>
      <trkpt lat="48.80418" lon="2.16992">
        <ele>144.4</ele>
        <time>2015-05-11T19:25:53.602Z</time>
      </trkpt>
      <trkpt lat="48.80419" lon="2.16985">
        <ele>144.3</ele>
        <time>2015-05-11T19:25:54.609Z</time>
      </trkpt>
      <trkpt lat="48.80419" lon="2.16978">
        <ele>144.3</ele>
        <time>2015-05-11T19:25:55.511Z</time>
      </trkpt>
      <trkpt lat="48.80419" lon="2.16971">
        <ele>144.5</ele>
        <time>2015-05-11T19:25:56.543Z</time>
      </trkpt>
      <trkpt lat="48.80417" lon="2.16963">
        <ele>144.7</ele>
        <time>2015-05-11T19:25:57.547Z</time>
      </trkpt>
      <trkpt lat="48.80414" lon="2.16956">
        <ele>145</ele>
        <time>2015-05-11T19:25:58.575Z</time>
      </trkpt>
      <trkpt lat="48.80413" lon="2.16949">
        <ele>145.1</ele>
        <time>2015-05-11T19:25:59.576Z</time>
      </trkpt>
      <trkpt lat="48.80414" lon="2.16937">
        <ele>145.1</ele>
        <time>2015-05-11T19:26:01.595Z</time>
      </trkpt>
      <trkpt lat="48.80415" lon="2.16931">
        <ele>145.2</ele>
        <time>2015-05-11T19:26:02.613Z</time>
      </trkpt>
      <trkpt lat="48.80415" lon="2.16917">
        <ele>145.6</ele>
        <time>2015-05-11T19:26:04.527Z</time>
      </trkpt>
      <trkpt lat="48.80412" lon="2.16911">
        <ele>145.8</ele>
        <time>2015-05-11T19:26:05.554Z</time>
      </trkpt>
      <trkpt lat="48.8041" lon="2.16904">
        <ele>145.5</ele>
        <time>2015-05-11T19:26:06.586Z</time>
      </trkpt>
      <trkpt lat="48.80408" lon="2.16898">
        <ele>145.4</ele>
        <time>2015-05-11T19:26:07.594Z</time>
      </trkpt>
      <trkpt lat="48.80405" lon="2.1689">
        <ele>145.6</ele>
        <time>2015-05-11T19:26:08.933Z</time>
      </trkpt>
      <trkpt lat="48.80404" lon="2.16882">
        <ele>145.7</ele>
        <time>2015-05-11T19:26:09.537Z</time>
      </trkpt>
      <trkpt lat="48.80402" lon="2.16871">
        <ele>145.9</ele>
        <time>2015-05-11T19:26:10.532Z</time>
      </trkpt>
      <trkpt lat="48.80402" lon="2.1686">
        <ele>146</ele>
        <time>2015-05-11T19:26:11.541Z</time>
      </trkpt>
      <trkpt lat="48.80403" lon="2.1685">
        <ele>146.5</ele>
        <time>2015-05-11T19:26:12.571Z</time>
      </trkpt>
      <trkpt lat="48.80402" lon="2.16841">
        <ele>146.9</ele>
        <time>2015-05-11T19:26:13.565Z</time>
      </trkpt>
      <trkpt lat="48.80402" lon="2.16832">
        <ele>147</ele>
        <time>2015-05-11T19:26:14.575Z</time>
      </trkpt>
      <trkpt lat="48.80401" lon="2.16823">
        <ele>146.9</ele>
        <time>2015-05-11T19:26:15.593Z</time>
      </trkpt>
      <trkpt lat="48.804" lon="2.16813">
        <ele>147.1</ele>
        <time>2015-05-11T19:26:16.600Z</time>
      </trkpt>
      <trkpt lat="48.80398" lon="2.16804">
        <ele>147.1</ele>
        <time>2015-05-11T19:26:17.604Z</time>
      </trkpt>
      <trkpt lat="48.80398" lon="2.16795">
        <ele>148</ele>
        <time>2015-05-11T19:26:18.617Z</time>
      </trkpt>
      <trkpt lat="48.80396" lon="2.16785">
        <ele>147.4</ele>
        <time>2015-05-11T19:26:19.518Z</time>
      </trkpt>
      <trkpt lat="48.80395" lon="2.16775">
        <ele>146.6</ele>
        <time>2015-05-11T19:26:20.525Z</time>
      </trkpt>
      <trkpt lat="48.80393" lon="2.16767">
        <ele>146.7</ele>
        <time>2015-05-11T19:26:21.531Z</time>
      </trkpt>
      <trkpt lat="48.80391" lon="2.16759">
        <ele>146.8</ele>
        <time>2015-05-11T19:26:22.586Z</time>
      </trkpt>
      <trkpt lat="48.80388" lon="2.16751">
        <ele>147</ele>
        <time>2015-05-11T19:26:23.591Z</time>
      </trkpt>
      <trkpt lat="48.80385" lon="2.16744">
        <ele>147</ele>
        <time>2015-05-11T19:26:24.597Z</time>
      </trkpt>
      <trkpt lat="48.80385" lon="2.16738">
        <ele>146.8</ele>
        <time>2015-05-11T19:26:25.608Z</time>
      </trkpt>
      <trkpt lat="48.80382" lon="2.16731">
        <ele>147</ele>
        <time>2015-05-11T19:26:26.509Z</time>
      </trkpt>
      <trkpt lat="48.80379" lon="2.16725">
        <ele>146.9</ele>
        <time>2015-05-11T19:26:27.519Z</time>
      </trkpt>
      <trkpt lat="48.80374" lon="2.16717">
        <ele>147.3</ele>
        <time>2015-05-11T19:26:28.543Z</time>
      </trkpt>
      <trkpt lat="48.80368" lon="2.16708">
        <ele>147.6</ele>
        <time>2015-05-11T19:26:29.550Z</time>
      </trkpt>
      <trkpt lat="48.80362" lon="2.16701">
        <ele>147.9</ele>
        <time>2015-05-11T19:26:30.573Z</time>
      </trkpt>
      <trkpt lat="48.80358" lon="2.16694">
        <ele>148</ele>
        <time>2015-05-11T19:26:31.580Z</time>
      </trkpt>
      <trkpt lat="48.80355" lon="2.16688">
        <ele>147.8</ele>
        <time>2015-05-11T19:26:32.612Z</time>
      </trkpt>
      <trkpt lat="48.8035" lon="2.16681">
        <ele>147.8</ele>
        <time>2015-05-11T19:26:33.529Z</time>
      </trkpt>
      <trkpt lat="48.80347" lon="2.16674">
        <ele>148</ele>
        <time>2015-05-11T19:26:34.534Z</time>
      </trkpt>
      <trkpt lat="48.80344" lon="2.16668">
        <ele>147.9</ele>
        <time>2015-05-11T19:26:35.538Z</time>
      </trkpt>
      <trkpt lat="48.8034" lon="2.16663">
        <ele>147.9</ele>
        <time>2015-05-11T19:26:36.573Z</time>
      </trkpt>
      <trkpt lat="48.80337" lon="2.16656">
        <ele>148.3</ele>
        <time>2015-05-11T19:26:37.593Z</time>
      </trkpt>
      <trkpt lat="48.80333" lon="2.1665">
        <ele>148.4</ele>
        <time>2015-05-11T19:26:38.615Z</time>
      </trkpt>
      <trkpt lat="48.80329" lon="2.16644">
        <ele>148.5</ele>
        <time>2015-05-11T19:26:39.622Z</time>
      </trkpt>
      <trkpt lat="48.80326" lon="2.16639">
        <ele>148.6</ele>
        <time>2015-05-11T19:26:40.537Z</time>
      </trkpt>
      <trkpt lat="48.80322" lon="2.16633">
        <ele>148.9</ele>
        <time>2015-05-11T19:26:41.555Z</time>
      </trkpt>
      <trkpt lat="48.80318" lon="2.16627">
        <ele>149.2</ele>
        <time>2015-05-11T19:26:42.591Z</time>
      </trkpt>
      <trkpt lat="48.80315" lon="2.16622">
        <ele>149.7</ele>
        <time>2015-05-11T19:26:43.589Z</time>
      </trkpt>
      <trkpt lat="48.80312" lon="2.16611">
        <ele>150.6</ele>
        <time>2015-05-11T19:26:45.515Z</time>
      </trkpt>
      <trkpt lat="48.80309" lon="2.16606">
        <ele>150.5</ele>
        <time>2015-05-11T19:26:46.532Z</time>
      </trkpt>
      <trkpt lat="48.80306" lon="2.16599">
        <ele>150.4</ele>
        <time>2015-05-11T19:26:47.545Z</time>
      </trkpt>
      <trkpt lat="48.80304" lon="2.16592">
        <ele>150.4</ele>
        <time>2015-05-11T19:26:48.670Z</time>
      </trkpt>
      <trkpt lat="48.80302" lon="2.16586">
        <ele>150.5</ele>
        <time>2015-05-11T19:26:49.573Z</time>
      </trkpt>
      <trkpt lat="48.80298" lon="2.16579">
        <ele>149.8</ele>
        <time>2015-05-11T19:26:50.589Z</time>
      </trkpt>
      <trkpt lat="48.80294" lon="2.16572">
        <ele>149.1</ele>
        <time>2015-05-11T19:26:51.598Z</time>
      </trkpt>
      <trkpt lat="48.80289" lon="2.16565">
        <ele>148.5</ele>
        <time>2015-05-11T19:26:52.613Z</time>
      </trkpt>
      <trkpt lat="48.80285" lon="2.16558">
        <ele>148.4</ele>
        <time>2015-05-11T19:26:53.624Z</time>
      </trkpt>
      <trkpt lat="48.80282" lon="2.16552">
        <ele>148.7</ele>
        <time>2015-05-11T19:26:54.644Z</time>
      </trkpt>
      <trkpt lat="48.80279" lon="2.16546">
        <ele>149.2</ele>
        <time>2015-05-11T19:26:55.613Z</time>
      </trkpt>
      <trkpt lat="48.80276" lon="2.1654">
        <ele>149.3</ele>
        <time>2015-05-11T19:26:56.627Z</time>
      </trkpt>
      <trkpt lat="48.80272" lon="2.16533">
        <ele>149.5</ele>
        <time>2015-05-11T19:26:57.541Z</time>
      </trkpt>
      <trkpt lat="48.80269" lon="2.16527">
        <ele>149.4</ele>
        <time>2015-05-11T19:26:58.542Z</time>
      </trkpt>
      <trkpt lat="48.80264" lon="2.16519">
        <ele>149.9</ele>
        <time>2015-05-11T19:26:59.560Z</time>
      </trkpt>
      <trkpt lat="48.80258" lon="2.16512">
        <ele>149.9</ele>
        <time>2015-05-11T19:27:00.559Z</time>
      </trkpt>
      <trkpt lat="48.80254" lon="2.16505">
        <ele>149.9</ele>
        <time>2015-05-11T19:27:01.582Z</time>
      </trkpt>
      <trkpt lat="48.80249" lon="2.16497">
        <ele>149.3</ele>
        <time>2015-05-11T19:27:02.584Z</time>
      </trkpt>
      <trkpt lat="48.80244" lon="2.16492">
        <ele>149.4</ele>
        <time>2015-05-11T19:27:03.594Z</time>
      </trkpt>
      <trkpt lat="48.80239" lon="2.16485">
        <ele>149.6</ele>
        <time>2015-05-11T19:27:04.606Z</time>
      </trkpt>
      <trkpt lat="48.80236" lon="2.16479">
        <ele>149.9</ele>
        <time>2015-05-11T19:27:05.531Z</time>
      </trkpt>
      <trkpt lat="48.80232" lon="2.16472">
        <ele>150</ele>
        <time>2015-05-11T19:27:06.584Z</time>
      </trkpt>
      <trkpt lat="48.80229" lon="2.16467">
        <ele>150.2</ele>
        <time>2015-05-11T19:27:07.590Z</time>
      </trkpt>
      <trkpt lat="48.80226" lon="2.16462">
        <ele>150.2</ele>
        <time>2015-05-11T19:27:08.596Z</time>
      </trkpt>
      <trkpt lat="48.80224" lon="2.16456">
        <ele>150.3</ele>
        <time>2015-05-11T19:27:09.604Z</time>
      </trkpt>
      <trkpt lat="48.80221" lon="2.1645">
        <ele>150.5</ele>
        <time>2015-05-11T19:27:10.613Z</time>
      </trkpt>
      <trkpt lat="48.80216" lon="2.16444">
        <ele>150.6</ele>
        <time>2015-05-11T19:27:11.650Z</time>
      </trkpt>
      <trkpt lat="48.80213" lon="2.16438">
        <ele>150.7</ele>
        <time>2015-05-11T19:27:12.664Z</time>
      </trkpt>
      <trkpt lat="48.80209" lon="2.16432">
        <ele>151.1</ele>
        <time>2015-05-11T19:27:13.540Z</time>
      </trkpt>
      <trkpt lat="48.80205" lon="2.16426">
        <ele>151.5</ele>
        <time>2015-05-11T19:27:14.542Z</time>
      </trkpt>
      <trkpt lat="48.802" lon="2.16419">
        <ele>151.6</ele>
        <time>2015-05-11T19:27:15.557Z</time>
      </trkpt>
      <trkpt lat="48.80197" lon="2.16414">
        <ele>151.7</ele>
        <time>2015-05-11T19:27:16.566Z</time>
      </trkpt>
      <trkpt lat="48.80191" lon="2.16404">
        <ele>152.3</ele>
        <time>2015-05-11T19:27:18.614Z</time>
      </trkpt>
      <trkpt lat="48.80188" lon="2.16399">
        <ele>152.5</ele>
        <time>2015-05-11T19:27:19.630Z</time>
      </trkpt>
      <trkpt lat="48.80184" lon="2.16393">
        <ele>153</ele>
        <time>2015-05-11T19:27:20.550Z</time>
      </trkpt>
      <trkpt lat="48.80178" lon="2.16385">
        <ele>153.3</ele>
        <time>2015-05-11T19:27:21.544Z</time>
      </trkpt>
      <trkpt lat="48.80174" lon="2.16379">
        <ele>153.9</ele>
        <time>2015-05-11T19:27:22.588Z</time>
      </trkpt>
      <trkpt lat="48.8017" lon="2.16373">
        <ele>154.1</ele>
        <time>2015-05-11T19:27:23.595Z</time>
      </trkpt>
      <trkpt lat="48.80166" lon="2.16366">
        <ele>154.4</ele>
        <time>2015-05-11T19:27:24.643Z</time>
      </trkpt>
      <trkpt lat="48.80162" lon="2.16361">
        <ele>154.8</ele>
        <time>2015-05-11T19:27:25.540Z</time>
      </trkpt>
      <trkpt lat="48.8016" lon="2.16355">
        <ele>154.7</ele>
        <time>2015-05-11T19:27:26.557Z</time>
      </trkpt>
      <trkpt lat="48.80157" lon="2.16348">
        <ele>155</ele>
        <time>2015-05-11T19:27:27.566Z</time>
      </trkpt>
      <trkpt lat="48.80154" lon="2.1634">
        <ele>154.9</ele>
        <time>2015-05-11T19:27:28.575Z</time>
      </trkpt>
      <trkpt lat="48.80151" lon="2.16334">
        <ele>155.3</ele>
        <time>2015-05-11T19:27:29.587Z</time>
      </trkpt>
      <trkpt lat="48.80145" lon="2.1633">
        <ele>156.2</ele>
        <time>2015-05-11T19:27:30.603Z</time>
      </trkpt>
      <trkpt lat="48.80142" lon="2.16325">
        <ele>156.6</ele>
        <time>2015-05-11T19:27:31.616Z</time>
      </trkpt>
      <trkpt lat="48.80139" lon="2.16321">
        <ele>157</ele>
        <time>2015-05-11T19:27:32.537Z</time>
      </trkpt>
      <trkpt lat="48.80134" lon="2.16317">
        <ele>157.5</ele>
        <time>2015-05-11T19:27:33.532Z</time>
      </trkpt>
      <trkpt lat="48.8013" lon="2.16313">
        <ele>157.7</ele>
        <time>2015-05-11T19:27:34.532Z</time>
      </trkpt>
      <trkpt lat="48.80126" lon="2.16308">
        <ele>157.9</ele>
        <time>2015-05-11T19:27:35.553Z</time>
      </trkpt>
      <trkpt lat="48.8012" lon="2.16299">
        <ele>158.5</ele>
        <time>2015-05-11T19:27:37.588Z</time>
      </trkpt>
      <trkpt lat="48.80117" lon="2.16294">
        <ele>158.6</ele>
        <time>2015-05-11T19:27:38.628Z</time>
      </trkpt>
      <trkpt lat="48.80113" lon="2.16289">
        <ele>158.7</ele>
        <time>2015-05-11T19:27:39.536Z</time>
      </trkpt>
      <trkpt lat="48.80109" lon="2.16281">
        <ele>159.2</ele>
        <time>2015-05-11T19:27:40.539Z</time>
      </trkpt>
      <trkpt lat="48.80107" lon="2.16273">
        <ele>158.8</ele>
        <time>2015-05-11T19:27:41.551Z</time>
      </trkpt>
      <trkpt lat="48.80106" lon="2.16264">
        <ele>158.1</ele>
        <time>2015-05-11T19:27:42.607Z</time>
      </trkpt>
      <trkpt lat="48.80103" lon="2.16253">
        <ele>157.3</ele>
        <time>2015-05-11T19:27:44.560Z</time>
      </trkpt>
      <trkpt lat="48.80101" lon="2.16249">
        <ele>157.3</ele>
        <time>2015-05-11T19:27:45.583Z</time>
      </trkpt>
      <trkpt lat="48.80096" lon="2.16243">
        <ele>158.1</ele>
        <time>2015-05-11T19:27:47.515Z</time>
      </trkpt>
      <trkpt lat="48.80093" lon="2.16242">
        <ele>158.2</ele>
        <time>2015-05-11T19:27:48.608Z</time>
      </trkpt>
      <trkpt lat="48.80092" lon="2.16237">
        <ele>160.3</ele>
        <time>2015-05-11T19:28:49.583Z</time>
      </trkpt>
      <trkpt lat="48.80097" lon="2.16214">
        <ele>174</ele>
        <time>2015-05-11T19:28:50.610Z</time>
      </trkpt>
      <trkpt lat="48.80092" lon="2.16209">
        <ele>174.3</ele>
        <time>2015-05-11T19:28:52.513Z</time>
      </trkpt>
      <trkpt lat="48.80088" lon="2.16208">
        <ele>174.3</ele>
        <time>2015-05-11T19:28:53.583Z</time>
      </trkpt>
      <trkpt lat="48.80083" lon="2.16204">
        <ele>174.3</ele>
        <time>2015-05-11T19:28:55.606Z</time>
      </trkpt>
      <trkpt lat="48.80079" lon="2.16201">
        <ele>173.9</ele>
        <time>2015-05-11T19:28:56.509Z</time>
      </trkpt>
      <trkpt lat="48.80074" lon="2.16197">
        <ele>173.4</ele>
        <time>2015-05-11T19:28:57.512Z</time>
      </trkpt>
      <trkpt lat="48.8007" lon="2.16193">
        <ele>172.6</ele>
        <time>2015-05-11T19:28:58.524Z</time>
      </trkpt>
      <trkpt lat="48.80068" lon="2.16189">
        <ele>172</ele>
        <time>2015-05-11T19:28:59.548Z</time>
      </trkpt>
      <trkpt lat="48.80063" lon="2.16184">
        <ele>171.8</ele>
        <time>2015-05-11T19:29:00.573Z</time>
      </trkpt>
      <trkpt lat="48.80059" lon="2.16179">
        <ele>171.8</ele>
        <time>2015-05-11T19:29:01.584Z</time>
      </trkpt>
      <trkpt lat="48.80056" lon="2.16174">
        <ele>171.6</ele>
        <time>2015-05-11T19:29:02.590Z</time>
      </trkpt>
      <trkpt lat="48.8005" lon="2.16165">
        <ele>171.4</ele>
        <time>2015-05-11T19:29:04.535Z</time>
      </trkpt>
      <trkpt lat="48.80049" lon="2.1616">
        <ele>171.7</ele>
        <time>2015-05-11T19:29:05.537Z</time>
      </trkpt>
      <trkpt lat="48.80044" lon="2.16151">
        <ele>171.5</ele>
        <time>2015-05-11T19:29:07.614Z</time>
      </trkpt>
      <trkpt lat="48.80041" lon="2.16147">
        <ele>171.7</ele>
        <time>2015-05-11T19:29:08.546Z</time>
      </trkpt>
      <trkpt lat="48.80036" lon="2.16138">
        <ele>171.2</ele>
        <time>2015-05-11T19:29:09.890Z</time>
      </trkpt>
      <trkpt lat="48.80032" lon="2.16132">
        <ele>171.1</ele>
        <time>2015-05-11T19:29:11.725Z</time>
      </trkpt>
      <trkpt lat="48.80027" lon="2.16125">
        <ele>170.9</ele>
        <time>2015-05-11T19:29:12.566Z</time>
      </trkpt>
      <trkpt lat="48.80023" lon="2.16119">
        <ele>170.9</ele>
        <time>2015-05-11T19:29:13.575Z</time>
      </trkpt>
      <trkpt lat="48.80019" lon="2.16113">
        <ele>170.6</ele>
        <time>2015-05-11T19:29:14.974Z</time>
      </trkpt>
      <trkpt lat="48.80016" lon="2.16106">
        <ele>170.2</ele>
        <time>2015-05-11T19:29:15.540Z</time>
      </trkpt>
      <trkpt lat="48.80012" lon="2.16099">
        <ele>169.9</ele>
        <time>2015-05-11T19:29:16.557Z</time>
      </trkpt>
      <trkpt lat="48.80008" lon="2.16093">
        <ele>169.6</ele>
        <time>2015-05-11T19:29:17.720Z</time>
      </trkpt>
      <trkpt lat="48.80003" lon="2.16088">
        <ele>170.3</ele>
        <time>2015-05-11T19:29:18.623Z</time>
      </trkpt>
      <trkpt lat="48.79999" lon="2.16082">
        <ele>170.3</ele>
        <time>2015-05-11T19:29:19.517Z</time>
      </trkpt>
      <trkpt lat="48.79995" lon="2.16076">
        <ele>170.1</ele>
        <time>2015-05-11T19:29:20.533Z</time>
      </trkpt>
      <trkpt lat="48.79991" lon="2.1607">
        <ele>169.7</ele>
        <time>2015-05-11T19:29:21.536Z</time>
      </trkpt>
      <trkpt lat="48.79987" lon="2.16064">
        <ele>169.7</ele>
        <time>2015-05-11T19:29:22.550Z</time>
      </trkpt>
      <trkpt lat="48.79983" lon="2.16057">
        <ele>169.6</ele>
        <time>2015-05-11T19:29:23.561Z</time>
      </trkpt>
      <trkpt lat="48.79979" lon="2.16051">
        <ele>169.6</ele>
        <time>2015-05-11T19:29:24.667Z</time>
      </trkpt>
      <trkpt lat="48.79975" lon="2.16043">
        <ele>169.8</ele>
        <time>2015-05-11T19:29:25.526Z</time>
      </trkpt>
      <trkpt lat="48.79971" lon="2.16036">
        <ele>170</ele>
        <time>2015-05-11T19:29:26.691Z</time>
      </trkpt>
      <trkpt lat="48.79965" lon="2.1603">
        <ele>169.8</ele>
        <time>2015-05-11T19:29:27.607Z</time>
      </trkpt>
      <trkpt lat="48.79961" lon="2.16023">
        <ele>170</ele>
        <time>2015-05-11T19:29:28.633Z</time>
      </trkpt>
      <trkpt lat="48.79956" lon="2.16015">
        <ele>170.3</ele>
        <time>2015-05-11T19:29:29.540Z</time>
      </trkpt>
      <trkpt lat="48.79952" lon="2.16008">
        <ele>170.4</ele>
        <time>2015-05-11T19:29:30.585Z</time>
      </trkpt>
      <trkpt lat="48.79948" lon="2.16001">
        <ele>170.6</ele>
        <time>2015-05-11T19:29:31.592Z</time>
      </trkpt>
      <trkpt lat="48.79944" lon="2.15995">
        <ele>171.1</ele>
        <time>2015-05-11T19:29:32.521Z</time>
      </trkpt>
      <trkpt lat="48.7994" lon="2.15987">
        <ele>171.3</ele>
        <time>2015-05-11T19:29:33.563Z</time>
      </trkpt>
      <trkpt lat="48.79936" lon="2.1598">
        <ele>171.1</ele>
        <time>2015-05-11T19:29:34.530Z</time>
      </trkpt>
      <trkpt lat="48.79931" lon="2.15972">
        <ele>171.1</ele>
        <time>2015-05-11T19:29:35.569Z</time>
      </trkpt>
      <trkpt lat="48.79926" lon="2.15965">
        <ele>171</ele>
        <time>2015-05-11T19:29:36.569Z</time>
      </trkpt>
      <trkpt lat="48.79921" lon="2.15958">
        <ele>171.1</ele>
        <time>2015-05-11T19:29:37.576Z</time>
      </trkpt>
      <trkpt lat="48.79917" lon="2.15951">
        <ele>170.7</ele>
        <time>2015-05-11T19:29:38.603Z</time>
      </trkpt>
      <trkpt lat="48.79913" lon="2.15943">
        <ele>170.5</ele>
        <time>2015-05-11T19:29:39.612Z</time>
      </trkpt>
      <trkpt lat="48.7991" lon="2.15936">
        <ele>170.3</ele>
        <time>2015-05-11T19:29:40.635Z</time>
      </trkpt>
      <trkpt lat="48.79906" lon="2.15929">
        <ele>170.1</ele>
        <time>2015-05-11T19:29:41.611Z</time>
      </trkpt>
      <trkpt lat="48.79902" lon="2.15922">
        <ele>170.1</ele>
        <time>2015-05-11T19:29:42.627Z</time>
      </trkpt>
      <trkpt lat="48.79899" lon="2.15915">
        <ele>169.8</ele>
        <time>2015-05-11T19:29:43.637Z</time>
      </trkpt>
      <trkpt lat="48.79895" lon="2.15909">
        <ele>169.9</ele>
        <time>2015-05-11T19:29:44.549Z</time>
      </trkpt>
      <trkpt lat="48.79893" lon="2.15902">
        <ele>169.5</ele>
        <time>2015-05-11T19:29:45.570Z</time>
      </trkpt>
      <trkpt lat="48.79889" lon="2.15891">
        <ele>169.5</ele>
        <time>2015-05-11T19:29:47.600Z</time>
      </trkpt>
      <trkpt lat="48.79887" lon="2.15884">
        <ele>169.2</ele>
        <time>2015-05-11T19:29:48.612Z</time>
      </trkpt>
      <trkpt lat="48.79886" lon="2.15877">
        <ele>168.9</ele>
        <time>2015-05-11T19:29:49.696Z</time>
      </trkpt>
      <trkpt lat="48.79884" lon="2.1587">
        <ele>168.5</ele>
        <time>2015-05-11T19:29:50.544Z</time>
      </trkpt>
      <trkpt lat="48.79879" lon="2.1586">
        <ele>167.3</ele>
        <time>2015-05-11T19:29:52.573Z</time>
      </trkpt>
      <trkpt lat="48.79876" lon="2.15855">
        <ele>167</ele>
        <time>2015-05-11T19:29:53.583Z</time>
      </trkpt>
      <trkpt lat="48.79872" lon="2.15847">
        <ele>166.7</ele>
        <time>2015-05-11T19:29:55.616Z</time>
      </trkpt>
      <trkpt lat="48.7987" lon="2.15843">
        <ele>166.5</ele>
        <time>2015-05-11T19:29:56.517Z</time>
      </trkpt>
      <trkpt lat="48.79865" lon="2.15835">
        <ele>166.2</ele>
        <time>2015-05-11T19:29:58.546Z</time>
      </trkpt>
      <trkpt lat="48.79863" lon="2.1583">
        <ele>166.4</ele>
        <time>2015-05-11T19:29:59.550Z</time>
      </trkpt>
      <trkpt lat="48.79859" lon="2.15823">
        <ele>166.6</ele>
        <time>2015-05-11T19:30:01.571Z</time>
      </trkpt>
      <trkpt lat="48.79857" lon="2.15818">
        <ele>166.7</ele>
        <time>2015-05-11T19:30:02.589Z</time>
      </trkpt>
      <trkpt lat="48.79856" lon="2.15807">
        <ele>166.3</ele>
        <time>2015-05-11T19:30:05.566Z</time>
      </trkpt>
      <trkpt lat="48.79855" lon="2.15804">
        <ele>166</ele>
        <time>2015-05-11T19:30:06.598Z</time>
      </trkpt>
      <trkpt lat="48.79854" lon="2.15796">
        <ele>165.6</ele>
        <time>2015-05-11T19:31:41.584Z</time>
      </trkpt>
      <trkpt lat="48.79865" lon="2.15804">
        <ele>167</ele>
        <time>2015-05-11T19:31:42.635Z</time>
      </trkpt>
      <trkpt lat="48.79857" lon="2.15802">
        <ele>167.3</ele>
        <time>2015-05-11T19:31:44.562Z</time>
      </trkpt>
      <trkpt lat="48.79854" lon="2.15801">
        <ele>167.5</ele>
        <time>2015-05-11T19:31:45.590Z</time>
      </trkpt>
      <trkpt lat="48.79849" lon="2.15791">
        <ele>193.5</ele>
        <time>2015-05-11T19:34:48.556Z</time>
      </trkpt>
      <trkpt lat="48.79848" lon="2.15783">
        <ele>188.9</ele>
        <time>2015-05-11T19:34:49.556Z</time>
      </trkpt>
      <trkpt lat="48.79848" lon="2.15776">
        <ele>185.7</ele>
        <time>2015-05-11T19:34:50.499Z</time>
      </trkpt>
      <trkpt lat="48.79847" lon="2.15769">
        <ele>183</ele>
        <time>2015-05-11T19:34:51.508Z</time>
      </trkpt>
      <trkpt lat="48.79848" lon="2.15762">
        <ele>180.5</ele>
        <time>2015-05-11T19:34:52.560Z</time>
      </trkpt>
      <trkpt lat="48.79849" lon="2.15755">
        <ele>178.4</ele>
        <time>2015-05-11T19:34:53.533Z</time>
      </trkpt>
      <trkpt lat="48.7985" lon="2.15742">
        <ele>175.4</ele>
        <time>2015-05-11T19:34:55.618Z</time>
      </trkpt>
      <trkpt lat="48.7985" lon="2.15735">
        <ele>173.8</ele>
        <time>2015-05-11T19:34:56.512Z</time>
      </trkpt>
      <trkpt lat="48.79848" lon="2.15722">
        <ele>171.7</ele>
        <time>2015-05-11T19:34:58.530Z</time>
      </trkpt>
      <trkpt lat="48.79847" lon="2.15716">
        <ele>171</ele>
        <time>2015-05-11T19:34:59.542Z</time>
      </trkpt>
      <trkpt lat="48.79848" lon="2.15702">
        <ele>169.5</ele>
        <time>2015-05-11T19:35:01.582Z</time>
      </trkpt>
      <trkpt lat="48.79848" lon="2.15696">
        <ele>169</ele>
        <time>2015-05-11T19:35:02.587Z</time>
      </trkpt>
      <trkpt lat="48.79848" lon="2.15689">
        <ele>168.3</ele>
        <time>2015-05-11T19:35:03.600Z</time>
      </trkpt>
      <trkpt lat="48.79848" lon="2.15682">
        <ele>167.2</ele>
        <time>2015-05-11T19:35:04.513Z</time>
      </trkpt>
      <trkpt lat="48.79848" lon="2.15675">
        <ele>166.3</ele>
        <time>2015-05-11T19:35:05.539Z</time>
      </trkpt>
      <trkpt lat="48.79848" lon="2.15668">
        <ele>165.8</ele>
        <time>2015-05-11T19:35:06.542Z</time>
      </trkpt>
      <trkpt lat="48.79848" lon="2.15661">
        <ele>165.6</ele>
        <time>2015-05-11T19:35:07.549Z</time>
      </trkpt>
      <trkpt lat="48.79847" lon="2.15654">
        <ele>165.2</ele>
        <time>2015-05-11T19:35:08.563Z</time>
      </trkpt>
      <trkpt lat="48.79846" lon="2.1564">
        <ele>164.4</ele>
        <time>2015-05-11T19:35:10.620Z</time>
      </trkpt>
      <trkpt lat="48.79847" lon="2.15633">
        <ele>163.9</ele>
        <time>2015-05-11T19:35:11.560Z</time>
      </trkpt>
      <trkpt lat="48.79847" lon="2.15626">
        <ele>163.8</ele>
        <time>2015-05-11T19:35:12.589Z</time>
      </trkpt>
      <trkpt lat="48.79846" lon="2.15618">
        <ele>163.3</ele>
        <time>2015-05-11T19:35:13.583Z</time>
      </trkpt>
      <trkpt lat="48.79845" lon="2.15611">
        <ele>163</ele>
        <time>2015-05-11T19:35:14.588Z</time>
      </trkpt>
      <trkpt lat="48.79845" lon="2.15603">
        <ele>162.7</ele>
        <time>2015-05-11T19:35:15.606Z</time>
      </trkpt>
      <trkpt lat="48.79845" lon="2.15595">
        <ele>162</ele>
        <time>2015-05-11T19:35:16.722Z</time>
      </trkpt>
      <trkpt lat="48.79846" lon="2.15587">
        <ele>161.8</ele>
        <time>2015-05-11T19:35:17.564Z</time>
      </trkpt>
      <trkpt lat="48.79848" lon="2.15579">
        <ele>161.7</ele>
        <time>2015-05-11T19:35:18.591Z</time>
      </trkpt>
      <trkpt lat="48.79848" lon="2.15571">
        <ele>161.7</ele>
        <time>2015-05-11T19:35:19.605Z</time>
      </trkpt>
      <trkpt lat="48.79849" lon="2.15562">
        <ele>162</ele>
        <time>2015-05-11T19:35:20.613Z</time>
      </trkpt>
      <trkpt lat="48.79849" lon="2.15554">
        <ele>161.9</ele>
        <time>2015-05-11T19:35:21.510Z</time>
      </trkpt>
      <trkpt lat="48.79847" lon="2.15545">
        <ele>161.9</ele>
        <time>2015-05-11T19:35:22.644Z</time>
      </trkpt>
      <trkpt lat="48.79848" lon="2.15537">
        <ele>161.8</ele>
        <time>2015-05-11T19:35:23.646Z</time>
      </trkpt>
      <trkpt lat="48.79848" lon="2.15529">
        <ele>161.6</ele>
        <time>2015-05-11T19:35:24.663Z</time>
      </trkpt>
      <trkpt lat="48.79848" lon="2.15521">
        <ele>161.2</ele>
        <time>2015-05-11T19:35:25.608Z</time>
      </trkpt>
      <trkpt lat="48.79848" lon="2.15512">
        <ele>161</ele>
        <time>2015-05-11T19:35:26.663Z</time>
      </trkpt>
      <trkpt lat="48.79848" lon="2.15503">
        <ele>160.8</ele>
        <time>2015-05-11T19:35:27.544Z</time>
      </trkpt>
      <trkpt lat="48.79848" lon="2.15494">
        <ele>160.9</ele>
        <time>2015-05-11T19:35:28.548Z</time>
      </trkpt>
      <trkpt lat="48.79848" lon="2.15486">
        <ele>160.7</ele>
        <time>2015-05-11T19:35:29.565Z</time>
      </trkpt>
      <trkpt lat="48.79848" lon="2.15477">
        <ele>160.9</ele>
        <time>2015-05-11T19:35:30.586Z</time>
      </trkpt>
      <trkpt lat="48.79848" lon="2.15468">
        <ele>160.9</ele>
        <time>2015-05-11T19:35:31.590Z</time>
      </trkpt>
      <trkpt lat="48.7985" lon="2.15461">
        <ele>160.3</ele>
        <time>2015-05-11T19:35:32.506Z</time>
      </trkpt>
      <trkpt lat="48.79849" lon="2.15453">
        <ele>160.1</ele>
        <time>2015-05-11T19:35:33.617Z</time>
      </trkpt>
      <trkpt lat="48.79848" lon="2.15444">
        <ele>159.8</ele>
        <time>2015-05-11T19:35:34.555Z</time>
      </trkpt>
      <trkpt lat="48.79848" lon="2.15435">
        <ele>159.9</ele>
        <time>2015-05-11T19:35:35.565Z</time>
      </trkpt>
      <trkpt lat="48.79847" lon="2.15426">
        <ele>160</ele>
        <time>2015-05-11T19:35:36.579Z</time>
      </trkpt>
      <trkpt lat="48.79848" lon="2.15417">
        <ele>160.1</ele>
        <time>2015-05-11T19:35:37.586Z</time>
      </trkpt>
      <trkpt lat="48.79849" lon="2.15408">
        <ele>160.2</ele>
        <time>2015-05-11T19:35:38.500Z</time>
      </trkpt>
      <trkpt lat="48.79848" lon="2.15399">
        <ele>160.3</ele>
        <time>2015-05-11T19:35:39.527Z</time>
      </trkpt>
      <trkpt lat="48.79847" lon="2.1539">
        <ele>160.4</ele>
        <time>2015-05-11T19:35:40.560Z</time>
      </trkpt>
      <trkpt lat="48.79847" lon="2.15382">
        <ele>160.4</ele>
        <time>2015-05-11T19:35:41.568Z</time>
      </trkpt>
      <trkpt lat="48.79847" lon="2.15374">
        <ele>160.2</ele>
        <time>2015-05-11T19:35:42.589Z</time>
      </trkpt>
      <trkpt lat="48.79847" lon="2.15365">
        <ele>160.1</ele>
        <time>2015-05-11T19:35:43.592Z</time>
      </trkpt>
      <trkpt lat="48.79846" lon="2.15356">
        <ele>159.6</ele>
        <time>2015-05-11T19:35:44.502Z</time>
      </trkpt>
      <trkpt lat="48.79845" lon="2.15347">
        <ele>159.2</ele>
        <time>2015-05-11T19:35:45.579Z</time>
      </trkpt>
      <trkpt lat="48.79845" lon="2.15338">
        <ele>159.2</ele>
        <time>2015-05-11T19:35:46.597Z</time>
      </trkpt>
      <trkpt lat="48.79845" lon="2.15329">
        <ele>159.2</ele>
        <time>2015-05-11T19:35:47.609Z</time>
      </trkpt>
      <trkpt lat="48.79845" lon="2.1532">
        <ele>159.5</ele>
        <time>2015-05-11T19:35:48.632Z</time>
      </trkpt>
      <trkpt lat="48.79845" lon="2.15312">
        <ele>159.3</ele>
        <time>2015-05-11T19:35:49.543Z</time>
      </trkpt>
      <trkpt lat="48.79844" lon="2.15303">
        <ele>159.4</ele>
        <time>2015-05-11T19:35:50.550Z</time>
      </trkpt>
      <trkpt lat="48.79844" lon="2.15295">
        <ele>159.1</ele>
        <time>2015-05-11T19:35:51.561Z</time>
      </trkpt>
      <trkpt lat="48.79845" lon="2.15287">
        <ele>159.2</ele>
        <time>2015-05-11T19:35:52.574Z</time>
      </trkpt>
      <trkpt lat="48.79845" lon="2.15278">
        <ele>159.5</ele>
        <time>2015-05-11T19:35:53.581Z</time>
      </trkpt>
      <trkpt lat="48.79846" lon="2.15269">
        <ele>159.8</ele>
        <time>2015-05-11T19:35:54.597Z</time>
      </trkpt>
      <trkpt lat="48.79845" lon="2.1526">
        <ele>160.1</ele>
        <time>2015-05-11T19:35:55.605Z</time>
      </trkpt>
      <trkpt lat="48.79844" lon="2.15251">
        <ele>160</ele>
        <time>2015-05-11T19:35:56.617Z</time>
      </trkpt>
      <trkpt lat="48.79843" lon="2.15242">
        <ele>159.9</ele>
        <time>2015-05-11T19:35:57.537Z</time>
      </trkpt>
      <trkpt lat="48.79844" lon="2.15233">
        <ele>159.9</ele>
        <time>2015-05-11T19:35:58.570Z</time>
      </trkpt>
      <trkpt lat="48.79844" lon="2.15225">
        <ele>159.9</ele>
        <time>2015-05-11T19:35:59.577Z</time>
      </trkpt>
      <trkpt lat="48.79844" lon="2.15216">
        <ele>160.1</ele>
        <time>2015-05-11T19:36:00.581Z</time>
      </trkpt>
      <trkpt lat="48.79843" lon="2.15208">
        <ele>159.9</ele>
        <time>2015-05-11T19:36:01.595Z</time>
      </trkpt>
      <trkpt lat="48.79843" lon="2.152">
        <ele>160.1</ele>
        <time>2015-05-11T19:36:02.524Z</time>
      </trkpt>
      <trkpt lat="48.79842" lon="2.15192">
        <ele>160.1</ele>
        <time>2015-05-11T19:36:03.548Z</time>
      </trkpt>
      <trkpt lat="48.79841" lon="2.15183">
        <ele>160.2</ele>
        <time>2015-05-11T19:36:04.569Z</time>
      </trkpt>
      <trkpt lat="48.79839" lon="2.15174">
        <ele>160.1</ele>
        <time>2015-05-11T19:36:05.580Z</time>
      </trkpt>
      <trkpt lat="48.7984" lon="2.15167">
        <ele>160.2</ele>
        <time>2015-05-11T19:36:06.631Z</time>
      </trkpt>
      <trkpt lat="48.7984" lon="2.1516">
        <ele>160.1</ele>
        <time>2015-05-11T19:36:07.555Z</time>
      </trkpt>
      <trkpt lat="48.79841" lon="2.15152">
        <ele>159.8</ele>
        <time>2015-05-11T19:36:08.575Z</time>
      </trkpt>
      <trkpt lat="48.79842" lon="2.15144">
        <ele>159.9</ele>
        <time>2015-05-11T19:36:09.589Z</time>
      </trkpt>
      <trkpt lat="48.79843" lon="2.15137">
        <ele>159.9</ele>
        <time>2015-05-11T19:36:10.603Z</time>
      </trkpt>
      <trkpt lat="48.79843" lon="2.15129">
        <ele>160</ele>
        <time>2015-05-11T19:36:11.613Z</time>
      </trkpt>
      <trkpt lat="48.79843" lon="2.1512">
        <ele>160.2</ele>
        <time>2015-05-11T19:36:12.612Z</time>
      </trkpt>
      <trkpt lat="48.79842" lon="2.15111">
        <ele>160.1</ele>
        <time>2015-05-11T19:36:13.516Z</time>
      </trkpt>
      <trkpt lat="48.79841" lon="2.15103">
        <ele>160.2</ele>
        <time>2015-05-11T19:36:14.539Z</time>
      </trkpt>
      <trkpt lat="48.79841" lon="2.15095">
        <ele>160.4</ele>
        <time>2015-05-11T19:36:15.551Z</time>
      </trkpt>
      <trkpt lat="48.79841" lon="2.15087">
        <ele>160.9</ele>
        <time>2015-05-11T19:36:16.576Z</time>
      </trkpt>
      <trkpt lat="48.79842" lon="2.15079">
        <ele>161.4</ele>
        <time>2015-05-11T19:36:17.583Z</time>
      </trkpt>
      <trkpt lat="48.79843" lon="2.15071">
        <ele>161.7</ele>
        <time>2015-05-11T19:36:18.593Z</time>
      </trkpt>
      <trkpt lat="48.79844" lon="2.15063">
        <ele>162</ele>
        <time>2015-05-11T19:36:19.607Z</time>
      </trkpt>
      <trkpt lat="48.79845" lon="2.15056">
        <ele>162.1</ele>
        <time>2015-05-11T19:36:20.539Z</time>
      </trkpt>
      <trkpt lat="48.79846" lon="2.15049">
        <ele>162.2</ele>
        <time>2015-05-11T19:36:21.538Z</time>
      </trkpt>
      <trkpt lat="48.79846" lon="2.1504">
        <ele>162.4</ele>
        <time>2015-05-11T19:36:22.548Z</time>
      </trkpt>
      <trkpt lat="48.79845" lon="2.15031">
        <ele>162.6</ele>
        <time>2015-05-11T19:36:23.568Z</time>
      </trkpt>
      <trkpt lat="48.79844" lon="2.15022">
        <ele>162.8</ele>
        <time>2015-05-11T19:36:24.589Z</time>
      </trkpt>
      <trkpt lat="48.79843" lon="2.15013">
        <ele>163</ele>
        <time>2015-05-11T19:36:25.591Z</time>
      </trkpt>
      <trkpt lat="48.79844" lon="2.15005">
        <ele>163</ele>
        <time>2015-05-11T19:36:26.542Z</time>
      </trkpt>
      <trkpt lat="48.79845" lon="2.14997">
        <ele>163</ele>
        <time>2015-05-11T19:36:27.555Z</time>
      </trkpt>
      <trkpt lat="48.79845" lon="2.14988">
        <ele>162.9</ele>
        <time>2015-05-11T19:36:28.584Z</time>
      </trkpt>
      <trkpt lat="48.79845" lon="2.1498">
        <ele>163.2</ele>
        <time>2015-05-11T19:36:29.629Z</time>
      </trkpt>
      <trkpt lat="48.79845" lon="2.14971">
        <ele>163.4</ele>
        <time>2015-05-11T19:36:30.622Z</time>
      </trkpt>
      <trkpt lat="48.79845" lon="2.14963">
        <ele>163.8</ele>
        <time>2015-05-11T19:36:31.564Z</time>
      </trkpt>
      <trkpt lat="48.79844" lon="2.14955">
        <ele>164</ele>
        <time>2015-05-11T19:36:32.583Z</time>
      </trkpt>
      <trkpt lat="48.79843" lon="2.14946">
        <ele>164.3</ele>
        <time>2015-05-11T19:36:33.512Z</time>
      </trkpt>
      <trkpt lat="48.79843" lon="2.14938">
        <ele>164.6</ele>
        <time>2015-05-11T19:36:34.538Z</time>
      </trkpt>
      <trkpt lat="48.79842" lon="2.1493">
        <ele>164.7</ele>
        <time>2015-05-11T19:36:35.545Z</time>
      </trkpt>
      <trkpt lat="48.79842" lon="2.14921">
        <ele>164.9</ele>
        <time>2015-05-11T19:36:36.557Z</time>
      </trkpt>
      <trkpt lat="48.79841" lon="2.14914">
        <ele>165.3</ele>
        <time>2015-05-11T19:36:37.570Z</time>
      </trkpt>
      <trkpt lat="48.79839" lon="2.14905">
        <ele>165.5</ele>
        <time>2015-05-11T19:36:38.578Z</time>
      </trkpt>
      <trkpt lat="48.79839" lon="2.14897">
        <ele>166.1</ele>
        <time>2015-05-11T19:36:39.600Z</time>
      </trkpt>
      <trkpt lat="48.79838" lon="2.14889">
        <ele>166.4</ele>
        <time>2015-05-11T19:36:40.610Z</time>
      </trkpt>
      <trkpt lat="48.79837" lon="2.14881">
        <ele>166.9</ele>
        <time>2015-05-11T19:36:41.620Z</time>
      </trkpt>
      <trkpt lat="48.79836" lon="2.14873">
        <ele>167.4</ele>
        <time>2015-05-11T19:36:42.638Z</time>
      </trkpt>
      <trkpt lat="48.79835" lon="2.14864">
        <ele>167.7</ele>
        <time>2015-05-11T19:36:43.546Z</time>
      </trkpt>
      <trkpt lat="48.79833" lon="2.14855">
        <ele>167.7</ele>
        <time>2015-05-11T19:36:44.519Z</time>
      </trkpt>
      <trkpt lat="48.79833" lon="2.14846">
        <ele>167.7</ele>
        <time>2015-05-11T19:36:45.543Z</time>
      </trkpt>
      <trkpt lat="48.79832" lon="2.14838">
        <ele>167.6</ele>
        <time>2015-05-11T19:36:46.556Z</time>
      </trkpt>
      <trkpt lat="48.79831" lon="2.14829">
        <ele>167</ele>
        <time>2015-05-11T19:36:47.569Z</time>
      </trkpt>
      <trkpt lat="48.7983" lon="2.1482">
        <ele>166.8</ele>
        <time>2015-05-11T19:36:48.598Z</time>
      </trkpt>
      <trkpt lat="48.7983" lon="2.14812">
        <ele>167.1</ele>
        <time>2015-05-11T19:36:49.615Z</time>
      </trkpt>
      <trkpt lat="48.79829" lon="2.14804">
        <ele>167.3</ele>
        <time>2015-05-11T19:36:50.537Z</time>
      </trkpt>
      <trkpt lat="48.79828" lon="2.14795">
        <ele>167.5</ele>
        <time>2015-05-11T19:36:51.510Z</time>
      </trkpt>
      <trkpt lat="48.79827" lon="2.14786">
        <ele>167.7</ele>
        <time>2015-05-11T19:36:52.512Z</time>
      </trkpt>
      <trkpt lat="48.79827" lon="2.14778">
        <ele>167.9</ele>
        <time>2015-05-11T19:36:53.536Z</time>
      </trkpt>
      <trkpt lat="48.79826" lon="2.14769">
        <ele>168</ele>
        <time>2015-05-11T19:36:54.588Z</time>
      </trkpt>
      <trkpt lat="48.79825" lon="2.14761">
        <ele>168.4</ele>
        <time>2015-05-11T19:36:55.592Z</time>
      </trkpt>
      <trkpt lat="48.79826" lon="2.14753">
        <ele>169.1</ele>
        <time>2015-05-11T19:36:56.596Z</time>
      </trkpt>
      <trkpt lat="48.79827" lon="2.14746">
        <ele>169.2</ele>
        <time>2015-05-11T19:36:57.599Z</time>
      </trkpt>
      <trkpt lat="48.79826" lon="2.14738">
        <ele>169.5</ele>
        <time>2015-05-11T19:36:58.505Z</time>
      </trkpt>
      <trkpt lat="48.79826" lon="2.14729">
        <ele>169.5</ele>
        <time>2015-05-11T19:36:59.523Z</time>
      </trkpt>
      <trkpt lat="48.79825" lon="2.14721">
        <ele>169.3</ele>
        <time>2015-05-11T19:37:00.645Z</time>
      </trkpt>
      <trkpt lat="48.79824" lon="2.14712">
        <ele>169.1</ele>
        <time>2015-05-11T19:37:01.531Z</time>
      </trkpt>
      <trkpt lat="48.79824" lon="2.14703">
        <ele>169.1</ele>
        <time>2015-05-11T19:37:02.551Z</time>
      </trkpt>
      <trkpt lat="48.79824" lon="2.14695">
        <ele>169.2</ele>
        <time>2015-05-11T19:37:03.572Z</time>
      </trkpt>
      <trkpt lat="48.79823" lon="2.14686">
        <ele>169.1</ele>
        <time>2015-05-11T19:37:04.610Z</time>
      </trkpt>
      <trkpt lat="48.79822" lon="2.14677">
        <ele>169</ele>
        <time>2015-05-11T19:37:05.555Z</time>
      </trkpt>
      <trkpt lat="48.79821" lon="2.14667">
        <ele>169</ele>
        <time>2015-05-11T19:37:06.672Z</time>
      </trkpt>
      <trkpt lat="48.7982" lon="2.14657">
        <ele>169.2</ele>
        <time>2015-05-11T19:37:07.533Z</time>
      </trkpt>
      <trkpt lat="48.7982" lon="2.14648">
        <ele>169.6</ele>
        <time>2015-05-11T19:37:08.560Z</time>
      </trkpt>
      <trkpt lat="48.7982" lon="2.14639">
        <ele>169.9</ele>
        <time>2015-05-11T19:37:09.586Z</time>
      </trkpt>
      <trkpt lat="48.79819" lon="2.1463">
        <ele>169.9</ele>
        <time>2015-05-11T19:37:10.595Z</time>
      </trkpt>
      <trkpt lat="48.79817" lon="2.1462">
        <ele>170.1</ele>
        <time>2015-05-11T19:37:11.611Z</time>
      </trkpt>
      <trkpt lat="48.79816" lon="2.14609">
        <ele>170</ele>
        <time>2015-05-11T19:37:12.661Z</time>
      </trkpt>
      <trkpt lat="48.79816" lon="2.146">
        <ele>169.8</ele>
        <time>2015-05-11T19:37:13.548Z</time>
      </trkpt>
      <trkpt lat="48.79815" lon="2.14589">
        <ele>169.9</ele>
        <time>2015-05-11T19:37:14.570Z</time>
      </trkpt>
      <trkpt lat="48.79815" lon="2.1458">
        <ele>170</ele>
        <time>2015-05-11T19:37:15.569Z</time>
      </trkpt>
      <trkpt lat="48.79814" lon="2.1457">
        <ele>170</ele>
        <time>2015-05-11T19:37:16.598Z</time>
      </trkpt>
      <trkpt lat="48.79812" lon="2.14558">
        <ele>168.9</ele>
        <time>2015-05-11T19:37:17.542Z</time>
      </trkpt>
      <trkpt lat="48.7981" lon="2.14548">
        <ele>168.1</ele>
        <time>2015-05-11T19:37:18.681Z</time>
      </trkpt>
      <trkpt lat="48.7981" lon="2.14538">
        <ele>168.1</ele>
        <time>2015-05-11T19:37:19.550Z</time>
      </trkpt>
      <trkpt lat="48.7981" lon="2.14529">
        <ele>168</ele>
        <time>2015-05-11T19:37:20.593Z</time>
      </trkpt>
      <trkpt lat="48.79811" lon="2.1452">
        <ele>168.1</ele>
        <time>2015-05-11T19:37:21.614Z</time>
      </trkpt>
      <trkpt lat="48.79813" lon="2.14511">
        <ele>168.2</ele>
        <time>2015-05-11T19:37:22.632Z</time>
      </trkpt>
      <trkpt lat="48.79815" lon="2.14502">
        <ele>168.4</ele>
        <time>2015-05-11T19:37:23.536Z</time>
      </trkpt>
      <trkpt lat="48.79818" lon="2.14493">
        <ele>168.4</ele>
        <time>2015-05-11T19:37:24.589Z</time>
      </trkpt>
      <trkpt lat="48.7982" lon="2.14484">
        <ele>168.4</ele>
        <time>2015-05-11T19:37:25.590Z</time>
      </trkpt>
      <trkpt lat="48.79823" lon="2.14475">
        <ele>168.1</ele>
        <time>2015-05-11T19:37:26.607Z</time>
      </trkpt>
      <trkpt lat="48.79825" lon="2.14466">
        <ele>168.3</ele>
        <time>2015-05-11T19:37:27.511Z</time>
      </trkpt>
      <trkpt lat="48.79827" lon="2.14457">
        <ele>168.7</ele>
        <time>2015-05-11T19:37:28.537Z</time>
      </trkpt>
      <trkpt lat="48.79831" lon="2.14448">
        <ele>169.1</ele>
        <time>2015-05-11T19:37:29.533Z</time>
      </trkpt>
      <trkpt lat="48.79834" lon="2.1444">
        <ele>169.4</ele>
        <time>2015-05-11T19:37:30.589Z</time>
      </trkpt>
      <trkpt lat="48.79836" lon="2.14431">
        <ele>169.5</ele>
        <time>2015-05-11T19:37:31.604Z</time>
      </trkpt>
      <trkpt lat="48.79839" lon="2.14422">
        <ele>169.6</ele>
        <time>2015-05-11T19:37:32.509Z</time>
      </trkpt>
      <trkpt lat="48.79841" lon="2.14414">
        <ele>169.7</ele>
        <time>2015-05-11T19:37:33.533Z</time>
      </trkpt>
      <trkpt lat="48.79844" lon="2.14406">
        <ele>169.5</ele>
        <time>2015-05-11T19:37:34.550Z</time>
      </trkpt>
      <trkpt lat="48.79846" lon="2.14398">
        <ele>169.3</ele>
        <time>2015-05-11T19:37:35.560Z</time>
      </trkpt>
      <trkpt lat="48.79849" lon="2.1439">
        <ele>169.1</ele>
        <time>2015-05-11T19:37:36.588Z</time>
      </trkpt>
      <trkpt lat="48.79853" lon="2.14382">
        <ele>169.3</ele>
        <time>2015-05-11T19:37:37.604Z</time>
      </trkpt>
      <trkpt lat="48.79855" lon="2.14373">
        <ele>169.4</ele>
        <time>2015-05-11T19:37:38.617Z</time>
      </trkpt>
      <trkpt lat="48.79858" lon="2.14365">
        <ele>169.5</ele>
        <time>2015-05-11T19:37:39.618Z</time>
      </trkpt>
      <trkpt lat="48.7986" lon="2.14356">
        <ele>169.8</ele>
        <time>2015-05-11T19:37:40.517Z</time>
      </trkpt>
      <trkpt lat="48.79862" lon="2.14347">
        <ele>169.9</ele>
        <time>2015-05-11T19:37:41.529Z</time>
      </trkpt>
      <trkpt lat="48.79865" lon="2.14339">
        <ele>169.9</ele>
        <time>2015-05-11T19:37:42.583Z</time>
      </trkpt>
      <trkpt lat="48.79866" lon="2.14329">
        <ele>170.1</ele>
        <time>2015-05-11T19:37:43.583Z</time>
      </trkpt>
      <trkpt lat="48.79868" lon="2.1432">
        <ele>170.2</ele>
        <time>2015-05-11T19:37:44.601Z</time>
      </trkpt>
      <trkpt lat="48.79871" lon="2.14311">
        <ele>170.6</ele>
        <time>2015-05-11T19:37:45.531Z</time>
      </trkpt>
      <trkpt lat="48.79873" lon="2.14303">
        <ele>170.8</ele>
        <time>2015-05-11T19:37:46.521Z</time>
      </trkpt>
      <trkpt lat="48.79875" lon="2.14294">
        <ele>170.7</ele>
        <time>2015-05-11T19:37:47.542Z</time>
      </trkpt>
      <trkpt lat="48.79877" lon="2.14285">
        <ele>170.9</ele>
        <time>2015-05-11T19:37:48.564Z</time>
      </trkpt>
      <trkpt lat="48.7988" lon="2.14278">
        <ele>171</ele>
        <time>2015-05-11T19:37:49.567Z</time>
      </trkpt>
      <trkpt lat="48.79882" lon="2.14269">
        <ele>171</ele>
        <time>2015-05-11T19:37:50.568Z</time>
      </trkpt>
      <trkpt lat="48.79884" lon="2.1426">
        <ele>171.2</ele>
        <time>2015-05-11T19:37:51.576Z</time>
      </trkpt>
      <trkpt lat="48.79887" lon="2.14251">
        <ele>171.6</ele>
        <time>2015-05-11T19:37:52.596Z</time>
      </trkpt>
      <trkpt lat="48.79889" lon="2.14242">
        <ele>171.8</ele>
        <time>2015-05-11T19:37:53.607Z</time>
      </trkpt>
      <trkpt lat="48.79891" lon="2.14233">
        <ele>172.3</ele>
        <time>2015-05-11T19:37:54.621Z</time>
      </trkpt>
      <trkpt lat="48.79893" lon="2.14223">
        <ele>172.6</ele>
        <time>2015-05-11T19:37:55.526Z</time>
      </trkpt>
      <trkpt lat="48.79895" lon="2.14214">
        <ele>172.8</ele>
        <time>2015-05-11T19:37:56.530Z</time>
      </trkpt>
      <trkpt lat="48.79898" lon="2.14206">
        <ele>173.2</ele>
        <time>2015-05-11T19:37:57.538Z</time>
      </trkpt>
      <trkpt lat="48.799" lon="2.14197">
        <ele>173.6</ele>
        <time>2015-05-11T19:37:58.549Z</time>
      </trkpt>
      <trkpt lat="48.79903" lon="2.14189">
        <ele>173.9</ele>
        <time>2015-05-11T19:37:59.558Z</time>
      </trkpt>
      <trkpt lat="48.79905" lon="2.1418">
        <ele>173.9</ele>
        <time>2015-05-11T19:38:00.573Z</time>
      </trkpt>
      <trkpt lat="48.79907" lon="2.14171">
        <ele>173.9</ele>
        <time>2015-05-11T19:38:01.582Z</time>
      </trkpt>
      <trkpt lat="48.79909" lon="2.14162">
        <ele>174.2</ele>
        <time>2015-05-11T19:38:02.605Z</time>
      </trkpt>
      <trkpt lat="48.79911" lon="2.14154">
        <ele>174.2</ele>
        <time>2015-05-11T19:38:03.527Z</time>
      </trkpt>
      <trkpt lat="48.79913" lon="2.14145">
        <ele>174.1</ele>
        <time>2015-05-11T19:38:04.562Z</time>
      </trkpt>
      <trkpt lat="48.79915" lon="2.14137">
        <ele>174.3</ele>
        <time>2015-05-11T19:38:05.542Z</time>
      </trkpt>
      <trkpt lat="48.79919" lon="2.14129">
        <ele>174.6</ele>
        <time>2015-05-11T19:38:06.587Z</time>
      </trkpt>
      <trkpt lat="48.7992" lon="2.1412">
        <ele>174.9</ele>
        <time>2015-05-11T19:38:07.582Z</time>
      </trkpt>
      <trkpt lat="48.79922" lon="2.14112">
        <ele>175</ele>
        <time>2015-05-11T19:38:08.591Z</time>
      </trkpt>
      <trkpt lat="48.79925" lon="2.14104">
        <ele>175.1</ele>
        <time>2015-05-11T19:38:09.598Z</time>
      </trkpt>
      <trkpt lat="48.79926" lon="2.14096">
        <ele>175.1</ele>
        <time>2015-05-11T19:38:10.536Z</time>
      </trkpt>
      <trkpt lat="48.79929" lon="2.14088">
        <ele>175</ele>
        <time>2015-05-11T19:38:11.538Z</time>
      </trkpt>
      <trkpt lat="48.79932" lon="2.1408">
        <ele>174.9</ele>
        <time>2015-05-11T19:38:12.609Z</time>
      </trkpt>
      <trkpt lat="48.79935" lon="2.14073">
        <ele>174.5</ele>
        <time>2015-05-11T19:38:13.590Z</time>
      </trkpt>
      <trkpt lat="48.79937" lon="2.14066">
        <ele>174.4</ele>
        <time>2015-05-11T19:38:14.596Z</time>
      </trkpt>
      <trkpt lat="48.7994" lon="2.14058">
        <ele>174.2</ele>
        <time>2015-05-11T19:38:15.609Z</time>
      </trkpt>
      <trkpt lat="48.79942" lon="2.1405">
        <ele>174.2</ele>
        <time>2015-05-11T19:38:16.616Z</time>
      </trkpt>
      <trkpt lat="48.79945" lon="2.14043">
        <ele>174.4</ele>
        <time>2015-05-11T19:38:17.622Z</time>
      </trkpt>
      <trkpt lat="48.79947" lon="2.14035">
        <ele>174.2</ele>
        <time>2015-05-11T19:38:18.636Z</time>
      </trkpt>
      <trkpt lat="48.7995" lon="2.14027">
        <ele>174.3</ele>
        <time>2015-05-11T19:38:19.538Z</time>
      </trkpt>
      <trkpt lat="48.79953" lon="2.14018">
        <ele>174.4</ele>
        <time>2015-05-11T19:38:20.543Z</time>
      </trkpt>
      <trkpt lat="48.79955" lon="2.14009">
        <ele>174.8</ele>
        <time>2015-05-11T19:38:21.549Z</time>
      </trkpt>
      <trkpt lat="48.79957" lon="2.14">
        <ele>175.1</ele>
        <time>2015-05-11T19:38:22.569Z</time>
      </trkpt>
      <trkpt lat="48.79959" lon="2.13991">
        <ele>175.1</ele>
        <time>2015-05-11T19:38:23.574Z</time>
      </trkpt>
      <trkpt lat="48.79961" lon="2.13983">
        <ele>174.9</ele>
        <time>2015-05-11T19:38:24.573Z</time>
      </trkpt>
      <trkpt lat="48.79964" lon="2.13974">
        <ele>175.1</ele>
        <time>2015-05-11T19:38:25.585Z</time>
      </trkpt>
      <trkpt lat="48.79967" lon="2.13966">
        <ele>175.1</ele>
        <time>2015-05-11T19:38:26.598Z</time>
      </trkpt>
      <trkpt lat="48.79969" lon="2.13957">
        <ele>175</ele>
        <time>2015-05-11T19:38:27.601Z</time>
      </trkpt>
      <trkpt lat="48.79973" lon="2.1395">
        <ele>174.5</ele>
        <time>2015-05-11T19:38:28.612Z</time>
      </trkpt>
      <trkpt lat="48.79976" lon="2.13941">
        <ele>174.3</ele>
        <time>2015-05-11T19:38:29.513Z</time>
      </trkpt>
      <trkpt lat="48.79978" lon="2.13933">
        <ele>174</ele>
        <time>2015-05-11T19:38:30.567Z</time>
      </trkpt>
      <trkpt lat="48.79982" lon="2.13925">
        <ele>173.9</ele>
        <time>2015-05-11T19:38:31.563Z</time>
      </trkpt>
      <trkpt lat="48.79984" lon="2.13916">
        <ele>174</ele>
        <time>2015-05-11T19:38:32.583Z</time>
      </trkpt>
      <trkpt lat="48.79985" lon="2.13906">
        <ele>174.5</ele>
        <time>2015-05-11T19:38:33.585Z</time>
      </trkpt>
      <trkpt lat="48.79988" lon="2.13897">
        <ele>174.7</ele>
        <time>2015-05-11T19:38:34.600Z</time>
      </trkpt>
      <trkpt lat="48.7999" lon="2.13887">
        <ele>175</ele>
        <time>2015-05-11T19:38:35.566Z</time>
      </trkpt>
      <trkpt lat="48.79993" lon="2.13878">
        <ele>175.1</ele>
        <time>2015-05-11T19:38:36.632Z</time>
      </trkpt>
      <trkpt lat="48.79995" lon="2.13868">
        <ele>175.2</ele>
        <time>2015-05-11T19:38:37.548Z</time>
      </trkpt>
      <trkpt lat="48.79998" lon="2.13859">
        <ele>175.4</ele>
        <time>2015-05-11T19:38:38.568Z</time>
      </trkpt>
      <trkpt lat="48.80001" lon="2.1385">
        <ele>175.8</ele>
        <time>2015-05-11T19:38:39.577Z</time>
      </trkpt>
      <trkpt lat="48.80004" lon="2.1384">
        <ele>175.8</ele>
        <time>2015-05-11T19:38:40.517Z</time>
      </trkpt>
      <trkpt lat="48.80006" lon="2.13831">
        <ele>176</ele>
        <time>2015-05-11T19:38:41.487Z</time>
      </trkpt>
      <trkpt lat="48.80009" lon="2.13822">
        <ele>175.8</ele>
        <time>2015-05-11T19:38:42.562Z</time>
      </trkpt>
      <trkpt lat="48.80012" lon="2.13813">
        <ele>175.4</ele>
        <time>2015-05-11T19:38:43.563Z</time>
      </trkpt>
      <trkpt lat="48.80016" lon="2.13804">
        <ele>175</ele>
        <time>2015-05-11T19:38:44.576Z</time>
      </trkpt>
      <trkpt lat="48.80018" lon="2.13795">
        <ele>174.9</ele>
        <time>2015-05-11T19:38:45.591Z</time>
      </trkpt>
      <trkpt lat="48.80021" lon="2.13785">
        <ele>174.6</ele>
        <time>2015-05-11T19:38:46.525Z</time>
      </trkpt>
      <trkpt lat="48.80024" lon="2.13776">
        <ele>174.7</ele>
        <time>2015-05-11T19:38:47.519Z</time>
      </trkpt>
      <trkpt lat="48.80026" lon="2.13766">
        <ele>175.1</ele>
        <time>2015-05-11T19:38:48.566Z</time>
      </trkpt>
      <trkpt lat="48.80028" lon="2.13757">
        <ele>175</ele>
        <time>2015-05-11T19:38:49.581Z</time>
      </trkpt>
      <trkpt lat="48.80031" lon="2.13748">
        <ele>175.2</ele>
        <time>2015-05-11T19:38:50.579Z</time>
      </trkpt>
      <trkpt lat="48.80033" lon="2.13738">
        <ele>175.6</ele>
        <time>2015-05-11T19:38:51.593Z</time>
      </trkpt>
      <trkpt lat="48.80036" lon="2.13729">
        <ele>175.3</ele>
        <time>2015-05-11T19:38:52.522Z</time>
      </trkpt>
      <trkpt lat="48.80039" lon="2.13719">
        <ele>175.2</ele>
        <time>2015-05-11T19:38:53.530Z</time>
      </trkpt>
      <trkpt lat="48.80041" lon="2.13709">
        <ele>175.2</ele>
        <time>2015-05-11T19:38:54.562Z</time>
      </trkpt>
      <trkpt lat="48.80044" lon="2.137">
        <ele>175.2</ele>
        <time>2015-05-11T19:38:55.589Z</time>
      </trkpt>
      <trkpt lat="48.80046" lon="2.1369">
        <ele>175</ele>
        <time>2015-05-11T19:38:56.580Z</time>
      </trkpt>
      <trkpt lat="48.80049" lon="2.13681">
        <ele>174.8</ele>
        <time>2015-05-11T19:38:57.585Z</time>
      </trkpt>
      <trkpt lat="48.80052" lon="2.13672">
        <ele>175.1</ele>
        <time>2015-05-11T19:38:58.599Z</time>
      </trkpt>
      <trkpt lat="48.80054" lon="2.13661">
        <ele>175.4</ele>
        <time>2015-05-11T19:38:59.516Z</time>
      </trkpt>
      <trkpt lat="48.80056" lon="2.13651">
        <ele>175.8</ele>
        <time>2015-05-11T19:39:00.533Z</time>
      </trkpt>
      <trkpt lat="48.80058" lon="2.1364">
        <ele>176.3</ele>
        <time>2015-05-11T19:39:01.566Z</time>
      </trkpt>
      <trkpt lat="48.8006" lon="2.1363">
        <ele>176.8</ele>
        <time>2015-05-11T19:39:02.584Z</time>
      </trkpt>
      <trkpt lat="48.80062" lon="2.1362">
        <ele>177</ele>
        <time>2015-05-11T19:39:03.598Z</time>
      </trkpt>
      <trkpt lat="48.80064" lon="2.1361">
        <ele>177.3</ele>
        <time>2015-05-11T19:39:04.512Z</time>
      </trkpt>
      <trkpt lat="48.80067" lon="2.136">
        <ele>177.6</ele>
        <time>2015-05-11T19:39:05.518Z</time>
      </trkpt>
      <trkpt lat="48.8007" lon="2.13591">
        <ele>177.8</ele>
        <time>2015-05-11T19:39:06.601Z</time>
      </trkpt>
      <trkpt lat="48.80073" lon="2.13582">
        <ele>177.4</ele>
        <time>2015-05-11T19:39:07.542Z</time>
      </trkpt>
      <trkpt lat="48.80076" lon="2.13573">
        <ele>177</ele>
        <time>2015-05-11T19:39:08.560Z</time>
      </trkpt>
      <trkpt lat="48.80079" lon="2.13564">
        <ele>177</ele>
        <time>2015-05-11T19:39:09.567Z</time>
      </trkpt>
      <trkpt lat="48.80082" lon="2.13554">
        <ele>176.9</ele>
        <time>2015-05-11T19:39:10.575Z</time>
      </trkpt>
      <trkpt lat="48.80084" lon="2.13545">
        <ele>176.6</ele>
        <time>2015-05-11T19:39:11.581Z</time>
      </trkpt>
      <trkpt lat="48.80087" lon="2.13536">
        <ele>176.3</ele>
        <time>2015-05-11T19:39:12.593Z</time>
      </trkpt>
      <trkpt lat="48.80089" lon="2.13526">
        <ele>176.3</ele>
        <time>2015-05-11T19:39:13.529Z</time>
      </trkpt>
      <trkpt lat="48.80091" lon="2.13517">
        <ele>176</ele>
        <time>2015-05-11T19:39:14.521Z</time>
      </trkpt>
      <trkpt lat="48.80094" lon="2.13507">
        <ele>176</ele>
        <time>2015-05-11T19:39:15.529Z</time>
      </trkpt>
      <trkpt lat="48.80096" lon="2.13498">
        <ele>175.8</ele>
        <time>2015-05-11T19:39:16.544Z</time>
      </trkpt>
      <trkpt lat="48.80099" lon="2.13489">
        <ele>176</ele>
        <time>2015-05-11T19:39:17.560Z</time>
      </trkpt>
      <trkpt lat="48.80101" lon="2.13479">
        <ele>176.2</ele>
        <time>2015-05-11T19:39:18.571Z</time>
      </trkpt>
      <trkpt lat="48.80103" lon="2.13469">
        <ele>176.2</ele>
        <time>2015-05-11T19:39:19.592Z</time>
      </trkpt>
      <trkpt lat="48.80106" lon="2.13459">
        <ele>176.4</ele>
        <time>2015-05-11T19:39:20.498Z</time>
      </trkpt>
      <trkpt lat="48.80108" lon="2.1345">
        <ele>176.2</ele>
        <time>2015-05-11T19:39:21.507Z</time>
      </trkpt>
      <trkpt lat="48.8011" lon="2.1344">
        <ele>176.2</ele>
        <time>2015-05-11T19:39:22.513Z</time>
      </trkpt>
      <trkpt lat="48.80113" lon="2.1343">
        <ele>176.4</ele>
        <time>2015-05-11T19:39:23.522Z</time>
      </trkpt>
      <trkpt lat="48.80116" lon="2.13421">
        <ele>176.3</ele>
        <time>2015-05-11T19:39:24.572Z</time>
      </trkpt>
      <trkpt lat="48.80118" lon="2.13411">
        <ele>176.2</ele>
        <time>2015-05-11T19:39:25.587Z</time>
      </trkpt>
      <trkpt lat="48.80121" lon="2.13402">
        <ele>176</ele>
        <time>2015-05-11T19:39:26.515Z</time>
      </trkpt>
      <trkpt lat="48.80124" lon="2.13393">
        <ele>176</ele>
        <time>2015-05-11T19:39:27.515Z</time>
      </trkpt>
      <trkpt lat="48.80127" lon="2.13383">
        <ele>176</ele>
        <time>2015-05-11T19:39:28.520Z</time>
      </trkpt>
      <trkpt lat="48.8013" lon="2.13374">
        <ele>176.2</ele>
        <time>2015-05-11T19:39:29.526Z</time>
      </trkpt>
      <trkpt lat="48.80132" lon="2.13364">
        <ele>176.1</ele>
        <time>2015-05-11T19:39:30.526Z</time>
      </trkpt>
      <trkpt lat="48.80135" lon="2.13355">
        <ele>176.2</ele>
        <time>2015-05-11T19:39:31.547Z</time>
      </trkpt>
      <trkpt lat="48.80137" lon="2.13345">
        <ele>176.4</ele>
        <time>2015-05-11T19:39:32.580Z</time>
      </trkpt>
      <trkpt lat="48.80139" lon="2.13335">
        <ele>176.7</ele>
        <time>2015-05-11T19:39:33.581Z</time>
      </trkpt>
      <trkpt lat="48.80141" lon="2.13325">
        <ele>176.7</ele>
        <time>2015-05-11T19:39:34.584Z</time>
      </trkpt>
      <trkpt lat="48.80144" lon="2.13316">
        <ele>176.6</ele>
        <time>2015-05-11T19:39:35.487Z</time>
      </trkpt>
      <trkpt lat="48.80147" lon="2.13306">
        <ele>176.8</ele>
        <time>2015-05-11T19:39:36.553Z</time>
      </trkpt>
      <trkpt lat="48.80149" lon="2.13297">
        <ele>176.8</ele>
        <time>2015-05-11T19:39:37.561Z</time>
      </trkpt>
      <trkpt lat="48.80152" lon="2.13287">
        <ele>176.6</ele>
        <time>2015-05-11T19:39:38.585Z</time>
      </trkpt>
      <trkpt lat="48.80155" lon="2.13277">
        <ele>176.7</ele>
        <time>2015-05-11T19:39:39.595Z</time>
      </trkpt>
      <trkpt lat="48.80157" lon="2.13267">
        <ele>176.6</ele>
        <time>2015-05-11T19:39:40.526Z</time>
      </trkpt>
      <trkpt lat="48.8016" lon="2.13257">
        <ele>176.6</ele>
        <time>2015-05-11T19:39:41.531Z</time>
      </trkpt>
      <trkpt lat="48.80162" lon="2.13247">
        <ele>176.9</ele>
        <time>2015-05-11T19:39:42.569Z</time>
      </trkpt>
      <trkpt lat="48.80165" lon="2.13238">
        <ele>176.8</ele>
        <time>2015-05-11T19:39:43.578Z</time>
      </trkpt>
      <trkpt lat="48.80168" lon="2.13229">
        <ele>176.6</ele>
        <time>2015-05-11T19:39:44.607Z</time>
      </trkpt>
      <trkpt lat="48.80171" lon="2.13219">
        <ele>176.7</ele>
        <time>2015-05-11T19:39:45.621Z</time>
      </trkpt>
      <trkpt lat="48.80174" lon="2.1321">
        <ele>176.4</ele>
        <time>2015-05-11T19:39:46.515Z</time>
      </trkpt>
      <trkpt lat="48.80178" lon="2.13202">
        <ele>176.1</ele>
        <time>2015-05-11T19:39:47.525Z</time>
      </trkpt>
      <trkpt lat="48.8018" lon="2.13192">
        <ele>176</ele>
        <time>2015-05-11T19:39:48.555Z</time>
      </trkpt>
      <trkpt lat="48.80183" lon="2.13183">
        <ele>175.7</ele>
        <time>2015-05-11T19:39:49.559Z</time>
      </trkpt>
      <trkpt lat="48.80185" lon="2.13173">
        <ele>176</ele>
        <time>2015-05-11T19:39:50.770Z</time>
      </trkpt>
      <trkpt lat="48.80188" lon="2.13163">
        <ele>176.3</ele>
        <time>2015-05-11T19:39:51.523Z</time>
      </trkpt>
      <trkpt lat="48.8019" lon="2.13153">
        <ele>176.9</ele>
        <time>2015-05-11T19:39:52.520Z</time>
      </trkpt>
      <trkpt lat="48.80193" lon="2.13143">
        <ele>176.9</ele>
        <time>2015-05-11T19:39:53.530Z</time>
      </trkpt>
      <trkpt lat="48.80195" lon="2.13133">
        <ele>176.9</ele>
        <time>2015-05-11T19:39:54.563Z</time>
      </trkpt>
      <trkpt lat="48.80197" lon="2.13123">
        <ele>177</ele>
        <time>2015-05-11T19:39:55.565Z</time>
      </trkpt>
      <trkpt lat="48.80199" lon="2.13113">
        <ele>176.9</ele>
        <time>2015-05-11T19:39:56.576Z</time>
      </trkpt>
      <trkpt lat="48.80201" lon="2.13104">
        <ele>176.5</ele>
        <time>2015-05-11T19:39:57.584Z</time>
      </trkpt>
      <trkpt lat="48.80203" lon="2.13095">
        <ele>176.5</ele>
        <time>2015-05-11T19:39:58.611Z</time>
      </trkpt>
      <trkpt lat="48.80205" lon="2.13086">
        <ele>176.5</ele>
        <time>2015-05-11T19:39:59.489Z</time>
      </trkpt>
      <trkpt lat="48.80207" lon="2.13077">
        <ele>176.5</ele>
        <time>2015-05-11T19:40:00.539Z</time>
      </trkpt>
      <trkpt lat="48.80209" lon="2.13069">
        <ele>176.7</ele>
        <time>2015-05-11T19:40:01.571Z</time>
      </trkpt>
      <trkpt lat="48.80211" lon="2.1306">
        <ele>176.8</ele>
        <time>2015-05-11T19:40:02.592Z</time>
      </trkpt>
      <trkpt lat="48.80213" lon="2.13051">
        <ele>176.8</ele>
        <time>2015-05-11T19:40:03.507Z</time>
      </trkpt>
      <trkpt lat="48.80215" lon="2.13042">
        <ele>176.9</ele>
        <time>2015-05-11T19:40:04.511Z</time>
      </trkpt>
      <trkpt lat="48.80217" lon="2.13033">
        <ele>177</ele>
        <time>2015-05-11T19:40:05.526Z</time>
      </trkpt>
      <trkpt lat="48.80221" lon="2.13025">
        <ele>176.7</ele>
        <time>2015-05-11T19:40:06.554Z</time>
      </trkpt>
      <trkpt lat="48.80224" lon="2.13016">
        <ele>176.5</ele>
        <time>2015-05-11T19:40:07.564Z</time>
      </trkpt>
      <trkpt lat="48.80226" lon="2.13007">
        <ele>176.5</ele>
        <time>2015-05-11T19:40:08.571Z</time>
      </trkpt>
      <trkpt lat="48.80229" lon="2.12998">
        <ele>176.6</ele>
        <time>2015-05-11T19:40:09.578Z</time>
      </trkpt>
      <trkpt lat="48.80231" lon="2.12988">
        <ele>176.7</ele>
        <time>2015-05-11T19:40:10.501Z</time>
      </trkpt>
      <trkpt lat="48.80234" lon="2.1298">
        <ele>176.2</ele>
        <time>2015-05-11T19:40:11.502Z</time>
      </trkpt>
      <trkpt lat="48.80237" lon="2.12971">
        <ele>175.8</ele>
        <time>2015-05-11T19:40:12.541Z</time>
      </trkpt>
      <trkpt lat="48.8024" lon="2.12961">
        <ele>175.5</ele>
        <time>2015-05-11T19:40:13.547Z</time>
      </trkpt>
      <trkpt lat="48.80243" lon="2.12952">
        <ele>175.2</ele>
        <time>2015-05-11T19:40:14.565Z</time>
      </trkpt>
      <trkpt lat="48.80245" lon="2.12942">
        <ele>175</ele>
        <time>2015-05-11T19:40:15.619Z</time>
      </trkpt>
      <trkpt lat="48.80247" lon="2.12931">
        <ele>175.4</ele>
        <time>2015-05-11T19:40:16.491Z</time>
      </trkpt>
      <trkpt lat="48.8025" lon="2.12921">
        <ele>175.4</ele>
        <time>2015-05-11T19:40:17.491Z</time>
      </trkpt>
      <trkpt lat="48.80254" lon="2.12911">
        <ele>175.3</ele>
        <time>2015-05-11T19:40:18.537Z</time>
      </trkpt>
      <trkpt lat="48.80257" lon="2.12901">
        <ele>175.2</ele>
        <time>2015-05-11T19:40:19.560Z</time>
      </trkpt>
      <trkpt lat="48.80259" lon="2.1289">
        <ele>175.2</ele>
        <time>2015-05-11T19:40:20.490Z</time>
      </trkpt>
      <trkpt lat="48.80261" lon="2.1288">
        <ele>174.9</ele>
        <time>2015-05-11T19:40:21.518Z</time>
      </trkpt>
      <trkpt lat="48.80264" lon="2.1287">
        <ele>174.6</ele>
        <time>2015-05-11T19:40:22.542Z</time>
      </trkpt>
      <trkpt lat="48.80267" lon="2.1286">
        <ele>174.5</ele>
        <time>2015-05-11T19:40:23.550Z</time>
      </trkpt>
      <trkpt lat="48.80271" lon="2.1285">
        <ele>174.3</ele>
        <time>2015-05-11T19:40:24.594Z</time>
      </trkpt>
      <trkpt lat="48.80274" lon="2.1284">
        <ele>174.3</ele>
        <time>2015-05-11T19:40:25.520Z</time>
      </trkpt>
      <trkpt lat="48.80276" lon="2.12829">
        <ele>174.3</ele>
        <time>2015-05-11T19:40:26.522Z</time>
      </trkpt>
      <trkpt lat="48.80279" lon="2.12819">
        <ele>174.3</ele>
        <time>2015-05-11T19:40:27.529Z</time>
      </trkpt>
      <trkpt lat="48.80281" lon="2.12808">
        <ele>174.5</ele>
        <time>2015-05-11T19:40:28.546Z</time>
      </trkpt>
      <trkpt lat="48.80283" lon="2.12798">
        <ele>174.6</ele>
        <time>2015-05-11T19:40:29.595Z</time>
      </trkpt>
      <trkpt lat="48.80285" lon="2.12788">
        <ele>174.5</ele>
        <time>2015-05-11T19:40:30.536Z</time>
      </trkpt>
      <trkpt lat="48.80287" lon="2.12779">
        <ele>174.4</ele>
        <time>2015-05-11T19:40:31.535Z</time>
      </trkpt>
      <trkpt lat="48.80289" lon="2.1277">
        <ele>174.3</ele>
        <time>2015-05-11T19:40:32.592Z</time>
      </trkpt>
      <trkpt lat="48.80291" lon="2.1276">
        <ele>174.6</ele>
        <time>2015-05-11T19:40:33.489Z</time>
      </trkpt>
      <trkpt lat="48.80292" lon="2.12751">
        <ele>174.8</ele>
        <time>2015-05-11T19:40:34.509Z</time>
      </trkpt>
      <trkpt lat="48.80294" lon="2.12741">
        <ele>175</ele>
        <time>2015-05-11T19:40:35.529Z</time>
      </trkpt>
      <trkpt lat="48.80296" lon="2.12733">
        <ele>174.9</ele>
        <time>2015-05-11T19:40:36.546Z</time>
      </trkpt>
      <trkpt lat="48.80298" lon="2.12725">
        <ele>175</ele>
        <time>2015-05-11T19:40:37.552Z</time>
      </trkpt>
      <trkpt lat="48.803" lon="2.12716">
        <ele>175.3</ele>
        <time>2015-05-11T19:40:38.568Z</time>
      </trkpt>
      <trkpt lat="48.80302" lon="2.12708">
        <ele>175.7</ele>
        <time>2015-05-11T19:40:39.577Z</time>
      </trkpt>
      <trkpt lat="48.80304" lon="2.12701">
        <ele>175.9</ele>
        <time>2015-05-11T19:40:40.583Z</time>
      </trkpt>
      <trkpt lat="48.80305" lon="2.12694">
        <ele>175.9</ele>
        <time>2015-05-11T19:40:41.594Z</time>
      </trkpt>
      <trkpt lat="48.80309" lon="2.12683">
        <ele>176</ele>
        <time>2015-05-11T19:40:43.497Z</time>
      </trkpt>
      <trkpt lat="48.80311" lon="2.12678">
        <ele>176.3</ele>
        <time>2015-05-11T19:40:44.589Z</time>
      </trkpt>
      <trkpt lat="48.80314" lon="2.12669">
        <ele>176.5</ele>
        <time>2015-05-11T19:40:46.535Z</time>
      </trkpt>
      <trkpt lat="48.80316" lon="2.12665">
        <ele>176.7</ele>
        <time>2015-05-11T19:40:47.596Z</time>
      </trkpt>
      <trkpt lat="48.80318" lon="2.12655">
        <ele>177.4</ele>
        <time>2015-05-11T19:40:49.547Z</time>
      </trkpt>
      <trkpt lat="48.80319" lon="2.1265">
        <ele>177.8</ele>
        <time>2015-05-11T19:40:50.670Z</time>
      </trkpt>
      <trkpt lat="48.80321" lon="2.12639">
        <ele>178.1</ele>
        <time>2015-05-11T19:40:53.587Z</time>
      </trkpt>
      <trkpt lat="48.80321" lon="2.12635">
        <ele>177.9</ele>
        <time>2015-05-11T19:40:54.634Z</time>
      </trkpt>
      <trkpt lat="48.80319" lon="2.12626">
        <ele>177.6</ele>
        <time>2015-05-11T19:40:57.591Z</time>
      </trkpt>
      <trkpt lat="48.80318" lon="2.12622">
        <ele>178.3</ele>
        <time>2015-05-11T19:40:58.557Z</time>
      </trkpt>
      <trkpt lat="48.80316" lon="2.12618">
        <ele>178.6</ele>
        <time>2015-05-11T19:41:33.520Z</time>
      </trkpt>
      <trkpt lat="48.80326" lon="2.12602">
        <ele>179.4</ele>
        <time>2015-05-11T19:41:34.549Z</time>
      </trkpt>
      <trkpt lat="48.80328" lon="2.1259">
        <ele>179.3</ele>
        <time>2015-05-11T19:53:12.556Z</time>
      </trkpt>
      <trkpt lat="48.80329" lon="2.12589">
        <ele>179.3</ele>
        <time>2015-05-11T19:53:13.509Z</time>
      </trkpt>
      <trkpt lat="48.80324" lon="2.12599">
        <ele>173.6</ele>
        <time>2015-05-11T19:53:47.484Z</time>
      </trkpt>
      <trkpt lat="48.80323" lon="2.126">
        <ele>173.3</ele>
        <time>2015-05-11T19:53:48.548Z</time>
      </trkpt>
      <trkpt lat="48.80322" lon="2.126">
        <ele>173.3</ele>
        <time>2015-05-11T19:55:33.544Z</time>
      </trkpt>
      <trkpt lat="48.8032" lon="2.12634">
        <ele>178.3</ele>
        <time>2015-05-11T19:55:34.548Z</time>
      </trkpt>
      <trkpt lat="48.80314" lon="2.12644">
        <ele>177.4</ele>
        <time>2015-05-11T19:55:37.463Z</time>
      </trkpt>
      <trkpt lat="48.80313" lon="2.12648">
        <ele>177.3</ele>
        <time>2015-05-11T19:55:38.524Z</time>
      </trkpt>
      <trkpt lat="48.8031" lon="2.12657">
        <ele>176.8</ele>
        <time>2015-05-11T19:55:40.554Z</time>
      </trkpt>
      <trkpt lat="48.80308" lon="2.12662">
        <ele>175.9</ele>
        <time>2015-05-11T19:55:41.584Z</time>
      </trkpt>
      <trkpt lat="48.80305" lon="2.12672">
        <ele>175</ele>
        <time>2015-05-11T19:55:43.766Z</time>
      </trkpt>
      <trkpt lat="48.80302" lon="2.12677">
        <ele>175.2</ele>
        <time>2015-05-11T19:55:44.475Z</time>
      </trkpt>
      <trkpt lat="48.80299" lon="2.12688">
        <ele>175.5</ele>
        <time>2015-05-11T19:55:47.518Z</time>
      </trkpt>
      <trkpt lat="48.80297" lon="2.12693">
        <ele>175.1</ele>
        <time>2015-05-11T19:55:47.562Z</time>
      </trkpt>
      <trkpt lat="48.80293" lon="2.12704">
        <ele>174.6</ele>
        <time>2015-05-11T19:55:49.521Z</time>
      </trkpt>
      <trkpt lat="48.80292" lon="2.1271">
        <ele>174.5</ele>
        <time>2015-05-11T19:55:50.562Z</time>
      </trkpt>
      <trkpt lat="48.80289" lon="2.12723">
        <ele>174.3</ele>
        <time>2015-05-11T19:55:52.578Z</time>
      </trkpt>
      <trkpt lat="48.80289" lon="2.12729">
        <ele>174.1</ele>
        <time>2015-05-11T19:55:53.569Z</time>
      </trkpt>
      <trkpt lat="48.80287" lon="2.12741">
        <ele>173.9</ele>
        <time>2015-05-11T19:55:55.520Z</time>
      </trkpt>
      <trkpt lat="48.80285" lon="2.12747">
        <ele>173.9</ele>
        <time>2015-05-11T19:55:56.500Z</time>
      </trkpt>
      <trkpt lat="48.80283" lon="2.12758">
        <ele>173.8</ele>
        <time>2015-05-11T19:55:58.523Z</time>
      </trkpt>
      <trkpt lat="48.80281" lon="2.12763">
        <ele>173.9</ele>
        <time>2015-05-11T19:55:59.560Z</time>
      </trkpt>
      <trkpt lat="48.80278" lon="2.12773">
        <ele>174</ele>
        <time>2015-05-11T19:56:01.482Z</time>
      </trkpt>
      <trkpt lat="48.80276" lon="2.12778">
        <ele>173.9</ele>
        <time>2015-05-11T19:56:02.509Z</time>
      </trkpt>
      <trkpt lat="48.80272" lon="2.1279">
        <ele>174</ele>
        <time>2015-05-11T19:56:04.479Z</time>
      </trkpt>
      <trkpt lat="48.80271" lon="2.12796">
        <ele>174.1</ele>
        <time>2015-05-11T19:56:05.597Z</time>
      </trkpt>
      <trkpt lat="48.80268" lon="2.12809">
        <ele>174.3</ele>
        <time>2015-05-11T19:56:07.999Z</time>
      </trkpt>
      <trkpt lat="48.80265" lon="2.12815">
        <ele>174.5</ele>
        <time>2015-05-11T19:56:08.554Z</time>
      </trkpt>
      <trkpt lat="48.80263" lon="2.12822">
        <ele>174.6</ele>
        <time>2015-05-11T19:56:09.558Z</time>
      </trkpt>
      <trkpt lat="48.80262" lon="2.12828">
        <ele>174.6</ele>
        <time>2015-05-11T19:56:10.627Z</time>
      </trkpt>
      <trkpt lat="48.8026" lon="2.12835">
        <ele>174.6</ele>
        <time>2015-05-11T19:56:11.560Z</time>
      </trkpt>
      <trkpt lat="48.80259" lon="2.12842">
        <ele>174.6</ele>
        <time>2015-05-11T19:56:12.571Z</time>
      </trkpt>
      <trkpt lat="48.80257" lon="2.12849">
        <ele>174.6</ele>
        <time>2015-05-11T19:56:13.592Z</time>
      </trkpt>
      <trkpt lat="48.80256" lon="2.12855">
        <ele>174.7</ele>
        <time>2015-05-11T19:56:14.595Z</time>
      </trkpt>
      <trkpt lat="48.80254" lon="2.12862">
        <ele>174.7</ele>
        <time>2015-05-11T19:56:15.496Z</time>
      </trkpt>
      <trkpt lat="48.80251" lon="2.12868">
        <ele>174.9</ele>
        <time>2015-05-11T19:56:16.505Z</time>
      </trkpt>
      <trkpt lat="48.80249" lon="2.12875">
        <ele>175.2</ele>
        <time>2015-05-11T19:56:18.178Z</time>
      </trkpt>
      <trkpt lat="48.80247" lon="2.12882">
        <ele>175.4</ele>
        <time>2015-05-11T19:56:18.541Z</time>
      </trkpt>
      <trkpt lat="48.80246" lon="2.12889">
        <ele>175.6</ele>
        <time>2015-05-11T19:56:19.569Z</time>
      </trkpt>
      <trkpt lat="48.80244" lon="2.12896">
        <ele>175.6</ele>
        <time>2015-05-11T19:56:20.473Z</time>
      </trkpt>
      <trkpt lat="48.80243" lon="2.12904">
        <ele>175.9</ele>
        <time>2015-05-11T19:56:21.526Z</time>
      </trkpt>
      <trkpt lat="48.80242" lon="2.12912">
        <ele>176.1</ele>
        <time>2015-05-11T19:56:22.520Z</time>
      </trkpt>
      <trkpt lat="48.8024" lon="2.12919">
        <ele>176.3</ele>
        <time>2015-05-11T19:56:23.545Z</time>
      </trkpt>
      <trkpt lat="48.80239" lon="2.12926">
        <ele>176.5</ele>
        <time>2015-05-11T19:56:24.567Z</time>
      </trkpt>
      <trkpt lat="48.80235" lon="2.12937">
        <ele>177.1</ele>
        <time>2015-05-11T19:56:26.616Z</time>
      </trkpt>
      <trkpt lat="48.80233" lon="2.12943">
        <ele>177.1</ele>
        <time>2015-05-11T19:56:27.509Z</time>
      </trkpt>
      <trkpt lat="48.80229" lon="2.12954">
        <ele>176.9</ele>
        <time>2015-05-11T19:56:29.580Z</time>
      </trkpt>
      <trkpt lat="48.80227" lon="2.1296">
        <ele>176.9</ele>
        <time>2015-05-11T19:56:30.708Z</time>
      </trkpt>
      <trkpt lat="48.80223" lon="2.12971">
        <ele>177.8</ele>
        <time>2015-05-11T19:56:32.635Z</time>
      </trkpt>
      <trkpt lat="48.80222" lon="2.12977">
        <ele>178.1</ele>
        <time>2015-05-11T19:56:33.502Z</time>
      </trkpt>
      <trkpt lat="48.80218" lon="2.12989">
        <ele>178.6</ele>
        <time>2015-05-11T19:56:35.512Z</time>
      </trkpt>
      <trkpt lat="48.80217" lon="2.12994">
        <ele>178.8</ele>
        <time>2015-05-11T19:56:36.607Z</time>
      </trkpt>
      <trkpt lat="48.80214" lon="2.13005">
        <ele>179</ele>
        <time>2015-05-11T19:56:38.525Z</time>
      </trkpt>
      <trkpt lat="48.80213" lon="2.13012">
        <ele>179.2</ele>
        <time>2015-05-11T19:56:39.541Z</time>
      </trkpt>
      <trkpt lat="48.80209" lon="2.13022">
        <ele>179.1</ele>
        <time>2015-05-11T19:56:41.666Z</time>
      </trkpt>
      <trkpt lat="48.80207" lon="2.13028">
        <ele>178.7</ele>
        <time>2015-05-11T19:56:42.599Z</time>
      </trkpt>
      <trkpt lat="48.80204" lon="2.13038">
        <ele>178.1</ele>
        <time>2015-05-11T19:56:44.524Z</time>
      </trkpt>
      <trkpt lat="48.80202" lon="2.13045">
        <ele>177.3</ele>
        <time>2015-05-11T19:56:45.540Z</time>
      </trkpt>
      <trkpt lat="48.80199" lon="2.13056">
        <ele>176.2</ele>
        <time>2015-05-11T19:56:47.677Z</time>
      </trkpt>
      <trkpt lat="48.80197" lon="2.13062">
        <ele>176.4</ele>
        <time>2015-05-11T19:56:48.597Z</time>
      </trkpt>
      <trkpt lat="48.80194" lon="2.13073">
        <ele>176.1</ele>
        <time>2015-05-11T19:56:50.538Z</time>
      </trkpt>
      <trkpt lat="48.80192" lon="2.1308">
        <ele>176.8</ele>
        <time>2015-05-11T19:56:51.551Z</time>
      </trkpt>
      <trkpt lat="48.80189" lon="2.13091">
        <ele>176.8</ele>
        <time>2015-05-11T19:56:53.543Z</time>
      </trkpt>
      <trkpt lat="48.80189" lon="2.13097">
        <ele>176.8</ele>
        <time>2015-05-11T19:56:54.617Z</time>
      </trkpt>
      <trkpt lat="48.80188" lon="2.13108">
        <ele>176.6</ele>
        <time>2015-05-11T19:56:56.501Z</time>
      </trkpt>
      <trkpt lat="48.80187" lon="2.13114">
        <ele>176.5</ele>
        <time>2015-05-11T19:56:57.513Z</time>
      </trkpt>
      <trkpt lat="48.80184" lon="2.13126">
        <ele>176</ele>
        <time>2015-05-11T19:56:59.546Z</time>
      </trkpt>
      <trkpt lat="48.80183" lon="2.13132">
        <ele>175.6</ele>
        <time>2015-05-11T19:57:00.573Z</time>
      </trkpt>
      <trkpt lat="48.8018" lon="2.13143">
        <ele>175.3</ele>
        <time>2015-05-11T19:57:02.509Z</time>
      </trkpt>
      <trkpt lat="48.80178" lon="2.13149">
        <ele>175</ele>
        <time>2015-05-11T19:57:03.512Z</time>
      </trkpt>
      <trkpt lat="48.80176" lon="2.13155">
        <ele>174.6</ele>
        <time>2015-05-11T19:57:04.551Z</time>
      </trkpt>
      <trkpt lat="48.80174" lon="2.13162">
        <ele>174.2</ele>
        <time>2015-05-11T19:57:05.560Z</time>
      </trkpt>
      <trkpt lat="48.80172" lon="2.13169">
        <ele>173.8</ele>
        <time>2015-05-11T19:57:06.585Z</time>
      </trkpt>
      <trkpt lat="48.80171" lon="2.13175">
        <ele>173.7</ele>
        <time>2015-05-11T19:57:07.541Z</time>
      </trkpt>
      <trkpt lat="48.80169" lon="2.13182">
        <ele>173.6</ele>
        <time>2015-05-11T19:57:08.590Z</time>
      </trkpt>
      <trkpt lat="48.80168" lon="2.13188">
        <ele>173.9</ele>
        <time>2015-05-11T19:57:09.537Z</time>
      </trkpt>
      <trkpt lat="48.80165" lon="2.13199">
        <ele>174.6</ele>
        <time>2015-05-11T19:57:11.473Z</time>
      </trkpt>
      <trkpt lat="48.80164" lon="2.13205">
        <ele>174.9</ele>
        <time>2015-05-11T19:57:12.510Z</time>
      </trkpt>
      <trkpt lat="48.80161" lon="2.13217">
        <ele>175</ele>
        <time>2015-05-11T19:57:14.527Z</time>
      </trkpt>
      <trkpt lat="48.80159" lon="2.13223">
        <ele>175</ele>
        <time>2015-05-11T19:57:15.566Z</time>
      </trkpt>
      <trkpt lat="48.80155" lon="2.13234">
        <ele>174.9</ele>
        <time>2015-05-11T19:57:17.480Z</time>
      </trkpt>
      <trkpt lat="48.80153" lon="2.1324">
        <ele>174.9</ele>
        <time>2015-05-11T19:57:18.518Z</time>
      </trkpt>
      <trkpt lat="48.80151" lon="2.13246">
        <ele>174.8</ele>
        <time>2015-05-11T19:57:19.646Z</time>
      </trkpt>
      <trkpt lat="48.8015" lon="2.13253">
        <ele>175.1</ele>
        <time>2015-05-11T19:57:20.512Z</time>
      </trkpt>
      <trkpt lat="48.80148" lon="2.1326">
        <ele>175.3</ele>
        <time>2015-05-11T19:57:21.533Z</time>
      </trkpt>
      <trkpt lat="48.80146" lon="2.13267">
        <ele>175.3</ele>
        <time>2015-05-11T19:57:22.558Z</time>
      </trkpt>
      <trkpt lat="48.80144" lon="2.13274">
        <ele>175.3</ele>
        <time>2015-05-11T19:57:23.582Z</time>
      </trkpt>
      <trkpt lat="48.80142" lon="2.13281">
        <ele>175.5</ele>
        <time>2015-05-11T19:57:24.596Z</time>
      </trkpt>
      <trkpt lat="48.8014" lon="2.13288">
        <ele>175.6</ele>
        <time>2015-05-11T19:57:25.504Z</time>
      </trkpt>
      <trkpt lat="48.80138" lon="2.13295">
        <ele>175.8</ele>
        <time>2015-05-11T19:57:26.534Z</time>
      </trkpt>
      <trkpt lat="48.80137" lon="2.13303">
        <ele>176.1</ele>
        <time>2015-05-11T19:57:27.563Z</time>
      </trkpt>
      <trkpt lat="48.80135" lon="2.1331">
        <ele>176</ele>
        <time>2015-05-11T19:57:28.571Z</time>
      </trkpt>
      <trkpt lat="48.80132" lon="2.13322">
        <ele>175.6</ele>
        <time>2015-05-11T19:57:30.598Z</time>
      </trkpt>
      <trkpt lat="48.8013" lon="2.13329">
        <ele>175.4</ele>
        <time>2015-05-11T19:57:31.527Z</time>
      </trkpt>
      <trkpt lat="48.80128" lon="2.13337">
        <ele>175.2</ele>
        <time>2015-05-11T19:57:32.556Z</time>
      </trkpt>
      <trkpt lat="48.80126" lon="2.13345">
        <ele>175.1</ele>
        <time>2015-05-11T19:57:33.562Z</time>
      </trkpt>
      <trkpt lat="48.80125" lon="2.13353">
        <ele>175.1</ele>
        <time>2015-05-11T19:57:34.578Z</time>
      </trkpt>
      <trkpt lat="48.80124" lon="2.1336">
        <ele>175.2</ele>
        <time>2015-05-11T19:57:35.586Z</time>
      </trkpt>
      <trkpt lat="48.80121" lon="2.13366">
        <ele>175.2</ele>
        <time>2015-05-11T19:57:36.596Z</time>
      </trkpt>
      <trkpt lat="48.80119" lon="2.13373">
        <ele>174.9</ele>
        <time>2015-05-11T19:57:37.495Z</time>
      </trkpt>
      <trkpt lat="48.80116" lon="2.1338">
        <ele>174.7</ele>
        <time>2015-05-11T19:57:38.509Z</time>
      </trkpt>
      <trkpt lat="48.80114" lon="2.13387">
        <ele>174.8</ele>
        <time>2015-05-11T19:57:39.540Z</time>
      </trkpt>
      <trkpt lat="48.80112" lon="2.13395">
        <ele>174.7</ele>
        <time>2015-05-11T19:57:40.542Z</time>
      </trkpt>
      <trkpt lat="48.80111" lon="2.13403">
        <ele>174.7</ele>
        <time>2015-05-11T19:57:41.561Z</time>
      </trkpt>
      <trkpt lat="48.80109" lon="2.13411">
        <ele>174.6</ele>
        <time>2015-05-11T19:57:42.571Z</time>
      </trkpt>
      <trkpt lat="48.80107" lon="2.1342">
        <ele>174.9</ele>
        <time>2015-05-11T19:57:43.614Z</time>
      </trkpt>
      <trkpt lat="48.80105" lon="2.13428">
        <ele>174.8</ele>
        <time>2015-05-11T19:57:44.503Z</time>
      </trkpt>
      <trkpt lat="48.80103" lon="2.13437">
        <ele>175</ele>
        <time>2015-05-11T19:57:45.496Z</time>
      </trkpt>
      <trkpt lat="48.80102" lon="2.13445">
        <ele>175</ele>
        <time>2015-05-11T19:57:46.509Z</time>
      </trkpt>
      <trkpt lat="48.801" lon="2.13454">
        <ele>175</ele>
        <time>2015-05-11T19:57:47.508Z</time>
      </trkpt>
      <trkpt lat="48.80098" lon="2.13461">
        <ele>175.1</ele>
        <time>2015-05-11T19:57:48.541Z</time>
      </trkpt>
      <trkpt lat="48.80095" lon="2.13469">
        <ele>175</ele>
        <time>2015-05-11T19:57:49.569Z</time>
      </trkpt>
      <trkpt lat="48.80094" lon="2.13478">
        <ele>174.9</ele>
        <time>2015-05-11T19:57:50.579Z</time>
      </trkpt>
      <trkpt lat="48.80092" lon="2.13486">
        <ele>175</ele>
        <time>2015-05-11T19:57:51.505Z</time>
      </trkpt>
      <trkpt lat="48.8009" lon="2.13494">
        <ele>175.1</ele>
        <time>2015-05-11T19:57:52.500Z</time>
      </trkpt>
      <trkpt lat="48.80087" lon="2.135">
        <ele>175</ele>
        <time>2015-05-11T19:57:53.506Z</time>
      </trkpt>
      <trkpt lat="48.80085" lon="2.13507">
        <ele>175</ele>
        <time>2015-05-11T19:57:54.544Z</time>
      </trkpt>
      <trkpt lat="48.80082" lon="2.13515">
        <ele>174.8</ele>
        <time>2015-05-11T19:57:55.551Z</time>
      </trkpt>
      <trkpt lat="48.8008" lon="2.13523">
        <ele>174.7</ele>
        <time>2015-05-11T19:57:56.494Z</time>
      </trkpt>
      <trkpt lat="48.80078" lon="2.13531">
        <ele>174.6</ele>
        <time>2015-05-11T19:57:57.508Z</time>
      </trkpt>
      <trkpt lat="48.80076" lon="2.13539">
        <ele>174.7</ele>
        <time>2015-05-11T19:57:58.501Z</time>
      </trkpt>
      <trkpt lat="48.80074" lon="2.13546">
        <ele>174.7</ele>
        <time>2015-05-11T19:57:59.513Z</time>
      </trkpt>
      <trkpt lat="48.80071" lon="2.13552">
        <ele>174.5</ele>
        <time>2015-05-11T19:58:00.520Z</time>
      </trkpt>
      <trkpt lat="48.80068" lon="2.13559">
        <ele>174.2</ele>
        <time>2015-05-11T19:58:01.537Z</time>
      </trkpt>
      <trkpt lat="48.80066" lon="2.13566">
        <ele>173.9</ele>
        <time>2015-05-11T19:58:02.498Z</time>
      </trkpt>
      <trkpt lat="48.80065" lon="2.13574">
        <ele>173.7</ele>
        <time>2015-05-11T19:58:03.498Z</time>
      </trkpt>
      <trkpt lat="48.80063" lon="2.13581">
        <ele>173.4</ele>
        <time>2015-05-11T19:58:04.519Z</time>
      </trkpt>
      <trkpt lat="48.80061" lon="2.13588">
        <ele>173.2</ele>
        <time>2015-05-11T19:58:05.534Z</time>
      </trkpt>
      <trkpt lat="48.8006" lon="2.13596">
        <ele>173.6</ele>
        <time>2015-05-11T19:58:06.546Z</time>
      </trkpt>
      <trkpt lat="48.80058" lon="2.13604">
        <ele>173.9</ele>
        <time>2015-05-11T19:58:07.553Z</time>
      </trkpt>
      <trkpt lat="48.80055" lon="2.13612">
        <ele>173.9</ele>
        <time>2015-05-11T19:58:08.561Z</time>
      </trkpt>
      <trkpt lat="48.80054" lon="2.1362">
        <ele>174</ele>
        <time>2015-05-11T19:58:09.573Z</time>
      </trkpt>
      <trkpt lat="48.80052" lon="2.13628">
        <ele>174.1</ele>
        <time>2015-05-11T19:58:10.497Z</time>
      </trkpt>
      <trkpt lat="48.8005" lon="2.13637">
        <ele>174.1</ele>
        <time>2015-05-11T19:58:11.503Z</time>
      </trkpt>
      <trkpt lat="48.80047" lon="2.13644">
        <ele>174.1</ele>
        <time>2015-05-11T19:58:12.558Z</time>
      </trkpt>
      <trkpt lat="48.80045" lon="2.13651">
        <ele>174.3</ele>
        <time>2015-05-11T19:58:13.502Z</time>
      </trkpt>
      <trkpt lat="48.80042" lon="2.13658">
        <ele>174.5</ele>
        <time>2015-05-11T19:58:14.527Z</time>
      </trkpt>
      <trkpt lat="48.8004" lon="2.13666">
        <ele>174.4</ele>
        <time>2015-05-11T19:58:15.534Z</time>
      </trkpt>
      <trkpt lat="48.80038" lon="2.13675">
        <ele>174.1</ele>
        <time>2015-05-11T19:58:16.563Z</time>
      </trkpt>
      <trkpt lat="48.80036" lon="2.13683">
        <ele>174.1</ele>
        <time>2015-05-11T19:58:17.583Z</time>
      </trkpt>
      <trkpt lat="48.80033" lon="2.1369">
        <ele>174</ele>
        <time>2015-05-11T19:58:18.601Z</time>
      </trkpt>
      <trkpt lat="48.80031" lon="2.13698">
        <ele>173.9</ele>
        <time>2015-05-11T19:58:19.480Z</time>
      </trkpt>
      <trkpt lat="48.80029" lon="2.13705">
        <ele>173.7</ele>
        <time>2015-05-11T19:58:20.501Z</time>
      </trkpt>
      <trkpt lat="48.80026" lon="2.13713">
        <ele>173.3</ele>
        <time>2015-05-11T19:58:21.508Z</time>
      </trkpt>
      <trkpt lat="48.80024" lon="2.1372">
        <ele>173.1</ele>
        <time>2015-05-11T19:58:22.523Z</time>
      </trkpt>
      <trkpt lat="48.80022" lon="2.13728">
        <ele>173</ele>
        <time>2015-05-11T19:58:23.530Z</time>
      </trkpt>
      <trkpt lat="48.8002" lon="2.13736">
        <ele>173.1</ele>
        <time>2015-05-11T19:58:24.555Z</time>
      </trkpt>
      <trkpt lat="48.80018" lon="2.13744">
        <ele>173.2</ele>
        <time>2015-05-11T19:58:25.566Z</time>
      </trkpt>
      <trkpt lat="48.80016" lon="2.13751">
        <ele>173.5</ele>
        <time>2015-05-11T19:58:26.580Z</time>
      </trkpt>
      <trkpt lat="48.80014" lon="2.13759">
        <ele>173.4</ele>
        <time>2015-05-11T19:58:27.501Z</time>
      </trkpt>
      <trkpt lat="48.80012" lon="2.13768">
        <ele>173.5</ele>
        <time>2015-05-11T19:58:28.509Z</time>
      </trkpt>
      <trkpt lat="48.8001" lon="2.13777">
        <ele>173.8</ele>
        <time>2015-05-11T19:58:29.511Z</time>
      </trkpt>
      <trkpt lat="48.80008" lon="2.13785">
        <ele>173.8</ele>
        <time>2015-05-11T19:58:30.544Z</time>
      </trkpt>
      <trkpt lat="48.80006" lon="2.13793">
        <ele>173.8</ele>
        <time>2015-05-11T19:58:31.568Z</time>
      </trkpt>
      <trkpt lat="48.80004" lon="2.138">
        <ele>173.9</ele>
        <time>2015-05-11T19:58:32.605Z</time>
      </trkpt>
      <trkpt lat="48.80001" lon="2.13808">
        <ele>174.1</ele>
        <time>2015-05-11T19:58:33.497Z</time>
      </trkpt>
      <trkpt lat="48.8" lon="2.13815">
        <ele>174.1</ele>
        <time>2015-05-11T19:58:34.502Z</time>
      </trkpt>
      <trkpt lat="48.79997" lon="2.13822">
        <ele>174</ele>
        <time>2015-05-11T19:58:35.509Z</time>
      </trkpt>
      <trkpt lat="48.79995" lon="2.13829">
        <ele>173.9</ele>
        <time>2015-05-11T19:58:36.539Z</time>
      </trkpt>
      <trkpt lat="48.79994" lon="2.13837">
        <ele>173.7</ele>
        <time>2015-05-11T19:58:37.549Z</time>
      </trkpt>
      <trkpt lat="48.79993" lon="2.13844">
        <ele>173.8</ele>
        <time>2015-05-11T19:58:38.480Z</time>
      </trkpt>
      <trkpt lat="48.79991" lon="2.13851">
        <ele>173.6</ele>
        <time>2015-05-11T19:58:39.498Z</time>
      </trkpt>
      <trkpt lat="48.79989" lon="2.13859">
        <ele>173.2</ele>
        <time>2015-05-11T19:58:40.592Z</time>
      </trkpt>
      <trkpt lat="48.79987" lon="2.13866">
        <ele>172.8</ele>
        <time>2015-05-11T19:58:41.473Z</time>
      </trkpt>
      <trkpt lat="48.79985" lon="2.13874">
        <ele>172.4</ele>
        <time>2015-05-11T19:58:42.538Z</time>
      </trkpt>
      <trkpt lat="48.79983" lon="2.13881">
        <ele>172.1</ele>
        <time>2015-05-11T19:58:43.544Z</time>
      </trkpt>
      <trkpt lat="48.79981" lon="2.13888">
        <ele>172</ele>
        <time>2015-05-11T19:58:44.547Z</time>
      </trkpt>
      <trkpt lat="48.79979" lon="2.13894">
        <ele>172.1</ele>
        <time>2015-05-11T19:58:45.558Z</time>
      </trkpt>
      <trkpt lat="48.79977" lon="2.13901">
        <ele>172.1</ele>
        <time>2015-05-11T19:58:46.597Z</time>
      </trkpt>
      <trkpt lat="48.79975" lon="2.13909">
        <ele>172.5</ele>
        <time>2015-05-11T19:58:47.502Z</time>
      </trkpt>
      <trkpt lat="48.79973" lon="2.13917">
        <ele>172.7</ele>
        <time>2015-05-11T19:58:48.534Z</time>
      </trkpt>
      <trkpt lat="48.79971" lon="2.13925">
        <ele>172.6</ele>
        <time>2015-05-11T19:58:49.537Z</time>
      </trkpt>
      <trkpt lat="48.7997" lon="2.13933">
        <ele>172.4</ele>
        <time>2015-05-11T19:58:50.562Z</time>
      </trkpt>
      <trkpt lat="48.79968" lon="2.1394">
        <ele>172.3</ele>
        <time>2015-05-11T19:58:51.566Z</time>
      </trkpt>
      <trkpt lat="48.79966" lon="2.13948">
        <ele>172.1</ele>
        <time>2015-05-11T19:58:52.504Z</time>
      </trkpt>
      <trkpt lat="48.79964" lon="2.13956">
        <ele>172.1</ele>
        <time>2015-05-11T19:58:53.484Z</time>
      </trkpt>
      <trkpt lat="48.79962" lon="2.13963">
        <ele>171.9</ele>
        <time>2015-05-11T19:58:54.538Z</time>
      </trkpt>
      <trkpt lat="48.79959" lon="2.13971">
        <ele>171.8</ele>
        <time>2015-05-11T19:58:55.528Z</time>
      </trkpt>
      <trkpt lat="48.79957" lon="2.13978">
        <ele>171.7</ele>
        <time>2015-05-11T19:58:56.536Z</time>
      </trkpt>
      <trkpt lat="48.79954" lon="2.13986">
        <ele>171.8</ele>
        <time>2015-05-11T19:58:57.548Z</time>
      </trkpt>
      <trkpt lat="48.79952" lon="2.13994">
        <ele>171.7</ele>
        <time>2015-05-11T19:58:58.554Z</time>
      </trkpt>
      <trkpt lat="48.79949" lon="2.14004">
        <ele>171.9</ele>
        <time>2015-05-11T19:58:59.560Z</time>
      </trkpt>
      <trkpt lat="48.79947" lon="2.14012">
        <ele>172.3</ele>
        <time>2015-05-11T19:59:00.580Z</time>
      </trkpt>
      <trkpt lat="48.79945" lon="2.14021">
        <ele>172.6</ele>
        <time>2015-05-11T19:59:01.586Z</time>
      </trkpt>
      <trkpt lat="48.79942" lon="2.14029">
        <ele>172.7</ele>
        <time>2015-05-11T19:59:02.496Z</time>
      </trkpt>
      <trkpt lat="48.79939" lon="2.14038">
        <ele>172.9</ele>
        <time>2015-05-11T19:59:03.500Z</time>
      </trkpt>
      <trkpt lat="48.79937" lon="2.14047">
        <ele>173</ele>
        <time>2015-05-11T19:59:04.498Z</time>
      </trkpt>
      <trkpt lat="48.79934" lon="2.14056">
        <ele>173.3</ele>
        <time>2015-05-11T19:59:05.507Z</time>
      </trkpt>
      <trkpt lat="48.79932" lon="2.14065">
        <ele>173.6</ele>
        <time>2015-05-11T19:59:06.539Z</time>
      </trkpt>
      <trkpt lat="48.79929" lon="2.14074">
        <ele>174</ele>
        <time>2015-05-11T19:59:07.551Z</time>
      </trkpt>
      <trkpt lat="48.79927" lon="2.14083">
        <ele>174.1</ele>
        <time>2015-05-11T19:59:08.564Z</time>
      </trkpt>
      <trkpt lat="48.79924" lon="2.14092">
        <ele>174.1</ele>
        <time>2015-05-11T19:59:09.574Z</time>
      </trkpt>
      <trkpt lat="48.79921" lon="2.14102">
        <ele>174.4</ele>
        <time>2015-05-11T19:59:10.584Z</time>
      </trkpt>
      <trkpt lat="48.79919" lon="2.14112">
        <ele>174.6</ele>
        <time>2015-05-11T19:59:11.592Z</time>
      </trkpt>
      <trkpt lat="48.79916" lon="2.14123">
        <ele>174.5</ele>
        <time>2015-05-11T19:59:12.563Z</time>
      </trkpt>
      <trkpt lat="48.79914" lon="2.14134">
        <ele>174.3</ele>
        <time>2015-05-11T19:59:13.515Z</time>
      </trkpt>
      <trkpt lat="48.79912" lon="2.14145">
        <ele>174</ele>
        <time>2015-05-11T19:59:14.535Z</time>
      </trkpt>
      <trkpt lat="48.7991" lon="2.14155">
        <ele>173.6</ele>
        <time>2015-05-11T19:59:15.582Z</time>
      </trkpt>
      <trkpt lat="48.79907" lon="2.14165">
        <ele>173.1</ele>
        <time>2015-05-11T19:59:16.510Z</time>
      </trkpt>
      <trkpt lat="48.79905" lon="2.14176">
        <ele>172.7</ele>
        <time>2015-05-11T19:59:17.518Z</time>
      </trkpt>
      <trkpt lat="48.79903" lon="2.14187">
        <ele>172.5</ele>
        <time>2015-05-11T19:59:18.566Z</time>
      </trkpt>
      <trkpt lat="48.79899" lon="2.14197">
        <ele>172.3</ele>
        <time>2015-05-11T19:59:19.583Z</time>
      </trkpt>
      <trkpt lat="48.79897" lon="2.14207">
        <ele>172.3</ele>
        <time>2015-05-11T19:59:20.483Z</time>
      </trkpt>
      <trkpt lat="48.79895" lon="2.14217">
        <ele>172.1</ele>
        <time>2015-05-11T19:59:21.490Z</time>
      </trkpt>
      <trkpt lat="48.79892" lon="2.14226">
        <ele>171.8</ele>
        <time>2015-05-11T19:59:22.501Z</time>
      </trkpt>
      <trkpt lat="48.7989" lon="2.14236">
        <ele>171.5</ele>
        <time>2015-05-11T19:59:23.511Z</time>
      </trkpt>
      <trkpt lat="48.79886" lon="2.14246">
        <ele>171.4</ele>
        <time>2015-05-11T19:59:24.532Z</time>
      </trkpt>
      <trkpt lat="48.79883" lon="2.14256">
        <ele>171.2</ele>
        <time>2015-05-11T19:59:25.534Z</time>
      </trkpt>
      <trkpt lat="48.7988" lon="2.14266">
        <ele>171</ele>
        <time>2015-05-11T19:59:26.541Z</time>
      </trkpt>
      <trkpt lat="48.79877" lon="2.14276">
        <ele>170.7</ele>
        <time>2015-05-11T19:59:27.556Z</time>
      </trkpt>
      <trkpt lat="48.79875" lon="2.14286">
        <ele>170.4</ele>
        <time>2015-05-11T19:59:28.486Z</time>
      </trkpt>
      <trkpt lat="48.79873" lon="2.14296">
        <ele>170</ele>
        <time>2015-05-11T19:59:29.482Z</time>
      </trkpt>
      <trkpt lat="48.79871" lon="2.14307">
        <ele>169.7</ele>
        <time>2015-05-11T19:59:30.545Z</time>
      </trkpt>
      <trkpt lat="48.79869" lon="2.14318">
        <ele>169.5</ele>
        <time>2015-05-11T19:59:31.549Z</time>
      </trkpt>
      <trkpt lat="48.79866" lon="2.14328">
        <ele>169.1</ele>
        <time>2015-05-11T19:59:32.557Z</time>
      </trkpt>
      <trkpt lat="48.79863" lon="2.14337">
        <ele>169</ele>
        <time>2015-05-11T19:59:33.559Z</time>
      </trkpt>
      <trkpt lat="48.7986" lon="2.14345">
        <ele>168.7</ele>
        <time>2015-05-11T19:59:34.567Z</time>
      </trkpt>
      <trkpt lat="48.79857" lon="2.14354">
        <ele>168.6</ele>
        <time>2015-05-11T19:59:35.486Z</time>
      </trkpt>
      <trkpt lat="48.79853" lon="2.14363">
        <ele>168.3</ele>
        <time>2015-05-11T19:59:36.596Z</time>
      </trkpt>
      <trkpt lat="48.7985" lon="2.14372">
        <ele>167.9</ele>
        <time>2015-05-11T19:59:37.480Z</time>
      </trkpt>
      <trkpt lat="48.79846" lon="2.14381">
        <ele>168.1</ele>
        <time>2015-05-11T19:59:38.490Z</time>
      </trkpt>
      <trkpt lat="48.79842" lon="2.14391">
        <ele>168</ele>
        <time>2015-05-11T19:59:39.489Z</time>
      </trkpt>
      <trkpt lat="48.7984" lon="2.14401">
        <ele>167.8</ele>
        <time>2015-05-11T19:59:40.517Z</time>
      </trkpt>
      <trkpt lat="48.79837" lon="2.14411">
        <ele>167.6</ele>
        <time>2015-05-11T19:59:41.532Z</time>
      </trkpt>
      <trkpt lat="48.79835" lon="2.14421">
        <ele>167.5</ele>
        <time>2015-05-11T19:59:42.543Z</time>
      </trkpt>
      <trkpt lat="48.79833" lon="2.14431">
        <ele>167.2</ele>
        <time>2015-05-11T19:59:43.547Z</time>
      </trkpt>
      <trkpt lat="48.79831" lon="2.1444">
        <ele>167.7</ele>
        <time>2015-05-11T19:59:44.457Z</time>
      </trkpt>
      <trkpt lat="48.79829" lon="2.14449">
        <ele>168.1</ele>
        <time>2015-05-11T19:59:45.567Z</time>
      </trkpt>
      <trkpt lat="48.79827" lon="2.14458">
        <ele>168.6</ele>
        <time>2015-05-11T19:59:46.486Z</time>
      </trkpt>
      <trkpt lat="48.79825" lon="2.14467">
        <ele>169.2</ele>
        <time>2015-05-11T19:59:47.496Z</time>
      </trkpt>
      <trkpt lat="48.79823" lon="2.14475">
        <ele>169.6</ele>
        <time>2015-05-11T19:59:48.620Z</time>
      </trkpt>
      <trkpt lat="48.79821" lon="2.14484">
        <ele>170</ele>
        <time>2015-05-11T19:59:49.495Z</time>
      </trkpt>
      <trkpt lat="48.79819" lon="2.14494">
        <ele>170.4</ele>
        <time>2015-05-11T19:59:50.504Z</time>
      </trkpt>
      <trkpt lat="48.79818" lon="2.14504">
        <ele>170.9</ele>
        <time>2015-05-11T19:59:51.510Z</time>
      </trkpt>
      <trkpt lat="48.79817" lon="2.14515">
        <ele>171</ele>
        <time>2015-05-11T19:59:52.518Z</time>
      </trkpt>
      <trkpt lat="48.79817" lon="2.14524">
        <ele>170.9</ele>
        <time>2015-05-11T19:59:53.528Z</time>
      </trkpt>
      <trkpt lat="48.79816" lon="2.14532">
        <ele>171.9</ele>
        <time>2015-05-11T19:59:54.543Z</time>
      </trkpt>
      <trkpt lat="48.79816" lon="2.14541">
        <ele>172.6</ele>
        <time>2015-05-11T19:59:55.554Z</time>
      </trkpt>
      <trkpt lat="48.79817" lon="2.14548">
        <ele>172.6</ele>
        <time>2015-05-11T19:59:56.563Z</time>
      </trkpt>
      <trkpt lat="48.79817" lon="2.14556">
        <ele>172.9</ele>
        <time>2015-05-11T19:59:57.577Z</time>
      </trkpt>
      <trkpt lat="48.79818" lon="2.14565">
        <ele>172.5</ele>
        <time>2015-05-11T19:59:58.508Z</time>
      </trkpt>
      <trkpt lat="48.79819" lon="2.14572">
        <ele>171.9</ele>
        <time>2015-05-11T19:59:59.503Z</time>
      </trkpt>
      <trkpt lat="48.7982" lon="2.1458">
        <ele>171.8</ele>
        <time>2015-05-11T20:00:00.618Z</time>
      </trkpt>
      <trkpt lat="48.79822" lon="2.14588">
        <ele>171.6</ele>
        <time>2015-05-11T20:00:01.479Z</time>
      </trkpt>
      <trkpt lat="48.79822" lon="2.14597">
        <ele>171.1</ele>
        <time>2015-05-11T20:00:02.516Z</time>
      </trkpt>
      <trkpt lat="48.79821" lon="2.14605">
        <ele>171.1</ele>
        <time>2015-05-11T20:00:03.527Z</time>
      </trkpt>
      <trkpt lat="48.79821" lon="2.14614">
        <ele>171.5</ele>
        <time>2015-05-11T20:00:04.539Z</time>
      </trkpt>
      <trkpt lat="48.79822" lon="2.14622">
        <ele>171.6</ele>
        <time>2015-05-11T20:00:05.547Z</time>
      </trkpt>
      <trkpt lat="48.79823" lon="2.14631">
        <ele>171.4</ele>
        <time>2015-05-11T20:00:06.560Z</time>
      </trkpt>
      <trkpt lat="48.79823" lon="2.1464">
        <ele>171.3</ele>
        <time>2015-05-11T20:00:07.564Z</time>
      </trkpt>
      <trkpt lat="48.79823" lon="2.1465">
        <ele>171.8</ele>
        <time>2015-05-11T20:00:08.573Z</time>
      </trkpt>
      <trkpt lat="48.79824" lon="2.14659">
        <ele>172.2</ele>
        <time>2015-05-11T20:00:09.586Z</time>
      </trkpt>
      <trkpt lat="48.79823" lon="2.14669">
        <ele>172.6</ele>
        <time>2015-05-11T20:00:10.495Z</time>
      </trkpt>
      <trkpt lat="48.79822" lon="2.14679">
        <ele>172.4</ele>
        <time>2015-05-11T20:00:11.494Z</time>
      </trkpt>
      <trkpt lat="48.7982" lon="2.14689">
        <ele>172.3</ele>
        <time>2015-05-11T20:00:12.554Z</time>
      </trkpt>
      <trkpt lat="48.79819" lon="2.14699">
        <ele>172.5</ele>
        <time>2015-05-11T20:00:13.561Z</time>
      </trkpt>
      <trkpt lat="48.79818" lon="2.14708">
        <ele>172.2</ele>
        <time>2015-05-11T20:00:14.578Z</time>
      </trkpt>
      <trkpt lat="48.79819" lon="2.14718">
        <ele>172.1</ele>
        <time>2015-05-11T20:00:15.586Z</time>
      </trkpt>
      <trkpt lat="48.79819" lon="2.14728">
        <ele>172.2</ele>
        <time>2015-05-11T20:00:16.590Z</time>
      </trkpt>
      <trkpt lat="48.79818" lon="2.14737">
        <ele>171.8</ele>
        <time>2015-05-11T20:00:17.498Z</time>
      </trkpt>
      <trkpt lat="48.79819" lon="2.14747">
        <ele>172.2</ele>
        <time>2015-05-11T20:00:18.538Z</time>
      </trkpt>
      <trkpt lat="48.7982" lon="2.14757">
        <ele>172.2</ele>
        <time>2015-05-11T20:00:19.535Z</time>
      </trkpt>
      <trkpt lat="48.7982" lon="2.14765">
        <ele>172.2</ele>
        <time>2015-05-11T20:00:20.563Z</time>
      </trkpt>
      <trkpt lat="48.79821" lon="2.14774">
        <ele>172</ele>
        <time>2015-05-11T20:00:21.576Z</time>
      </trkpt>
      <trkpt lat="48.79821" lon="2.14783">
        <ele>172.1</ele>
        <time>2015-05-11T20:00:22.498Z</time>
      </trkpt>
      <trkpt lat="48.79821" lon="2.14792">
        <ele>171.8</ele>
        <time>2015-05-11T20:00:23.483Z</time>
      </trkpt>
      <trkpt lat="48.79822" lon="2.14801">
        <ele>172</ele>
        <time>2015-05-11T20:00:24.539Z</time>
      </trkpt>
      <trkpt lat="48.79822" lon="2.14811">
        <ele>171.9</ele>
        <time>2015-05-11T20:00:25.553Z</time>
      </trkpt>
      <trkpt lat="48.79823" lon="2.1482">
        <ele>171.8</ele>
        <time>2015-05-11T20:00:26.575Z</time>
      </trkpt>
      <trkpt lat="48.79823" lon="2.14829">
        <ele>171.8</ele>
        <time>2015-05-11T20:00:27.578Z</time>
      </trkpt>
      <trkpt lat="48.79824" lon="2.14839">
        <ele>171.9</ele>
        <time>2015-05-11T20:00:28.481Z</time>
      </trkpt>
      <trkpt lat="48.79824" lon="2.14849">
        <ele>171.8</ele>
        <time>2015-05-11T20:00:29.498Z</time>
      </trkpt>
      <trkpt lat="48.79825" lon="2.14859">
        <ele>171.8</ele>
        <time>2015-05-11T20:00:30.537Z</time>
      </trkpt>
      <trkpt lat="48.79825" lon="2.1487">
        <ele>172.1</ele>
        <time>2015-05-11T20:00:31.535Z</time>
      </trkpt>
      <trkpt lat="48.79825" lon="2.1488">
        <ele>172.1</ele>
        <time>2015-05-11T20:00:32.548Z</time>
      </trkpt>
      <trkpt lat="48.79825" lon="2.14892">
        <ele>172.2</ele>
        <time>2015-05-11T20:00:33.557Z</time>
      </trkpt>
      <trkpt lat="48.79824" lon="2.14903">
        <ele>172.4</ele>
        <time>2015-05-11T20:00:34.476Z</time>
      </trkpt>
      <trkpt lat="48.79824" lon="2.14914">
        <ele>172.6</ele>
        <time>2015-05-11T20:00:35.492Z</time>
      </trkpt>
      <trkpt lat="48.79824" lon="2.14925">
        <ele>173</ele>
        <time>2015-05-11T20:00:36.538Z</time>
      </trkpt>
      <trkpt lat="48.79825" lon="2.14935">
        <ele>172.8</ele>
        <time>2015-05-11T20:00:37.543Z</time>
      </trkpt>
      <trkpt lat="48.79825" lon="2.14945">
        <ele>172.8</ele>
        <time>2015-05-11T20:00:38.548Z</time>
      </trkpt>
      <trkpt lat="48.79826" lon="2.14955">
        <ele>172.6</ele>
        <time>2015-05-11T20:00:39.563Z</time>
      </trkpt>
      <trkpt lat="48.79825" lon="2.14966">
        <ele>172.3</ele>
        <time>2015-05-11T20:00:40.575Z</time>
      </trkpt>
      <trkpt lat="48.79825" lon="2.14977">
        <ele>172.2</ele>
        <time>2015-05-11T20:00:41.499Z</time>
      </trkpt>
      <trkpt lat="48.79825" lon="2.14986">
        <ele>172.4</ele>
        <time>2015-05-11T20:00:42.595Z</time>
      </trkpt>
      <trkpt lat="48.79826" lon="2.14996">
        <ele>172.5</ele>
        <time>2015-05-11T20:00:43.491Z</time>
      </trkpt>
      <trkpt lat="48.79825" lon="2.15006">
        <ele>172.3</ele>
        <time>2015-05-11T20:00:44.497Z</time>
      </trkpt>
      <trkpt lat="48.79825" lon="2.15017">
        <ele>172.6</ele>
        <time>2015-05-11T20:00:45.505Z</time>
      </trkpt>
      <trkpt lat="48.79825" lon="2.15027">
        <ele>172.5</ele>
        <time>2015-05-11T20:00:46.526Z</time>
      </trkpt>
      <trkpt lat="48.79827" lon="2.15037">
        <ele>172.2</ele>
        <time>2015-05-11T20:00:47.553Z</time>
      </trkpt>
      <trkpt lat="48.79827" lon="2.15047">
        <ele>171.7</ele>
        <time>2015-05-11T20:00:48.572Z</time>
      </trkpt>
      <trkpt lat="48.79829" lon="2.15056">
        <ele>171.4</ele>
        <time>2015-05-11T20:00:49.500Z</time>
      </trkpt>
      <trkpt lat="48.79829" lon="2.15066">
        <ele>171</ele>
        <time>2015-05-11T20:00:50.500Z</time>
      </trkpt>
      <trkpt lat="48.79831" lon="2.15076">
        <ele>170.6</ele>
        <time>2015-05-11T20:00:51.514Z</time>
      </trkpt>
      <trkpt lat="48.79833" lon="2.15086">
        <ele>170.3</ele>
        <time>2015-05-11T20:00:52.523Z</time>
      </trkpt>
      <trkpt lat="48.79834" lon="2.15095">
        <ele>169.9</ele>
        <time>2015-05-11T20:00:53.551Z</time>
      </trkpt>
      <trkpt lat="48.79835" lon="2.15104">
        <ele>169.7</ele>
        <time>2015-05-11T20:00:54.556Z</time>
      </trkpt>
      <trkpt lat="48.79837" lon="2.15114">
        <ele>169.5</ele>
        <time>2015-05-11T20:00:55.562Z</time>
      </trkpt>
      <trkpt lat="48.79838" lon="2.15124">
        <ele>169.4</ele>
        <time>2015-05-11T20:00:56.573Z</time>
      </trkpt>
      <trkpt lat="48.7984" lon="2.15134">
        <ele>169.4</ele>
        <time>2015-05-11T20:00:57.575Z</time>
      </trkpt>
      <trkpt lat="48.79841" lon="2.15143">
        <ele>169.4</ele>
        <time>2015-05-11T20:00:58.494Z</time>
      </trkpt>
      <trkpt lat="48.79842" lon="2.15153">
        <ele>169.7</ele>
        <time>2015-05-11T20:00:59.503Z</time>
      </trkpt>
      <trkpt lat="48.79842" lon="2.15162">
        <ele>170.2</ele>
        <time>2015-05-11T20:01:00.512Z</time>
      </trkpt>
      <trkpt lat="48.79842" lon="2.15172">
        <ele>170.7</ele>
        <time>2015-05-11T20:01:01.535Z</time>
      </trkpt>
      <trkpt lat="48.79842" lon="2.15181">
        <ele>170.9</ele>
        <time>2015-05-11T20:01:02.543Z</time>
      </trkpt>
      <trkpt lat="48.79843" lon="2.15189">
        <ele>171.4</ele>
        <time>2015-05-11T20:01:03.552Z</time>
      </trkpt>
      <trkpt lat="48.79844" lon="2.15197">
        <ele>171.6</ele>
        <time>2015-05-11T20:01:04.564Z</time>
      </trkpt>
      <trkpt lat="48.79844" lon="2.15207">
        <ele>171</ele>
        <time>2015-05-11T20:01:05.558Z</time>
      </trkpt>
      <trkpt lat="48.79842" lon="2.15216">
        <ele>171.2</ele>
        <time>2015-05-11T20:01:06.582Z</time>
      </trkpt>
      <trkpt lat="48.7984" lon="2.15226">
        <ele>171.1</ele>
        <time>2015-05-11T20:01:07.512Z</time>
      </trkpt>
      <trkpt lat="48.7984" lon="2.15235">
        <ele>170.8</ele>
        <time>2015-05-11T20:01:08.506Z</time>
      </trkpt>
      <trkpt lat="48.79839" lon="2.15244">
        <ele>170.6</ele>
        <time>2015-05-11T20:01:09.503Z</time>
      </trkpt>
      <trkpt lat="48.79838" lon="2.15253">
        <ele>170.5</ele>
        <time>2015-05-11T20:01:10.505Z</time>
      </trkpt>
      <trkpt lat="48.79838" lon="2.15262">
        <ele>170.5</ele>
        <time>2015-05-11T20:01:11.510Z</time>
      </trkpt>
      <trkpt lat="48.79838" lon="2.1527">
        <ele>170.4</ele>
        <time>2015-05-11T20:01:12.539Z</time>
      </trkpt>
      <trkpt lat="48.79838" lon="2.15277">
        <ele>170.2</ele>
        <time>2015-05-11T20:01:13.572Z</time>
      </trkpt>
      <trkpt lat="48.79837" lon="2.15284">
        <ele>170.2</ele>
        <time>2015-05-11T20:01:14.498Z</time>
      </trkpt>
      <trkpt lat="48.79837" lon="2.15292">
        <ele>170.3</ele>
        <time>2015-05-11T20:01:15.508Z</time>
      </trkpt>
      <trkpt lat="48.79837" lon="2.153">
        <ele>170.5</ele>
        <time>2015-05-11T20:01:16.511Z</time>
      </trkpt>
      <trkpt lat="48.79839" lon="2.15307">
        <ele>170.4</ele>
        <time>2015-05-11T20:01:17.515Z</time>
      </trkpt>
      <trkpt lat="48.79841" lon="2.15315">
        <ele>169.8</ele>
        <time>2015-05-11T20:01:18.546Z</time>
      </trkpt>
      <trkpt lat="48.79842" lon="2.15323">
        <ele>169.2</ele>
        <time>2015-05-11T20:01:19.557Z</time>
      </trkpt>
      <trkpt lat="48.79842" lon="2.15332">
        <ele>168.7</ele>
        <time>2015-05-11T20:01:20.575Z</time>
      </trkpt>
      <trkpt lat="48.79842" lon="2.15341">
        <ele>168.7</ele>
        <time>2015-05-11T20:01:21.497Z</time>
      </trkpt>
      <trkpt lat="48.79842" lon="2.1535">
        <ele>168.7</ele>
        <time>2015-05-11T20:01:22.493Z</time>
      </trkpt>
      <trkpt lat="48.79842" lon="2.15359">
        <ele>168.1</ele>
        <time>2015-05-11T20:01:23.501Z</time>
      </trkpt>
      <trkpt lat="48.79842" lon="2.15368">
        <ele>167.2</ele>
        <time>2015-05-11T20:01:24.539Z</time>
      </trkpt>
      <trkpt lat="48.79843" lon="2.15376">
        <ele>167</ele>
        <time>2015-05-11T20:01:25.542Z</time>
      </trkpt>
      <trkpt lat="48.79844" lon="2.15384">
        <ele>166.9</ele>
        <time>2015-05-11T20:01:26.561Z</time>
      </trkpt>
      <trkpt lat="48.79844" lon="2.15392">
        <ele>166.5</ele>
        <time>2015-05-11T20:01:27.562Z</time>
      </trkpt>
      <trkpt lat="48.79845" lon="2.154">
        <ele>166.4</ele>
        <time>2015-05-11T20:01:28.577Z</time>
      </trkpt>
      <trkpt lat="48.79846" lon="2.15409">
        <ele>165.8</ele>
        <time>2015-05-11T20:01:29.582Z</time>
      </trkpt>
      <trkpt lat="48.79847" lon="2.15417">
        <ele>165.2</ele>
        <time>2015-05-11T20:01:30.588Z</time>
      </trkpt>
      <trkpt lat="48.79847" lon="2.15425">
        <ele>165.4</ele>
        <time>2015-05-11T20:01:31.499Z</time>
      </trkpt>
      <trkpt lat="48.79847" lon="2.15433">
        <ele>165.1</ele>
        <time>2015-05-11T20:01:32.509Z</time>
      </trkpt>
      <trkpt lat="48.79847" lon="2.15442">
        <ele>164.7</ele>
        <time>2015-05-11T20:01:33.515Z</time>
      </trkpt>
      <trkpt lat="48.79847" lon="2.1545">
        <ele>164.5</ele>
        <time>2015-05-11T20:01:34.535Z</time>
      </trkpt>
      <trkpt lat="48.79847" lon="2.15459">
        <ele>164</ele>
        <time>2015-05-11T20:01:35.554Z</time>
      </trkpt>
      <trkpt lat="48.79848" lon="2.15468">
        <ele>163.9</ele>
        <time>2015-05-11T20:01:36.567Z</time>
      </trkpt>
      <trkpt lat="48.79848" lon="2.15477">
        <ele>163.7</ele>
        <time>2015-05-11T20:01:37.571Z</time>
      </trkpt>
      <trkpt lat="48.79848" lon="2.15486">
        <ele>163.7</ele>
        <time>2015-05-11T20:01:38.470Z</time>
      </trkpt>
      <trkpt lat="48.79848" lon="2.15495">
        <ele>163.8</ele>
        <time>2015-05-11T20:01:39.497Z</time>
      </trkpt>
      <trkpt lat="48.79849" lon="2.15505">
        <ele>163.8</ele>
        <time>2015-05-11T20:01:40.506Z</time>
      </trkpt>
      <trkpt lat="48.7985" lon="2.15515">
        <ele>163.8</ele>
        <time>2015-05-11T20:01:41.562Z</time>
      </trkpt>
      <trkpt lat="48.79851" lon="2.15524">
        <ele>163.7</ele>
        <time>2015-05-11T20:01:42.548Z</time>
      </trkpt>
      <trkpt lat="48.79852" lon="2.15533">
        <ele>163.8</ele>
        <time>2015-05-11T20:01:43.562Z</time>
      </trkpt>
      <trkpt lat="48.79853" lon="2.15543">
        <ele>163.8</ele>
        <time>2015-05-11T20:01:44.473Z</time>
      </trkpt>
      <trkpt lat="48.79854" lon="2.15551">
        <ele>163.9</ele>
        <time>2015-05-11T20:01:45.515Z</time>
      </trkpt>
      <trkpt lat="48.79854" lon="2.15561">
        <ele>164</ele>
        <time>2015-05-11T20:01:46.503Z</time>
      </trkpt>
      <trkpt lat="48.79854" lon="2.1557">
        <ele>164.1</ele>
        <time>2015-05-11T20:01:47.507Z</time>
      </trkpt>
      <trkpt lat="48.79855" lon="2.1558">
        <ele>164.1</ele>
        <time>2015-05-11T20:01:48.545Z</time>
      </trkpt>
      <trkpt lat="48.79856" lon="2.1559">
        <ele>164.3</ele>
        <time>2015-05-11T20:01:49.556Z</time>
      </trkpt>
      <trkpt lat="48.79856" lon="2.156">
        <ele>163.9</ele>
        <time>2015-05-11T20:01:50.577Z</time>
      </trkpt>
      <trkpt lat="48.79856" lon="2.1561">
        <ele>164</ele>
        <time>2015-05-11T20:01:51.497Z</time>
      </trkpt>
      <trkpt lat="48.79856" lon="2.15619">
        <ele>163.9</ele>
        <time>2015-05-11T20:01:52.496Z</time>
      </trkpt>
      <trkpt lat="48.79856" lon="2.15629">
        <ele>163.9</ele>
        <time>2015-05-11T20:01:53.507Z</time>
      </trkpt>
      <trkpt lat="48.79856" lon="2.15639">
        <ele>163.9</ele>
        <time>2015-05-11T20:01:54.556Z</time>
      </trkpt>
      <trkpt lat="48.79856" lon="2.15648">
        <ele>164</ele>
        <time>2015-05-11T20:01:55.564Z</time>
      </trkpt>
      <trkpt lat="48.79856" lon="2.15658">
        <ele>164.1</ele>
        <time>2015-05-11T20:01:56.569Z</time>
      </trkpt>
      <trkpt lat="48.79856" lon="2.15667">
        <ele>164.2</ele>
        <time>2015-05-11T20:01:57.578Z</time>
      </trkpt>
      <trkpt lat="48.79857" lon="2.15677">
        <ele>164.1</ele>
        <time>2015-05-11T20:01:58.498Z</time>
      </trkpt>
      <trkpt lat="48.79857" lon="2.15686">
        <ele>163.8</ele>
        <time>2015-05-11T20:01:59.504Z</time>
      </trkpt>
      <trkpt lat="48.79858" lon="2.15695">
        <ele>163.8</ele>
        <time>2015-05-11T20:02:00.518Z</time>
      </trkpt>
      <trkpt lat="48.79859" lon="2.15704">
        <ele>164.3</ele>
        <time>2015-05-11T20:02:01.561Z</time>
      </trkpt>
      <trkpt lat="48.79859" lon="2.15713">
        <ele>164.3</ele>
        <time>2015-05-11T20:02:02.482Z</time>
      </trkpt>
      <trkpt lat="48.79859" lon="2.15723">
        <ele>164.3</ele>
        <time>2015-05-11T20:02:03.505Z</time>
      </trkpt>
      <trkpt lat="48.79858" lon="2.15732">
        <ele>164.5</ele>
        <time>2015-05-11T20:02:04.506Z</time>
      </trkpt>
      <trkpt lat="48.79857" lon="2.15742">
        <ele>164.3</ele>
        <time>2015-05-11T20:02:05.513Z</time>
      </trkpt>
      <trkpt lat="48.79856" lon="2.15751">
        <ele>164.3</ele>
        <time>2015-05-11T20:02:06.549Z</time>
      </trkpt>
      <trkpt lat="48.79856" lon="2.1576">
        <ele>163.9</ele>
        <time>2015-05-11T20:02:07.470Z</time>
      </trkpt>
      <trkpt lat="48.79856" lon="2.15769">
        <ele>163.1</ele>
        <time>2015-05-11T20:02:08.497Z</time>
      </trkpt>
      <trkpt lat="48.79856" lon="2.15777">
        <ele>163.1</ele>
        <time>2015-05-11T20:02:09.506Z</time>
      </trkpt>
      <trkpt lat="48.79855" lon="2.15784">
        <ele>163.1</ele>
        <time>2015-05-11T20:02:10.527Z</time>
      </trkpt>
      <trkpt lat="48.79854" lon="2.15793">
        <ele>162.7</ele>
        <time>2015-05-11T20:02:11.538Z</time>
      </trkpt>
      <trkpt lat="48.79854" lon="2.158">
        <ele>162.3</ele>
        <time>2015-05-11T20:02:12.584Z</time>
      </trkpt>
      <trkpt lat="48.79855" lon="2.15807">
        <ele>162.2</ele>
        <time>2015-05-11T20:02:13.572Z</time>
      </trkpt>
      <trkpt lat="48.79856" lon="2.15814">
        <ele>162.1</ele>
        <time>2015-05-11T20:02:14.579Z</time>
      </trkpt>
      <trkpt lat="48.79857" lon="2.15821">
        <ele>161.8</ele>
        <time>2015-05-11T20:02:15.585Z</time>
      </trkpt>
      <trkpt lat="48.79859" lon="2.15829">
        <ele>161.7</ele>
        <time>2015-05-11T20:02:16.508Z</time>
      </trkpt>
      <trkpt lat="48.79861" lon="2.15835">
        <ele>162</ele>
        <time>2015-05-11T20:02:17.504Z</time>
      </trkpt>
      <trkpt lat="48.79864" lon="2.15842">
        <ele>162</ele>
        <time>2015-05-11T20:02:18.517Z</time>
      </trkpt>
      <trkpt lat="48.79866" lon="2.15849">
        <ele>162.1</ele>
        <time>2015-05-11T20:02:19.547Z</time>
      </trkpt>
      <trkpt lat="48.79869" lon="2.15856">
        <ele>162.1</ele>
        <time>2015-05-11T20:02:20.564Z</time>
      </trkpt>
      <trkpt lat="48.79872" lon="2.15862">
        <ele>162.2</ele>
        <time>2015-05-11T20:02:21.586Z</time>
      </trkpt>
      <trkpt lat="48.79877" lon="2.15868">
        <ele>162.5</ele>
        <time>2015-05-11T20:02:22.474Z</time>
      </trkpt>
      <trkpt lat="48.79881" lon="2.15874">
        <ele>162.7</ele>
        <time>2015-05-11T20:02:23.500Z</time>
      </trkpt>
      <trkpt lat="48.79885" lon="2.15879">
        <ele>162.8</ele>
        <time>2015-05-11T20:02:24.516Z</time>
      </trkpt>
      <trkpt lat="48.79889" lon="2.15884">
        <ele>163</ele>
        <time>2015-05-11T20:02:25.526Z</time>
      </trkpt>
      <trkpt lat="48.79894" lon="2.15888">
        <ele>163.3</ele>
        <time>2015-05-11T20:02:26.540Z</time>
      </trkpt>
      <trkpt lat="48.79897" lon="2.15894">
        <ele>163.7</ele>
        <time>2015-05-11T20:02:27.556Z</time>
      </trkpt>
      <trkpt lat="48.79901" lon="2.15901">
        <ele>164</ele>
        <time>2015-05-11T20:02:28.572Z</time>
      </trkpt>
      <trkpt lat="48.79904" lon="2.15907">
        <ele>164.3</ele>
        <time>2015-05-11T20:02:29.586Z</time>
      </trkpt>
      <trkpt lat="48.79906" lon="2.15914">
        <ele>164.5</ele>
        <time>2015-05-11T20:02:30.625Z</time>
      </trkpt>
      <trkpt lat="48.79908" lon="2.15921">
        <ele>164.3</ele>
        <time>2015-05-11T20:02:31.518Z</time>
      </trkpt>
      <trkpt lat="48.79911" lon="2.15927">
        <ele>164.1</ele>
        <time>2015-05-11T20:02:32.536Z</time>
      </trkpt>
      <trkpt lat="48.79914" lon="2.15933">
        <ele>164</ele>
        <time>2015-05-11T20:02:33.557Z</time>
      </trkpt>
      <trkpt lat="48.79918" lon="2.15939">
        <ele>164.5</ele>
        <time>2015-05-11T20:02:34.581Z</time>
      </trkpt>
      <trkpt lat="48.79921" lon="2.15944">
        <ele>164.7</ele>
        <time>2015-05-11T20:02:35.495Z</time>
      </trkpt>
      <trkpt lat="48.79924" lon="2.1595">
        <ele>164.6</ele>
        <time>2015-05-11T20:02:36.539Z</time>
      </trkpt>
      <trkpt lat="48.79926" lon="2.15955">
        <ele>164.6</ele>
        <time>2015-05-11T20:02:37.548Z</time>
      </trkpt>
      <trkpt lat="48.7993" lon="2.15961">
        <ele>164.4</ele>
        <time>2015-05-11T20:02:38.559Z</time>
      </trkpt>
      <trkpt lat="48.79934" lon="2.15967">
        <ele>164.4</ele>
        <time>2015-05-11T20:02:39.568Z</time>
      </trkpt>
      <trkpt lat="48.79939" lon="2.15973">
        <ele>164.4</ele>
        <time>2015-05-11T20:02:40.579Z</time>
      </trkpt>
      <trkpt lat="48.79944" lon="2.1598">
        <ele>164.6</ele>
        <time>2015-05-11T20:02:41.497Z</time>
      </trkpt>
      <trkpt lat="48.79948" lon="2.15986">
        <ele>164.8</ele>
        <time>2015-05-11T20:02:42.603Z</time>
      </trkpt>
      <trkpt lat="48.79953" lon="2.15993">
        <ele>165</ele>
        <time>2015-05-11T20:02:43.495Z</time>
      </trkpt>
      <trkpt lat="48.79957" lon="2.16">
        <ele>165.4</ele>
        <time>2015-05-11T20:02:44.511Z</time>
      </trkpt>
      <trkpt lat="48.79962" lon="2.16006">
        <ele>165.4</ele>
        <time>2015-05-11T20:02:45.522Z</time>
      </trkpt>
      <trkpt lat="48.79967" lon="2.16011">
        <ele>165.8</ele>
        <time>2015-05-11T20:02:46.532Z</time>
      </trkpt>
      <trkpt lat="48.79971" lon="2.16017">
        <ele>166.1</ele>
        <time>2015-05-11T20:02:47.542Z</time>
      </trkpt>
      <trkpt lat="48.79976" lon="2.16023">
        <ele>166.5</ele>
        <time>2015-05-11T20:02:48.547Z</time>
      </trkpt>
      <trkpt lat="48.7998" lon="2.16029">
        <ele>166.6</ele>
        <time>2015-05-11T20:02:49.556Z</time>
      </trkpt>
      <trkpt lat="48.79984" lon="2.16037">
        <ele>166.9</ele>
        <time>2015-05-11T20:02:50.496Z</time>
      </trkpt>
      <trkpt lat="48.79987" lon="2.16043">
        <ele>167.1</ele>
        <time>2015-05-11T20:02:51.494Z</time>
      </trkpt>
      <trkpt lat="48.79992" lon="2.1605">
        <ele>166.8</ele>
        <time>2015-05-11T20:02:52.527Z</time>
      </trkpt>
      <trkpt lat="48.79996" lon="2.16056">
        <ele>166.8</ele>
        <time>2015-05-11T20:02:53.547Z</time>
      </trkpt>
      <trkpt lat="48.80001" lon="2.16063">
        <ele>166.7</ele>
        <time>2015-05-11T20:02:54.569Z</time>
      </trkpt>
      <trkpt lat="48.80006" lon="2.1607">
        <ele>166.8</ele>
        <time>2015-05-11T20:02:55.498Z</time>
      </trkpt>
      <trkpt lat="48.8001" lon="2.16076">
        <ele>167.5</ele>
        <time>2015-05-11T20:02:56.497Z</time>
      </trkpt>
      <trkpt lat="48.80014" lon="2.16081">
        <ele>167.9</ele>
        <time>2015-05-11T20:02:57.497Z</time>
      </trkpt>
      <trkpt lat="48.80018" lon="2.16087">
        <ele>168.4</ele>
        <time>2015-05-11T20:02:58.516Z</time>
      </trkpt>
      <trkpt lat="48.80023" lon="2.16094">
        <ele>169.1</ele>
        <time>2015-05-11T20:02:59.525Z</time>
      </trkpt>
      <trkpt lat="48.80028" lon="2.16102">
        <ele>169</ele>
        <time>2015-05-11T20:03:00.551Z</time>
      </trkpt>
      <trkpt lat="48.80032" lon="2.16109">
        <ele>169.1</ele>
        <time>2015-05-11T20:03:01.579Z</time>
      </trkpt>
      <trkpt lat="48.80037" lon="2.16117">
        <ele>169.2</ele>
        <time>2015-05-11T20:03:02.480Z</time>
      </trkpt>
      <trkpt lat="48.80042" lon="2.16124">
        <ele>169.1</ele>
        <time>2015-05-11T20:03:03.492Z</time>
      </trkpt>
      <trkpt lat="48.80046" lon="2.16131">
        <ele>169</ele>
        <time>2015-05-11T20:03:04.506Z</time>
      </trkpt>
      <trkpt lat="48.8005" lon="2.16138">
        <ele>169.3</ele>
        <time>2015-05-11T20:03:05.518Z</time>
      </trkpt>
      <trkpt lat="48.80054" lon="2.16146">
        <ele>169.5</ele>
        <time>2015-05-11T20:03:06.542Z</time>
      </trkpt>
      <trkpt lat="48.80059" lon="2.16153">
        <ele>169.5</ele>
        <time>2015-05-11T20:03:07.550Z</time>
      </trkpt>
      <trkpt lat="48.80063" lon="2.16161">
        <ele>169.7</ele>
        <time>2015-05-11T20:03:08.565Z</time>
      </trkpt>
      <trkpt lat="48.80067" lon="2.16167">
        <ele>169.7</ele>
        <time>2015-05-11T20:03:09.575Z</time>
      </trkpt>
      <trkpt lat="48.8007" lon="2.16173">
        <ele>169.9</ele>
        <time>2015-05-11T20:03:10.491Z</time>
      </trkpt>
      <trkpt lat="48.80074" lon="2.1618">
        <ele>170</ele>
        <time>2015-05-11T20:03:11.488Z</time>
      </trkpt>
      <trkpt lat="48.80078" lon="2.16188">
        <ele>170.3</ele>
        <time>2015-05-11T20:03:12.535Z</time>
      </trkpt>
      <trkpt lat="48.80084" lon="2.16196">
        <ele>170.3</ele>
        <time>2015-05-11T20:03:13.545Z</time>
      </trkpt>
      <trkpt lat="48.80089" lon="2.16203">
        <ele>170.4</ele>
        <time>2015-05-11T20:03:14.565Z</time>
      </trkpt>
      <trkpt lat="48.80095" lon="2.16209">
        <ele>170.3</ele>
        <time>2015-05-11T20:03:15.572Z</time>
      </trkpt>
      <trkpt lat="48.80099" lon="2.16215">
        <ele>170.1</ele>
        <time>2015-05-11T20:03:16.496Z</time>
      </trkpt>
      <trkpt lat="48.80104" lon="2.16223">
        <ele>169.8</ele>
        <time>2015-05-11T20:03:17.488Z</time>
      </trkpt>
      <trkpt lat="48.80107" lon="2.1623">
        <ele>169.5</ele>
        <time>2015-05-11T20:03:18.537Z</time>
      </trkpt>
      <trkpt lat="48.80111" lon="2.16237">
        <ele>169.4</ele>
        <time>2015-05-11T20:03:19.545Z</time>
      </trkpt>
      <trkpt lat="48.80114" lon="2.16246">
        <ele>169.3</ele>
        <time>2015-05-11T20:03:20.553Z</time>
      </trkpt>
      <trkpt lat="48.80118" lon="2.16254">
        <ele>168.6</ele>
        <time>2015-05-11T20:03:21.467Z</time>
      </trkpt>
      <trkpt lat="48.80122" lon="2.16261">
        <ele>168.3</ele>
        <time>2015-05-11T20:03:22.491Z</time>
      </trkpt>
      <trkpt lat="48.80125" lon="2.16267">
        <ele>168.2</ele>
        <time>2015-05-11T20:03:23.494Z</time>
      </trkpt>
      <trkpt lat="48.80127" lon="2.16274">
        <ele>168.2</ele>
        <time>2015-05-11T20:03:24.511Z</time>
      </trkpt>
      <trkpt lat="48.80132" lon="2.16281">
        <ele>168.3</ele>
        <time>2015-05-11T20:03:25.526Z</time>
      </trkpt>
      <trkpt lat="48.80137" lon="2.16288">
        <ele>168.4</ele>
        <time>2015-05-11T20:03:26.541Z</time>
      </trkpt>
      <trkpt lat="48.80142" lon="2.16295">
        <ele>168.5</ele>
        <time>2015-05-11T20:03:27.550Z</time>
      </trkpt>
      <trkpt lat="48.80146" lon="2.16303">
        <ele>168.5</ele>
        <time>2015-05-11T20:03:28.491Z</time>
      </trkpt>
      <trkpt lat="48.8015" lon="2.16311">
        <ele>168.5</ele>
        <time>2015-05-11T20:03:29.474Z</time>
      </trkpt>
      <trkpt lat="48.80153" lon="2.16318">
        <ele>168.9</ele>
        <time>2015-05-11T20:03:30.530Z</time>
      </trkpt>
      <trkpt lat="48.80155" lon="2.16326">
        <ele>169.4</ele>
        <time>2015-05-11T20:03:31.539Z</time>
      </trkpt>
      <trkpt lat="48.80158" lon="2.16334">
        <ele>169.9</ele>
        <time>2015-05-11T20:03:32.551Z</time>
      </trkpt>
      <trkpt lat="48.80162" lon="2.16342">
        <ele>170.3</ele>
        <time>2015-05-11T20:03:33.596Z</time>
      </trkpt>
      <trkpt lat="48.80167" lon="2.16349">
        <ele>170.4</ele>
        <time>2015-05-11T20:03:34.507Z</time>
      </trkpt>
      <trkpt lat="48.80171" lon="2.16356">
        <ele>169.9</ele>
        <time>2015-05-11T20:03:35.513Z</time>
      </trkpt>
      <trkpt lat="48.80174" lon="2.16364">
        <ele>170.3</ele>
        <time>2015-05-11T20:03:36.564Z</time>
      </trkpt>
      <trkpt lat="48.80178" lon="2.1637">
        <ele>170.9</ele>
        <time>2015-05-11T20:03:37.569Z</time>
      </trkpt>
      <trkpt lat="48.80184" lon="2.16377">
        <ele>171.3</ele>
        <time>2015-05-11T20:03:38.492Z</time>
      </trkpt>
      <trkpt lat="48.80189" lon="2.16383">
        <ele>171.6</ele>
        <time>2015-05-11T20:03:39.493Z</time>
      </trkpt>
      <trkpt lat="48.80194" lon="2.16391">
        <ele>171.8</ele>
        <time>2015-05-11T20:03:40.553Z</time>
      </trkpt>
      <trkpt lat="48.80197" lon="2.16398">
        <ele>171.9</ele>
        <time>2015-05-11T20:03:41.461Z</time>
      </trkpt>
      <trkpt lat="48.80201" lon="2.16404">
        <ele>172</ele>
        <time>2015-05-11T20:03:42.604Z</time>
      </trkpt>
      <trkpt lat="48.80205" lon="2.1641">
        <ele>172.2</ele>
        <time>2015-05-11T20:03:43.588Z</time>
      </trkpt>
      <trkpt lat="48.80209" lon="2.16417">
        <ele>172.3</ele>
        <time>2015-05-11T20:03:44.493Z</time>
      </trkpt>
      <trkpt lat="48.80215" lon="2.16425">
        <ele>172.3</ele>
        <time>2015-05-11T20:03:45.483Z</time>
      </trkpt>
      <trkpt lat="48.8022" lon="2.16433">
        <ele>172.2</ele>
        <time>2015-05-11T20:03:46.503Z</time>
      </trkpt>
      <trkpt lat="48.80225" lon="2.16441">
        <ele>172.3</ele>
        <time>2015-05-11T20:03:47.509Z</time>
      </trkpt>
      <trkpt lat="48.80228" lon="2.16448">
        <ele>172.4</ele>
        <time>2015-05-11T20:03:48.551Z</time>
      </trkpt>
      <trkpt lat="48.80231" lon="2.16456">
        <ele>172.3</ele>
        <time>2015-05-11T20:03:49.480Z</time>
      </trkpt>
      <trkpt lat="48.80234" lon="2.16463">
        <ele>172.3</ele>
        <time>2015-05-11T20:03:50.712Z</time>
      </trkpt>
      <trkpt lat="48.80238" lon="2.16469">
        <ele>172</ele>
        <time>2015-05-11T20:03:51.499Z</time>
      </trkpt>
      <trkpt lat="48.80242" lon="2.16477">
        <ele>171.3</ele>
        <time>2015-05-11T20:03:52.502Z</time>
      </trkpt>
      <trkpt lat="48.80245" lon="2.16483">
        <ele>170.5</ele>
        <time>2015-05-11T20:03:53.517Z</time>
      </trkpt>
      <trkpt lat="48.80248" lon="2.1649">
        <ele>170.8</ele>
        <time>2015-05-11T20:03:54.537Z</time>
      </trkpt>
      <trkpt lat="48.80252" lon="2.16497">
        <ele>169.9</ele>
        <time>2015-05-11T20:03:55.545Z</time>
      </trkpt>
      <trkpt lat="48.80255" lon="2.16505">
        <ele>169.1</ele>
        <time>2015-05-11T20:03:56.555Z</time>
      </trkpt>
      <trkpt lat="48.80259" lon="2.16512">
        <ele>168.8</ele>
        <time>2015-05-11T20:03:57.558Z</time>
      </trkpt>
      <trkpt lat="48.80263" lon="2.16519">
        <ele>168.2</ele>
        <time>2015-05-11T20:03:58.570Z</time>
      </trkpt>
      <trkpt lat="48.80267" lon="2.16526">
        <ele>167.5</ele>
        <time>2015-05-11T20:03:59.583Z</time>
      </trkpt>
      <trkpt lat="48.80271" lon="2.16531">
        <ele>166.7</ele>
        <time>2015-05-11T20:04:00.602Z</time>
      </trkpt>
      <trkpt lat="48.80274" lon="2.16537">
        <ele>166.4</ele>
        <time>2015-05-11T20:04:01.501Z</time>
      </trkpt>
      <trkpt lat="48.80278" lon="2.16544">
        <ele>165.6</ele>
        <time>2015-05-11T20:04:02.513Z</time>
      </trkpt>
      <trkpt lat="48.8028" lon="2.1655">
        <ele>164.9</ele>
        <time>2015-05-11T20:04:03.523Z</time>
      </trkpt>
      <trkpt lat="48.80284" lon="2.16557">
        <ele>164.5</ele>
        <time>2015-05-11T20:04:04.530Z</time>
      </trkpt>
      <trkpt lat="48.80288" lon="2.16563">
        <ele>163.9</ele>
        <time>2015-05-11T20:04:05.543Z</time>
      </trkpt>
      <trkpt lat="48.80293" lon="2.1657">
        <ele>163.5</ele>
        <time>2015-05-11T20:04:06.564Z</time>
      </trkpt>
      <trkpt lat="48.80298" lon="2.16578">
        <ele>163.5</ele>
        <time>2015-05-11T20:04:07.574Z</time>
      </trkpt>
      <trkpt lat="48.80303" lon="2.16586">
        <ele>163.5</ele>
        <time>2015-05-11T20:04:08.596Z</time>
      </trkpt>
      <trkpt lat="48.80308" lon="2.16592">
        <ele>163.6</ele>
        <time>2015-05-11T20:04:09.489Z</time>
      </trkpt>
      <trkpt lat="48.80312" lon="2.16599">
        <ele>163.5</ele>
        <time>2015-05-11T20:04:10.507Z</time>
      </trkpt>
      <trkpt lat="48.80316" lon="2.16605">
        <ele>163.6</ele>
        <time>2015-05-11T20:04:11.523Z</time>
      </trkpt>
      <trkpt lat="48.8032" lon="2.16612">
        <ele>163.7</ele>
        <time>2015-05-11T20:04:12.561Z</time>
      </trkpt>
      <trkpt lat="48.80323" lon="2.16617">
        <ele>164.2</ele>
        <time>2015-05-11T20:04:13.563Z</time>
      </trkpt>
      <trkpt lat="48.80327" lon="2.16624">
        <ele>164.3</ele>
        <time>2015-05-11T20:04:14.587Z</time>
      </trkpt>
      <trkpt lat="48.8033" lon="2.1663">
        <ele>164.5</ele>
        <time>2015-05-11T20:04:15.487Z</time>
      </trkpt>
      <trkpt lat="48.80332" lon="2.16636">
        <ele>164.4</ele>
        <time>2015-05-11T20:04:16.487Z</time>
      </trkpt>
      <trkpt lat="48.80335" lon="2.16642">
        <ele>164.3</ele>
        <time>2015-05-11T20:04:17.503Z</time>
      </trkpt>
      <trkpt lat="48.80338" lon="2.16649">
        <ele>164.1</ele>
        <time>2015-05-11T20:04:18.537Z</time>
      </trkpt>
      <trkpt lat="48.80343" lon="2.16657">
        <ele>164.3</ele>
        <time>2015-05-11T20:04:19.548Z</time>
      </trkpt>
      <trkpt lat="48.80346" lon="2.16662">
        <ele>164.1</ele>
        <time>2015-05-11T20:04:20.570Z</time>
      </trkpt>
      <trkpt lat="48.8035" lon="2.16669">
        <ele>163.6</ele>
        <time>2015-05-11T20:04:21.579Z</time>
      </trkpt>
      <trkpt lat="48.80354" lon="2.16675">
        <ele>162.9</ele>
        <time>2015-05-11T20:04:22.485Z</time>
      </trkpt>
      <trkpt lat="48.80358" lon="2.16681">
        <ele>162.7</ele>
        <time>2015-05-11T20:04:23.494Z</time>
      </trkpt>
      <trkpt lat="48.80361" lon="2.16688">
        <ele>162.6</ele>
        <time>2015-05-11T20:04:24.536Z</time>
      </trkpt>
      <trkpt lat="48.80363" lon="2.16695">
        <ele>162.3</ele>
        <time>2015-05-11T20:04:25.532Z</time>
      </trkpt>
      <trkpt lat="48.80366" lon="2.16701">
        <ele>162.7</ele>
        <time>2015-05-11T20:04:26.560Z</time>
      </trkpt>
      <trkpt lat="48.8037" lon="2.16708">
        <ele>162.5</ele>
        <time>2015-05-11T20:04:27.572Z</time>
      </trkpt>
      <trkpt lat="48.80374" lon="2.16715">
        <ele>161.8</ele>
        <time>2015-05-11T20:04:28.498Z</time>
      </trkpt>
      <trkpt lat="48.80377" lon="2.16722">
        <ele>161.6</ele>
        <time>2015-05-11T20:04:29.495Z</time>
      </trkpt>
      <trkpt lat="48.80381" lon="2.16729">
        <ele>161.7</ele>
        <time>2015-05-11T20:04:30.541Z</time>
      </trkpt>
      <trkpt lat="48.80386" lon="2.16739">
        <ele>162</ele>
        <time>2015-05-11T20:04:31.546Z</time>
      </trkpt>
      <trkpt lat="48.80391" lon="2.16748">
        <ele>163.3</ele>
        <time>2015-05-11T20:04:32.547Z</time>
      </trkpt>
      <trkpt lat="48.80393" lon="2.16756">
        <ele>163.6</ele>
        <time>2015-05-11T20:04:33.558Z</time>
      </trkpt>
      <trkpt lat="48.80394" lon="2.16766">
        <ele>163.8</ele>
        <time>2015-05-11T20:04:34.476Z</time>
      </trkpt>
      <trkpt lat="48.80394" lon="2.16776">
        <ele>163.7</ele>
        <time>2015-05-11T20:04:35.494Z</time>
      </trkpt>
      <trkpt lat="48.80395" lon="2.16784">
        <ele>163.7</ele>
        <time>2015-05-11T20:04:36.535Z</time>
      </trkpt>
      <trkpt lat="48.80396" lon="2.16792">
        <ele>163.7</ele>
        <time>2015-05-11T20:04:37.538Z</time>
      </trkpt>
      <trkpt lat="48.80397" lon="2.168">
        <ele>163.8</ele>
        <time>2015-05-11T20:04:38.551Z</time>
      </trkpt>
      <trkpt lat="48.80399" lon="2.16808">
        <ele>163.9</ele>
        <time>2015-05-11T20:04:39.560Z</time>
      </trkpt>
      <trkpt lat="48.804" lon="2.16814">
        <ele>163.7</ele>
        <time>2015-05-11T20:04:40.574Z</time>
      </trkpt>
      <trkpt lat="48.80401" lon="2.16822">
        <ele>163.6</ele>
        <time>2015-05-11T20:04:41.589Z</time>
      </trkpt>
      <trkpt lat="48.80401" lon="2.16829">
        <ele>163.5</ele>
        <time>2015-05-11T20:04:42.598Z</time>
      </trkpt>
      <trkpt lat="48.80402" lon="2.16836">
        <ele>163.1</ele>
        <time>2015-05-11T20:04:43.493Z</time>
      </trkpt>
      <trkpt lat="48.80403" lon="2.1685">
        <ele>162.1</ele>
        <time>2015-05-11T20:04:45.516Z</time>
      </trkpt>
      <trkpt lat="48.80404" lon="2.16857">
        <ele>161.9</ele>
        <time>2015-05-11T20:04:46.535Z</time>
      </trkpt>
      <trkpt lat="48.80404" lon="2.16864">
        <ele>161.5</ele>
        <time>2015-05-11T20:04:47.501Z</time>
      </trkpt>
      <trkpt lat="48.80405" lon="2.16873">
        <ele>161.5</ele>
        <time>2015-05-11T20:04:48.534Z</time>
      </trkpt>
      <trkpt lat="48.80406" lon="2.16881">
        <ele>161.2</ele>
        <time>2015-05-11T20:04:49.558Z</time>
      </trkpt>
      <trkpt lat="48.80407" lon="2.16888">
        <ele>161.2</ele>
        <time>2015-05-11T20:04:50.562Z</time>
      </trkpt>
      <trkpt lat="48.80408" lon="2.16897">
        <ele>161.2</ele>
        <time>2015-05-11T20:04:51.573Z</time>
      </trkpt>
      <trkpt lat="48.80409" lon="2.16904">
        <ele>161.3</ele>
        <time>2015-05-11T20:04:52.493Z</time>
      </trkpt>
      <trkpt lat="48.80409" lon="2.16912">
        <ele>161.3</ele>
        <time>2015-05-11T20:04:53.496Z</time>
      </trkpt>
      <trkpt lat="48.80409" lon="2.1692">
        <ele>161.5</ele>
        <time>2015-05-11T20:04:54.536Z</time>
      </trkpt>
      <trkpt lat="48.80411" lon="2.16928">
        <ele>161.7</ele>
        <time>2015-05-11T20:04:55.537Z</time>
      </trkpt>
      <trkpt lat="48.80413" lon="2.16935">
        <ele>161.8</ele>
        <time>2015-05-11T20:04:56.550Z</time>
      </trkpt>
      <trkpt lat="48.80413" lon="2.16943">
        <ele>161.8</ele>
        <time>2015-05-11T20:04:57.560Z</time>
      </trkpt>
      <trkpt lat="48.80413" lon="2.16951">
        <ele>161.5</ele>
        <time>2015-05-11T20:04:58.572Z</time>
      </trkpt>
      <trkpt lat="48.80414" lon="2.16959">
        <ele>161.3</ele>
        <time>2015-05-11T20:04:59.502Z</time>
      </trkpt>
      <trkpt lat="48.80415" lon="2.16968">
        <ele>160.9</ele>
        <time>2015-05-11T20:05:00.524Z</time>
      </trkpt>
      <trkpt lat="48.80415" lon="2.16977">
        <ele>160.8</ele>
        <time>2015-05-11T20:05:01.543Z</time>
      </trkpt>
      <trkpt lat="48.80414" lon="2.16986">
        <ele>160.8</ele>
        <time>2015-05-11T20:05:02.555Z</time>
      </trkpt>
      <trkpt lat="48.80414" lon="2.16994">
        <ele>160.7</ele>
        <time>2015-05-11T20:05:03.575Z</time>
      </trkpt>
      <trkpt lat="48.80412" lon="2.17001">
        <ele>160.8</ele>
        <time>2015-05-11T20:05:04.468Z</time>
      </trkpt>
      <trkpt lat="48.80411" lon="2.17009">
        <ele>160.8</ele>
        <time>2015-05-11T20:05:05.486Z</time>
      </trkpt>
      <trkpt lat="48.80411" lon="2.17017">
        <ele>160.6</ele>
        <time>2015-05-11T20:05:06.534Z</time>
      </trkpt>
      <trkpt lat="48.80414" lon="2.17024">
        <ele>160.7</ele>
        <time>2015-05-11T20:05:07.534Z</time>
      </trkpt>
      <trkpt lat="48.80414" lon="2.17032">
        <ele>160.8</ele>
        <time>2015-05-11T20:05:08.547Z</time>
      </trkpt>
      <trkpt lat="48.80414" lon="2.17041">
        <ele>160.7</ele>
        <time>2015-05-11T20:05:09.563Z</time>
      </trkpt>
      <trkpt lat="48.80414" lon="2.1705">
        <ele>160.8</ele>
        <time>2015-05-11T20:05:10.569Z</time>
      </trkpt>
      <trkpt lat="48.80414" lon="2.17061">
        <ele>160.4</ele>
        <time>2015-05-11T20:05:11.496Z</time>
      </trkpt>
      <trkpt lat="48.80413" lon="2.1707">
        <ele>160.5</ele>
        <time>2015-05-11T20:05:12.588Z</time>
      </trkpt>
      <trkpt lat="48.80414" lon="2.17079">
        <ele>160.5</ele>
        <time>2015-05-11T20:05:13.488Z</time>
      </trkpt>
      <trkpt lat="48.80414" lon="2.17088">
        <ele>160.5</ele>
        <time>2015-05-11T20:05:14.494Z</time>
      </trkpt>
      <trkpt lat="48.80414" lon="2.17098">
        <ele>160.3</ele>
        <time>2015-05-11T20:05:15.489Z</time>
      </trkpt>
      <trkpt lat="48.80414" lon="2.17107">
        <ele>160.2</ele>
        <time>2015-05-11T20:05:16.504Z</time>
      </trkpt>
      <trkpt lat="48.80415" lon="2.17118">
        <ele>160.5</ele>
        <time>2015-05-11T20:05:17.522Z</time>
      </trkpt>
      <trkpt lat="48.80417" lon="2.17128">
        <ele>161</ele>
        <time>2015-05-11T20:05:18.549Z</time>
      </trkpt>
      <trkpt lat="48.80419" lon="2.17137">
        <ele>161.4</ele>
        <time>2015-05-11T20:05:19.565Z</time>
      </trkpt>
      <trkpt lat="48.8042" lon="2.17146">
        <ele>161.2</ele>
        <time>2015-05-11T20:05:20.558Z</time>
      </trkpt>
      <trkpt lat="48.80421" lon="2.17156">
        <ele>161.1</ele>
        <time>2015-05-11T20:05:21.564Z</time>
      </trkpt>
      <trkpt lat="48.80421" lon="2.17166">
        <ele>161.4</ele>
        <time>2015-05-11T20:05:22.564Z</time>
      </trkpt>
      <trkpt lat="48.8042" lon="2.17175">
        <ele>161.4</ele>
        <time>2015-05-11T20:05:23.573Z</time>
      </trkpt>
      <trkpt lat="48.80419" lon="2.17183">
        <ele>161.3</ele>
        <time>2015-05-11T20:05:24.578Z</time>
      </trkpt>
      <trkpt lat="48.80419" lon="2.17191">
        <ele>160.7</ele>
        <time>2015-05-11T20:05:25.489Z</time>
      </trkpt>
      <trkpt lat="48.80418" lon="2.17199">
        <ele>160.4</ele>
        <time>2015-05-11T20:05:26.505Z</time>
      </trkpt>
      <trkpt lat="48.80418" lon="2.17207">
        <ele>159.8</ele>
        <time>2015-05-11T20:05:27.520Z</time>
      </trkpt>
      <trkpt lat="48.80417" lon="2.17216">
        <ele>159.3</ele>
        <time>2015-05-11T20:05:28.525Z</time>
      </trkpt>
      <trkpt lat="48.80417" lon="2.17224">
        <ele>159.3</ele>
        <time>2015-05-11T20:05:29.537Z</time>
      </trkpt>
      <trkpt lat="48.80416" lon="2.17232">
        <ele>159</ele>
        <time>2015-05-11T20:05:30.544Z</time>
      </trkpt>
      <trkpt lat="48.80416" lon="2.17241">
        <ele>158.7</ele>
        <time>2015-05-11T20:05:31.569Z</time>
      </trkpt>
      <trkpt lat="48.80416" lon="2.17249">
        <ele>158.3</ele>
        <time>2015-05-11T20:05:32.795Z</time>
      </trkpt>
      <trkpt lat="48.80415" lon="2.17258">
        <ele>158</ele>
        <time>2015-05-11T20:05:33.483Z</time>
      </trkpt>
      <trkpt lat="48.80414" lon="2.17266">
        <ele>157.6</ele>
        <time>2015-05-11T20:05:34.486Z</time>
      </trkpt>
      <trkpt lat="48.80413" lon="2.17275">
        <ele>157.3</ele>
        <time>2015-05-11T20:05:35.486Z</time>
      </trkpt>
      <trkpt lat="48.80412" lon="2.17284">
        <ele>157.1</ele>
        <time>2015-05-11T20:05:36.562Z</time>
      </trkpt>
      <trkpt lat="48.80411" lon="2.17292">
        <ele>157.1</ele>
        <time>2015-05-11T20:05:37.482Z</time>
      </trkpt>
      <trkpt lat="48.80411" lon="2.17302">
        <ele>157</ele>
        <time>2015-05-11T20:05:38.485Z</time>
      </trkpt>
      <trkpt lat="48.80411" lon="2.17312">
        <ele>156.9</ele>
        <time>2015-05-11T20:05:39.500Z</time>
      </trkpt>
      <trkpt lat="48.80411" lon="2.17321">
        <ele>156.8</ele>
        <time>2015-05-11T20:05:40.526Z</time>
      </trkpt>
      <trkpt lat="48.80411" lon="2.17331">
        <ele>156.7</ele>
        <time>2015-05-11T20:05:41.493Z</time>
      </trkpt>
      <trkpt lat="48.80411" lon="2.1734">
        <ele>156.4</ele>
        <time>2015-05-11T20:05:42.539Z</time>
      </trkpt>
      <trkpt lat="48.80411" lon="2.17349">
        <ele>156.3</ele>
        <time>2015-05-11T20:05:43.547Z</time>
      </trkpt>
      <trkpt lat="48.8041" lon="2.17358">
        <ele>158</ele>
        <time>2015-05-11T20:05:44.559Z</time>
      </trkpt>
      <trkpt lat="48.8041" lon="2.17367">
        <ele>158.6</ele>
        <time>2015-05-11T20:05:45.466Z</time>
      </trkpt>
      <trkpt lat="48.80411" lon="2.17376">
        <ele>159</ele>
        <time>2015-05-11T20:05:46.496Z</time>
      </trkpt>
      <trkpt lat="48.80412" lon="2.17386">
        <ele>159.4</ele>
        <time>2015-05-11T20:05:47.511Z</time>
      </trkpt>
      <trkpt lat="48.80413" lon="2.17396">
        <ele>159.6</ele>
        <time>2015-05-11T20:05:48.555Z</time>
      </trkpt>
      <trkpt lat="48.80413" lon="2.17406">
        <ele>159.9</ele>
        <time>2015-05-11T20:05:49.494Z</time>
      </trkpt>
      <trkpt lat="48.80413" lon="2.17416">
        <ele>160.2</ele>
        <time>2015-05-11T20:05:50.500Z</time>
      </trkpt>
      <trkpt lat="48.80413" lon="2.17426">
        <ele>160.5</ele>
        <time>2015-05-11T20:05:51.522Z</time>
      </trkpt>
      <trkpt lat="48.80413" lon="2.17435">
        <ele>160.6</ele>
        <time>2015-05-11T20:05:52.543Z</time>
      </trkpt>
      <trkpt lat="48.80413" lon="2.17444">
        <ele>161</ele>
        <time>2015-05-11T20:05:53.566Z</time>
      </trkpt>
      <trkpt lat="48.80412" lon="2.17454">
        <ele>161</ele>
        <time>2015-05-11T20:05:54.589Z</time>
      </trkpt>
      <trkpt lat="48.80412" lon="2.17464">
        <ele>161.4</ele>
        <time>2015-05-11T20:05:55.482Z</time>
      </trkpt>
      <trkpt lat="48.80412" lon="2.17474">
        <ele>161.7</ele>
        <time>2015-05-11T20:05:56.484Z</time>
      </trkpt>
      <trkpt lat="48.80411" lon="2.17483">
        <ele>161.8</ele>
        <time>2015-05-11T20:05:57.543Z</time>
      </trkpt>
      <trkpt lat="48.80411" lon="2.17492">
        <ele>161.7</ele>
        <time>2015-05-11T20:05:58.601Z</time>
      </trkpt>
      <trkpt lat="48.80411" lon="2.17501">
        <ele>161.4</ele>
        <time>2015-05-11T20:05:59.497Z</time>
      </trkpt>
      <trkpt lat="48.80411" lon="2.17511">
        <ele>161.7</ele>
        <time>2015-05-11T20:06:00.515Z</time>
      </trkpt>
      <trkpt lat="48.80411" lon="2.17521">
        <ele>161.7</ele>
        <time>2015-05-11T20:06:01.528Z</time>
      </trkpt>
      <trkpt lat="48.80412" lon="2.17532">
        <ele>161.8</ele>
        <time>2015-05-11T20:06:02.535Z</time>
      </trkpt>
      <trkpt lat="48.80412" lon="2.17541">
        <ele>162.2</ele>
        <time>2015-05-11T20:06:03.558Z</time>
      </trkpt>
      <trkpt lat="48.80412" lon="2.17551">
        <ele>162.5</ele>
        <time>2015-05-11T20:06:04.571Z</time>
      </trkpt>
      <trkpt lat="48.80411" lon="2.17561">
        <ele>162.3</ele>
        <time>2015-05-11T20:06:05.462Z</time>
      </trkpt>
      <trkpt lat="48.8041" lon="2.17571">
        <ele>162.4</ele>
        <time>2015-05-11T20:06:06.503Z</time>
      </trkpt>
      <trkpt lat="48.80409" lon="2.17581">
        <ele>162.2</ele>
        <time>2015-05-11T20:06:07.538Z</time>
      </trkpt>
      <trkpt lat="48.80408" lon="2.17592">
        <ele>162.1</ele>
        <time>2015-05-11T20:06:08.553Z</time>
      </trkpt>
      <trkpt lat="48.80409" lon="2.17602">
        <ele>162.1</ele>
        <time>2015-05-11T20:06:09.545Z</time>
      </trkpt>
      <trkpt lat="48.80409" lon="2.17611">
        <ele>161.9</ele>
        <time>2015-05-11T20:06:10.488Z</time>
      </trkpt>
      <trkpt lat="48.80409" lon="2.1762">
        <ele>161.8</ele>
        <time>2015-05-11T20:06:11.491Z</time>
      </trkpt>
      <trkpt lat="48.80409" lon="2.17629">
        <ele>161.5</ele>
        <time>2015-05-11T20:06:12.510Z</time>
      </trkpt>
      <trkpt lat="48.8041" lon="2.17638">
        <ele>161</ele>
        <time>2015-05-11T20:06:13.522Z</time>
      </trkpt>
      <trkpt lat="48.80412" lon="2.17647">
        <ele>160.5</ele>
        <time>2015-05-11T20:06:14.541Z</time>
      </trkpt>
      <trkpt lat="48.80414" lon="2.17655">
        <ele>160</ele>
        <time>2015-05-11T20:06:15.475Z</time>
      </trkpt>
      <trkpt lat="48.80416" lon="2.17664">
        <ele>160</ele>
        <time>2015-05-11T20:06:16.493Z</time>
      </trkpt>
      <trkpt lat="48.80417" lon="2.17671">
        <ele>159.3</ele>
        <time>2015-05-11T20:06:17.660Z</time>
      </trkpt>
      <trkpt lat="48.80417" lon="2.17679">
        <ele>158.8</ele>
        <time>2015-05-11T20:06:18.543Z</time>
      </trkpt>
      <trkpt lat="48.80419" lon="2.17687">
        <ele>158.7</ele>
        <time>2015-05-11T20:06:19.467Z</time>
      </trkpt>
      <trkpt lat="48.80421" lon="2.17695">
        <ele>158.4</ele>
        <time>2015-05-11T20:06:20.521Z</time>
      </trkpt>
      <trkpt lat="48.80423" lon="2.17702">
        <ele>158.4</ele>
        <time>2015-05-11T20:06:21.542Z</time>
      </trkpt>
      <trkpt lat="48.80424" lon="2.1771">
        <ele>158.1</ele>
        <time>2015-05-11T20:06:22.553Z</time>
      </trkpt>
      <trkpt lat="48.80425" lon="2.17718">
        <ele>156.5</ele>
        <time>2015-05-11T20:06:23.570Z</time>
      </trkpt>
      <trkpt lat="48.80426" lon="2.17726">
        <ele>155.8</ele>
        <time>2015-05-11T20:06:24.575Z</time>
      </trkpt>
      <trkpt lat="48.80428" lon="2.17733">
        <ele>155.6</ele>
        <time>2015-05-11T20:06:25.479Z</time>
      </trkpt>
      <trkpt lat="48.8043" lon="2.1774">
        <ele>155.4</ele>
        <time>2015-05-11T20:06:26.484Z</time>
      </trkpt>
      <trkpt lat="48.80431" lon="2.17748">
        <ele>155.3</ele>
        <time>2015-05-11T20:06:27.498Z</time>
      </trkpt>
      <trkpt lat="48.80431" lon="2.17757">
        <ele>155.1</ele>
        <time>2015-05-11T20:06:28.506Z</time>
      </trkpt>
      <trkpt lat="48.80431" lon="2.17765">
        <ele>154.8</ele>
        <time>2015-05-11T20:06:29.517Z</time>
      </trkpt>
      <trkpt lat="48.80432" lon="2.17772">
        <ele>154.7</ele>
        <time>2015-05-11T20:06:30.543Z</time>
      </trkpt>
      <trkpt lat="48.80432" lon="2.1778">
        <ele>154.8</ele>
        <time>2015-05-11T20:06:31.490Z</time>
      </trkpt>
      <trkpt lat="48.80432" lon="2.17787">
        <ele>154.9</ele>
        <time>2015-05-11T20:06:32.466Z</time>
      </trkpt>
      <trkpt lat="48.80434" lon="2.17794">
        <ele>155.3</ele>
        <time>2015-05-11T20:06:33.507Z</time>
      </trkpt>
      <trkpt lat="48.80436" lon="2.17801">
        <ele>155.2</ele>
        <time>2015-05-11T20:06:34.522Z</time>
      </trkpt>
      <trkpt lat="48.80437" lon="2.17809">
        <ele>154.9</ele>
        <time>2015-05-11T20:06:35.535Z</time>
      </trkpt>
      <trkpt lat="48.80438" lon="2.17816">
        <ele>154.7</ele>
        <time>2015-05-11T20:06:36.550Z</time>
      </trkpt>
      <trkpt lat="48.80442" lon="2.17823">
        <ele>153.5</ele>
        <time>2015-05-11T20:06:37.565Z</time>
      </trkpt>
      <trkpt lat="48.80443" lon="2.17833">
        <ele>153.4</ele>
        <time>2015-05-11T20:06:38.473Z</time>
      </trkpt>
      <trkpt lat="48.80445" lon="2.17841">
        <ele>153.5</ele>
        <time>2015-05-11T20:06:39.465Z</time>
      </trkpt>
      <trkpt lat="48.80447" lon="2.17849">
        <ele>153.7</ele>
        <time>2015-05-11T20:06:40.487Z</time>
      </trkpt>
      <trkpt lat="48.80449" lon="2.17857">
        <ele>154.3</ele>
        <time>2015-05-11T20:06:41.540Z</time>
      </trkpt>
      <trkpt lat="48.8045" lon="2.17865">
        <ele>154.7</ele>
        <time>2015-05-11T20:06:42.564Z</time>
      </trkpt>
      <trkpt lat="48.80452" lon="2.17874">
        <ele>154.7</ele>
        <time>2015-05-11T20:06:43.578Z</time>
      </trkpt>
      <trkpt lat="48.80454" lon="2.17884">
        <ele>156</ele>
        <time>2015-05-11T20:06:44.493Z</time>
      </trkpt>
      <trkpt lat="48.80456" lon="2.17894">
        <ele>156.6</ele>
        <time>2015-05-11T20:06:45.566Z</time>
      </trkpt>
      <trkpt lat="48.80459" lon="2.17904">
        <ele>157.1</ele>
        <time>2015-05-11T20:06:46.541Z</time>
      </trkpt>
      <trkpt lat="48.80461" lon="2.17912">
        <ele>157.1</ele>
        <time>2015-05-11T20:06:47.549Z</time>
      </trkpt>
      <trkpt lat="48.80463" lon="2.1792">
        <ele>157</ele>
        <time>2015-05-11T20:06:48.555Z</time>
      </trkpt>
      <trkpt lat="48.80465" lon="2.17929">
        <ele>157.2</ele>
        <time>2015-05-11T20:06:49.575Z</time>
      </trkpt>
      <trkpt lat="48.80467" lon="2.17938">
        <ele>157.4</ele>
        <time>2015-05-11T20:06:50.493Z</time>
      </trkpt>
      <trkpt lat="48.80468" lon="2.17946">
        <ele>157</ele>
        <time>2015-05-11T20:06:51.496Z</time>
      </trkpt>
      <trkpt lat="48.80469" lon="2.17953">
        <ele>156.8</ele>
        <time>2015-05-11T20:06:52.503Z</time>
      </trkpt>
      <trkpt lat="48.80468" lon="2.17961">
        <ele>156.4</ele>
        <time>2015-05-11T20:06:53.526Z</time>
      </trkpt>
      <trkpt lat="48.8047" lon="2.17969">
        <ele>156.2</ele>
        <time>2015-05-11T20:06:54.537Z</time>
      </trkpt>
      <trkpt lat="48.80471" lon="2.17978">
        <ele>155.9</ele>
        <time>2015-05-11T20:06:55.545Z</time>
      </trkpt>
      <trkpt lat="48.80473" lon="2.17987">
        <ele>155.9</ele>
        <time>2015-05-11T20:06:56.554Z</time>
      </trkpt>
      <trkpt lat="48.80475" lon="2.17998">
        <ele>155.8</ele>
        <time>2015-05-11T20:06:57.564Z</time>
      </trkpt>
      <trkpt lat="48.80477" lon="2.18008">
        <ele>155.8</ele>
        <time>2015-05-11T20:06:58.496Z</time>
      </trkpt>
      <trkpt lat="48.80479" lon="2.18017">
        <ele>155.9</ele>
        <time>2015-05-11T20:06:59.492Z</time>
      </trkpt>
      <trkpt lat="48.80483" lon="2.18026">
        <ele>156.1</ele>
        <time>2015-05-11T20:07:00.516Z</time>
      </trkpt>
      <trkpt lat="48.80485" lon="2.18036">
        <ele>156.3</ele>
        <time>2015-05-11T20:07:01.523Z</time>
      </trkpt>
      <trkpt lat="48.80487" lon="2.18045">
        <ele>156.5</ele>
        <time>2015-05-11T20:07:02.534Z</time>
      </trkpt>
      <trkpt lat="48.80488" lon="2.18055">
        <ele>156.6</ele>
        <time>2015-05-11T20:07:03.550Z</time>
      </trkpt>
      <trkpt lat="48.80489" lon="2.18064">
        <ele>156.8</ele>
        <time>2015-05-11T20:07:04.558Z</time>
      </trkpt>
      <trkpt lat="48.8049" lon="2.18074">
        <ele>156.7</ele>
        <time>2015-05-11T20:07:05.486Z</time>
      </trkpt>
      <trkpt lat="48.80492" lon="2.18083">
        <ele>156.9</ele>
        <time>2015-05-11T20:07:06.589Z</time>
      </trkpt>
      <trkpt lat="48.80493" lon="2.18093">
        <ele>157</ele>
        <time>2015-05-11T20:07:07.488Z</time>
      </trkpt>
      <trkpt lat="48.80495" lon="2.18103">
        <ele>157</ele>
        <time>2015-05-11T20:07:08.496Z</time>
      </trkpt>
      <trkpt lat="48.80497" lon="2.18113">
        <ele>157.2</ele>
        <time>2015-05-11T20:07:09.516Z</time>
      </trkpt>
      <trkpt lat="48.80499" lon="2.18124">
        <ele>157.4</ele>
        <time>2015-05-11T20:07:10.526Z</time>
      </trkpt>
      <trkpt lat="48.80502" lon="2.18136">
        <ele>157.7</ele>
        <time>2015-05-11T20:07:11.534Z</time>
      </trkpt>
      <trkpt lat="48.80506" lon="2.18146">
        <ele>157.7</ele>
        <time>2015-05-11T20:07:12.539Z</time>
      </trkpt>
      <trkpt lat="48.80506" lon="2.18154">
        <ele>157.7</ele>
        <time>2015-05-11T20:07:13.552Z</time>
      </trkpt>
      <trkpt lat="48.80507" lon="2.18162">
        <ele>157.6</ele>
        <time>2015-05-11T20:07:14.559Z</time>
      </trkpt>
      <trkpt lat="48.80509" lon="2.18171">
        <ele>157.6</ele>
        <time>2015-05-11T20:07:15.567Z</time>
      </trkpt>
      <trkpt lat="48.80512" lon="2.18179">
        <ele>157.3</ele>
        <time>2015-05-11T20:07:16.491Z</time>
      </trkpt>
      <trkpt lat="48.80513" lon="2.18186">
        <ele>157.2</ele>
        <time>2015-05-11T20:07:17.491Z</time>
      </trkpt>
      <trkpt lat="48.80516" lon="2.18193">
        <ele>157.2</ele>
        <time>2015-05-11T20:07:18.539Z</time>
      </trkpt>
      <trkpt lat="48.80519" lon="2.18201">
        <ele>156.8</ele>
        <time>2015-05-11T20:07:19.535Z</time>
      </trkpt>
      <trkpt lat="48.8052" lon="2.18207">
        <ele>156.6</ele>
        <time>2015-05-11T20:07:20.552Z</time>
      </trkpt>
      <trkpt lat="48.80521" lon="2.18213">
        <ele>156.6</ele>
        <time>2015-05-11T20:07:21.569Z</time>
      </trkpt>
      <trkpt lat="48.80521" lon="2.18221">
        <ele>156.7</ele>
        <time>2015-05-11T20:07:22.487Z</time>
      </trkpt>
      <trkpt lat="48.80523" lon="2.18228">
        <ele>156.6</ele>
        <time>2015-05-11T20:07:23.488Z</time>
      </trkpt>
      <trkpt lat="48.80524" lon="2.18236">
        <ele>156.5</ele>
        <time>2015-05-11T20:07:24.531Z</time>
      </trkpt>
      <trkpt lat="48.80525" lon="2.18244">
        <ele>156.6</ele>
        <time>2015-05-11T20:07:25.527Z</time>
      </trkpt>
      <trkpt lat="48.80525" lon="2.18253">
        <ele>156.8</ele>
        <time>2015-05-11T20:07:26.577Z</time>
      </trkpt>
      <trkpt lat="48.80527" lon="2.18261">
        <ele>156.8</ele>
        <time>2015-05-11T20:07:27.565Z</time>
      </trkpt>
      <trkpt lat="48.80527" lon="2.1827">
        <ele>156.8</ele>
        <time>2015-05-11T20:07:28.577Z</time>
      </trkpt>
      <trkpt lat="48.80529" lon="2.18279">
        <ele>156.8</ele>
        <time>2015-05-11T20:07:29.485Z</time>
      </trkpt>
      <trkpt lat="48.8053" lon="2.18286">
        <ele>156.6</ele>
        <time>2015-05-11T20:07:30.504Z</time>
      </trkpt>
      <trkpt lat="48.80532" lon="2.18294">
        <ele>156.5</ele>
        <time>2015-05-11T20:07:31.545Z</time>
      </trkpt>
      <trkpt lat="48.80534" lon="2.18302">
        <ele>157.2</ele>
        <time>2015-05-11T20:07:32.553Z</time>
      </trkpt>
      <trkpt lat="48.80535" lon="2.18309">
        <ele>157.2</ele>
        <time>2015-05-11T20:07:33.564Z</time>
      </trkpt>
      <trkpt lat="48.80535" lon="2.18316">
        <ele>157.5</ele>
        <time>2015-05-11T20:07:34.486Z</time>
      </trkpt>
      <trkpt lat="48.80536" lon="2.18325">
        <ele>157.5</ele>
        <time>2015-05-11T20:07:35.469Z</time>
      </trkpt>
      <trkpt lat="48.80536" lon="2.18332">
        <ele>157.9</ele>
        <time>2015-05-11T20:07:36.533Z</time>
      </trkpt>
      <trkpt lat="48.80538" lon="2.18343">
        <ele>158.4</ele>
        <time>2015-05-11T20:07:38.479Z</time>
      </trkpt>
      <trkpt lat="48.80538" lon="2.18347">
        <ele>158.6</ele>
        <time>2015-05-11T20:07:39.584Z</time>
      </trkpt>
      <trkpt lat="48.80542" lon="2.18354">
        <ele>158.8</ele>
        <time>2015-05-11T20:08:00.512Z</time>
      </trkpt>
      <trkpt lat="48.80555" lon="2.18361">
        <ele>155.8</ele>
        <time>2015-05-11T20:08:01.521Z</time>
      </trkpt>
      <trkpt lat="48.80559" lon="2.18369">
        <ele>156</ele>
        <time>2015-05-11T20:08:03.555Z</time>
      </trkpt>
      <trkpt lat="48.80559" lon="2.18376">
        <ele>155.2</ele>
        <time>2015-05-11T20:08:04.613Z</time>
      </trkpt>
      <trkpt lat="48.80561" lon="2.18389">
        <ele>154.4</ele>
        <time>2015-05-11T20:08:06.530Z</time>
      </trkpt>
      <trkpt lat="48.80563" lon="2.18395">
        <ele>154</ele>
        <time>2015-05-11T20:08:07.549Z</time>
      </trkpt>
      <trkpt lat="48.80569" lon="2.18405">
        <ele>153.2</ele>
        <time>2015-05-11T20:08:09.508Z</time>
      </trkpt>
      <trkpt lat="48.80573" lon="2.18411">
        <ele>152.9</ele>
        <time>2015-05-11T20:08:10.529Z</time>
      </trkpt>
      <trkpt lat="48.80577" lon="2.18416">
        <ele>152.9</ele>
        <time>2015-05-11T20:08:11.591Z</time>
      </trkpt>
      <trkpt lat="48.8058" lon="2.18422">
        <ele>153</ele>
        <time>2015-05-11T20:08:12.621Z</time>
      </trkpt>
      <trkpt lat="48.80584" lon="2.18428">
        <ele>153</ele>
        <time>2015-05-11T20:08:13.490Z</time>
      </trkpt>
      <trkpt lat="48.80587" lon="2.18434">
        <ele>153.1</ele>
        <time>2015-05-11T20:08:14.490Z</time>
      </trkpt>
      <trkpt lat="48.80591" lon="2.18439">
        <ele>153.3</ele>
        <time>2015-05-11T20:08:15.501Z</time>
      </trkpt>
      <trkpt lat="48.80595" lon="2.18444">
        <ele>153.4</ele>
        <time>2015-05-11T20:08:16.509Z</time>
      </trkpt>
      <trkpt lat="48.806" lon="2.18448">
        <ele>153.1</ele>
        <time>2015-05-11T20:08:17.539Z</time>
      </trkpt>
      <trkpt lat="48.80603" lon="2.18453">
        <ele>152.9</ele>
        <time>2015-05-11T20:08:18.580Z</time>
      </trkpt>
      <trkpt lat="48.80609" lon="2.18462">
        <ele>153.1</ele>
        <time>2015-05-11T20:08:20.484Z</time>
      </trkpt>
      <trkpt lat="48.80613" lon="2.18467">
        <ele>153.2</ele>
        <time>2015-05-11T20:08:21.511Z</time>
      </trkpt>
      <trkpt lat="48.80619" lon="2.18475">
        <ele>153.6</ele>
        <time>2015-05-11T20:08:23.562Z</time>
      </trkpt>
      <trkpt lat="48.80622" lon="2.1848">
        <ele>153.6</ele>
        <time>2015-05-11T20:08:24.578Z</time>
      </trkpt>
      <trkpt lat="48.80625" lon="2.18486">
        <ele>153.7</ele>
        <time>2015-05-11T20:08:25.489Z</time>
      </trkpt>
      <trkpt lat="48.80627" lon="2.18492">
        <ele>153.6</ele>
        <time>2015-05-11T20:08:26.499Z</time>
      </trkpt>
      <trkpt lat="48.8063" lon="2.18501">
        <ele>153.4</ele>
        <time>2015-05-11T20:08:28.599Z</time>
      </trkpt>
      <trkpt lat="48.80632" lon="2.18507">
        <ele>153.3</ele>
        <time>2015-05-11T20:08:29.556Z</time>
      </trkpt>
      <trkpt lat="48.80635" lon="2.18517">
        <ele>152.8</ele>
        <time>2015-05-11T20:08:31.483Z</time>
      </trkpt>
      <trkpt lat="48.80638" lon="2.18521">
        <ele>152.4</ele>
        <time>2015-05-11T20:08:32.494Z</time>
      </trkpt>
      <trkpt lat="48.80644" lon="2.18525">
        <ele>152.4</ele>
        <time>2015-05-11T20:08:33.515Z</time>
      </trkpt>
      <trkpt lat="48.80651" lon="2.18531">
        <ele>152.3</ele>
        <time>2015-05-11T20:08:34.528Z</time>
      </trkpt>
      <trkpt lat="48.80656" lon="2.18536">
        <ele>152.3</ele>
        <time>2015-05-11T20:08:35.552Z</time>
      </trkpt>
      <trkpt lat="48.8066" lon="2.18542">
        <ele>152.5</ele>
        <time>2015-05-11T20:08:36.556Z</time>
      </trkpt>
      <trkpt lat="48.80664" lon="2.18547">
        <ele>152.8</ele>
        <time>2015-05-11T20:08:37.594Z</time>
      </trkpt>
      <trkpt lat="48.80668" lon="2.18553">
        <ele>152.9</ele>
        <time>2015-05-11T20:08:38.467Z</time>
      </trkpt>
      <trkpt lat="48.80675" lon="2.18559">
        <ele>153.1</ele>
        <time>2015-05-11T20:08:39.477Z</time>
      </trkpt>
      <trkpt lat="48.80682" lon="2.18566">
        <ele>153.1</ele>
        <time>2015-05-11T20:08:40.521Z</time>
      </trkpt>
      <trkpt lat="48.80688" lon="2.18571">
        <ele>153.2</ele>
        <time>2015-05-11T20:08:41.467Z</time>
      </trkpt>
      <trkpt lat="48.80693" lon="2.18576">
        <ele>153.3</ele>
        <time>2015-05-11T20:08:42.510Z</time>
      </trkpt>
      <trkpt lat="48.80698" lon="2.18583">
        <ele>153.7</ele>
        <time>2015-05-11T20:08:43.494Z</time>
      </trkpt>
      <trkpt lat="48.80703" lon="2.18589">
        <ele>154.2</ele>
        <time>2015-05-11T20:08:44.483Z</time>
      </trkpt>
      <trkpt lat="48.80709" lon="2.18595">
        <ele>154.8</ele>
        <time>2015-05-11T20:08:45.512Z</time>
      </trkpt>
      <trkpt lat="48.80715" lon="2.18601">
        <ele>155.2</ele>
        <time>2015-05-11T20:08:46.471Z</time>
      </trkpt>
      <trkpt lat="48.8072" lon="2.18605">
        <ele>155.6</ele>
        <time>2015-05-11T20:08:47.514Z</time>
      </trkpt>
      <trkpt lat="48.80725" lon="2.1861">
        <ele>155.8</ele>
        <time>2015-05-11T20:08:48.515Z</time>
      </trkpt>
      <trkpt lat="48.80729" lon="2.18612">
        <ele>155</ele>
        <time>2015-05-11T20:08:49.521Z</time>
      </trkpt>
      <trkpt lat="48.80734" lon="2.18615">
        <ele>154.4</ele>
        <time>2015-05-11T20:08:50.472Z</time>
      </trkpt>
      <trkpt lat="48.80739" lon="2.18619">
        <ele>154</ele>
        <time>2015-05-11T20:08:51.498Z</time>
      </trkpt>
      <trkpt lat="48.80744" lon="2.18624">
        <ele>153.7</ele>
        <time>2015-05-11T20:08:52.488Z</time>
      </trkpt>
      <trkpt lat="48.8075" lon="2.18629">
        <ele>153.1</ele>
        <time>2015-05-11T20:08:53.566Z</time>
      </trkpt>
      <trkpt lat="48.80756" lon="2.18636">
        <ele>152.7</ele>
        <time>2015-05-11T20:08:54.589Z</time>
      </trkpt>
      <trkpt lat="48.80761" lon="2.18642">
        <ele>152.6</ele>
        <time>2015-05-11T20:08:55.467Z</time>
      </trkpt>
      <trkpt lat="48.80769" lon="2.18649">
        <ele>152.8</ele>
        <time>2015-05-11T20:08:56.477Z</time>
      </trkpt>
      <trkpt lat="48.80776" lon="2.18655">
        <ele>152.7</ele>
        <time>2015-05-11T20:08:57.503Z</time>
      </trkpt>
      <trkpt lat="48.80783" lon="2.1866">
        <ele>152.6</ele>
        <time>2015-05-11T20:08:58.513Z</time>
      </trkpt>
      <trkpt lat="48.8079" lon="2.18664">
        <ele>152.6</ele>
        <time>2015-05-11T20:08:59.560Z</time>
      </trkpt>
      <trkpt lat="48.80798" lon="2.18668">
        <ele>152.2</ele>
        <time>2015-05-11T20:09:00.580Z</time>
      </trkpt>
      <trkpt lat="48.80806" lon="2.18673">
        <ele>152</ele>
        <time>2015-05-11T20:09:01.464Z</time>
      </trkpt>
      <trkpt lat="48.80812" lon="2.18678">
        <ele>151.9</ele>
        <time>2015-05-11T20:09:02.479Z</time>
      </trkpt>
      <trkpt lat="48.80818" lon="2.18684">
        <ele>152.2</ele>
        <time>2015-05-11T20:09:03.487Z</time>
      </trkpt>
      <trkpt lat="48.80823" lon="2.18691">
        <ele>152.8</ele>
        <time>2015-05-11T20:09:04.504Z</time>
      </trkpt>
      <trkpt lat="48.80827" lon="2.18698">
        <ele>153.1</ele>
        <time>2015-05-11T20:09:05.555Z</time>
      </trkpt>
      <trkpt lat="48.80832" lon="2.18705">
        <ele>153.4</ele>
        <time>2015-05-11T20:09:06.571Z</time>
      </trkpt>
      <trkpt lat="48.80836" lon="2.18712">
        <ele>153.7</ele>
        <time>2015-05-11T20:09:07.461Z</time>
      </trkpt>
      <trkpt lat="48.8084" lon="2.18719">
        <ele>154.1</ele>
        <time>2015-05-11T20:09:08.503Z</time>
      </trkpt>
      <trkpt lat="48.80844" lon="2.18726">
        <ele>154.4</ele>
        <time>2015-05-11T20:09:09.497Z</time>
      </trkpt>
      <trkpt lat="48.80848" lon="2.18732">
        <ele>154.5</ele>
        <time>2015-05-11T20:09:10.509Z</time>
      </trkpt>
      <trkpt lat="48.80851" lon="2.18738">
        <ele>154.6</ele>
        <time>2015-05-11T20:09:11.524Z</time>
      </trkpt>
      <trkpt lat="48.80857" lon="2.18743">
        <ele>154.7</ele>
        <time>2015-05-11T20:09:12.553Z</time>
      </trkpt>
      <trkpt lat="48.80863" lon="2.1875">
        <ele>154.5</ele>
        <time>2015-05-11T20:09:13.569Z</time>
      </trkpt>
      <trkpt lat="48.80867" lon="2.18754">
        <ele>153.9</ele>
        <time>2015-05-11T20:09:14.579Z</time>
      </trkpt>
      <trkpt lat="48.80872" lon="2.18758">
        <ele>152.7</ele>
        <time>2015-05-11T20:09:15.493Z</time>
      </trkpt>
      <trkpt lat="48.80877" lon="2.18764">
        <ele>152.2</ele>
        <time>2015-05-11T20:09:16.507Z</time>
      </trkpt>
      <trkpt lat="48.80883" lon="2.1877">
        <ele>152.1</ele>
        <time>2015-05-11T20:09:17.524Z</time>
      </trkpt>
      <trkpt lat="48.80888" lon="2.18775">
        <ele>152.2</ele>
        <time>2015-05-11T20:09:18.564Z</time>
      </trkpt>
      <trkpt lat="48.80894" lon="2.18779">
        <ele>151.9</ele>
        <time>2015-05-11T20:09:19.547Z</time>
      </trkpt>
      <trkpt lat="48.80898" lon="2.18784">
        <ele>151.5</ele>
        <time>2015-05-11T20:09:20.557Z</time>
      </trkpt>
      <trkpt lat="48.80902" lon="2.18789">
        <ele>151.3</ele>
        <time>2015-05-11T20:09:21.568Z</time>
      </trkpt>
      <trkpt lat="48.80904" lon="2.18795">
        <ele>151.4</ele>
        <time>2015-05-11T20:09:22.576Z</time>
      </trkpt>
      <trkpt lat="48.80907" lon="2.18801">
        <ele>151.5</ele>
        <time>2015-05-11T20:09:23.485Z</time>
      </trkpt>
      <trkpt lat="48.80913" lon="2.18809">
        <ele>151.9</ele>
        <time>2015-05-11T20:09:24.535Z</time>
      </trkpt>
      <trkpt lat="48.80915" lon="2.18816">
        <ele>151.7</ele>
        <time>2015-05-11T20:09:25.536Z</time>
      </trkpt>
      <trkpt lat="48.80917" lon="2.18822">
        <ele>151.8</ele>
        <time>2015-05-11T20:09:26.547Z</time>
      </trkpt>
      <trkpt lat="48.80919" lon="2.18835">
        <ele>151.6</ele>
        <time>2015-05-11T20:09:28.495Z</time>
      </trkpt>
      <trkpt lat="48.80921" lon="2.1884">
        <ele>151.6</ele>
        <time>2015-05-11T20:09:29.530Z</time>
      </trkpt>
      <trkpt lat="48.80923" lon="2.18847">
        <ele>151.4</ele>
        <time>2015-05-11T20:09:30.596Z</time>
      </trkpt>
      <trkpt lat="48.80927" lon="2.18854">
        <ele>151.5</ele>
        <time>2015-05-11T20:09:31.495Z</time>
      </trkpt>
      <trkpt lat="48.8093" lon="2.1886">
        <ele>151.4</ele>
        <time>2015-05-11T20:09:32.525Z</time>
      </trkpt>
      <trkpt lat="48.80933" lon="2.18866">
        <ele>151.4</ele>
        <time>2015-05-11T20:09:33.542Z</time>
      </trkpt>
      <trkpt lat="48.80936" lon="2.18872">
        <ele>151.2</ele>
        <time>2015-05-11T20:09:34.593Z</time>
      </trkpt>
      <trkpt lat="48.80939" lon="2.18878">
        <ele>151.2</ele>
        <time>2015-05-11T20:09:35.562Z</time>
      </trkpt>
      <trkpt lat="48.80942" lon="2.18884">
        <ele>151.1</ele>
        <time>2015-05-11T20:09:36.613Z</time>
      </trkpt>
      <trkpt lat="48.80945" lon="2.18889">
        <ele>151</ele>
        <time>2015-05-11T20:09:37.545Z</time>
      </trkpt>
      <trkpt lat="48.80949" lon="2.18901">
        <ele>150</ele>
        <time>2015-05-11T20:09:39.556Z</time>
      </trkpt>
      <trkpt lat="48.80951" lon="2.18906">
        <ele>149.6</ele>
        <time>2015-05-11T20:09:40.583Z</time>
      </trkpt>
      <trkpt lat="48.80952" lon="2.18916">
        <ele>148.2</ele>
        <time>2015-05-11T20:09:42.555Z</time>
      </trkpt>
      <trkpt lat="48.80955" lon="2.18921">
        <ele>148</ele>
        <time>2015-05-11T20:09:43.500Z</time>
      </trkpt>
      <trkpt lat="48.8096" lon="2.18927">
        <ele>147.8</ele>
        <time>2015-05-11T20:09:44.509Z</time>
      </trkpt>
      <trkpt lat="48.80963" lon="2.18934">
        <ele>147.8</ele>
        <time>2015-05-11T20:09:45.733Z</time>
      </trkpt>
      <trkpt lat="48.80966" lon="2.18941">
        <ele>147.9</ele>
        <time>2015-05-11T20:09:46.508Z</time>
      </trkpt>
      <trkpt lat="48.80968" lon="2.18948">
        <ele>147.9</ele>
        <time>2015-05-11T20:09:47.521Z</time>
      </trkpt>
      <trkpt lat="48.80971" lon="2.18953">
        <ele>148</ele>
        <time>2015-05-11T20:09:48.543Z</time>
      </trkpt>
      <trkpt lat="48.80974" lon="2.1896">
        <ele>147.9</ele>
        <time>2015-05-11T20:09:49.538Z</time>
      </trkpt>
      <trkpt lat="48.80977" lon="2.18966">
        <ele>148.1</ele>
        <time>2015-05-11T20:09:50.629Z</time>
      </trkpt>
      <trkpt lat="48.80979" lon="2.18972">
        <ele>148.3</ele>
        <time>2015-05-11T20:09:51.523Z</time>
      </trkpt>
      <trkpt lat="48.80983" lon="2.18984">
        <ele>148.5</ele>
        <time>2015-05-11T20:09:53.492Z</time>
      </trkpt>
      <trkpt lat="48.80985" lon="2.1899">
        <ele>148.6</ele>
        <time>2015-05-11T20:09:54.549Z</time>
      </trkpt>
      <trkpt lat="48.80989" lon="2.18995">
        <ele>148.7</ele>
        <time>2015-05-11T20:09:55.711Z</time>
      </trkpt>
      <trkpt lat="48.80991" lon="2.19002">
        <ele>148.7</ele>
        <time>2015-05-11T20:09:56.497Z</time>
      </trkpt>
      <trkpt lat="48.80994" lon="2.19007">
        <ele>149.2</ele>
        <time>2015-05-11T20:09:57.513Z</time>
      </trkpt>
      <trkpt lat="48.80997" lon="2.19012">
        <ele>149.2</ele>
        <time>2015-05-11T20:09:58.520Z</time>
      </trkpt>
      <trkpt lat="48.81" lon="2.19018">
        <ele>149.2</ele>
        <time>2015-05-11T20:09:59.461Z</time>
      </trkpt>
      <trkpt lat="48.81002" lon="2.19024">
        <ele>149.1</ele>
        <time>2015-05-11T20:10:00.501Z</time>
      </trkpt>
      <trkpt lat="48.81007" lon="2.19035">
        <ele>148.9</ele>
        <time>2015-05-11T20:10:02.474Z</time>
      </trkpt>
      <trkpt lat="48.8101" lon="2.19041">
        <ele>148.8</ele>
        <time>2015-05-11T20:10:03.526Z</time>
      </trkpt>
      <trkpt lat="48.81012" lon="2.19047">
        <ele>148.5</ele>
        <time>2015-05-11T20:10:04.558Z</time>
      </trkpt>
      <trkpt lat="48.81014" lon="2.19053">
        <ele>148.3</ele>
        <time>2015-05-11T20:10:05.468Z</time>
      </trkpt>
      <trkpt lat="48.81017" lon="2.19059">
        <ele>147.9</ele>
        <time>2015-05-11T20:10:06.552Z</time>
      </trkpt>
      <trkpt lat="48.81021" lon="2.19065">
        <ele>147.5</ele>
        <time>2015-05-11T20:10:07.551Z</time>
      </trkpt>
      <trkpt lat="48.81025" lon="2.19069">
        <ele>147.3</ele>
        <time>2015-05-11T20:10:08.484Z</time>
      </trkpt>
      <trkpt lat="48.81029" lon="2.19074">
        <ele>147.2</ele>
        <time>2015-05-11T20:10:09.484Z</time>
      </trkpt>
      <trkpt lat="48.81032" lon="2.1908">
        <ele>147.3</ele>
        <time>2015-05-11T20:10:10.457Z</time>
      </trkpt>
      <trkpt lat="48.81035" lon="2.19086">
        <ele>146.8</ele>
        <time>2015-05-11T20:10:11.487Z</time>
      </trkpt>
      <trkpt lat="48.81037" lon="2.19093">
        <ele>146.7</ele>
        <time>2015-05-11T20:10:12.541Z</time>
      </trkpt>
      <trkpt lat="48.8104" lon="2.191">
        <ele>146.7</ele>
        <time>2015-05-11T20:10:13.550Z</time>
      </trkpt>
      <trkpt lat="48.81043" lon="2.19106">
        <ele>146.4</ele>
        <time>2015-05-11T20:10:14.581Z</time>
      </trkpt>
      <trkpt lat="48.81046" lon="2.19111">
        <ele>146</ele>
        <time>2015-05-11T20:10:15.477Z</time>
      </trkpt>
      <trkpt lat="48.81049" lon="2.19118">
        <ele>146.4</ele>
        <time>2015-05-11T20:10:16.496Z</time>
      </trkpt>
      <trkpt lat="48.81052" lon="2.19123">
        <ele>146.4</ele>
        <time>2015-05-11T20:10:17.553Z</time>
      </trkpt>
      <trkpt lat="48.81057" lon="2.19134">
        <ele>146.3</ele>
        <time>2015-05-11T20:10:19.485Z</time>
      </trkpt>
      <trkpt lat="48.8106" lon="2.19139">
        <ele>146.2</ele>
        <time>2015-05-11T20:10:20.575Z</time>
      </trkpt>
      <trkpt lat="48.81065" lon="2.19151">
        <ele>146.5</ele>
        <time>2015-05-11T20:10:22.488Z</time>
      </trkpt>
      <trkpt lat="48.81068" lon="2.19156">
        <ele>146.8</ele>
        <time>2015-05-11T20:10:23.576Z</time>
      </trkpt>
      <trkpt lat="48.81072" lon="2.1916">
        <ele>147.4</ele>
        <time>2015-05-11T20:10:24.646Z</time>
      </trkpt>
      <trkpt lat="48.81077" lon="2.19163">
        <ele>147.7</ele>
        <time>2015-05-11T20:10:25.456Z</time>
      </trkpt>
      <trkpt lat="48.81081" lon="2.19166">
        <ele>147.8</ele>
        <time>2015-05-11T20:10:26.492Z</time>
      </trkpt>
      <trkpt lat="48.81086" lon="2.19168">
        <ele>147.4</ele>
        <time>2015-05-11T20:10:27.499Z</time>
      </trkpt>
      <trkpt lat="48.8109" lon="2.1917">
        <ele>147.2</ele>
        <time>2015-05-11T20:10:28.526Z</time>
      </trkpt>
      <trkpt lat="48.81095" lon="2.19171">
        <ele>147.4</ele>
        <time>2015-05-11T20:10:29.523Z</time>
      </trkpt>
      <trkpt lat="48.81099" lon="2.19173">
        <ele>147.8</ele>
        <time>2015-05-11T20:10:30.532Z</time>
      </trkpt>
      <trkpt lat="48.81105" lon="2.19174">
        <ele>148.4</ele>
        <time>2015-05-11T20:10:31.538Z</time>
      </trkpt>
      <trkpt lat="48.8111" lon="2.19176">
        <ele>148.8</ele>
        <time>2015-05-11T20:10:32.550Z</time>
      </trkpt>
      <trkpt lat="48.81116" lon="2.19177">
        <ele>149.3</ele>
        <time>2015-05-11T20:10:33.562Z</time>
      </trkpt>
      <trkpt lat="48.81121" lon="2.19179">
        <ele>150</ele>
        <time>2015-05-11T20:10:34.491Z</time>
      </trkpt>
      <trkpt lat="48.81127" lon="2.19179">
        <ele>150.6</ele>
        <time>2015-05-11T20:10:35.506Z</time>
      </trkpt>
      <trkpt lat="48.81133" lon="2.1918">
        <ele>151.1</ele>
        <time>2015-05-11T20:10:36.539Z</time>
      </trkpt>
      <trkpt lat="48.81139" lon="2.19182">
        <ele>151.5</ele>
        <time>2015-05-11T20:10:37.544Z</time>
      </trkpt>
      <trkpt lat="48.81145" lon="2.19183">
        <ele>152</ele>
        <time>2015-05-11T20:10:38.560Z</time>
      </trkpt>
      <trkpt lat="48.81152" lon="2.19185">
        <ele>152.3</ele>
        <time>2015-05-11T20:10:39.483Z</time>
      </trkpt>
      <trkpt lat="48.81157" lon="2.19186">
        <ele>152.5</ele>
        <time>2015-05-11T20:10:40.484Z</time>
      </trkpt>
      <trkpt lat="48.81163" lon="2.19187">
        <ele>152.8</ele>
        <time>2015-05-11T20:10:41.493Z</time>
      </trkpt>
      <trkpt lat="48.81167" lon="2.19188">
        <ele>153.3</ele>
        <time>2015-05-11T20:10:42.523Z</time>
      </trkpt>
      <trkpt lat="48.81173" lon="2.19188">
        <ele>153.8</ele>
        <time>2015-05-11T20:10:43.540Z</time>
      </trkpt>
      <trkpt lat="48.81178" lon="2.19188">
        <ele>154.3</ele>
        <time>2015-05-11T20:10:44.552Z</time>
      </trkpt>
      <trkpt lat="48.81184" lon="2.19188">
        <ele>155</ele>
        <time>2015-05-11T20:10:45.564Z</time>
      </trkpt>
      <trkpt lat="48.81191" lon="2.19189">
        <ele>155.5</ele>
        <time>2015-05-11T20:10:46.576Z</time>
      </trkpt>
      <trkpt lat="48.81199" lon="2.1919">
        <ele>156</ele>
        <time>2015-05-11T20:10:47.584Z</time>
      </trkpt>
      <trkpt lat="48.81207" lon="2.19191">
        <ele>156.3</ele>
        <time>2015-05-11T20:10:48.601Z</time>
      </trkpt>
      <trkpt lat="48.81215" lon="2.19192">
        <ele>156.4</ele>
        <time>2015-05-11T20:10:49.486Z</time>
      </trkpt>
      <trkpt lat="48.81224" lon="2.19192">
        <ele>156.2</ele>
        <time>2015-05-11T20:10:50.496Z</time>
      </trkpt>
      <trkpt lat="48.81232" lon="2.19193">
        <ele>155.9</ele>
        <time>2015-05-11T20:10:51.507Z</time>
      </trkpt>
      <trkpt lat="48.81239" lon="2.19193">
        <ele>155.6</ele>
        <time>2015-05-11T20:10:52.529Z</time>
      </trkpt>
      <trkpt lat="48.81247" lon="2.19194">
        <ele>155.3</ele>
        <time>2015-05-11T20:10:53.530Z</time>
      </trkpt>
      <trkpt lat="48.81255" lon="2.19195">
        <ele>155.5</ele>
        <time>2015-05-11T20:10:54.541Z</time>
      </trkpt>
      <trkpt lat="48.81264" lon="2.19197">
        <ele>155.7</ele>
        <time>2015-05-11T20:10:55.547Z</time>
      </trkpt>
      <trkpt lat="48.81272" lon="2.19198">
        <ele>156.1</ele>
        <time>2015-05-11T20:10:56.554Z</time>
      </trkpt>
      <trkpt lat="48.81281" lon="2.19201">
        <ele>156.1</ele>
        <time>2015-05-11T20:10:57.566Z</time>
      </trkpt>
      <trkpt lat="48.81289" lon="2.19204">
        <ele>156</ele>
        <time>2015-05-11T20:10:58.485Z</time>
      </trkpt>
      <trkpt lat="48.81297" lon="2.19205">
        <ele>155.9</ele>
        <time>2015-05-11T20:10:59.488Z</time>
      </trkpt>
      <trkpt lat="48.81305" lon="2.19207">
        <ele>155.9</ele>
        <time>2015-05-11T20:11:00.515Z</time>
      </trkpt>
      <trkpt lat="48.81313" lon="2.19209">
        <ele>155.8</ele>
        <time>2015-05-11T20:11:01.529Z</time>
      </trkpt>
      <trkpt lat="48.81321" lon="2.19212">
        <ele>156.2</ele>
        <time>2015-05-11T20:11:02.553Z</time>
      </trkpt>
      <trkpt lat="48.81329" lon="2.19217">
        <ele>156.6</ele>
        <time>2015-05-11T20:11:03.490Z</time>
      </trkpt>
      <trkpt lat="48.81337" lon="2.19222">
        <ele>156.9</ele>
        <time>2015-05-11T20:11:04.490Z</time>
      </trkpt>
      <trkpt lat="48.81344" lon="2.19228">
        <ele>157.3</ele>
        <time>2015-05-11T20:11:05.507Z</time>
      </trkpt>
      <trkpt lat="48.8135" lon="2.19234">
        <ele>157.5</ele>
        <time>2015-05-11T20:11:06.529Z</time>
      </trkpt>
      <trkpt lat="48.81357" lon="2.1924">
        <ele>158</ele>
        <time>2015-05-11T20:11:07.537Z</time>
      </trkpt>
      <trkpt lat="48.81364" lon="2.19245">
        <ele>158.6</ele>
        <time>2015-05-11T20:11:08.544Z</time>
      </trkpt>
      <trkpt lat="48.81373" lon="2.19251">
        <ele>159.4</ele>
        <time>2015-05-11T20:11:09.492Z</time>
      </trkpt>
      <trkpt lat="48.81381" lon="2.19257">
        <ele>159.4</ele>
        <time>2015-05-11T20:11:10.498Z</time>
      </trkpt>
      <trkpt lat="48.81388" lon="2.19263">
        <ele>159.3</ele>
        <time>2015-05-11T20:11:11.604Z</time>
      </trkpt>
      <trkpt lat="48.81397" lon="2.19268">
        <ele>158.6</ele>
        <time>2015-05-11T20:11:12.530Z</time>
      </trkpt>
      <trkpt lat="48.81405" lon="2.19273">
        <ele>159</ele>
        <time>2015-05-11T20:11:13.538Z</time>
      </trkpt>
      <trkpt lat="48.81412" lon="2.19279">
        <ele>159.8</ele>
        <time>2015-05-11T20:11:14.483Z</time>
      </trkpt>
      <trkpt lat="48.81421" lon="2.19285">
        <ele>160.3</ele>
        <time>2015-05-11T20:11:15.514Z</time>
      </trkpt>
      <trkpt lat="48.81428" lon="2.1929">
        <ele>161.1</ele>
        <time>2015-05-11T20:11:16.547Z</time>
      </trkpt>
      <trkpt lat="48.81435" lon="2.19295">
        <ele>161.8</ele>
        <time>2015-05-11T20:11:17.459Z</time>
      </trkpt>
      <trkpt lat="48.81442" lon="2.19301">
        <ele>162.5</ele>
        <time>2015-05-11T20:11:18.549Z</time>
      </trkpt>
      <trkpt lat="48.81449" lon="2.19307">
        <ele>163.3</ele>
        <time>2015-05-11T20:11:19.462Z</time>
      </trkpt>
      <trkpt lat="48.81456" lon="2.19313">
        <ele>164</ele>
        <time>2015-05-11T20:11:20.520Z</time>
      </trkpt>
      <trkpt lat="48.81462" lon="2.19318">
        <ele>164.7</ele>
        <time>2015-05-11T20:11:21.533Z</time>
      </trkpt>
      <trkpt lat="48.81468" lon="2.19323">
        <ele>165.5</ele>
        <time>2015-05-11T20:11:22.553Z</time>
      </trkpt>
      <trkpt lat="48.81474" lon="2.19327">
        <ele>165.8</ele>
        <time>2015-05-11T20:11:23.513Z</time>
      </trkpt>
      <trkpt lat="48.81479" lon="2.19332">
        <ele>166.2</ele>
        <time>2015-05-11T20:11:24.596Z</time>
      </trkpt>
      <trkpt lat="48.81485" lon="2.19336">
        <ele>166.2</ele>
        <time>2015-05-11T20:11:25.466Z</time>
      </trkpt>
      <trkpt lat="48.8149" lon="2.19341">
        <ele>166.2</ele>
        <time>2015-05-11T20:11:26.469Z</time>
      </trkpt>
      <trkpt lat="48.81495" lon="2.19345">
        <ele>166.6</ele>
        <time>2015-05-11T20:11:27.472Z</time>
      </trkpt>
      <trkpt lat="48.81501" lon="2.19348">
        <ele>167.1</ele>
        <time>2015-05-11T20:11:28.487Z</time>
      </trkpt>
      <trkpt lat="48.81506" lon="2.19352">
        <ele>167.2</ele>
        <time>2015-05-11T20:11:29.508Z</time>
      </trkpt>
      <trkpt lat="48.81512" lon="2.19355">
        <ele>167.4</ele>
        <time>2015-05-11T20:11:30.523Z</time>
      </trkpt>
      <trkpt lat="48.81518" lon="2.19359">
        <ele>168.2</ele>
        <time>2015-05-11T20:11:31.528Z</time>
      </trkpt>
      <trkpt lat="48.81524" lon="2.19363">
        <ele>168.7</ele>
        <time>2015-05-11T20:11:32.552Z</time>
      </trkpt>
      <trkpt lat="48.81529" lon="2.19367">
        <ele>169.4</ele>
        <time>2015-05-11T20:11:33.569Z</time>
      </trkpt>
      <trkpt lat="48.81535" lon="2.19372">
        <ele>170</ele>
        <time>2015-05-11T20:11:34.579Z</time>
      </trkpt>
      <trkpt lat="48.81541" lon="2.19376">
        <ele>170.3</ele>
        <time>2015-05-11T20:11:35.468Z</time>
      </trkpt>
      <trkpt lat="48.81546" lon="2.1938">
        <ele>170.4</ele>
        <time>2015-05-11T20:11:36.522Z</time>
      </trkpt>
      <trkpt lat="48.81552" lon="2.19384">
        <ele>170.5</ele>
        <time>2015-05-11T20:11:37.539Z</time>
      </trkpt>
      <trkpt lat="48.81557" lon="2.19387">
        <ele>170.8</ele>
        <time>2015-05-11T20:11:38.622Z</time>
      </trkpt>
      <trkpt lat="48.81562" lon="2.1939">
        <ele>170.9</ele>
        <time>2015-05-11T20:11:39.572Z</time>
      </trkpt>
      <trkpt lat="48.81568" lon="2.19393">
        <ele>171</ele>
        <time>2015-05-11T20:11:40.468Z</time>
      </trkpt>
      <trkpt lat="48.81574" lon="2.19397">
        <ele>171.1</ele>
        <time>2015-05-11T20:11:41.485Z</time>
      </trkpt>
      <trkpt lat="48.8158" lon="2.19402">
        <ele>171</ele>
        <time>2015-05-11T20:11:42.504Z</time>
      </trkpt>
      <trkpt lat="48.81586" lon="2.19407">
        <ele>170.7</ele>
        <time>2015-05-11T20:11:43.509Z</time>
      </trkpt>
      <trkpt lat="48.81593" lon="2.19412">
        <ele>170.3</ele>
        <time>2015-05-11T20:11:44.526Z</time>
      </trkpt>
      <trkpt lat="48.816" lon="2.19415">
        <ele>167.1</ele>
        <time>2015-05-11T20:11:45.579Z</time>
      </trkpt>
      <trkpt lat="48.81608" lon="2.19421">
        <ele>167</ele>
        <time>2015-05-11T20:11:46.517Z</time>
      </trkpt>
      <trkpt lat="48.81615" lon="2.19428">
        <ele>166.4</ele>
        <time>2015-05-11T20:11:47.467Z</time>
      </trkpt>
      <trkpt lat="48.81622" lon="2.19436">
        <ele>165.9</ele>
        <time>2015-05-11T20:11:48.502Z</time>
      </trkpt>
      <trkpt lat="48.81627" lon="2.19445">
        <ele>166.7</ele>
        <time>2015-05-11T20:11:49.561Z</time>
      </trkpt>
      <trkpt lat="48.81631" lon="2.19453">
        <ele>167.2</ele>
        <time>2015-05-11T20:11:50.580Z</time>
      </trkpt>
      <trkpt lat="48.81635" lon="2.19461">
        <ele>167</ele>
        <time>2015-05-11T20:11:51.496Z</time>
      </trkpt>
      <trkpt lat="48.81639" lon="2.19468">
        <ele>167.2</ele>
        <time>2015-05-11T20:11:52.490Z</time>
      </trkpt>
      <trkpt lat="48.81644" lon="2.19475">
        <ele>166.7</ele>
        <time>2015-05-11T20:11:53.509Z</time>
      </trkpt>
      <trkpt lat="48.81648" lon="2.19481">
        <ele>166.3</ele>
        <time>2015-05-11T20:11:54.537Z</time>
      </trkpt>
      <trkpt lat="48.81652" lon="2.19486">
        <ele>164.9</ele>
        <time>2015-05-11T20:11:55.538Z</time>
      </trkpt>
      <trkpt lat="48.81656" lon="2.19494">
        <ele>164.9</ele>
        <time>2015-05-11T20:11:56.473Z</time>
      </trkpt>
      <trkpt lat="48.8166" lon="2.19501">
        <ele>164.4</ele>
        <time>2015-05-11T20:11:57.495Z</time>
      </trkpt>
      <trkpt lat="48.81664" lon="2.19507">
        <ele>164.1</ele>
        <time>2015-05-11T20:11:58.561Z</time>
      </trkpt>
      <trkpt lat="48.81669" lon="2.19513">
        <ele>163.4</ele>
        <time>2015-05-11T20:11:59.518Z</time>
      </trkpt>
      <trkpt lat="48.81674" lon="2.19519">
        <ele>162.6</ele>
        <time>2015-05-11T20:12:00.519Z</time>
      </trkpt>
      <trkpt lat="48.8168" lon="2.19526">
        <ele>161.2</ele>
        <time>2015-05-11T20:12:01.531Z</time>
      </trkpt>
      <trkpt lat="48.81686" lon="2.19532">
        <ele>159.6</ele>
        <time>2015-05-11T20:12:02.530Z</time>
      </trkpt>
      <trkpt lat="48.8169" lon="2.19538">
        <ele>158.4</ele>
        <time>2015-05-11T20:12:03.566Z</time>
      </trkpt>
      <trkpt lat="48.81694" lon="2.19545">
        <ele>158</ele>
        <time>2015-05-11T20:12:04.572Z</time>
      </trkpt>
      <trkpt lat="48.81698" lon="2.19552">
        <ele>157.4</ele>
        <time>2015-05-11T20:12:05.510Z</time>
      </trkpt>
      <trkpt lat="48.81702" lon="2.1956">
        <ele>157.1</ele>
        <time>2015-05-11T20:12:06.530Z</time>
      </trkpt>
      <trkpt lat="48.81706" lon="2.19569">
        <ele>157</ele>
        <time>2015-05-11T20:12:07.529Z</time>
      </trkpt>
      <trkpt lat="48.81711" lon="2.19576">
        <ele>156.9</ele>
        <time>2015-05-11T20:12:08.544Z</time>
      </trkpt>
      <trkpt lat="48.81715" lon="2.19584">
        <ele>156.6</ele>
        <time>2015-05-11T20:12:09.546Z</time>
      </trkpt>
      <trkpt lat="48.81719" lon="2.19592">
        <ele>156.4</ele>
        <time>2015-05-11T20:12:10.626Z</time>
      </trkpt>
      <trkpt lat="48.81723" lon="2.19598">
        <ele>155.2</ele>
        <time>2015-05-11T20:12:11.483Z</time>
      </trkpt>
      <trkpt lat="48.81728" lon="2.19606">
        <ele>154.8</ele>
        <time>2015-05-11T20:12:12.529Z</time>
      </trkpt>
      <trkpt lat="48.81732" lon="2.19612">
        <ele>154.8</ele>
        <time>2015-05-11T20:12:13.537Z</time>
      </trkpt>
      <trkpt lat="48.81738" lon="2.19618">
        <ele>155.1</ele>
        <time>2015-05-11T20:12:14.483Z</time>
      </trkpt>
      <trkpt lat="48.81744" lon="2.19625">
        <ele>155.4</ele>
        <time>2015-05-11T20:12:15.492Z</time>
      </trkpt>
      <trkpt lat="48.81749" lon="2.19633">
        <ele>155.5</ele>
        <time>2015-05-11T20:12:16.538Z</time>
      </trkpt>
      <trkpt lat="48.81755" lon="2.1964">
        <ele>155.7</ele>
        <time>2015-05-11T20:12:17.547Z</time>
      </trkpt>
      <trkpt lat="48.8176" lon="2.19648">
        <ele>155.7</ele>
        <time>2015-05-11T20:12:18.566Z</time>
      </trkpt>
      <trkpt lat="48.81766" lon="2.19656">
        <ele>155.6</ele>
        <time>2015-05-11T20:12:19.518Z</time>
      </trkpt>
      <trkpt lat="48.81771" lon="2.19662">
        <ele>156</ele>
        <time>2015-05-11T20:12:20.532Z</time>
      </trkpt>
      <trkpt lat="48.81776" lon="2.19669">
        <ele>156.1</ele>
        <time>2015-05-11T20:12:21.534Z</time>
      </trkpt>
      <trkpt lat="48.81782" lon="2.19676">
        <ele>155.9</ele>
        <time>2015-05-11T20:12:22.545Z</time>
      </trkpt>
      <trkpt lat="48.81787" lon="2.19684">
        <ele>155.7</ele>
        <time>2015-05-11T20:12:23.558Z</time>
      </trkpt>
      <trkpt lat="48.81792" lon="2.19692">
        <ele>156</ele>
        <time>2015-05-11T20:12:24.566Z</time>
      </trkpt>
      <trkpt lat="48.81797" lon="2.19697">
        <ele>156.3</ele>
        <time>2015-05-11T20:12:25.454Z</time>
      </trkpt>
      <trkpt lat="48.81803" lon="2.19703">
        <ele>156.6</ele>
        <time>2015-05-11T20:12:26.484Z</time>
      </trkpt>
      <trkpt lat="48.81809" lon="2.19711">
        <ele>156.7</ele>
        <time>2015-05-11T20:12:27.505Z</time>
      </trkpt>
      <trkpt lat="48.81815" lon="2.19718">
        <ele>157.3</ele>
        <time>2015-05-11T20:12:28.519Z</time>
      </trkpt>
      <trkpt lat="48.81821" lon="2.19725">
        <ele>157.8</ele>
        <time>2015-05-11T20:12:29.524Z</time>
      </trkpt>
      <trkpt lat="48.81827" lon="2.19733">
        <ele>157.8</ele>
        <time>2015-05-11T20:12:30.562Z</time>
      </trkpt>
      <trkpt lat="48.81831" lon="2.19741">
        <ele>157.5</ele>
        <time>2015-05-11T20:12:31.570Z</time>
      </trkpt>
      <trkpt lat="48.81835" lon="2.19749">
        <ele>157</ele>
        <time>2015-05-11T20:12:32.487Z</time>
      </trkpt>
      <trkpt lat="48.8184" lon="2.19757">
        <ele>156.6</ele>
        <time>2015-05-11T20:12:33.481Z</time>
      </trkpt>
      <trkpt lat="48.81844" lon="2.19764">
        <ele>156.3</ele>
        <time>2015-05-11T20:12:34.500Z</time>
      </trkpt>
      <trkpt lat="48.81847" lon="2.1977">
        <ele>155.7</ele>
        <time>2015-05-11T20:12:35.508Z</time>
      </trkpt>
      <trkpt lat="48.81851" lon="2.19776">
        <ele>155.5</ele>
        <time>2015-05-11T20:12:36.528Z</time>
      </trkpt>
      <trkpt lat="48.81856" lon="2.19782">
        <ele>155.2</ele>
        <time>2015-05-11T20:12:37.536Z</time>
      </trkpt>
      <trkpt lat="48.81862" lon="2.19788">
        <ele>154.8</ele>
        <time>2015-05-11T20:12:38.566Z</time>
      </trkpt>
      <trkpt lat="48.81867" lon="2.19794">
        <ele>153.9</ele>
        <time>2015-05-11T20:12:39.483Z</time>
      </trkpt>
      <trkpt lat="48.81873" lon="2.198">
        <ele>154.3</ele>
        <time>2015-05-11T20:12:40.487Z</time>
      </trkpt>
      <trkpt lat="48.81878" lon="2.19806">
        <ele>154.1</ele>
        <time>2015-05-11T20:12:41.496Z</time>
      </trkpt>
      <trkpt lat="48.81884" lon="2.19813">
        <ele>154.2</ele>
        <time>2015-05-11T20:12:42.528Z</time>
      </trkpt>
      <trkpt lat="48.81887" lon="2.1982">
        <ele>154.5</ele>
        <time>2015-05-11T20:12:43.531Z</time>
      </trkpt>
      <trkpt lat="48.81892" lon="2.19827">
        <ele>154.9</ele>
        <time>2015-05-11T20:12:44.546Z</time>
      </trkpt>
      <trkpt lat="48.81898" lon="2.19834">
        <ele>155.3</ele>
        <time>2015-05-11T20:12:45.550Z</time>
      </trkpt>
      <trkpt lat="48.81903" lon="2.19842">
        <ele>155</ele>
        <time>2015-05-11T20:12:46.574Z</time>
      </trkpt>
      <trkpt lat="48.81907" lon="2.1985">
        <ele>155</ele>
        <time>2015-05-11T20:12:47.484Z</time>
      </trkpt>
      <trkpt lat="48.8191" lon="2.19858">
        <ele>155.2</ele>
        <time>2015-05-11T20:12:48.539Z</time>
      </trkpt>
      <trkpt lat="48.81914" lon="2.19866">
        <ele>155.3</ele>
        <time>2015-05-11T20:12:49.553Z</time>
      </trkpt>
      <trkpt lat="48.81918" lon="2.19873">
        <ele>155.3</ele>
        <time>2015-05-11T20:12:50.563Z</time>
      </trkpt>
      <trkpt lat="48.81922" lon="2.1988">
        <ele>155.1</ele>
        <time>2015-05-11T20:12:51.455Z</time>
      </trkpt>
      <trkpt lat="48.81925" lon="2.19887">
        <ele>154.8</ele>
        <time>2015-05-11T20:12:52.483Z</time>
      </trkpt>
      <trkpt lat="48.8193" lon="2.19893">
        <ele>153.8</ele>
        <time>2015-05-11T20:12:53.486Z</time>
      </trkpt>
      <trkpt lat="48.81933" lon="2.19899">
        <ele>152.7</ele>
        <time>2015-05-11T20:12:54.533Z</time>
      </trkpt>
      <trkpt lat="48.81937" lon="2.19905">
        <ele>151.5</ele>
        <time>2015-05-11T20:12:55.543Z</time>
      </trkpt>
      <trkpt lat="48.81941" lon="2.19913">
        <ele>151.4</ele>
        <time>2015-05-11T20:12:56.550Z</time>
      </trkpt>
      <trkpt lat="48.81944" lon="2.1992">
        <ele>151.5</ele>
        <time>2015-05-11T20:12:57.559Z</time>
      </trkpt>
      <trkpt lat="48.81948" lon="2.19929">
        <ele>151.7</ele>
        <time>2015-05-11T20:12:58.459Z</time>
      </trkpt>
      <trkpt lat="48.81954" lon="2.19936">
        <ele>152.2</ele>
        <time>2015-05-11T20:12:59.466Z</time>
      </trkpt>
      <trkpt lat="48.81958" lon="2.19943">
        <ele>152.7</ele>
        <time>2015-05-11T20:13:00.511Z</time>
      </trkpt>
      <trkpt lat="48.81962" lon="2.19952">
        <ele>153.3</ele>
        <time>2015-05-11T20:13:01.523Z</time>
      </trkpt>
      <trkpt lat="48.81966" lon="2.1996">
        <ele>153.3</ele>
        <time>2015-05-11T20:13:02.453Z</time>
      </trkpt>
      <trkpt lat="48.8197" lon="2.19964">
        <ele>151.5</ele>
        <time>2015-05-11T20:13:03.486Z</time>
      </trkpt>
      <trkpt lat="48.81976" lon="2.1997">
        <ele>150.8</ele>
        <time>2015-05-11T20:13:04.561Z</time>
      </trkpt>
      <trkpt lat="48.8198" lon="2.19977">
        <ele>150.8</ele>
        <time>2015-05-11T20:13:05.532Z</time>
      </trkpt>
      <trkpt lat="48.81984" lon="2.19985">
        <ele>150.7</ele>
        <time>2015-05-11T20:13:06.523Z</time>
      </trkpt>
      <trkpt lat="48.81988" lon="2.19992">
        <ele>150.8</ele>
        <time>2015-05-11T20:13:07.483Z</time>
      </trkpt>
      <trkpt lat="48.81992" lon="2.2">
        <ele>151</ele>
        <time>2015-05-11T20:13:08.495Z</time>
      </trkpt>
      <trkpt lat="48.81996" lon="2.20007">
        <ele>151.5</ele>
        <time>2015-05-11T20:13:09.499Z</time>
      </trkpt>
      <trkpt lat="48.82001" lon="2.20013">
        <ele>152.2</ele>
        <time>2015-05-11T20:13:10.525Z</time>
      </trkpt>
      <trkpt lat="48.82005" lon="2.20021">
        <ele>152.3</ele>
        <time>2015-05-11T20:13:11.545Z</time>
      </trkpt>
      <trkpt lat="48.8201" lon="2.20027">
        <ele>152.7</ele>
        <time>2015-05-11T20:13:12.556Z</time>
      </trkpt>
      <trkpt lat="48.82014" lon="2.20036">
        <ele>152.9</ele>
        <time>2015-05-11T20:13:13.470Z</time>
      </trkpt>
      <trkpt lat="48.8202" lon="2.20045">
        <ele>152.9</ele>
        <time>2015-05-11T20:13:14.570Z</time>
      </trkpt>
      <trkpt lat="48.82026" lon="2.20054">
        <ele>152.7</ele>
        <time>2015-05-11T20:13:15.535Z</time>
      </trkpt>
      <trkpt lat="48.82031" lon="2.20062">
        <ele>152.9</ele>
        <time>2015-05-11T20:13:16.518Z</time>
      </trkpt>
      <trkpt lat="48.82035" lon="2.20071">
        <ele>153.5</ele>
        <time>2015-05-11T20:13:17.514Z</time>
      </trkpt>
      <trkpt lat="48.82042" lon="2.20081">
        <ele>154.4</ele>
        <time>2015-05-11T20:13:18.554Z</time>
      </trkpt>
      <trkpt lat="48.82049" lon="2.20089">
        <ele>154.1</ele>
        <time>2015-05-11T20:13:19.543Z</time>
      </trkpt>
      <trkpt lat="48.82054" lon="2.20099">
        <ele>154.4</ele>
        <time>2015-05-11T20:13:20.576Z</time>
      </trkpt>
      <trkpt lat="48.82059" lon="2.20107">
        <ele>154.4</ele>
        <time>2015-05-11T20:13:21.459Z</time>
      </trkpt>
      <trkpt lat="48.82063" lon="2.20115">
        <ele>154</ele>
        <time>2015-05-11T20:13:22.486Z</time>
      </trkpt>
      <trkpt lat="48.82069" lon="2.20124">
        <ele>154</ele>
        <time>2015-05-11T20:13:23.517Z</time>
      </trkpt>
      <trkpt lat="48.82074" lon="2.20134">
        <ele>153.9</ele>
        <time>2015-05-11T20:13:24.523Z</time>
      </trkpt>
      <trkpt lat="48.82079" lon="2.20143">
        <ele>153.8</ele>
        <time>2015-05-11T20:13:25.536Z</time>
      </trkpt>
      <trkpt lat="48.82084" lon="2.20152">
        <ele>154.1</ele>
        <time>2015-05-11T20:13:26.541Z</time>
      </trkpt>
      <trkpt lat="48.82089" lon="2.20161">
        <ele>154.3</ele>
        <time>2015-05-11T20:13:27.554Z</time>
      </trkpt>
      <trkpt lat="48.82095" lon="2.2017">
        <ele>154.7</ele>
        <time>2015-05-11T20:13:28.572Z</time>
      </trkpt>
      <trkpt lat="48.821" lon="2.2018">
        <ele>155.2</ele>
        <time>2015-05-11T20:13:29.483Z</time>
      </trkpt>
      <trkpt lat="48.82105" lon="2.2019">
        <ele>155.6</ele>
        <time>2015-05-11T20:13:30.518Z</time>
      </trkpt>
      <trkpt lat="48.82109" lon="2.20201">
        <ele>155.9</ele>
        <time>2015-05-11T20:13:31.530Z</time>
      </trkpt>
      <trkpt lat="48.82113" lon="2.20211">
        <ele>155.7</ele>
        <time>2015-05-11T20:13:32.542Z</time>
      </trkpt>
      <trkpt lat="48.82119" lon="2.2022">
        <ele>155.8</ele>
        <time>2015-05-11T20:13:33.547Z</time>
      </trkpt>
      <trkpt lat="48.82124" lon="2.2023">
        <ele>156.4</ele>
        <time>2015-05-11T20:13:34.554Z</time>
      </trkpt>
      <trkpt lat="48.82129" lon="2.2024">
        <ele>156.7</ele>
        <time>2015-05-11T20:13:35.470Z</time>
      </trkpt>
      <trkpt lat="48.82135" lon="2.2025">
        <ele>157.1</ele>
        <time>2015-05-11T20:13:36.511Z</time>
      </trkpt>
      <trkpt lat="48.8214" lon="2.2026">
        <ele>157.7</ele>
        <time>2015-05-11T20:13:37.524Z</time>
      </trkpt>
      <trkpt lat="48.82144" lon="2.20271">
        <ele>158.2</ele>
        <time>2015-05-11T20:13:38.532Z</time>
      </trkpt>
      <trkpt lat="48.82146" lon="2.20281">
        <ele>157.6</ele>
        <time>2015-05-11T20:13:39.555Z</time>
      </trkpt>
      <trkpt lat="48.82148" lon="2.20292">
        <ele>157.2</ele>
        <time>2015-05-11T20:13:40.550Z</time>
      </trkpt>
      <trkpt lat="48.8215" lon="2.20302">
        <ele>156.8</ele>
        <time>2015-05-11T20:13:41.440Z</time>
      </trkpt>
      <trkpt lat="48.82151" lon="2.20313">
        <ele>156.2</ele>
        <time>2015-05-11T20:13:42.496Z</time>
      </trkpt>
      <trkpt lat="48.82153" lon="2.20323">
        <ele>155.8</ele>
        <time>2015-05-11T20:13:43.509Z</time>
      </trkpt>
      <trkpt lat="48.82156" lon="2.20333">
        <ele>155</ele>
        <time>2015-05-11T20:13:44.513Z</time>
      </trkpt>
      <trkpt lat="48.82157" lon="2.20344">
        <ele>154.4</ele>
        <time>2015-05-11T20:13:45.435Z</time>
      </trkpt>
      <trkpt lat="48.82159" lon="2.20354">
        <ele>154.2</ele>
        <time>2015-05-11T20:13:46.437Z</time>
      </trkpt>
      <trkpt lat="48.82161" lon="2.20365">
        <ele>153.9</ele>
        <time>2015-05-11T20:13:47.464Z</time>
      </trkpt>
      <trkpt lat="48.82163" lon="2.20375">
        <ele>153.8</ele>
        <time>2015-05-11T20:13:48.529Z</time>
      </trkpt>
      <trkpt lat="48.82165" lon="2.20385">
        <ele>153.9</ele>
        <time>2015-05-11T20:13:49.465Z</time>
      </trkpt>
      <trkpt lat="48.82167" lon="2.20396">
        <ele>153.8</ele>
        <time>2015-05-11T20:13:50.481Z</time>
      </trkpt>
      <trkpt lat="48.82169" lon="2.20406">
        <ele>154.2</ele>
        <time>2015-05-11T20:13:51.484Z</time>
      </trkpt>
      <trkpt lat="48.82171" lon="2.20416">
        <ele>154</ele>
        <time>2015-05-11T20:13:52.493Z</time>
      </trkpt>
      <trkpt lat="48.82173" lon="2.20426">
        <ele>154.2</ele>
        <time>2015-05-11T20:13:53.509Z</time>
      </trkpt>
      <trkpt lat="48.82175" lon="2.20436">
        <ele>154.7</ele>
        <time>2015-05-11T20:13:54.516Z</time>
      </trkpt>
      <trkpt lat="48.82176" lon="2.20445">
        <ele>154.5</ele>
        <time>2015-05-11T20:13:55.528Z</time>
      </trkpt>
      <trkpt lat="48.82177" lon="2.20455">
        <ele>154.1</ele>
        <time>2015-05-11T20:13:56.437Z</time>
      </trkpt>
      <trkpt lat="48.82177" lon="2.20464">
        <ele>153.9</ele>
        <time>2015-05-11T20:13:57.464Z</time>
      </trkpt>
      <trkpt lat="48.82178" lon="2.20474">
        <ele>153.9</ele>
        <time>2015-05-11T20:13:58.494Z</time>
      </trkpt>
      <trkpt lat="48.82179" lon="2.20483">
        <ele>153.8</ele>
        <time>2015-05-11T20:13:59.508Z</time>
      </trkpt>
      <trkpt lat="48.8218" lon="2.20491">
        <ele>153.8</ele>
        <time>2015-05-11T20:14:00.517Z</time>
      </trkpt>
      <trkpt lat="48.82182" lon="2.20512">
        <ele>153.9</ele>
        <time>2015-05-11T20:14:02.605Z</time>
      </trkpt>
      <trkpt lat="48.82184" lon="2.20522">
        <ele>153.9</ele>
        <time>2015-05-11T20:14:03.472Z</time>
      </trkpt>
      <trkpt lat="48.82186" lon="2.20532">
        <ele>153.8</ele>
        <time>2015-05-11T20:14:04.498Z</time>
      </trkpt>
      <trkpt lat="48.82188" lon="2.20544">
        <ele>153.6</ele>
        <time>2015-05-11T20:14:05.507Z</time>
      </trkpt>
      <trkpt lat="48.82189" lon="2.20554">
        <ele>153.5</ele>
        <time>2015-05-11T20:14:06.513Z</time>
      </trkpt>
      <trkpt lat="48.82191" lon="2.20565">
        <ele>153.5</ele>
        <time>2015-05-11T20:14:07.541Z</time>
      </trkpt>
      <trkpt lat="48.82194" lon="2.20575">
        <ele>153.5</ele>
        <time>2015-05-11T20:14:08.458Z</time>
      </trkpt>
      <trkpt lat="48.82196" lon="2.20585">
        <ele>153.3</ele>
        <time>2015-05-11T20:14:09.470Z</time>
      </trkpt>
      <trkpt lat="48.82199" lon="2.20595">
        <ele>153.2</ele>
        <time>2015-05-11T20:14:10.480Z</time>
      </trkpt>
      <trkpt lat="48.82201" lon="2.20606">
        <ele>153.2</ele>
        <time>2015-05-11T20:14:11.529Z</time>
      </trkpt>
      <trkpt lat="48.82203" lon="2.20616">
        <ele>153.2</ele>
        <time>2015-05-11T20:14:12.537Z</time>
      </trkpt>
      <trkpt lat="48.82205" lon="2.20627">
        <ele>152.8</ele>
        <time>2015-05-11T20:14:13.560Z</time>
      </trkpt>
      <trkpt lat="48.82207" lon="2.20636">
        <ele>151.6</ele>
        <time>2015-05-11T20:14:14.491Z</time>
      </trkpt>
      <trkpt lat="48.82209" lon="2.20645">
        <ele>150.1</ele>
        <time>2015-05-11T20:14:15.508Z</time>
      </trkpt>
      <trkpt lat="48.82209" lon="2.20655">
        <ele>149.6</ele>
        <time>2015-05-11T20:14:16.523Z</time>
      </trkpt>
      <trkpt lat="48.82211" lon="2.20666">
        <ele>149</ele>
        <time>2015-05-11T20:14:17.529Z</time>
      </trkpt>
      <trkpt lat="48.82213" lon="2.20674">
        <ele>147.1</ele>
        <time>2015-05-11T20:14:18.561Z</time>
      </trkpt>
      <trkpt lat="48.82216" lon="2.20682">
        <ele>144.8</ele>
        <time>2015-05-11T20:14:19.617Z</time>
      </trkpt>
      <trkpt lat="48.82219" lon="2.20691">
        <ele>142.7</ele>
        <time>2015-05-11T20:14:20.475Z</time>
      </trkpt>
      <trkpt lat="48.82221" lon="2.207">
        <ele>141.1</ele>
        <time>2015-05-11T20:14:21.504Z</time>
      </trkpt>
      <trkpt lat="48.82223" lon="2.2071">
        <ele>139.9</ele>
        <time>2015-05-11T20:14:22.538Z</time>
      </trkpt>
      <trkpt lat="48.82225" lon="2.20719">
        <ele>138.8</ele>
        <time>2015-05-11T20:14:23.564Z</time>
      </trkpt>
      <trkpt lat="48.82226" lon="2.20729">
        <ele>136.6</ele>
        <time>2015-05-11T20:14:24.552Z</time>
      </trkpt>
      <trkpt lat="48.82227" lon="2.20737">
        <ele>135.3</ele>
        <time>2015-05-11T20:14:25.569Z</time>
      </trkpt>
      <trkpt lat="48.8223" lon="2.20746">
        <ele>134.7</ele>
        <time>2015-05-11T20:14:26.509Z</time>
      </trkpt>
      <trkpt lat="48.82232" lon="2.20756">
        <ele>134</ele>
        <time>2015-05-11T20:14:27.490Z</time>
      </trkpt>
      <trkpt lat="48.82234" lon="2.20764">
        <ele>132.6</ele>
        <time>2015-05-11T20:14:28.487Z</time>
      </trkpt>
      <trkpt lat="48.82237" lon="2.20771">
        <ele>129</ele>
        <time>2015-05-11T20:14:29.495Z</time>
      </trkpt>
      <trkpt lat="48.82241" lon="2.20779">
        <ele>127.3</ele>
        <time>2015-05-11T20:14:30.544Z</time>
      </trkpt>
      <trkpt lat="48.82245" lon="2.20786">
        <ele>126.2</ele>
        <time>2015-05-11T20:14:31.565Z</time>
      </trkpt>
      <trkpt lat="48.8225" lon="2.20793">
        <ele>125.3</ele>
        <time>2015-05-11T20:14:32.481Z</time>
      </trkpt>
      <trkpt lat="48.82255" lon="2.208">
        <ele>124.6</ele>
        <time>2015-05-11T20:14:33.477Z</time>
      </trkpt>
      <trkpt lat="48.82258" lon="2.20808">
        <ele>123.9</ele>
        <time>2015-05-11T20:14:34.483Z</time>
      </trkpt>
      <trkpt lat="48.82262" lon="2.20816">
        <ele>124</ele>
        <time>2015-05-11T20:14:35.485Z</time>
      </trkpt>
      <trkpt lat="48.82267" lon="2.20824">
        <ele>124.4</ele>
        <time>2015-05-11T20:14:36.535Z</time>
      </trkpt>
      <trkpt lat="48.82271" lon="2.20831">
        <ele>125.1</ele>
        <time>2015-05-11T20:14:37.532Z</time>
      </trkpt>
      <trkpt lat="48.82273" lon="2.20839">
        <ele>125.6</ele>
        <time>2015-05-11T20:14:38.540Z</time>
      </trkpt>
      <trkpt lat="48.82276" lon="2.20846">
        <ele>125.9</ele>
        <time>2015-05-11T20:14:39.482Z</time>
      </trkpt>
      <trkpt lat="48.8228" lon="2.20853">
        <ele>126.1</ele>
        <time>2015-05-11T20:14:40.484Z</time>
      </trkpt>
      <trkpt lat="48.82283" lon="2.2086">
        <ele>126.1</ele>
        <time>2015-05-11T20:14:41.496Z</time>
      </trkpt>
      <trkpt lat="48.82285" lon="2.20868">
        <ele>126</ele>
        <time>2015-05-11T20:14:42.514Z</time>
      </trkpt>
      <trkpt lat="48.82287" lon="2.20876">
        <ele>126.1</ele>
        <time>2015-05-11T20:14:43.528Z</time>
      </trkpt>
      <trkpt lat="48.82288" lon="2.20883">
        <ele>126.1</ele>
        <time>2015-05-11T20:14:44.549Z</time>
      </trkpt>
      <trkpt lat="48.8229" lon="2.20891">
        <ele>126.2</ele>
        <time>2015-05-11T20:14:45.450Z</time>
      </trkpt>
      <trkpt lat="48.82292" lon="2.20898">
        <ele>125.9</ele>
        <time>2015-05-11T20:14:46.458Z</time>
      </trkpt>
      <trkpt lat="48.82295" lon="2.20905">
        <ele>125.9</ele>
        <time>2015-05-11T20:14:47.485Z</time>
      </trkpt>
      <trkpt lat="48.82297" lon="2.20911">
        <ele>125.5</ele>
        <time>2015-05-11T20:14:48.525Z</time>
      </trkpt>
      <trkpt lat="48.823" lon="2.20918">
        <ele>125</ele>
        <time>2015-05-11T20:14:49.529Z</time>
      </trkpt>
      <trkpt lat="48.82303" lon="2.20925">
        <ele>124.8</ele>
        <time>2015-05-11T20:14:50.550Z</time>
      </trkpt>
      <trkpt lat="48.82306" lon="2.20933">
        <ele>124.9</ele>
        <time>2015-05-11T20:14:51.564Z</time>
      </trkpt>
      <trkpt lat="48.82309" lon="2.20941">
        <ele>125</ele>
        <time>2015-05-11T20:14:52.466Z</time>
      </trkpt>
      <trkpt lat="48.82312" lon="2.20948">
        <ele>125.1</ele>
        <time>2015-05-11T20:14:53.478Z</time>
      </trkpt>
      <trkpt lat="48.82315" lon="2.20956">
        <ele>125</ele>
        <time>2015-05-11T20:14:54.516Z</time>
      </trkpt>
      <trkpt lat="48.82318" lon="2.20964">
        <ele>125.1</ele>
        <time>2015-05-11T20:14:55.531Z</time>
      </trkpt>
      <trkpt lat="48.8232" lon="2.20972">
        <ele>125.3</ele>
        <time>2015-05-11T20:14:56.544Z</time>
      </trkpt>
      <trkpt lat="48.82323" lon="2.20979">
        <ele>125.3</ele>
        <time>2015-05-11T20:14:57.545Z</time>
      </trkpt>
      <trkpt lat="48.82327" lon="2.20987">
        <ele>125.2</ele>
        <time>2015-05-11T20:14:58.561Z</time>
      </trkpt>
      <trkpt lat="48.8233" lon="2.20995">
        <ele>125</ele>
        <time>2015-05-11T20:14:59.482Z</time>
      </trkpt>
      <trkpt lat="48.82336" lon="2.21003">
        <ele>125.9</ele>
        <time>2015-05-11T20:15:00.525Z</time>
      </trkpt>
      <trkpt lat="48.8234" lon="2.21012">
        <ele>126</ele>
        <time>2015-05-11T20:15:01.536Z</time>
      </trkpt>
      <trkpt lat="48.82342" lon="2.2102">
        <ele>126</ele>
        <time>2015-05-11T20:15:02.545Z</time>
      </trkpt>
      <trkpt lat="48.82343" lon="2.21028">
        <ele>125.9</ele>
        <time>2015-05-11T20:15:03.567Z</time>
      </trkpt>
      <trkpt lat="48.82345" lon="2.21036">
        <ele>124.3</ele>
        <time>2015-05-11T20:15:04.488Z</time>
      </trkpt>
      <trkpt lat="48.82348" lon="2.21044">
        <ele>124.5</ele>
        <time>2015-05-11T20:15:05.490Z</time>
      </trkpt>
      <trkpt lat="48.82352" lon="2.21052">
        <ele>124.6</ele>
        <time>2015-05-11T20:15:06.520Z</time>
      </trkpt>
      <trkpt lat="48.82355" lon="2.2106">
        <ele>124.7</ele>
        <time>2015-05-11T20:15:07.531Z</time>
      </trkpt>
      <trkpt lat="48.82358" lon="2.21068">
        <ele>124.5</ele>
        <time>2015-05-11T20:15:08.539Z</time>
      </trkpt>
      <trkpt lat="48.82362" lon="2.21077">
        <ele>125.1</ele>
        <time>2015-05-11T20:15:09.567Z</time>
      </trkpt>
      <trkpt lat="48.82367" lon="2.21085">
        <ele>125.2</ele>
        <time>2015-05-11T20:15:10.481Z</time>
      </trkpt>
      <trkpt lat="48.82372" lon="2.21093">
        <ele>125.2</ele>
        <time>2015-05-11T20:15:11.482Z</time>
      </trkpt>
      <trkpt lat="48.82377" lon="2.211">
        <ele>124.7</ele>
        <time>2015-05-11T20:15:12.503Z</time>
      </trkpt>
      <trkpt lat="48.82382" lon="2.21108">
        <ele>124.4</ele>
        <time>2015-05-11T20:15:13.513Z</time>
      </trkpt>
      <trkpt lat="48.82388" lon="2.21115">
        <ele>124.3</ele>
        <time>2015-05-11T20:15:14.522Z</time>
      </trkpt>
      <trkpt lat="48.82394" lon="2.21123">
        <ele>124.1</ele>
        <time>2015-05-11T20:15:15.528Z</time>
      </trkpt>
      <trkpt lat="48.82398" lon="2.2113">
        <ele>124.2</ele>
        <time>2015-05-11T20:15:16.540Z</time>
      </trkpt>
      <trkpt lat="48.82402" lon="2.21138">
        <ele>124.2</ele>
        <time>2015-05-11T20:15:17.545Z</time>
      </trkpt>
      <trkpt lat="48.82406" lon="2.21145">
        <ele>124.4</ele>
        <time>2015-05-11T20:15:18.551Z</time>
      </trkpt>
      <trkpt lat="48.8241" lon="2.21152">
        <ele>124.6</ele>
        <time>2015-05-11T20:15:19.457Z</time>
      </trkpt>
      <trkpt lat="48.82414" lon="2.21161">
        <ele>124.3</ele>
        <time>2015-05-11T20:15:20.485Z</time>
      </trkpt>
      <trkpt lat="48.82418" lon="2.21169">
        <ele>123.9</ele>
        <time>2015-05-11T20:15:21.496Z</time>
      </trkpt>
      <trkpt lat="48.82422" lon="2.21178">
        <ele>123.6</ele>
        <time>2015-05-11T20:15:22.504Z</time>
      </trkpt>
      <trkpt lat="48.82426" lon="2.21187">
        <ele>123.4</ele>
        <time>2015-05-11T20:15:23.533Z</time>
      </trkpt>
      <trkpt lat="48.82428" lon="2.21195">
        <ele>123.2</ele>
        <time>2015-05-11T20:15:24.537Z</time>
      </trkpt>
      <trkpt lat="48.82431" lon="2.21203">
        <ele>122.9</ele>
        <time>2015-05-11T20:15:25.466Z</time>
      </trkpt>
      <trkpt lat="48.82432" lon="2.21212">
        <ele>122.1</ele>
        <time>2015-05-11T20:15:26.480Z</time>
      </trkpt>
      <trkpt lat="48.82432" lon="2.2122">
        <ele>121.6</ele>
        <time>2015-05-11T20:15:27.467Z</time>
      </trkpt>
      <trkpt lat="48.82432" lon="2.21227">
        <ele>121</ele>
        <time>2015-05-11T20:15:28.478Z</time>
      </trkpt>
      <trkpt lat="48.82435" lon="2.21239">
        <ele>120.1</ele>
        <time>2015-05-11T20:15:31.594Z</time>
      </trkpt>
      <trkpt lat="48.82436" lon="2.21243">
        <ele>120.1</ele>
        <time>2015-05-11T20:15:32.512Z</time>
      </trkpt>
      <trkpt lat="48.82438" lon="2.21255">
        <ele>118.4</ele>
        <time>2015-05-11T20:15:36.583Z</time>
      </trkpt>
      <trkpt lat="48.82438" lon="2.21257">
        <ele>118.1</ele>
        <time>2015-05-11T20:15:37.511Z</time>
      </trkpt>
      <trkpt lat="48.82439" lon="2.21269">
        <ele>115.7</ele>
        <time>2015-05-11T20:15:42.552Z</time>
      </trkpt>
      <trkpt lat="48.8244" lon="2.21272">
        <ele>115.8</ele>
        <time>2015-05-11T20:15:43.553Z</time>
      </trkpt>
      <trkpt lat="48.82443" lon="2.21282">
        <ele>114.9</ele>
        <time>2015-05-11T20:15:47.576Z</time>
      </trkpt>
      <trkpt lat="48.82443" lon="2.21285">
        <ele>114.7</ele>
        <time>2015-05-11T20:15:48.575Z</time>
      </trkpt>
      <trkpt lat="48.82447" lon="2.21297">
        <ele>112.5</ele>
        <time>2015-05-11T20:15:52.524Z</time>
      </trkpt>
      <trkpt lat="48.82447" lon="2.213">
        <ele>112.6</ele>
        <time>2015-05-11T20:15:53.503Z</time>
      </trkpt>
      <trkpt lat="48.82451" lon="2.2131">
        <ele>112.6</ele>
        <time>2015-05-11T20:15:57.505Z</time>
      </trkpt>
      <trkpt lat="48.82453" lon="2.21312">
        <ele>112.2</ele>
        <time>2015-05-11T20:15:58.578Z</time>
      </trkpt>
      <trkpt lat="48.82456" lon="2.21322">
        <ele>112.2</ele>
        <time>2015-05-11T20:16:01.605Z</time>
      </trkpt>
      <trkpt lat="48.82458" lon="2.21326">
        <ele>112</ele>
        <time>2015-05-11T20:16:02.468Z</time>
      </trkpt>
      <trkpt lat="48.82461" lon="2.21335">
        <ele>111.5</ele>
        <time>2015-05-11T20:16:04.529Z</time>
      </trkpt>
      <trkpt lat="48.82462" lon="2.21339">
        <ele>111.3</ele>
        <time>2015-05-11T20:16:05.543Z</time>
      </trkpt>
      <trkpt lat="48.82464" lon="2.21348">
        <ele>110.8</ele>
        <time>2015-05-11T20:16:07.566Z</time>
      </trkpt>
      <trkpt lat="48.82466" lon="2.21353">
        <ele>110.7</ele>
        <time>2015-05-11T20:16:08.477Z</time>
      </trkpt>
      <trkpt lat="48.82468" lon="2.21363">
        <ele>110.5</ele>
        <time>2015-05-11T20:16:10.484Z</time>
      </trkpt>
      <trkpt lat="48.82469" lon="2.21368">
        <ele>110.1</ele>
        <time>2015-05-11T20:16:11.492Z</time>
      </trkpt>
      <trkpt lat="48.82474" lon="2.21378">
        <ele>109.8</ele>
        <time>2015-05-11T20:16:13.561Z</time>
      </trkpt>
      <trkpt lat="48.82475" lon="2.21383">
        <ele>109.5</ele>
        <time>2015-05-11T20:16:14.569Z</time>
      </trkpt>
      <trkpt lat="48.82478" lon="2.21394">
        <ele>109.2</ele>
        <time>2015-05-11T20:16:16.474Z</time>
      </trkpt>
      <trkpt lat="48.8248" lon="2.214">
        <ele>108.9</ele>
        <time>2015-05-11T20:16:17.579Z</time>
      </trkpt>
      <trkpt lat="48.82483" lon="2.21405">
        <ele>108.8</ele>
        <time>2015-05-11T20:16:18.544Z</time>
      </trkpt>
      <trkpt lat="48.82486" lon="2.21411">
        <ele>108.8</ele>
        <time>2015-05-11T20:16:19.554Z</time>
      </trkpt>
      <trkpt lat="48.82488" lon="2.21418">
        <ele>108.8</ele>
        <time>2015-05-11T20:16:20.567Z</time>
      </trkpt>
      <trkpt lat="48.8249" lon="2.21426">
        <ele>108.7</ele>
        <time>2015-05-11T20:16:21.597Z</time>
      </trkpt>
      <trkpt lat="48.82491" lon="2.21433">
        <ele>108.2</ele>
        <time>2015-05-11T20:16:22.514Z</time>
      </trkpt>
      <trkpt lat="48.82493" lon="2.21441">
        <ele>108</ele>
        <time>2015-05-11T20:16:23.516Z</time>
      </trkpt>
      <trkpt lat="48.82495" lon="2.21449">
        <ele>107.7</ele>
        <time>2015-05-11T20:16:24.544Z</time>
      </trkpt>
      <trkpt lat="48.82497" lon="2.21458">
        <ele>107.8</ele>
        <time>2015-05-11T20:16:25.551Z</time>
      </trkpt>
      <trkpt lat="48.82498" lon="2.21465">
        <ele>108.1</ele>
        <time>2015-05-11T20:16:26.483Z</time>
      </trkpt>
      <trkpt lat="48.82501" lon="2.21473">
        <ele>108.1</ele>
        <time>2015-05-11T20:16:27.485Z</time>
      </trkpt>
      <trkpt lat="48.82502" lon="2.2148">
        <ele>108.3</ele>
        <time>2015-05-11T20:16:28.493Z</time>
      </trkpt>
      <trkpt lat="48.82504" lon="2.21486">
        <ele>108.4</ele>
        <time>2015-05-11T20:16:29.521Z</time>
      </trkpt>
      <trkpt lat="48.82507" lon="2.21492">
        <ele>108.2</ele>
        <time>2015-05-11T20:16:30.549Z</time>
      </trkpt>
      <trkpt lat="48.82509" lon="2.21498">
        <ele>108.4</ele>
        <time>2015-05-11T20:16:31.572Z</time>
      </trkpt>
      <trkpt lat="48.82511" lon="2.21505">
        <ele>108.1</ele>
        <time>2015-05-11T20:16:32.446Z</time>
      </trkpt>
      <trkpt lat="48.82513" lon="2.21512">
        <ele>107.8</ele>
        <time>2015-05-11T20:16:33.498Z</time>
      </trkpt>
      <trkpt lat="48.82516" lon="2.21519">
        <ele>107.2</ele>
        <time>2015-05-11T20:16:34.496Z</time>
      </trkpt>
      <trkpt lat="48.82518" lon="2.21525">
        <ele>106.9</ele>
        <time>2015-05-11T20:16:35.507Z</time>
      </trkpt>
      <trkpt lat="48.82521" lon="2.21536">
        <ele>106.6</ele>
        <time>2015-05-11T20:16:37.565Z</time>
      </trkpt>
      <trkpt lat="48.82523" lon="2.21541">
        <ele>106.9</ele>
        <time>2015-05-11T20:16:38.492Z</time>
      </trkpt>
      <trkpt lat="48.82527" lon="2.21552">
        <ele>106.5</ele>
        <time>2015-05-11T20:16:40.468Z</time>
      </trkpt>
      <trkpt lat="48.82528" lon="2.21559">
        <ele>106.1</ele>
        <time>2015-05-11T20:16:41.578Z</time>
      </trkpt>
      <trkpt lat="48.82529" lon="2.21567">
        <ele>105.6</ele>
        <time>2015-05-11T20:16:42.510Z</time>
      </trkpt>
      <trkpt lat="48.82531" lon="2.21574">
        <ele>105.3</ele>
        <time>2015-05-11T20:16:43.499Z</time>
      </trkpt>
      <trkpt lat="48.82532" lon="2.21581">
        <ele>105.1</ele>
        <time>2015-05-11T20:16:44.519Z</time>
      </trkpt>
      <trkpt lat="48.82534" lon="2.21589">
        <ele>105.1</ele>
        <time>2015-05-11T20:16:45.524Z</time>
      </trkpt>
      <trkpt lat="48.82536" lon="2.21596">
        <ele>104.9</ele>
        <time>2015-05-11T20:16:46.544Z</time>
      </trkpt>
      <trkpt lat="48.82539" lon="2.21602">
        <ele>104.5</ele>
        <time>2015-05-11T20:16:47.557Z</time>
      </trkpt>
      <trkpt lat="48.82542" lon="2.2161">
        <ele>104.1</ele>
        <time>2015-05-11T20:16:48.569Z</time>
      </trkpt>
      <trkpt lat="48.82544" lon="2.21617">
        <ele>104.2</ele>
        <time>2015-05-11T20:16:49.475Z</time>
      </trkpt>
      <trkpt lat="48.82547" lon="2.21624">
        <ele>104.3</ele>
        <time>2015-05-11T20:16:50.500Z</time>
      </trkpt>
      <trkpt lat="48.82549" lon="2.21631">
        <ele>104.1</ele>
        <time>2015-05-11T20:16:51.506Z</time>
      </trkpt>
      <trkpt lat="48.82552" lon="2.21638">
        <ele>103.9</ele>
        <time>2015-05-11T20:16:52.515Z</time>
      </trkpt>
      <trkpt lat="48.82554" lon="2.21645">
        <ele>103.7</ele>
        <time>2015-05-11T20:16:53.522Z</time>
      </trkpt>
      <trkpt lat="48.82556" lon="2.21652">
        <ele>103.5</ele>
        <time>2015-05-11T20:16:54.543Z</time>
      </trkpt>
      <trkpt lat="48.82557" lon="2.21659">
        <ele>103.4</ele>
        <time>2015-05-11T20:16:55.475Z</time>
      </trkpt>
      <trkpt lat="48.82559" lon="2.21666">
        <ele>103.3</ele>
        <time>2015-05-11T20:16:56.504Z</time>
      </trkpt>
      <trkpt lat="48.82561" lon="2.21673">
        <ele>103.5</ele>
        <time>2015-05-11T20:16:57.513Z</time>
      </trkpt>
      <trkpt lat="48.82562" lon="2.2168">
        <ele>103.2</ele>
        <time>2015-05-11T20:16:58.530Z</time>
      </trkpt>
      <trkpt lat="48.82565" lon="2.21687">
        <ele>103.1</ele>
        <time>2015-05-11T20:16:59.540Z</time>
      </trkpt>
      <trkpt lat="48.82567" lon="2.21693">
        <ele>103</ele>
        <time>2015-05-11T20:17:00.559Z</time>
      </trkpt>
      <trkpt lat="48.82569" lon="2.21701">
        <ele>103.1</ele>
        <time>2015-05-11T20:17:01.472Z</time>
      </trkpt>
      <trkpt lat="48.82572" lon="2.21708">
        <ele>102.9</ele>
        <time>2015-05-11T20:17:02.466Z</time>
      </trkpt>
      <trkpt lat="48.82574" lon="2.21715">
        <ele>102.9</ele>
        <time>2015-05-11T20:17:03.496Z</time>
      </trkpt>
      <trkpt lat="48.82576" lon="2.21721">
        <ele>103</ele>
        <time>2015-05-11T20:17:04.508Z</time>
      </trkpt>
      <trkpt lat="48.82579" lon="2.21727">
        <ele>103.2</ele>
        <time>2015-05-11T20:17:05.516Z</time>
      </trkpt>
      <trkpt lat="48.82582" lon="2.21734">
        <ele>103.3</ele>
        <time>2015-05-11T20:17:06.544Z</time>
      </trkpt>
      <trkpt lat="48.82585" lon="2.2174">
        <ele>103.5</ele>
        <time>2015-05-11T20:17:07.547Z</time>
      </trkpt>
      <trkpt lat="48.82587" lon="2.21747">
        <ele>103.5</ele>
        <time>2015-05-11T20:17:08.551Z</time>
      </trkpt>
      <trkpt lat="48.82588" lon="2.21753">
        <ele>103</ele>
        <time>2015-05-11T20:17:09.561Z</time>
      </trkpt>
      <trkpt lat="48.8259" lon="2.21759">
        <ele>102.9</ele>
        <time>2015-05-11T20:17:10.466Z</time>
      </trkpt>
      <trkpt lat="48.82591" lon="2.21766">
        <ele>102.7</ele>
        <time>2015-05-11T20:17:11.466Z</time>
      </trkpt>
      <trkpt lat="48.82593" lon="2.21772">
        <ele>102.4</ele>
        <time>2015-05-11T20:17:12.505Z</time>
      </trkpt>
      <trkpt lat="48.82594" lon="2.21779">
        <ele>102</ele>
        <time>2015-05-11T20:17:13.497Z</time>
      </trkpt>
      <trkpt lat="48.82596" lon="2.21785">
        <ele>101.8</ele>
        <time>2015-05-11T20:17:14.506Z</time>
      </trkpt>
      <trkpt lat="48.82598" lon="2.21791">
        <ele>101.5</ele>
        <time>2015-05-11T20:17:15.510Z</time>
      </trkpt>
      <trkpt lat="48.826" lon="2.21798">
        <ele>101.2</ele>
        <time>2015-05-11T20:17:16.522Z</time>
      </trkpt>
      <trkpt lat="48.82603" lon="2.21805">
        <ele>101.1</ele>
        <time>2015-05-11T20:17:17.533Z</time>
      </trkpt>
      <trkpt lat="48.82606" lon="2.21811">
        <ele>100.7</ele>
        <time>2015-05-11T20:17:18.559Z</time>
      </trkpt>
      <trkpt lat="48.82609" lon="2.21818">
        <ele>100.2</ele>
        <time>2015-05-11T20:17:19.472Z</time>
      </trkpt>
      <trkpt lat="48.82612" lon="2.21825">
        <ele>99.6</ele>
        <time>2015-05-11T20:17:20.466Z</time>
      </trkpt>
      <trkpt lat="48.82614" lon="2.21832">
        <ele>99.3</ele>
        <time>2015-05-11T20:17:21.468Z</time>
      </trkpt>
      <trkpt lat="48.82619" lon="2.21839">
        <ele>99.7</ele>
        <time>2015-05-11T20:17:22.477Z</time>
      </trkpt>
      <trkpt lat="48.82621" lon="2.21846">
        <ele>99.7</ele>
        <time>2015-05-11T20:17:23.481Z</time>
      </trkpt>
      <trkpt lat="48.82624" lon="2.21853">
        <ele>99.4</ele>
        <time>2015-05-11T20:17:24.511Z</time>
      </trkpt>
      <trkpt lat="48.82628" lon="2.21861">
        <ele>99.6</ele>
        <time>2015-05-11T20:17:25.530Z</time>
      </trkpt>
      <trkpt lat="48.8263" lon="2.21868">
        <ele>99.3</ele>
        <time>2015-05-11T20:17:26.573Z</time>
      </trkpt>
      <trkpt lat="48.82634" lon="2.21875">
        <ele>99.3</ele>
        <time>2015-05-11T20:17:27.466Z</time>
      </trkpt>
      <trkpt lat="48.82636" lon="2.21883">
        <ele>99.2</ele>
        <time>2015-05-11T20:17:28.485Z</time>
      </trkpt>
      <trkpt lat="48.82638" lon="2.2189">
        <ele>99.1</ele>
        <time>2015-05-11T20:17:29.500Z</time>
      </trkpt>
      <trkpt lat="48.82641" lon="2.21897">
        <ele>98.8</ele>
        <time>2015-05-11T20:17:30.529Z</time>
      </trkpt>
      <trkpt lat="48.82643" lon="2.21904">
        <ele>98.6</ele>
        <time>2015-05-11T20:17:31.544Z</time>
      </trkpt>
      <trkpt lat="48.82645" lon="2.21912">
        <ele>98.5</ele>
        <time>2015-05-11T20:17:32.555Z</time>
      </trkpt>
      <trkpt lat="48.82648" lon="2.21919">
        <ele>98.5</ele>
        <time>2015-05-11T20:17:33.566Z</time>
      </trkpt>
      <trkpt lat="48.8265" lon="2.21926">
        <ele>98.2</ele>
        <time>2015-05-11T20:17:34.477Z</time>
      </trkpt>
      <trkpt lat="48.82652" lon="2.21934">
        <ele>98.2</ele>
        <time>2015-05-11T20:17:35.474Z</time>
      </trkpt>
      <trkpt lat="48.82655" lon="2.21942">
        <ele>97.9</ele>
        <time>2015-05-11T20:17:36.532Z</time>
      </trkpt>
      <trkpt lat="48.82661" lon="2.21948">
        <ele>98.2</ele>
        <time>2015-05-11T20:17:37.527Z</time>
      </trkpt>
      <trkpt lat="48.82666" lon="2.21956">
        <ele>98.4</ele>
        <time>2015-05-11T20:17:38.545Z</time>
      </trkpt>
      <trkpt lat="48.82672" lon="2.21963">
        <ele>98.5</ele>
        <time>2015-05-11T20:17:39.550Z</time>
      </trkpt>
      <trkpt lat="48.82674" lon="2.21972">
        <ele>98.6</ele>
        <time>2015-05-11T20:17:40.559Z</time>
      </trkpt>
      <trkpt lat="48.82676" lon="2.21981">
        <ele>98.8</ele>
        <time>2015-05-11T20:17:41.478Z</time>
      </trkpt>
      <trkpt lat="48.82678" lon="2.21989">
        <ele>99</ele>
        <time>2015-05-11T20:17:42.581Z</time>
      </trkpt>
      <trkpt lat="48.82681" lon="2.21997">
        <ele>99</ele>
        <time>2015-05-11T20:17:43.483Z</time>
      </trkpt>
      <trkpt lat="48.82685" lon="2.22006">
        <ele>98.9</ele>
        <time>2015-05-11T20:17:44.485Z</time>
      </trkpt>
      <trkpt lat="48.82687" lon="2.22015">
        <ele>97.9</ele>
        <time>2015-05-11T20:17:45.499Z</time>
      </trkpt>
      <trkpt lat="48.8269" lon="2.22024">
        <ele>97.4</ele>
        <time>2015-05-11T20:17:46.524Z</time>
      </trkpt>
      <trkpt lat="48.82692" lon="2.22033">
        <ele>97.2</ele>
        <time>2015-05-11T20:17:47.544Z</time>
      </trkpt>
      <trkpt lat="48.82694" lon="2.22042">
        <ele>96.7</ele>
        <time>2015-05-11T20:17:48.558Z</time>
      </trkpt>
      <trkpt lat="48.82695" lon="2.22051">
        <ele>96.5</ele>
        <time>2015-05-11T20:17:49.566Z</time>
      </trkpt>
      <trkpt lat="48.82695" lon="2.22061">
        <ele>96.3</ele>
        <time>2015-05-11T20:17:50.479Z</time>
      </trkpt>
      <trkpt lat="48.82696" lon="2.22071">
        <ele>96.2</ele>
        <time>2015-05-11T20:17:51.477Z</time>
      </trkpt>
      <trkpt lat="48.82697" lon="2.2208">
        <ele>95.8</ele>
        <time>2015-05-11T20:17:52.486Z</time>
      </trkpt>
      <trkpt lat="48.827" lon="2.22089">
        <ele>95</ele>
        <time>2015-05-11T20:17:53.510Z</time>
      </trkpt>
      <trkpt lat="48.82701" lon="2.22099">
        <ele>94.5</ele>
        <time>2015-05-11T20:17:54.516Z</time>
      </trkpt>
      <trkpt lat="48.82704" lon="2.22108">
        <ele>94.1</ele>
        <time>2015-05-11T20:17:55.515Z</time>
      </trkpt>
      <trkpt lat="48.82706" lon="2.22118">
        <ele>93.9</ele>
        <time>2015-05-11T20:17:56.530Z</time>
      </trkpt>
      <trkpt lat="48.82708" lon="2.22128">
        <ele>93.2</ele>
        <time>2015-05-11T20:17:57.548Z</time>
      </trkpt>
      <trkpt lat="48.82709" lon="2.22138">
        <ele>92.6</ele>
        <time>2015-05-11T20:17:58.548Z</time>
      </trkpt>
      <trkpt lat="48.8271" lon="2.22148">
        <ele>91.9</ele>
        <time>2015-05-11T20:17:59.571Z</time>
      </trkpt>
      <trkpt lat="48.82712" lon="2.22158">
        <ele>91.6</ele>
        <time>2015-05-11T20:18:00.486Z</time>
      </trkpt>
      <trkpt lat="48.82713" lon="2.22168">
        <ele>91.5</ele>
        <time>2015-05-11T20:18:01.487Z</time>
      </trkpt>
      <trkpt lat="48.82713" lon="2.22178">
        <ele>91.1</ele>
        <time>2015-05-11T20:18:02.501Z</time>
      </trkpt>
      <trkpt lat="48.82715" lon="2.22188">
        <ele>91.2</ele>
        <time>2015-05-11T20:18:03.505Z</time>
      </trkpt>
      <trkpt lat="48.82718" lon="2.22198">
        <ele>91.4</ele>
        <time>2015-05-11T20:18:04.513Z</time>
      </trkpt>
      <trkpt lat="48.82719" lon="2.22208">
        <ele>91.5</ele>
        <time>2015-05-11T20:18:05.530Z</time>
      </trkpt>
      <trkpt lat="48.82721" lon="2.22218">
        <ele>91.7</ele>
        <time>2015-05-11T20:18:06.534Z</time>
      </trkpt>
      <trkpt lat="48.82723" lon="2.22227">
        <ele>91.6</ele>
        <time>2015-05-11T20:18:07.549Z</time>
      </trkpt>
      <trkpt lat="48.82725" lon="2.22237">
        <ele>91.7</ele>
        <time>2015-05-11T20:18:08.451Z</time>
      </trkpt>
      <trkpt lat="48.82728" lon="2.22246">
        <ele>91.8</ele>
        <time>2015-05-11T20:18:09.481Z</time>
      </trkpt>
      <trkpt lat="48.82729" lon="2.22256">
        <ele>91.5</ele>
        <time>2015-05-11T20:18:10.481Z</time>
      </trkpt>
      <trkpt lat="48.82731" lon="2.22265">
        <ele>91.4</ele>
        <time>2015-05-11T20:18:11.490Z</time>
      </trkpt>
      <trkpt lat="48.82733" lon="2.22274">
        <ele>91</ele>
        <time>2015-05-11T20:18:12.514Z</time>
      </trkpt>
      <trkpt lat="48.82734" lon="2.22282">
        <ele>90.9</ele>
        <time>2015-05-11T20:18:13.516Z</time>
      </trkpt>
      <trkpt lat="48.82736" lon="2.22289">
        <ele>90.3</ele>
        <time>2015-05-11T20:18:14.534Z</time>
      </trkpt>
      <trkpt lat="48.82738" lon="2.22296">
        <ele>90.1</ele>
        <time>2015-05-11T20:18:15.551Z</time>
      </trkpt>
      <trkpt lat="48.82742" lon="2.22308">
        <ele>90.2</ele>
        <time>2015-05-11T20:18:17.502Z</time>
      </trkpt>
      <trkpt lat="48.82743" lon="2.22313">
        <ele>89.9</ele>
        <time>2015-05-11T20:18:18.560Z</time>
      </trkpt>
      <trkpt lat="48.82747" lon="2.22322">
        <ele>89.8</ele>
        <time>2015-05-11T20:18:20.473Z</time>
      </trkpt>
      <trkpt lat="48.82749" lon="2.22326">
        <ele>89.7</ele>
        <time>2015-05-11T20:18:21.509Z</time>
      </trkpt>
      <trkpt lat="48.82753" lon="2.22337">
        <ele>88.4</ele>
        <time>2015-05-11T20:18:25.518Z</time>
      </trkpt>
      <trkpt lat="48.82752" lon="2.2234">
        <ele>88.2</ele>
        <time>2015-05-11T20:18:26.530Z</time>
      </trkpt>
      <trkpt lat="48.8275" lon="2.22352">
        <ele>87.1</ele>
        <time>2015-05-11T20:18:49.517Z</time>
      </trkpt>
      <trkpt lat="48.82751" lon="2.22363">
        <ele>86.1</ele>
        <time>2015-05-11T20:18:50.525Z</time>
      </trkpt>
      <trkpt lat="48.82756" lon="2.22374">
        <ele>85.9</ele>
        <time>2015-05-11T20:18:54.557Z</time>
      </trkpt>
      <trkpt lat="48.82757" lon="2.22377">
        <ele>85.7</ele>
        <time>2015-05-11T20:18:55.566Z</time>
      </trkpt>
      <trkpt lat="48.8276" lon="2.22387">
        <ele>86</ele>
        <time>2015-05-11T20:18:58.601Z</time>
      </trkpt>
      <trkpt lat="48.82761" lon="2.22391">
        <ele>86</ele>
        <time>2015-05-11T20:18:59.510Z</time>
      </trkpt>
      <trkpt lat="48.82764" lon="2.22403">
        <ele>86</ele>
        <time>2015-05-11T20:19:02.578Z</time>
      </trkpt>
      <trkpt lat="48.82765" lon="2.22407">
        <ele>86</ele>
        <time>2015-05-11T20:19:03.515Z</time>
      </trkpt>
      <trkpt lat="48.82767" lon="2.22414">
        <ele>86</ele>
        <time>2015-05-11T20:19:05.497Z</time>
      </trkpt>
      <trkpt lat="48.82769" lon="2.22419">
        <ele>86.1</ele>
        <time>2015-05-11T20:19:06.583Z</time>
      </trkpt>
      <trkpt lat="48.82773" lon="2.2243">
        <ele>86.3</ele>
        <time>2015-05-11T20:19:09.498Z</time>
      </trkpt>
      <trkpt lat="48.82774" lon="2.22433">
        <ele>86.1</ele>
        <time>2015-05-11T20:19:10.502Z</time>
      </trkpt>
      <trkpt lat="48.82777" lon="2.22445">
        <ele>85.1</ele>
        <time>2015-05-11T20:19:13.565Z</time>
      </trkpt>
      <trkpt lat="48.82779" lon="2.22449">
        <ele>85.3</ele>
        <time>2015-05-11T20:19:14.582Z</time>
      </trkpt>
      <trkpt lat="48.82782" lon="2.22457">
        <ele>85.1</ele>
        <time>2015-05-11T20:19:16.648Z</time>
      </trkpt>
      <trkpt lat="48.82783" lon="2.22462">
        <ele>85</ele>
        <time>2015-05-11T20:19:17.530Z</time>
      </trkpt>
      <trkpt lat="48.82788" lon="2.2247">
        <ele>84.7</ele>
        <time>2015-05-11T20:19:19.513Z</time>
      </trkpt>
      <trkpt lat="48.82791" lon="2.22473">
        <ele>84.7</ele>
        <time>2015-05-11T20:19:20.523Z</time>
      </trkpt>
      <trkpt lat="48.82796" lon="2.22483">
        <ele>84.8</ele>
        <time>2015-05-11T20:19:24.530Z</time>
      </trkpt>
      <trkpt lat="48.82797" lon="2.22484">
        <ele>84.9</ele>
        <time>2015-05-11T20:19:25.741Z</time>
      </trkpt>
      <trkpt lat="48.82797" lon="2.22484">
        <ele>84.9</ele>
        <time>2015-05-11T20:21:18.529Z</time>
      </trkpt>
      <trkpt lat="48.82803" lon="2.22502">
        <ele>84.7</ele>
        <time>2015-05-11T20:21:19.542Z</time>
      </trkpt>
      <trkpt lat="48.82806" lon="2.22511">
        <ele>85.1</ele>
        <time>2015-05-11T20:21:22.943Z</time>
      </trkpt>
      <trkpt lat="48.82807" lon="2.22515">
        <ele>85.4</ele>
        <time>2015-05-11T20:21:23.523Z</time>
      </trkpt>
      <trkpt lat="48.8281" lon="2.22527">
        <ele>85.6</ele>
        <time>2015-05-11T20:21:26.483Z</time>
      </trkpt>
      <trkpt lat="48.82811" lon="2.22531">
        <ele>85.5</ele>
        <time>2015-05-11T20:21:27.694Z</time>
      </trkpt>
      <trkpt lat="48.82815" lon="2.22541">
        <ele>85</ele>
        <time>2015-05-11T20:21:30.520Z</time>
      </trkpt>
      <trkpt lat="48.82817" lon="2.22545">
        <ele>84.7</ele>
        <time>2015-05-11T20:21:31.553Z</time>
      </trkpt>
      <trkpt lat="48.82819" lon="2.22555">
        <ele>84.4</ele>
        <time>2015-05-11T20:21:33.508Z</time>
      </trkpt>
      <trkpt lat="48.8282" lon="2.2256">
        <ele>84.5</ele>
        <time>2015-05-11T20:21:34.518Z</time>
      </trkpt>
      <trkpt lat="48.82823" lon="2.22569">
        <ele>84.2</ele>
        <time>2015-05-11T20:21:36.534Z</time>
      </trkpt>
      <trkpt lat="48.82824" lon="2.22574">
        <ele>84.1</ele>
        <time>2015-05-11T20:21:37.485Z</time>
      </trkpt>
      <trkpt lat="48.82827" lon="2.22582">
        <ele>84.2</ele>
        <time>2015-05-11T20:21:39.567Z</time>
      </trkpt>
      <trkpt lat="48.82828" lon="2.22586">
        <ele>84</ele>
        <time>2015-05-11T20:21:40.501Z</time>
      </trkpt>
      <trkpt lat="48.82832" lon="2.22597">
        <ele>83.7</ele>
        <time>2015-05-11T20:21:42.627Z</time>
      </trkpt>
      <trkpt lat="48.82834" lon="2.22602">
        <ele>83.7</ele>
        <time>2015-05-11T20:21:43.595Z</time>
      </trkpt>
      <trkpt lat="48.82838" lon="2.22611">
        <ele>83.6</ele>
        <time>2015-05-11T20:21:45.581Z</time>
      </trkpt>
      <trkpt lat="48.82839" lon="2.22617">
        <ele>83.7</ele>
        <time>2015-05-11T20:21:46.489Z</time>
      </trkpt>
      <trkpt lat="48.82842" lon="2.22626">
        <ele>84.4</ele>
        <time>2015-05-11T20:21:48.553Z</time>
      </trkpt>
      <trkpt lat="48.82844" lon="2.22632">
        <ele>84.7</ele>
        <time>2015-05-11T20:21:49.576Z</time>
      </trkpt>
      <trkpt lat="48.82847" lon="2.22642">
        <ele>84.5</ele>
        <time>2015-05-11T20:21:51.514Z</time>
      </trkpt>
      <trkpt lat="48.82848" lon="2.22647">
        <ele>84.6</ele>
        <time>2015-05-11T20:21:52.513Z</time>
      </trkpt>
      <trkpt lat="48.82852" lon="2.22658">
        <ele>85</ele>
        <time>2015-05-11T20:21:54.578Z</time>
      </trkpt>
      <trkpt lat="48.82854" lon="2.22663">
        <ele>84.7</ele>
        <time>2015-05-11T20:21:55.591Z</time>
      </trkpt>
      <trkpt lat="48.82857" lon="2.22673">
        <ele>85</ele>
        <time>2015-05-11T20:21:57.953Z</time>
      </trkpt>
      <trkpt lat="48.82859" lon="2.22678">
        <ele>85.2</ele>
        <time>2015-05-11T20:21:58.541Z</time>
      </trkpt>
      <trkpt lat="48.82862" lon="2.22689">
        <ele>85.4</ele>
        <time>2015-05-11T20:22:00.595Z</time>
      </trkpt>
      <trkpt lat="48.82864" lon="2.22694">
        <ele>85.5</ele>
        <time>2015-05-11T20:22:01.509Z</time>
      </trkpt>
      <trkpt lat="48.82867" lon="2.22704">
        <ele>84.9</ele>
        <time>2015-05-11T20:22:03.579Z</time>
      </trkpt>
      <trkpt lat="48.82869" lon="2.22709">
        <ele>84.6</ele>
        <time>2015-05-11T20:22:04.593Z</time>
      </trkpt>
      <trkpt lat="48.82873" lon="2.2272">
        <ele>83.9</ele>
        <time>2015-05-11T20:22:06.729Z</time>
      </trkpt>
      <trkpt lat="48.82874" lon="2.22725">
        <ele>83.7</ele>
        <time>2015-05-11T20:22:07.546Z</time>
      </trkpt>
      <trkpt lat="48.82876" lon="2.22736">
        <ele>83</ele>
        <time>2015-05-11T20:22:09.546Z</time>
      </trkpt>
      <trkpt lat="48.82878" lon="2.22741">
        <ele>82.8</ele>
        <time>2015-05-11T20:22:10.556Z</time>
      </trkpt>
      <trkpt lat="48.82882" lon="2.22751">
        <ele>82.8</ele>
        <time>2015-05-11T20:22:13.223Z</time>
      </trkpt>
      <trkpt lat="48.82884" lon="2.22756">
        <ele>83</ele>
        <time>2015-05-11T20:22:13.511Z</time>
      </trkpt>
      <trkpt lat="48.82887" lon="2.22767">
        <ele>82.8</ele>
        <time>2015-05-11T20:22:15.543Z</time>
      </trkpt>
      <trkpt lat="48.82888" lon="2.22772">
        <ele>82.8</ele>
        <time>2015-05-11T20:22:16.556Z</time>
      </trkpt>
      <trkpt lat="48.8289" lon="2.22783">
        <ele>83.1</ele>
        <time>2015-05-11T20:22:18.596Z</time>
      </trkpt>
      <trkpt lat="48.82892" lon="2.22788">
        <ele>83.2</ele>
        <time>2015-05-11T20:22:19.610Z</time>
      </trkpt>
      <trkpt lat="48.82895" lon="2.228">
        <ele>83.5</ele>
        <time>2015-05-11T20:22:21.555Z</time>
      </trkpt>
      <trkpt lat="48.82897" lon="2.22805">
        <ele>83.6</ele>
        <time>2015-05-11T20:22:22.568Z</time>
      </trkpt>
      <trkpt lat="48.829" lon="2.22815">
        <ele>83.3</ele>
        <time>2015-05-11T20:22:24.547Z</time>
      </trkpt>
      <trkpt lat="48.82902" lon="2.22819">
        <ele>83.3</ele>
        <time>2015-05-11T20:22:25.576Z</time>
      </trkpt>
      <trkpt lat="48.82905" lon="2.22828">
        <ele>83</ele>
        <time>2015-05-11T20:22:27.516Z</time>
      </trkpt>
      <trkpt lat="48.82906" lon="2.22832">
        <ele>82.8</ele>
        <time>2015-05-11T20:22:28.486Z</time>
      </trkpt>
      <trkpt lat="48.82911" lon="2.22842">
        <ele>82.2</ele>
        <time>2015-05-11T20:22:43.533Z</time>
      </trkpt>
      <trkpt lat="48.82918" lon="2.22851">
        <ele>83.4</ele>
        <time>2015-05-11T20:22:44.588Z</time>
      </trkpt>
      <trkpt lat="48.82923" lon="2.2286">
        <ele>83.3</ele>
        <time>2015-05-11T20:22:48.578Z</time>
      </trkpt>
      <trkpt lat="48.82925" lon="2.22863">
        <ele>83.5</ele>
        <time>2015-05-11T20:22:49.566Z</time>
      </trkpt>
      <trkpt lat="48.82927" lon="2.22876">
        <ele>83.6</ele>
        <time>2015-05-11T20:22:53.546Z</time>
      </trkpt>
      <trkpt lat="48.82927" lon="2.22878">
        <ele>83.7</ele>
        <time>2015-05-11T20:22:54.621Z</time>
      </trkpt>
      <trkpt lat="48.82929" lon="2.22882">
        <ele>83.5</ele>
        <time>2015-05-11T20:23:15.500Z</time>
      </trkpt>
      <trkpt lat="48.8294" lon="2.22906">
        <ele>83.4</ele>
        <time>2015-05-11T20:23:16.732Z</time>
      </trkpt>
      <trkpt lat="48.82933" lon="2.22908">
        <ele>83.3</ele>
        <time>2015-05-11T20:23:20.569Z</time>
      </trkpt>
      <trkpt lat="48.82931" lon="2.22907">
        <ele>83.2</ele>
        <time>2015-05-11T20:23:21.576Z</time>
      </trkpt>
      <trkpt lat="48.82928" lon="2.22918">
        <ele>83</ele>
        <time>2015-05-11T20:23:27.994Z</time>
      </trkpt>
      <trkpt lat="48.82929" lon="2.22921">
        <ele>82.7</ele>
        <time>2015-05-11T20:23:28.497Z</time>
      </trkpt>
      <trkpt lat="48.8293" lon="2.22934">
        <ele>81.9</ele>
        <time>2015-05-11T20:23:32.447Z</time>
      </trkpt>
      <trkpt lat="48.8293" lon="2.22939">
        <ele>82</ele>
        <time>2015-05-11T20:23:33.485Z</time>
      </trkpt>
      <trkpt lat="48.82928" lon="2.22951">
        <ele>82.1</ele>
        <time>2015-05-11T20:23:36.545Z</time>
      </trkpt>
      <trkpt lat="48.82928" lon="2.22956">
        <ele>81.9</ele>
        <time>2015-05-11T20:23:37.555Z</time>
      </trkpt>
      <trkpt lat="48.82929" lon="2.22968">
        <ele>81.7</ele>
        <time>2015-05-11T20:23:40.487Z</time>
      </trkpt>
      <trkpt lat="48.8293" lon="2.22972">
        <ele>81.8</ele>
        <time>2015-05-11T20:23:41.492Z</time>
      </trkpt>
      <trkpt lat="48.82933" lon="2.22981">
        <ele>81.8</ele>
        <time>2015-05-11T20:23:43.532Z</time>
      </trkpt>
      <trkpt lat="48.82934" lon="2.22985">
        <ele>81.6</ele>
        <time>2015-05-11T20:23:44.552Z</time>
      </trkpt>
      <trkpt lat="48.82936" lon="2.22994">
        <ele>81.1</ele>
        <time>2015-05-11T20:23:46.502Z</time>
      </trkpt>
      <trkpt lat="48.82938" lon="2.22998">
        <ele>81.3</ele>
        <time>2015-05-11T20:23:47.508Z</time>
      </trkpt>
      <trkpt lat="48.82943" lon="2.23008">
        <ele>81.9</ele>
        <time>2015-05-11T20:23:51.463Z</time>
      </trkpt>
      <trkpt lat="48.82944" lon="2.23012">
        <ele>82.2</ele>
        <time>2015-05-11T20:23:52.564Z</time>
      </trkpt>
      <trkpt lat="48.82947" lon="2.23024">
        <ele>82.2</ele>
        <time>2015-05-11T20:23:56.482Z</time>
      </trkpt>
      <trkpt lat="48.82948" lon="2.23027">
        <ele>81.9</ele>
        <time>2015-05-11T20:23:57.514Z</time>
      </trkpt>
      <trkpt lat="48.82951" lon="2.23039">
        <ele>81.6</ele>
        <time>2015-05-11T20:24:01.566Z</time>
      </trkpt>
      <trkpt lat="48.82951" lon="2.23042">
        <ele>81.5</ele>
        <time>2015-05-11T20:24:02.582Z</time>
      </trkpt>
      <trkpt lat="48.82953" lon="2.23053">
        <ele>81.5</ele>
        <time>2015-05-11T20:24:06.542Z</time>
      </trkpt>
      <trkpt lat="48.82954" lon="2.23056">
        <ele>81.4</ele>
        <time>2015-05-11T20:24:07.564Z</time>
      </trkpt>
      <trkpt lat="48.82958" lon="2.23067">
        <ele>82.2</ele>
        <time>2015-05-11T20:24:11.524Z</time>
      </trkpt>
      <trkpt lat="48.82959" lon="2.2307">
        <ele>82.4</ele>
        <time>2015-05-11T20:24:12.550Z</time>
      </trkpt>
      <trkpt lat="48.82961" lon="2.2308">
        <ele>81.8</ele>
        <time>2015-05-11T20:24:15.569Z</time>
      </trkpt>
      <trkpt lat="48.82962" lon="2.23083">
        <ele>81.9</ele>
        <time>2015-05-11T20:24:16.484Z</time>
      </trkpt>
      <trkpt lat="48.82966" lon="2.23092">
        <ele>82.2</ele>
        <time>2015-05-11T20:24:19.506Z</time>
      </trkpt>
      <trkpt lat="48.82967" lon="2.23096">
        <ele>82.5</ele>
        <time>2015-05-11T20:24:20.518Z</time>
      </trkpt>
      <trkpt lat="48.8297" lon="2.23107">
        <ele>83.3</ele>
        <time>2015-05-11T20:24:24.510Z</time>
      </trkpt>
      <trkpt lat="48.82972" lon="2.23109">
        <ele>83.5</ele>
        <time>2015-05-11T20:24:25.508Z</time>
      </trkpt>
      <trkpt lat="48.82975" lon="2.23119">
        <ele>84.2</ele>
        <time>2015-05-11T20:24:28.518Z</time>
      </trkpt>
      <trkpt lat="48.82976" lon="2.23122">
        <ele>84.4</ele>
        <time>2015-05-11T20:24:29.531Z</time>
      </trkpt>
      <trkpt lat="48.82979" lon="2.23134">
        <ele>86</ele>
        <time>2015-05-11T20:24:33.503Z</time>
      </trkpt>
      <trkpt lat="48.8298" lon="2.23137">
        <ele>86.5</ele>
        <time>2015-05-11T20:24:34.516Z</time>
      </trkpt>
      <trkpt lat="48.82981" lon="2.2315">
        <ele>86.9</ele>
        <time>2015-05-11T20:24:37.513Z</time>
      </trkpt>
      <trkpt lat="48.82982" lon="2.23155">
        <ele>86.9</ele>
        <time>2015-05-11T20:24:38.519Z</time>
      </trkpt>
      <trkpt lat="48.82983" lon="2.23165">
        <ele>86.6</ele>
        <time>2015-05-11T20:24:40.537Z</time>
      </trkpt>
      <trkpt lat="48.82984" lon="2.23171">
        <ele>86.5</ele>
        <time>2015-05-11T20:24:41.509Z</time>
      </trkpt>
      <trkpt lat="48.82987" lon="2.23182">
        <ele>86.3</ele>
        <time>2015-05-11T20:24:43.504Z</time>
      </trkpt>
      <trkpt lat="48.82989" lon="2.23187">
        <ele>85.9</ele>
        <time>2015-05-11T20:24:44.512Z</time>
      </trkpt>
      <trkpt lat="48.82993" lon="2.23198">
        <ele>86.4</ele>
        <time>2015-05-11T20:24:46.543Z</time>
      </trkpt>
      <trkpt lat="48.82995" lon="2.23204">
        <ele>86.5</ele>
        <time>2015-05-11T20:24:47.564Z</time>
      </trkpt>
      <trkpt lat="48.82999" lon="2.23216">
        <ele>86.7</ele>
        <time>2015-05-11T20:24:49.517Z</time>
      </trkpt>
      <trkpt lat="48.83" lon="2.23221">
        <ele>86.8</ele>
        <time>2015-05-11T20:24:50.487Z</time>
      </trkpt>
      <trkpt lat="48.83003" lon="2.23232">
        <ele>87.2</ele>
        <time>2015-05-11T20:24:52.511Z</time>
      </trkpt>
      <trkpt lat="48.83005" lon="2.23237">
        <ele>87.7</ele>
        <time>2015-05-11T20:24:53.528Z</time>
      </trkpt>
      <trkpt lat="48.83007" lon="2.23242">
        <ele>87.7</ele>
        <time>2015-05-11T20:24:54.541Z</time>
      </trkpt>
      <trkpt lat="48.83012" lon="2.23246">
        <ele>88.4</ele>
        <time>2015-05-11T20:24:55.567Z</time>
      </trkpt>
      <trkpt lat="48.83016" lon="2.23252">
        <ele>88.9</ele>
        <time>2015-05-11T20:24:56.490Z</time>
      </trkpt>
      <trkpt lat="48.83021" lon="2.23258">
        <ele>89.3</ele>
        <time>2015-05-11T20:24:57.493Z</time>
      </trkpt>
      <trkpt lat="48.83024" lon="2.23265">
        <ele>89.6</ele>
        <time>2015-05-11T20:24:58.505Z</time>
      </trkpt>
      <trkpt lat="48.83027" lon="2.23272">
        <ele>89.7</ele>
        <time>2015-05-11T20:24:59.543Z</time>
      </trkpt>
      <trkpt lat="48.8303" lon="2.23279">
        <ele>89.8</ele>
        <time>2015-05-11T20:25:00.518Z</time>
      </trkpt>
      <trkpt lat="48.83033" lon="2.23287">
        <ele>90</ele>
        <time>2015-05-11T20:25:01.544Z</time>
      </trkpt>
      <trkpt lat="48.83035" lon="2.23293">
        <ele>90.2</ele>
        <time>2015-05-11T20:25:02.554Z</time>
      </trkpt>
      <trkpt lat="48.83037" lon="2.233">
        <ele>90.5</ele>
        <time>2015-05-11T20:25:03.562Z</time>
      </trkpt>
      <trkpt lat="48.83039" lon="2.23307">
        <ele>90.9</ele>
        <time>2015-05-11T20:25:04.614Z</time>
      </trkpt>
      <trkpt lat="48.8304" lon="2.23313">
        <ele>91.1</ele>
        <time>2015-05-11T20:25:05.488Z</time>
      </trkpt>
      <trkpt lat="48.83042" lon="2.2332">
        <ele>91.4</ele>
        <time>2015-05-11T20:25:06.526Z</time>
      </trkpt>
      <trkpt lat="48.83044" lon="2.23327">
        <ele>91.4</ele>
        <time>2015-05-11T20:25:07.532Z</time>
      </trkpt>
      <trkpt lat="48.83046" lon="2.23334">
        <ele>90.9</ele>
        <time>2015-05-11T20:25:08.545Z</time>
      </trkpt>
      <trkpt lat="48.83048" lon="2.2334">
        <ele>90.9</ele>
        <time>2015-05-11T20:25:09.555Z</time>
      </trkpt>
      <trkpt lat="48.8305" lon="2.23347">
        <ele>91</ele>
        <time>2015-05-11T20:25:10.562Z</time>
      </trkpt>
      <trkpt lat="48.83053" lon="2.23353">
        <ele>91.1</ele>
        <time>2015-05-11T20:25:11.488Z</time>
      </trkpt>
      <trkpt lat="48.83057" lon="2.2336">
        <ele>91.3</ele>
        <time>2015-05-11T20:25:12.521Z</time>
      </trkpt>
      <trkpt lat="48.8306" lon="2.23366">
        <ele>91.4</ele>
        <time>2015-05-11T20:25:13.537Z</time>
      </trkpt>
      <trkpt lat="48.83062" lon="2.23379">
        <ele>91.6</ele>
        <time>2015-05-11T20:25:15.464Z</time>
      </trkpt>
      <trkpt lat="48.83064" lon="2.23385">
        <ele>92</ele>
        <time>2015-05-11T20:25:16.495Z</time>
      </trkpt>
      <trkpt lat="48.83067" lon="2.23391">
        <ele>92.3</ele>
        <time>2015-05-11T20:25:17.514Z</time>
      </trkpt>
      <trkpt lat="48.83067" lon="2.23398">
        <ele>92.4</ele>
        <time>2015-05-11T20:25:18.592Z</time>
      </trkpt>
      <trkpt lat="48.8307" lon="2.2341">
        <ele>92.9</ele>
        <time>2015-05-11T20:25:20.583Z</time>
      </trkpt>
      <trkpt lat="48.83072" lon="2.23416">
        <ele>93</ele>
        <time>2015-05-11T20:25:21.543Z</time>
      </trkpt>
      <trkpt lat="48.83075" lon="2.23422">
        <ele>93.1</ele>
        <time>2015-05-11T20:25:22.558Z</time>
      </trkpt>
      <trkpt lat="48.83077" lon="2.23429">
        <ele>93.2</ele>
        <time>2015-05-11T20:25:23.460Z</time>
      </trkpt>
      <trkpt lat="48.8308" lon="2.23435">
        <ele>93.3</ele>
        <time>2015-05-11T20:25:24.518Z</time>
      </trkpt>
      <trkpt lat="48.83082" lon="2.23441">
        <ele>93.4</ele>
        <time>2015-05-11T20:25:25.604Z</time>
      </trkpt>
      <trkpt lat="48.83083" lon="2.23448">
        <ele>93.4</ele>
        <time>2015-05-11T20:25:26.480Z</time>
      </trkpt>
      <trkpt lat="48.83085" lon="2.23455">
        <ele>93.8</ele>
        <time>2015-05-11T20:25:27.482Z</time>
      </trkpt>
      <trkpt lat="48.83086" lon="2.23462">
        <ele>94.3</ele>
        <time>2015-05-11T20:25:28.489Z</time>
      </trkpt>
      <trkpt lat="48.83085" lon="2.23469">
        <ele>94.9</ele>
        <time>2015-05-11T20:25:29.489Z</time>
      </trkpt>
      <trkpt lat="48.83086" lon="2.23476">
        <ele>95.2</ele>
        <time>2015-05-11T20:25:30.512Z</time>
      </trkpt>
      <trkpt lat="48.83086" lon="2.23483">
        <ele>95.3</ele>
        <time>2015-05-11T20:25:31.529Z</time>
      </trkpt>
      <trkpt lat="48.83086" lon="2.23491">
        <ele>95.6</ele>
        <time>2015-05-11T20:25:32.558Z</time>
      </trkpt>
      <trkpt lat="48.83086" lon="2.23498">
        <ele>95.4</ele>
        <time>2015-05-11T20:25:33.542Z</time>
      </trkpt>
      <trkpt lat="48.83088" lon="2.23506">
        <ele>95.5</ele>
        <time>2015-05-11T20:25:34.474Z</time>
      </trkpt>
      <trkpt lat="48.83089" lon="2.23512">
        <ele>95</ele>
        <time>2015-05-11T20:25:35.532Z</time>
      </trkpt>
      <trkpt lat="48.83092" lon="2.23523">
        <ele>95</ele>
        <time>2015-05-11T20:25:37.645Z</time>
      </trkpt>
      <trkpt lat="48.83094" lon="2.23528">
        <ele>95.2</ele>
        <time>2015-05-11T20:25:38.496Z</time>
      </trkpt>
      <trkpt lat="48.83099" lon="2.23539">
        <ele>95.4</ele>
        <time>2015-05-11T20:25:40.523Z</time>
      </trkpt>
      <trkpt lat="48.83102" lon="2.23545">
        <ele>95.3</ele>
        <time>2015-05-11T20:25:41.577Z</time>
      </trkpt>
      <trkpt lat="48.83105" lon="2.23551">
        <ele>95.5</ele>
        <time>2015-05-11T20:25:42.674Z</time>
      </trkpt>
      <trkpt lat="48.83108" lon="2.23556">
        <ele>95.6</ele>
        <time>2015-05-11T20:25:43.548Z</time>
      </trkpt>
      <trkpt lat="48.83113" lon="2.23564">
        <ele>95.5</ele>
        <time>2015-05-11T20:25:45.470Z</time>
      </trkpt>
      <trkpt lat="48.83116" lon="2.23571">
        <ele>95.7</ele>
        <time>2015-05-11T20:25:46.478Z</time>
      </trkpt>
      <trkpt lat="48.83119" lon="2.23578">
        <ele>95.6</ele>
        <time>2015-05-11T20:25:47.699Z</time>
      </trkpt>
      <trkpt lat="48.83122" lon="2.23584">
        <ele>95.5</ele>
        <time>2015-05-11T20:25:48.509Z</time>
      </trkpt>
      <trkpt lat="48.83124" lon="2.23591">
        <ele>95.7</ele>
        <time>2015-05-11T20:25:49.522Z</time>
      </trkpt>
      <trkpt lat="48.83126" lon="2.23598">
        <ele>95.8</ele>
        <time>2015-05-11T20:25:50.542Z</time>
      </trkpt>
      <trkpt lat="48.83129" lon="2.23606">
        <ele>96.3</ele>
        <time>2015-05-11T20:25:51.464Z</time>
      </trkpt>
      <trkpt lat="48.83131" lon="2.23613">
        <ele>96.6</ele>
        <time>2015-05-11T20:25:52.463Z</time>
      </trkpt>
      <trkpt lat="48.83134" lon="2.2362">
        <ele>96.9</ele>
        <time>2015-05-11T20:25:53.484Z</time>
      </trkpt>
      <trkpt lat="48.83137" lon="2.23626">
        <ele>97.1</ele>
        <time>2015-05-11T20:25:54.497Z</time>
      </trkpt>
      <trkpt lat="48.83139" lon="2.23634">
        <ele>97</ele>
        <time>2015-05-11T20:25:55.513Z</time>
      </trkpt>
      <trkpt lat="48.83142" lon="2.23642">
        <ele>97.2</ele>
        <time>2015-05-11T20:25:56.547Z</time>
      </trkpt>
      <trkpt lat="48.83144" lon="2.23649">
        <ele>97</ele>
        <time>2015-05-11T20:25:57.460Z</time>
      </trkpt>
      <trkpt lat="48.83146" lon="2.23656">
        <ele>97</ele>
        <time>2015-05-11T20:25:58.457Z</time>
      </trkpt>
      <trkpt lat="48.8315" lon="2.23663">
        <ele>97.2</ele>
        <time>2015-05-11T20:25:59.464Z</time>
      </trkpt>
      <trkpt lat="48.83153" lon="2.23668">
        <ele>97.4</ele>
        <time>2015-05-11T20:26:00.543Z</time>
      </trkpt>
      <trkpt lat="48.83153" lon="2.23674">
        <ele>97</ele>
        <time>2015-05-11T20:26:01.510Z</time>
      </trkpt>
      <trkpt lat="48.83149" lon="2.2368">
        <ele>97.5</ele>
        <time>2015-05-11T20:26:02.530Z</time>
      </trkpt>
      <trkpt lat="48.83144" lon="2.23686">
        <ele>97.2</ele>
        <time>2015-05-11T20:26:03.546Z</time>
      </trkpt>
      <trkpt lat="48.83136" lon="2.23689">
        <ele>96.8</ele>
        <time>2015-05-11T20:26:04.461Z</time>
      </trkpt>
      <trkpt lat="48.83129" lon="2.23692">
        <ele>96.2</ele>
        <time>2015-05-11T20:26:05.477Z</time>
      </trkpt>
      <trkpt lat="48.83123" lon="2.23693">
        <ele>95.7</ele>
        <time>2015-05-11T20:26:06.496Z</time>
      </trkpt>
      <trkpt lat="48.83116" lon="2.23693">
        <ele>95.1</ele>
        <time>2015-05-11T20:26:07.507Z</time>
      </trkpt>
      <trkpt lat="48.83109" lon="2.23695">
        <ele>94.4</ele>
        <time>2015-05-11T20:26:08.520Z</time>
      </trkpt>
      <trkpt lat="48.83103" lon="2.23696">
        <ele>93.8</ele>
        <time>2015-05-11T20:26:09.530Z</time>
      </trkpt>
      <trkpt lat="48.83098" lon="2.23698">
        <ele>94.4</ele>
        <time>2015-05-11T20:26:10.532Z</time>
      </trkpt>
      <trkpt lat="48.83093" lon="2.237">
        <ele>94.1</ele>
        <time>2015-05-11T20:26:11.458Z</time>
      </trkpt>
      <trkpt lat="48.83089" lon="2.23703">
        <ele>94.7</ele>
        <time>2015-05-11T20:26:12.561Z</time>
      </trkpt>
      <trkpt lat="48.83084" lon="2.23706">
        <ele>94.8</ele>
        <time>2015-05-11T20:26:13.468Z</time>
      </trkpt>
      <trkpt lat="48.83079" lon="2.23708">
        <ele>94.3</ele>
        <time>2015-05-11T20:26:14.474Z</time>
      </trkpt>
      <trkpt lat="48.83074" lon="2.2371">
        <ele>94.1</ele>
        <time>2015-05-11T20:26:15.494Z</time>
      </trkpt>
      <trkpt lat="48.83068" lon="2.2371">
        <ele>93.4</ele>
        <time>2015-05-11T20:26:16.512Z</time>
      </trkpt>
      <trkpt lat="48.83062" lon="2.23712">
        <ele>93.2</ele>
        <time>2015-05-11T20:26:17.528Z</time>
      </trkpt>
      <trkpt lat="48.83058" lon="2.23715">
        <ele>93.6</ele>
        <time>2015-05-11T20:26:18.538Z</time>
      </trkpt>
      <trkpt lat="48.83053" lon="2.23716">
        <ele>93.4</ele>
        <time>2015-05-11T20:26:19.538Z</time>
      </trkpt>
      <trkpt lat="48.83048" lon="2.23717">
        <ele>93.3</ele>
        <time>2015-05-11T20:26:20.456Z</time>
      </trkpt>
      <trkpt lat="48.8304" lon="2.23719">
        <ele>92.4</ele>
        <time>2015-05-11T20:26:22.475Z</time>
      </trkpt>
      <trkpt lat="48.83035" lon="2.2372">
        <ele>92</ele>
        <time>2015-05-11T20:26:23.491Z</time>
      </trkpt>
      <trkpt lat="48.83031" lon="2.23722">
        <ele>91.4</ele>
        <time>2015-05-11T20:26:24.518Z</time>
      </trkpt>
      <trkpt lat="48.83027" lon="2.23725">
        <ele>90.5</ele>
        <time>2015-05-11T20:26:25.531Z</time>
      </trkpt>
      <trkpt lat="48.83022" lon="2.23726">
        <ele>89.8</ele>
        <time>2015-05-11T20:26:26.543Z</time>
      </trkpt>
      <trkpt lat="48.83017" lon="2.23727">
        <ele>89.3</ele>
        <time>2015-05-11T20:26:27.454Z</time>
      </trkpt>
      <trkpt lat="48.83012" lon="2.2373">
        <ele>89</ele>
        <time>2015-05-11T20:26:28.474Z</time>
      </trkpt>
      <trkpt lat="48.83006" lon="2.2373">
        <ele>88.9</ele>
        <time>2015-05-11T20:26:29.487Z</time>
      </trkpt>
      <trkpt lat="48.82997" lon="2.23734">
        <ele>88.7</ele>
        <time>2015-05-11T20:26:31.503Z</time>
      </trkpt>
      <trkpt lat="48.82994" lon="2.23737">
        <ele>88.5</ele>
        <time>2015-05-11T20:26:32.511Z</time>
      </trkpt>
      <trkpt lat="48.82986" lon="2.23741">
        <ele>88.9</ele>
        <time>2015-05-11T20:26:34.490Z</time>
      </trkpt>
      <trkpt lat="48.82983" lon="2.23745">
        <ele>88.9</ele>
        <time>2015-05-11T20:26:35.546Z</time>
      </trkpt>
      <trkpt lat="48.82983" lon="2.23756">
        <ele>88.8</ele>
        <time>2015-05-11T20:26:37.477Z</time>
      </trkpt>
      <trkpt lat="48.82986" lon="2.23763">
        <ele>88.8</ele>
        <time>2015-05-11T20:26:38.570Z</time>
      </trkpt>
      <trkpt lat="48.82989" lon="2.23773">
        <ele>87.9</ele>
        <time>2015-05-11T20:26:40.466Z</time>
      </trkpt>
      <trkpt lat="48.82992" lon="2.23778">
        <ele>87.9</ele>
        <time>2015-05-11T20:26:41.473Z</time>
      </trkpt>
      <trkpt lat="48.82995" lon="2.23787">
        <ele>87.7</ele>
        <time>2015-05-11T20:26:43.446Z</time>
      </trkpt>
      <trkpt lat="48.82996" lon="2.23791">
        <ele>87.7</ele>
        <time>2015-05-11T20:26:44.485Z</time>
      </trkpt>
      <trkpt lat="48.82999" lon="2.23799">
        <ele>87.8</ele>
        <time>2015-05-11T20:26:46.460Z</time>
      </trkpt>
      <trkpt lat="48.83" lon="2.23804">
        <ele>87.6</ele>
        <time>2015-05-11T20:26:47.485Z</time>
      </trkpt>
      <trkpt lat="48.83003" lon="2.23812">
        <ele>87.3</ele>
        <time>2015-05-11T20:26:49.534Z</time>
      </trkpt>
      <trkpt lat="48.83005" lon="2.23817">
        <ele>87.2</ele>
        <time>2015-05-11T20:26:50.560Z</time>
      </trkpt>
      <trkpt lat="48.83007" lon="2.23825">
        <ele>87</ele>
        <time>2015-05-11T20:26:52.462Z</time>
      </trkpt>
      <trkpt lat="48.83008" lon="2.23829">
        <ele>87.2</ele>
        <time>2015-05-11T20:26:53.484Z</time>
      </trkpt>
      <trkpt lat="48.83011" lon="2.23838">
        <ele>87</ele>
        <time>2015-05-11T20:26:55.519Z</time>
      </trkpt>
      <trkpt lat="48.83013" lon="2.23841">
        <ele>86.8</ele>
        <time>2015-05-11T20:26:56.555Z</time>
      </trkpt>
      <trkpt lat="48.83016" lon="2.23849">
        <ele>86.5</ele>
        <time>2015-05-11T20:26:58.485Z</time>
      </trkpt>
      <trkpt lat="48.83018" lon="2.23853">
        <ele>86.5</ele>
        <time>2015-05-11T20:26:59.495Z</time>
      </trkpt>
      <trkpt lat="48.83022" lon="2.23866">
        <ele>86.4</ele>
        <time>2015-05-11T20:27:03.520Z</time>
      </trkpt>
      <trkpt lat="48.83024" lon="2.23868">
        <ele>86.8</ele>
        <time>2015-05-11T20:27:04.525Z</time>
      </trkpt>
      <trkpt lat="48.83026" lon="2.23879">
        <ele>87.3</ele>
        <time>2015-05-11T20:27:14.446Z</time>
      </trkpt>
      <trkpt lat="48.83018" lon="2.23888">
        <ele>87.2</ele>
        <time>2015-05-11T20:27:15.477Z</time>
      </trkpt>
      <trkpt lat="48.83017" lon="2.23899">
        <ele>87.4</ele>
        <time>2015-05-11T20:27:19.325Z</time>
      </trkpt>
      <trkpt lat="48.83017" lon="2.23903">
        <ele>87.6</ele>
        <time>2015-05-11T20:27:19.445Z</time>
      </trkpt>
      <trkpt lat="48.83018" lon="2.23915">
        <ele>88.2</ele>
        <time>2015-05-11T20:27:22.523Z</time>
      </trkpt>
      <trkpt lat="48.83019" lon="2.23918">
        <ele>88.3</ele>
        <time>2015-05-11T20:27:23.544Z</time>
      </trkpt>
      <trkpt lat="48.8302" lon="2.23931">
        <ele>88.4</ele>
        <time>2015-05-11T20:27:26.482Z</time>
      </trkpt>
      <trkpt lat="48.8302" lon="2.23935">
        <ele>88.4</ele>
        <time>2015-05-11T20:27:27.498Z</time>
      </trkpt>
      <trkpt lat="48.83024" lon="2.23945">
        <ele>88.4</ele>
        <time>2015-05-11T20:27:30.541Z</time>
      </trkpt>
      <trkpt lat="48.83027" lon="2.23949">
        <ele>88.5</ele>
        <time>2015-05-11T20:27:31.476Z</time>
      </trkpt>
      <trkpt lat="48.83028" lon="2.23961">
        <ele>88.2</ele>
        <time>2015-05-11T20:27:35.463Z</time>
      </trkpt>
      <trkpt lat="48.83028" lon="2.23964">
        <ele>88.4</ele>
        <time>2015-05-11T20:27:36.506Z</time>
      </trkpt>
      <trkpt lat="48.83028" lon="2.23974">
        <ele>88.5</ele>
        <time>2015-05-11T20:27:38.515Z</time>
      </trkpt>
      <trkpt lat="48.83027" lon="2.23981">
        <ele>88.3</ele>
        <time>2015-05-11T20:27:39.550Z</time>
      </trkpt>
      <trkpt lat="48.83024" lon="2.23993">
        <ele>88.2</ele>
        <time>2015-05-11T20:27:41.467Z</time>
      </trkpt>
      <trkpt lat="48.83023" lon="2.24">
        <ele>88.2</ele>
        <time>2015-05-11T20:27:42.519Z</time>
      </trkpt>
      <trkpt lat="48.83021" lon="2.24011">
        <ele>88.3</ele>
        <time>2015-05-11T20:27:44.557Z</time>
      </trkpt>
      <trkpt lat="48.83019" lon="2.24016">
        <ele>88.6</ele>
        <time>2015-05-11T20:27:45.466Z</time>
      </trkpt>
      <trkpt lat="48.83016" lon="2.24025">
        <ele>89</ele>
        <time>2015-05-11T20:27:47.633Z</time>
      </trkpt>
      <trkpt lat="48.83014" lon="2.24031">
        <ele>89.3</ele>
        <time>2015-05-11T20:27:48.536Z</time>
      </trkpt>
      <trkpt lat="48.83011" lon="2.24044">
        <ele>90</ele>
        <time>2015-05-11T20:27:50.537Z</time>
      </trkpt>
      <trkpt lat="48.83009" lon="2.24051">
        <ele>89.9</ele>
        <time>2015-05-11T20:27:51.432Z</time>
      </trkpt>
      <trkpt lat="48.83005" lon="2.24057">
        <ele>89.7</ele>
        <time>2015-05-11T20:27:52.509Z</time>
      </trkpt>
      <trkpt lat="48.83002" lon="2.24063">
        <ele>89.3</ele>
        <time>2015-05-11T20:27:53.437Z</time>
      </trkpt>
      <trkpt lat="48.82999" lon="2.24074">
        <ele>88.1</ele>
        <time>2015-05-11T20:27:56.474Z</time>
      </trkpt>
      <trkpt lat="48.82998" lon="2.24078">
        <ele>87.8</ele>
        <time>2015-05-11T20:27:57.434Z</time>
      </trkpt>
      <trkpt lat="48.82995" lon="2.2409">
        <ele>86.8</ele>
        <time>2015-05-11T20:28:00.548Z</time>
      </trkpt>
      <trkpt lat="48.82995" lon="2.24095">
        <ele>86.6</ele>
        <time>2015-05-11T20:28:01.443Z</time>
      </trkpt>
      <trkpt lat="48.82994" lon="2.24106">
        <ele>86.6</ele>
        <time>2015-05-11T20:28:04.478Z</time>
      </trkpt>
      <trkpt lat="48.82993" lon="2.2411">
        <ele>86.4</ele>
        <time>2015-05-11T20:28:05.578Z</time>
      </trkpt>
      <trkpt lat="48.82992" lon="2.24122">
        <ele>86.4</ele>
        <time>2015-05-11T20:28:07.920Z</time>
      </trkpt>
      <trkpt lat="48.82991" lon="2.24127">
        <ele>86.3</ele>
        <time>2015-05-11T20:28:08.455Z</time>
      </trkpt>
      <trkpt lat="48.82989" lon="2.2414">
        <ele>86.3</ele>
        <time>2015-05-11T20:28:10.485Z</time>
      </trkpt>
      <trkpt lat="48.82989" lon="2.24146">
        <ele>86.5</ele>
        <time>2015-05-11T20:28:11.567Z</time>
      </trkpt>
      <trkpt lat="48.82988" lon="2.24157">
        <ele>85.9</ele>
        <time>2015-05-11T20:28:13.470Z</time>
      </trkpt>
      <trkpt lat="48.82987" lon="2.24162">
        <ele>85.8</ele>
        <time>2015-05-11T20:28:14.469Z</time>
      </trkpt>
      <trkpt lat="48.82985" lon="2.24172">
        <ele>85.6</ele>
        <time>2015-05-11T20:28:16.480Z</time>
      </trkpt>
      <trkpt lat="48.82983" lon="2.24175">
        <ele>85.7</ele>
        <time>2015-05-11T20:28:17.496Z</time>
      </trkpt>
      <trkpt lat="48.8298" lon="2.24184">
        <ele>85.8</ele>
        <time>2015-05-11T20:28:19.517Z</time>
      </trkpt>
      <trkpt lat="48.82979" lon="2.24188">
        <ele>85.4</ele>
        <time>2015-05-11T20:28:20.520Z</time>
      </trkpt>
      <trkpt lat="48.82976" lon="2.24199">
        <ele>84.4</ele>
        <time>2015-05-11T20:28:23.489Z</time>
      </trkpt>
      <trkpt lat="48.82975" lon="2.24203">
        <ele>84.1</ele>
        <time>2015-05-11T20:28:24.528Z</time>
      </trkpt>
      <trkpt lat="48.82973" lon="2.24213">
        <ele>85.2</ele>
        <time>2015-05-11T20:28:38.511Z</time>
      </trkpt>
      <trkpt lat="48.82973" lon="2.24233">
        <ele>84.9</ele>
        <time>2015-05-11T20:28:39.513Z</time>
      </trkpt>
      <trkpt lat="48.82975" lon="2.24247">
        <ele>84.5</ele>
        <time>2015-05-11T20:28:42.681Z</time>
      </trkpt>
      <trkpt lat="48.82975" lon="2.24252">
        <ele>84.1</ele>
        <time>2015-05-11T20:28:43.473Z</time>
      </trkpt>
      <trkpt lat="48.82972" lon="2.24261">
        <ele>83.6</ele>
        <time>2015-05-11T20:28:45.489Z</time>
      </trkpt>
      <trkpt lat="48.82971" lon="2.24266">
        <ele>83.5</ele>
        <time>2015-05-11T20:28:46.494Z</time>
      </trkpt>
      <trkpt lat="48.82971" lon="2.24276">
        <ele>84</ele>
        <time>2015-05-11T20:28:48.515Z</time>
      </trkpt>
      <trkpt lat="48.82971" lon="2.24282">
        <ele>84</ele>
        <time>2015-05-11T20:28:49.535Z</time>
      </trkpt>
      <trkpt lat="48.8297" lon="2.24293">
        <ele>84.2</ele>
        <time>2015-05-11T20:28:51.469Z</time>
      </trkpt>
      <trkpt lat="48.82969" lon="2.24299">
        <ele>84.4</ele>
        <time>2015-05-11T20:28:52.471Z</time>
      </trkpt>
      <trkpt lat="48.82967" lon="2.24306">
        <ele>84.3</ele>
        <time>2015-05-11T20:28:53.471Z</time>
      </trkpt>
      <trkpt lat="48.82965" lon="2.24312">
        <ele>84.3</ele>
        <time>2015-05-11T20:28:54.478Z</time>
      </trkpt>
      <trkpt lat="48.82962" lon="2.24323">
        <ele>85</ele>
        <time>2015-05-11T20:28:56.511Z</time>
      </trkpt>
      <trkpt lat="48.82961" lon="2.2433">
        <ele>85.2</ele>
        <time>2015-05-11T20:28:57.548Z</time>
      </trkpt>
      <trkpt lat="48.82959" lon="2.24337">
        <ele>85.3</ele>
        <time>2015-05-11T20:28:58.445Z</time>
      </trkpt>
      <trkpt lat="48.82959" lon="2.24345">
        <ele>85.1</ele>
        <time>2015-05-11T20:28:59.467Z</time>
      </trkpt>
      <trkpt lat="48.82956" lon="2.24358">
        <ele>84.7</ele>
        <time>2015-05-11T20:29:01.521Z</time>
      </trkpt>
      <trkpt lat="48.82955" lon="2.24364">
        <ele>84.6</ele>
        <time>2015-05-11T20:29:02.542Z</time>
      </trkpt>
      <trkpt lat="48.82953" lon="2.24376">
        <ele>84.9</ele>
        <time>2015-05-11T20:29:04.485Z</time>
      </trkpt>
      <trkpt lat="48.82952" lon="2.24381">
        <ele>85.1</ele>
        <time>2015-05-11T20:29:05.502Z</time>
      </trkpt>
      <trkpt lat="48.82951" lon="2.24388">
        <ele>84.9</ele>
        <time>2015-05-11T20:29:06.525Z</time>
      </trkpt>
      <trkpt lat="48.8295" lon="2.24395">
        <ele>84.7</ele>
        <time>2015-05-11T20:29:07.535Z</time>
      </trkpt>
      <trkpt lat="48.82946" lon="2.24407">
        <ele>84.3</ele>
        <time>2015-05-11T20:29:09.694Z</time>
      </trkpt>
      <trkpt lat="48.82944" lon="2.24413">
        <ele>84.2</ele>
        <time>2015-05-11T20:29:10.567Z</time>
      </trkpt>
      <trkpt lat="48.82941" lon="2.24424">
        <ele>84.3</ele>
        <time>2015-05-11T20:29:12.507Z</time>
      </trkpt>
      <trkpt lat="48.82939" lon="2.24431">
        <ele>84</ele>
        <time>2015-05-11T20:29:13.502Z</time>
      </trkpt>
      <trkpt lat="48.82938" lon="2.24438">
        <ele>83.5</ele>
        <time>2015-05-11T20:29:14.514Z</time>
      </trkpt>
      <trkpt lat="48.82937" lon="2.24446">
        <ele>82.9</ele>
        <time>2015-05-11T20:29:15.524Z</time>
      </trkpt>
      <trkpt lat="48.82936" lon="2.24453">
        <ele>82.7</ele>
        <time>2015-05-11T20:29:16.545Z</time>
      </trkpt>
      <trkpt lat="48.82935" lon="2.2446">
        <ele>82.4</ele>
        <time>2015-05-11T20:29:17.545Z</time>
      </trkpt>
      <trkpt lat="48.82933" lon="2.24467">
        <ele>82.6</ele>
        <time>2015-05-11T20:29:18.555Z</time>
      </trkpt>
      <trkpt lat="48.82931" lon="2.24473">
        <ele>82.7</ele>
        <time>2015-05-11T20:29:19.465Z</time>
      </trkpt>
      <trkpt lat="48.8293" lon="2.24481">
        <ele>82.6</ele>
        <time>2015-05-11T20:29:20.529Z</time>
      </trkpt>
      <trkpt lat="48.82929" lon="2.24488">
        <ele>82.6</ele>
        <time>2015-05-11T20:29:21.482Z</time>
      </trkpt>
      <trkpt lat="48.82928" lon="2.24495">
        <ele>82.6</ele>
        <time>2015-05-11T20:29:22.486Z</time>
      </trkpt>
      <trkpt lat="48.82927" lon="2.24501">
        <ele>82.6</ele>
        <time>2015-05-11T20:29:23.502Z</time>
      </trkpt>
      <trkpt lat="48.82925" lon="2.24508">
        <ele>82.9</ele>
        <time>2015-05-11T20:29:24.517Z</time>
      </trkpt>
      <trkpt lat="48.82924" lon="2.24516">
        <ele>82.8</ele>
        <time>2015-05-11T20:29:25.477Z</time>
      </trkpt>
      <trkpt lat="48.82923" lon="2.24524">
        <ele>83</ele>
        <time>2015-05-11T20:29:26.488Z</time>
      </trkpt>
      <trkpt lat="48.82922" lon="2.24533">
        <ele>83.1</ele>
        <time>2015-05-11T20:29:27.528Z</time>
      </trkpt>
      <trkpt lat="48.8292" lon="2.24542">
        <ele>83.2</ele>
        <time>2015-05-11T20:29:28.467Z</time>
      </trkpt>
      <trkpt lat="48.82917" lon="2.24549">
        <ele>83.1</ele>
        <time>2015-05-11T20:29:29.480Z</time>
      </trkpt>
      <trkpt lat="48.82915" lon="2.24561">
        <ele>83.7</ele>
        <time>2015-05-11T20:29:31.502Z</time>
      </trkpt>
      <trkpt lat="48.82914" lon="2.24568">
        <ele>83.6</ele>
        <time>2015-05-11T20:29:32.512Z</time>
      </trkpt>
      <trkpt lat="48.82912" lon="2.24574">
        <ele>83.6</ele>
        <time>2015-05-11T20:29:33.167Z</time>
      </trkpt>
      <trkpt lat="48.82911" lon="2.24581">
        <ele>83.6</ele>
        <time>2015-05-11T20:29:34.547Z</time>
      </trkpt>
      <trkpt lat="48.8291" lon="2.24587">
        <ele>83.8</ele>
        <time>2015-05-11T20:29:35.440Z</time>
      </trkpt>
      <trkpt lat="48.82908" lon="2.24595">
        <ele>84.1</ele>
        <time>2015-05-11T20:29:36.505Z</time>
      </trkpt>
      <trkpt lat="48.82905" lon="2.24602">
        <ele>84.4</ele>
        <time>2015-05-11T20:29:37.362Z</time>
      </trkpt>
      <trkpt lat="48.82903" lon="2.2461">
        <ele>84.6</ele>
        <time>2015-05-11T20:29:38.449Z</time>
      </trkpt>
      <trkpt lat="48.82901" lon="2.2462">
        <ele>84.3</ele>
        <time>2015-05-11T20:29:39.476Z</time>
      </trkpt>
      <trkpt lat="48.82901" lon="2.24629">
        <ele>84</ele>
        <time>2015-05-11T20:29:40.490Z</time>
      </trkpt>
      <trkpt lat="48.82902" lon="2.24637">
        <ele>84.2</ele>
        <time>2015-05-11T20:29:41.497Z</time>
      </trkpt>
      <trkpt lat="48.82903" lon="2.24644">
        <ele>84.3</ele>
        <time>2015-05-11T20:29:42.499Z</time>
      </trkpt>
      <trkpt lat="48.82907" lon="2.24655">
        <ele>84.6</ele>
        <time>2015-05-11T20:29:44.436Z</time>
      </trkpt>
      <trkpt lat="48.82909" lon="2.2466">
        <ele>84.9</ele>
        <time>2015-05-11T20:29:45.497Z</time>
      </trkpt>
      <trkpt lat="48.82912" lon="2.24668">
        <ele>84.5</ele>
        <time>2015-05-11T20:29:47.521Z</time>
      </trkpt>
      <trkpt lat="48.82915" lon="2.24672">
        <ele>84.9</ele>
        <time>2015-05-11T20:29:48.530Z</time>
      </trkpt>
      <trkpt lat="48.8292" lon="2.24677">
        <ele>85</ele>
        <time>2015-05-11T20:29:49.597Z</time>
      </trkpt>
      <trkpt lat="48.82922" lon="2.24683">
        <ele>84.9</ele>
        <time>2015-05-11T20:29:50.465Z</time>
      </trkpt>
      <trkpt lat="48.82926" lon="2.24692">
        <ele>84.7</ele>
        <time>2015-05-11T20:29:52.559Z</time>
      </trkpt>
      <trkpt lat="48.82927" lon="2.24696">
        <ele>84.8</ele>
        <time>2015-05-11T20:29:53.458Z</time>
      </trkpt>
      <trkpt lat="48.82932" lon="2.24702">
        <ele>84.8</ele>
        <time>2015-05-11T20:29:55.515Z</time>
      </trkpt>
      <trkpt lat="48.82934" lon="2.24705">
        <ele>84.7</ele>
        <time>2015-05-11T20:29:56.468Z</time>
      </trkpt>
      <trkpt lat="48.82939" lon="2.24714">
        <ele>85</ele>
        <time>2015-05-11T20:29:59.545Z</time>
      </trkpt>
      <trkpt lat="48.82941" lon="2.24719">
        <ele>85.3</ele>
        <time>2015-05-11T20:30:00.559Z</time>
      </trkpt>
      <trkpt lat="48.82945" lon="2.2473">
        <ele>84.9</ele>
        <time>2015-05-11T20:30:02.515Z</time>
      </trkpt>
      <trkpt lat="48.82947" lon="2.24738">
        <ele>85</ele>
        <time>2015-05-11T20:30:03.439Z</time>
      </trkpt>
      <trkpt lat="48.82949" lon="2.24747">
        <ele>85.5</ele>
        <time>2015-05-11T20:30:04.447Z</time>
      </trkpt>
      <trkpt lat="48.82949" lon="2.24756">
        <ele>87</ele>
        <time>2015-05-11T20:30:05.464Z</time>
      </trkpt>
      <trkpt lat="48.82952" lon="2.24762">
        <ele>87.3</ele>
        <time>2015-05-11T20:30:06.491Z</time>
      </trkpt>
      <trkpt lat="48.82956" lon="2.24767">
        <ele>87.3</ele>
        <time>2015-05-11T20:30:07.507Z</time>
      </trkpt>
      <trkpt lat="48.8296" lon="2.24769">
        <ele>87.7</ele>
        <time>2015-05-11T20:30:08.523Z</time>
      </trkpt>
      <trkpt lat="48.82969" lon="2.24769">
        <ele>87.9</ele>
        <time>2015-05-11T20:30:10.436Z</time>
      </trkpt>
      <trkpt lat="48.82974" lon="2.24766">
        <ele>87.7</ele>
        <time>2015-05-11T20:30:11.472Z</time>
      </trkpt>
      <trkpt lat="48.82981" lon="2.24761">
        <ele>88</ele>
        <time>2015-05-11T20:30:13.501Z</time>
      </trkpt>
      <trkpt lat="48.82985" lon="2.24759">
        <ele>88.2</ele>
        <time>2015-05-11T20:30:14.472Z</time>
      </trkpt>
      <trkpt lat="48.82991" lon="2.24754">
        <ele>88.6</ele>
        <time>2015-05-11T20:30:16.473Z</time>
      </trkpt>
      <trkpt lat="48.82997" lon="2.2475">
        <ele>88.5</ele>
        <time>2015-05-11T20:30:17.489Z</time>
      </trkpt>
      <trkpt lat="48.83001" lon="2.24748">
        <ele>88.6</ele>
        <time>2015-05-11T20:30:18.737Z</time>
      </trkpt>
      <trkpt lat="48.83006" lon="2.24746">
        <ele>89.1</ele>
        <time>2015-05-11T20:30:19.516Z</time>
      </trkpt>
      <trkpt lat="48.8301" lon="2.24745">
        <ele>89.2</ele>
        <time>2015-05-11T20:30:21.097Z</time>
      </trkpt>
      <trkpt lat="48.83015" lon="2.24743">
        <ele>89.4</ele>
        <time>2015-05-11T20:30:21.428Z</time>
      </trkpt>
      <trkpt lat="48.8302" lon="2.2474">
        <ele>89.4</ele>
        <time>2015-05-11T20:30:22.462Z</time>
      </trkpt>
      <trkpt lat="48.83024" lon="2.24737">
        <ele>89.2</ele>
        <time>2015-05-11T20:30:23.479Z</time>
      </trkpt>
      <trkpt lat="48.83029" lon="2.24733">
        <ele>89.6</ele>
        <time>2015-05-11T20:30:24.554Z</time>
      </trkpt>
      <trkpt lat="48.83034" lon="2.2473">
        <ele>90.2</ele>
        <time>2015-05-11T20:30:25.460Z</time>
      </trkpt>
      <trkpt lat="48.8304" lon="2.24729">
        <ele>90.5</ele>
        <time>2015-05-11T20:30:26.428Z</time>
      </trkpt>
      <trkpt lat="48.83045" lon="2.24727">
        <ele>90.4</ele>
        <time>2015-05-11T20:30:27.463Z</time>
      </trkpt>
      <trkpt lat="48.83051" lon="2.24724">
        <ele>90.4</ele>
        <time>2015-05-11T20:30:28.468Z</time>
      </trkpt>
      <trkpt lat="48.83057" lon="2.24721">
        <ele>90.3</ele>
        <time>2015-05-11T20:30:29.480Z</time>
      </trkpt>
      <trkpt lat="48.83062" lon="2.24718">
        <ele>90.2</ele>
        <time>2015-05-11T20:30:31.263Z</time>
      </trkpt>
      <trkpt lat="48.83067" lon="2.24717">
        <ele>90.5</ele>
        <time>2015-05-11T20:30:31.501Z</time>
      </trkpt>
      <trkpt lat="48.83074" lon="2.24718">
        <ele>90.5</ele>
        <time>2015-05-11T20:30:32.524Z</time>
      </trkpt>
      <trkpt lat="48.83079" lon="2.24717">
        <ele>90.4</ele>
        <time>2015-05-11T20:30:33.529Z</time>
      </trkpt>
      <trkpt lat="48.83085" lon="2.24717">
        <ele>90.7</ele>
        <time>2015-05-11T20:30:34.703Z</time>
      </trkpt>
      <trkpt lat="48.8309" lon="2.24716">
        <ele>90.7</ele>
        <time>2015-05-11T20:30:35.422Z</time>
      </trkpt>
      <trkpt lat="48.83095" lon="2.24714">
        <ele>90.9</ele>
        <time>2015-05-11T20:30:36.520Z</time>
      </trkpt>
      <trkpt lat="48.83099" lon="2.24712">
        <ele>91</ele>
        <time>2015-05-11T20:30:37.517Z</time>
      </trkpt>
      <trkpt lat="48.83104" lon="2.24709">
        <ele>91.1</ele>
        <time>2015-05-11T20:30:38.517Z</time>
      </trkpt>
      <trkpt lat="48.83109" lon="2.24708">
        <ele>91</ele>
        <time>2015-05-11T20:30:39.454Z</time>
      </trkpt>
      <trkpt lat="48.83114" lon="2.24706">
        <ele>91</ele>
        <time>2015-05-11T20:30:40.473Z</time>
      </trkpt>
      <trkpt lat="48.83118" lon="2.24705">
        <ele>91.4</ele>
        <time>2015-05-11T20:30:41.488Z</time>
      </trkpt>
      <trkpt lat="48.83123" lon="2.24706">
        <ele>91.6</ele>
        <time>2015-05-11T20:30:42.506Z</time>
      </trkpt>
      <trkpt lat="48.83127" lon="2.24708">
        <ele>91.8</ele>
        <time>2015-05-11T20:30:43.517Z</time>
      </trkpt>
      <trkpt lat="48.83136" lon="2.24705">
        <ele>91.8</ele>
        <time>2015-05-11T20:30:45.544Z</time>
      </trkpt>
      <trkpt lat="48.83141" lon="2.24708">
        <ele>91.8</ele>
        <time>2015-05-11T20:30:46.499Z</time>
      </trkpt>
      <trkpt lat="48.83147" lon="2.24715">
        <ele>91.4</ele>
        <time>2015-05-11T20:30:47.466Z</time>
      </trkpt>
      <trkpt lat="48.83151" lon="2.24722">
        <ele>91.1</ele>
        <time>2015-05-11T20:30:48.493Z</time>
      </trkpt>
      <trkpt lat="48.83154" lon="2.24727">
        <ele>90.4</ele>
        <time>2015-05-11T20:30:49.559Z</time>
      </trkpt>
      <trkpt lat="48.83157" lon="2.24733">
        <ele>89.8</ele>
        <time>2015-05-11T20:30:50.566Z</time>
      </trkpt>
      <trkpt lat="48.83162" lon="2.24744">
        <ele>89.4</ele>
        <time>2015-05-11T20:30:52.548Z</time>
      </trkpt>
      <trkpt lat="48.83166" lon="2.24749">
        <ele>89.7</ele>
        <time>2015-05-11T20:30:53.527Z</time>
      </trkpt>
      <trkpt lat="48.83169" lon="2.24755">
        <ele>89.7</ele>
        <time>2015-05-11T20:30:54.531Z</time>
      </trkpt>
      <trkpt lat="48.83172" lon="2.2476">
        <ele>89.7</ele>
        <time>2015-05-11T20:30:55.549Z</time>
      </trkpt>
      <trkpt lat="48.83176" lon="2.24772">
        <ele>89.7</ele>
        <time>2015-05-11T20:30:57.460Z</time>
      </trkpt>
      <trkpt lat="48.83179" lon="2.24778">
        <ele>89.8</ele>
        <time>2015-05-11T20:30:58.470Z</time>
      </trkpt>
      <trkpt lat="48.83181" lon="2.24784">
        <ele>89.6</ele>
        <time>2015-05-11T20:30:59.485Z</time>
      </trkpt>
      <trkpt lat="48.83184" lon="2.2479">
        <ele>89.9</ele>
        <time>2015-05-11T20:31:00.498Z</time>
      </trkpt>
      <trkpt lat="48.83186" lon="2.24796">
        <ele>90.1</ele>
        <time>2015-05-11T20:31:01.524Z</time>
      </trkpt>
      <trkpt lat="48.83189" lon="2.24803">
        <ele>90.1</ele>
        <time>2015-05-11T20:31:02.435Z</time>
      </trkpt>
      <trkpt lat="48.83192" lon="2.24809">
        <ele>90.4</ele>
        <time>2015-05-11T20:31:03.473Z</time>
      </trkpt>
      <trkpt lat="48.83194" lon="2.24815">
        <ele>90.5</ele>
        <time>2015-05-11T20:31:04.505Z</time>
      </trkpt>
      <trkpt lat="48.83196" lon="2.24824">
        <ele>90.8</ele>
        <time>2015-05-11T20:31:05.496Z</time>
      </trkpt>
      <trkpt lat="48.83199" lon="2.24831">
        <ele>91.1</ele>
        <time>2015-05-11T20:31:06.542Z</time>
      </trkpt>
      <trkpt lat="48.83201" lon="2.24838">
        <ele>91.3</ele>
        <time>2015-05-11T20:31:07.537Z</time>
      </trkpt>
      <trkpt lat="48.83202" lon="2.24845">
        <ele>91.2</ele>
        <time>2015-05-11T20:31:08.527Z</time>
      </trkpt>
      <trkpt lat="48.83204" lon="2.24852">
        <ele>91.1</ele>
        <time>2015-05-11T20:31:09.543Z</time>
      </trkpt>
      <trkpt lat="48.83205" lon="2.2486">
        <ele>90.9</ele>
        <time>2015-05-11T20:31:10.552Z</time>
      </trkpt>
      <trkpt lat="48.83208" lon="2.24866">
        <ele>90.8</ele>
        <time>2015-05-11T20:31:11.472Z</time>
      </trkpt>
      <trkpt lat="48.83212" lon="2.24872">
        <ele>91</ele>
        <time>2015-05-11T20:31:12.655Z</time>
      </trkpt>
      <trkpt lat="48.83218" lon="2.24882">
        <ele>90.8</ele>
        <time>2015-05-11T20:31:14.483Z</time>
      </trkpt>
      <trkpt lat="48.8322" lon="2.24888">
        <ele>90.8</ele>
        <time>2015-05-11T20:31:15.542Z</time>
      </trkpt>
      <trkpt lat="48.83223" lon="2.24894">
        <ele>90.5</ele>
        <time>2015-05-11T20:31:16.556Z</time>
      </trkpt>
      <trkpt lat="48.83227" lon="2.24898">
        <ele>90.2</ele>
        <time>2015-05-11T20:31:17.569Z</time>
      </trkpt>
      <trkpt lat="48.83232" lon="2.24903">
        <ele>90.2</ele>
        <time>2015-05-11T20:31:18.518Z</time>
      </trkpt>
      <trkpt lat="48.83235" lon="2.24908">
        <ele>90.3</ele>
        <time>2015-05-11T20:31:19.550Z</time>
      </trkpt>
      <trkpt lat="48.83237" lon="2.24915">
        <ele>90.3</ele>
        <time>2015-05-11T20:31:20.567Z</time>
      </trkpt>
      <trkpt lat="48.8324" lon="2.24921">
        <ele>90.7</ele>
        <time>2015-05-11T20:31:21.491Z</time>
      </trkpt>
      <trkpt lat="48.83243" lon="2.24927">
        <ele>91.3</ele>
        <time>2015-05-11T20:31:22.515Z</time>
      </trkpt>
      <trkpt lat="48.83244" lon="2.24934">
        <ele>91.8</ele>
        <time>2015-05-11T20:31:23.523Z</time>
      </trkpt>
      <trkpt lat="48.83247" lon="2.24945">
        <ele>92.1</ele>
        <time>2015-05-11T20:31:25.536Z</time>
      </trkpt>
      <trkpt lat="48.83248" lon="2.24951">
        <ele>92.3</ele>
        <time>2015-05-11T20:31:26.547Z</time>
      </trkpt>
      <trkpt lat="48.83251" lon="2.24963">
        <ele>93.5</ele>
        <time>2015-05-11T20:31:28.496Z</time>
      </trkpt>
      <trkpt lat="48.83252" lon="2.24967">
        <ele>94.1</ele>
        <time>2015-05-11T20:31:29.510Z</time>
      </trkpt>
      <trkpt lat="48.83253" lon="2.24979">
        <ele>94.2</ele>
        <time>2015-05-11T20:31:31.566Z</time>
      </trkpt>
      <trkpt lat="48.83252" lon="2.24984">
        <ele>94.6</ele>
        <time>2015-05-11T20:31:32.632Z</time>
      </trkpt>
      <trkpt lat="48.83251" lon="2.24997">
        <ele>95.7</ele>
        <time>2015-05-11T20:31:34.485Z</time>
      </trkpt>
      <trkpt lat="48.83251" lon="2.25004">
        <ele>96</ele>
        <time>2015-05-11T20:31:35.502Z</time>
      </trkpt>
      <trkpt lat="48.83251" lon="2.2501">
        <ele>96.2</ele>
        <time>2015-05-11T20:31:36.531Z</time>
      </trkpt>
      <trkpt lat="48.83251" lon="2.25017">
        <ele>96.2</ele>
        <time>2015-05-11T20:31:37.538Z</time>
      </trkpt>
      <trkpt lat="48.83252" lon="2.25031">
        <ele>96.8</ele>
        <time>2015-05-11T20:31:39.478Z</time>
      </trkpt>
      <trkpt lat="48.83252" lon="2.25038">
        <ele>96.8</ele>
        <time>2015-05-11T20:31:40.497Z</time>
      </trkpt>
      <trkpt lat="48.83252" lon="2.25045">
        <ele>96.5</ele>
        <time>2015-05-11T20:31:41.480Z</time>
      </trkpt>
      <trkpt lat="48.83252" lon="2.25052">
        <ele>96.5</ele>
        <time>2015-05-11T20:31:42.485Z</time>
      </trkpt>
      <trkpt lat="48.83252" lon="2.25059">
        <ele>96.1</ele>
        <time>2015-05-11T20:31:43.507Z</time>
      </trkpt>
      <trkpt lat="48.83251" lon="2.25067">
        <ele>96.1</ele>
        <time>2015-05-11T20:31:44.526Z</time>
      </trkpt>
      <trkpt lat="48.83251" lon="2.25074">
        <ele>96</ele>
        <time>2015-05-11T20:31:45.450Z</time>
      </trkpt>
      <trkpt lat="48.8325" lon="2.25081">
        <ele>96.2</ele>
        <time>2015-05-11T20:31:46.455Z</time>
      </trkpt>
      <trkpt lat="48.83249" lon="2.25093">
        <ele>96.7</ele>
        <time>2015-05-11T20:31:48.473Z</time>
      </trkpt>
      <trkpt lat="48.83249" lon="2.25099">
        <ele>97.2</ele>
        <time>2015-05-11T20:31:49.501Z</time>
      </trkpt>
      <trkpt lat="48.83249" lon="2.25106">
        <ele>97.6</ele>
        <time>2015-05-11T20:31:50.524Z</time>
      </trkpt>
      <trkpt lat="48.83249" lon="2.25114">
        <ele>97.8</ele>
        <time>2015-05-11T20:31:51.541Z</time>
      </trkpt>
      <trkpt lat="48.83249" lon="2.25121">
        <ele>97.6</ele>
        <time>2015-05-11T20:31:52.462Z</time>
      </trkpt>
      <trkpt lat="48.83248" lon="2.25127">
        <ele>97.8</ele>
        <time>2015-05-11T20:31:53.465Z</time>
      </trkpt>
      <trkpt lat="48.83248" lon="2.25138">
        <ele>97.7</ele>
        <time>2015-05-11T20:31:55.488Z</time>
      </trkpt>
      <trkpt lat="48.83248" lon="2.25142">
        <ele>97.7</ele>
        <time>2015-05-11T20:31:56.517Z</time>
      </trkpt>
      <trkpt lat="48.83246" lon="2.25152">
        <ele>96.1</ele>
        <time>2015-05-11T20:31:58.460Z</time>
      </trkpt>
      <trkpt lat="48.83246" lon="2.25157">
        <ele>95.4</ele>
        <time>2015-05-11T20:31:59.516Z</time>
      </trkpt>
      <trkpt lat="48.83243" lon="2.25168">
        <ele>95.1</ele>
        <time>2015-05-11T20:32:01.456Z</time>
      </trkpt>
      <trkpt lat="48.83241" lon="2.25173">
        <ele>94.9</ele>
        <time>2015-05-11T20:32:02.567Z</time>
      </trkpt>
      <trkpt lat="48.83237" lon="2.25184">
        <ele>94.5</ele>
        <time>2015-05-11T20:32:04.476Z</time>
      </trkpt>
      <trkpt lat="48.83235" lon="2.25191">
        <ele>94.5</ele>
        <time>2015-05-11T20:32:05.500Z</time>
      </trkpt>
      <trkpt lat="48.83234" lon="2.25198">
        <ele>94.6</ele>
        <time>2015-05-11T20:32:06.511Z</time>
      </trkpt>
      <trkpt lat="48.83232" lon="2.25205">
        <ele>94.3</ele>
        <time>2015-05-11T20:32:07.509Z</time>
      </trkpt>
      <trkpt lat="48.83231" lon="2.25213">
        <ele>94.3</ele>
        <time>2015-05-11T20:32:08.515Z</time>
      </trkpt>
      <trkpt lat="48.83229" lon="2.25221">
        <ele>94.2</ele>
        <time>2015-05-11T20:32:09.520Z</time>
      </trkpt>
      <trkpt lat="48.83228" lon="2.2523">
        <ele>94.1</ele>
        <time>2015-05-11T20:32:10.448Z</time>
      </trkpt>
      <trkpt lat="48.83226" lon="2.25238">
        <ele>93.9</ele>
        <time>2015-05-11T20:32:11.451Z</time>
      </trkpt>
      <trkpt lat="48.83225" lon="2.25247">
        <ele>93.9</ele>
        <time>2015-05-11T20:32:12.574Z</time>
      </trkpt>
      <trkpt lat="48.83223" lon="2.25255">
        <ele>94.2</ele>
        <time>2015-05-11T20:32:13.491Z</time>
      </trkpt>
      <trkpt lat="48.8322" lon="2.25264">
        <ele>94.2</ele>
        <time>2015-05-11T20:32:14.512Z</time>
      </trkpt>
      <trkpt lat="48.83218" lon="2.25272">
        <ele>94.1</ele>
        <time>2015-05-11T20:32:15.531Z</time>
      </trkpt>
      <trkpt lat="48.83217" lon="2.25281">
        <ele>93.7</ele>
        <time>2015-05-11T20:32:16.473Z</time>
      </trkpt>
      <trkpt lat="48.83215" lon="2.25291">
        <ele>93.6</ele>
        <time>2015-05-11T20:32:17.465Z</time>
      </trkpt>
      <trkpt lat="48.83213" lon="2.253">
        <ele>93.6</ele>
        <time>2015-05-11T20:32:18.497Z</time>
      </trkpt>
      <trkpt lat="48.83211" lon="2.25308">
        <ele>93.4</ele>
        <time>2015-05-11T20:32:19.510Z</time>
      </trkpt>
      <trkpt lat="48.83208" lon="2.25316">
        <ele>93.3</ele>
        <time>2015-05-11T20:32:20.525Z</time>
      </trkpt>
      <trkpt lat="48.83207" lon="2.25325">
        <ele>93.1</ele>
        <time>2015-05-11T20:32:21.535Z</time>
      </trkpt>
      <trkpt lat="48.83205" lon="2.25333">
        <ele>93.1</ele>
        <time>2015-05-11T20:32:22.462Z</time>
      </trkpt>
      <trkpt lat="48.83202" lon="2.25341">
        <ele>92.7</ele>
        <time>2015-05-11T20:32:23.466Z</time>
      </trkpt>
      <trkpt lat="48.832" lon="2.2535">
        <ele>92.5</ele>
        <time>2015-05-11T20:32:24.551Z</time>
      </trkpt>
      <trkpt lat="48.83199" lon="2.25358">
        <ele>92.2</ele>
        <time>2015-05-11T20:32:25.495Z</time>
      </trkpt>
      <trkpt lat="48.83197" lon="2.25366">
        <ele>91.9</ele>
        <time>2015-05-11T20:32:26.471Z</time>
      </trkpt>
      <trkpt lat="48.83195" lon="2.25374">
        <ele>91.8</ele>
        <time>2015-05-11T20:32:27.478Z</time>
      </trkpt>
      <trkpt lat="48.83194" lon="2.25381">
        <ele>91.6</ele>
        <time>2015-05-11T20:32:28.507Z</time>
      </trkpt>
      <trkpt lat="48.83192" lon="2.25388">
        <ele>91.2</ele>
        <time>2015-05-11T20:32:29.512Z</time>
      </trkpt>
      <trkpt lat="48.8319" lon="2.25396">
        <ele>90.7</ele>
        <time>2015-05-11T20:32:30.523Z</time>
      </trkpt>
      <trkpt lat="48.83188" lon="2.25404">
        <ele>90</ele>
        <time>2015-05-11T20:32:31.536Z</time>
      </trkpt>
      <trkpt lat="48.83186" lon="2.25412">
        <ele>89.8</ele>
        <time>2015-05-11T20:32:32.552Z</time>
      </trkpt>
      <trkpt lat="48.83184" lon="2.2542">
        <ele>89.1</ele>
        <time>2015-05-11T20:32:33.437Z</time>
      </trkpt>
      <trkpt lat="48.83182" lon="2.25427">
        <ele>88.3</ele>
        <time>2015-05-11T20:32:34.488Z</time>
      </trkpt>
      <trkpt lat="48.83181" lon="2.25435">
        <ele>87.6</ele>
        <time>2015-05-11T20:32:35.509Z</time>
      </trkpt>
      <trkpt lat="48.83179" lon="2.25442">
        <ele>87.1</ele>
        <time>2015-05-11T20:32:36.517Z</time>
      </trkpt>
      <trkpt lat="48.83177" lon="2.2545">
        <ele>86.9</ele>
        <time>2015-05-11T20:32:37.532Z</time>
      </trkpt>
      <trkpt lat="48.83175" lon="2.25457">
        <ele>86.3</ele>
        <time>2015-05-11T20:32:38.560Z</time>
      </trkpt>
      <trkpt lat="48.83174" lon="2.25465">
        <ele>86.2</ele>
        <time>2015-05-11T20:32:39.467Z</time>
      </trkpt>
      <trkpt lat="48.83172" lon="2.25472">
        <ele>86.2</ele>
        <time>2015-05-11T20:32:40.465Z</time>
      </trkpt>
      <trkpt lat="48.83171" lon="2.25478">
        <ele>86.3</ele>
        <time>2015-05-11T20:32:41.491Z</time>
      </trkpt>
      <trkpt lat="48.8317" lon="2.25486">
        <ele>86.1</ele>
        <time>2015-05-11T20:32:42.502Z</time>
      </trkpt>
      <trkpt lat="48.83168" lon="2.25493">
        <ele>85.9</ele>
        <time>2015-05-11T20:32:43.528Z</time>
      </trkpt>
      <trkpt lat="48.83167" lon="2.25501">
        <ele>85.7</ele>
        <time>2015-05-11T20:32:44.560Z</time>
      </trkpt>
      <trkpt lat="48.83165" lon="2.25509">
        <ele>86</ele>
        <time>2015-05-11T20:32:45.440Z</time>
      </trkpt>
      <trkpt lat="48.83163" lon="2.25518">
        <ele>85.8</ele>
        <time>2015-05-11T20:32:46.463Z</time>
      </trkpt>
      <trkpt lat="48.83161" lon="2.25527">
        <ele>86</ele>
        <time>2015-05-11T20:32:47.476Z</time>
      </trkpt>
      <trkpt lat="48.8316" lon="2.25536">
        <ele>85.9</ele>
        <time>2015-05-11T20:32:48.512Z</time>
      </trkpt>
      <trkpt lat="48.83158" lon="2.25544">
        <ele>85.9</ele>
        <time>2015-05-11T20:32:49.520Z</time>
      </trkpt>
      <trkpt lat="48.83156" lon="2.25552">
        <ele>86.1</ele>
        <time>2015-05-11T20:32:50.554Z</time>
      </trkpt>
      <trkpt lat="48.83154" lon="2.2556">
        <ele>86.1</ele>
        <time>2015-05-11T20:32:51.486Z</time>
      </trkpt>
      <trkpt lat="48.83151" lon="2.25567">
        <ele>86.1</ele>
        <time>2015-05-11T20:32:52.458Z</time>
      </trkpt>
      <trkpt lat="48.83149" lon="2.25574">
        <ele>86.2</ele>
        <time>2015-05-11T20:32:53.469Z</time>
      </trkpt>
      <trkpt lat="48.83147" lon="2.25581">
        <ele>85.8</ele>
        <time>2015-05-11T20:32:54.496Z</time>
      </trkpt>
      <trkpt lat="48.83145" lon="2.2559">
        <ele>86.7</ele>
        <time>2015-05-11T20:32:55.512Z</time>
      </trkpt>
      <trkpt lat="48.83142" lon="2.25599">
        <ele>88.1</ele>
        <time>2015-05-11T20:32:56.510Z</time>
      </trkpt>
      <trkpt lat="48.83139" lon="2.25608">
        <ele>89.8</ele>
        <time>2015-05-11T20:32:57.523Z</time>
      </trkpt>
      <trkpt lat="48.83137" lon="2.25616">
        <ele>90</ele>
        <time>2015-05-11T20:32:58.556Z</time>
      </trkpt>
      <trkpt lat="48.83135" lon="2.25623">
        <ele>90</ele>
        <time>2015-05-11T20:32:59.460Z</time>
      </trkpt>
      <trkpt lat="48.83134" lon="2.2563">
        <ele>90.2</ele>
        <time>2015-05-11T20:33:00.465Z</time>
      </trkpt>
      <trkpt lat="48.83133" lon="2.25636">
        <ele>90.4</ele>
        <time>2015-05-11T20:33:01.445Z</time>
      </trkpt>
      <trkpt lat="48.83132" lon="2.2565">
        <ele>90.5</ele>
        <time>2015-05-11T20:33:03.517Z</time>
      </trkpt>
      <trkpt lat="48.83131" lon="2.25656">
        <ele>91</ele>
        <time>2015-05-11T20:33:04.552Z</time>
      </trkpt>
      <trkpt lat="48.83131" lon="2.25669">
        <ele>92.6</ele>
        <time>2015-05-11T20:33:06.549Z</time>
      </trkpt>
      <trkpt lat="48.83131" lon="2.25675">
        <ele>93.2</ele>
        <time>2015-05-11T20:33:07.494Z</time>
      </trkpt>
      <trkpt lat="48.8313" lon="2.25686">
        <ele>94.1</ele>
        <time>2015-05-11T20:33:09.556Z</time>
      </trkpt>
      <trkpt lat="48.83127" lon="2.25691">
        <ele>94.1</ele>
        <time>2015-05-11T20:33:10.533Z</time>
      </trkpt>
      <trkpt lat="48.83125" lon="2.257">
        <ele>94.4</ele>
        <time>2015-05-11T20:33:12.515Z</time>
      </trkpt>
      <trkpt lat="48.83122" lon="2.25704">
        <ele>94.4</ele>
        <time>2015-05-11T20:33:13.471Z</time>
      </trkpt>
      <trkpt lat="48.83118" lon="2.25712">
        <ele>94.3</ele>
        <time>2015-05-11T20:33:15.481Z</time>
      </trkpt>
      <trkpt lat="48.83116" lon="2.25714">
        <ele>94.2</ele>
        <time>2015-05-11T20:33:16.511Z</time>
      </trkpt>
      <trkpt lat="48.83115" lon="2.25726">
        <ele>91.7</ele>
        <time>2015-05-11T20:33:49.455Z</time>
      </trkpt>
      <trkpt lat="48.83115" lon="2.2573">
        <ele>91.7</ele>
        <time>2015-05-11T20:33:50.563Z</time>
      </trkpt>
      <trkpt lat="48.83114" lon="2.25739">
        <ele>91.7</ele>
        <time>2015-05-11T20:33:52.653Z</time>
      </trkpt>
      <trkpt lat="48.83113" lon="2.25745">
        <ele>91.9</ele>
        <time>2015-05-11T20:33:53.445Z</time>
      </trkpt>
      <trkpt lat="48.83108" lon="2.25755">
        <ele>91.3</ele>
        <time>2015-05-11T20:33:55.519Z</time>
      </trkpt>
      <trkpt lat="48.83106" lon="2.2576">
        <ele>91.3</ele>
        <time>2015-05-11T20:33:56.450Z</time>
      </trkpt>
      <trkpt lat="48.83103" lon="2.2577">
        <ele>90.8</ele>
        <time>2015-05-11T20:33:58.566Z</time>
      </trkpt>
      <trkpt lat="48.83101" lon="2.25774">
        <ele>90.5</ele>
        <time>2015-05-11T20:33:59.465Z</time>
      </trkpt>
      <trkpt lat="48.83098" lon="2.25783">
        <ele>90.1</ele>
        <time>2015-05-11T20:34:01.505Z</time>
      </trkpt>
      <trkpt lat="48.83097" lon="2.25788">
        <ele>89.8</ele>
        <time>2015-05-11T20:34:02.643Z</time>
      </trkpt>
      <trkpt lat="48.83094" lon="2.25796">
        <ele>89.1</ele>
        <time>2015-05-11T20:34:04.440Z</time>
      </trkpt>
      <trkpt lat="48.83092" lon="2.258">
        <ele>88.9</ele>
        <time>2015-05-11T20:34:05.497Z</time>
      </trkpt>
      <trkpt lat="48.83088" lon="2.25809">
        <ele>88.3</ele>
        <time>2015-05-11T20:34:07.451Z</time>
      </trkpt>
      <trkpt lat="48.83086" lon="2.25814">
        <ele>88.2</ele>
        <time>2015-05-11T20:34:08.477Z</time>
      </trkpt>
      <trkpt lat="48.83082" lon="2.25823">
        <ele>87.5</ele>
        <time>2015-05-11T20:34:10.450Z</time>
      </trkpt>
      <trkpt lat="48.8308" lon="2.25827">
        <ele>87.2</ele>
        <time>2015-05-11T20:34:11.489Z</time>
      </trkpt>
      <trkpt lat="48.83076" lon="2.25836">
        <ele>86.8</ele>
        <time>2015-05-11T20:34:13.532Z</time>
      </trkpt>
      <trkpt lat="48.83074" lon="2.2584">
        <ele>86.8</ele>
        <time>2015-05-11T20:34:14.539Z</time>
      </trkpt>
      <trkpt lat="48.83069" lon="2.25848">
        <ele>86.4</ele>
        <time>2015-05-11T20:34:16.567Z</time>
      </trkpt>
      <trkpt lat="48.83067" lon="2.25853">
        <ele>86.2</ele>
        <time>2015-05-11T20:34:17.486Z</time>
      </trkpt>
      <trkpt lat="48.83063" lon="2.25862">
        <ele>86</ele>
        <time>2015-05-11T20:34:19.531Z</time>
      </trkpt>
      <trkpt lat="48.83061" lon="2.25867">
        <ele>85.9</ele>
        <time>2015-05-11T20:34:20.494Z</time>
      </trkpt>
      <trkpt lat="48.83056" lon="2.25877">
        <ele>85.8</ele>
        <time>2015-05-11T20:34:22.481Z</time>
      </trkpt>
      <trkpt lat="48.83054" lon="2.25882">
        <ele>85.5</ele>
        <time>2015-05-11T20:34:23.501Z</time>
      </trkpt>
      <trkpt lat="48.8305" lon="2.25893">
        <ele>85.4</ele>
        <time>2015-05-11T20:34:26.344Z</time>
      </trkpt>
      <trkpt lat="48.83047" lon="2.25897">
        <ele>85.3</ele>
        <time>2015-05-11T20:34:26.462Z</time>
      </trkpt>
      <trkpt lat="48.83043" lon="2.25908">
        <ele>84.9</ele>
        <time>2015-05-11T20:34:28.477Z</time>
      </trkpt>
      <trkpt lat="48.8304" lon="2.25913">
        <ele>84.8</ele>
        <time>2015-05-11T20:34:29.492Z</time>
      </trkpt>
      <trkpt lat="48.83036" lon="2.25924">
        <ele>84.5</ele>
        <time>2015-05-11T20:34:31.482Z</time>
      </trkpt>
      <trkpt lat="48.83034" lon="2.25929">
        <ele>84</ele>
        <time>2015-05-11T20:34:32.492Z</time>
      </trkpt>
      <trkpt lat="48.83029" lon="2.2594">
        <ele>83.2</ele>
        <time>2015-05-11T20:34:34.569Z</time>
      </trkpt>
      <trkpt lat="48.83027" lon="2.25945">
        <ele>82.9</ele>
        <time>2015-05-11T20:34:35.589Z</time>
      </trkpt>
      <trkpt lat="48.83022" lon="2.25955">
        <ele>82.6</ele>
        <time>2015-05-11T20:34:37.504Z</time>
      </trkpt>
      <trkpt lat="48.8302" lon="2.2596">
        <ele>82.4</ele>
        <time>2015-05-11T20:34:38.592Z</time>
      </trkpt>
      <trkpt lat="48.83015" lon="2.25971">
        <ele>82.1</ele>
        <time>2015-05-11T20:34:40.488Z</time>
      </trkpt>
      <trkpt lat="48.83013" lon="2.25976">
        <ele>81.9</ele>
        <time>2015-05-11T20:34:41.597Z</time>
      </trkpt>
      <trkpt lat="48.8301" lon="2.25987">
        <ele>81.3</ele>
        <time>2015-05-11T20:34:43.548Z</time>
      </trkpt>
      <trkpt lat="48.83008" lon="2.25992">
        <ele>80.5</ele>
        <time>2015-05-11T20:34:44.478Z</time>
      </trkpt>
      <trkpt lat="48.83004" lon="2.26004">
        <ele>80.6</ele>
        <time>2015-05-11T20:34:46.496Z</time>
      </trkpt>
      <trkpt lat="48.83003" lon="2.2601">
        <ele>80.6</ele>
        <time>2015-05-11T20:34:47.501Z</time>
      </trkpt>
      <trkpt lat="48.82999" lon="2.26021">
        <ele>80.7</ele>
        <time>2015-05-11T20:34:49.488Z</time>
      </trkpt>
      <trkpt lat="48.82997" lon="2.26026">
        <ele>80.6</ele>
        <time>2015-05-11T20:34:50.514Z</time>
      </trkpt>
      <trkpt lat="48.82992" lon="2.26037">
        <ele>80.1</ele>
        <time>2015-05-11T20:34:52.659Z</time>
      </trkpt>
      <trkpt lat="48.8299" lon="2.26043">
        <ele>79.8</ele>
        <time>2015-05-11T20:34:53.553Z</time>
      </trkpt>
      <trkpt lat="48.82986" lon="2.26052">
        <ele>79.5</ele>
        <time>2015-05-11T20:34:55.492Z</time>
      </trkpt>
      <trkpt lat="48.82984" lon="2.26057">
        <ele>79.6</ele>
        <time>2015-05-11T20:34:56.815Z</time>
      </trkpt>
      <trkpt lat="48.82979" lon="2.26067">
        <ele>79.6</ele>
        <time>2015-05-11T20:34:58.509Z</time>
      </trkpt>
      <trkpt lat="48.82976" lon="2.26072">
        <ele>79.9</ele>
        <time>2015-05-11T20:34:59.520Z</time>
      </trkpt>
      <trkpt lat="48.82974" lon="2.26077">
        <ele>80</ele>
        <time>2015-05-11T20:35:00.520Z</time>
      </trkpt>
      <trkpt lat="48.82972" lon="2.26084">
        <ele>80.1</ele>
        <time>2015-05-11T20:35:01.641Z</time>
      </trkpt>
      <trkpt lat="48.82969" lon="2.26093">
        <ele>79.1</ele>
        <time>2015-05-11T20:35:02.740Z</time>
      </trkpt>
      <trkpt lat="48.82967" lon="2.26101">
        <ele>79.1</ele>
        <time>2015-05-11T20:35:03.474Z</time>
      </trkpt>
      <trkpt lat="48.82965" lon="2.26109">
        <ele>79.1</ele>
        <time>2015-05-11T20:35:04.504Z</time>
      </trkpt>
      <trkpt lat="48.82963" lon="2.26117">
        <ele>79.1</ele>
        <time>2015-05-11T20:35:05.517Z</time>
      </trkpt>
      <trkpt lat="48.82962" lon="2.26126">
        <ele>78.9</ele>
        <time>2015-05-11T20:35:06.576Z</time>
      </trkpt>
      <trkpt lat="48.82959" lon="2.26136">
        <ele>78.7</ele>
        <time>2015-05-11T20:35:07.578Z</time>
      </trkpt>
      <trkpt lat="48.82956" lon="2.26148">
        <ele>79</ele>
        <time>2015-05-11T20:35:08.489Z</time>
      </trkpt>
      <trkpt lat="48.82954" lon="2.26158">
        <ele>79.4</ele>
        <time>2015-05-11T20:35:09.501Z</time>
      </trkpt>
      <trkpt lat="48.82952" lon="2.26169">
        <ele>79.5</ele>
        <time>2015-05-11T20:35:10.530Z</time>
      </trkpt>
      <trkpt lat="48.8295" lon="2.2618">
        <ele>79.6</ele>
        <time>2015-05-11T20:35:11.559Z</time>
      </trkpt>
      <trkpt lat="48.82949" lon="2.26191">
        <ele>79.7</ele>
        <time>2015-05-11T20:35:12.581Z</time>
      </trkpt>
      <trkpt lat="48.82947" lon="2.26201">
        <ele>79.7</ele>
        <time>2015-05-11T20:35:13.487Z</time>
      </trkpt>
      <trkpt lat="48.82946" lon="2.26212">
        <ele>79.5</ele>
        <time>2015-05-11T20:35:14.499Z</time>
      </trkpt>
      <trkpt lat="48.82946" lon="2.26224">
        <ele>79.5</ele>
        <time>2015-05-11T20:35:15.468Z</time>
      </trkpt>
      <trkpt lat="48.82944" lon="2.26235">
        <ele>79.4</ele>
        <time>2015-05-11T20:35:16.471Z</time>
      </trkpt>
      <trkpt lat="48.82941" lon="2.26245">
        <ele>79.3</ele>
        <time>2015-05-11T20:35:17.501Z</time>
      </trkpt>
      <trkpt lat="48.82938" lon="2.26255">
        <ele>79</ele>
        <time>2015-05-11T20:35:18.532Z</time>
      </trkpt>
      <trkpt lat="48.82934" lon="2.26263">
        <ele>78.6</ele>
        <time>2015-05-11T20:35:19.540Z</time>
      </trkpt>
      <trkpt lat="48.82929" lon="2.2627">
        <ele>78.4</ele>
        <time>2015-05-11T20:35:20.552Z</time>
      </trkpt>
      <trkpt lat="48.82924" lon="2.26277">
        <ele>78</ele>
        <time>2015-05-11T20:35:21.553Z</time>
      </trkpt>
      <trkpt lat="48.8292" lon="2.26284">
        <ele>77.6</ele>
        <time>2015-05-11T20:35:22.563Z</time>
      </trkpt>
      <trkpt lat="48.82912" lon="2.26299">
        <ele>77.3</ele>
        <time>2015-05-11T20:35:24.592Z</time>
      </trkpt>
      <trkpt lat="48.82909" lon="2.26307">
        <ele>77.2</ele>
        <time>2015-05-11T20:35:25.491Z</time>
      </trkpt>
      <trkpt lat="48.82907" lon="2.26322">
        <ele>77.1</ele>
        <time>2015-05-11T20:35:27.531Z</time>
      </trkpt>
      <trkpt lat="48.82908" lon="2.26336">
        <ele>77.7</ele>
        <time>2015-05-11T20:35:29.510Z</time>
      </trkpt>
      <trkpt lat="48.82907" lon="2.26341">
        <ele>77.8</ele>
        <time>2015-05-11T20:35:30.500Z</time>
      </trkpt>
      <trkpt lat="48.82909" lon="2.26354">
        <ele>77.7</ele>
        <time>2015-05-11T20:35:32.520Z</time>
      </trkpt>
      <trkpt lat="48.82911" lon="2.2636">
        <ele>77.1</ele>
        <time>2015-05-11T20:35:33.444Z</time>
      </trkpt>
      <trkpt lat="48.82911" lon="2.26373">
        <ele>75.4</ele>
        <time>2015-05-11T20:35:35.511Z</time>
      </trkpt>
      <trkpt lat="48.82913" lon="2.26378">
        <ele>74.8</ele>
        <time>2015-05-11T20:35:36.523Z</time>
      </trkpt>
      <trkpt lat="48.82915" lon="2.26384">
        <ele>74.4</ele>
        <time>2015-05-11T20:35:37.534Z</time>
      </trkpt>
      <trkpt lat="48.82918" lon="2.2639">
        <ele>74.4</ele>
        <time>2015-05-11T20:35:38.527Z</time>
      </trkpt>
      <trkpt lat="48.82921" lon="2.26395">
        <ele>74.2</ele>
        <time>2015-05-11T20:35:39.496Z</time>
      </trkpt>
      <trkpt lat="48.82924" lon="2.26399">
        <ele>74.4</ele>
        <time>2015-05-11T20:35:40.506Z</time>
      </trkpt>
      <trkpt lat="48.82931" lon="2.26407">
        <ele>75.1</ele>
        <time>2015-05-11T20:35:42.548Z</time>
      </trkpt>
      <trkpt lat="48.82935" lon="2.26412">
        <ele>75.8</ele>
        <time>2015-05-11T20:35:43.509Z</time>
      </trkpt>
      <trkpt lat="48.82939" lon="2.26416">
        <ele>76.1</ele>
        <time>2015-05-11T20:35:44.454Z</time>
      </trkpt>
      <trkpt lat="48.82943" lon="2.26421">
        <ele>76.6</ele>
        <time>2015-05-11T20:35:45.473Z</time>
      </trkpt>
      <trkpt lat="48.82946" lon="2.26426">
        <ele>77</ele>
        <time>2015-05-11T20:35:46.544Z</time>
      </trkpt>
      <trkpt lat="48.8295" lon="2.26431">
        <ele>78</ele>
        <time>2015-05-11T20:35:47.551Z</time>
      </trkpt>
      <trkpt lat="48.82953" lon="2.26436">
        <ele>79.1</ele>
        <time>2015-05-11T20:35:48.562Z</time>
      </trkpt>
      <trkpt lat="48.82958" lon="2.26441">
        <ele>79.8</ele>
        <time>2015-05-11T20:35:49.584Z</time>
      </trkpt>
      <trkpt lat="48.82963" lon="2.26446">
        <ele>80.3</ele>
        <time>2015-05-11T20:35:50.483Z</time>
      </trkpt>
      <trkpt lat="48.8297" lon="2.26451">
        <ele>81</ele>
        <time>2015-05-11T20:35:51.489Z</time>
      </trkpt>
      <trkpt lat="48.82977" lon="2.26456">
        <ele>81.9</ele>
        <time>2015-05-11T20:35:52.509Z</time>
      </trkpt>
      <trkpt lat="48.82982" lon="2.2646">
        <ele>82.7</ele>
        <time>2015-05-11T20:35:53.515Z</time>
      </trkpt>
      <trkpt lat="48.82987" lon="2.26464">
        <ele>83.5</ele>
        <time>2015-05-11T20:35:54.537Z</time>
      </trkpt>
      <trkpt lat="48.82991" lon="2.26467">
        <ele>84</ele>
        <time>2015-05-11T20:35:55.555Z</time>
      </trkpt>
      <trkpt lat="48.82997" lon="2.26472">
        <ele>84.4</ele>
        <time>2015-05-11T20:35:56.553Z</time>
      </trkpt>
      <trkpt lat="48.83002" lon="2.26477">
        <ele>84.8</ele>
        <time>2015-05-11T20:35:57.471Z</time>
      </trkpt>
      <trkpt lat="48.83006" lon="2.26483">
        <ele>84.9</ele>
        <time>2015-05-11T20:35:58.469Z</time>
      </trkpt>
      <trkpt lat="48.83011" lon="2.26488">
        <ele>84.9</ele>
        <time>2015-05-11T20:35:59.511Z</time>
      </trkpt>
      <trkpt lat="48.83016" lon="2.26492">
        <ele>84.9</ele>
        <time>2015-05-11T20:36:00.514Z</time>
      </trkpt>
      <trkpt lat="48.83022" lon="2.26497">
        <ele>84.9</ele>
        <time>2015-05-11T20:36:01.527Z</time>
      </trkpt>
      <trkpt lat="48.8303" lon="2.26504">
        <ele>84.9</ele>
        <time>2015-05-11T20:36:02.547Z</time>
      </trkpt>
      <trkpt lat="48.83035" lon="2.26511">
        <ele>85.1</ele>
        <time>2015-05-11T20:36:03.559Z</time>
      </trkpt>
      <trkpt lat="48.8304" lon="2.26517">
        <ele>85.4</ele>
        <time>2015-05-11T20:36:04.493Z</time>
      </trkpt>
      <trkpt lat="48.83045" lon="2.26522">
        <ele>85.9</ele>
        <time>2015-05-11T20:36:05.549Z</time>
      </trkpt>
      <trkpt lat="48.83049" lon="2.26527">
        <ele>86</ele>
        <time>2015-05-11T20:36:06.585Z</time>
      </trkpt>
      <trkpt lat="48.83051" lon="2.26534">
        <ele>86.7</ele>
        <time>2015-05-11T20:36:07.478Z</time>
      </trkpt>
      <trkpt lat="48.83053" lon="2.26544">
        <ele>89.6</ele>
        <time>2015-05-11T20:36:08.477Z</time>
      </trkpt>
      <trkpt lat="48.83056" lon="2.26552">
        <ele>90.5</ele>
        <time>2015-05-11T20:36:09.484Z</time>
      </trkpt>
      <trkpt lat="48.83061" lon="2.26561">
        <ele>91.4</ele>
        <time>2015-05-11T20:36:10.493Z</time>
      </trkpt>
      <trkpt lat="48.83069" lon="2.26571">
        <ele>92.1</ele>
        <time>2015-05-11T20:36:11.504Z</time>
      </trkpt>
      <trkpt lat="48.83074" lon="2.2658">
        <ele>92.6</ele>
        <time>2015-05-11T20:36:12.553Z</time>
      </trkpt>
      <trkpt lat="48.8308" lon="2.26591">
        <ele>92.7</ele>
        <time>2015-05-11T20:36:13.636Z</time>
      </trkpt>
      <trkpt lat="48.83085" lon="2.266">
        <ele>92.9</ele>
        <time>2015-05-11T20:36:14.475Z</time>
      </trkpt>
      <trkpt lat="48.8309" lon="2.26607">
        <ele>93</ele>
        <time>2015-05-11T20:36:15.482Z</time>
      </trkpt>
      <trkpt lat="48.83094" lon="2.26614">
        <ele>93.8</ele>
        <time>2015-05-11T20:36:16.493Z</time>
      </trkpt>
      <trkpt lat="48.83097" lon="2.26621">
        <ele>94.2</ele>
        <time>2015-05-11T20:36:17.501Z</time>
      </trkpt>
      <trkpt lat="48.831" lon="2.26628">
        <ele>95</ele>
        <time>2015-05-11T20:36:18.538Z</time>
      </trkpt>
      <trkpt lat="48.83103" lon="2.26634">
        <ele>95.4</ele>
        <time>2015-05-11T20:36:19.546Z</time>
      </trkpt>
      <trkpt lat="48.83107" lon="2.26641">
        <ele>95.7</ele>
        <time>2015-05-11T20:36:20.549Z</time>
      </trkpt>
      <trkpt lat="48.83112" lon="2.26647">
        <ele>96.1</ele>
        <time>2015-05-11T20:36:21.430Z</time>
      </trkpt>
      <trkpt lat="48.83116" lon="2.26653">
        <ele>95.7</ele>
        <time>2015-05-11T20:36:22.460Z</time>
      </trkpt>
      <trkpt lat="48.8312" lon="2.26657">
        <ele>95.9</ele>
        <time>2015-05-11T20:36:23.471Z</time>
      </trkpt>
      <trkpt lat="48.83123" lon="2.26663">
        <ele>96.3</ele>
        <time>2015-05-11T20:36:24.481Z</time>
      </trkpt>
      <trkpt lat="48.8313" lon="2.26668">
        <ele>95.7</ele>
        <time>2015-05-11T20:36:25.499Z</time>
      </trkpt>
      <trkpt lat="48.83135" lon="2.26673">
        <ele>95.9</ele>
        <time>2015-05-11T20:36:26.641Z</time>
      </trkpt>
      <trkpt lat="48.83139" lon="2.26678">
        <ele>95.2</ele>
        <time>2015-05-11T20:36:27.504Z</time>
      </trkpt>
      <trkpt lat="48.83142" lon="2.26684">
        <ele>95</ele>
        <time>2015-05-11T20:36:28.518Z</time>
      </trkpt>
      <trkpt lat="48.83145" lon="2.2669">
        <ele>95</ele>
        <time>2015-05-11T20:36:29.551Z</time>
      </trkpt>
      <trkpt lat="48.83149" lon="2.26696">
        <ele>94.9</ele>
        <time>2015-05-11T20:36:30.579Z</time>
      </trkpt>
      <trkpt lat="48.83152" lon="2.26702">
        <ele>95.2</ele>
        <time>2015-05-11T20:36:31.470Z</time>
      </trkpt>
      <trkpt lat="48.83156" lon="2.26708">
        <ele>95.4</ele>
        <time>2015-05-11T20:36:32.493Z</time>
      </trkpt>
      <trkpt lat="48.8316" lon="2.26714">
        <ele>95.8</ele>
        <time>2015-05-11T20:36:33.495Z</time>
      </trkpt>
      <trkpt lat="48.83164" lon="2.2672">
        <ele>96</ele>
        <time>2015-05-11T20:36:34.509Z</time>
      </trkpt>
      <trkpt lat="48.83168" lon="2.26726">
        <ele>96.2</ele>
        <time>2015-05-11T20:36:35.516Z</time>
      </trkpt>
      <trkpt lat="48.83171" lon="2.26732">
        <ele>95.8</ele>
        <time>2015-05-11T20:36:36.526Z</time>
      </trkpt>
      <trkpt lat="48.83173" lon="2.26738">
        <ele>95.9</ele>
        <time>2015-05-11T20:36:37.529Z</time>
      </trkpt>
      <trkpt lat="48.83176" lon="2.26744">
        <ele>95.9</ele>
        <time>2015-05-11T20:36:38.540Z</time>
      </trkpt>
      <trkpt lat="48.83177" lon="2.26751">
        <ele>96</ele>
        <time>2015-05-11T20:36:39.456Z</time>
      </trkpt>
      <trkpt lat="48.83179" lon="2.26758">
        <ele>95.8</ele>
        <time>2015-05-11T20:36:40.455Z</time>
      </trkpt>
      <trkpt lat="48.83181" lon="2.26763">
        <ele>95.1</ele>
        <time>2015-05-11T20:36:41.460Z</time>
      </trkpt>
      <trkpt lat="48.83185" lon="2.26769">
        <ele>94.2</ele>
        <time>2015-05-11T20:36:42.500Z</time>
      </trkpt>
      <trkpt lat="48.83188" lon="2.26776">
        <ele>94.1</ele>
        <time>2015-05-11T20:36:43.498Z</time>
      </trkpt>
      <trkpt lat="48.83192" lon="2.26784">
        <ele>93.7</ele>
        <time>2015-05-11T20:36:44.530Z</time>
      </trkpt>
      <trkpt lat="48.83195" lon="2.26792">
        <ele>93.5</ele>
        <time>2015-05-11T20:36:45.537Z</time>
      </trkpt>
      <trkpt lat="48.83199" lon="2.26799">
        <ele>93.6</ele>
        <time>2015-05-11T20:36:46.544Z</time>
      </trkpt>
      <trkpt lat="48.83204" lon="2.26807">
        <ele>93.8</ele>
        <time>2015-05-11T20:36:47.451Z</time>
      </trkpt>
      <trkpt lat="48.83208" lon="2.26813">
        <ele>94</ele>
        <time>2015-05-11T20:36:48.556Z</time>
      </trkpt>
      <trkpt lat="48.83213" lon="2.26819">
        <ele>93.7</ele>
        <time>2015-05-11T20:36:49.485Z</time>
      </trkpt>
      <trkpt lat="48.83216" lon="2.26826">
        <ele>93.5</ele>
        <time>2015-05-11T20:36:50.727Z</time>
      </trkpt>
      <trkpt lat="48.83221" lon="2.26832">
        <ele>93.8</ele>
        <time>2015-05-11T20:36:51.482Z</time>
      </trkpt>
      <trkpt lat="48.83226" lon="2.26839">
        <ele>93.8</ele>
        <time>2015-05-11T20:36:52.500Z</time>
      </trkpt>
      <trkpt lat="48.8323" lon="2.26845">
        <ele>93.6</ele>
        <time>2015-05-11T20:36:53.500Z</time>
      </trkpt>
      <trkpt lat="48.83234" lon="2.26851">
        <ele>93.4</ele>
        <time>2015-05-11T20:36:54.529Z</time>
      </trkpt>
      <trkpt lat="48.83239" lon="2.26858">
        <ele>93.1</ele>
        <time>2015-05-11T20:36:55.531Z</time>
      </trkpt>
      <trkpt lat="48.83243" lon="2.26864">
        <ele>93.1</ele>
        <time>2015-05-11T20:36:56.553Z</time>
      </trkpt>
      <trkpt lat="48.83247" lon="2.2687">
        <ele>92.9</ele>
        <time>2015-05-11T20:36:57.568Z</time>
      </trkpt>
      <trkpt lat="48.83252" lon="2.26874">
        <ele>93.1</ele>
        <time>2015-05-11T20:36:58.466Z</time>
      </trkpt>
      <trkpt lat="48.83255" lon="2.26878">
        <ele>92.8</ele>
        <time>2015-05-11T20:36:59.504Z</time>
      </trkpt>
      <trkpt lat="48.8326" lon="2.26883">
        <ele>93.1</ele>
        <time>2015-05-11T20:37:00.529Z</time>
      </trkpt>
      <trkpt lat="48.83266" lon="2.2689">
        <ele>93.7</ele>
        <time>2015-05-11T20:37:01.559Z</time>
      </trkpt>
      <trkpt lat="48.8327" lon="2.26897">
        <ele>93.7</ele>
        <time>2015-05-11T20:37:02.466Z</time>
      </trkpt>
      <trkpt lat="48.83274" lon="2.26904">
        <ele>94.7</ele>
        <time>2015-05-11T20:37:03.468Z</time>
      </trkpt>
      <trkpt lat="48.83278" lon="2.26912">
        <ele>95.1</ele>
        <time>2015-05-11T20:37:04.475Z</time>
      </trkpt>
      <trkpt lat="48.83282" lon="2.26919">
        <ele>95.3</ele>
        <time>2015-05-11T20:37:05.490Z</time>
      </trkpt>
      <trkpt lat="48.83286" lon="2.26926">
        <ele>95.4</ele>
        <time>2015-05-11T20:37:06.553Z</time>
      </trkpt>
      <trkpt lat="48.8329" lon="2.26933">
        <ele>95.5</ele>
        <time>2015-05-11T20:37:07.561Z</time>
      </trkpt>
      <trkpt lat="48.83294" lon="2.26939">
        <ele>96</ele>
        <time>2015-05-11T20:37:08.440Z</time>
      </trkpt>
      <trkpt lat="48.83299" lon="2.26945">
        <ele>96.4</ele>
        <time>2015-05-11T20:37:09.466Z</time>
      </trkpt>
      <trkpt lat="48.83301" lon="2.26952">
        <ele>96.9</ele>
        <time>2015-05-11T20:37:10.487Z</time>
      </trkpt>
      <trkpt lat="48.83305" lon="2.26959">
        <ele>97.4</ele>
        <time>2015-05-11T20:37:11.497Z</time>
      </trkpt>
      <trkpt lat="48.83308" lon="2.26965">
        <ele>97.3</ele>
        <time>2015-05-11T20:37:12.520Z</time>
      </trkpt>
      <trkpt lat="48.8331" lon="2.26971">
        <ele>97.4</ele>
        <time>2015-05-11T20:37:13.532Z</time>
      </trkpt>
      <trkpt lat="48.83314" lon="2.26977">
        <ele>97.6</ele>
        <time>2015-05-11T20:37:14.464Z</time>
      </trkpt>
      <trkpt lat="48.83317" lon="2.26984">
        <ele>97.3</ele>
        <time>2015-05-11T20:37:15.470Z</time>
      </trkpt>
      <trkpt lat="48.83319" lon="2.2699">
        <ele>97.2</ele>
        <time>2015-05-11T20:37:16.476Z</time>
      </trkpt>
      <trkpt lat="48.83321" lon="2.26996">
        <ele>96.9</ele>
        <time>2015-05-11T20:37:17.482Z</time>
      </trkpt>
      <trkpt lat="48.83324" lon="2.27002">
        <ele>97.1</ele>
        <time>2015-05-11T20:37:18.511Z</time>
      </trkpt>
      <trkpt lat="48.83328" lon="2.27008">
        <ele>97.3</ele>
        <time>2015-05-11T20:37:19.520Z</time>
      </trkpt>
      <trkpt lat="48.83331" lon="2.27014">
        <ele>97.2</ele>
        <time>2015-05-11T20:37:20.541Z</time>
      </trkpt>
      <trkpt lat="48.83335" lon="2.27019">
        <ele>97.1</ele>
        <time>2015-05-11T20:37:21.468Z</time>
      </trkpt>
      <trkpt lat="48.83338" lon="2.27025">
        <ele>96.7</ele>
        <time>2015-05-11T20:37:22.470Z</time>
      </trkpt>
      <trkpt lat="48.83341" lon="2.2703">
        <ele>96.6</ele>
        <time>2015-05-11T20:37:23.478Z</time>
      </trkpt>
      <trkpt lat="48.83343" lon="2.27036">
        <ele>96.3</ele>
        <time>2015-05-11T20:37:24.493Z</time>
      </trkpt>
      <trkpt lat="48.83346" lon="2.27043">
        <ele>96.2</ele>
        <time>2015-05-11T20:37:25.510Z</time>
      </trkpt>
      <trkpt lat="48.83349" lon="2.27049">
        <ele>95.8</ele>
        <time>2015-05-11T20:37:26.519Z</time>
      </trkpt>
      <trkpt lat="48.83352" lon="2.27054">
        <ele>95.5</ele>
        <time>2015-05-11T20:37:27.551Z</time>
      </trkpt>
      <trkpt lat="48.83358" lon="2.27064">
        <ele>94</ele>
        <time>2015-05-11T20:37:29.464Z</time>
      </trkpt>
      <trkpt lat="48.8336" lon="2.2707">
        <ele>94</ele>
        <time>2015-05-11T20:37:30.580Z</time>
      </trkpt>
      <trkpt lat="48.83362" lon="2.27076">
        <ele>93.7</ele>
        <time>2015-05-11T20:37:31.483Z</time>
      </trkpt>
      <trkpt lat="48.83363" lon="2.27083">
        <ele>93.8</ele>
        <time>2015-05-11T20:37:32.497Z</time>
      </trkpt>
      <trkpt lat="48.83365" lon="2.27096">
        <ele>93.4</ele>
        <time>2015-05-11T20:37:34.524Z</time>
      </trkpt>
      <trkpt lat="48.83367" lon="2.27102">
        <ele>93.2</ele>
        <time>2015-05-11T20:37:35.489Z</time>
      </trkpt>
      <trkpt lat="48.83369" lon="2.27109">
        <ele>93.3</ele>
        <time>2015-05-11T20:37:36.513Z</time>
      </trkpt>
      <trkpt lat="48.83372" lon="2.27115">
        <ele>93</ele>
        <time>2015-05-11T20:37:37.527Z</time>
      </trkpt>
      <trkpt lat="48.83375" lon="2.27121">
        <ele>92.6</ele>
        <time>2015-05-11T20:37:38.547Z</time>
      </trkpt>
      <trkpt lat="48.83378" lon="2.27127">
        <ele>92.6</ele>
        <time>2015-05-11T20:37:39.537Z</time>
      </trkpt>
      <trkpt lat="48.83383" lon="2.27133">
        <ele>91.7</ele>
        <time>2015-05-11T20:37:40.464Z</time>
      </trkpt>
      <trkpt lat="48.83388" lon="2.27138">
        <ele>91.6</ele>
        <time>2015-05-11T20:37:41.473Z</time>
      </trkpt>
      <trkpt lat="48.83392" lon="2.27144">
        <ele>91.5</ele>
        <time>2015-05-11T20:37:42.507Z</time>
      </trkpt>
      <trkpt lat="48.83395" lon="2.2715">
        <ele>91.3</ele>
        <time>2015-05-11T20:37:43.498Z</time>
      </trkpt>
      <trkpt lat="48.83403" lon="2.27156">
        <ele>92.1</ele>
        <time>2015-05-11T20:37:44.522Z</time>
      </trkpt>
      <trkpt lat="48.83407" lon="2.27163">
        <ele>92.2</ele>
        <time>2015-05-11T20:37:45.538Z</time>
      </trkpt>
      <trkpt lat="48.83411" lon="2.2717">
        <ele>92.2</ele>
        <time>2015-05-11T20:37:46.537Z</time>
      </trkpt>
      <trkpt lat="48.83415" lon="2.27177">
        <ele>92.2</ele>
        <time>2015-05-11T20:37:47.469Z</time>
      </trkpt>
      <trkpt lat="48.83418" lon="2.27184">
        <ele>92.1</ele>
        <time>2015-05-11T20:37:48.481Z</time>
      </trkpt>
      <trkpt lat="48.83421" lon="2.2719">
        <ele>91.9</ele>
        <time>2015-05-11T20:37:49.483Z</time>
      </trkpt>
      <trkpt lat="48.83424" lon="2.27198">
        <ele>92.1</ele>
        <time>2015-05-11T20:37:50.508Z</time>
      </trkpt>
      <trkpt lat="48.83427" lon="2.27205">
        <ele>92.1</ele>
        <time>2015-05-11T20:37:51.519Z</time>
      </trkpt>
      <trkpt lat="48.83429" lon="2.27213">
        <ele>92.1</ele>
        <time>2015-05-11T20:37:52.528Z</time>
      </trkpt>
      <trkpt lat="48.83433" lon="2.2722">
        <ele>92.1</ele>
        <time>2015-05-11T20:37:53.533Z</time>
      </trkpt>
      <trkpt lat="48.83436" lon="2.27227">
        <ele>91.8</ele>
        <time>2015-05-11T20:37:54.562Z</time>
      </trkpt>
      <trkpt lat="48.83439" lon="2.27234">
        <ele>91.7</ele>
        <time>2015-05-11T20:37:55.566Z</time>
      </trkpt>
      <trkpt lat="48.83443" lon="2.27241">
        <ele>91.9</ele>
        <time>2015-05-11T20:37:56.470Z</time>
      </trkpt>
      <trkpt lat="48.83448" lon="2.27247">
        <ele>92.1</ele>
        <time>2015-05-11T20:37:57.483Z</time>
      </trkpt>
      <trkpt lat="48.83452" lon="2.27253">
        <ele>92</ele>
        <time>2015-05-11T20:37:58.486Z</time>
      </trkpt>
      <trkpt lat="48.83456" lon="2.2726">
        <ele>92.1</ele>
        <time>2015-05-11T20:37:59.492Z</time>
      </trkpt>
      <trkpt lat="48.83459" lon="2.27267">
        <ele>92.1</ele>
        <time>2015-05-11T20:38:00.520Z</time>
      </trkpt>
      <trkpt lat="48.83462" lon="2.27273">
        <ele>91.7</ele>
        <time>2015-05-11T20:38:01.539Z</time>
      </trkpt>
      <trkpt lat="48.83465" lon="2.2728">
        <ele>91.9</ele>
        <time>2015-05-11T20:38:02.539Z</time>
      </trkpt>
      <trkpt lat="48.83468" lon="2.27285">
        <ele>91.7</ele>
        <time>2015-05-11T20:38:03.537Z</time>
      </trkpt>
      <trkpt lat="48.83471" lon="2.27292">
        <ele>91.4</ele>
        <time>2015-05-11T20:38:04.451Z</time>
      </trkpt>
      <trkpt lat="48.83473" lon="2.273">
        <ele>91.2</ele>
        <time>2015-05-11T20:38:05.455Z</time>
      </trkpt>
      <trkpt lat="48.83473" lon="2.27308">
        <ele>91.5</ele>
        <time>2015-05-11T20:38:06.488Z</time>
      </trkpt>
      <trkpt lat="48.83472" lon="2.27315">
        <ele>91.5</ele>
        <time>2015-05-11T20:38:07.503Z</time>
      </trkpt>
      <trkpt lat="48.83469" lon="2.27322">
        <ele>90.5</ele>
        <time>2015-05-11T20:38:08.436Z</time>
      </trkpt>
      <trkpt lat="48.83466" lon="2.2733">
        <ele>89.7</ele>
        <time>2015-05-11T20:38:09.550Z</time>
      </trkpt>
      <trkpt lat="48.83464" lon="2.27338">
        <ele>89.4</ele>
        <time>2015-05-11T20:38:10.564Z</time>
      </trkpt>
      <trkpt lat="48.83462" lon="2.27345">
        <ele>89.1</ele>
        <time>2015-05-11T20:38:11.497Z</time>
      </trkpt>
      <trkpt lat="48.8346" lon="2.27353">
        <ele>88.3</ele>
        <time>2015-05-11T20:38:12.521Z</time>
      </trkpt>
      <trkpt lat="48.83457" lon="2.2736">
        <ele>87.7</ele>
        <time>2015-05-11T20:38:13.615Z</time>
      </trkpt>
      <trkpt lat="48.83455" lon="2.27368">
        <ele>87.1</ele>
        <time>2015-05-11T20:38:14.452Z</time>
      </trkpt>
      <trkpt lat="48.83453" lon="2.27376">
        <ele>86.6</ele>
        <time>2015-05-11T20:38:15.454Z</time>
      </trkpt>
      <trkpt lat="48.83451" lon="2.27383">
        <ele>86</ele>
        <time>2015-05-11T20:38:16.534Z</time>
      </trkpt>
      <trkpt lat="48.83449" lon="2.2739">
        <ele>85.6</ele>
        <time>2015-05-11T20:38:17.457Z</time>
      </trkpt>
      <trkpt lat="48.83447" lon="2.27397">
        <ele>85.2</ele>
        <time>2015-05-11T20:38:18.511Z</time>
      </trkpt>
      <trkpt lat="48.83446" lon="2.27404">
        <ele>84.9</ele>
        <time>2015-05-11T20:38:19.519Z</time>
      </trkpt>
      <trkpt lat="48.83444" lon="2.27411">
        <ele>84.8</ele>
        <time>2015-05-11T20:38:20.536Z</time>
      </trkpt>
      <trkpt lat="48.83442" lon="2.27418">
        <ele>84.5</ele>
        <time>2015-05-11T20:38:21.535Z</time>
      </trkpt>
      <trkpt lat="48.83441" lon="2.27425">
        <ele>84.6</ele>
        <time>2015-05-11T20:38:22.694Z</time>
      </trkpt>
      <trkpt lat="48.83439" lon="2.27432">
        <ele>84.3</ele>
        <time>2015-05-11T20:38:23.466Z</time>
      </trkpt>
      <trkpt lat="48.83437" lon="2.27438">
        <ele>83.8</ele>
        <time>2015-05-11T20:38:24.494Z</time>
      </trkpt>
      <trkpt lat="48.83435" lon="2.27445">
        <ele>83.3</ele>
        <time>2015-05-11T20:38:25.500Z</time>
      </trkpt>
      <trkpt lat="48.83433" lon="2.27452">
        <ele>82.7</ele>
        <time>2015-05-11T20:38:26.524Z</time>
      </trkpt>
      <trkpt lat="48.83431" lon="2.27458">
        <ele>82.3</ele>
        <time>2015-05-11T20:38:27.531Z</time>
      </trkpt>
      <trkpt lat="48.83429" lon="2.27464">
        <ele>82.2</ele>
        <time>2015-05-11T20:38:28.428Z</time>
      </trkpt>
      <trkpt lat="48.83426" lon="2.2747">
        <ele>82.1</ele>
        <time>2015-05-11T20:38:29.435Z</time>
      </trkpt>
      <trkpt lat="48.83422" lon="2.27482">
        <ele>81.7</ele>
        <time>2015-05-11T20:38:31.497Z</time>
      </trkpt>
      <trkpt lat="48.83419" lon="2.27487">
        <ele>81.5</ele>
        <time>2015-05-11T20:38:32.523Z</time>
      </trkpt>
      <trkpt lat="48.83417" lon="2.27493">
        <ele>81</ele>
        <time>2015-05-11T20:38:33.542Z</time>
      </trkpt>
      <trkpt lat="48.83414" lon="2.27499">
        <ele>80.7</ele>
        <time>2015-05-11T20:38:34.468Z</time>
      </trkpt>
      <trkpt lat="48.83411" lon="2.27505">
        <ele>80.6</ele>
        <time>2015-05-11T20:38:35.488Z</time>
      </trkpt>
      <trkpt lat="48.83409" lon="2.27511">
        <ele>79.8</ele>
        <time>2015-05-11T20:38:36.499Z</time>
      </trkpt>
      <trkpt lat="48.83406" lon="2.27517">
        <ele>79.5</ele>
        <time>2015-05-11T20:38:37.512Z</time>
      </trkpt>
      <trkpt lat="48.83402" lon="2.27523">
        <ele>79.3</ele>
        <time>2015-05-11T20:38:38.523Z</time>
      </trkpt>
      <trkpt lat="48.83399" lon="2.27528">
        <ele>78.7</ele>
        <time>2015-05-11T20:38:39.529Z</time>
      </trkpt>
      <trkpt lat="48.83396" lon="2.27533">
        <ele>78.3</ele>
        <time>2015-05-11T20:38:40.556Z</time>
      </trkpt>
      <trkpt lat="48.83392" lon="2.27538">
        <ele>78.3</ele>
        <time>2015-05-11T20:38:41.426Z</time>
      </trkpt>
      <trkpt lat="48.83389" lon="2.27543">
        <ele>78.2</ele>
        <time>2015-05-11T20:38:42.469Z</time>
      </trkpt>
      <trkpt lat="48.83385" lon="2.27549">
        <ele>77.9</ele>
        <time>2015-05-11T20:38:43.489Z</time>
      </trkpt>
      <trkpt lat="48.83382" lon="2.27554">
        <ele>77.6</ele>
        <time>2015-05-11T20:38:44.501Z</time>
      </trkpt>
      <trkpt lat="48.83378" lon="2.27559">
        <ele>77.3</ele>
        <time>2015-05-11T20:38:45.514Z</time>
      </trkpt>
      <trkpt lat="48.83374" lon="2.27563">
        <ele>77.1</ele>
        <time>2015-05-11T20:38:46.531Z</time>
      </trkpt>
      <trkpt lat="48.83371" lon="2.27568">
        <ele>76.9</ele>
        <time>2015-05-11T20:38:47.457Z</time>
      </trkpt>
      <trkpt lat="48.83368" lon="2.27573">
        <ele>76.9</ele>
        <time>2015-05-11T20:38:48.477Z</time>
      </trkpt>
      <trkpt lat="48.83361" lon="2.27582">
        <ele>76.5</ele>
        <time>2015-05-11T20:38:50.489Z</time>
      </trkpt>
      <trkpt lat="48.83358" lon="2.27587">
        <ele>75.9</ele>
        <time>2015-05-11T20:38:51.499Z</time>
      </trkpt>
      <trkpt lat="48.83352" lon="2.27596">
        <ele>75.8</ele>
        <time>2015-05-11T20:38:53.612Z</time>
      </trkpt>
      <trkpt lat="48.83349" lon="2.27601">
        <ele>76.2</ele>
        <time>2015-05-11T20:38:54.541Z</time>
      </trkpt>
      <trkpt lat="48.83346" lon="2.27611">
        <ele>76.1</ele>
        <time>2015-05-11T20:38:56.472Z</time>
      </trkpt>
      <trkpt lat="48.83346" lon="2.27615">
        <ele>76.1</ele>
        <time>2015-05-11T20:38:57.487Z</time>
      </trkpt>
      <trkpt lat="48.83347" lon="2.27625">
        <ele>75.4</ele>
        <time>2015-05-11T20:40:24.523Z</time>
      </trkpt>
      <trkpt lat="48.83355" lon="2.27632">
        <ele>75.2</ele>
        <time>2015-05-11T20:40:25.519Z</time>
      </trkpt>
      <trkpt lat="48.8336" lon="2.27639">
        <ele>75.4</ele>
        <time>2015-05-11T20:40:29.484Z</time>
      </trkpt>
      <trkpt lat="48.83361" lon="2.27642">
        <ele>75.6</ele>
        <time>2015-05-11T20:40:30.522Z</time>
      </trkpt>
      <trkpt lat="48.83361" lon="2.27653">
        <ele>75.5</ele>
        <time>2015-05-11T20:40:33.512Z</time>
      </trkpt>
      <trkpt lat="48.8336" lon="2.27657">
        <ele>75.4</ele>
        <time>2015-05-11T20:40:34.529Z</time>
      </trkpt>
      <trkpt lat="48.83358" lon="2.27666">
        <ele>75.4</ele>
        <time>2015-05-11T20:40:36.562Z</time>
      </trkpt>
      <trkpt lat="48.83356" lon="2.27671">
        <ele>75.4</ele>
        <time>2015-05-11T20:40:37.468Z</time>
      </trkpt>
      <trkpt lat="48.83353" lon="2.27679">
        <ele>75.4</ele>
        <time>2015-05-11T20:40:39.486Z</time>
      </trkpt>
      <trkpt lat="48.83353" lon="2.27684">
        <ele>75.5</ele>
        <time>2015-05-11T20:40:40.499Z</time>
      </trkpt>
      <trkpt lat="48.83355" lon="2.27693">
        <ele>75.5</ele>
        <time>2015-05-11T20:40:42.564Z</time>
      </trkpt>
      <trkpt lat="48.83358" lon="2.27697">
        <ele>75.6</ele>
        <time>2015-05-11T20:40:43.482Z</time>
      </trkpt>
      <trkpt lat="48.83364" lon="2.27703">
        <ele>75.8</ele>
        <time>2015-05-11T20:40:45.475Z</time>
      </trkpt>
      <trkpt lat="48.83367" lon="2.27706">
        <ele>75.8</ele>
        <time>2015-05-11T20:40:46.497Z</time>
      </trkpt>
      <trkpt lat="48.83373" lon="2.27712">
        <ele>75.7</ele>
        <time>2015-05-11T20:40:48.543Z</time>
      </trkpt>
      <trkpt lat="48.83379" lon="2.27713">
        <ele>75.8</ele>
        <time>2015-05-11T20:40:49.577Z</time>
      </trkpt>
      <trkpt lat="48.83383" lon="2.27714">
        <ele>75.8</ele>
        <time>2015-05-11T20:40:50.434Z</time>
      </trkpt>
      <trkpt lat="48.83388" lon="2.27715">
        <ele>75.9</ele>
        <time>2015-05-11T20:40:51.464Z</time>
      </trkpt>
      <trkpt lat="48.83396" lon="2.2772">
        <ele>76</ele>
        <time>2015-05-11T20:40:53.521Z</time>
      </trkpt>
      <trkpt lat="48.83402" lon="2.27724">
        <ele>75.9</ele>
        <time>2015-05-11T20:40:54.582Z</time>
      </trkpt>
      <trkpt lat="48.83408" lon="2.27729">
        <ele>75.7</ele>
        <time>2015-05-11T20:40:55.490Z</time>
      </trkpt>
      <trkpt lat="48.83415" lon="2.27732">
        <ele>75.8</ele>
        <time>2015-05-11T20:40:56.495Z</time>
      </trkpt>
      <trkpt lat="48.83422" lon="2.27734">
        <ele>75.8</ele>
        <time>2015-05-11T20:40:57.526Z</time>
      </trkpt>
      <trkpt lat="48.83427" lon="2.27737">
        <ele>76.3</ele>
        <time>2015-05-11T20:40:58.556Z</time>
      </trkpt>
      <trkpt lat="48.83434" lon="2.27743">
        <ele>76.8</ele>
        <time>2015-05-11T20:41:00.470Z</time>
      </trkpt>
      <trkpt lat="48.83437" lon="2.27746">
        <ele>76.8</ele>
        <time>2015-05-11T20:41:01.528Z</time>
      </trkpt>
      <trkpt lat="48.83444" lon="2.27749">
        <ele>77</ele>
        <time>2015-05-11T20:41:03.452Z</time>
      </trkpt>
      <trkpt lat="48.83448" lon="2.27751">
        <ele>76.6</ele>
        <time>2015-05-11T20:41:04.473Z</time>
      </trkpt>
      <trkpt lat="48.83455" lon="2.27754">
        <ele>77</ele>
        <time>2015-05-11T20:41:06.532Z</time>
      </trkpt>
      <trkpt lat="48.83459" lon="2.27755">
        <ele>77.4</ele>
        <time>2015-05-11T20:41:07.536Z</time>
      </trkpt>
      <trkpt lat="48.83467" lon="2.27757">
        <ele>77.8</ele>
        <time>2015-05-11T20:41:09.455Z</time>
      </trkpt>
      <trkpt lat="48.83471" lon="2.27758">
        <ele>78.3</ele>
        <time>2015-05-11T20:41:10.481Z</time>
      </trkpt>
      <trkpt lat="48.83477" lon="2.27759">
        <ele>79.1</ele>
        <time>2015-05-11T20:41:12.536Z</time>
      </trkpt>
      <trkpt lat="48.8348" lon="2.27762">
        <ele>79.5</ele>
        <time>2015-05-11T20:41:13.470Z</time>
      </trkpt>
      <trkpt lat="48.83488" lon="2.27767">
        <ele>80.4</ele>
        <time>2015-05-11T20:41:15.490Z</time>
      </trkpt>
      <trkpt lat="48.83493" lon="2.27769">
        <ele>81</ele>
        <time>2015-05-11T20:41:16.513Z</time>
      </trkpt>
      <trkpt lat="48.83498" lon="2.27771">
        <ele>81.9</ele>
        <time>2015-05-11T20:41:17.434Z</time>
      </trkpt>
      <trkpt lat="48.83503" lon="2.27773">
        <ele>82.5</ele>
        <time>2015-05-11T20:41:18.466Z</time>
      </trkpt>
      <trkpt lat="48.83509" lon="2.27776">
        <ele>83.1</ele>
        <time>2015-05-11T20:41:19.497Z</time>
      </trkpt>
      <trkpt lat="48.83514" lon="2.27778">
        <ele>83.5</ele>
        <time>2015-05-11T20:41:20.531Z</time>
      </trkpt>
      <trkpt lat="48.8352" lon="2.2778">
        <ele>83.9</ele>
        <time>2015-05-11T20:41:21.529Z</time>
      </trkpt>
      <trkpt lat="48.83525" lon="2.27782">
        <ele>84.5</ele>
        <time>2015-05-11T20:41:22.542Z</time>
      </trkpt>
      <trkpt lat="48.83531" lon="2.27785">
        <ele>84.9</ele>
        <time>2015-05-11T20:41:23.591Z</time>
      </trkpt>
      <trkpt lat="48.83536" lon="2.27787">
        <ele>85.3</ele>
        <time>2015-05-11T20:41:24.492Z</time>
      </trkpt>
      <trkpt lat="48.8354" lon="2.27788">
        <ele>85.3</ele>
        <time>2015-05-11T20:41:25.467Z</time>
      </trkpt>
      <trkpt lat="48.83545" lon="2.2779">
        <ele>85.5</ele>
        <time>2015-05-11T20:41:26.462Z</time>
      </trkpt>
      <trkpt lat="48.83553" lon="2.27795">
        <ele>86.3</ele>
        <time>2015-05-11T20:41:28.516Z</time>
      </trkpt>
      <trkpt lat="48.83557" lon="2.27797">
        <ele>86.6</ele>
        <time>2015-05-11T20:41:29.533Z</time>
      </trkpt>
      <trkpt lat="48.83562" lon="2.27799">
        <ele>87</ele>
        <time>2015-05-11T20:41:30.582Z</time>
      </trkpt>
      <trkpt lat="48.83567" lon="2.27801">
        <ele>87.4</ele>
        <time>2015-05-11T20:41:31.491Z</time>
      </trkpt>
      <trkpt lat="48.83572" lon="2.27803">
        <ele>88.1</ele>
        <time>2015-05-11T20:41:32.494Z</time>
      </trkpt>
      <trkpt lat="48.83578" lon="2.27807">
        <ele>88.2</ele>
        <time>2015-05-11T20:41:33.509Z</time>
      </trkpt>
      <trkpt lat="48.83583" lon="2.27812">
        <ele>87.4</ele>
        <time>2015-05-11T20:41:34.510Z</time>
      </trkpt>
      <trkpt lat="48.83589" lon="2.27817">
        <ele>86.6</ele>
        <time>2015-05-11T20:41:35.448Z</time>
      </trkpt>
      <trkpt lat="48.83593" lon="2.27819">
        <ele>86.5</ele>
        <time>2015-05-11T20:41:36.477Z</time>
      </trkpt>
      <trkpt lat="48.83598" lon="2.27822">
        <ele>84.6</ele>
        <time>2015-05-11T20:41:37.478Z</time>
      </trkpt>
      <trkpt lat="48.83603" lon="2.27827">
        <ele>83.6</ele>
        <time>2015-05-11T20:41:39.444Z</time>
      </trkpt>
      <trkpt lat="48.83606" lon="2.27828">
        <ele>82.6</ele>
        <time>2015-05-11T20:41:40.467Z</time>
      </trkpt>
      <trkpt lat="48.83613" lon="2.27831">
        <ele>81.9</ele>
        <time>2015-05-11T20:41:43.493Z</time>
      </trkpt>
      <trkpt lat="48.83615" lon="2.27832">
        <ele>81.9</ele>
        <time>2015-05-11T20:41:44.519Z</time>
      </trkpt>
      <trkpt lat="48.83624" lon="2.27832">
        <ele>81.7</ele>
        <time>2015-05-11T20:41:48.476Z</time>
      </trkpt>
      <trkpt lat="48.83627" lon="2.27832">
        <ele>81.7</ele>
        <time>2015-05-11T20:41:49.504Z</time>
      </trkpt>
      <trkpt lat="48.83634" lon="2.27835">
        <ele>82.4</ele>
        <time>2015-05-11T20:41:51.442Z</time>
      </trkpt>
      <trkpt lat="48.83636" lon="2.27836">
        <ele>82.6</ele>
        <time>2015-05-11T20:41:52.452Z</time>
      </trkpt>
      <trkpt lat="48.83643" lon="2.27837">
        <ele>83.2</ele>
        <time>2015-05-11T20:41:55.527Z</time>
      </trkpt>
      <trkpt lat="48.83647" lon="2.27839">
        <ele>83.3</ele>
        <time>2015-05-11T20:41:56.415Z</time>
      </trkpt>
      <trkpt lat="48.83655" lon="2.27843">
        <ele>83.3</ele>
        <time>2015-05-11T20:41:58.483Z</time>
      </trkpt>
      <trkpt lat="48.8366" lon="2.27846">
        <ele>83.2</ele>
        <time>2015-05-11T20:41:59.501Z</time>
      </trkpt>
      <trkpt lat="48.83668" lon="2.27853">
        <ele>83.5</ele>
        <time>2015-05-11T20:42:00.546Z</time>
      </trkpt>
      <trkpt lat="48.83675" lon="2.2786">
        <ele>83.4</ele>
        <time>2015-05-11T20:42:01.484Z</time>
      </trkpt>
      <trkpt lat="48.83679" lon="2.27865">
        <ele>83.3</ele>
        <time>2015-05-11T20:42:02.494Z</time>
      </trkpt>
      <trkpt lat="48.83684" lon="2.27869">
        <ele>84</ele>
        <time>2015-05-11T20:42:03.502Z</time>
      </trkpt>
      <trkpt lat="48.83691" lon="2.27874">
        <ele>85.1</ele>
        <time>2015-05-11T20:42:05.518Z</time>
      </trkpt>
      <trkpt lat="48.83693" lon="2.27875">
        <ele>85.8</ele>
        <time>2015-05-11T20:42:06.592Z</time>
      </trkpt>
      <trkpt lat="48.83699" lon="2.27881">
        <ele>86.7</ele>
        <time>2015-05-11T20:42:08.469Z</time>
      </trkpt>
      <trkpt lat="48.83703" lon="2.27886">
        <ele>86.3</ele>
        <time>2015-05-11T20:42:09.483Z</time>
      </trkpt>
      <trkpt lat="48.83707" lon="2.27891">
        <ele>86.2</ele>
        <time>2015-05-11T20:42:10.509Z</time>
      </trkpt>
      <trkpt lat="48.83709" lon="2.27896">
        <ele>85.8</ele>
        <time>2015-05-11T20:42:11.516Z</time>
      </trkpt>
      <trkpt lat="48.83712" lon="2.27902">
        <ele>85.3</ele>
        <time>2015-05-11T20:42:12.542Z</time>
      </trkpt>
      <trkpt lat="48.83714" lon="2.27908">
        <ele>84.8</ele>
        <time>2015-05-11T20:42:13.475Z</time>
      </trkpt>
      <trkpt lat="48.83718" lon="2.2792">
        <ele>84.5</ele>
        <time>2015-05-11T20:42:15.471Z</time>
      </trkpt>
      <trkpt lat="48.8372" lon="2.27925">
        <ele>84.2</ele>
        <time>2015-05-11T20:42:16.487Z</time>
      </trkpt>
      <trkpt lat="48.83722" lon="2.27932">
        <ele>84.2</ele>
        <time>2015-05-11T20:42:17.504Z</time>
      </trkpt>
      <trkpt lat="48.83725" lon="2.27937">
        <ele>84.2</ele>
        <time>2015-05-11T20:42:18.508Z</time>
      </trkpt>
      <trkpt lat="48.83728" lon="2.27943">
        <ele>84.1</ele>
        <time>2015-05-11T20:42:18.352Z</time>
      </trkpt>
      <trkpt lat="48.83731" lon="2.27948">
        <ele>83.8</ele>
        <time>2015-05-11T20:42:20.518Z</time>
      </trkpt>
      <trkpt lat="48.83735" lon="2.27953">
        <ele>83.7</ele>
        <time>2015-05-11T20:42:21.545Z</time>
      </trkpt>
      <trkpt lat="48.83739" lon="2.27957">
        <ele>83.4</ele>
        <time>2015-05-11T20:42:22.587Z</time>
      </trkpt>
      <trkpt lat="48.83742" lon="2.27963">
        <ele>83.3</ele>
        <time>2015-05-11T20:42:23.435Z</time>
      </trkpt>
      <trkpt lat="48.83745" lon="2.27969">
        <ele>83.2</ele>
        <time>2015-05-11T20:42:24.509Z</time>
      </trkpt>
      <trkpt lat="48.83748" lon="2.27976">
        <ele>83.1</ele>
        <time>2015-05-11T20:42:25.501Z</time>
      </trkpt>
      <trkpt lat="48.8375" lon="2.27982">
        <ele>83.2</ele>
        <time>2015-05-11T20:42:26.514Z</time>
      </trkpt>
      <trkpt lat="48.83753" lon="2.27988">
        <ele>83.3</ele>
        <time>2015-05-11T20:42:28.398Z</time>
      </trkpt>
      <trkpt lat="48.83755" lon="2.27994">
        <ele>83.1</ele>
        <time>2015-05-11T20:42:28.521Z</time>
      </trkpt>
      <trkpt lat="48.83759" lon="2.27998">
        <ele>83.1</ele>
        <time>2015-05-11T20:42:29.545Z</time>
      </trkpt>
      <trkpt lat="48.83763" lon="2.28002">
        <ele>83.3</ele>
        <time>2015-05-11T20:42:30.548Z</time>
      </trkpt>
      <trkpt lat="48.83767" lon="2.28007">
        <ele>83.5</ele>
        <time>2015-05-11T20:42:31.454Z</time>
      </trkpt>
      <trkpt lat="48.83771" lon="2.28011">
        <ele>83.5</ele>
        <time>2015-05-11T20:42:32.477Z</time>
      </trkpt>
      <trkpt lat="48.83774" lon="2.28017">
        <ele>83.6</ele>
        <time>2015-05-11T20:42:33.480Z</time>
      </trkpt>
      <trkpt lat="48.83776" lon="2.28024">
        <ele>83.8</ele>
        <time>2015-05-11T20:42:34.504Z</time>
      </trkpt>
      <trkpt lat="48.83778" lon="2.2803">
        <ele>83.8</ele>
        <time>2015-05-11T20:42:35.530Z</time>
      </trkpt>
      <trkpt lat="48.83781" lon="2.28035">
        <ele>83.9</ele>
        <time>2015-05-11T20:42:36.526Z</time>
      </trkpt>
      <trkpt lat="48.83784" lon="2.28042">
        <ele>83.5</ele>
        <time>2015-05-11T20:42:37.865Z</time>
      </trkpt>
      <trkpt lat="48.83787" lon="2.28047">
        <ele>83.7</ele>
        <time>2015-05-11T20:42:38.471Z</time>
      </trkpt>
      <trkpt lat="48.8379" lon="2.28052">
        <ele>83.8</ele>
        <time>2015-05-11T20:42:39.475Z</time>
      </trkpt>
      <trkpt lat="48.83793" lon="2.28057">
        <ele>84</ele>
        <time>2015-05-11T20:42:40.484Z</time>
      </trkpt>
      <trkpt lat="48.83796" lon="2.28063">
        <ele>84</ele>
        <time>2015-05-11T20:42:41.488Z</time>
      </trkpt>
      <trkpt lat="48.83799" lon="2.2807">
        <ele>84.2</ele>
        <time>2015-05-11T20:42:42.507Z</time>
      </trkpt>
      <trkpt lat="48.83802" lon="2.28076">
        <ele>84.3</ele>
        <time>2015-05-11T20:42:43.519Z</time>
      </trkpt>
      <trkpt lat="48.83805" lon="2.28083">
        <ele>84.8</ele>
        <time>2015-05-11T20:42:44.525Z</time>
      </trkpt>
      <trkpt lat="48.83808" lon="2.28088">
        <ele>85.2</ele>
        <time>2015-05-11T20:42:45.468Z</time>
      </trkpt>
      <trkpt lat="48.83813" lon="2.28093">
        <ele>85.4</ele>
        <time>2015-05-11T20:42:46.510Z</time>
      </trkpt>
      <trkpt lat="48.83817" lon="2.28097">
        <ele>85.7</ele>
        <time>2015-05-11T20:42:48.041Z</time>
      </trkpt>
      <trkpt lat="48.83821" lon="2.28103">
        <ele>85.8</ele>
        <time>2015-05-11T20:42:48.481Z</time>
      </trkpt>
      <trkpt lat="48.83825" lon="2.28108">
        <ele>85.8</ele>
        <time>2015-05-11T20:42:49.511Z</time>
      </trkpt>
      <trkpt lat="48.8383" lon="2.28113">
        <ele>86</ele>
        <time>2015-05-11T20:42:50.544Z</time>
      </trkpt>
      <trkpt lat="48.83834" lon="2.28119">
        <ele>86.3</ele>
        <time>2015-05-11T20:42:51.429Z</time>
      </trkpt>
      <trkpt lat="48.8384" lon="2.28124">
        <ele>86.4</ele>
        <time>2015-05-11T20:42:52.460Z</time>
      </trkpt>
      <trkpt lat="48.83846" lon="2.28129">
        <ele>86.8</ele>
        <time>2015-05-11T20:42:53.467Z</time>
      </trkpt>
      <trkpt lat="48.83851" lon="2.28135">
        <ele>87.4</ele>
        <time>2015-05-11T20:42:54.506Z</time>
      </trkpt>
      <trkpt lat="48.83857" lon="2.28141">
        <ele>87.4</ele>
        <time>2015-05-11T20:42:55.531Z</time>
      </trkpt>
      <trkpt lat="48.83861" lon="2.28146">
        <ele>87.4</ele>
        <time>2015-05-11T20:42:56.540Z</time>
      </trkpt>
      <trkpt lat="48.83866" lon="2.28151">
        <ele>87.7</ele>
        <time>2015-05-11T20:42:57.456Z</time>
      </trkpt>
      <trkpt lat="48.83871" lon="2.28156">
        <ele>87.9</ele>
        <time>2015-05-11T20:42:58.465Z</time>
      </trkpt>
      <trkpt lat="48.83875" lon="2.28161">
        <ele>88.1</ele>
        <time>2015-05-11T20:42:59.500Z</time>
      </trkpt>
      <trkpt lat="48.83878" lon="2.28168">
        <ele>88</ele>
        <time>2015-05-11T20:43:00.503Z</time>
      </trkpt>
      <trkpt lat="48.83881" lon="2.28175">
        <ele>88.1</ele>
        <time>2015-05-11T20:43:01.557Z</time>
      </trkpt>
      <trkpt lat="48.83883" lon="2.28182">
        <ele>88.8</ele>
        <time>2015-05-11T20:43:02.540Z</time>
      </trkpt>
      <trkpt lat="48.83885" lon="2.2819">
        <ele>89.4</ele>
        <time>2015-05-11T20:43:04.256Z</time>
      </trkpt>
      <trkpt lat="48.83889" lon="2.28195">
        <ele>89.8</ele>
        <time>2015-05-11T20:43:04.450Z</time>
      </trkpt>
      <trkpt lat="48.83892" lon="2.282">
        <ele>89.8</ele>
        <time>2015-05-11T20:43:05.494Z</time>
      </trkpt>
      <trkpt lat="48.83895" lon="2.28207">
        <ele>90</ele>
        <time>2015-05-11T20:43:06.527Z</time>
      </trkpt>
      <trkpt lat="48.83898" lon="2.28213">
        <ele>90</ele>
        <time>2015-05-11T20:43:07.528Z</time>
      </trkpt>
      <trkpt lat="48.83902" lon="2.28218">
        <ele>90.1</ele>
        <time>2015-05-11T20:43:08.482Z</time>
      </trkpt>
      <trkpt lat="48.83906" lon="2.28223">
        <ele>90.1</ele>
        <time>2015-05-11T20:43:09.461Z</time>
      </trkpt>
      <trkpt lat="48.8391" lon="2.28228">
        <ele>90.2</ele>
        <time>2015-05-11T20:43:10.470Z</time>
      </trkpt>
      <trkpt lat="48.83914" lon="2.28233">
        <ele>90.2</ele>
        <time>2015-05-11T20:43:11.485Z</time>
      </trkpt>
      <trkpt lat="48.83919" lon="2.28239">
        <ele>90.5</ele>
        <time>2015-05-11T20:43:12.493Z</time>
      </trkpt>
      <trkpt lat="48.83922" lon="2.28245">
        <ele>90.8</ele>
        <time>2015-05-11T20:43:13.522Z</time>
      </trkpt>
      <trkpt lat="48.83924" lon="2.28251">
        <ele>90.9</ele>
        <time>2015-05-11T20:43:14.533Z</time>
      </trkpt>
      <trkpt lat="48.83927" lon="2.28262">
        <ele>91.2</ele>
        <time>2015-05-11T20:43:16.468Z</time>
      </trkpt>
      <trkpt lat="48.83928" lon="2.2827">
        <ele>91.9</ele>
        <time>2015-05-11T20:43:17.489Z</time>
      </trkpt>
      <trkpt lat="48.83929" lon="2.28277">
        <ele>92.2</ele>
        <time>2015-05-11T20:43:18.539Z</time>
      </trkpt>
      <trkpt lat="48.8393" lon="2.28284">
        <ele>92.3</ele>
        <time>2015-05-11T20:43:19.553Z</time>
      </trkpt>
      <trkpt lat="48.83932" lon="2.2829">
        <ele>92.5</ele>
        <time>2015-05-11T20:43:20.433Z</time>
      </trkpt>
      <trkpt lat="48.83933" lon="2.28296">
        <ele>92.3</ele>
        <time>2015-05-11T20:43:21.437Z</time>
      </trkpt>
      <trkpt lat="48.83936" lon="2.28309">
        <ele>92.9</ele>
        <time>2015-05-11T20:43:23.466Z</time>
      </trkpt>
      <trkpt lat="48.83939" lon="2.28314">
        <ele>92.9</ele>
        <time>2015-05-11T20:43:24.513Z</time>
      </trkpt>
      <trkpt lat="48.83942" lon="2.2832">
        <ele>92.8</ele>
        <time>2015-05-11T20:43:25.487Z</time>
      </trkpt>
      <trkpt lat="48.83945" lon="2.28326">
        <ele>92.6</ele>
        <time>2015-05-11T20:43:26.485Z</time>
      </trkpt>
      <trkpt lat="48.83949" lon="2.28332">
        <ele>92.5</ele>
        <time>2015-05-11T20:43:27.494Z</time>
      </trkpt>
      <trkpt lat="48.83954" lon="2.28338">
        <ele>92.3</ele>
        <time>2015-05-11T20:43:28.512Z</time>
      </trkpt>
      <trkpt lat="48.83956" lon="2.28344">
        <ele>92.3</ele>
        <time>2015-05-11T20:43:29.515Z</time>
      </trkpt>
      <trkpt lat="48.83958" lon="2.2835">
        <ele>91.8</ele>
        <time>2015-05-11T20:43:30.532Z</time>
      </trkpt>
      <trkpt lat="48.8396" lon="2.28356">
        <ele>91.9</ele>
        <time>2015-05-11T20:43:31.544Z</time>
      </trkpt>
      <trkpt lat="48.83963" lon="2.28364">
        <ele>92</ele>
        <time>2015-05-11T20:43:32.451Z</time>
      </trkpt>
      <trkpt lat="48.83966" lon="2.2837">
        <ele>92.3</ele>
        <time>2015-05-11T20:43:33.458Z</time>
      </trkpt>
      <trkpt lat="48.83968" lon="2.28377">
        <ele>92.5</ele>
        <time>2015-05-11T20:43:34.466Z</time>
      </trkpt>
      <trkpt lat="48.83969" lon="2.28385">
        <ele>92.6</ele>
        <time>2015-05-11T20:43:35.479Z</time>
      </trkpt>
      <trkpt lat="48.8397" lon="2.28391">
        <ele>92.4</ele>
        <time>2015-05-11T20:43:36.495Z</time>
      </trkpt>
      <trkpt lat="48.83972" lon="2.28398">
        <ele>92.4</ele>
        <time>2015-05-11T20:43:37.513Z</time>
      </trkpt>
      <trkpt lat="48.83973" lon="2.28405">
        <ele>92.3</ele>
        <time>2015-05-11T20:43:38.528Z</time>
      </trkpt>
      <trkpt lat="48.83975" lon="2.28412">
        <ele>92.2</ele>
        <time>2015-05-11T20:43:39.446Z</time>
      </trkpt>
      <trkpt lat="48.83975" lon="2.28419">
        <ele>92.1</ele>
        <time>2015-05-11T20:43:40.460Z</time>
      </trkpt>
      <trkpt lat="48.83977" lon="2.28432">
        <ele>91.6</ele>
        <time>2015-05-11T20:43:42.487Z</time>
      </trkpt>
      <trkpt lat="48.8398" lon="2.28438">
        <ele>91.4</ele>
        <time>2015-05-11T20:43:43.489Z</time>
      </trkpt>
      <trkpt lat="48.83982" lon="2.28445">
        <ele>91.2</ele>
        <time>2015-05-11T20:43:44.497Z</time>
      </trkpt>
      <trkpt lat="48.83985" lon="2.28451">
        <ele>91.1</ele>
        <time>2015-05-11T20:43:45.530Z</time>
      </trkpt>
      <trkpt lat="48.83989" lon="2.28458">
        <ele>91.2</ele>
        <time>2015-05-11T20:43:46.455Z</time>
      </trkpt>
      <trkpt lat="48.83992" lon="2.28464">
        <ele>91.6</ele>
        <time>2015-05-11T20:43:47.459Z</time>
      </trkpt>
      <trkpt lat="48.83994" lon="2.28473">
        <ele>92.3</ele>
        <time>2015-05-11T20:43:48.491Z</time>
      </trkpt>
      <trkpt lat="48.83997" lon="2.28481">
        <ele>92.9</ele>
        <time>2015-05-11T20:43:49.484Z</time>
      </trkpt>
      <trkpt lat="48.84" lon="2.28489">
        <ele>93.1</ele>
        <time>2015-05-11T20:43:50.488Z</time>
      </trkpt>
      <trkpt lat="48.84003" lon="2.28495">
        <ele>93.8</ele>
        <time>2015-05-11T20:43:51.520Z</time>
      </trkpt>
      <trkpt lat="48.84006" lon="2.28503">
        <ele>94</ele>
        <time>2015-05-11T20:43:52.532Z</time>
      </trkpt>
      <trkpt lat="48.8401" lon="2.2851">
        <ele>94</ele>
        <time>2015-05-11T20:43:53.547Z</time>
      </trkpt>
      <trkpt lat="48.84012" lon="2.28518">
        <ele>94</ele>
        <time>2015-05-11T20:43:54.553Z</time>
      </trkpt>
      <trkpt lat="48.84014" lon="2.28526">
        <ele>93.7</ele>
        <time>2015-05-11T20:43:55.432Z</time>
      </trkpt>
      <trkpt lat="48.84016" lon="2.28534">
        <ele>93.9</ele>
        <time>2015-05-11T20:43:56.459Z</time>
      </trkpt>
      <trkpt lat="48.84019" lon="2.28541">
        <ele>94.2</ele>
        <time>2015-05-11T20:43:57.464Z</time>
      </trkpt>
      <trkpt lat="48.84021" lon="2.28548">
        <ele>94.1</ele>
        <time>2015-05-11T20:43:58.481Z</time>
      </trkpt>
      <trkpt lat="48.84023" lon="2.28556">
        <ele>94.2</ele>
        <time>2015-05-11T20:43:59.501Z</time>
      </trkpt>
      <trkpt lat="48.84026" lon="2.28562">
        <ele>93.3</ele>
        <time>2015-05-11T20:44:00.610Z</time>
      </trkpt>
      <trkpt lat="48.84028" lon="2.28569">
        <ele>92.5</ele>
        <time>2015-05-11T20:44:01.457Z</time>
      </trkpt>
      <trkpt lat="48.84031" lon="2.28575">
        <ele>92.1</ele>
        <time>2015-05-11T20:44:02.488Z</time>
      </trkpt>
      <trkpt lat="48.84034" lon="2.28581">
        <ele>91.8</ele>
        <time>2015-05-11T20:44:03.498Z</time>
      </trkpt>
      <trkpt lat="48.84038" lon="2.28591">
        <ele>90.4</ele>
        <time>2015-05-11T20:44:05.512Z</time>
      </trkpt>
      <trkpt lat="48.8404" lon="2.28596">
        <ele>89.2</ele>
        <time>2015-05-11T20:44:06.539Z</time>
      </trkpt>
      <trkpt lat="48.84042" lon="2.28602">
        <ele>89.1</ele>
        <time>2015-05-11T20:44:07.467Z</time>
      </trkpt>
      <trkpt lat="48.84044" lon="2.2861">
        <ele>88.8</ele>
        <time>2015-05-11T20:44:08.490Z</time>
      </trkpt>
      <trkpt lat="48.84046" lon="2.28617">
        <ele>88.5</ele>
        <time>2015-05-11T20:44:09.503Z</time>
      </trkpt>
      <trkpt lat="48.8405" lon="2.28625">
        <ele>88.3</ele>
        <time>2015-05-11T20:44:10.515Z</time>
      </trkpt>
      <trkpt lat="48.84054" lon="2.2863">
        <ele>88.5</ele>
        <time>2015-05-11T20:44:11.528Z</time>
      </trkpt>
      <trkpt lat="48.84059" lon="2.28635">
        <ele>88.3</ele>
        <time>2015-05-11T20:44:12.535Z</time>
      </trkpt>
      <trkpt lat="48.84063" lon="2.2864">
        <ele>88.1</ele>
        <time>2015-05-11T20:44:13.471Z</time>
      </trkpt>
      <trkpt lat="48.84066" lon="2.28647">
        <ele>88</ele>
        <time>2015-05-11T20:44:14.455Z</time>
      </trkpt>
      <trkpt lat="48.84069" lon="2.28655">
        <ele>88.2</ele>
        <time>2015-05-11T20:44:15.462Z</time>
      </trkpt>
      <trkpt lat="48.84071" lon="2.28662">
        <ele>88.1</ele>
        <time>2015-05-11T20:44:16.468Z</time>
      </trkpt>
      <trkpt lat="48.84075" lon="2.28667">
        <ele>87.4</ele>
        <time>2015-05-11T20:44:17.478Z</time>
      </trkpt>
      <trkpt lat="48.84078" lon="2.28675">
        <ele>87.7</ele>
        <time>2015-05-11T20:44:18.511Z</time>
      </trkpt>
      <trkpt lat="48.84081" lon="2.28685">
        <ele>87.8</ele>
        <time>2015-05-11T20:44:19.529Z</time>
      </trkpt>
      <trkpt lat="48.84083" lon="2.28691">
        <ele>88</ele>
        <time>2015-05-11T20:44:20.480Z</time>
      </trkpt>
      <trkpt lat="48.84086" lon="2.28697">
        <ele>88.1</ele>
        <time>2015-05-11T20:44:21.454Z</time>
      </trkpt>
      <trkpt lat="48.84088" lon="2.28703">
        <ele>87.9</ele>
        <time>2015-05-11T20:44:22.470Z</time>
      </trkpt>
      <trkpt lat="48.8409" lon="2.2871">
        <ele>87.7</ele>
        <time>2015-05-11T20:44:23.462Z</time>
      </trkpt>
      <trkpt lat="48.84093" lon="2.28717">
        <ele>87.6</ele>
        <time>2015-05-11T20:44:24.482Z</time>
      </trkpt>
      <trkpt lat="48.84095" lon="2.28725">
        <ele>87.4</ele>
        <time>2015-05-11T20:44:25.492Z</time>
      </trkpt>
      <trkpt lat="48.84096" lon="2.28731">
        <ele>87.6</ele>
        <time>2015-05-11T20:44:26.500Z</time>
      </trkpt>
      <trkpt lat="48.84097" lon="2.28739">
        <ele>87.7</ele>
        <time>2015-05-11T20:44:27.506Z</time>
      </trkpt>
      <trkpt lat="48.841" lon="2.28745">
        <ele>87.8</ele>
        <time>2015-05-11T20:44:28.513Z</time>
      </trkpt>
      <trkpt lat="48.84103" lon="2.28751">
        <ele>88</ele>
        <time>2015-05-11T20:44:29.532Z</time>
      </trkpt>
      <trkpt lat="48.84105" lon="2.28757">
        <ele>88.1</ele>
        <time>2015-05-11T20:44:30.540Z</time>
      </trkpt>
      <trkpt lat="48.8411" lon="2.28766">
        <ele>88</ele>
        <time>2015-05-11T20:44:32.446Z</time>
      </trkpt>
      <trkpt lat="48.84112" lon="2.28771">
        <ele>87.8</ele>
        <time>2015-05-11T20:44:33.475Z</time>
      </trkpt>
      <trkpt lat="48.84117" lon="2.28781">
        <ele>89.1</ele>
        <time>2015-05-11T20:44:37.531Z</time>
      </trkpt>
      <trkpt lat="48.84117" lon="2.28783">
        <ele>89.4</ele>
        <time>2015-05-11T20:44:38.479Z</time>
      </trkpt>
      <trkpt lat="48.84117" lon="2.28783">
        <ele>89.4</ele>
        <time>2015-05-11T20:45:21.479Z</time>
      </trkpt>
      <trkpt lat="48.84124" lon="2.28798">
        <ele>98.2</ele>
        <time>2015-05-11T20:45:22.461Z</time>
      </trkpt>
      <trkpt lat="48.84129" lon="2.28807">
        <ele>94.7</ele>
        <time>2015-05-11T20:45:26.546Z</time>
      </trkpt>
      <trkpt lat="48.84131" lon="2.28811">
        <ele>94.3</ele>
        <time>2015-05-11T20:45:27.479Z</time>
      </trkpt>
      <trkpt lat="48.84135" lon="2.28819">
        <ele>94</ele>
        <time>2015-05-11T20:45:29.547Z</time>
      </trkpt>
      <trkpt lat="48.84137" lon="2.28824">
        <ele>93.7</ele>
        <time>2015-05-11T20:45:30.560Z</time>
      </trkpt>
      <trkpt lat="48.8414" lon="2.28834">
        <ele>93.2</ele>
        <time>2015-05-11T20:45:32.511Z</time>
      </trkpt>
      <trkpt lat="48.84141" lon="2.2884">
        <ele>92.7</ele>
        <time>2015-05-11T20:45:33.527Z</time>
      </trkpt>
      <trkpt lat="48.84144" lon="2.28852">
        <ele>92.9</ele>
        <time>2015-05-11T20:45:35.504Z</time>
      </trkpt>
      <trkpt lat="48.84146" lon="2.28858">
        <ele>93</ele>
        <time>2015-05-11T20:45:36.581Z</time>
      </trkpt>
      <trkpt lat="48.84149" lon="2.28864">
        <ele>93.1</ele>
        <time>2015-05-11T20:45:37.471Z</time>
      </trkpt>
      <trkpt lat="48.84151" lon="2.28871">
        <ele>92.9</ele>
        <time>2015-05-11T20:45:38.481Z</time>
      </trkpt>
      <trkpt lat="48.84152" lon="2.28877">
        <ele>92.9</ele>
        <time>2015-05-11T20:45:39.496Z</time>
      </trkpt>
      <trkpt lat="48.84155" lon="2.28883">
        <ele>93</ele>
        <time>2015-05-11T20:45:40.514Z</time>
      </trkpt>
      <trkpt lat="48.84158" lon="2.28895">
        <ele>92.6</ele>
        <time>2015-05-11T20:45:42.548Z</time>
      </trkpt>
      <trkpt lat="48.84159" lon="2.289">
        <ele>92.1</ele>
        <time>2015-05-11T20:45:43.570Z</time>
      </trkpt>
      <trkpt lat="48.84165" lon="2.2891">
        <ele>90.1</ele>
        <time>2015-05-11T20:45:45.464Z</time>
      </trkpt>
      <trkpt lat="48.84168" lon="2.28917">
        <ele>90</ele>
        <time>2015-05-11T20:45:46.462Z</time>
      </trkpt>
      <trkpt lat="48.8417" lon="2.28923">
        <ele>89.9</ele>
        <time>2015-05-11T20:45:47.499Z</time>
      </trkpt>
      <trkpt lat="48.84171" lon="2.28931">
        <ele>90</ele>
        <time>2015-05-11T20:45:48.521Z</time>
      </trkpt>
      <trkpt lat="48.84174" lon="2.28937">
        <ele>90.2</ele>
        <time>2015-05-11T20:45:49.325Z</time>
      </trkpt>
      <trkpt lat="48.84177" lon="2.28944">
        <ele>89.9</ele>
        <time>2015-05-11T20:45:50.441Z</time>
      </trkpt>
      <trkpt lat="48.8418" lon="2.2895">
        <ele>89.5</ele>
        <time>2015-05-11T20:45:51.465Z</time>
      </trkpt>
      <trkpt lat="48.84183" lon="2.28957">
        <ele>88.8</ele>
        <time>2015-05-11T20:45:52.478Z</time>
      </trkpt>
      <trkpt lat="48.84187" lon="2.28963">
        <ele>88.3</ele>
        <time>2015-05-11T20:45:53.427Z</time>
      </trkpt>
      <trkpt lat="48.84189" lon="2.28968">
        <ele>88</ele>
        <time>2015-05-11T20:45:54.491Z</time>
      </trkpt>
      <trkpt lat="48.84192" lon="2.28974">
        <ele>87.9</ele>
        <time>2015-05-11T20:45:55.485Z</time>
      </trkpt>
      <trkpt lat="48.84194" lon="2.28981">
        <ele>87.4</ele>
        <time>2015-05-11T20:45:56.490Z</time>
      </trkpt>
      <trkpt lat="48.84197" lon="2.28988">
        <ele>87</ele>
        <time>2015-05-11T20:45:57.877Z</time>
      </trkpt>
      <trkpt lat="48.842" lon="2.28995">
        <ele>86.6</ele>
        <time>2015-05-11T20:45:58.513Z</time>
      </trkpt>
      <trkpt lat="48.84203" lon="2.29002">
        <ele>86.4</ele>
        <time>2015-05-11T20:45:59.526Z</time>
      </trkpt>
      <trkpt lat="48.84206" lon="2.29009">
        <ele>86.2</ele>
        <time>2015-05-11T20:46:00.546Z</time>
      </trkpt>
      <trkpt lat="48.84208" lon="2.29018">
        <ele>85.8</ele>
        <time>2015-05-11T20:46:01.560Z</time>
      </trkpt>
      <trkpt lat="48.84212" lon="2.29024">
        <ele>85.7</ele>
        <time>2015-05-11T20:46:02.459Z</time>
      </trkpt>
      <trkpt lat="48.84217" lon="2.29031">
        <ele>86.4</ele>
        <time>2015-05-11T20:46:03.472Z</time>
      </trkpt>
      <trkpt lat="48.8422" lon="2.29038">
        <ele>86.3</ele>
        <time>2015-05-11T20:46:04.487Z</time>
      </trkpt>
      <trkpt lat="48.84223" lon="2.29044">
        <ele>86.1</ele>
        <time>2015-05-11T20:46:05.503Z</time>
      </trkpt>
      <trkpt lat="48.84226" lon="2.2905">
        <ele>85.9</ele>
        <time>2015-05-11T20:46:06.515Z</time>
      </trkpt>
      <trkpt lat="48.84229" lon="2.29055">
        <ele>85.5</ele>
        <time>2015-05-11T20:46:07.524Z</time>
      </trkpt>
      <trkpt lat="48.84232" lon="2.29061">
        <ele>85.5</ele>
        <time>2015-05-11T20:46:08.530Z</time>
      </trkpt>
      <trkpt lat="48.84234" lon="2.29067">
        <ele>85.2</ele>
        <time>2015-05-11T20:46:09.454Z</time>
      </trkpt>
      <trkpt lat="48.84237" lon="2.29073">
        <ele>85.3</ele>
        <time>2015-05-11T20:46:10.467Z</time>
      </trkpt>
      <trkpt lat="48.84242" lon="2.29084">
        <ele>85.3</ele>
        <time>2015-05-11T20:46:12.496Z</time>
      </trkpt>
      <trkpt lat="48.84245" lon="2.29089">
        <ele>85</ele>
        <time>2015-05-11T20:46:13.532Z</time>
      </trkpt>
      <trkpt lat="48.84248" lon="2.29094">
        <ele>84.7</ele>
        <time>2015-05-11T20:46:14.470Z</time>
      </trkpt>
      <trkpt lat="48.84251" lon="2.29099">
        <ele>84.6</ele>
        <time>2015-05-11T20:46:15.700Z</time>
      </trkpt>
      <trkpt lat="48.84256" lon="2.29109">
        <ele>84.1</ele>
        <time>2015-05-11T20:46:17.505Z</time>
      </trkpt>
      <trkpt lat="48.84259" lon="2.29114">
        <ele>84.1</ele>
        <time>2015-05-11T20:46:18.533Z</time>
      </trkpt>
      <trkpt lat="48.84262" lon="2.2912">
        <ele>84.1</ele>
        <time>2015-05-11T20:46:19.467Z</time>
      </trkpt>
      <trkpt lat="48.84264" lon="2.29126">
        <ele>84</ele>
        <time>2015-05-11T20:46:20.468Z</time>
      </trkpt>
      <trkpt lat="48.84266" lon="2.29132">
        <ele>83.9</ele>
        <time>2015-05-11T20:46:21.476Z</time>
      </trkpt>
      <trkpt lat="48.84269" lon="2.29138">
        <ele>83.8</ele>
        <time>2015-05-11T20:46:22.484Z</time>
      </trkpt>
      <trkpt lat="48.84273" lon="2.2915">
        <ele>83.6</ele>
        <time>2015-05-11T20:46:24.504Z</time>
      </trkpt>
      <trkpt lat="48.84274" lon="2.29156">
        <ele>83.1</ele>
        <time>2015-05-11T20:46:25.526Z</time>
      </trkpt>
      <trkpt lat="48.84277" lon="2.29167">
        <ele>83</ele>
        <time>2015-05-11T20:46:27.457Z</time>
      </trkpt>
      <trkpt lat="48.84277" lon="2.29173">
        <ele>83.3</ele>
        <time>2015-05-11T20:46:28.504Z</time>
      </trkpt>
      <trkpt lat="48.84279" lon="2.29186">
        <ele>83.9</ele>
        <time>2015-05-11T20:46:30.548Z</time>
      </trkpt>
      <trkpt lat="48.8428" lon="2.29192">
        <ele>84.5</ele>
        <time>2015-05-11T20:46:31.470Z</time>
      </trkpt>
      <trkpt lat="48.84281" lon="2.29199">
        <ele>84.6</ele>
        <time>2015-05-11T20:46:32.490Z</time>
      </trkpt>
      <trkpt lat="48.84279" lon="2.29207">
        <ele>84.8</ele>
        <time>2015-05-11T20:46:33.492Z</time>
      </trkpt>
      <trkpt lat="48.84277" lon="2.29213">
        <ele>85.5</ele>
        <time>2015-05-11T20:46:34.529Z</time>
      </trkpt>
      <trkpt lat="48.84275" lon="2.29219">
        <ele>85.8</ele>
        <time>2015-05-11T20:46:35.562Z</time>
      </trkpt>
      <trkpt lat="48.84272" lon="2.29228">
        <ele>87</ele>
        <time>2015-05-11T20:46:37.482Z</time>
      </trkpt>
      <trkpt lat="48.84272" lon="2.29232">
        <ele>87.8</ele>
        <time>2015-05-11T20:46:38.478Z</time>
      </trkpt>
      <trkpt lat="48.84278" lon="2.29242">
        <ele>89.2</ele>
        <time>2015-05-11T20:46:42.503Z</time>
      </trkpt>
      <trkpt lat="48.8428" lon="2.29244">
        <ele>89.5</ele>
        <time>2015-05-11T20:46:43.588Z</time>
      </trkpt>
      <trkpt lat="48.84284" lon="2.2925">
        <ele>90.6</ele>
        <time>2015-05-11T20:46:45.465Z</time>
      </trkpt>
      <trkpt lat="48.84287" lon="2.29252">
        <ele>91.1</ele>
        <time>2015-05-11T20:46:46.487Z</time>
      </trkpt>
      <trkpt lat="48.84291" lon="2.29257">
        <ele>91.5</ele>
        <time>2015-05-11T20:46:48.546Z</time>
      </trkpt>
      <trkpt lat="48.84294" lon="2.2926">
        <ele>92.1</ele>
        <time>2015-05-11T20:46:49.570Z</time>
      </trkpt>
      <trkpt lat="48.84298" lon="2.29263">
        <ele>92.4</ele>
        <time>2015-05-11T20:46:50.510Z</time>
      </trkpt>
      <trkpt lat="48.84302" lon="2.29267">
        <ele>92.9</ele>
        <time>2015-05-11T20:46:51.513Z</time>
      </trkpt>
      <trkpt lat="48.84309" lon="2.29275">
        <ele>93.6</ele>
        <time>2015-05-11T20:46:53.530Z</time>
      </trkpt>
      <trkpt lat="48.84312" lon="2.29277">
        <ele>93.9</ele>
        <time>2015-05-11T20:46:54.563Z</time>
      </trkpt>
      <trkpt lat="48.84319" lon="2.29282">
        <ele>94.3</ele>
        <time>2015-05-11T20:46:56.478Z</time>
      </trkpt>
      <trkpt lat="48.84322" lon="2.29287">
        <ele>94.3</ele>
        <time>2015-05-11T20:46:57.498Z</time>
      </trkpt>
      <trkpt lat="48.84326" lon="2.29293">
        <ele>94.7</ele>
        <time>2015-05-11T20:46:58.446Z</time>
      </trkpt>
      <trkpt lat="48.84331" lon="2.29298">
        <ele>95.4</ele>
        <time>2015-05-11T20:46:59.558Z</time>
      </trkpt>
      <trkpt lat="48.84337" lon="2.29303">
        <ele>95</ele>
        <time>2015-05-11T20:47:01.467Z</time>
      </trkpt>
      <trkpt lat="48.84339" lon="2.29309">
        <ele>94.8</ele>
        <time>2015-05-11T20:47:02.477Z</time>
      </trkpt>
      <trkpt lat="48.84344" lon="2.29312">
        <ele>92.9</ele>
        <time>2015-05-11T20:47:03.500Z</time>
      </trkpt>
      <trkpt lat="48.84347" lon="2.29316">
        <ele>91.5</ele>
        <time>2015-05-11T20:47:04.511Z</time>
      </trkpt>
      <trkpt lat="48.8435" lon="2.29322">
        <ele>91.1</ele>
        <time>2015-05-11T20:47:05.550Z</time>
      </trkpt>
      <trkpt lat="48.84352" lon="2.29328">
        <ele>91</ele>
        <time>2015-05-11T20:47:06.552Z</time>
      </trkpt>
      <trkpt lat="48.84354" lon="2.2934">
        <ele>90.9</ele>
        <time>2015-05-11T20:47:08.477Z</time>
      </trkpt>
      <trkpt lat="48.84353" lon="2.29347">
        <ele>90.8</ele>
        <time>2015-05-11T20:47:09.488Z</time>
      </trkpt>
      <trkpt lat="48.84351" lon="2.29354">
        <ele>90.9</ele>
        <time>2015-05-11T20:47:10.550Z</time>
      </trkpt>
      <trkpt lat="48.84349" lon="2.29361">
        <ele>90.4</ele>
        <time>2015-05-11T20:47:11.440Z</time>
      </trkpt>
      <trkpt lat="48.84345" lon="2.2937">
        <ele>90.3</ele>
        <time>2015-05-11T20:47:13.495Z</time>
      </trkpt>
      <trkpt lat="48.84342" lon="2.29374">
        <ele>89.8</ele>
        <time>2015-05-11T20:47:14.488Z</time>
      </trkpt>
      <trkpt lat="48.84338" lon="2.29386">
        <ele>89.3</ele>
        <time>2015-05-11T20:47:16.508Z</time>
      </trkpt>
      <trkpt lat="48.84336" lon="2.29392">
        <ele>88.9</ele>
        <time>2015-05-11T20:47:17.568Z</time>
      </trkpt>
      <trkpt lat="48.84334" lon="2.29405">
        <ele>88.5</ele>
        <time>2015-05-11T20:47:19.496Z</time>
      </trkpt>
      <trkpt lat="48.84332" lon="2.29411">
        <ele>88</ele>
        <time>2015-05-11T20:47:20.506Z</time>
      </trkpt>
      <trkpt lat="48.84331" lon="2.29417">
        <ele>87.7</ele>
        <time>2015-05-11T20:47:21.457Z</time>
      </trkpt>
      <trkpt lat="48.84328" lon="2.29424">
        <ele>87.5</ele>
        <time>2015-05-11T20:47:22.461Z</time>
      </trkpt>
      <trkpt lat="48.84325" lon="2.29432">
        <ele>87.1</ele>
        <time>2015-05-11T20:47:23.487Z</time>
      </trkpt>
      <trkpt lat="48.84322" lon="2.29439">
        <ele>86.8</ele>
        <time>2015-05-11T20:47:24.497Z</time>
      </trkpt>
      <trkpt lat="48.84318" lon="2.29446">
        <ele>86.8</ele>
        <time>2015-05-11T20:47:25.531Z</time>
      </trkpt>
      <trkpt lat="48.84315" lon="2.29453">
        <ele>87.1</ele>
        <time>2015-05-11T20:47:26.554Z</time>
      </trkpt>
      <trkpt lat="48.84312" lon="2.2946">
        <ele>87.7</ele>
        <time>2015-05-11T20:47:27.451Z</time>
      </trkpt>
      <trkpt lat="48.84311" lon="2.29468">
        <ele>87.7</ele>
        <time>2015-05-11T20:47:28.451Z</time>
      </trkpt>
      <trkpt lat="48.84309" lon="2.29478">
        <ele>88.8</ele>
        <time>2015-05-11T20:47:29.476Z</time>
      </trkpt>
      <trkpt lat="48.84307" lon="2.29485">
        <ele>88.7</ele>
        <time>2015-05-11T20:47:30.485Z</time>
      </trkpt>
      <trkpt lat="48.84304" lon="2.29496">
        <ele>87.7</ele>
        <time>2015-05-11T20:47:32.535Z</time>
      </trkpt>
      <trkpt lat="48.84303" lon="2.29499">
        <ele>87.6</ele>
        <time>2015-05-11T20:47:33.488Z</time>
      </trkpt>
      <trkpt lat="48.84302" lon="2.295">
        <ele>87.5</ele>
        <time>2015-05-11T20:47:34.442Z</time>
      </trkpt>
      <trkpt lat="48.84301" lon="2.29501">
        <ele>87.6</ele>
        <time>2015-05-11T20:47:35.445Z</time>
      </trkpt>
      <trkpt lat="48.843" lon="2.295">
        <ele>87.8</ele>
        <time>2015-05-11T20:48:12.514Z</time>
      </trkpt>
      <trkpt lat="48.84305" lon="2.29526">
        <ele>93.7</ele>
        <time>2015-05-11T20:48:13.476Z</time>
      </trkpt>
      <trkpt lat="48.84311" lon="2.29532">
        <ele>93.9</ele>
        <time>2015-05-11T20:48:16.518Z</time>
      </trkpt>
      <trkpt lat="48.84314" lon="2.29533">
        <ele>94.2</ele>
        <time>2015-05-11T20:48:17.461Z</time>
      </trkpt>
      <trkpt lat="48.8432" lon="2.29538">
        <ele>94.1</ele>
        <time>2015-05-11T20:48:19.482Z</time>
      </trkpt>
      <trkpt lat="48.84323" lon="2.29541">
        <ele>94.2</ele>
        <time>2015-05-11T20:48:20.537Z</time>
      </trkpt>
      <trkpt lat="48.84329" lon="2.2955">
        <ele>94.1</ele>
        <time>2015-05-11T20:48:23.520Z</time>
      </trkpt>
      <trkpt lat="48.84331" lon="2.29552">
        <ele>94.2</ele>
        <time>2015-05-11T20:48:24.575Z</time>
      </trkpt>
      <trkpt lat="48.84337" lon="2.29554">
        <ele>94.1</ele>
        <time>2015-05-11T20:48:26.488Z</time>
      </trkpt>
      <trkpt lat="48.8434" lon="2.29557">
        <ele>94</ele>
        <time>2015-05-11T20:48:27.503Z</time>
      </trkpt>
      <trkpt lat="48.84345" lon="2.29564">
        <ele>94.2</ele>
        <time>2015-05-11T20:48:29.460Z</time>
      </trkpt>
      <trkpt lat="48.84349" lon="2.29568">
        <ele>94.2</ele>
        <time>2015-05-11T20:48:30.580Z</time>
      </trkpt>
      <trkpt lat="48.84355" lon="2.29577">
        <ele>93.8</ele>
        <time>2015-05-11T20:48:32.509Z</time>
      </trkpt>
      <trkpt lat="48.84357" lon="2.29579">
        <ele>93.4</ele>
        <time>2015-05-11T20:48:33.548Z</time>
      </trkpt>
      <trkpt lat="48.84362" lon="2.29586">
        <ele>93.5</ele>
        <time>2015-05-11T20:48:35.470Z</time>
      </trkpt>
      <trkpt lat="48.84365" lon="2.29588">
        <ele>93.6</ele>
        <time>2015-05-11T20:48:36.523Z</time>
      </trkpt>
      <trkpt lat="48.84369" lon="2.29591">
        <ele>93.8</ele>
        <time>2015-05-11T20:48:37.513Z</time>
      </trkpt>
      <trkpt lat="48.84375" lon="2.29591">
        <ele>92.8</ele>
        <time>2015-05-11T20:48:38.521Z</time>
      </trkpt>
      <trkpt lat="48.84381" lon="2.29597">
        <ele>91.6</ele>
        <time>2015-05-11T20:48:41.469Z</time>
      </trkpt>
      <trkpt lat="48.84384" lon="2.29602">
        <ele>91.6</ele>
        <time>2015-05-11T20:48:42.491Z</time>
      </trkpt>
      <trkpt lat="48.8439" lon="2.29608">
        <ele>91.9</ele>
        <time>2015-05-11T20:48:44.513Z</time>
      </trkpt>
      <trkpt lat="48.84393" lon="2.2961">
        <ele>92.1</ele>
        <time>2015-05-11T20:48:45.517Z</time>
      </trkpt>
      <trkpt lat="48.84399" lon="2.29614">
        <ele>92</ele>
        <time>2015-05-11T20:48:47.466Z</time>
      </trkpt>
      <trkpt lat="48.84402" lon="2.29615">
        <ele>92.1</ele>
        <time>2015-05-11T20:48:48.510Z</time>
      </trkpt>
      <trkpt lat="48.8441" lon="2.29618">
        <ele>91.6</ele>
        <time>2015-05-11T20:48:50.520Z</time>
      </trkpt>
      <trkpt lat="48.84413" lon="2.2962">
        <ele>91.3</ele>
        <time>2015-05-11T20:48:51.538Z</time>
      </trkpt>
      <trkpt lat="48.84421" lon="2.29626">
        <ele>90.9</ele>
        <time>2015-05-11T20:48:53.461Z</time>
      </trkpt>
      <trkpt lat="48.84425" lon="2.29629">
        <ele>90.8</ele>
        <time>2015-05-11T20:48:54.517Z</time>
      </trkpt>
      <trkpt lat="48.84432" lon="2.29636">
        <ele>90.5</ele>
        <time>2015-05-11T20:48:56.455Z</time>
      </trkpt>
      <trkpt lat="48.84435" lon="2.29639">
        <ele>90.5</ele>
        <time>2015-05-11T20:48:57.486Z</time>
      </trkpt>
      <trkpt lat="48.8444" lon="2.29647">
        <ele>90.7</ele>
        <time>2015-05-11T20:48:59.521Z</time>
      </trkpt>
      <trkpt lat="48.84441" lon="2.29651">
        <ele>90.9</ele>
        <time>2015-05-11T20:49:00.558Z</time>
      </trkpt>
      <trkpt lat="48.84445" lon="2.2966">
        <ele>91.6</ele>
        <time>2015-05-11T20:49:02.490Z</time>
      </trkpt>
      <trkpt lat="48.84446" lon="2.29665">
        <ele>92.2</ele>
        <time>2015-05-11T20:49:03.460Z</time>
      </trkpt>
      <trkpt lat="48.8445" lon="2.29674">
        <ele>93.1</ele>
        <time>2015-05-11T20:49:05.451Z</time>
      </trkpt>
      <trkpt lat="48.84452" lon="2.29677">
        <ele>93.4</ele>
        <time>2015-05-11T20:49:06.574Z</time>
      </trkpt>
      <trkpt lat="48.84458" lon="2.29684">
        <ele>93.5</ele>
        <time>2015-05-11T20:49:09.488Z</time>
      </trkpt>
      <trkpt lat="48.84459" lon="2.29687">
        <ele>93.3</ele>
        <time>2015-05-11T20:49:10.524Z</time>
      </trkpt>
      <trkpt lat="48.84464" lon="2.29693">
        <ele>93.3</ele>
        <time>2015-05-11T20:49:12.423Z</time>
      </trkpt>
      <trkpt lat="48.84466" lon="2.29696">
        <ele>93.5</ele>
        <time>2015-05-11T20:49:13.524Z</time>
      </trkpt>
      <trkpt lat="48.84471" lon="2.29702">
        <ele>93.3</ele>
        <time>2015-05-11T20:49:15.462Z</time>
      </trkpt>
      <trkpt lat="48.84474" lon="2.29705">
        <ele>93.3</ele>
        <time>2015-05-11T20:49:16.487Z</time>
      </trkpt>
      <trkpt lat="48.84477" lon="2.2971">
        <ele>93</ele>
        <time>2015-05-11T20:49:17.532Z</time>
      </trkpt>
      <trkpt lat="48.84481" lon="2.29716">
        <ele>92.8</ele>
        <time>2015-05-11T20:49:18.545Z</time>
      </trkpt>
      <trkpt lat="48.84484" lon="2.29722">
        <ele>92.9</ele>
        <time>2015-05-11T20:49:19.475Z</time>
      </trkpt>
      <trkpt lat="48.84488" lon="2.29727">
        <ele>93</ele>
        <time>2015-05-11T20:49:20.474Z</time>
      </trkpt>
      <trkpt lat="48.84491" lon="2.29733">
        <ele>93.4</ele>
        <time>2015-05-11T20:49:21.491Z</time>
      </trkpt>
      <trkpt lat="48.84494" lon="2.29739">
        <ele>93.8</ele>
        <time>2015-05-11T20:49:22.501Z</time>
      </trkpt>
      <trkpt lat="48.84499" lon="2.29743">
        <ele>94.4</ele>
        <time>2015-05-11T20:49:21.760Z</time>
      </trkpt>
      <trkpt lat="48.84502" lon="2.29747">
        <ele>94.5</ele>
        <time>2015-05-11T20:49:24.514Z</time>
      </trkpt>
      <trkpt lat="48.84509" lon="2.29754">
        <ele>94.7</ele>
        <time>2015-05-11T20:49:27.257Z</time>
      </trkpt>
      <trkpt lat="48.84512" lon="2.29757">
        <ele>94.8</ele>
        <time>2015-05-11T20:49:27.518Z</time>
      </trkpt>
      <trkpt lat="48.8452" lon="2.29764">
        <ele>94.5</ele>
        <time>2015-05-11T20:49:29.538Z</time>
      </trkpt>
      <trkpt lat="48.84523" lon="2.29769">
        <ele>94.5</ele>
        <time>2015-05-11T20:49:30.541Z</time>
      </trkpt>
      <trkpt lat="48.84529" lon="2.29777">
        <ele>94.4</ele>
        <time>2015-05-11T20:49:32.497Z</time>
      </trkpt>
      <trkpt lat="48.84531" lon="2.29782">
        <ele>94.6</ele>
        <time>2015-05-11T20:49:33.549Z</time>
      </trkpt>
      <trkpt lat="48.84538" lon="2.2979">
        <ele>94.7</ele>
        <time>2015-05-11T20:49:35.465Z</time>
      </trkpt>
      <trkpt lat="48.84542" lon="2.29794">
        <ele>94.9</ele>
        <time>2015-05-11T20:49:36.492Z</time>
      </trkpt>
      <trkpt lat="48.84546" lon="2.29798">
        <ele>95</ele>
        <time>2015-05-11T20:49:37.585Z</time>
      </trkpt>
      <trkpt lat="48.84549" lon="2.29803">
        <ele>95.1</ele>
        <time>2015-05-11T20:49:38.463Z</time>
      </trkpt>
      <trkpt lat="48.84553" lon="2.29807">
        <ele>95.2</ele>
        <time>2015-05-11T20:49:39.485Z</time>
      </trkpt>
      <trkpt lat="48.84557" lon="2.29811">
        <ele>95.2</ele>
        <time>2015-05-11T20:49:40.482Z</time>
      </trkpt>
      <trkpt lat="48.84561" lon="2.29814">
        <ele>95.4</ele>
        <time>2015-05-11T20:49:41.513Z</time>
      </trkpt>
      <trkpt lat="48.84565" lon="2.29819">
        <ele>95.6</ele>
        <time>2015-05-11T20:49:42.525Z</time>
      </trkpt>
      <trkpt lat="48.8457" lon="2.29829">
        <ele>95.7</ele>
        <time>2015-05-11T20:49:44.547Z</time>
      </trkpt>
      <trkpt lat="48.84573" lon="2.29833">
        <ele>95.7</ele>
        <time>2015-05-11T20:49:45.476Z</time>
      </trkpt>
      <trkpt lat="48.84577" lon="2.29839">
        <ele>95.3</ele>
        <time>2015-05-11T20:49:46.557Z</time>
      </trkpt>
      <trkpt lat="48.8458" lon="2.29843">
        <ele>95.4</ele>
        <time>2015-05-11T20:49:47.466Z</time>
      </trkpt>
      <trkpt lat="48.84586" lon="2.2985">
        <ele>95.9</ele>
        <time>2015-05-11T20:49:49.504Z</time>
      </trkpt>
      <trkpt lat="48.84589" lon="2.29855">
        <ele>96</ele>
        <time>2015-05-11T20:49:50.513Z</time>
      </trkpt>
      <trkpt lat="48.84593" lon="2.29865">
        <ele>96.3</ele>
        <time>2015-05-11T20:49:52.762Z</time>
      </trkpt>
      <trkpt lat="48.84595" lon="2.29868">
        <ele>96.3</ele>
        <time>2015-05-11T20:49:53.537Z</time>
      </trkpt>
      <trkpt lat="48.84601" lon="2.29873">
        <ele>95.9</ele>
        <time>2015-05-11T20:49:56.446Z</time>
      </trkpt>
      <trkpt lat="48.84603" lon="2.29876">
        <ele>96</ele>
        <time>2015-05-11T20:49:57.474Z</time>
      </trkpt>
      <trkpt lat="48.84608" lon="2.29884">
        <ele>95.7</ele>
        <time>2015-05-11T20:49:59.497Z</time>
      </trkpt>
      <trkpt lat="48.84611" lon="2.29888">
        <ele>95.5</ele>
        <time>2015-05-11T20:50:00.550Z</time>
      </trkpt>
      <trkpt lat="48.84615" lon="2.29892">
        <ele>95.5</ele>
        <time>2015-05-11T20:50:01.589Z</time>
      </trkpt>
      <trkpt lat="48.84619" lon="2.29897">
        <ele>95.8</ele>
        <time>2015-05-11T20:50:02.468Z</time>
      </trkpt>
      <trkpt lat="48.84622" lon="2.29902">
        <ele>95.9</ele>
        <time>2015-05-11T20:50:03.474Z</time>
      </trkpt>
      <trkpt lat="48.84625" lon="2.29907">
        <ele>95.9</ele>
        <time>2015-05-11T20:50:04.488Z</time>
      </trkpt>
      <trkpt lat="48.84629" lon="2.29911">
        <ele>95.8</ele>
        <time>2015-05-11T20:50:05.582Z</time>
      </trkpt>
      <trkpt lat="48.84632" lon="2.29916">
        <ele>95.8</ele>
        <time>2015-05-11T20:50:06.483Z</time>
      </trkpt>
      <trkpt lat="48.84635" lon="2.29922">
        <ele>95.9</ele>
        <time>2015-05-11T20:50:07.485Z</time>
      </trkpt>
      <trkpt lat="48.84638" lon="2.29927">
        <ele>95.7</ele>
        <time>2015-05-11T20:50:08.493Z</time>
      </trkpt>
      <trkpt lat="48.84641" lon="2.29932">
        <ele>95.7</ele>
        <time>2015-05-11T20:50:08.060Z</time>
      </trkpt>
      <trkpt lat="48.84645" lon="2.29936">
        <ele>95.5</ele>
        <time>2015-05-11T20:50:10.525Z</time>
      </trkpt>
      <trkpt lat="48.84651" lon="2.29944">
        <ele>95.3</ele>
        <time>2015-05-11T20:50:13.135Z</time>
      </trkpt>
      <trkpt lat="48.84656" lon="2.2995">
        <ele>94.3</ele>
        <time>2015-05-11T20:50:13.459Z</time>
      </trkpt>
      <trkpt lat="48.84661" lon="2.29959">
        <ele>94.4</ele>
        <time>2015-05-11T20:50:15.490Z</time>
      </trkpt>
      <trkpt lat="48.84665" lon="2.29961">
        <ele>94.1</ele>
        <time>2015-05-11T20:50:16.504Z</time>
      </trkpt>
      <trkpt lat="48.84671" lon="2.29967">
        <ele>93.7</ele>
        <time>2015-05-11T20:50:18.540Z</time>
      </trkpt>
      <trkpt lat="48.84673" lon="2.29969">
        <ele>93.5</ele>
        <time>2015-05-11T20:50:19.547Z</time>
      </trkpt>
      <trkpt lat="48.84678" lon="2.29979">
        <ele>93.4</ele>
        <time>2015-05-11T20:50:21.454Z</time>
      </trkpt>
      <trkpt lat="48.84681" lon="2.29984">
        <ele>93.5</ele>
        <time>2015-05-11T20:50:22.479Z</time>
      </trkpt>
      <trkpt lat="48.84686" lon="2.29992">
        <ele>93.9</ele>
        <time>2015-05-11T20:50:24.504Z</time>
      </trkpt>
      <trkpt lat="48.84688" lon="2.29996">
        <ele>94</ele>
        <time>2015-05-11T20:50:25.521Z</time>
      </trkpt>
      <trkpt lat="48.84693" lon="2.30004">
        <ele>93.7</ele>
        <time>2015-05-11T20:50:27.469Z</time>
      </trkpt>
      <trkpt lat="48.84695" lon="2.30009">
        <ele>93.9</ele>
        <time>2015-05-11T20:50:28.561Z</time>
      </trkpt>
      <trkpt lat="48.84702" lon="2.30016">
        <ele>94.2</ele>
        <time>2015-05-11T20:50:30.486Z</time>
      </trkpt>
      <trkpt lat="48.84706" lon="2.30021">
        <ele>94.4</ele>
        <time>2015-05-11T20:50:31.516Z</time>
      </trkpt>
      <trkpt lat="48.84709" lon="2.30027">
        <ele>94.4</ele>
        <time>2015-05-11T20:50:32.553Z</time>
      </trkpt>
      <trkpt lat="48.84712" lon="2.30034">
        <ele>94.7</ele>
        <time>2015-05-11T20:50:33.466Z</time>
      </trkpt>
      <trkpt lat="48.84716" lon="2.3004">
        <ele>94.9</ele>
        <time>2015-05-11T20:50:34.471Z</time>
      </trkpt>
      <trkpt lat="48.84719" lon="2.30045">
        <ele>95.4</ele>
        <time>2015-05-11T20:50:35.476Z</time>
      </trkpt>
      <trkpt lat="48.84723" lon="2.30052">
        <ele>95.5</ele>
        <time>2015-05-11T20:50:36.501Z</time>
      </trkpt>
      <trkpt lat="48.84726" lon="2.30058">
        <ele>96</ele>
        <time>2015-05-11T20:50:37.529Z</time>
      </trkpt>
      <trkpt lat="48.84731" lon="2.30069">
        <ele>96.4</ele>
        <time>2015-05-11T20:50:39.468Z</time>
      </trkpt>
      <trkpt lat="48.84733" lon="2.30074">
        <ele>96.5</ele>
        <time>2015-05-11T20:50:40.490Z</time>
      </trkpt>
      <trkpt lat="48.84738" lon="2.30083">
        <ele>96.7</ele>
        <time>2015-05-11T20:50:42.495Z</time>
      </trkpt>
      <trkpt lat="48.84741" lon="2.30088">
        <ele>96.9</ele>
        <time>2015-05-11T20:50:43.528Z</time>
      </trkpt>
      <trkpt lat="48.84748" lon="2.30096">
        <ele>97.2</ele>
        <time>2015-05-11T20:50:45.460Z</time>
      </trkpt>
      <trkpt lat="48.84751" lon="2.301">
        <ele>97.3</ele>
        <time>2015-05-11T20:50:46.497Z</time>
      </trkpt>
      <trkpt lat="48.84758" lon="2.30106">
        <ele>98</ele>
        <time>2015-05-11T20:50:48.535Z</time>
      </trkpt>
      <trkpt lat="48.8476" lon="2.3011">
        <ele>98.2</ele>
        <time>2015-05-11T20:50:49.548Z</time>
      </trkpt>
      <trkpt lat="48.84764" lon="2.30115">
        <ele>98.2</ele>
        <time>2015-05-11T20:50:50.465Z</time>
      </trkpt>
      <trkpt lat="48.84768" lon="2.3012">
        <ele>98.4</ele>
        <time>2015-05-11T20:50:51.462Z</time>
      </trkpt>
      <trkpt lat="48.84772" lon="2.3013">
        <ele>98.9</ele>
        <time>2015-05-11T20:50:53.506Z</time>
      </trkpt>
      <trkpt lat="48.84775" lon="2.30134">
        <ele>99.1</ele>
        <time>2015-05-11T20:50:54.517Z</time>
      </trkpt>
      <trkpt lat="48.8478" lon="2.30139">
        <ele>99.8</ele>
        <time>2015-05-11T20:50:56.459Z</time>
      </trkpt>
      <trkpt lat="48.84782" lon="2.30141">
        <ele>100.2</ele>
        <time>2015-05-11T20:50:57.508Z</time>
      </trkpt>
      <trkpt lat="48.84787" lon="2.30152">
        <ele>99.3</ele>
        <time>2015-05-11T20:51:01.565Z</time>
      </trkpt>
      <trkpt lat="48.84789" lon="2.30154">
        <ele>98</ele>
        <time>2015-05-11T20:51:02.478Z</time>
      </trkpt>
      <trkpt lat="48.8479" lon="2.30168">
        <ele>95.2</ele>
        <time>2015-05-11T20:51:07.488Z</time>
      </trkpt>
      <trkpt lat="48.8479" lon="2.30171">
        <ele>94.9</ele>
        <time>2015-05-11T20:51:08.500Z</time>
      </trkpt>
      <trkpt lat="48.84795" lon="2.30182">
        <ele>93.5</ele>
        <time>2015-05-11T20:51:11.476Z</time>
      </trkpt>
      <trkpt lat="48.84797" lon="2.30183">
        <ele>93</ele>
        <time>2015-05-11T20:51:12.487Z</time>
      </trkpt>
      <trkpt lat="48.84802" lon="2.30189">
        <ele>92.2</ele>
        <time>2015-05-11T20:52:22.505Z</time>
      </trkpt>
      <trkpt lat="48.84815" lon="2.30196">
        <ele>92.1</ele>
        <time>2015-05-11T20:52:23.571Z</time>
      </trkpt>
      <trkpt lat="48.84821" lon="2.30205">
        <ele>91.7</ele>
        <time>2015-05-11T20:52:26.529Z</time>
      </trkpt>
      <trkpt lat="48.84824" lon="2.3021">
        <ele>91.3</ele>
        <time>2015-05-11T20:52:27.579Z</time>
      </trkpt>
      <trkpt lat="48.84828" lon="2.30219">
        <ele>90.6</ele>
        <time>2015-05-11T20:52:29.479Z</time>
      </trkpt>
      <trkpt lat="48.84831" lon="2.30222">
        <ele>90.5</ele>
        <time>2015-05-11T20:52:30.468Z</time>
      </trkpt>
      <trkpt lat="48.84835" lon="2.30229">
        <ele>90.5</ele>
        <time>2015-05-11T20:52:32.545Z</time>
      </trkpt>
      <trkpt lat="48.84838" lon="2.30234">
        <ele>90.4</ele>
        <time>2015-05-11T20:52:33.476Z</time>
      </trkpt>
      <trkpt lat="48.84841" lon="2.30242">
        <ele>90.3</ele>
        <time>2015-05-11T20:52:35.432Z</time>
      </trkpt>
      <trkpt lat="48.84844" lon="2.30246">
        <ele>90.2</ele>
        <time>2015-05-11T20:52:36.459Z</time>
      </trkpt>
      <trkpt lat="48.84849" lon="2.30255">
        <ele>90</ele>
        <time>2015-05-11T20:52:38.491Z</time>
      </trkpt>
      <trkpt lat="48.84852" lon="2.3026">
        <ele>89.7</ele>
        <time>2015-05-11T20:52:39.503Z</time>
      </trkpt>
      <trkpt lat="48.84856" lon="2.30266">
        <ele>89.3</ele>
        <time>2015-05-11T20:52:40.509Z</time>
      </trkpt>
      <trkpt lat="48.8486" lon="2.3027">
        <ele>89</ele>
        <time>2015-05-11T20:52:41.561Z</time>
      </trkpt>
      <trkpt lat="48.84864" lon="2.30275">
        <ele>88.6</ele>
        <time>2015-05-11T20:52:42.517Z</time>
      </trkpt>
      <trkpt lat="48.84868" lon="2.3028">
        <ele>88.6</ele>
        <time>2015-05-11T20:52:43.493Z</time>
      </trkpt>
      <trkpt lat="48.84871" lon="2.30285">
        <ele>88.5</ele>
        <time>2015-05-11T20:52:44.517Z</time>
      </trkpt>
      <trkpt lat="48.84875" lon="2.30289">
        <ele>88.7</ele>
        <time>2015-05-11T20:52:45.543Z</time>
      </trkpt>
      <trkpt lat="48.84879" lon="2.30294">
        <ele>88.6</ele>
        <time>2015-05-11T20:52:46.462Z</time>
      </trkpt>
      <trkpt lat="48.84883" lon="2.30301">
        <ele>88.5</ele>
        <time>2015-05-11T20:52:47.473Z</time>
      </trkpt>
      <trkpt lat="48.84888" lon="2.30311">
        <ele>88.6</ele>
        <time>2015-05-11T20:52:49.510Z</time>
      </trkpt>
      <trkpt lat="48.84891" lon="2.30317">
        <ele>87.9</ele>
        <time>2015-05-11T20:52:50.524Z</time>
      </trkpt>
      <trkpt lat="48.84895" lon="2.30324">
        <ele>86.8</ele>
        <time>2015-05-11T20:52:51.467Z</time>
      </trkpt>
      <trkpt lat="48.84901" lon="2.3033">
        <ele>86.1</ele>
        <time>2015-05-11T20:52:52.476Z</time>
      </trkpt>
      <trkpt lat="48.84906" lon="2.30336">
        <ele>85.6</ele>
        <time>2015-05-11T20:52:53.487Z</time>
      </trkpt>
      <trkpt lat="48.84911" lon="2.30341">
        <ele>85.4</ele>
        <time>2015-05-11T20:52:54.497Z</time>
      </trkpt>
      <trkpt lat="48.84915" lon="2.30345">
        <ele>85.5</ele>
        <time>2015-05-11T20:52:55.500Z</time>
      </trkpt>
      <trkpt lat="48.84919" lon="2.3035">
        <ele>85.1</ele>
        <time>2015-05-11T20:52:56.510Z</time>
      </trkpt>
      <trkpt lat="48.84922" lon="2.30356">
        <ele>84.9</ele>
        <time>2015-05-11T20:52:54.601Z</time>
      </trkpt>
      <trkpt lat="48.84925" lon="2.30361">
        <ele>84.7</ele>
        <time>2015-05-11T20:52:58.453Z</time>
      </trkpt>
      <trkpt lat="48.84928" lon="2.30366">
        <ele>84.4</ele>
        <time>2015-05-11T20:52:59.453Z</time>
      </trkpt>
      <trkpt lat="48.84931" lon="2.30372">
        <ele>84.5</ele>
        <time>2015-05-11T20:53:00.491Z</time>
      </trkpt>
      <trkpt lat="48.84936" lon="2.30383">
        <ele>84.4</ele>
        <time>2015-05-11T20:53:02.204Z</time>
      </trkpt>
      <trkpt lat="48.84938" lon="2.30388">
        <ele>84.4</ele>
        <time>2015-05-11T20:53:03.459Z</time>
      </trkpt>
      <trkpt lat="48.84943" lon="2.30395">
        <ele>84.5</ele>
        <time>2015-05-11T20:53:05.478Z</time>
      </trkpt>
      <trkpt lat="48.84946" lon="2.30399">
        <ele>84.5</ele>
        <time>2015-05-11T20:53:06.506Z</time>
      </trkpt>
      <trkpt lat="48.84953" lon="2.30406">
        <ele>84</ele>
        <time>2015-05-11T20:53:08.541Z</time>
      </trkpt>
      <trkpt lat="48.84956" lon="2.30409">
        <ele>83.9</ele>
        <time>2015-05-11T20:53:09.552Z</time>
      </trkpt>
      <trkpt lat="48.84963" lon="2.30418">
        <ele>84</ele>
        <time>2015-05-11T20:53:11.479Z</time>
      </trkpt>
      <trkpt lat="48.84967" lon="2.30423">
        <ele>83.7</ele>
        <time>2015-05-11T20:53:12.500Z</time>
      </trkpt>
      <trkpt lat="48.84973" lon="2.30432">
        <ele>83.7</ele>
        <time>2015-05-11T20:53:14.529Z</time>
      </trkpt>
      <trkpt lat="48.84976" lon="2.30437">
        <ele>83.9</ele>
        <time>2015-05-11T20:53:15.441Z</time>
      </trkpt>
      <trkpt lat="48.8498" lon="2.30447">
        <ele>84.2</ele>
        <time>2015-05-11T20:53:17.487Z</time>
      </trkpt>
      <trkpt lat="48.84983" lon="2.30452">
        <ele>84.5</ele>
        <time>2015-05-11T20:53:18.520Z</time>
      </trkpt>
      <trkpt lat="48.84985" lon="2.30458">
        <ele>84.6</ele>
        <time>2015-05-11T20:53:19.493Z</time>
      </trkpt>
      <trkpt lat="48.84988" lon="2.30463">
        <ele>85.1</ele>
        <time>2015-05-11T20:53:20.494Z</time>
      </trkpt>
      <trkpt lat="48.84992" lon="2.3047">
        <ele>84.7</ele>
        <time>2015-05-11T20:53:21.520Z</time>
      </trkpt>
      <trkpt lat="48.84997" lon="2.30475">
        <ele>84.5</ele>
        <time>2015-05-11T20:53:22.527Z</time>
      </trkpt>
      <trkpt lat="48.85002" lon="2.3048">
        <ele>84.6</ele>
        <time>2015-05-11T20:53:23.528Z</time>
      </trkpt>
      <trkpt lat="48.85007" lon="2.30486">
        <ele>84.8</ele>
        <time>2015-05-11T20:53:24.541Z</time>
      </trkpt>
      <trkpt lat="48.85012" lon="2.30491">
        <ele>84.8</ele>
        <time>2015-05-11T20:53:25.550Z</time>
      </trkpt>
      <trkpt lat="48.85018" lon="2.30497">
        <ele>84.8</ele>
        <time>2015-05-11T20:53:26.559Z</time>
      </trkpt>
      <trkpt lat="48.85024" lon="2.30502">
        <ele>84.4</ele>
        <time>2015-05-11T20:53:27.458Z</time>
      </trkpt>
      <trkpt lat="48.85028" lon="2.30509">
        <ele>84.4</ele>
        <time>2015-05-11T20:53:28.463Z</time>
      </trkpt>
      <trkpt lat="48.85032" lon="2.30515">
        <ele>84.2</ele>
        <time>2015-05-11T20:53:29.479Z</time>
      </trkpt>
      <trkpt lat="48.85036" lon="2.30521">
        <ele>84.2</ele>
        <time>2015-05-11T20:53:30.498Z</time>
      </trkpt>
      <trkpt lat="48.8504" lon="2.30526">
        <ele>84.2</ele>
        <time>2015-05-11T20:53:31.527Z</time>
      </trkpt>
      <trkpt lat="48.85044" lon="2.30532">
        <ele>84.3</ele>
        <time>2015-05-11T20:53:32.559Z</time>
      </trkpt>
      <trkpt lat="48.85049" lon="2.30537">
        <ele>84.8</ele>
        <time>2015-05-11T20:53:33.460Z</time>
      </trkpt>
      <trkpt lat="48.85053" lon="2.30542">
        <ele>84.9</ele>
        <time>2015-05-11T20:53:34.462Z</time>
      </trkpt>
      <trkpt lat="48.85057" lon="2.30548">
        <ele>84.8</ele>
        <time>2015-05-11T20:53:35.450Z</time>
      </trkpt>
      <trkpt lat="48.85061" lon="2.30554">
        <ele>84.8</ele>
        <time>2015-05-11T20:53:36.557Z</time>
      </trkpt>
      <trkpt lat="48.85064" lon="2.30559">
        <ele>84.6</ele>
        <time>2015-05-11T20:53:37.556Z</time>
      </trkpt>
      <trkpt lat="48.85068" lon="2.30564">
        <ele>84.5</ele>
        <time>2015-05-11T20:53:38.457Z</time>
      </trkpt>
      <trkpt lat="48.85072" lon="2.30569">
        <ele>84</ele>
        <time>2015-05-11T20:53:39.458Z</time>
      </trkpt>
      <trkpt lat="48.85075" lon="2.30574">
        <ele>83.6</ele>
        <time>2015-05-11T20:53:40.462Z</time>
      </trkpt>
      <trkpt lat="48.85079" lon="2.30579">
        <ele>83.6</ele>
        <time>2015-05-11T20:53:41.469Z</time>
      </trkpt>
      <trkpt lat="48.85082" lon="2.30584">
        <ele>83.3</ele>
        <time>2015-05-11T20:53:42.508Z</time>
      </trkpt>
      <trkpt lat="48.85086" lon="2.30589">
        <ele>83.3</ele>
        <time>2015-05-11T20:53:43.542Z</time>
      </trkpt>
      <trkpt lat="48.8509" lon="2.30594">
        <ele>83.3</ele>
        <time>2015-05-11T20:53:44.434Z</time>
      </trkpt>
      <trkpt lat="48.85093" lon="2.30599">
        <ele>83.5</ele>
        <time>2015-05-11T20:53:45.470Z</time>
      </trkpt>
      <trkpt lat="48.85097" lon="2.30604">
        <ele>83.3</ele>
        <time>2015-05-11T20:53:46.459Z</time>
      </trkpt>
      <trkpt lat="48.85101" lon="2.30609">
        <ele>83.3</ele>
        <time>2015-05-11T20:53:47.496Z</time>
      </trkpt>
      <trkpt lat="48.85104" lon="2.30614">
        <ele>83.2</ele>
        <time>2015-05-11T20:53:48.501Z</time>
      </trkpt>
      <trkpt lat="48.85108" lon="2.3062">
        <ele>82.9</ele>
        <time>2015-05-11T20:53:49.513Z</time>
      </trkpt>
      <trkpt lat="48.85111" lon="2.30625">
        <ele>82.6</ele>
        <time>2015-05-11T20:53:50.539Z</time>
      </trkpt>
      <trkpt lat="48.85115" lon="2.3063">
        <ele>82.5</ele>
        <time>2015-05-11T20:53:51.444Z</time>
      </trkpt>
      <trkpt lat="48.85119" lon="2.30635">
        <ele>82.4</ele>
        <time>2015-05-11T20:53:52.461Z</time>
      </trkpt>
      <trkpt lat="48.85122" lon="2.3064">
        <ele>82.2</ele>
        <time>2015-05-11T20:53:53.477Z</time>
      </trkpt>
      <trkpt lat="48.85126" lon="2.30645">
        <ele>82.1</ele>
        <time>2015-05-11T20:53:54.499Z</time>
      </trkpt>
      <trkpt lat="48.8513" lon="2.3065">
        <ele>82.2</ele>
        <time>2015-05-11T20:53:55.510Z</time>
      </trkpt>
      <trkpt lat="48.85133" lon="2.30656">
        <ele>82.1</ele>
        <time>2015-05-11T20:53:56.519Z</time>
      </trkpt>
      <trkpt lat="48.85137" lon="2.30661">
        <ele>81.9</ele>
        <time>2015-05-11T20:53:57.531Z</time>
      </trkpt>
      <trkpt lat="48.85141" lon="2.30666">
        <ele>81.6</ele>
        <time>2015-05-11T20:53:58.535Z</time>
      </trkpt>
      <trkpt lat="48.85144" lon="2.30672">
        <ele>81.2</ele>
        <time>2015-05-11T20:53:59.552Z</time>
      </trkpt>
      <trkpt lat="48.85148" lon="2.30678">
        <ele>80.9</ele>
        <time>2015-05-11T20:54:00.566Z</time>
      </trkpt>
      <trkpt lat="48.85152" lon="2.30683">
        <ele>80.8</ele>
        <time>2015-05-11T20:54:01.592Z</time>
      </trkpt>
      <trkpt lat="48.85155" lon="2.30688">
        <ele>81</ele>
        <time>2015-05-11T20:54:02.475Z</time>
      </trkpt>
      <trkpt lat="48.85159" lon="2.30694">
        <ele>81</ele>
        <time>2015-05-11T20:54:03.488Z</time>
      </trkpt>
      <trkpt lat="48.85162" lon="2.30699">
        <ele>81.1</ele>
        <time>2015-05-11T20:54:04.521Z</time>
      </trkpt>
      <trkpt lat="48.85166" lon="2.30704">
        <ele>81.3</ele>
        <time>2015-05-11T20:54:05.463Z</time>
      </trkpt>
      <trkpt lat="48.8517" lon="2.30709">
        <ele>81.5</ele>
        <time>2015-05-11T20:54:06.488Z</time>
      </trkpt>
      <trkpt lat="48.85173" lon="2.30714">
        <ele>81.4</ele>
        <time>2015-05-11T20:54:07.555Z</time>
      </trkpt>
      <trkpt lat="48.85177" lon="2.30719">
        <ele>81.4</ele>
        <time>2015-05-11T20:54:08.462Z</time>
      </trkpt>
      <trkpt lat="48.85179" lon="2.30724">
        <ele>81.4</ele>
        <time>2015-05-11T20:54:09.562Z</time>
      </trkpt>
      <trkpt lat="48.85182" lon="2.3073">
        <ele>81.4</ele>
        <time>2015-05-11T20:54:10.485Z</time>
      </trkpt>
      <trkpt lat="48.85184" lon="2.30737">
        <ele>81.2</ele>
        <time>2015-05-11T20:54:11.483Z</time>
      </trkpt>
      <trkpt lat="48.85187" lon="2.30743">
        <ele>81.4</ele>
        <time>2015-05-11T20:54:12.511Z</time>
      </trkpt>
      <trkpt lat="48.8519" lon="2.30749">
        <ele>81.5</ele>
        <time>2015-05-11T20:54:13.464Z</time>
      </trkpt>
      <trkpt lat="48.85193" lon="2.30755">
        <ele>81.7</ele>
        <time>2015-05-11T20:54:14.457Z</time>
      </trkpt>
      <trkpt lat="48.85196" lon="2.30761">
        <ele>81.9</ele>
        <time>2015-05-11T20:54:15.465Z</time>
      </trkpt>
      <trkpt lat="48.85199" lon="2.30767">
        <ele>82.3</ele>
        <time>2015-05-11T20:54:16.475Z</time>
      </trkpt>
      <trkpt lat="48.85203" lon="2.30772">
        <ele>82.6</ele>
        <time>2015-05-11T20:54:17.497Z</time>
      </trkpt>
      <trkpt lat="48.85206" lon="2.30778">
        <ele>83</ele>
        <time>2015-05-11T20:54:18.525Z</time>
      </trkpt>
      <trkpt lat="48.85209" lon="2.30784">
        <ele>83.2</ele>
        <time>2015-05-11T20:54:19.557Z</time>
      </trkpt>
      <trkpt lat="48.85213" lon="2.30789">
        <ele>83.4</ele>
        <time>2015-05-11T20:54:20.470Z</time>
      </trkpt>
      <trkpt lat="48.85217" lon="2.30795">
        <ele>83.8</ele>
        <time>2015-05-11T20:54:21.439Z</time>
      </trkpt>
      <trkpt lat="48.85222" lon="2.30801">
        <ele>84.1</ele>
        <time>2015-05-11T20:54:22.447Z</time>
      </trkpt>
      <trkpt lat="48.85226" lon="2.30807">
        <ele>84.1</ele>
        <time>2015-05-11T20:54:23.470Z</time>
      </trkpt>
      <trkpt lat="48.8523" lon="2.30812">
        <ele>84.3</ele>
        <time>2015-05-11T20:54:24.496Z</time>
      </trkpt>
      <trkpt lat="48.85236" lon="2.30818">
        <ele>84.1</ele>
        <time>2015-05-11T20:54:25.504Z</time>
      </trkpt>
      <trkpt lat="48.85242" lon="2.30822">
        <ele>84.3</ele>
        <time>2015-05-11T20:54:26.513Z</time>
      </trkpt>
      <trkpt lat="48.85247" lon="2.30826">
        <ele>84.8</ele>
        <time>2015-05-11T20:54:27.520Z</time>
      </trkpt>
      <trkpt lat="48.85251" lon="2.30831">
        <ele>85.1</ele>
        <time>2015-05-11T20:54:28.425Z</time>
      </trkpt>
      <trkpt lat="48.85255" lon="2.30835">
        <ele>85.4</ele>
        <time>2015-05-11T20:54:29.456Z</time>
      </trkpt>
      <trkpt lat="48.85259" lon="2.3084">
        <ele>85.7</ele>
        <time>2015-05-11T20:54:30.486Z</time>
      </trkpt>
      <trkpt lat="48.85265" lon="2.30848">
        <ele>86.2</ele>
        <time>2015-05-11T20:54:32.423Z</time>
      </trkpt>
      <trkpt lat="48.85267" lon="2.30851">
        <ele>86.5</ele>
        <time>2015-05-11T20:54:33.450Z</time>
      </trkpt>
      <trkpt lat="48.85269" lon="2.30861">
        <ele>85.4</ele>
        <time>2015-05-11T20:54:47.493Z</time>
      </trkpt>
      <trkpt lat="48.85271" lon="2.30864">
        <ele>85.4</ele>
        <time>2015-05-11T20:54:48.533Z</time>
      </trkpt>
      <trkpt lat="48.85277" lon="2.3087">
        <ele>85</ele>
        <time>2015-05-11T20:54:51.490Z</time>
      </trkpt>
      <trkpt lat="48.8528" lon="2.30871">
        <ele>84.4</ele>
        <time>2015-05-11T20:54:52.541Z</time>
      </trkpt>
      <trkpt lat="48.85286" lon="2.30878">
        <ele>84</ele>
        <time>2015-05-11T20:54:55.546Z</time>
      </trkpt>
      <trkpt lat="48.85289" lon="2.30881">
        <ele>84</ele>
        <time>2015-05-11T20:54:56.581Z</time>
      </trkpt>
      <trkpt lat="48.85294" lon="2.30888">
        <ele>83.8</ele>
        <time>2015-05-11T20:54:58.604Z</time>
      </trkpt>
      <trkpt lat="48.85296" lon="2.30892">
        <ele>83.9</ele>
        <time>2015-05-11T20:54:59.523Z</time>
      </trkpt>
      <trkpt lat="48.85301" lon="2.30899">
        <ele>83.4</ele>
        <time>2015-05-11T20:55:01.484Z</time>
      </trkpt>
      <trkpt lat="48.85304" lon="2.30903">
        <ele>83.2</ele>
        <time>2015-05-11T20:55:02.572Z</time>
      </trkpt>
      <trkpt lat="48.85309" lon="2.3091">
        <ele>83.2</ele>
        <time>2015-05-11T20:55:04.466Z</time>
      </trkpt>
      <trkpt lat="48.85312" lon="2.30913">
        <ele>83.4</ele>
        <time>2015-05-11T20:55:05.538Z</time>
      </trkpt>
      <trkpt lat="48.85317" lon="2.30921">
        <ele>83.7</ele>
        <time>2015-05-11T20:55:07.493Z</time>
      </trkpt>
      <trkpt lat="48.8532" lon="2.30925">
        <ele>83.9</ele>
        <time>2015-05-11T20:55:08.457Z</time>
      </trkpt>
      <trkpt lat="48.85326" lon="2.30932">
        <ele>85.2</ele>
        <time>2015-05-11T20:55:10.514Z</time>
      </trkpt>
      <trkpt lat="48.85328" lon="2.30936">
        <ele>85.7</ele>
        <time>2015-05-11T20:55:11.533Z</time>
      </trkpt>
      <trkpt lat="48.85333" lon="2.30939">
        <ele>86.7</ele>
        <time>2015-05-11T20:55:13.490Z</time>
      </trkpt>
      <trkpt lat="48.85336" lon="2.3094">
        <ele>86.9</ele>
        <time>2015-05-11T20:55:14.468Z</time>
      </trkpt>
      <trkpt lat="48.85342" lon="2.30945">
        <ele>87.5</ele>
        <time>2015-05-11T20:55:16.485Z</time>
      </trkpt>
      <trkpt lat="48.85345" lon="2.30947">
        <ele>88.1</ele>
        <time>2015-05-11T20:55:17.495Z</time>
      </trkpt>
      <trkpt lat="48.85354" lon="2.30949">
        <ele>89</ele>
        <time>2015-05-11T20:55:20.420Z</time>
      </trkpt>
      <trkpt lat="48.85358" lon="2.30949">
        <ele>89.1</ele>
        <time>2015-05-11T20:55:21.462Z</time>
      </trkpt>
      <trkpt lat="48.85364" lon="2.30949">
        <ele>88.6</ele>
        <time>2015-05-11T20:55:23.516Z</time>
      </trkpt>
      <trkpt lat="48.85367" lon="2.3095">
        <ele>88.3</ele>
        <time>2015-05-11T20:55:24.525Z</time>
      </trkpt>
      <trkpt lat="48.85376" lon="2.30951">
        <ele>87.8</ele>
        <time>2015-05-11T20:55:27.455Z</time>
      </trkpt>
      <trkpt lat="48.85379" lon="2.30951">
        <ele>87.4</ele>
        <time>2015-05-11T20:55:28.462Z</time>
      </trkpt>
      <trkpt lat="48.85387" lon="2.30951">
        <ele>87.1</ele>
        <time>2015-05-11T20:55:30.492Z</time>
      </trkpt>
      <trkpt lat="48.85391" lon="2.30952">
        <ele>87.2</ele>
        <time>2015-05-11T20:55:31.532Z</time>
      </trkpt>
      <trkpt lat="48.85399" lon="2.30953">
        <ele>87.5</ele>
        <time>2015-05-11T20:55:33.498Z</time>
      </trkpt>
      <trkpt lat="48.85402" lon="2.30954">
        <ele>87.9</ele>
        <time>2015-05-11T20:55:34.501Z</time>
      </trkpt>
      <trkpt lat="48.85409" lon="2.30957">
        <ele>88.6</ele>
        <time>2015-05-11T20:55:36.518Z</time>
      </trkpt>
      <trkpt lat="48.85413" lon="2.30959">
        <ele>89.1</ele>
        <time>2015-05-11T20:55:37.531Z</time>
      </trkpt>
      <trkpt lat="48.85421" lon="2.30962">
        <ele>90.2</ele>
        <time>2015-05-11T20:55:39.468Z</time>
      </trkpt>
      <trkpt lat="48.85425" lon="2.30962">
        <ele>90.5</ele>
        <time>2015-05-11T20:55:40.473Z</time>
      </trkpt>
      <trkpt lat="48.85429" lon="2.30962">
        <ele>90.6</ele>
        <time>2015-05-11T20:55:41.496Z</time>
      </trkpt>
      <trkpt lat="48.85435" lon="2.30962">
        <ele>90.9</ele>
        <time>2015-05-11T20:55:42.505Z</time>
      </trkpt>
      <trkpt lat="48.8544" lon="2.30963">
        <ele>91.1</ele>
        <time>2015-05-11T20:55:43.541Z</time>
      </trkpt>
      <trkpt lat="48.85446" lon="2.30964">
        <ele>91.3</ele>
        <time>2015-05-11T20:55:44.539Z</time>
      </trkpt>
      <trkpt lat="48.85451" lon="2.30964">
        <ele>91.5</ele>
        <time>2015-05-11T20:55:44.666Z</time>
      </trkpt>
      <trkpt lat="48.85456" lon="2.30963">
        <ele>91.6</ele>
        <time>2015-05-11T20:55:46.507Z</time>
      </trkpt>
      <trkpt lat="48.85461" lon="2.30965">
        <ele>91.9</ele>
        <time>2015-05-11T20:55:47.577Z</time>
      </trkpt>
      <trkpt lat="48.85467" lon="2.30966">
        <ele>92.2</ele>
        <time>2015-05-11T20:55:48.562Z</time>
      </trkpt>
      <trkpt lat="48.85472" lon="2.30967">
        <ele>92.4</ele>
        <time>2015-05-11T20:55:49.742Z</time>
      </trkpt>
      <trkpt lat="48.85478" lon="2.30966">
        <ele>92.3</ele>
        <time>2015-05-11T20:55:50.486Z</time>
      </trkpt>
      <trkpt lat="48.85484" lon="2.30965">
        <ele>92.1</ele>
        <time>2015-05-11T20:55:51.528Z</time>
      </trkpt>
      <trkpt lat="48.85491" lon="2.30964">
        <ele>91.9</ele>
        <time>2015-05-11T20:55:52.525Z</time>
      </trkpt>
      <trkpt lat="48.85496" lon="2.30965">
        <ele>92</ele>
        <time>2015-05-11T20:55:53.538Z</time>
      </trkpt>
      <trkpt lat="48.85501" lon="2.30966">
        <ele>92.1</ele>
        <time>2015-05-11T20:55:54.583Z</time>
      </trkpt>
      <trkpt lat="48.85507" lon="2.30969">
        <ele>92.3</ele>
        <time>2015-05-11T20:55:55.497Z</time>
      </trkpt>
      <trkpt lat="48.85512" lon="2.3097">
        <ele>92.5</ele>
        <time>2015-05-11T20:55:56.504Z</time>
      </trkpt>
      <trkpt lat="48.85516" lon="2.30971">
        <ele>92.4</ele>
        <time>2015-05-11T20:55:57.519Z</time>
      </trkpt>
      <trkpt lat="48.85522" lon="2.30972">
        <ele>92.6</ele>
        <time>2015-05-11T20:55:58.414Z</time>
      </trkpt>
      <trkpt lat="48.85528" lon="2.30972">
        <ele>92.5</ele>
        <time>2015-05-11T20:55:59.449Z</time>
      </trkpt>
      <trkpt lat="48.85534" lon="2.30971">
        <ele>92.5</ele>
        <time>2015-05-11T20:56:00.453Z</time>
      </trkpt>
      <trkpt lat="48.85539" lon="2.30971">
        <ele>92.1</ele>
        <time>2015-05-11T20:56:01.472Z</time>
      </trkpt>
      <trkpt lat="48.85545" lon="2.3097">
        <ele>91.9</ele>
        <time>2015-05-11T20:56:02.474Z</time>
      </trkpt>
      <trkpt lat="48.85551" lon="2.30971">
        <ele>91.2</ele>
        <time>2015-05-11T20:56:03.488Z</time>
      </trkpt>
      <trkpt lat="48.85556" lon="2.30972">
        <ele>90.8</ele>
        <time>2015-05-11T20:56:04.505Z</time>
      </trkpt>
      <trkpt lat="48.85561" lon="2.30973">
        <ele>90.4</ele>
        <time>2015-05-11T20:56:05.528Z</time>
      </trkpt>
      <trkpt lat="48.85566" lon="2.30973">
        <ele>90.3</ele>
        <time>2015-05-11T20:56:06.533Z</time>
      </trkpt>
      <trkpt lat="48.85572" lon="2.30973">
        <ele>89.9</ele>
        <time>2015-05-11T20:56:07.543Z</time>
      </trkpt>
      <trkpt lat="48.85578" lon="2.30973">
        <ele>89.8</ele>
        <time>2015-05-11T20:56:08.443Z</time>
      </trkpt>
      <trkpt lat="48.85583" lon="2.30973">
        <ele>89.7</ele>
        <time>2015-05-11T20:56:09.446Z</time>
      </trkpt>
      <trkpt lat="48.85588" lon="2.30973">
        <ele>89.6</ele>
        <time>2015-05-11T20:56:10.451Z</time>
      </trkpt>
      <trkpt lat="48.85593" lon="2.30972">
        <ele>89.3</ele>
        <time>2015-05-11T20:56:11.472Z</time>
      </trkpt>
      <trkpt lat="48.85598" lon="2.30973">
        <ele>89.2</ele>
        <time>2015-05-11T20:56:12.492Z</time>
      </trkpt>
      <trkpt lat="48.85602" lon="2.30973">
        <ele>89.3</ele>
        <time>2015-05-11T20:56:13.508Z</time>
      </trkpt>
      <trkpt lat="48.85607" lon="2.30974">
        <ele>89.1</ele>
        <time>2015-05-11T20:56:14.465Z</time>
      </trkpt>
      <trkpt lat="48.85613" lon="2.30973">
        <ele>88.7</ele>
        <time>2015-05-11T20:56:15.512Z</time>
      </trkpt>
      <trkpt lat="48.85618" lon="2.30972">
        <ele>88.2</ele>
        <time>2015-05-11T20:56:16.517Z</time>
      </trkpt>
      <trkpt lat="48.85624" lon="2.30972">
        <ele>88.3</ele>
        <time>2015-05-11T20:56:17.468Z</time>
      </trkpt>
      <trkpt lat="48.85628" lon="2.30973">
        <ele>88.7</ele>
        <time>2015-05-11T20:56:18.490Z</time>
      </trkpt>
      <trkpt lat="48.85636" lon="2.30976">
        <ele>88.7</ele>
        <time>2015-05-11T20:56:20.515Z</time>
      </trkpt>
      <trkpt lat="48.85641" lon="2.30977">
        <ele>88.5</ele>
        <time>2015-05-11T20:56:21.457Z</time>
      </trkpt>
      <trkpt lat="48.85646" lon="2.30977">
        <ele>88.5</ele>
        <time>2015-05-11T20:56:22.413Z</time>
      </trkpt>
      <trkpt lat="48.85651" lon="2.30978">
        <ele>88.5</ele>
        <time>2015-05-11T20:56:23.431Z</time>
      </trkpt>
      <trkpt lat="48.8566" lon="2.3098">
        <ele>88.5</ele>
        <time>2015-05-11T20:56:25.454Z</time>
      </trkpt>
      <trkpt lat="48.85664" lon="2.30982">
        <ele>88.4</ele>
        <time>2015-05-11T20:56:26.484Z</time>
      </trkpt>
      <trkpt lat="48.85672" lon="2.30981">
        <ele>88.3</ele>
        <time>2015-05-11T20:56:28.442Z</time>
      </trkpt>
      <trkpt lat="48.85676" lon="2.3098">
        <ele>88.2</ele>
        <time>2015-05-11T20:56:29.446Z</time>
      </trkpt>
      <trkpt lat="48.85683" lon="2.30978">
        <ele>88.2</ele>
        <time>2015-05-11T20:56:31.463Z</time>
      </trkpt>
      <trkpt lat="48.85686" lon="2.30978">
        <ele>88.3</ele>
        <time>2015-05-11T20:56:32.518Z</time>
      </trkpt>
      <trkpt lat="48.85692" lon="2.30983">
        <ele>88.8</ele>
        <time>2015-05-11T20:56:34.465Z</time>
      </trkpt>
      <trkpt lat="48.85695" lon="2.30986">
        <ele>89</ele>
        <time>2015-05-11T20:56:35.493Z</time>
      </trkpt>
      <trkpt lat="48.857" lon="2.30989">
        <ele>88.7</ele>
        <time>2015-05-11T20:56:36.564Z</time>
      </trkpt>
      <trkpt lat="48.85705" lon="2.30992">
        <ele>88.6</ele>
        <time>2015-05-11T20:56:37.458Z</time>
      </trkpt>
      <trkpt lat="48.8571" lon="2.30995">
        <ele>88.2</ele>
        <time>2015-05-11T20:56:38.460Z</time>
      </trkpt>
      <trkpt lat="48.85717" lon="2.31001">
        <ele>87.1</ele>
        <time>2015-05-11T20:56:39.467Z</time>
      </trkpt>
      <trkpt lat="48.85725" lon="2.31008">
        <ele>86.1</ele>
        <time>2015-05-11T20:56:40.479Z</time>
      </trkpt>
      <trkpt lat="48.85733" lon="2.31015">
        <ele>85.2</ele>
        <time>2015-05-11T20:56:41.488Z</time>
      </trkpt>
      <trkpt lat="48.8574" lon="2.31022">
        <ele>84.8</ele>
        <time>2015-05-11T20:56:42.503Z</time>
      </trkpt>
      <trkpt lat="48.85747" lon="2.31028">
        <ele>84.5</ele>
        <time>2015-05-11T20:56:43.506Z</time>
      </trkpt>
      <trkpt lat="48.85754" lon="2.31034">
        <ele>84.3</ele>
        <time>2015-05-11T20:56:44.445Z</time>
      </trkpt>
      <trkpt lat="48.8576" lon="2.3104">
        <ele>84.3</ele>
        <time>2015-05-11T20:56:45.462Z</time>
      </trkpt>
      <trkpt lat="48.85765" lon="2.31045">
        <ele>84.1</ele>
        <time>2015-05-11T20:56:46.471Z</time>
      </trkpt>
      <trkpt lat="48.8577" lon="2.31052">
        <ele>84.3</ele>
        <time>2015-05-11T20:56:47.474Z</time>
      </trkpt>
      <trkpt lat="48.85775" lon="2.31059">
        <ele>84.5</ele>
        <time>2015-05-11T20:56:48.489Z</time>
      </trkpt>
      <trkpt lat="48.8578" lon="2.31065">
        <ele>84.8</ele>
        <time>2015-05-11T20:56:49.492Z</time>
      </trkpt>
      <trkpt lat="48.85786" lon="2.3107">
        <ele>85</ele>
        <time>2015-05-11T20:56:50.498Z</time>
      </trkpt>
      <trkpt lat="48.85791" lon="2.31076">
        <ele>85.4</ele>
        <time>2015-05-11T20:56:51.516Z</time>
      </trkpt>
      <trkpt lat="48.85797" lon="2.31082">
        <ele>86</ele>
        <time>2015-05-11T20:56:52.530Z</time>
      </trkpt>
      <trkpt lat="48.85803" lon="2.31088">
        <ele>86.6</ele>
        <time>2015-05-11T20:56:53.537Z</time>
      </trkpt>
      <trkpt lat="48.8581" lon="2.31093">
        <ele>87.8</ele>
        <time>2015-05-11T20:56:54.558Z</time>
      </trkpt>
      <trkpt lat="48.85815" lon="2.31099">
        <ele>88</ele>
        <time>2015-05-11T20:56:55.476Z</time>
      </trkpt>
      <trkpt lat="48.8582" lon="2.31105">
        <ele>88.3</ele>
        <time>2015-05-11T20:56:56.466Z</time>
      </trkpt>
      <trkpt lat="48.85824" lon="2.31111">
        <ele>88.4</ele>
        <time>2015-05-11T20:56:57.484Z</time>
      </trkpt>
      <trkpt lat="48.85828" lon="2.31117">
        <ele>88</ele>
        <time>2015-05-11T20:56:58.494Z</time>
      </trkpt>
      <trkpt lat="48.85832" lon="2.31122">
        <ele>87.8</ele>
        <time>2015-05-11T20:56:59.515Z</time>
      </trkpt>
      <trkpt lat="48.85835" lon="2.31126">
        <ele>87.6</ele>
        <time>2015-05-11T20:57:00.627Z</time>
      </trkpt>
      <trkpt lat="48.8584" lon="2.31131">
        <ele>87.2</ele>
        <time>2015-05-11T20:57:01.546Z</time>
      </trkpt>
      <trkpt lat="48.85843" lon="2.31138">
        <ele>87.2</ele>
        <time>2015-05-11T20:57:02.448Z</time>
      </trkpt>
      <trkpt lat="48.85845" lon="2.31146">
        <ele>87.1</ele>
        <time>2015-05-11T20:57:03.448Z</time>
      </trkpt>
      <trkpt lat="48.85848" lon="2.31154">
        <ele>87</ele>
        <time>2015-05-11T20:57:04.462Z</time>
      </trkpt>
      <trkpt lat="48.85848" lon="2.31163">
        <ele>86.6</ele>
        <time>2015-05-11T20:57:05.466Z</time>
      </trkpt>
      <trkpt lat="48.85849" lon="2.31172">
        <ele>86.3</ele>
        <time>2015-05-11T20:57:06.577Z</time>
      </trkpt>
      <trkpt lat="48.85849" lon="2.31181">
        <ele>86</ele>
        <time>2015-05-11T20:57:07.511Z</time>
      </trkpt>
      <trkpt lat="48.8585" lon="2.31189">
        <ele>85.8</ele>
        <time>2015-05-11T20:57:08.451Z</time>
      </trkpt>
      <trkpt lat="48.85851" lon="2.31197">
        <ele>85.6</ele>
        <time>2015-05-11T20:57:09.449Z</time>
      </trkpt>
      <trkpt lat="48.85851" lon="2.31205">
        <ele>85.6</ele>
        <time>2015-05-11T20:57:10.457Z</time>
      </trkpt>
      <trkpt lat="48.85852" lon="2.31214">
        <ele>85.3</ele>
        <time>2015-05-11T20:57:11.453Z</time>
      </trkpt>
      <trkpt lat="48.85851" lon="2.31223">
        <ele>85.1</ele>
        <time>2015-05-11T20:57:12.495Z</time>
      </trkpt>
      <trkpt lat="48.85851" lon="2.31231">
        <ele>84.7</ele>
        <time>2015-05-11T20:57:13.488Z</time>
      </trkpt>
      <trkpt lat="48.8585" lon="2.31239">
        <ele>84.4</ele>
        <time>2015-05-11T20:57:14.498Z</time>
      </trkpt>
      <trkpt lat="48.85849" lon="2.31247">
        <ele>84.1</ele>
        <time>2015-05-11T20:57:15.507Z</time>
      </trkpt>
      <trkpt lat="48.85848" lon="2.31256">
        <ele>83.8</ele>
        <time>2015-05-11T20:57:16.507Z</time>
      </trkpt>
      <trkpt lat="48.85847" lon="2.31264">
        <ele>83.4</ele>
        <time>2015-05-11T20:57:17.522Z</time>
      </trkpt>
      <trkpt lat="48.85846" lon="2.31272">
        <ele>83.3</ele>
        <time>2015-05-11T20:57:18.545Z</time>
      </trkpt>
      <trkpt lat="48.85845" lon="2.3128">
        <ele>83.3</ele>
        <time>2015-05-11T20:57:19.559Z</time>
      </trkpt>
      <trkpt lat="48.85845" lon="2.31288">
        <ele>82.9</ele>
        <time>2015-05-11T20:57:20.470Z</time>
      </trkpt>
      <trkpt lat="48.85844" lon="2.31295">
        <ele>82.3</ele>
        <time>2015-05-11T20:57:21.474Z</time>
      </trkpt>
      <trkpt lat="48.85843" lon="2.31302">
        <ele>81.8</ele>
        <time>2015-05-11T20:57:22.506Z</time>
      </trkpt>
      <trkpt lat="48.85843" lon="2.31309">
        <ele>81.7</ele>
        <time>2015-05-11T20:57:23.524Z</time>
      </trkpt>
      <trkpt lat="48.85843" lon="2.31316">
        <ele>81.8</ele>
        <time>2015-05-11T20:57:24.525Z</time>
      </trkpt>
      <trkpt lat="48.85842" lon="2.31323">
        <ele>81.7</ele>
        <time>2015-05-11T20:57:25.539Z</time>
      </trkpt>
      <trkpt lat="48.85841" lon="2.31331">
        <ele>81.7</ele>
        <time>2015-05-11T20:57:26.502Z</time>
      </trkpt>
      <trkpt lat="48.85841" lon="2.31338">
        <ele>81.6</ele>
        <time>2015-05-11T20:57:27.487Z</time>
      </trkpt>
      <trkpt lat="48.8584" lon="2.31345">
        <ele>81.4</ele>
        <time>2015-05-11T20:57:28.517Z</time>
      </trkpt>
      <trkpt lat="48.85839" lon="2.31353">
        <ele>81.1</ele>
        <time>2015-05-11T20:57:29.537Z</time>
      </trkpt>
      <trkpt lat="48.85839" lon="2.3136">
        <ele>80.9</ele>
        <time>2015-05-11T20:57:30.579Z</time>
      </trkpt>
      <trkpt lat="48.85838" lon="2.31367">
        <ele>80.7</ele>
        <time>2015-05-11T20:57:31.587Z</time>
      </trkpt>
      <trkpt lat="48.85837" lon="2.31374">
        <ele>81</ele>
        <time>2015-05-11T20:57:32.453Z</time>
      </trkpt>
      <trkpt lat="48.85836" lon="2.31381">
        <ele>81.1</ele>
        <time>2015-05-11T20:57:33.481Z</time>
      </trkpt>
      <trkpt lat="48.85835" lon="2.31388">
        <ele>81.5</ele>
        <time>2015-05-11T20:57:34.486Z</time>
      </trkpt>
      <trkpt lat="48.85833" lon="2.31395">
        <ele>81.5</ele>
        <time>2015-05-11T20:57:35.517Z</time>
      </trkpt>
      <trkpt lat="48.85831" lon="2.31401">
        <ele>81.6</ele>
        <time>2015-05-11T20:57:36.518Z</time>
      </trkpt>
      <trkpt lat="48.85829" lon="2.31409">
        <ele>81.6</ele>
        <time>2015-05-11T20:57:37.533Z</time>
      </trkpt>
      <trkpt lat="48.85827" lon="2.31416">
        <ele>81.9</ele>
        <time>2015-05-11T20:57:38.539Z</time>
      </trkpt>
      <trkpt lat="48.85825" lon="2.31422">
        <ele>82.2</ele>
        <time>2015-05-11T20:57:39.441Z</time>
      </trkpt>
      <trkpt lat="48.85823" lon="2.31429">
        <ele>82.1</ele>
        <time>2015-05-11T20:57:40.477Z</time>
      </trkpt>
      <trkpt lat="48.85821" lon="2.31436">
        <ele>82.5</ele>
        <time>2015-05-11T20:57:41.493Z</time>
      </trkpt>
      <trkpt lat="48.85819" lon="2.31443">
        <ele>82.9</ele>
        <time>2015-05-11T20:57:42.500Z</time>
      </trkpt>
      <trkpt lat="48.85816" lon="2.31448">
        <ele>83.5</ele>
        <time>2015-05-11T20:57:43.527Z</time>
      </trkpt>
      <trkpt lat="48.85814" lon="2.31453">
        <ele>83.9</ele>
        <time>2015-05-11T20:57:44.442Z</time>
      </trkpt>
      <trkpt lat="48.85811" lon="2.31459">
        <ele>84.3</ele>
        <time>2015-05-11T20:57:45.466Z</time>
      </trkpt>
      <trkpt lat="48.85807" lon="2.31468">
        <ele>84.2</ele>
        <time>2015-05-11T20:57:47.505Z</time>
      </trkpt>
      <trkpt lat="48.85805" lon="2.31473">
        <ele>84.2</ele>
        <time>2015-05-11T20:57:48.597Z</time>
      </trkpt>
      <trkpt lat="48.85803" lon="2.31485">
        <ele>84.9</ele>
        <time>2015-05-11T20:57:50.541Z</time>
      </trkpt>
      <trkpt lat="48.85801" lon="2.31491">
        <ele>85</ele>
        <time>2015-05-11T20:57:51.608Z</time>
      </trkpt>
      <trkpt lat="48.85798" lon="2.31502">
        <ele>85</ele>
        <time>2015-05-11T20:57:53.522Z</time>
      </trkpt>
      <trkpt lat="48.85796" lon="2.31507">
        <ele>85</ele>
        <time>2015-05-11T20:57:54.551Z</time>
      </trkpt>
      <trkpt lat="48.85792" lon="2.31513">
        <ele>85</ele>
        <time>2015-05-11T20:57:56.471Z</time>
      </trkpt>
      <trkpt lat="48.85789" lon="2.31515">
        <ele>85.1</ele>
        <time>2015-05-11T20:57:57.498Z</time>
      </trkpt>
      <trkpt lat="48.85781" lon="2.31517">
        <ele>84.5</ele>
        <time>2015-05-11T20:57:59.539Z</time>
      </trkpt>
      <trkpt lat="48.85777" lon="2.31516">
        <ele>84.2</ele>
        <time>2015-05-11T20:58:00.494Z</time>
      </trkpt>
      <trkpt lat="48.85768" lon="2.31515">
        <ele>84.1</ele>
        <time>2015-05-11T20:58:02.475Z</time>
      </trkpt>
      <trkpt lat="48.85764" lon="2.31515">
        <ele>84.4</ele>
        <time>2015-05-11T20:58:03.501Z</time>
      </trkpt>
      <trkpt lat="48.85759" lon="2.31515">
        <ele>84.3</ele>
        <time>2015-05-11T20:58:04.523Z</time>
      </trkpt>
      <trkpt lat="48.85755" lon="2.31515">
        <ele>84.2</ele>
        <time>2015-05-11T20:58:05.531Z</time>
      </trkpt>
      <trkpt lat="48.85748" lon="2.31514">
        <ele>84.4</ele>
        <time>2015-05-11T20:58:07.506Z</time>
      </trkpt>
      <trkpt lat="48.85744" lon="2.31514">
        <ele>84.6</ele>
        <time>2015-05-11T20:58:08.531Z</time>
      </trkpt>
      <trkpt lat="48.85737" lon="2.31513">
        <ele>84.3</ele>
        <time>2015-05-11T20:58:10.470Z</time>
      </trkpt>
      <trkpt lat="48.85733" lon="2.31513">
        <ele>84</ele>
        <time>2015-05-11T20:58:11.488Z</time>
      </trkpt>
      <trkpt lat="48.85725" lon="2.3151">
        <ele>83.6</ele>
        <time>2015-05-11T20:58:13.550Z</time>
      </trkpt>
      <trkpt lat="48.85721" lon="2.31509">
        <ele>83.2</ele>
        <time>2015-05-11T20:58:14.456Z</time>
      </trkpt>
      <trkpt lat="48.85714" lon="2.31508">
        <ele>82.9</ele>
        <time>2015-05-11T20:58:16.471Z</time>
      </trkpt>
      <trkpt lat="48.8571" lon="2.31508">
        <ele>82.6</ele>
        <time>2015-05-11T20:58:17.798Z</time>
      </trkpt>
      <trkpt lat="48.85703" lon="2.3151">
        <ele>82.9</ele>
        <time>2015-05-11T20:58:19.487Z</time>
      </trkpt>
      <trkpt lat="48.85699" lon="2.3151">
        <ele>83.2</ele>
        <time>2015-05-11T20:58:20.496Z</time>
      </trkpt>
      <trkpt lat="48.85692" lon="2.31512">
        <ele>83.3</ele>
        <time>2015-05-11T20:58:22.438Z</time>
      </trkpt>
      <trkpt lat="48.85688" lon="2.31512">
        <ele>83.4</ele>
        <time>2015-05-11T20:58:23.689Z</time>
      </trkpt>
      <trkpt lat="48.85681" lon="2.31512">
        <ele>83.7</ele>
        <time>2015-05-11T20:58:26.232Z</time>
      </trkpt>
      <trkpt lat="48.85678" lon="2.31513">
        <ele>83.7</ele>
        <time>2015-05-11T20:58:26.460Z</time>
      </trkpt>
      <trkpt lat="48.85671" lon="2.31514">
        <ele>84.2</ele>
        <time>2015-05-11T20:58:28.560Z</time>
      </trkpt>
      <trkpt lat="48.85667" lon="2.31515">
        <ele>84.4</ele>
        <time>2015-05-11T20:58:29.514Z</time>
      </trkpt>
      <trkpt lat="48.85659" lon="2.31516">
        <ele>84.6</ele>
        <time>2015-05-11T20:58:31.477Z</time>
      </trkpt>
      <trkpt lat="48.85654" lon="2.31516">
        <ele>84.9</ele>
        <time>2015-05-11T20:58:32.488Z</time>
      </trkpt>
      <trkpt lat="48.85646" lon="2.31517">
        <ele>85.4</ele>
        <time>2015-05-11T20:58:34.530Z</time>
      </trkpt>
      <trkpt lat="48.85641" lon="2.31516">
        <ele>85.4</ele>
        <time>2015-05-11T20:58:35.538Z</time>
      </trkpt>
      <trkpt lat="48.85633" lon="2.31516">
        <ele>85.6</ele>
        <time>2015-05-11T20:58:37.481Z</time>
      </trkpt>
      <trkpt lat="48.8563" lon="2.31517">
        <ele>85.6</ele>
        <time>2015-05-11T20:58:38.678Z</time>
      </trkpt>
      <trkpt lat="48.85623" lon="2.31517">
        <ele>85.5</ele>
        <time>2015-05-11T20:58:40.485Z</time>
      </trkpt>
      <trkpt lat="48.85619" lon="2.31518">
        <ele>85.6</ele>
        <time>2015-05-11T20:58:41.510Z</time>
      </trkpt>
      <trkpt lat="48.85614" lon="2.31524">
        <ele>85.6</ele>
        <time>2015-05-11T20:58:43.466Z</time>
      </trkpt>
      <trkpt lat="48.85612" lon="2.31529">
        <ele>85.6</ele>
        <time>2015-05-11T20:58:44.472Z</time>
      </trkpt>
      <trkpt lat="48.85608" lon="2.31539">
        <ele>85.8</ele>
        <time>2015-05-11T20:58:46.508Z</time>
      </trkpt>
      <trkpt lat="48.85607" lon="2.31545">
        <ele>85.4</ele>
        <time>2015-05-11T20:58:47.752Z</time>
      </trkpt>
      <trkpt lat="48.85604" lon="2.31558">
        <ele>85.1</ele>
        <time>2015-05-11T20:58:49.463Z</time>
      </trkpt>
      <trkpt lat="48.85603" lon="2.31564">
        <ele>85.2</ele>
        <time>2015-05-11T20:58:50.489Z</time>
      </trkpt>
      <trkpt lat="48.85603" lon="2.31571">
        <ele>85.3</ele>
        <time>2015-05-11T20:58:51.490Z</time>
      </trkpt>
      <trkpt lat="48.85602" lon="2.31579">
        <ele>85.1</ele>
        <time>2015-05-11T20:58:52.528Z</time>
      </trkpt>
      <trkpt lat="48.85601" lon="2.31592">
        <ele>85.2</ele>
        <time>2015-05-11T20:58:54.467Z</time>
      </trkpt>
      <trkpt lat="48.85599" lon="2.31598">
        <ele>85.2</ele>
        <time>2015-05-11T20:58:55.470Z</time>
      </trkpt>
      <trkpt lat="48.85598" lon="2.31605">
        <ele>85.1</ele>
        <time>2015-05-11T20:58:56.869Z</time>
      </trkpt>
      <trkpt lat="48.85597" lon="2.31612">
        <ele>84.9</ele>
        <time>2015-05-11T20:58:57.511Z</time>
      </trkpt>
      <trkpt lat="48.85595" lon="2.31619">
        <ele>84.9</ele>
        <time>2015-05-11T20:58:58.447Z</time>
      </trkpt>
      <trkpt lat="48.85594" lon="2.31627">
        <ele>84.8</ele>
        <time>2015-05-11T20:58:59.464Z</time>
      </trkpt>
      <trkpt lat="48.85593" lon="2.31636">
        <ele>84.8</ele>
        <time>2015-05-11T20:59:00.439Z</time>
      </trkpt>
      <trkpt lat="48.85591" lon="2.31645">
        <ele>84.7</ele>
        <time>2015-05-11T20:59:01.473Z</time>
      </trkpt>
      <trkpt lat="48.8559" lon="2.31652">
        <ele>84.9</ele>
        <time>2015-05-11T20:59:03.039Z</time>
      </trkpt>
      <trkpt lat="48.85588" lon="2.31658">
        <ele>84.8</ele>
        <time>2015-05-11T20:59:03.405Z</time>
      </trkpt>
      <trkpt lat="48.85586" lon="2.31665">
        <ele>84.8</ele>
        <time>2015-05-11T20:59:04.418Z</time>
      </trkpt>
      <trkpt lat="48.85583" lon="2.31672">
        <ele>84.9</ele>
        <time>2015-05-11T20:59:05.423Z</time>
      </trkpt>
      <trkpt lat="48.85582" lon="2.3168">
        <ele>84.9</ele>
        <time>2015-05-11T20:59:06.451Z</time>
      </trkpt>
      <trkpt lat="48.8558" lon="2.31688">
        <ele>85</ele>
        <time>2015-05-11T20:59:07.466Z</time>
      </trkpt>
      <trkpt lat="48.85579" lon="2.31696">
        <ele>84.7</ele>
        <time>2015-05-11T20:59:08.423Z</time>
      </trkpt>
      <trkpt lat="48.85577" lon="2.31703">
        <ele>84.5</ele>
        <time>2015-05-11T20:59:09.404Z</time>
      </trkpt>
      <trkpt lat="48.85575" lon="2.31709">
        <ele>84.2</ele>
        <time>2015-05-11T20:59:10.439Z</time>
      </trkpt>
      <trkpt lat="48.85573" lon="2.31715">
        <ele>84</ele>
        <time>2015-05-11T20:59:11.442Z</time>
      </trkpt>
      <trkpt lat="48.8557" lon="2.31722">
        <ele>83.7</ele>
        <time>2015-05-11T20:59:12.457Z</time>
      </trkpt>
      <trkpt lat="48.85568" lon="2.31729">
        <ele>83.5</ele>
        <time>2015-05-11T20:59:13.488Z</time>
      </trkpt>
      <trkpt lat="48.85565" lon="2.31736">
        <ele>83.2</ele>
        <time>2015-05-11T20:59:14.501Z</time>
      </trkpt>
      <trkpt lat="48.85563" lon="2.31742">
        <ele>83</ele>
        <time>2015-05-11T20:59:15.505Z</time>
      </trkpt>
      <trkpt lat="48.8556" lon="2.31748">
        <ele>82.6</ele>
        <time>2015-05-11T20:59:16.428Z</time>
      </trkpt>
      <trkpt lat="48.85557" lon="2.31754">
        <ele>82.6</ele>
        <time>2015-05-11T20:59:17.432Z</time>
      </trkpt>
      <trkpt lat="48.85555" lon="2.31761">
        <ele>82.6</ele>
        <time>2015-05-11T20:59:18.454Z</time>
      </trkpt>
      <trkpt lat="48.85553" lon="2.31768">
        <ele>82.6</ele>
        <time>2015-05-11T20:59:19.460Z</time>
      </trkpt>
      <trkpt lat="48.85551" lon="2.31775">
        <ele>82.5</ele>
        <time>2015-05-11T20:59:20.466Z</time>
      </trkpt>
      <trkpt lat="48.85549" lon="2.31783">
        <ele>82.4</ele>
        <time>2015-05-11T20:59:21.474Z</time>
      </trkpt>
      <trkpt lat="48.85547" lon="2.3179">
        <ele>82.6</ele>
        <time>2015-05-11T20:59:22.481Z</time>
      </trkpt>
      <trkpt lat="48.85544" lon="2.31796">
        <ele>82.4</ele>
        <time>2015-05-11T20:59:23.487Z</time>
      </trkpt>
      <trkpt lat="48.85542" lon="2.31802">
        <ele>82.2</ele>
        <time>2015-05-11T20:59:24.492Z</time>
      </trkpt>
      <trkpt lat="48.8554" lon="2.31808">
        <ele>81.8</ele>
        <time>2015-05-11T20:59:25.499Z</time>
      </trkpt>
      <trkpt lat="48.85538" lon="2.31815">
        <ele>81.8</ele>
        <time>2015-05-11T20:59:26.422Z</time>
      </trkpt>
      <trkpt lat="48.85537" lon="2.31823">
        <ele>81.8</ele>
        <time>2015-05-11T20:59:27.415Z</time>
      </trkpt>
      <trkpt lat="48.85534" lon="2.31829">
        <ele>81.9</ele>
        <time>2015-05-11T20:59:28.421Z</time>
      </trkpt>
      <trkpt lat="48.85532" lon="2.31835">
        <ele>82.2</ele>
        <time>2015-05-11T20:59:29.442Z</time>
      </trkpt>
      <trkpt lat="48.8553" lon="2.31842">
        <ele>82.4</ele>
        <time>2015-05-11T20:59:30.491Z</time>
      </trkpt>
      <trkpt lat="48.85529" lon="2.3185">
        <ele>82.7</ele>
        <time>2015-05-11T20:59:31.518Z</time>
      </trkpt>
      <trkpt lat="48.85527" lon="2.31858">
        <ele>82.8</ele>
        <time>2015-05-11T20:59:32.426Z</time>
      </trkpt>
      <trkpt lat="48.85526" lon="2.31867">
        <ele>82.6</ele>
        <time>2015-05-11T20:59:33.463Z</time>
      </trkpt>
      <trkpt lat="48.85524" lon="2.31876">
        <ele>82.3</ele>
        <time>2015-05-11T20:59:34.427Z</time>
      </trkpt>
      <trkpt lat="48.85523" lon="2.31883">
        <ele>82.1</ele>
        <time>2015-05-11T20:59:35.428Z</time>
      </trkpt>
      <trkpt lat="48.85522" lon="2.31891">
        <ele>82.2</ele>
        <time>2015-05-11T20:59:36.433Z</time>
      </trkpt>
      <trkpt lat="48.85522" lon="2.31898">
        <ele>82.1</ele>
        <time>2015-05-11T20:59:37.448Z</time>
      </trkpt>
      <trkpt lat="48.8552" lon="2.31906">
        <ele>82.2</ele>
        <time>2015-05-11T20:59:38.462Z</time>
      </trkpt>
      <trkpt lat="48.85517" lon="2.31913">
        <ele>82.3</ele>
        <time>2015-05-11T20:59:39.466Z</time>
      </trkpt>
      <trkpt lat="48.85515" lon="2.31921">
        <ele>82.4</ele>
        <time>2015-05-11T20:59:40.480Z</time>
      </trkpt>
      <trkpt lat="48.85512" lon="2.31928">
        <ele>82.8</ele>
        <time>2015-05-11T20:59:41.493Z</time>
      </trkpt>
      <trkpt lat="48.8551" lon="2.31936">
        <ele>83.1</ele>
        <time>2015-05-11T20:59:42.502Z</time>
      </trkpt>
      <trkpt lat="48.85507" lon="2.31943">
        <ele>83.2</ele>
        <time>2015-05-11T20:59:43.527Z</time>
      </trkpt>
      <trkpt lat="48.85505" lon="2.31951">
        <ele>83.3</ele>
        <time>2015-05-11T20:59:44.436Z</time>
      </trkpt>
      <trkpt lat="48.85503" lon="2.31958">
        <ele>83.4</ele>
        <time>2015-05-11T20:59:45.527Z</time>
      </trkpt>
      <trkpt lat="48.85501" lon="2.31965">
        <ele>83.6</ele>
        <time>2015-05-11T20:59:46.429Z</time>
      </trkpt>
      <trkpt lat="48.855" lon="2.31973">
        <ele>83.4</ele>
        <time>2015-05-11T20:59:47.433Z</time>
      </trkpt>
      <trkpt lat="48.855" lon="2.31982">
        <ele>83.1</ele>
        <time>2015-05-11T20:59:48.459Z</time>
      </trkpt>
      <trkpt lat="48.85499" lon="2.31989">
        <ele>82.8</ele>
        <time>2015-05-11T20:59:49.500Z</time>
      </trkpt>
      <trkpt lat="48.85497" lon="2.31997">
        <ele>82.3</ele>
        <time>2015-05-11T20:59:50.432Z</time>
      </trkpt>
      <trkpt lat="48.85496" lon="2.32005">
        <ele>82.2</ele>
        <time>2015-05-11T20:59:51.410Z</time>
      </trkpt>
      <trkpt lat="48.85495" lon="2.32012">
        <ele>82.1</ele>
        <time>2015-05-11T20:59:52.438Z</time>
      </trkpt>
      <trkpt lat="48.85493" lon="2.3202">
        <ele>81.9</ele>
        <time>2015-05-11T20:59:53.451Z</time>
      </trkpt>
      <trkpt lat="48.85492" lon="2.3203">
        <ele>81.6</ele>
        <time>2015-05-11T20:59:54.456Z</time>
      </trkpt>
      <trkpt lat="48.8549" lon="2.32038">
        <ele>81.5</ele>
        <time>2015-05-11T20:59:55.500Z</time>
      </trkpt>
      <trkpt lat="48.85487" lon="2.32046">
        <ele>81.4</ele>
        <time>2015-05-11T20:59:56.404Z</time>
      </trkpt>
      <trkpt lat="48.85485" lon="2.32054">
        <ele>81.5</ele>
        <time>2015-05-11T20:59:57.413Z</time>
      </trkpt>
      <trkpt lat="48.85483" lon="2.32063">
        <ele>81.5</ele>
        <time>2015-05-11T20:59:58.433Z</time>
      </trkpt>
      <trkpt lat="48.85481" lon="2.32072">
        <ele>81.8</ele>
        <time>2015-05-11T20:59:59.447Z</time>
      </trkpt>
      <trkpt lat="48.8548" lon="2.32082">
        <ele>81.8</ele>
        <time>2015-05-11T21:00:00.454Z</time>
      </trkpt>
      <trkpt lat="48.85478" lon="2.32091">
        <ele>81.9</ele>
        <time>2015-05-11T21:00:01.463Z</time>
      </trkpt>
      <trkpt lat="48.85477" lon="2.32099">
        <ele>82.2</ele>
        <time>2015-05-11T21:00:02.485Z</time>
      </trkpt>
      <trkpt lat="48.85474" lon="2.32107">
        <ele>82.3</ele>
        <time>2015-05-11T21:00:03.404Z</time>
      </trkpt>
      <trkpt lat="48.85472" lon="2.32116">
        <ele>82.4</ele>
        <time>2015-05-11T21:00:04.425Z</time>
      </trkpt>
      <trkpt lat="48.85469" lon="2.32124">
        <ele>82.5</ele>
        <time>2015-05-11T21:00:05.455Z</time>
      </trkpt>
      <trkpt lat="48.85467" lon="2.32133">
        <ele>82.8</ele>
        <time>2015-05-11T21:00:06.470Z</time>
      </trkpt>
      <trkpt lat="48.85465" lon="2.3214">
        <ele>83.1</ele>
        <time>2015-05-11T21:00:07.476Z</time>
      </trkpt>
      <trkpt lat="48.85462" lon="2.32148">
        <ele>83</ele>
        <time>2015-05-11T21:00:08.493Z</time>
      </trkpt>
      <trkpt lat="48.85458" lon="2.32157">
        <ele>83.2</ele>
        <time>2015-05-11T21:00:09.503Z</time>
      </trkpt>
      <trkpt lat="48.85456" lon="2.32167">
        <ele>83.4</ele>
        <time>2015-05-11T21:00:10.512Z</time>
      </trkpt>
      <trkpt lat="48.85453" lon="2.32177">
        <ele>83.7</ele>
        <time>2015-05-11T21:00:11.516Z</time>
      </trkpt>
      <trkpt lat="48.8545" lon="2.32186">
        <ele>83.8</ele>
        <time>2015-05-11T21:00:12.530Z</time>
      </trkpt>
      <trkpt lat="48.85448" lon="2.32195">
        <ele>83.6</ele>
        <time>2015-05-11T21:00:13.436Z</time>
      </trkpt>
      <trkpt lat="48.85445" lon="2.32205">
        <ele>84.5</ele>
        <time>2015-05-11T21:00:14.446Z</time>
      </trkpt>
      <trkpt lat="48.85443" lon="2.32213">
        <ele>84.6</ele>
        <time>2015-05-11T21:00:15.471Z</time>
      </trkpt>
      <trkpt lat="48.8544" lon="2.32221">
        <ele>83.6</ele>
        <time>2015-05-11T21:00:16.465Z</time>
      </trkpt>
      <trkpt lat="48.85438" lon="2.3223">
        <ele>83.8</ele>
        <time>2015-05-11T21:00:17.476Z</time>
      </trkpt>
      <trkpt lat="48.85435" lon="2.32239">
        <ele>83.7</ele>
        <time>2015-05-11T21:00:18.490Z</time>
      </trkpt>
      <trkpt lat="48.85433" lon="2.3225">
        <ele>84</ele>
        <time>2015-05-11T21:00:19.498Z</time>
      </trkpt>
      <trkpt lat="48.85432" lon="2.32258">
        <ele>83.8</ele>
        <time>2015-05-11T21:00:20.510Z</time>
      </trkpt>
      <trkpt lat="48.8543" lon="2.32267">
        <ele>83.8</ele>
        <time>2015-05-11T21:00:21.425Z</time>
      </trkpt>
      <trkpt lat="48.85428" lon="2.32276">
        <ele>83.7</ele>
        <time>2015-05-11T21:00:22.428Z</time>
      </trkpt>
      <trkpt lat="48.85426" lon="2.32284">
        <ele>83.7</ele>
        <time>2015-05-11T21:00:23.464Z</time>
      </trkpt>
      <trkpt lat="48.85425" lon="2.32294">
        <ele>84</ele>
        <time>2015-05-11T21:00:24.474Z</time>
      </trkpt>
      <trkpt lat="48.85423" lon="2.32303">
        <ele>84.1</ele>
        <time>2015-05-11T21:00:25.496Z</time>
      </trkpt>
      <trkpt lat="48.8542" lon="2.32311">
        <ele>84.2</ele>
        <time>2015-05-11T21:00:26.507Z</time>
      </trkpt>
      <trkpt lat="48.85417" lon="2.32319">
        <ele>84.4</ele>
        <time>2015-05-11T21:00:27.442Z</time>
      </trkpt>
      <trkpt lat="48.85415" lon="2.32328">
        <ele>84.6</ele>
        <time>2015-05-11T21:00:28.462Z</time>
      </trkpt>
      <trkpt lat="48.85412" lon="2.32335">
        <ele>84.6</ele>
        <time>2015-05-11T21:00:29.465Z</time>
      </trkpt>
      <trkpt lat="48.8541" lon="2.32343">
        <ele>84.6</ele>
        <time>2015-05-11T21:00:30.494Z</time>
      </trkpt>
      <trkpt lat="48.85409" lon="2.32349">
        <ele>84.5</ele>
        <time>2015-05-11T21:00:31.502Z</time>
      </trkpt>
      <trkpt lat="48.85406" lon="2.32362">
        <ele>84.6</ele>
        <time>2015-05-11T21:00:34.458Z</time>
      </trkpt>
      <trkpt lat="48.85406" lon="2.32367">
        <ele>84.9</ele>
        <time>2015-05-11T21:00:35.522Z</time>
      </trkpt>
      <trkpt lat="48.85402" lon="2.32379">
        <ele>85.4</ele>
        <time>2015-05-11T21:00:39.447Z</time>
      </trkpt>
      <trkpt lat="48.85402" lon="2.3238">
        <ele>85.5</ele>
        <time>2015-05-11T21:00:40.490Z</time>
      </trkpt>
      <trkpt lat="48.85399" lon="2.32393">
        <ele>83.9</ele>
        <time>2015-05-11T21:00:44.462Z</time>
      </trkpt>
      <trkpt lat="48.85399" lon="2.32396">
        <ele>83.6</ele>
        <time>2015-05-11T21:00:45.470Z</time>
      </trkpt>
      <trkpt lat="48.85397" lon="2.32407">
        <ele>83</ele>
        <time>2015-05-11T21:00:47.451Z</time>
      </trkpt>
      <trkpt lat="48.85397" lon="2.32413">
        <ele>83</ele>
        <time>2015-05-11T21:00:48.471Z</time>
      </trkpt>
      <trkpt lat="48.85393" lon="2.32424">
        <ele>82.8</ele>
        <time>2015-05-11T21:00:50.492Z</time>
      </trkpt>
      <trkpt lat="48.85391" lon="2.3243">
        <ele>82.8</ele>
        <time>2015-05-11T21:00:51.523Z</time>
      </trkpt>
      <trkpt lat="48.8539" lon="2.32437">
        <ele>83</ele>
        <time>2015-05-11T21:00:52.440Z</time>
      </trkpt>
      <trkpt lat="48.85389" lon="2.32445">
        <ele>83.3</ele>
        <time>2015-05-11T21:00:53.441Z</time>
      </trkpt>
      <trkpt lat="48.85387" lon="2.32453">
        <ele>83.4</ele>
        <time>2015-05-11T21:00:54.437Z</time>
      </trkpt>
      <trkpt lat="48.85385" lon="2.3246">
        <ele>83.5</ele>
        <time>2015-05-11T21:00:55.453Z</time>
      </trkpt>
      <trkpt lat="48.85383" lon="2.32469">
        <ele>83.6</ele>
        <time>2015-05-11T21:00:56.470Z</time>
      </trkpt>
      <trkpt lat="48.85382" lon="2.32479">
        <ele>83.9</ele>
        <time>2015-05-11T21:00:57.483Z</time>
      </trkpt>
      <trkpt lat="48.85381" lon="2.32488">
        <ele>84</ele>
        <time>2015-05-11T21:00:58.487Z</time>
      </trkpt>
      <trkpt lat="48.85379" lon="2.32493">
        <ele>83.9</ele>
        <time>2015-05-11T21:00:59.509Z</time>
      </trkpt>
      <trkpt lat="48.85378" lon="2.32501">
        <ele>84.2</ele>
        <time>2015-05-11T21:01:00.506Z</time>
      </trkpt>
      <trkpt lat="48.85376" lon="2.3251">
        <ele>84.4</ele>
        <time>2015-05-11T21:01:01.518Z</time>
      </trkpt>
      <trkpt lat="48.85375" lon="2.32517">
        <ele>84.6</ele>
        <time>2015-05-11T21:01:02.423Z</time>
      </trkpt>
      <trkpt lat="48.85374" lon="2.32528">
        <ele>83.8</ele>
        <time>2015-05-11T21:01:03.440Z</time>
      </trkpt>
      <trkpt lat="48.85372" lon="2.32536">
        <ele>83.6</ele>
        <time>2015-05-11T21:01:04.457Z</time>
      </trkpt>
      <trkpt lat="48.85369" lon="2.32545">
        <ele>83.6</ele>
        <time>2015-05-11T21:01:05.469Z</time>
      </trkpt>
      <trkpt lat="48.85366" lon="2.32553">
        <ele>83.7</ele>
        <time>2015-05-11T21:01:06.478Z</time>
      </trkpt>
      <trkpt lat="48.85364" lon="2.32561">
        <ele>83.7</ele>
        <time>2015-05-11T21:01:07.486Z</time>
      </trkpt>
      <trkpt lat="48.85362" lon="2.32569">
        <ele>83.6</ele>
        <time>2015-05-11T21:01:08.479Z</time>
      </trkpt>
      <trkpt lat="48.8536" lon="2.32576">
        <ele>83.6</ele>
        <time>2015-05-11T21:01:09.450Z</time>
      </trkpt>
      <trkpt lat="48.8536" lon="2.32583">
        <ele>83.6</ele>
        <time>2015-05-11T21:01:10.432Z</time>
      </trkpt>
      <trkpt lat="48.85358" lon="2.32589">
        <ele>83.4</ele>
        <time>2015-05-11T21:01:11.424Z</time>
      </trkpt>
      <trkpt lat="48.85356" lon="2.326">
        <ele>83</ele>
        <time>2015-05-11T21:01:13.445Z</time>
      </trkpt>
      <trkpt lat="48.85354" lon="2.32604">
        <ele>83.1</ele>
        <time>2015-05-11T21:01:14.601Z</time>
      </trkpt>
      <trkpt lat="48.85351" lon="2.32613">
        <ele>82.7</ele>
        <time>2015-05-11T21:01:45.517Z</time>
      </trkpt>
      <trkpt lat="48.85353" lon="2.32619">
        <ele>86.4</ele>
        <time>2015-05-11T21:01:46.427Z</time>
      </trkpt>
      <trkpt lat="48.85349" lon="2.32629">
        <ele>87.3</ele>
        <time>2015-05-11T21:01:49.478Z</time>
      </trkpt>
      <trkpt lat="48.85347" lon="2.32632">
        <ele>87.2</ele>
        <time>2015-05-11T21:01:50.445Z</time>
      </trkpt>
      <trkpt lat="48.85343" lon="2.3264">
        <ele>87.5</ele>
        <time>2015-05-11T21:01:52.481Z</time>
      </trkpt>
      <trkpt lat="48.8534" lon="2.32643">
        <ele>87.1</ele>
        <time>2015-05-11T21:01:53.492Z</time>
      </trkpt>
      <trkpt lat="48.85336" lon="2.32649">
        <ele>86.8</ele>
        <time>2015-05-11T21:01:55.439Z</time>
      </trkpt>
      <trkpt lat="48.85334" lon="2.32654">
        <ele>86.4</ele>
        <time>2015-05-11T21:01:56.446Z</time>
      </trkpt>
      <trkpt lat="48.85333" lon="2.32664">
        <ele>86</ele>
        <time>2015-05-11T21:01:58.465Z</time>
      </trkpt>
      <trkpt lat="48.85332" lon="2.32669">
        <ele>85.9</ele>
        <time>2015-05-11T21:01:59.570Z</time>
      </trkpt>
      <trkpt lat="48.85333" lon="2.32679">
        <ele>85.9</ele>
        <time>2015-05-11T21:02:01.451Z</time>
      </trkpt>
      <trkpt lat="48.85332" lon="2.32684">
        <ele>86.1</ele>
        <time>2015-05-11T21:02:02.715Z</time>
      </trkpt>
      <trkpt lat="48.85329" lon="2.32695">
        <ele>86</ele>
        <time>2015-05-11T21:02:04.459Z</time>
      </trkpt>
      <trkpt lat="48.85329" lon="2.32701">
        <ele>85.6</ele>
        <time>2015-05-11T21:02:05.486Z</time>
      </trkpt>
      <trkpt lat="48.85326" lon="2.32711">
        <ele>85.1</ele>
        <time>2015-05-11T21:02:07.481Z</time>
      </trkpt>
      <trkpt lat="48.85325" lon="2.32715">
        <ele>84.8</ele>
        <time>2015-05-11T21:02:08.487Z</time>
      </trkpt>
      <trkpt lat="48.85332" lon="2.32721">
        <ele>84.9</ele>
        <time>2015-05-11T21:02:11.464Z</time>
      </trkpt>
      <trkpt lat="48.85336" lon="2.32722">
        <ele>85.2</ele>
        <time>2015-05-11T21:02:12.518Z</time>
      </trkpt>
      <trkpt lat="48.85342" lon="2.32724">
        <ele>85.6</ele>
        <time>2015-05-11T21:02:14.436Z</time>
      </trkpt>
      <trkpt lat="48.85345" lon="2.32726">
        <ele>85.8</ele>
        <time>2015-05-11T21:02:15.453Z</time>
      </trkpt>
      <trkpt lat="48.85354" lon="2.32727">
        <ele>86.3</ele>
        <time>2015-05-11T21:02:17.410Z</time>
      </trkpt>
      <trkpt lat="48.85358" lon="2.32728">
        <ele>86.4</ele>
        <time>2015-05-11T21:02:18.440Z</time>
      </trkpt>
      <trkpt lat="48.85366" lon="2.32732">
        <ele>86.6</ele>
        <time>2015-05-11T21:02:20.496Z</time>
      </trkpt>
      <trkpt lat="48.85369" lon="2.32734">
        <ele>86.6</ele>
        <time>2015-05-11T21:02:21.438Z</time>
      </trkpt>
      <trkpt lat="48.85376" lon="2.32737">
        <ele>86.5</ele>
        <time>2015-05-11T21:02:23.446Z</time>
      </trkpt>
      <trkpt lat="48.85378" lon="2.32741">
        <ele>86.5</ele>
        <time>2015-05-11T21:02:24.468Z</time>
      </trkpt>
      <trkpt lat="48.85376" lon="2.32749">
        <ele>85.6</ele>
        <time>2015-05-11T21:02:26.583Z</time>
      </trkpt>
      <trkpt lat="48.85375" lon="2.32755">
        <ele>85.3</ele>
        <time>2015-05-11T21:02:27.412Z</time>
      </trkpt>
      <trkpt lat="48.85372" lon="2.32767">
        <ele>85.4</ele>
        <time>2015-05-11T21:02:29.471Z</time>
      </trkpt>
      <trkpt lat="48.85371" lon="2.32771">
        <ele>85.4</ele>
        <time>2015-05-11T21:02:30.516Z</time>
      </trkpt>
      <trkpt lat="48.85365" lon="2.32779">
        <ele>85.6</ele>
        <time>2015-05-11T21:02:32.470Z</time>
      </trkpt>
      <trkpt lat="48.85362" lon="2.32784">
        <ele>85.6</ele>
        <time>2015-05-11T21:02:33.494Z</time>
      </trkpt>
      <trkpt lat="48.8536" lon="2.3279">
        <ele>85.8</ele>
        <time>2015-05-11T21:02:34.533Z</time>
      </trkpt>
      <trkpt lat="48.85357" lon="2.32796">
        <ele>86.2</ele>
        <time>2015-05-11T21:02:35.550Z</time>
      </trkpt>
      <trkpt lat="48.85354" lon="2.32808">
        <ele>86.6</ele>
        <time>2015-05-11T21:02:37.572Z</time>
      </trkpt>
      <trkpt lat="48.85352" lon="2.32815">
        <ele>86.5</ele>
        <time>2015-05-11T21:02:38.469Z</time>
      </trkpt>
      <trkpt lat="48.85348" lon="2.32826">
        <ele>86.4</ele>
        <time>2015-05-11T21:02:40.462Z</time>
      </trkpt>
      <trkpt lat="48.85346" lon="2.3283">
        <ele>86</ele>
        <time>2015-05-11T21:02:41.474Z</time>
      </trkpt>
      <trkpt lat="48.85341" lon="2.32837">
        <ele>85.7</ele>
        <time>2015-05-11T21:02:43.512Z</time>
      </trkpt>
      <trkpt lat="48.85339" lon="2.32842">
        <ele>85.7</ele>
        <time>2015-05-11T21:02:44.415Z</time>
      </trkpt>
      <trkpt lat="48.85334" lon="2.32852">
        <ele>85.8</ele>
        <time>2015-05-11T21:02:46.467Z</time>
      </trkpt>
      <trkpt lat="48.85331" lon="2.32857">
        <ele>85.8</ele>
        <time>2015-05-11T21:02:47.584Z</time>
      </trkpt>
      <trkpt lat="48.85325" lon="2.32866">
        <ele>85.8</ele>
        <time>2015-05-11T21:02:49.519Z</time>
      </trkpt>
      <trkpt lat="48.85321" lon="2.3287">
        <ele>85.6</ele>
        <time>2015-05-11T21:02:50.478Z</time>
      </trkpt>
      <trkpt lat="48.85314" lon="2.32878">
        <ele>84.9</ele>
        <time>2015-05-11T21:02:52.748Z</time>
      </trkpt>
      <trkpt lat="48.8531" lon="2.32882">
        <ele>84.9</ele>
        <time>2015-05-11T21:02:53.520Z</time>
      </trkpt>
      <trkpt lat="48.85306" lon="2.32887">
        <ele>85</ele>
        <time>2015-05-11T21:02:54.555Z</time>
      </trkpt>
      <trkpt lat="48.85303" lon="2.32892">
        <ele>85.2</ele>
        <time>2015-05-11T21:02:55.451Z</time>
      </trkpt>
      <trkpt lat="48.853" lon="2.32899">
        <ele>85.1</ele>
        <time>2015-05-11T21:02:56.470Z</time>
      </trkpt>
      <trkpt lat="48.85297" lon="2.32905">
        <ele>85.2</ele>
        <time>2015-05-11T21:02:57.471Z</time>
      </trkpt>
      <trkpt lat="48.85293" lon="2.32911">
        <ele>85.2</ele>
        <time>2015-05-11T21:02:58.501Z</time>
      </trkpt>
      <trkpt lat="48.85289" lon="2.32916">
        <ele>85.3</ele>
        <time>2015-05-11T21:02:59.503Z</time>
      </trkpt>
      <trkpt lat="48.85283" lon="2.32925">
        <ele>85.1</ele>
        <time>2015-05-11T21:03:01.445Z</time>
      </trkpt>
      <trkpt lat="48.8528" lon="2.32931">
        <ele>85.5</ele>
        <time>2015-05-11T21:03:02.452Z</time>
      </trkpt>
      <trkpt lat="48.85278" lon="2.32938">
        <ele>85.7</ele>
        <time>2015-05-11T21:03:03.465Z</time>
      </trkpt>
      <trkpt lat="48.85276" lon="2.32943">
        <ele>85.9</ele>
        <time>2015-05-11T21:03:04.473Z</time>
      </trkpt>
      <trkpt lat="48.85273" lon="2.32948">
        <ele>86.4</ele>
        <time>2015-05-11T21:03:05.479Z</time>
      </trkpt>
      <trkpt lat="48.85269" lon="2.32953">
        <ele>86.9</ele>
        <time>2015-05-11T21:03:06.495Z</time>
      </trkpt>
      <trkpt lat="48.85263" lon="2.3296">
        <ele>87.4</ele>
        <time>2015-05-11T21:03:08.420Z</time>
      </trkpt>
      <trkpt lat="48.85261" lon="2.32964">
        <ele>87.7</ele>
        <time>2015-05-11T21:03:09.456Z</time>
      </trkpt>
      <trkpt lat="48.85258" lon="2.32968">
        <ele>87.9</ele>
        <time>2015-05-11T21:03:10.489Z</time>
      </trkpt>
      <trkpt lat="48.85254" lon="2.32972">
        <ele>88</ele>
        <time>2015-05-11T21:03:11.495Z</time>
      </trkpt>
      <trkpt lat="48.85246" lon="2.32979">
        <ele>88.3</ele>
        <time>2015-05-11T21:03:13.441Z</time>
      </trkpt>
      <trkpt lat="48.85243" lon="2.32984">
        <ele>88.5</ele>
        <time>2015-05-11T21:03:14.446Z</time>
      </trkpt>
      <trkpt lat="48.85239" lon="2.32988">
        <ele>88.3</ele>
        <time>2015-05-11T21:03:15.487Z</time>
      </trkpt>
      <trkpt lat="48.85235" lon="2.32993">
        <ele>88.6</ele>
        <time>2015-05-11T21:03:16.493Z</time>
      </trkpt>
      <trkpt lat="48.85231" lon="2.32996">
        <ele>89</ele>
        <time>2015-05-11T21:03:17.516Z</time>
      </trkpt>
      <trkpt lat="48.85225" lon="2.32999">
        <ele>88.2</ele>
        <time>2015-05-11T21:03:18.476Z</time>
      </trkpt>
      <trkpt lat="48.85218" lon="2.33003">
        <ele>87.6</ele>
        <time>2015-05-11T21:03:20.433Z</time>
      </trkpt>
      <trkpt lat="48.85216" lon="2.33007">
        <ele>87.7</ele>
        <time>2015-05-11T21:03:21.438Z</time>
      </trkpt>
      <trkpt lat="48.85218" lon="2.33016">
        <ele>86.6</ele>
        <time>2015-05-11T21:03:23.499Z</time>
      </trkpt>
      <trkpt lat="48.85218" lon="2.33021">
        <ele>86.4</ele>
        <time>2015-05-11T21:03:24.523Z</time>
      </trkpt>
      <trkpt lat="48.85219" lon="2.33034">
        <ele>84.7</ele>
        <time>2015-05-11T21:03:26.408Z</time>
      </trkpt>
      <trkpt lat="48.8522" lon="2.33042">
        <ele>84.2</ele>
        <time>2015-05-11T21:03:27.474Z</time>
      </trkpt>
      <trkpt lat="48.8522" lon="2.33055">
        <ele>83.6</ele>
        <time>2015-05-11T21:03:29.440Z</time>
      </trkpt>
      <trkpt lat="48.85221" lon="2.33063">
        <ele>82.9</ele>
        <time>2015-05-11T21:03:30.449Z</time>
      </trkpt>
      <trkpt lat="48.85222" lon="2.3307">
        <ele>82.7</ele>
        <time>2015-05-11T21:03:31.470Z</time>
      </trkpt>
      <trkpt lat="48.85223" lon="2.33076">
        <ele>82.6</ele>
        <time>2015-05-11T21:03:32.490Z</time>
      </trkpt>
      <trkpt lat="48.85225" lon="2.33083">
        <ele>82.1</ele>
        <time>2015-05-11T21:03:33.431Z</time>
      </trkpt>
      <trkpt lat="48.85227" lon="2.3309">
        <ele>81.6</ele>
        <time>2015-05-11T21:03:34.436Z</time>
      </trkpt>
      <trkpt lat="48.85229" lon="2.33096">
        <ele>81.5</ele>
        <time>2015-05-11T21:03:35.462Z</time>
      </trkpt>
      <trkpt lat="48.85232" lon="2.33103">
        <ele>81</ele>
        <time>2015-05-11T21:03:36.461Z</time>
      </trkpt>
      <trkpt lat="48.85234" lon="2.33109">
        <ele>80.7</ele>
        <time>2015-05-11T21:03:37.491Z</time>
      </trkpt>
      <trkpt lat="48.85236" lon="2.33117">
        <ele>80.2</ele>
        <time>2015-05-11T21:03:38.511Z</time>
      </trkpt>
      <trkpt lat="48.85238" lon="2.33125">
        <ele>80</ele>
        <time>2015-05-11T21:03:39.413Z</time>
      </trkpt>
      <trkpt lat="48.8524" lon="2.33133">
        <ele>79.8</ele>
        <time>2015-05-11T21:03:40.444Z</time>
      </trkpt>
      <trkpt lat="48.85243" lon="2.33142">
        <ele>79.6</ele>
        <time>2015-05-11T21:03:41.456Z</time>
      </trkpt>
      <trkpt lat="48.85244" lon="2.33149">
        <ele>79.7</ele>
        <time>2015-05-11T21:03:42.486Z</time>
      </trkpt>
      <trkpt lat="48.85247" lon="2.33157">
        <ele>79</ele>
        <time>2015-05-11T21:03:43.492Z</time>
      </trkpt>
      <trkpt lat="48.85248" lon="2.33165">
        <ele>79.1</ele>
        <time>2015-05-11T21:03:44.507Z</time>
      </trkpt>
      <trkpt lat="48.85249" lon="2.33173">
        <ele>79.6</ele>
        <time>2015-05-11T21:03:45.547Z</time>
      </trkpt>
      <trkpt lat="48.85249" lon="2.33181">
        <ele>79.7</ele>
        <time>2015-05-11T21:03:46.449Z</time>
      </trkpt>
      <trkpt lat="48.85248" lon="2.33188">
        <ele>80.1</ele>
        <time>2015-05-11T21:03:47.455Z</time>
      </trkpt>
      <trkpt lat="48.85249" lon="2.33195">
        <ele>80.4</ele>
        <time>2015-05-11T21:03:48.472Z</time>
      </trkpt>
      <trkpt lat="48.85251" lon="2.33206">
        <ele>81.4</ele>
        <time>2015-05-11T21:03:50.574Z</time>
      </trkpt>
      <trkpt lat="48.85252" lon="2.33214">
        <ele>81.9</ele>
        <time>2015-05-11T21:03:51.420Z</time>
      </trkpt>
      <trkpt lat="48.85256" lon="2.33226">
        <ele>82.6</ele>
        <time>2015-05-11T21:03:53.468Z</time>
      </trkpt>
      <trkpt lat="48.85258" lon="2.33233">
        <ele>83.2</ele>
        <time>2015-05-11T21:03:54.503Z</time>
      </trkpt>
      <trkpt lat="48.85259" lon="2.33239">
        <ele>83.5</ele>
        <time>2015-05-11T21:03:55.522Z</time>
      </trkpt>
      <trkpt lat="48.85263" lon="2.33246">
        <ele>83.6</ele>
        <time>2015-05-11T21:03:56.445Z</time>
      </trkpt>
      <trkpt lat="48.85264" lon="2.33253">
        <ele>83.6</ele>
        <time>2015-05-11T21:03:57.469Z</time>
      </trkpt>
      <trkpt lat="48.85267" lon="2.33261">
        <ele>83.6</ele>
        <time>2015-05-11T21:03:58.465Z</time>
      </trkpt>
      <trkpt lat="48.85268" lon="2.33269">
        <ele>83.7</ele>
        <time>2015-05-11T21:03:59.484Z</time>
      </trkpt>
      <trkpt lat="48.8527" lon="2.33277">
        <ele>83.6</ele>
        <time>2015-05-11T21:04:00.524Z</time>
      </trkpt>
      <trkpt lat="48.85271" lon="2.33285">
        <ele>83.3</ele>
        <time>2015-05-11T21:04:01.430Z</time>
      </trkpt>
      <trkpt lat="48.85272" lon="2.33292">
        <ele>83.1</ele>
        <time>2015-05-11T21:04:02.444Z</time>
      </trkpt>
      <trkpt lat="48.85272" lon="2.333">
        <ele>83.1</ele>
        <time>2015-05-11T21:04:03.464Z</time>
      </trkpt>
      <trkpt lat="48.85273" lon="2.33309">
        <ele>83</ele>
        <time>2015-05-11T21:04:04.469Z</time>
      </trkpt>
      <trkpt lat="48.85272" lon="2.33317">
        <ele>82.9</ele>
        <time>2015-05-11T21:04:05.491Z</time>
      </trkpt>
      <trkpt lat="48.8527" lon="2.33325">
        <ele>82.5</ele>
        <time>2015-05-11T21:04:06.511Z</time>
      </trkpt>
      <trkpt lat="48.85269" lon="2.33333">
        <ele>82.3</ele>
        <time>2015-05-11T21:04:07.524Z</time>
      </trkpt>
      <trkpt lat="48.85269" lon="2.3334">
        <ele>82.4</ele>
        <time>2015-05-11T21:04:08.536Z</time>
      </trkpt>
      <trkpt lat="48.85271" lon="2.33348">
        <ele>82.5</ele>
        <time>2015-05-11T21:04:09.448Z</time>
      </trkpt>
      <trkpt lat="48.85271" lon="2.33357">
        <ele>82.7</ele>
        <time>2015-05-11T21:04:10.452Z</time>
      </trkpt>
      <trkpt lat="48.85272" lon="2.33366">
        <ele>82.9</ele>
        <time>2015-05-11T21:04:11.462Z</time>
      </trkpt>
      <trkpt lat="48.85273" lon="2.33374">
        <ele>83.1</ele>
        <time>2015-05-11T21:04:12.489Z</time>
      </trkpt>
      <trkpt lat="48.85274" lon="2.33383">
        <ele>83.1</ele>
        <time>2015-05-11T21:04:13.502Z</time>
      </trkpt>
      <trkpt lat="48.85275" lon="2.33391">
        <ele>83.1</ele>
        <time>2015-05-11T21:04:14.522Z</time>
      </trkpt>
      <trkpt lat="48.85277" lon="2.33397">
        <ele>83.2</ele>
        <time>2015-05-11T21:04:15.442Z</time>
      </trkpt>
      <trkpt lat="48.85279" lon="2.33403">
        <ele>83.1</ele>
        <time>2015-05-11T21:04:16.453Z</time>
      </trkpt>
      <trkpt lat="48.85281" lon="2.33416">
        <ele>82.5</ele>
        <time>2015-05-11T21:04:18.468Z</time>
      </trkpt>
      <trkpt lat="48.85281" lon="2.33423">
        <ele>82.2</ele>
        <time>2015-05-11T21:04:19.513Z</time>
      </trkpt>
      <trkpt lat="48.85282" lon="2.33435">
        <ele>81.9</ele>
        <time>2015-05-11T21:04:21.465Z</time>
      </trkpt>
      <trkpt lat="48.85284" lon="2.33441">
        <ele>82.3</ele>
        <time>2015-05-11T21:04:22.480Z</time>
      </trkpt>
      <trkpt lat="48.85285" lon="2.33449">
        <ele>82.1</ele>
        <time>2015-05-11T21:04:23.432Z</time>
      </trkpt>
      <trkpt lat="48.85287" lon="2.33456">
        <ele>82</ele>
        <time>2015-05-11T21:04:24.446Z</time>
      </trkpt>
      <trkpt lat="48.85288" lon="2.33463">
        <ele>81.9</ele>
        <time>2015-05-11T21:04:25.490Z</time>
      </trkpt>
      <trkpt lat="48.8529" lon="2.33472">
        <ele>81.8</ele>
        <time>2015-05-11T21:04:26.511Z</time>
      </trkpt>
      <trkpt lat="48.85292" lon="2.3348">
        <ele>81.6</ele>
        <time>2015-05-11T21:04:27.424Z</time>
      </trkpt>
      <trkpt lat="48.85293" lon="2.33489">
        <ele>81.5</ele>
        <time>2015-05-11T21:04:28.535Z</time>
      </trkpt>
      <trkpt lat="48.85295" lon="2.33497">
        <ele>81.4</ele>
        <time>2015-05-11T21:04:29.546Z</time>
      </trkpt>
      <trkpt lat="48.85298" lon="2.33504">
        <ele>81.5</ele>
        <time>2015-05-11T21:04:30.575Z</time>
      </trkpt>
      <trkpt lat="48.85301" lon="2.33512">
        <ele>81.5</ele>
        <time>2015-05-11T21:04:31.485Z</time>
      </trkpt>
      <trkpt lat="48.85303" lon="2.33519">
        <ele>81.4</ele>
        <time>2015-05-11T21:04:32.498Z</time>
      </trkpt>
      <trkpt lat="48.85304" lon="2.33526">
        <ele>81.4</ele>
        <time>2015-05-11T21:04:33.536Z</time>
      </trkpt>
      <trkpt lat="48.85306" lon="2.33532">
        <ele>81.3</ele>
        <time>2015-05-11T21:04:34.450Z</time>
      </trkpt>
      <trkpt lat="48.85308" lon="2.33539">
        <ele>81.2</ele>
        <time>2015-05-11T21:04:35.417Z</time>
      </trkpt>
      <trkpt lat="48.85311" lon="2.33546">
        <ele>81.3</ele>
        <time>2015-05-11T21:04:36.463Z</time>
      </trkpt>
      <trkpt lat="48.85315" lon="2.33553">
        <ele>81.7</ele>
        <time>2015-05-11T21:04:37.478Z</time>
      </trkpt>
      <trkpt lat="48.85318" lon="2.33561">
        <ele>81.9</ele>
        <time>2015-05-11T21:04:38.490Z</time>
      </trkpt>
      <trkpt lat="48.8532" lon="2.33568">
        <ele>82.2</ele>
        <time>2015-05-11T21:04:39.438Z</time>
      </trkpt>
      <trkpt lat="48.85322" lon="2.33575">
        <ele>82.8</ele>
        <time>2015-05-11T21:04:40.434Z</time>
      </trkpt>
      <trkpt lat="48.85323" lon="2.33583">
        <ele>83.4</ele>
        <time>2015-05-11T21:04:41.471Z</time>
      </trkpt>
      <trkpt lat="48.85323" lon="2.33591">
        <ele>83.9</ele>
        <time>2015-05-11T21:04:42.494Z</time>
      </trkpt>
      <trkpt lat="48.85323" lon="2.33598">
        <ele>84.1</ele>
        <time>2015-05-11T21:04:43.527Z</time>
      </trkpt>
      <trkpt lat="48.85321" lon="2.33605">
        <ele>84.3</ele>
        <time>2015-05-11T21:04:44.446Z</time>
      </trkpt>
      <trkpt lat="48.8532" lon="2.33617">
        <ele>85.2</ele>
        <time>2015-05-11T21:04:46.422Z</time>
      </trkpt>
      <trkpt lat="48.85318" lon="2.33622">
        <ele>85.4</ele>
        <time>2015-05-11T21:04:47.480Z</time>
      </trkpt>
      <trkpt lat="48.85316" lon="2.33633">
        <ele>85.9</ele>
        <time>2015-05-11T21:04:49.518Z</time>
      </trkpt>
      <trkpt lat="48.85317" lon="2.33638">
        <ele>86.2</ele>
        <time>2015-05-11T21:04:50.469Z</time>
      </trkpt>
      <trkpt lat="48.85322" lon="2.3363">
        <ele>82.7</ele>
        <time>2015-05-11T21:04:58.423Z</time>
      </trkpt>
      <trkpt lat="48.85321" lon="2.33624">
        <ele>82</ele>
        <time>2015-05-11T21:04:59.454Z</time>
      </trkpt>
      <trkpt lat="48.85322" lon="2.33612">
        <ele>80.9</ele>
        <time>2015-05-11T21:05:01.493Z</time>
      </trkpt>
      <trkpt lat="48.85322" lon="2.33608">
        <ele>80.6</ele>
        <time>2015-05-11T21:05:02.498Z</time>
      </trkpt>
      <trkpt lat="48.85329" lon="2.33603">
        <ele>82.6</ele>
        <time>2015-05-11T21:05:08.483Z</time>
      </trkpt>
      <trkpt lat="48.85332" lon="2.33607">
        <ele>82.7</ele>
        <time>2015-05-11T21:05:09.466Z</time>
      </trkpt>
      <trkpt lat="48.85337" lon="2.33612">
        <ele>82.5</ele>
        <time>2015-05-11T21:05:11.459Z</time>
      </trkpt>
      <trkpt lat="48.85339" lon="2.33615">
        <ele>82.4</ele>
        <time>2015-05-11T21:05:12.469Z</time>
      </trkpt>
      <trkpt lat="48.85345" lon="2.33624">
        <ele>81.8</ele>
        <time>2015-05-11T21:05:14.495Z</time>
      </trkpt>
      <trkpt lat="48.85347" lon="2.33629">
        <ele>81.8</ele>
        <time>2015-05-11T21:05:15.509Z</time>
      </trkpt>
      <trkpt lat="48.85349" lon="2.33635">
        <ele>81.6</ele>
        <time>2015-05-11T21:05:16.409Z</time>
      </trkpt>
      <trkpt lat="48.85352" lon="2.33642">
        <ele>81.2</ele>
        <time>2015-05-11T21:05:17.578Z</time>
      </trkpt>
      <trkpt lat="48.85356" lon="2.33652">
        <ele>79.9</ele>
        <time>2015-05-11T21:05:18.430Z</time>
      </trkpt>
      <trkpt lat="48.8536" lon="2.3366">
        <ele>79.2</ele>
        <time>2015-05-11T21:05:19.472Z</time>
      </trkpt>
      <trkpt lat="48.85363" lon="2.33667">
        <ele>79.2</ele>
        <time>2015-05-11T21:05:20.481Z</time>
      </trkpt>
      <trkpt lat="48.85365" lon="2.33674">
        <ele>79.4</ele>
        <time>2015-05-11T21:05:21.394Z</time>
      </trkpt>
      <trkpt lat="48.85369" lon="2.33685">
        <ele>79.9</ele>
        <time>2015-05-11T21:05:23.449Z</time>
      </trkpt>
      <trkpt lat="48.85374" lon="2.33689">
        <ele>80</ele>
        <time>2015-05-11T21:05:24.469Z</time>
      </trkpt>
      <trkpt lat="48.85378" lon="2.33693">
        <ele>80.1</ele>
        <time>2015-05-11T21:05:25.476Z</time>
      </trkpt>
      <trkpt lat="48.85381" lon="2.33698">
        <ele>80.4</ele>
        <time>2015-05-11T21:05:26.453Z</time>
      </trkpt>
      <trkpt lat="48.85383" lon="2.33709">
        <ele>81.1</ele>
        <time>2015-05-11T21:05:28.467Z</time>
      </trkpt>
      <trkpt lat="48.85383" lon="2.33715">
        <ele>81.4</ele>
        <time>2015-05-11T21:05:29.437Z</time>
      </trkpt>
      <trkpt lat="48.85382" lon="2.33728">
        <ele>81.3</ele>
        <time>2015-05-11T21:05:31.536Z</time>
      </trkpt>
      <trkpt lat="48.85382" lon="2.33734">
        <ele>81.1</ele>
        <time>2015-05-11T21:05:32.456Z</time>
      </trkpt>
      <trkpt lat="48.85382" lon="2.33746">
        <ele>81.4</ele>
        <time>2015-05-11T21:05:35.426Z</time>
      </trkpt>
      <trkpt lat="48.85382" lon="2.33749">
        <ele>81.1</ele>
        <time>2015-05-11T21:05:36.468Z</time>
      </trkpt>
      <trkpt lat="48.85381" lon="2.33759">
        <ele>81.3</ele>
        <time>2015-05-11T21:05:38.504Z</time>
      </trkpt>
      <trkpt lat="48.8538" lon="2.33763">
        <ele>81.4</ele>
        <time>2015-05-11T21:05:39.515Z</time>
      </trkpt>
      <trkpt lat="48.85377" lon="2.33776">
        <ele>81.6</ele>
        <time>2015-05-11T21:05:42.565Z</time>
      </trkpt>
      <trkpt lat="48.85374" lon="2.33781">
        <ele>81.8</ele>
        <time>2015-05-11T21:05:43.504Z</time>
      </trkpt>
      <trkpt lat="48.85368" lon="2.33789">
        <ele>81.3</ele>
        <time>2015-05-11T21:05:45.440Z</time>
      </trkpt>
      <trkpt lat="48.85367" lon="2.33795">
        <ele>81.2</ele>
        <time>2015-05-11T21:05:46.449Z</time>
      </trkpt>
      <trkpt lat="48.85366" lon="2.33803">
        <ele>80.9</ele>
        <time>2015-05-11T21:05:47.586Z</time>
      </trkpt>
      <trkpt lat="48.85366" lon="2.33809">
        <ele>80.4</ele>
        <time>2015-05-11T21:05:48.550Z</time>
      </trkpt>
      <trkpt lat="48.85364" lon="2.33821">
        <ele>80.1</ele>
        <time>2015-05-11T21:05:50.501Z</time>
      </trkpt>
      <trkpt lat="48.85363" lon="2.33827">
        <ele>79.8</ele>
        <time>2015-05-11T21:05:51.508Z</time>
      </trkpt>
      <trkpt lat="48.85361" lon="2.3384">
        <ele>81.5</ele>
        <time>2015-05-11T21:05:54.495Z</time>
      </trkpt>
      <trkpt lat="48.8536" lon="2.33844">
        <ele>81.6</ele>
        <time>2015-05-11T21:05:55.503Z</time>
      </trkpt>
      <trkpt lat="48.85358" lon="2.33853">
        <ele>82</ele>
        <time>2015-05-11T21:05:57.838Z</time>
      </trkpt>
      <trkpt lat="48.85357" lon="2.33858">
        <ele>82.2</ele>
        <time>2015-05-11T21:05:58.417Z</time>
      </trkpt>
      <trkpt lat="48.85357" lon="2.3387">
        <ele>82.3</ele>
        <time>2015-05-11T21:06:00.661Z</time>
      </trkpt>
      <trkpt lat="48.85358" lon="2.33875">
        <ele>81.9</ele>
        <time>2015-05-11T21:06:01.470Z</time>
      </trkpt>
      <trkpt lat="48.85358" lon="2.33888">
        <ele>81.8</ele>
        <time>2015-05-11T21:06:03.421Z</time>
      </trkpt>
      <trkpt lat="48.85359" lon="2.33896">
        <ele>81.6</ele>
        <time>2015-05-11T21:06:04.429Z</time>
      </trkpt>
      <trkpt lat="48.85359" lon="2.33905">
        <ele>81.5</ele>
        <time>2015-05-11T21:06:05.451Z</time>
      </trkpt>
      <trkpt lat="48.8536" lon="2.33911">
        <ele>81.6</ele>
        <time>2015-05-11T21:06:06.459Z</time>
      </trkpt>
      <trkpt lat="48.85361" lon="2.33924">
        <ele>81.1</ele>
        <time>2015-05-11T21:06:08.503Z</time>
      </trkpt>
      <trkpt lat="48.85361" lon="2.3393">
        <ele>81</ele>
        <time>2015-05-11T21:06:09.417Z</time>
      </trkpt>
      <trkpt lat="48.8536" lon="2.33943">
        <ele>80.7</ele>
        <time>2015-05-11T21:06:11.504Z</time>
      </trkpt>
      <trkpt lat="48.85358" lon="2.3395">
        <ele>80.7</ele>
        <time>2015-05-11T21:06:12.420Z</time>
      </trkpt>
      <trkpt lat="48.85357" lon="2.33957">
        <ele>80.8</ele>
        <time>2015-05-11T21:06:13.435Z</time>
      </trkpt>
      <trkpt lat="48.85357" lon="2.33965">
        <ele>80.8</ele>
        <time>2015-05-11T21:06:14.464Z</time>
      </trkpt>
      <trkpt lat="48.85355" lon="2.33972">
        <ele>80.8</ele>
        <time>2015-05-11T21:06:15.429Z</time>
      </trkpt>
      <trkpt lat="48.85354" lon="2.33979">
        <ele>80.9</ele>
        <time>2015-05-11T21:06:16.421Z</time>
      </trkpt>
      <trkpt lat="48.85353" lon="2.33986">
        <ele>81.1</ele>
        <time>2015-05-11T21:06:17.981Z</time>
      </trkpt>
      <trkpt lat="48.85353" lon="2.33994">
        <ele>81.1</ele>
        <time>2015-05-11T21:06:18.450Z</time>
      </trkpt>
      <trkpt lat="48.85351" lon="2.34006">
        <ele>81.7</ele>
        <time>2015-05-11T21:06:20.541Z</time>
      </trkpt>
      <trkpt lat="48.85352" lon="2.34011">
        <ele>81.7</ele>
        <time>2015-05-11T21:06:21.389Z</time>
      </trkpt>
      <trkpt lat="48.85351" lon="2.34029">
        <ele>82.2</ele>
        <time>2015-05-11T21:06:24.458Z</time>
      </trkpt>
      <trkpt lat="48.85349" lon="2.34039">
        <ele>82.1</ele>
        <time>2015-05-11T21:06:26.473Z</time>
      </trkpt>
      <trkpt lat="48.85349" lon="2.34044">
        <ele>81.8</ele>
        <time>2015-05-11T21:06:27.387Z</time>
      </trkpt>
      <trkpt lat="48.85349" lon="2.34051">
        <ele>81.8</ele>
        <time>2015-05-11T21:06:28.393Z</time>
      </trkpt>
      <trkpt lat="48.85349" lon="2.34058">
        <ele>81.7</ele>
        <time>2015-05-11T21:06:29.394Z</time>
      </trkpt>
      <trkpt lat="48.85349" lon="2.34067">
        <ele>81.4</ele>
        <time>2015-05-11T21:06:30.512Z</time>
      </trkpt>
      <trkpt lat="48.8535" lon="2.34074">
        <ele>81.3</ele>
        <time>2015-05-11T21:06:31.472Z</time>
      </trkpt>
      <trkpt lat="48.85349" lon="2.34087">
        <ele>81.2</ele>
        <time>2015-05-11T21:06:33.410Z</time>
      </trkpt>
      <trkpt lat="48.85349" lon="2.34094">
        <ele>81.2</ele>
        <time>2015-05-11T21:06:34.426Z</time>
      </trkpt>
      <trkpt lat="48.85349" lon="2.34102">
        <ele>81.3</ele>
        <time>2015-05-11T21:06:35.399Z</time>
      </trkpt>
      <trkpt lat="48.85349" lon="2.34109">
        <ele>81.7</ele>
        <time>2015-05-11T21:06:36.430Z</time>
      </trkpt>
      <trkpt lat="48.85347" lon="2.34118">
        <ele>82</ele>
        <time>2015-05-11T21:06:37.482Z</time>
      </trkpt>
      <trkpt lat="48.85346" lon="2.34126">
        <ele>82.1</ele>
        <time>2015-05-11T21:06:38.446Z</time>
      </trkpt>
      <trkpt lat="48.85343" lon="2.34135">
        <ele>82.5</ele>
        <time>2015-05-11T21:06:39.468Z</time>
      </trkpt>
      <trkpt lat="48.85342" lon="2.34143">
        <ele>82.8</ele>
        <time>2015-05-11T21:06:40.369Z</time>
      </trkpt>
      <trkpt lat="48.85341" lon="2.34153">
        <ele>83</ele>
        <time>2015-05-11T21:06:42.606Z</time>
      </trkpt>
      <trkpt lat="48.85344" lon="2.3423">
        <ele>81.7</ele>
        <time>2015-05-11T21:06:58.483Z</time>
      </trkpt>
      <trkpt lat="48.85348" lon="2.34233">
        <ele>81.6</ele>
        <time>2015-05-11T21:06:59.477Z</time>
      </trkpt>
      <trkpt lat="48.85354" lon="2.34237">
        <ele>81.4</ele>
        <time>2015-05-11T21:07:00.491Z</time>
      </trkpt>
      <trkpt lat="48.85359" lon="2.34241">
        <ele>81.4</ele>
        <time>2015-05-11T21:07:01.505Z</time>
      </trkpt>
      <trkpt lat="48.85364" lon="2.34244">
        <ele>81.6</ele>
        <time>2015-05-11T21:07:02.401Z</time>
      </trkpt>
      <trkpt lat="48.85368" lon="2.34248">
        <ele>81.6</ele>
        <time>2015-05-11T21:07:03.416Z</time>
      </trkpt>
      <trkpt lat="48.85374" lon="2.3425">
        <ele>81.7</ele>
        <time>2015-05-11T21:07:04.433Z</time>
      </trkpt>
      <trkpt lat="48.85381" lon="2.34257">
        <ele>81.3</ele>
        <time>2015-05-11T21:07:07.473Z</time>
      </trkpt>
      <trkpt lat="48.85382" lon="2.34259">
        <ele>81.2</ele>
        <time>2015-05-11T21:07:08.407Z</time>
      </trkpt>
      <trkpt lat="48.85384" lon="2.34259">
        <ele>81.6</ele>
        <time>2015-05-11T21:07:12.488Z</time>
      </trkpt>
      <trkpt lat="48.85394" lon="2.34264">
        <ele>82.9</ele>
        <time>2015-05-11T21:07:15.421Z</time>
      </trkpt>
      <trkpt lat="48.85398" lon="2.34269">
        <ele>83.3</ele>
        <time>2015-05-11T21:07:16.430Z</time>
      </trkpt>
      <trkpt lat="48.85402" lon="2.34274">
        <ele>83.5</ele>
        <time>2015-05-11T21:07:17.444Z</time>
      </trkpt>
      <trkpt lat="48.85405" lon="2.34279">
        <ele>83.9</ele>
        <time>2015-05-11T21:07:18.891Z</time>
      </trkpt>
      <trkpt lat="48.85409" lon="2.34284">
        <ele>84.1</ele>
        <time>2015-05-11T21:07:19.432Z</time>
      </trkpt>
      <trkpt lat="48.85415" lon="2.34293">
        <ele>82.9</ele>
        <time>2015-05-11T21:07:20.438Z</time>
      </trkpt>
      <trkpt lat="48.85421" lon="2.34306">
        <ele>82.3</ele>
        <time>2015-05-11T21:07:21.493Z</time>
      </trkpt>
      <trkpt lat="48.85424" lon="2.34316">
        <ele>80.4</ele>
        <time>2015-05-11T21:07:23.476Z</time>
      </trkpt>
      <trkpt lat="48.85424" lon="2.34321">
        <ele>80.6</ele>
        <time>2015-05-11T21:07:24.415Z</time>
      </trkpt>
      <trkpt lat="48.85422" lon="2.34333">
        <ele>81.7</ele>
        <time>2015-05-11T21:07:38.496Z</time>
      </trkpt>
      <trkpt lat="48.85421" lon="2.34336">
        <ele>81.6</ele>
        <time>2015-05-11T21:07:39.410Z</time>
      </trkpt>
      <trkpt lat="48.85416" lon="2.34347">
        <ele>81.4</ele>
        <time>2015-05-11T21:07:42.516Z</time>
      </trkpt>
      <trkpt lat="48.85414" lon="2.34351">
        <ele>81.3</ele>
        <time>2015-05-11T21:07:43.511Z</time>
      </trkpt>
      <trkpt lat="48.8541" lon="2.3436">
        <ele>80.7</ele>
        <time>2015-05-11T21:07:45.411Z</time>
      </trkpt>
      <trkpt lat="48.85408" lon="2.34365">
        <ele>80.2</ele>
        <time>2015-05-11T21:07:46.416Z</time>
      </trkpt>
      <trkpt lat="48.85405" lon="2.34373">
        <ele>80.3</ele>
        <time>2015-05-11T21:07:47.532Z</time>
      </trkpt>
      <trkpt lat="48.85403" lon="2.34377">
        <ele>80.5</ele>
        <time>2015-05-11T21:07:49.497Z</time>
      </trkpt>
      <trkpt lat="48.85397" lon="2.34387">
        <ele>80.1</ele>
        <time>2015-05-11T21:07:52.608Z</time>
      </trkpt>
      <trkpt lat="48.85396" lon="2.34389">
        <ele>80.4</ele>
        <time>2015-05-11T21:07:53.442Z</time>
      </trkpt>
      <trkpt lat="48.85389" lon="2.34396">
        <ele>79.2</ele>
        <time>2015-05-11T21:07:56.446Z</time>
      </trkpt>
      <trkpt lat="48.85388" lon="2.34399">
        <ele>79.5</ele>
        <time>2015-05-11T21:07:57.458Z</time>
      </trkpt>
      <trkpt lat="48.8538" lon="2.344">
        <ele>78.6</ele>
        <time>2015-05-11T21:08:03.202Z</time>
      </trkpt>
      <trkpt lat="48.85378" lon="2.34399">
        <ele>78.2</ele>
        <time>2015-05-11T21:08:03.450Z</time>
      </trkpt>
      <trkpt lat="48.8537" lon="2.34399">
        <ele>77.4</ele>
        <time>2015-05-11T21:08:06.517Z</time>
      </trkpt>
      <trkpt lat="48.85368" lon="2.34401">
        <ele>77.8</ele>
        <time>2015-05-11T21:08:07.540Z</time>
      </trkpt>
      <trkpt lat="48.85364" lon="2.34406">
        <ele>77.9</ele>
        <time>2015-05-11T21:08:09.455Z</time>
      </trkpt>
      <trkpt lat="48.85362" lon="2.34412">
        <ele>78.5</ele>
        <time>2015-05-11T21:08:10.500Z</time>
      </trkpt>
      <trkpt lat="48.85359" lon="2.34423">
        <ele>79.5</ele>
        <time>2015-05-11T21:08:13.456Z</time>
      </trkpt>
      <trkpt lat="48.85359" lon="2.34427">
        <ele>79.8</ele>
        <time>2015-05-11T21:08:13.519Z</time>
      </trkpt>
      <trkpt lat="48.85361" lon="2.34438">
        <ele>79.2</ele>
        <time>2015-05-11T21:08:16.712Z</time>
      </trkpt>
      <trkpt lat="48.85362" lon="2.34441">
        <ele>79.1</ele>
        <time>2015-05-11T21:08:17.527Z</time>
      </trkpt>
      <trkpt lat="48.85367" lon="2.34446">
        <ele>80.6</ele>
        <time>2015-05-11T21:08:56.498Z</time>
      </trkpt>
      <trkpt lat="48.85369" lon="2.34455">
        <ele>81.3</ele>
        <time>2015-05-11T21:08:57.510Z</time>
      </trkpt>
      <trkpt lat="48.85376" lon="2.34455">
        <ele>78.9</ele>
        <time>2015-05-11T21:09:00.466Z</time>
      </trkpt>
      <trkpt lat="48.85379" lon="2.34455">
        <ele>78.8</ele>
        <time>2015-05-11T21:09:01.525Z</time>
      </trkpt>
      <trkpt lat="48.85388" lon="2.34457">
        <ele>79.1</ele>
        <time>2015-05-11T21:09:04.507Z</time>
      </trkpt>
      <trkpt lat="48.85391" lon="2.34458">
        <ele>79.3</ele>
        <time>2015-05-11T21:09:05.523Z</time>
      </trkpt>
      <trkpt lat="48.85396" lon="2.34463">
        <ele>79.7</ele>
        <time>2015-05-11T21:09:08.284Z</time>
      </trkpt>
      <trkpt lat="48.85399" lon="2.34465">
        <ele>80.1</ele>
        <time>2015-05-11T21:09:08.587Z</time>
      </trkpt>
      <trkpt lat="48.85406" lon="2.34471">
        <ele>80.5</ele>
        <time>2015-05-11T21:09:10.479Z</time>
      </trkpt>
      <trkpt lat="48.85409" lon="2.34474">
        <ele>80.7</ele>
        <time>2015-05-11T21:09:11.490Z</time>
      </trkpt>
      <trkpt lat="48.85415" lon="2.34479">
        <ele>80.9</ele>
        <time>2015-05-11T21:09:13.511Z</time>
      </trkpt>
      <trkpt lat="48.85418" lon="2.34482">
        <ele>81.1</ele>
        <time>2015-05-11T21:09:14.528Z</time>
      </trkpt>
      <trkpt lat="48.85425" lon="2.34488">
        <ele>81.3</ele>
        <time>2015-05-11T21:09:16.479Z</time>
      </trkpt>
      <trkpt lat="48.85428" lon="2.34491">
        <ele>81.5</ele>
        <time>2015-05-11T21:09:17.499Z</time>
      </trkpt>
      <trkpt lat="48.85434" lon="2.34494">
        <ele>82.3</ele>
        <time>2015-05-11T21:09:18.518Z</time>
      </trkpt>
      <trkpt lat="48.85437" lon="2.34497">
        <ele>82.3</ele>
        <time>2015-05-11T21:09:19.535Z</time>
      </trkpt>
      <trkpt lat="48.85443" lon="2.34503">
        <ele>82.5</ele>
        <time>2015-05-11T21:09:21.438Z</time>
      </trkpt>
      <trkpt lat="48.85445" lon="2.34507">
        <ele>82.6</ele>
        <time>2015-05-11T21:09:22.490Z</time>
      </trkpt>
      <trkpt lat="48.85448" lon="2.34516">
        <ele>82.8</ele>
        <time>2015-05-11T21:09:25.463Z</time>
      </trkpt>
      <trkpt lat="48.85449" lon="2.34519">
        <ele>83</ele>
        <time>2015-05-11T21:09:26.492Z</time>
      </trkpt>
      <trkpt lat="48.85455" lon="2.34528">
        <ele>83.5</ele>
        <time>2015-05-11T21:09:28.652Z</time>
      </trkpt>
      <trkpt lat="48.85458" lon="2.34531">
        <ele>83.7</ele>
        <time>2015-05-11T21:09:29.476Z</time>
      </trkpt>
      <trkpt lat="48.85463" lon="2.34539">
        <ele>83.7</ele>
        <time>2015-05-11T21:09:32.466Z</time>
      </trkpt>
      <trkpt lat="48.85466" lon="2.34542">
        <ele>83.6</ele>
        <time>2015-05-11T21:09:32.517Z</time>
      </trkpt>
      <trkpt lat="48.85473" lon="2.34549">
        <ele>83.7</ele>
        <time>2015-05-11T21:09:34.439Z</time>
      </trkpt>
      <trkpt lat="48.85475" lon="2.34553">
        <ele>83.7</ele>
        <time>2015-05-11T21:09:35.437Z</time>
      </trkpt>
      <trkpt lat="48.8548" lon="2.34559">
        <ele>83.7</ele>
        <time>2015-05-11T21:09:37.583Z</time>
      </trkpt>
      <trkpt lat="48.85483" lon="2.34562">
        <ele>83.7</ele>
        <time>2015-05-11T21:09:38.501Z</time>
      </trkpt>
      <trkpt lat="48.85491" lon="2.34567">
        <ele>83.5</ele>
        <time>2015-05-11T21:09:40.452Z</time>
      </trkpt>
      <trkpt lat="48.85496" lon="2.34572">
        <ele>83.4</ele>
        <time>2015-05-11T21:09:41.476Z</time>
      </trkpt>
      <trkpt lat="48.855" lon="2.34575">
        <ele>83.4</ele>
        <time>2015-05-11T21:09:42.597Z</time>
      </trkpt>
      <trkpt lat="48.85505" lon="2.34579">
        <ele>83.5</ele>
        <time>2015-05-11T21:09:43.507Z</time>
      </trkpt>
      <trkpt lat="48.85509" lon="2.34583">
        <ele>83.6</ele>
        <time>2015-05-11T21:09:44.408Z</time>
      </trkpt>
      <trkpt lat="48.85513" lon="2.34587">
        <ele>83.9</ele>
        <time>2015-05-11T21:09:45.445Z</time>
      </trkpt>
      <trkpt lat="48.85518" lon="2.34592">
        <ele>84.2</ele>
        <time>2015-05-11T21:09:46.459Z</time>
      </trkpt>
      <trkpt lat="48.85525" lon="2.34596">
        <ele>84.5</ele>
        <time>2015-05-11T21:09:47.481Z</time>
      </trkpt>
      <trkpt lat="48.8553" lon="2.346">
        <ele>84.7</ele>
        <time>2015-05-11T21:09:48.496Z</time>
      </trkpt>
      <trkpt lat="48.85536" lon="2.34603">
        <ele>84.9</ele>
        <time>2015-05-11T21:09:49.500Z</time>
      </trkpt>
      <trkpt lat="48.85541" lon="2.34606">
        <ele>84.9</ele>
        <time>2015-05-11T21:09:50.528Z</time>
      </trkpt>
      <trkpt lat="48.85546" lon="2.34609">
        <ele>84.8</ele>
        <time>2015-05-11T21:09:51.407Z</time>
      </trkpt>
      <trkpt lat="48.85554" lon="2.34613">
        <ele>84.6</ele>
        <time>2015-05-11T21:09:53.445Z</time>
      </trkpt>
      <trkpt lat="48.85557" lon="2.34615">
        <ele>84.5</ele>
        <time>2015-05-11T21:09:54.485Z</time>
      </trkpt>
      <trkpt lat="48.85563" lon="2.3462">
        <ele>83.4</ele>
        <time>2015-05-11T21:09:57.801Z</time>
      </trkpt>
      <trkpt lat="48.85566" lon="2.34622">
        <ele>83.2</ele>
        <time>2015-05-11T21:09:58.419Z</time>
      </trkpt>
      <trkpt lat="48.85573" lon="2.34625">
        <ele>82.8</ele>
        <time>2015-05-11T21:10:00.462Z</time>
      </trkpt>
      <trkpt lat="48.85575" lon="2.34628">
        <ele>82.4</ele>
        <time>2015-05-11T21:10:01.485Z</time>
      </trkpt>
      <trkpt lat="48.85581" lon="2.3463">
        <ele>81</ele>
        <time>2015-05-11T21:10:03.407Z</time>
      </trkpt>
      <trkpt lat="48.85585" lon="2.3463">
        <ele>80.1</ele>
        <time>2015-05-11T21:10:04.451Z</time>
      </trkpt>
      <trkpt lat="48.85591" lon="2.34627">
        <ele>78.3</ele>
        <time>2015-05-11T21:10:05.436Z</time>
      </trkpt>
      <trkpt lat="48.85597" lon="2.34628">
        <ele>76.8</ele>
        <time>2015-05-11T21:10:06.482Z</time>
      </trkpt>
      <trkpt lat="48.85603" lon="2.34628">
        <ele>75.6</ele>
        <time>2015-05-11T21:10:07.963Z</time>
      </trkpt>
      <trkpt lat="48.85607" lon="2.34629">
        <ele>75.3</ele>
        <time>2015-05-11T21:10:08.497Z</time>
      </trkpt>
      <trkpt lat="48.85612" lon="2.34631">
        <ele>74.5</ele>
        <time>2015-05-11T21:10:09.418Z</time>
      </trkpt>
      <trkpt lat="48.85617" lon="2.34633">
        <ele>74.2</ele>
        <time>2015-05-11T21:10:10.461Z</time>
      </trkpt>
      <trkpt lat="48.85621" lon="2.34635">
        <ele>73.8</ele>
        <time>2015-05-11T21:10:11.509Z</time>
      </trkpt>
      <trkpt lat="48.85626" lon="2.34639">
        <ele>73.4</ele>
        <time>2015-05-11T21:10:12.557Z</time>
      </trkpt>
      <trkpt lat="48.85634" lon="2.34645">
        <ele>74</ele>
        <time>2015-05-11T21:10:12.979Z</time>
      </trkpt>
      <trkpt lat="48.85637" lon="2.34648">
        <ele>74.2</ele>
        <time>2015-05-11T21:10:15.521Z</time>
      </trkpt>
      <trkpt lat="48.85641" lon="2.3465">
        <ele>74.1</ele>
        <time>2015-05-11T21:10:16.435Z</time>
      </trkpt>
      <trkpt lat="48.85646" lon="2.34653">
        <ele>74.7</ele>
        <time>2015-05-11T21:10:17.455Z</time>
      </trkpt>
      <trkpt lat="48.85654" lon="2.34658">
        <ele>75.5</ele>
        <time>2015-05-11T21:10:19.485Z</time>
      </trkpt>
      <trkpt lat="48.85659" lon="2.3466">
        <ele>75.9</ele>
        <time>2015-05-11T21:10:20.492Z</time>
      </trkpt>
      <trkpt lat="48.85665" lon="2.34664">
        <ele>75.8</ele>
        <time>2015-05-11T21:10:21.628Z</time>
      </trkpt>
      <trkpt lat="48.8567" lon="2.34666">
        <ele>75.7</ele>
        <time>2015-05-11T21:10:22.519Z</time>
      </trkpt>
      <trkpt lat="48.85674" lon="2.34668">
        <ele>75.7</ele>
        <time>2015-05-11T21:10:23.536Z</time>
      </trkpt>
      <trkpt lat="48.85678" lon="2.3467">
        <ele>75.3</ele>
        <time>2015-05-11T21:10:24.549Z</time>
      </trkpt>
      <trkpt lat="48.85683" lon="2.34672">
        <ele>75.3</ele>
        <time>2015-05-11T21:10:25.563Z</time>
      </trkpt>
      <trkpt lat="48.85687" lon="2.34674">
        <ele>75.8</ele>
        <time>2015-05-11T21:10:26.465Z</time>
      </trkpt>
      <trkpt lat="48.85695" lon="2.34679">
        <ele>75.5</ele>
        <time>2015-05-11T21:10:28.511Z</time>
      </trkpt>
      <trkpt lat="48.85699" lon="2.34681">
        <ele>75</ele>
        <time>2015-05-11T21:10:29.456Z</time>
      </trkpt>
      <trkpt lat="48.85707" lon="2.34685">
        <ele>74.6</ele>
        <time>2015-05-11T21:10:31.491Z</time>
      </trkpt>
      <trkpt lat="48.85711" lon="2.34686">
        <ele>75.2</ele>
        <time>2015-05-11T21:10:32.498Z</time>
      </trkpt>
      <trkpt lat="48.85719" lon="2.34685">
        <ele>75.7</ele>
        <time>2015-05-11T21:10:34.458Z</time>
      </trkpt>
      <trkpt lat="48.85722" lon="2.34685">
        <ele>75.9</ele>
        <time>2015-05-11T21:10:35.474Z</time>
      </trkpt>
      <trkpt lat="48.8573" lon="2.34684">
        <ele>76.9</ele>
        <time>2015-05-11T21:10:38.458Z</time>
      </trkpt>
      <trkpt lat="48.85734" lon="2.34685">
        <ele>77.2</ele>
        <time>2015-05-11T21:10:39.472Z</time>
      </trkpt>
      <trkpt lat="48.85742" lon="2.34689">
        <ele>77.4</ele>
        <time>2015-05-11T21:10:42.606Z</time>
      </trkpt>
      <trkpt lat="48.85744" lon="2.3469">
        <ele>77.7</ele>
        <time>2015-05-11T21:10:43.528Z</time>
      </trkpt>
      <trkpt lat="48.85749" lon="2.347">
        <ele>78.5</ele>
        <time>2015-05-11T21:10:47.619Z</time>
      </trkpt>
      <trkpt lat="48.8575" lon="2.34702">
        <ele>78.8</ele>
        <time>2015-05-11T21:10:48.490Z</time>
      </trkpt>
      <trkpt lat="48.85757" lon="2.34706">
        <ele>78.8</ele>
        <time>2015-05-11T21:10:51.424Z</time>
      </trkpt>
      <trkpt lat="48.85759" lon="2.34708">
        <ele>78.8</ele>
        <time>2015-05-11T21:10:52.462Z</time>
      </trkpt>
      <trkpt lat="48.85766" lon="2.34716">
        <ele>79</ele>
        <time>2015-05-11T21:10:55.508Z</time>
      </trkpt>
      <trkpt lat="48.85769" lon="2.34718">
        <ele>79.1</ele>
        <time>2015-05-11T21:10:56.520Z</time>
      </trkpt>
      <trkpt lat="48.85769" lon="2.34718">
        <ele>79.1</ele>
        <time>2015-05-11T21:11:18.560Z</time>
      </trkpt>
      <trkpt lat="48.85791" lon="2.34724">
        <ele>85.3</ele>
        <time>2015-05-11T21:11:19.482Z</time>
      </trkpt>
      <trkpt lat="48.85798" lon="2.34719">
        <ele>87.1</ele>
        <time>2015-05-11T21:11:23.254Z</time>
      </trkpt>
      <trkpt lat="48.85802" lon="2.3472">
        <ele>87.6</ele>
        <time>2015-05-11T21:11:23.496Z</time>
      </trkpt>
      <trkpt lat="48.8581" lon="2.34721">
        <ele>88.9</ele>
        <time>2015-05-11T21:11:26.459Z</time>
      </trkpt>
      <trkpt lat="48.85812" lon="2.3472">
        <ele>88.8</ele>
        <time>2015-05-11T21:11:27.462Z</time>
      </trkpt>
      <trkpt lat="48.8582" lon="2.34721">
        <ele>89.9</ele>
        <time>2015-05-11T21:11:29.477Z</time>
      </trkpt>
      <trkpt lat="48.85824" lon="2.34721">
        <ele>90.4</ele>
        <time>2015-05-11T21:11:30.484Z</time>
      </trkpt>
      <trkpt lat="48.85832" lon="2.34723">
        <ele>91.5</ele>
        <time>2015-05-11T21:11:32.798Z</time>
      </trkpt>
      <trkpt lat="48.85836" lon="2.34723">
        <ele>92.2</ele>
        <time>2015-05-11T21:11:33.451Z</time>
      </trkpt>
      <trkpt lat="48.85843" lon="2.34726">
        <ele>93.3</ele>
        <time>2015-05-11T21:11:35.483Z</time>
      </trkpt>
      <trkpt lat="48.85847" lon="2.34729">
        <ele>93.8</ele>
        <time>2015-05-11T21:11:36.592Z</time>
      </trkpt>
      <trkpt lat="48.85851" lon="2.34733">
        <ele>94.2</ele>
        <time>2015-05-11T21:11:37.852Z</time>
      </trkpt>
      <trkpt lat="48.85855" lon="2.34736">
        <ele>94.5</ele>
        <time>2015-05-11T21:11:38.456Z</time>
      </trkpt>
      <trkpt lat="48.85862" lon="2.34739">
        <ele>95.2</ele>
        <time>2015-05-11T21:11:40.480Z</time>
      </trkpt>
      <trkpt lat="48.85865" lon="2.3474">
        <ele>95.8</ele>
        <time>2015-05-11T21:11:41.497Z</time>
      </trkpt>
      <trkpt lat="48.85866" lon="2.34745">
        <ele>96.5</ele>
        <time>2015-05-11T21:11:50.458Z</time>
      </trkpt>
      <trkpt lat="48.85876" lon="2.34747">
        <ele>97.7</ele>
        <time>2015-05-11T21:11:51.492Z</time>
      </trkpt>
      <trkpt lat="48.85882" lon="2.34742">
        <ele>97.1</ele>
        <time>2015-05-11T21:11:54.583Z</time>
      </trkpt>
      <trkpt lat="48.85884" lon="2.34741">
        <ele>97.2</ele>
        <time>2015-05-11T21:11:55.515Z</time>
      </trkpt>
      <trkpt lat="48.85892" lon="2.34735">
        <ele>97.5</ele>
        <time>2015-05-11T21:12:00.477Z</time>
      </trkpt>
      <trkpt lat="48.85894" lon="2.34733">
        <ele>97.6</ele>
        <time>2015-05-11T21:12:01.519Z</time>
      </trkpt>
      <trkpt lat="48.85902" lon="2.34731">
        <ele>98.4</ele>
        <time>2015-05-11T21:12:03.465Z</time>
      </trkpt>
      <trkpt lat="48.85905" lon="2.34729">
        <ele>98.7</ele>
        <time>2015-05-11T21:12:04.458Z</time>
      </trkpt>
      <trkpt lat="48.8591" lon="2.34724">
        <ele>99.3</ele>
        <time>2015-05-11T21:12:06.502Z</time>
      </trkpt>
      <trkpt lat="48.85912" lon="2.34721">
        <ele>99.6</ele>
        <time>2015-05-11T21:12:07.554Z</time>
      </trkpt>
      <trkpt lat="48.85918" lon="2.34713">
        <ele>101.1</ele>
        <time>2015-05-11T21:12:10.466Z</time>
      </trkpt>
      <trkpt lat="48.85921" lon="2.34709">
        <ele>101.8</ele>
        <time>2015-05-11T21:12:11.482Z</time>
      </trkpt>
      <trkpt lat="48.85928" lon="2.34704">
        <ele>102.7</ele>
        <time>2015-05-11T21:12:13.516Z</time>
      </trkpt>
      <trkpt lat="48.85931" lon="2.34704">
        <ele>103</ele>
        <time>2015-05-11T21:12:14.528Z</time>
      </trkpt>
      <trkpt lat="48.85937" lon="2.34703">
        <ele>104.2</ele>
        <time>2015-05-11T21:12:16.452Z</time>
      </trkpt>
      <trkpt lat="48.8594" lon="2.34702">
        <ele>104.8</ele>
        <time>2015-05-11T21:12:17.463Z</time>
      </trkpt>
      <trkpt lat="48.85943" lon="2.34702">
        <ele>105.7</ele>
        <time>2015-05-11T21:13:17.690Z</time>
      </trkpt>
    </trkseg>
  </trk>
</gpx>